<?xml version="1.0" encoding="UTF-8" standalone="no" ?>
<gpx xmlns="http://www.topografix.com/GPX/1/1" xmlns:xsi="http://www.w3.org/2001/XMLSchema-instance" xsi:schemaLocation="http://www.topografix.com/GPX/1/1 http://www.topografix.com/GPX/1/1/gpx.xsd" version="1.1" creator="VisuGPX - https://www.visugpx.com">
  <metadata>
    <name>Cabris le 29-05-2014</name>
    <desc><![CDATA[Sortie VTT Cabris : Serge et Dario .]]></desc>
  </metadata>
  <trk>
    <name><![CDATA[29/05/2014 10:40]]></name>
    <desc><![CDATA[]]></desc>
    <trkseg>
      <trkpt lat="43.65664" lon="6.87485">
        <ele>429.8</ele>
        <time>2014-05-29T08:33:46.000Z</time>
      </trkpt>
      <trkpt lat="43.65662" lon="6.87488">
        <ele>496.3</ele>
        <time>2014-05-29T08:33:50.000Z</time>
      </trkpt>
      <trkpt lat="43.65663" lon="6.87491">
        <ele>514.1</ele>
        <time>2014-05-29T08:33:51.000Z</time>
      </trkpt>
      <trkpt lat="43.65664" lon="6.87497">
        <ele>581.6</ele>
        <time>2014-05-29T08:34:20.000Z</time>
      </trkpt>
      <trkpt lat="43.65665" lon="6.87497">
        <ele>584.6</ele>
        <time>2014-05-29T08:34:21.000Z</time>
      </trkpt>
      <trkpt lat="43.65665" lon="6.87502">
        <ele>585.6</ele>
        <time>2014-05-29T08:34:47.000Z</time>
      </trkpt>
      <trkpt lat="43.65665" lon="6.87503">
        <ele>585.8</ele>
        <time>2014-05-29T08:34:48.000Z</time>
      </trkpt>
      <trkpt lat="43.65661" lon="6.87501">
        <ele>588.5</ele>
        <time>2014-05-29T08:38:00.000Z</time>
      </trkpt>
      <trkpt lat="43.6566" lon="6.87502">
        <ele>588.1</ele>
        <time>2014-05-29T08:38:01.000Z</time>
      </trkpt>
      <trkpt lat="43.6566" lon="6.87508">
        <ele>592.9</ele>
        <time>2014-05-29T08:40:19.000Z</time>
      </trkpt>
      <trkpt lat="43.6566" lon="6.87509">
        <ele>592.8</ele>
        <time>2014-05-29T08:40:20.000Z</time>
      </trkpt>
      <trkpt lat="43.65663" lon="6.87506">
        <ele>594</ele>
        <time>2014-05-29T08:42:03.001Z</time>
      </trkpt>
      <trkpt lat="43.65664" lon="6.87503">
        <ele>593.4</ele>
        <time>2014-05-29T08:42:04.000Z</time>
      </trkpt>
      <trkpt lat="43.65661" lon="6.875">
        <ele>594.6</ele>
        <time>2014-05-29T08:42:07.000Z</time>
      </trkpt>
      <trkpt lat="43.6566" lon="6.87499">
        <ele>594.6</ele>
        <time>2014-05-29T08:42:08.000Z</time>
      </trkpt>
      <trkpt lat="43.65658" lon="6.87497">
        <ele>596</ele>
        <time>2014-05-29T08:42:10.000Z</time>
      </trkpt>
      <trkpt lat="43.65655" lon="6.87495">
        <ele>596.9</ele>
        <time>2014-05-29T08:42:11.000Z</time>
      </trkpt>
      <trkpt lat="43.65657" lon="6.87495">
        <ele>596.8</ele>
        <time>2014-05-29T08:42:12.000Z</time>
      </trkpt>
      <trkpt lat="43.65659" lon="6.87491">
        <ele>598.2</ele>
        <time>2014-05-29T08:42:13.000Z</time>
      </trkpt>
      <trkpt lat="43.65658" lon="6.8749">
        <ele>599.8</ele>
        <time>2014-05-29T08:42:14.000Z</time>
      </trkpt>
      <trkpt lat="43.65661" lon="6.87484">
        <ele>599.3</ele>
        <time>2014-05-29T08:42:15.000Z</time>
      </trkpt>
      <trkpt lat="43.65662" lon="6.87479">
        <ele>601.9</ele>
        <time>2014-05-29T08:42:17.000Z</time>
      </trkpt>
      <trkpt lat="43.65662" lon="6.87476">
        <ele>604.3</ele>
        <time>2014-05-29T08:42:18.000Z</time>
      </trkpt>
      <trkpt lat="43.65664" lon="6.87472">
        <ele>603.7</ele>
        <time>2014-05-29T08:42:19.000Z</time>
      </trkpt>
      <trkpt lat="43.65666" lon="6.87471">
        <ele>604.2</ele>
        <time>2014-05-29T08:42:20.000Z</time>
      </trkpt>
      <trkpt lat="43.65667" lon="6.87467">
        <ele>605.2</ele>
        <time>2014-05-29T08:42:21.000Z</time>
      </trkpt>
      <trkpt lat="43.65669" lon="6.87463">
        <ele>605</ele>
        <time>2014-05-29T08:42:22.000Z</time>
      </trkpt>
      <trkpt lat="43.6567" lon="6.87461">
        <ele>604.7</ele>
        <time>2014-05-29T08:42:22.999Z</time>
      </trkpt>
      <trkpt lat="43.65672" lon="6.87458">
        <ele>604.7</ele>
        <time>2014-05-29T08:42:24.000Z</time>
      </trkpt>
      <trkpt lat="43.65673" lon="6.87456">
        <ele>604.7</ele>
        <time>2014-05-29T08:42:25.000Z</time>
      </trkpt>
      <trkpt lat="43.65675" lon="6.87453">
        <ele>604.5</ele>
        <time>2014-05-29T08:42:26.000Z</time>
      </trkpt>
      <trkpt lat="43.65677" lon="6.87449">
        <ele>604.2</ele>
        <time>2014-05-29T08:42:27.999Z</time>
      </trkpt>
      <trkpt lat="43.65677" lon="6.87446">
        <ele>604.8</ele>
        <time>2014-05-29T08:42:29.000Z</time>
      </trkpt>
      <trkpt lat="43.65678" lon="6.87442">
        <ele>606</ele>
        <time>2014-05-29T08:42:31.000Z</time>
      </trkpt>
      <trkpt lat="43.65677" lon="6.87439">
        <ele>605.7</ele>
        <time>2014-05-29T08:42:32.000Z</time>
      </trkpt>
      <trkpt lat="43.65677" lon="6.87434">
        <ele>604.6</ele>
        <time>2014-05-29T08:42:34.000Z</time>
      </trkpt>
      <trkpt lat="43.65677" lon="6.87432">
        <ele>604.5</ele>
        <time>2014-05-29T08:42:35.000Z</time>
      </trkpt>
      <trkpt lat="43.65676" lon="6.87427">
        <ele>604.1</ele>
        <time>2014-05-29T08:42:37.000Z</time>
      </trkpt>
      <trkpt lat="43.65676" lon="6.87424">
        <ele>603.7</ele>
        <time>2014-05-29T08:42:38.000Z</time>
      </trkpt>
      <trkpt lat="43.65675" lon="6.8742">
        <ele>603.8</ele>
        <time>2014-05-29T08:42:40.000Z</time>
      </trkpt>
      <trkpt lat="43.65675" lon="6.87418">
        <ele>603.9</ele>
        <time>2014-05-29T08:42:41.000Z</time>
      </trkpt>
      <trkpt lat="43.65675" lon="6.87412">
        <ele>603.6</ele>
        <time>2014-05-29T08:42:43.000Z</time>
      </trkpt>
      <trkpt lat="43.65674" lon="6.87408">
        <ele>603.7</ele>
        <time>2014-05-29T08:42:44.000Z</time>
      </trkpt>
      <trkpt lat="43.65675" lon="6.87405">
        <ele>603.7</ele>
        <time>2014-05-29T08:42:45.000Z</time>
      </trkpt>
      <trkpt lat="43.65675" lon="6.87401">
        <ele>603.6</ele>
        <time>2014-05-29T08:42:46.000Z</time>
      </trkpt>
      <trkpt lat="43.65674" lon="6.87396">
        <ele>603.1</ele>
        <time>2014-05-29T08:42:48.000Z</time>
      </trkpt>
      <trkpt lat="43.65674" lon="6.87393">
        <ele>603.1</ele>
        <time>2014-05-29T08:42:49.000Z</time>
      </trkpt>
      <trkpt lat="43.65676" lon="6.87388">
        <ele>602.1</ele>
        <time>2014-05-29T08:42:50.000Z</time>
      </trkpt>
      <trkpt lat="43.65676" lon="6.87385">
        <ele>601</ele>
        <time>2014-05-29T08:42:51.000Z</time>
      </trkpt>
      <trkpt lat="43.65676" lon="6.8738">
        <ele>600.9</ele>
        <time>2014-05-29T08:42:52.000Z</time>
      </trkpt>
      <trkpt lat="43.65676" lon="6.87376">
        <ele>602.9</ele>
        <time>2014-05-29T08:42:53.000Z</time>
      </trkpt>
      <trkpt lat="43.65677" lon="6.87373">
        <ele>602.5</ele>
        <time>2014-05-29T08:42:54.000Z</time>
      </trkpt>
      <trkpt lat="43.65677" lon="6.87369">
        <ele>602.8</ele>
        <time>2014-05-29T08:42:55.000Z</time>
      </trkpt>
      <trkpt lat="43.65677" lon="6.87364">
        <ele>603.6</ele>
        <time>2014-05-29T08:42:57.000Z</time>
      </trkpt>
      <trkpt lat="43.65677" lon="6.87362">
        <ele>603.9</ele>
        <time>2014-05-29T08:42:58.000Z</time>
      </trkpt>
      <trkpt lat="43.65675" lon="6.87359">
        <ele>599.9</ele>
        <time>2014-05-29T08:42:59.000Z</time>
      </trkpt>
      <trkpt lat="43.65675" lon="6.87355">
        <ele>599.4</ele>
        <time>2014-05-29T08:43:00.000Z</time>
      </trkpt>
      <trkpt lat="43.65674" lon="6.87352">
        <ele>598.6</ele>
        <time>2014-05-29T08:43:01.000Z</time>
      </trkpt>
      <trkpt lat="43.65674" lon="6.87349">
        <ele>598.2</ele>
        <time>2014-05-29T08:43:02.000Z</time>
      </trkpt>
      <trkpt lat="43.65674" lon="6.87345">
        <ele>597.7</ele>
        <time>2014-05-29T08:43:02.999Z</time>
      </trkpt>
      <trkpt lat="43.65674" lon="6.87341">
        <ele>596.9</ele>
        <time>2014-05-29T08:43:04.000Z</time>
      </trkpt>
      <trkpt lat="43.65673" lon="6.87338">
        <ele>597.1</ele>
        <time>2014-05-29T08:43:04.999Z</time>
      </trkpt>
      <trkpt lat="43.65673" lon="6.87333">
        <ele>597.6</ele>
        <time>2014-05-29T08:43:06.000Z</time>
      </trkpt>
      <trkpt lat="43.65674" lon="6.87328">
        <ele>597.8</ele>
        <time>2014-05-29T08:43:07.000Z</time>
      </trkpt>
      <trkpt lat="43.65675" lon="6.87323">
        <ele>597.6</ele>
        <time>2014-05-29T08:43:08.000Z</time>
      </trkpt>
      <trkpt lat="43.65677" lon="6.87319">
        <ele>597.4</ele>
        <time>2014-05-29T08:43:09.000Z</time>
      </trkpt>
      <trkpt lat="43.65676" lon="6.87316">
        <ele>600.2</ele>
        <time>2014-05-29T08:43:10.000Z</time>
      </trkpt>
      <trkpt lat="43.65677" lon="6.87312">
        <ele>600.6</ele>
        <time>2014-05-29T08:43:11.000Z</time>
      </trkpt>
      <trkpt lat="43.65678" lon="6.87308">
        <ele>600.7</ele>
        <time>2014-05-29T08:43:12.000Z</time>
      </trkpt>
      <trkpt lat="43.65679" lon="6.87305">
        <ele>600.6</ele>
        <time>2014-05-29T08:43:13.000Z</time>
      </trkpt>
      <trkpt lat="43.65679" lon="6.87301">
        <ele>601.4</ele>
        <time>2014-05-29T08:43:13.999Z</time>
      </trkpt>
      <trkpt lat="43.65679" lon="6.87295">
        <ele>601.3</ele>
        <time>2014-05-29T08:43:16.000Z</time>
      </trkpt>
      <trkpt lat="43.65679" lon="6.87292">
        <ele>602.5</ele>
        <time>2014-05-29T08:43:17.000Z</time>
      </trkpt>
      <trkpt lat="43.6568" lon="6.87288">
        <ele>601.1</ele>
        <time>2014-05-29T08:43:17.999Z</time>
      </trkpt>
      <trkpt lat="43.6568" lon="6.87285">
        <ele>600.9</ele>
        <time>2014-05-29T08:43:19.000Z</time>
      </trkpt>
      <trkpt lat="43.65681" lon="6.87281">
        <ele>600.7</ele>
        <time>2014-05-29T08:43:20.000Z</time>
      </trkpt>
      <trkpt lat="43.65681" lon="6.87278">
        <ele>600.6</ele>
        <time>2014-05-29T08:43:21.000Z</time>
      </trkpt>
      <trkpt lat="43.65681" lon="6.87275">
        <ele>601</ele>
        <time>2014-05-29T08:43:22.000Z</time>
      </trkpt>
      <trkpt lat="43.65681" lon="6.87271">
        <ele>601.4</ele>
        <time>2014-05-29T08:43:23.000Z</time>
      </trkpt>
      <trkpt lat="43.65681" lon="6.87268">
        <ele>601.8</ele>
        <time>2014-05-29T08:43:24.000Z</time>
      </trkpt>
      <trkpt lat="43.65679" lon="6.87264">
        <ele>602.1</ele>
        <time>2014-05-29T08:43:25.000Z</time>
      </trkpt>
      <trkpt lat="43.65679" lon="6.87261">
        <ele>602.7</ele>
        <time>2014-05-29T08:43:26.000Z</time>
      </trkpt>
      <trkpt lat="43.6568" lon="6.87256">
        <ele>603</ele>
        <time>2014-05-29T08:43:27.000Z</time>
      </trkpt>
      <trkpt lat="43.65681" lon="6.87251">
        <ele>603.4</ele>
        <time>2014-05-29T08:43:28.000Z</time>
      </trkpt>
      <trkpt lat="43.65682" lon="6.87248">
        <ele>603.9</ele>
        <time>2014-05-29T08:43:29.000Z</time>
      </trkpt>
      <trkpt lat="43.65683" lon="6.87244">
        <ele>604.4</ele>
        <time>2014-05-29T08:43:30.000Z</time>
      </trkpt>
      <trkpt lat="43.65684" lon="6.87242">
        <ele>604.6</ele>
        <time>2014-05-29T08:43:30.999Z</time>
      </trkpt>
      <trkpt lat="43.65685" lon="6.87237">
        <ele>603.2</ele>
        <time>2014-05-29T08:43:32.000Z</time>
      </trkpt>
      <trkpt lat="43.65686" lon="6.87236">
        <ele>604</ele>
        <time>2014-05-29T08:43:33.000Z</time>
      </trkpt>
      <trkpt lat="43.6569" lon="6.87238">
        <ele>604.8</ele>
        <time>2014-05-29T08:43:34.000Z</time>
      </trkpt>
      <trkpt lat="43.65692" lon="6.87232">
        <ele>603</ele>
        <time>2014-05-29T08:43:35.000Z</time>
      </trkpt>
      <trkpt lat="43.65694" lon="6.8723">
        <ele>603.6</ele>
        <time>2014-05-29T08:43:36.000Z</time>
      </trkpt>
      <trkpt lat="43.65696" lon="6.87226">
        <ele>603.5</ele>
        <time>2014-05-29T08:43:37.000Z</time>
      </trkpt>
      <trkpt lat="43.65697" lon="6.87222">
        <ele>603.5</ele>
        <time>2014-05-29T08:43:38.000Z</time>
      </trkpt>
      <trkpt lat="43.65699" lon="6.87219">
        <ele>603.3</ele>
        <time>2014-05-29T08:43:39.000Z</time>
      </trkpt>
      <trkpt lat="43.65701" lon="6.87215">
        <ele>602.3</ele>
        <time>2014-05-29T08:43:40.000Z</time>
      </trkpt>
      <trkpt lat="43.65703" lon="6.87211">
        <ele>601.4</ele>
        <time>2014-05-29T08:43:41.000Z</time>
      </trkpt>
      <trkpt lat="43.65705" lon="6.87207">
        <ele>600.7</ele>
        <time>2014-05-29T08:43:42.000Z</time>
      </trkpt>
      <trkpt lat="43.65706" lon="6.87204">
        <ele>599.8</ele>
        <time>2014-05-29T08:43:42.999Z</time>
      </trkpt>
      <trkpt lat="43.65709" lon="6.872">
        <ele>599.9</ele>
        <time>2014-05-29T08:43:44.000Z</time>
      </trkpt>
      <trkpt lat="43.65711" lon="6.87195">
        <ele>599.2</ele>
        <time>2014-05-29T08:43:45.000Z</time>
      </trkpt>
      <trkpt lat="43.65714" lon="6.87191">
        <ele>598.9</ele>
        <time>2014-05-29T08:43:46.000Z</time>
      </trkpt>
      <trkpt lat="43.65716" lon="6.87187">
        <ele>598.8</ele>
        <time>2014-05-29T08:43:47.000Z</time>
      </trkpt>
      <trkpt lat="43.65719" lon="6.87183">
        <ele>598.4</ele>
        <time>2014-05-29T08:43:48.000Z</time>
      </trkpt>
      <trkpt lat="43.65721" lon="6.8718">
        <ele>598.7</ele>
        <time>2014-05-29T08:43:49.000Z</time>
      </trkpt>
      <trkpt lat="43.65724" lon="6.87176">
        <ele>598.6</ele>
        <time>2014-05-29T08:43:50.000Z</time>
      </trkpt>
      <trkpt lat="43.65726" lon="6.87172">
        <ele>598.2</ele>
        <time>2014-05-29T08:43:51.000Z</time>
      </trkpt>
      <trkpt lat="43.65728" lon="6.87169">
        <ele>598.5</ele>
        <time>2014-05-29T08:43:52.000Z</time>
      </trkpt>
      <trkpt lat="43.6573" lon="6.87165">
        <ele>598.1</ele>
        <time>2014-05-29T08:43:53.000Z</time>
      </trkpt>
      <trkpt lat="43.65732" lon="6.87161">
        <ele>597.9</ele>
        <time>2014-05-29T08:43:54.000Z</time>
      </trkpt>
      <trkpt lat="43.65734" lon="6.87156">
        <ele>597.7</ele>
        <time>2014-05-29T08:43:55.000Z</time>
      </trkpt>
      <trkpt lat="43.65736" lon="6.87152">
        <ele>597.3</ele>
        <time>2014-05-29T08:43:56.000Z</time>
      </trkpt>
      <trkpt lat="43.65737" lon="6.87147">
        <ele>597.2</ele>
        <time>2014-05-29T08:43:57.000Z</time>
      </trkpt>
      <trkpt lat="43.65737" lon="6.87142">
        <ele>597.4</ele>
        <time>2014-05-29T08:43:58.000Z</time>
      </trkpt>
      <trkpt lat="43.65738" lon="6.87137">
        <ele>597</ele>
        <time>2014-05-29T08:43:59.000Z</time>
      </trkpt>
      <trkpt lat="43.65738" lon="6.87132">
        <ele>597.2</ele>
        <time>2014-05-29T08:43:59.999Z</time>
      </trkpt>
      <trkpt lat="43.65739" lon="6.87127">
        <ele>597.7</ele>
        <time>2014-05-29T08:44:01.000Z</time>
      </trkpt>
      <trkpt lat="43.65739" lon="6.87123">
        <ele>597.9</ele>
        <time>2014-05-29T08:44:02.000Z</time>
      </trkpt>
      <trkpt lat="43.65739" lon="6.87119">
        <ele>598.6</ele>
        <time>2014-05-29T08:44:03.000Z</time>
      </trkpt>
      <trkpt lat="43.65739" lon="6.87115">
        <ele>599.2</ele>
        <time>2014-05-29T08:44:03.998Z</time>
      </trkpt>
      <trkpt lat="43.65739" lon="6.8711">
        <ele>599.2</ele>
        <time>2014-05-29T08:44:05.000Z</time>
      </trkpt>
      <trkpt lat="43.65738" lon="6.87107">
        <ele>599.7</ele>
        <time>2014-05-29T08:44:06.000Z</time>
      </trkpt>
      <trkpt lat="43.65738" lon="6.87103">
        <ele>600.2</ele>
        <time>2014-05-29T08:44:07.000Z</time>
      </trkpt>
      <trkpt lat="43.65738" lon="6.87098">
        <ele>599.6</ele>
        <time>2014-05-29T08:44:08.000Z</time>
      </trkpt>
      <trkpt lat="43.65739" lon="6.87094">
        <ele>599.3</ele>
        <time>2014-05-29T08:44:09.000Z</time>
      </trkpt>
      <trkpt lat="43.65739" lon="6.8709">
        <ele>598</ele>
        <time>2014-05-29T08:44:10.000Z</time>
      </trkpt>
      <trkpt lat="43.65739" lon="6.87085">
        <ele>598</ele>
        <time>2014-05-29T08:44:11.000Z</time>
      </trkpt>
      <trkpt lat="43.65739" lon="6.87081">
        <ele>597.8</ele>
        <time>2014-05-29T08:44:12.000Z</time>
      </trkpt>
      <trkpt lat="43.65739" lon="6.87077">
        <ele>598.2</ele>
        <time>2014-05-29T08:44:13.000Z</time>
      </trkpt>
      <trkpt lat="43.6574" lon="6.87072">
        <ele>598.1</ele>
        <time>2014-05-29T08:44:14.000Z</time>
      </trkpt>
      <trkpt lat="43.6574" lon="6.87068">
        <ele>597.7</ele>
        <time>2014-05-29T08:44:15.000Z</time>
      </trkpt>
      <trkpt lat="43.6574" lon="6.87064">
        <ele>597.8</ele>
        <time>2014-05-29T08:44:16.000Z</time>
      </trkpt>
      <trkpt lat="43.6574" lon="6.8706">
        <ele>598.1</ele>
        <time>2014-05-29T08:44:16.999Z</time>
      </trkpt>
      <trkpt lat="43.6574" lon="6.87056">
        <ele>598.2</ele>
        <time>2014-05-29T08:44:18.000Z</time>
      </trkpt>
      <trkpt lat="43.65739" lon="6.87053">
        <ele>599.4</ele>
        <time>2014-05-29T08:44:19.000Z</time>
      </trkpt>
      <trkpt lat="43.65738" lon="6.87049">
        <ele>599.2</ele>
        <time>2014-05-29T08:44:20.000Z</time>
      </trkpt>
      <trkpt lat="43.65738" lon="6.87045">
        <ele>599.3</ele>
        <time>2014-05-29T08:44:21.000Z</time>
      </trkpt>
      <trkpt lat="43.65738" lon="6.87041">
        <ele>599</ele>
        <time>2014-05-29T08:44:22.000Z</time>
      </trkpt>
      <trkpt lat="43.65739" lon="6.87037">
        <ele>599.2</ele>
        <time>2014-05-29T08:44:23.000Z</time>
      </trkpt>
      <trkpt lat="43.65739" lon="6.87033">
        <ele>599.1</ele>
        <time>2014-05-29T08:44:24.000Z</time>
      </trkpt>
      <trkpt lat="43.6574" lon="6.87029">
        <ele>598.8</ele>
        <time>2014-05-29T08:44:25.000Z</time>
      </trkpt>
      <trkpt lat="43.6574" lon="6.87026">
        <ele>598.7</ele>
        <time>2014-05-29T08:44:26.000Z</time>
      </trkpt>
      <trkpt lat="43.6574" lon="6.87023">
        <ele>598.4</ele>
        <time>2014-05-29T08:44:27.000Z</time>
      </trkpt>
      <trkpt lat="43.6574" lon="6.87019">
        <ele>598.7</ele>
        <time>2014-05-29T08:44:28.000Z</time>
      </trkpt>
      <trkpt lat="43.6574" lon="6.87014">
        <ele>599</ele>
        <time>2014-05-29T08:44:29.000Z</time>
      </trkpt>
      <trkpt lat="43.65739" lon="6.8701">
        <ele>597.7</ele>
        <time>2014-05-29T08:44:30.000Z</time>
      </trkpt>
      <trkpt lat="43.6574" lon="6.87005">
        <ele>598.4</ele>
        <time>2014-05-29T08:44:31.000Z</time>
      </trkpt>
      <trkpt lat="43.6574" lon="6.87001">
        <ele>598.8</ele>
        <time>2014-05-29T08:44:32.000Z</time>
      </trkpt>
      <trkpt lat="43.6574" lon="6.86996">
        <ele>598.9</ele>
        <time>2014-05-29T08:44:33.000Z</time>
      </trkpt>
      <trkpt lat="43.65741" lon="6.86992">
        <ele>598.8</ele>
        <time>2014-05-29T08:44:34.000Z</time>
      </trkpt>
      <trkpt lat="43.65741" lon="6.86988">
        <ele>598.9</ele>
        <time>2014-05-29T08:44:35.000Z</time>
      </trkpt>
      <trkpt lat="43.65741" lon="6.86984">
        <ele>599.2</ele>
        <time>2014-05-29T08:44:36.000Z</time>
      </trkpt>
      <trkpt lat="43.65742" lon="6.86979">
        <ele>599.2</ele>
        <time>2014-05-29T08:44:37.000Z</time>
      </trkpt>
      <trkpt lat="43.65742" lon="6.86975">
        <ele>599.7</ele>
        <time>2014-05-29T08:44:37.999Z</time>
      </trkpt>
      <trkpt lat="43.65743" lon="6.86971">
        <ele>600</ele>
        <time>2014-05-29T08:44:39.000Z</time>
      </trkpt>
      <trkpt lat="43.65744" lon="6.86967">
        <ele>600.3</ele>
        <time>2014-05-29T08:44:40.000Z</time>
      </trkpt>
      <trkpt lat="43.65744" lon="6.86962">
        <ele>600.2</ele>
        <time>2014-05-29T08:44:41.000Z</time>
      </trkpt>
      <trkpt lat="43.65745" lon="6.86958">
        <ele>599.6</ele>
        <time>2014-05-29T08:44:42.000Z</time>
      </trkpt>
      <trkpt lat="43.65746" lon="6.86954">
        <ele>599.2</ele>
        <time>2014-05-29T08:44:43.000Z</time>
      </trkpt>
      <trkpt lat="43.65746" lon="6.8695">
        <ele>598.9</ele>
        <time>2014-05-29T08:44:44.000Z</time>
      </trkpt>
      <trkpt lat="43.65746" lon="6.86946">
        <ele>599.8</ele>
        <time>2014-05-29T08:44:45.000Z</time>
      </trkpt>
      <trkpt lat="43.65747" lon="6.8694">
        <ele>600.3</ele>
        <time>2014-05-29T08:44:47.000Z</time>
      </trkpt>
      <trkpt lat="43.65747" lon="6.86936">
        <ele>600.5</ele>
        <time>2014-05-29T08:44:48.000Z</time>
      </trkpt>
      <trkpt lat="43.65748" lon="6.86932">
        <ele>600.5</ele>
        <time>2014-05-29T08:44:49.000Z</time>
      </trkpt>
      <trkpt lat="43.65748" lon="6.86928">
        <ele>600.3</ele>
        <time>2014-05-29T08:44:50.000Z</time>
      </trkpt>
      <trkpt lat="43.65749" lon="6.86924">
        <ele>600.4</ele>
        <time>2014-05-29T08:44:51.000Z</time>
      </trkpt>
      <trkpt lat="43.65749" lon="6.86919">
        <ele>600.3</ele>
        <time>2014-05-29T08:44:52.000Z</time>
      </trkpt>
      <trkpt lat="43.65749" lon="6.86915">
        <ele>600.4</ele>
        <time>2014-05-29T08:44:53.000Z</time>
      </trkpt>
      <trkpt lat="43.6575" lon="6.86911">
        <ele>600.9</ele>
        <time>2014-05-29T08:44:54.000Z</time>
      </trkpt>
      <trkpt lat="43.6575" lon="6.86908">
        <ele>600.8</ele>
        <time>2014-05-29T08:44:55.000Z</time>
      </trkpt>
      <trkpt lat="43.6575" lon="6.86905">
        <ele>600.8</ele>
        <time>2014-05-29T08:44:56.000Z</time>
      </trkpt>
      <trkpt lat="43.65749" lon="6.869">
        <ele>602.2</ele>
        <time>2014-05-29T08:44:57.000Z</time>
      </trkpt>
      <trkpt lat="43.6575" lon="6.86897">
        <ele>602.8</ele>
        <time>2014-05-29T08:44:58.000Z</time>
      </trkpt>
      <trkpt lat="43.65751" lon="6.86891">
        <ele>602.5</ele>
        <time>2014-05-29T08:44:59.000Z</time>
      </trkpt>
      <trkpt lat="43.6575" lon="6.86888">
        <ele>601.9</ele>
        <time>2014-05-29T08:45:00.000Z</time>
      </trkpt>
      <trkpt lat="43.6575" lon="6.86883">
        <ele>601.9</ele>
        <time>2014-05-29T08:45:01.000Z</time>
      </trkpt>
      <trkpt lat="43.65748" lon="6.86881">
        <ele>605.5</ele>
        <time>2014-05-29T08:45:02.000Z</time>
      </trkpt>
      <trkpt lat="43.65747" lon="6.86877">
        <ele>606.9</ele>
        <time>2014-05-29T08:45:03.000Z</time>
      </trkpt>
      <trkpt lat="43.65747" lon="6.86874">
        <ele>608.4</ele>
        <time>2014-05-29T08:45:04.000Z</time>
      </trkpt>
      <trkpt lat="43.65746" lon="6.86869">
        <ele>609.4</ele>
        <time>2014-05-29T08:45:06.000Z</time>
      </trkpt>
      <trkpt lat="43.65747" lon="6.86864">
        <ele>609.4</ele>
        <time>2014-05-29T08:45:07.000Z</time>
      </trkpt>
      <trkpt lat="43.65747" lon="6.86859">
        <ele>609.8</ele>
        <time>2014-05-29T08:45:08.000Z</time>
      </trkpt>
      <trkpt lat="43.65747" lon="6.86855">
        <ele>610</ele>
        <time>2014-05-29T08:45:08.999Z</time>
      </trkpt>
      <trkpt lat="43.65747" lon="6.86852">
        <ele>609.6</ele>
        <time>2014-05-29T08:45:10.000Z</time>
      </trkpt>
      <trkpt lat="43.65746" lon="6.86849">
        <ele>609.3</ele>
        <time>2014-05-29T08:45:11.000Z</time>
      </trkpt>
      <trkpt lat="43.65746" lon="6.86843">
        <ele>612</ele>
        <time>2014-05-29T08:45:13.000Z</time>
      </trkpt>
      <trkpt lat="43.65746" lon="6.8684">
        <ele>612.8</ele>
        <time>2014-05-29T08:45:14.000Z</time>
      </trkpt>
      <trkpt lat="43.65746" lon="6.86834">
        <ele>614.1</ele>
        <time>2014-05-29T08:45:16.000Z</time>
      </trkpt>
      <trkpt lat="43.65747" lon="6.86832">
        <ele>614.2</ele>
        <time>2014-05-29T08:45:17.000Z</time>
      </trkpt>
      <trkpt lat="43.65748" lon="6.86829">
        <ele>614.8</ele>
        <time>2014-05-29T08:45:18.000Z</time>
      </trkpt>
      <trkpt lat="43.6575" lon="6.86826">
        <ele>613.8</ele>
        <time>2014-05-29T08:45:19.000Z</time>
      </trkpt>
      <trkpt lat="43.6575" lon="6.86822">
        <ele>613.3</ele>
        <time>2014-05-29T08:45:20.000Z</time>
      </trkpt>
      <trkpt lat="43.6575" lon="6.86818">
        <ele>613.5</ele>
        <time>2014-05-29T08:45:21.000Z</time>
      </trkpt>
      <trkpt lat="43.65749" lon="6.86813">
        <ele>613.6</ele>
        <time>2014-05-29T08:45:22.000Z</time>
      </trkpt>
      <trkpt lat="43.65749" lon="6.86809">
        <ele>614.3</ele>
        <time>2014-05-29T08:45:23.000Z</time>
      </trkpt>
      <trkpt lat="43.65748" lon="6.86804">
        <ele>614.7</ele>
        <time>2014-05-29T08:45:24.000Z</time>
      </trkpt>
      <trkpt lat="43.65747" lon="6.86802">
        <ele>612.9</ele>
        <time>2014-05-29T08:45:25.000Z</time>
      </trkpt>
      <trkpt lat="43.65747" lon="6.86798">
        <ele>611.4</ele>
        <time>2014-05-29T08:45:26.000Z</time>
      </trkpt>
      <trkpt lat="43.65746" lon="6.86795">
        <ele>610.7</ele>
        <time>2014-05-29T08:45:27.000Z</time>
      </trkpt>
      <trkpt lat="43.65744" lon="6.8679">
        <ele>610.5</ele>
        <time>2014-05-29T08:45:29.000Z</time>
      </trkpt>
      <trkpt lat="43.65741" lon="6.86789">
        <ele>609.9</ele>
        <time>2014-05-29T08:45:30.000Z</time>
      </trkpt>
      <trkpt lat="43.65738" lon="6.86786">
        <ele>609.7</ele>
        <time>2014-05-29T08:45:31.473Z</time>
      </trkpt>
      <trkpt lat="43.65734" lon="6.86782">
        <ele>608.4</ele>
        <time>2014-05-29T08:45:33.000Z</time>
      </trkpt>
      <trkpt lat="43.65731" lon="6.86778">
        <ele>607.3</ele>
        <time>2014-05-29T08:45:34.000Z</time>
      </trkpt>
      <trkpt lat="43.65731" lon="6.86772">
        <ele>606</ele>
        <time>2014-05-29T08:45:35.000Z</time>
      </trkpt>
      <trkpt lat="43.65729" lon="6.86768">
        <ele>605.5</ele>
        <time>2014-05-29T08:45:36.000Z</time>
      </trkpt>
      <trkpt lat="43.65726" lon="6.86763">
        <ele>605.2</ele>
        <time>2014-05-29T08:45:37.000Z</time>
      </trkpt>
      <trkpt lat="43.65725" lon="6.86759">
        <ele>604.6</ele>
        <time>2014-05-29T08:45:38.000Z</time>
      </trkpt>
      <trkpt lat="43.65722" lon="6.86754">
        <ele>603.8</ele>
        <time>2014-05-29T08:45:39.000Z</time>
      </trkpt>
      <trkpt lat="43.6572" lon="6.86749">
        <ele>601.7</ele>
        <time>2014-05-29T08:45:40.000Z</time>
      </trkpt>
      <trkpt lat="43.65718" lon="6.86745">
        <ele>601</ele>
        <time>2014-05-29T08:45:41.000Z</time>
      </trkpt>
      <trkpt lat="43.65716" lon="6.86741">
        <ele>602.3</ele>
        <time>2014-05-29T08:45:42.000Z</time>
      </trkpt>
      <trkpt lat="43.65715" lon="6.86734">
        <ele>600.2</ele>
        <time>2014-05-29T08:45:43.000Z</time>
      </trkpt>
      <trkpt lat="43.65714" lon="6.86727">
        <ele>599.2</ele>
        <time>2014-05-29T08:45:44.000Z</time>
      </trkpt>
      <trkpt lat="43.65712" lon="6.86719">
        <ele>599.1</ele>
        <time>2014-05-29T08:45:45.000Z</time>
      </trkpt>
      <trkpt lat="43.6571" lon="6.86711">
        <ele>598.1</ele>
        <time>2014-05-29T08:45:46.000Z</time>
      </trkpt>
      <trkpt lat="43.65708" lon="6.86704">
        <ele>597.7</ele>
        <time>2014-05-29T08:45:47.000Z</time>
      </trkpt>
      <trkpt lat="43.65706" lon="6.86698">
        <ele>597</ele>
        <time>2014-05-29T08:45:48.000Z</time>
      </trkpt>
      <trkpt lat="43.65704" lon="6.86691">
        <ele>597.3</ele>
        <time>2014-05-29T08:45:49.000Z</time>
      </trkpt>
      <trkpt lat="43.65701" lon="6.86683">
        <ele>597.2</ele>
        <time>2014-05-29T08:45:50.000Z</time>
      </trkpt>
      <trkpt lat="43.65699" lon="6.86676">
        <ele>597</ele>
        <time>2014-05-29T08:45:51.000Z</time>
      </trkpt>
      <trkpt lat="43.65695" lon="6.8667">
        <ele>596.8</ele>
        <time>2014-05-29T08:45:52.000Z</time>
      </trkpt>
      <trkpt lat="43.65693" lon="6.86664">
        <ele>595.9</ele>
        <time>2014-05-29T08:45:53.000Z</time>
      </trkpt>
      <trkpt lat="43.65689" lon="6.86658">
        <ele>595.9</ele>
        <time>2014-05-29T08:45:54.000Z</time>
      </trkpt>
      <trkpt lat="43.65686" lon="6.86651">
        <ele>595.9</ele>
        <time>2014-05-29T08:45:55.000Z</time>
      </trkpt>
      <trkpt lat="43.65684" lon="6.86644">
        <ele>595.2</ele>
        <time>2014-05-29T08:45:56.000Z</time>
      </trkpt>
      <trkpt lat="43.65681" lon="6.86637">
        <ele>595.5</ele>
        <time>2014-05-29T08:45:57.000Z</time>
      </trkpt>
      <trkpt lat="43.65678" lon="6.8663">
        <ele>595.3</ele>
        <time>2014-05-29T08:45:58.000Z</time>
      </trkpt>
      <trkpt lat="43.65676" lon="6.86624">
        <ele>594.9</ele>
        <time>2014-05-29T08:45:59.000Z</time>
      </trkpt>
      <trkpt lat="43.65674" lon="6.86617">
        <ele>595.5</ele>
        <time>2014-05-29T08:46:00.000Z</time>
      </trkpt>
      <trkpt lat="43.65672" lon="6.86612">
        <ele>595.4</ele>
        <time>2014-05-29T08:46:01.000Z</time>
      </trkpt>
      <trkpt lat="43.65671" lon="6.86611">
        <ele>594.5</ele>
        <time>2014-05-29T08:46:02.000Z</time>
      </trkpt>
      <trkpt lat="43.65669" lon="6.86609">
        <ele>594.5</ele>
        <time>2014-05-29T08:46:03.000Z</time>
      </trkpt>
      <trkpt lat="43.65667" lon="6.86607">
        <ele>595</ele>
        <time>2014-05-29T08:46:04.000Z</time>
      </trkpt>
      <trkpt lat="43.65665" lon="6.86602">
        <ele>595.3</ele>
        <time>2014-05-29T08:46:07.000Z</time>
      </trkpt>
      <trkpt lat="43.65664" lon="6.86601">
        <ele>594.9</ele>
        <time>2014-05-29T08:46:08.000Z</time>
      </trkpt>
      <trkpt lat="43.65664" lon="6.86595">
        <ele>597</ele>
        <time>2014-05-29T08:46:11.000Z</time>
      </trkpt>
      <trkpt lat="43.65663" lon="6.86592">
        <ele>596.7</ele>
        <time>2014-05-29T08:46:12.000Z</time>
      </trkpt>
      <trkpt lat="43.65661" lon="6.86586">
        <ele>595.8</ele>
        <time>2014-05-29T08:46:15.000Z</time>
      </trkpt>
      <trkpt lat="43.65661" lon="6.86584">
        <ele>596.6</ele>
        <time>2014-05-29T08:46:16.000Z</time>
      </trkpt>
      <trkpt lat="43.6566" lon="6.86579">
        <ele>597.3</ele>
        <time>2014-05-29T08:46:19.000Z</time>
      </trkpt>
      <trkpt lat="43.65658" lon="6.86577">
        <ele>598</ele>
        <time>2014-05-29T08:46:20.000Z</time>
      </trkpt>
      <trkpt lat="43.65658" lon="6.86573">
        <ele>598.7</ele>
        <time>2014-05-29T08:46:22.000Z</time>
      </trkpt>
      <trkpt lat="43.6566" lon="6.86569">
        <ele>599.5</ele>
        <time>2014-05-29T08:46:23.000Z</time>
      </trkpt>
      <trkpt lat="43.65659" lon="6.86565">
        <ele>601.5</ele>
        <time>2014-05-29T08:46:26.000Z</time>
      </trkpt>
      <trkpt lat="43.65658" lon="6.86562">
        <ele>601.6</ele>
        <time>2014-05-29T08:46:27.000Z</time>
      </trkpt>
      <trkpt lat="43.65659" lon="6.86557">
        <ele>600.4</ele>
        <time>2014-05-29T08:46:29.000Z</time>
      </trkpt>
      <trkpt lat="43.65658" lon="6.86555">
        <ele>600.5</ele>
        <time>2014-05-29T08:46:30.000Z</time>
      </trkpt>
      <trkpt lat="43.65657" lon="6.8655">
        <ele>600.4</ele>
        <time>2014-05-29T08:46:33.000Z</time>
      </trkpt>
      <trkpt lat="43.65657" lon="6.86548">
        <ele>600.2</ele>
        <time>2014-05-29T08:46:34.000Z</time>
      </trkpt>
      <trkpt lat="43.65657" lon="6.86543">
        <ele>597.2</ele>
        <time>2014-05-29T08:46:36.000Z</time>
      </trkpt>
      <trkpt lat="43.65657" lon="6.86541">
        <ele>597.2</ele>
        <time>2014-05-29T08:46:37.000Z</time>
      </trkpt>
      <trkpt lat="43.65658" lon="6.86536">
        <ele>596.6</ele>
        <time>2014-05-29T08:46:39.000Z</time>
      </trkpt>
      <trkpt lat="43.65658" lon="6.86534">
        <ele>596.8</ele>
        <time>2014-05-29T08:46:40.000Z</time>
      </trkpt>
      <trkpt lat="43.65657" lon="6.86528">
        <ele>596.7</ele>
        <time>2014-05-29T08:46:43.000Z</time>
      </trkpt>
      <trkpt lat="43.65657" lon="6.86526">
        <ele>597.8</ele>
        <time>2014-05-29T08:46:44.000Z</time>
      </trkpt>
      <trkpt lat="43.65657" lon="6.8652">
        <ele>599.3</ele>
        <time>2014-05-29T08:46:47.999Z</time>
      </trkpt>
      <trkpt lat="43.65657" lon="6.86518">
        <ele>599.9</ele>
        <time>2014-05-29T08:46:49.000Z</time>
      </trkpt>
      <trkpt lat="43.65659" lon="6.86514">
        <ele>597.7</ele>
        <time>2014-05-29T08:46:53.000Z</time>
      </trkpt>
      <trkpt lat="43.65658" lon="6.86511">
        <ele>598.9</ele>
        <time>2014-05-29T08:46:54.000Z</time>
      </trkpt>
      <trkpt lat="43.65656" lon="6.86506">
        <ele>600.5</ele>
        <time>2014-05-29T08:46:59.998Z</time>
      </trkpt>
      <trkpt lat="43.65656" lon="6.86505">
        <ele>599.4</ele>
        <time>2014-05-29T08:47:01.000Z</time>
      </trkpt>
      <trkpt lat="43.65657" lon="6.86499">
        <ele>600.8</ele>
        <time>2014-05-29T08:47:06.000Z</time>
      </trkpt>
      <trkpt lat="43.65658" lon="6.86497">
        <ele>601.2</ele>
        <time>2014-05-29T08:47:07.000Z</time>
      </trkpt>
      <trkpt lat="43.6566" lon="6.86493">
        <ele>600.9</ele>
        <time>2014-05-29T08:47:08.000Z</time>
      </trkpt>
      <trkpt lat="43.65661" lon="6.8649">
        <ele>601</ele>
        <time>2014-05-29T08:47:09.000Z</time>
      </trkpt>
      <trkpt lat="43.65661" lon="6.86485">
        <ele>602.8</ele>
        <time>2014-05-29T08:47:13.000Z</time>
      </trkpt>
      <trkpt lat="43.65662" lon="6.86483">
        <ele>603.2</ele>
        <time>2014-05-29T08:47:14.000Z</time>
      </trkpt>
      <trkpt lat="43.65661" lon="6.86478">
        <ele>605.4</ele>
        <time>2014-05-29T08:47:18.000Z</time>
      </trkpt>
      <trkpt lat="43.65661" lon="6.86476">
        <ele>605.7</ele>
        <time>2014-05-29T08:47:19.000Z</time>
      </trkpt>
      <trkpt lat="43.65661" lon="6.86472">
        <ele>606.5</ele>
        <time>2014-05-29T08:47:23.000Z</time>
      </trkpt>
      <trkpt lat="43.6566" lon="6.86468">
        <ele>607.8</ele>
        <time>2014-05-29T08:47:24.000Z</time>
      </trkpt>
      <trkpt lat="43.65661" lon="6.86462">
        <ele>609.8</ele>
        <time>2014-05-29T08:47:28.000Z</time>
      </trkpt>
      <trkpt lat="43.65661" lon="6.86461">
        <ele>610.5</ele>
        <time>2014-05-29T08:47:29.000Z</time>
      </trkpt>
      <trkpt lat="43.6566" lon="6.86457">
        <ele>610.4</ele>
        <time>2014-05-29T08:47:32.000Z</time>
      </trkpt>
      <trkpt lat="43.65662" lon="6.86445">
        <ele>613.3</ele>
        <time>2014-05-29T08:47:40.000Z</time>
      </trkpt>
      <trkpt lat="43.65663" lon="6.86443">
        <ele>614.4</ele>
        <time>2014-05-29T08:47:41.000Z</time>
      </trkpt>
      <trkpt lat="43.65663" lon="6.86439">
        <ele>614.7</ele>
        <time>2014-05-29T08:47:42.000Z</time>
      </trkpt>
      <trkpt lat="43.65664" lon="6.86434">
        <ele>613.5</ele>
        <time>2014-05-29T08:47:49.000Z</time>
      </trkpt>
      <trkpt lat="43.65665" lon="6.86432">
        <ele>613</ele>
        <time>2014-05-29T08:47:50.000Z</time>
      </trkpt>
      <trkpt lat="43.65663" lon="6.86427">
        <ele>614.9</ele>
        <time>2014-05-29T08:48:12.000Z</time>
      </trkpt>
      <trkpt lat="43.65662" lon="6.86425">
        <ele>614.6</ele>
        <time>2014-05-29T08:48:13.000Z</time>
      </trkpt>
      <trkpt lat="43.65662" lon="6.8642">
        <ele>618.8</ele>
        <time>2014-05-29T08:48:16.000Z</time>
      </trkpt>
      <trkpt lat="43.65663" lon="6.86418">
        <ele>618.3</ele>
        <time>2014-05-29T08:48:17.000Z</time>
      </trkpt>
      <trkpt lat="43.6566" lon="6.86415">
        <ele>618.5</ele>
        <time>2014-05-29T08:48:20.000Z</time>
      </trkpt>
      <trkpt lat="43.65661" lon="6.86411">
        <ele>618.3</ele>
        <time>2014-05-29T08:48:21.000Z</time>
      </trkpt>
      <trkpt lat="43.65657" lon="6.86408">
        <ele>617.9</ele>
        <time>2014-05-29T08:48:28.000Z</time>
      </trkpt>
      <trkpt lat="43.65656" lon="6.86406">
        <ele>617.2</ele>
        <time>2014-05-29T08:48:29.000Z</time>
      </trkpt>
      <trkpt lat="43.65656" lon="6.86405">
        <ele>616.5</ele>
        <time>2014-05-29T08:48:32.000Z</time>
      </trkpt>
      <trkpt lat="43.65655" lon="6.86398">
        <ele>616.3</ele>
        <time>2014-05-29T08:48:34.000Z</time>
      </trkpt>
      <trkpt lat="43.65653" lon="6.86394">
        <ele>619.6</ele>
        <time>2014-05-29T08:48:36.000Z</time>
      </trkpt>
      <trkpt lat="43.65651" lon="6.86391">
        <ele>618.8</ele>
        <time>2014-05-29T08:48:37.000Z</time>
      </trkpt>
      <trkpt lat="43.6565" lon="6.86386">
        <ele>618.1</ele>
        <time>2014-05-29T08:48:39.000Z</time>
      </trkpt>
      <trkpt lat="43.6565" lon="6.86383">
        <ele>619.2</ele>
        <time>2014-05-29T08:48:40.000Z</time>
      </trkpt>
      <trkpt lat="43.6565" lon="6.86377">
        <ele>619.6</ele>
        <time>2014-05-29T08:48:42.999Z</time>
      </trkpt>
      <trkpt lat="43.6565" lon="6.86376">
        <ele>617.9</ele>
        <time>2014-05-29T08:48:44.000Z</time>
      </trkpt>
      <trkpt lat="43.65647" lon="6.86373">
        <ele>617.3</ele>
        <time>2014-05-29T08:48:46.999Z</time>
      </trkpt>
      <trkpt lat="43.65647" lon="6.8637">
        <ele>618.7</ele>
        <time>2014-05-29T08:48:48.000Z</time>
      </trkpt>
      <trkpt lat="43.65645" lon="6.86368">
        <ele>619.6</ele>
        <time>2014-05-29T08:48:50.000Z</time>
      </trkpt>
      <trkpt lat="43.65643" lon="6.86366">
        <ele>620.2</ele>
        <time>2014-05-29T08:48:51.000Z</time>
      </trkpt>
      <trkpt lat="43.65639" lon="6.86364">
        <ele>620.2</ele>
        <time>2014-05-29T08:48:54.000Z</time>
      </trkpt>
      <trkpt lat="43.65638" lon="6.86362">
        <ele>620.2</ele>
        <time>2014-05-29T08:48:55.000Z</time>
      </trkpt>
      <trkpt lat="43.65635" lon="6.86357">
        <ele>620.1</ele>
        <time>2014-05-29T08:48:58.998Z</time>
      </trkpt>
      <trkpt lat="43.65634" lon="6.86355">
        <ele>620.5</ele>
        <time>2014-05-29T08:49:00.000Z</time>
      </trkpt>
      <trkpt lat="43.65631" lon="6.8635">
        <ele>620.5</ele>
        <time>2014-05-29T08:49:03.000Z</time>
      </trkpt>
      <trkpt lat="43.65629" lon="6.86348">
        <ele>621.1</ele>
        <time>2014-05-29T08:49:04.000Z</time>
      </trkpt>
      <trkpt lat="43.65627" lon="6.86343">
        <ele>623.5</ele>
        <time>2014-05-29T08:49:09.000Z</time>
      </trkpt>
      <trkpt lat="43.65627" lon="6.86342">
        <ele>623.3</ele>
        <time>2014-05-29T08:49:10.000Z</time>
      </trkpt>
      <trkpt lat="43.65625" lon="6.8634">
        <ele>621.8</ele>
        <time>2014-05-29T08:49:11.000Z</time>
      </trkpt>
      <trkpt lat="43.65622" lon="6.86337">
        <ele>621.6</ele>
        <time>2014-05-29T08:49:12.000Z</time>
      </trkpt>
      <trkpt lat="43.65619" lon="6.86335">
        <ele>622.2</ele>
        <time>2014-05-29T08:49:14.000Z</time>
      </trkpt>
      <trkpt lat="43.65616" lon="6.86333">
        <ele>621.3</ele>
        <time>2014-05-29T08:49:15.000Z</time>
      </trkpt>
      <trkpt lat="43.65612" lon="6.86331">
        <ele>621.3</ele>
        <time>2014-05-29T08:49:17.000Z</time>
      </trkpt>
      <trkpt lat="43.6561" lon="6.86327">
        <ele>621.6</ele>
        <time>2014-05-29T08:49:18.000Z</time>
      </trkpt>
      <trkpt lat="43.65607" lon="6.86324">
        <ele>620</ele>
        <time>2014-05-29T08:49:20.000Z</time>
      </trkpt>
      <trkpt lat="43.65607" lon="6.8632">
        <ele>620.1</ele>
        <time>2014-05-29T08:49:21.000Z</time>
      </trkpt>
      <trkpt lat="43.65605" lon="6.86315">
        <ele>622.5</ele>
        <time>2014-05-29T08:49:24.000Z</time>
      </trkpt>
      <trkpt lat="43.65603" lon="6.86313">
        <ele>622.4</ele>
        <time>2014-05-29T08:49:25.000Z</time>
      </trkpt>
      <trkpt lat="43.65603" lon="6.86308">
        <ele>623</ele>
        <time>2014-05-29T08:49:27.000Z</time>
      </trkpt>
      <trkpt lat="43.65602" lon="6.86304">
        <ele>624.3</ele>
        <time>2014-05-29T08:49:28.000Z</time>
      </trkpt>
      <trkpt lat="43.65601" lon="6.86299">
        <ele>624.4</ele>
        <time>2014-05-29T08:49:30.000Z</time>
      </trkpt>
      <trkpt lat="43.656" lon="6.86296">
        <ele>624.9</ele>
        <time>2014-05-29T08:49:31.000Z</time>
      </trkpt>
      <trkpt lat="43.65599" lon="6.86294">
        <ele>624.7</ele>
        <time>2014-05-29T08:49:32.000Z</time>
      </trkpt>
      <trkpt lat="43.65598" lon="6.8629">
        <ele>623.3</ele>
        <time>2014-05-29T08:49:33.000Z</time>
      </trkpt>
      <trkpt lat="43.65597" lon="6.86287">
        <ele>622.7</ele>
        <time>2014-05-29T08:49:34.000Z</time>
      </trkpt>
      <trkpt lat="43.65596" lon="6.86284">
        <ele>622.4</ele>
        <time>2014-05-29T08:49:35.000Z</time>
      </trkpt>
      <trkpt lat="43.65595" lon="6.86279">
        <ele>624.3</ele>
        <time>2014-05-29T08:49:37.000Z</time>
      </trkpt>
      <trkpt lat="43.65594" lon="6.86275">
        <ele>624.7</ele>
        <time>2014-05-29T08:49:38.000Z</time>
      </trkpt>
      <trkpt lat="43.65594" lon="6.86272">
        <ele>624.1</ele>
        <time>2014-05-29T08:49:39.000Z</time>
      </trkpt>
      <trkpt lat="43.65594" lon="6.86268">
        <ele>624.4</ele>
        <time>2014-05-29T08:49:40.000Z</time>
      </trkpt>
      <trkpt lat="43.65594" lon="6.86264">
        <ele>624.6</ele>
        <time>2014-05-29T08:49:41.000Z</time>
      </trkpt>
      <trkpt lat="43.65594" lon="6.86261">
        <ele>625.1</ele>
        <time>2014-05-29T08:49:42.000Z</time>
      </trkpt>
      <trkpt lat="43.65595" lon="6.86258">
        <ele>625.3</ele>
        <time>2014-05-29T08:49:43.000Z</time>
      </trkpt>
      <trkpt lat="43.65597" lon="6.86254">
        <ele>625.7</ele>
        <time>2014-05-29T08:49:44.000Z</time>
      </trkpt>
      <trkpt lat="43.65598" lon="6.86252">
        <ele>624.7</ele>
        <time>2014-05-29T08:49:45.000Z</time>
      </trkpt>
      <trkpt lat="43.656" lon="6.86249">
        <ele>625</ele>
        <time>2014-05-29T08:49:46.000Z</time>
      </trkpt>
      <trkpt lat="43.65599" lon="6.86243">
        <ele>623.6</ele>
        <time>2014-05-29T08:49:51.000Z</time>
      </trkpt>
      <trkpt lat="43.65601" lon="6.86243">
        <ele>624.3</ele>
        <time>2014-05-29T08:49:52.000Z</time>
      </trkpt>
      <trkpt lat="43.65603" lon="6.86237">
        <ele>624.9</ele>
        <time>2014-05-29T08:49:54.000Z</time>
      </trkpt>
      <trkpt lat="43.65603" lon="6.86236">
        <ele>626.3</ele>
        <time>2014-05-29T08:49:55.000Z</time>
      </trkpt>
      <trkpt lat="43.65605" lon="6.86234">
        <ele>626.4</ele>
        <time>2014-05-29T08:49:56.000Z</time>
      </trkpt>
      <trkpt lat="43.65607" lon="6.8623">
        <ele>625.9</ele>
        <time>2014-05-29T08:49:57.000Z</time>
      </trkpt>
      <trkpt lat="43.65608" lon="6.86226">
        <ele>624.2</ele>
        <time>2014-05-29T08:49:59.000Z</time>
      </trkpt>
      <trkpt lat="43.65609" lon="6.86223">
        <ele>623.9</ele>
        <time>2014-05-29T08:50:00.000Z</time>
      </trkpt>
      <trkpt lat="43.65611" lon="6.86219">
        <ele>625</ele>
        <time>2014-05-29T08:50:02.000Z</time>
      </trkpt>
      <trkpt lat="43.65614" lon="6.86217">
        <ele>625.6</ele>
        <time>2014-05-29T08:50:03.000Z</time>
      </trkpt>
      <trkpt lat="43.65616" lon="6.86215">
        <ele>625.1</ele>
        <time>2014-05-29T08:50:04.000Z</time>
      </trkpt>
      <trkpt lat="43.65617" lon="6.86211">
        <ele>623.6</ele>
        <time>2014-05-29T08:50:05.000Z</time>
      </trkpt>
      <trkpt lat="43.65618" lon="6.86206">
        <ele>623.4</ele>
        <time>2014-05-29T08:50:07.000Z</time>
      </trkpt>
      <trkpt lat="43.65618" lon="6.86204">
        <ele>624.2</ele>
        <time>2014-05-29T08:50:08.000Z</time>
      </trkpt>
      <trkpt lat="43.6562" lon="6.86199">
        <ele>624.9</ele>
        <time>2014-05-29T08:50:11.000Z</time>
      </trkpt>
      <trkpt lat="43.65621" lon="6.86196">
        <ele>625.3</ele>
        <time>2014-05-29T08:50:12.000Z</time>
      </trkpt>
      <trkpt lat="43.65621" lon="6.86191">
        <ele>622.5</ele>
        <time>2014-05-29T08:50:17.000Z</time>
      </trkpt>
      <trkpt lat="43.65622" lon="6.86188">
        <ele>623</ele>
        <time>2014-05-29T08:50:18.000Z</time>
      </trkpt>
      <trkpt lat="43.65625" lon="6.86185">
        <ele>624.2</ele>
        <time>2014-05-29T08:50:21.000Z</time>
      </trkpt>
      <trkpt lat="43.65626" lon="6.86183">
        <ele>626</ele>
        <time>2014-05-29T08:50:22.000Z</time>
      </trkpt>
      <trkpt lat="43.65628" lon="6.86178">
        <ele>627.4</ele>
        <time>2014-05-29T08:50:25.000Z</time>
      </trkpt>
      <trkpt lat="43.65628" lon="6.86177">
        <ele>628.2</ele>
        <time>2014-05-29T08:50:26.000Z</time>
      </trkpt>
      <trkpt lat="43.65627" lon="6.86172">
        <ele>630.7</ele>
        <time>2014-05-29T08:50:29.000Z</time>
      </trkpt>
      <trkpt lat="43.65627" lon="6.8617">
        <ele>630.7</ele>
        <time>2014-05-29T08:50:30.000Z</time>
      </trkpt>
      <trkpt lat="43.65628" lon="6.86163">
        <ele>629.7</ele>
        <time>2014-05-29T08:50:33.000Z</time>
      </trkpt>
      <trkpt lat="43.65627" lon="6.86161">
        <ele>629.5</ele>
        <time>2014-05-29T08:50:34.000Z</time>
      </trkpt>
      <trkpt lat="43.65629" lon="6.86157">
        <ele>628.2</ele>
        <time>2014-05-29T08:50:37.000Z</time>
      </trkpt>
      <trkpt lat="43.65629" lon="6.86155">
        <ele>627.1</ele>
        <time>2014-05-29T08:50:38.000Z</time>
      </trkpt>
      <trkpt lat="43.6563" lon="6.86151">
        <ele>629.6</ele>
        <time>2014-05-29T08:50:40.000Z</time>
      </trkpt>
      <trkpt lat="43.6563" lon="6.86149">
        <ele>630.4</ele>
        <time>2014-05-29T08:50:41.000Z</time>
      </trkpt>
      <trkpt lat="43.6563" lon="6.86143">
        <ele>637.8</ele>
        <time>2014-05-29T08:50:48.000Z</time>
      </trkpt>
      <trkpt lat="43.65629" lon="6.86142">
        <ele>636.3</ele>
        <time>2014-05-29T08:50:49.000Z</time>
      </trkpt>
      <trkpt lat="43.6563" lon="6.86136">
        <ele>635.8</ele>
        <time>2014-05-29T08:50:52.000Z</time>
      </trkpt>
      <trkpt lat="43.65631" lon="6.86135">
        <ele>635.9</ele>
        <time>2014-05-29T08:50:53.000Z</time>
      </trkpt>
      <trkpt lat="43.6563" lon="6.8613">
        <ele>635.9</ele>
        <time>2014-05-29T08:50:56.000Z</time>
      </trkpt>
      <trkpt lat="43.65629" lon="6.86129">
        <ele>636.9</ele>
        <time>2014-05-29T08:50:57.000Z</time>
      </trkpt>
      <trkpt lat="43.65627" lon="6.86124">
        <ele>638.3</ele>
        <time>2014-05-29T08:51:00.999Z</time>
      </trkpt>
      <trkpt lat="43.65627" lon="6.86122">
        <ele>639</ele>
        <time>2014-05-29T08:51:02.000Z</time>
      </trkpt>
      <trkpt lat="43.65624" lon="6.86119">
        <ele>641.4</ele>
        <time>2014-05-29T08:51:07.000Z</time>
      </trkpt>
      <trkpt lat="43.65623" lon="6.86117">
        <ele>642.2</ele>
        <time>2014-05-29T08:51:08.000Z</time>
      </trkpt>
      <trkpt lat="43.65624" lon="6.86112">
        <ele>644.5</ele>
        <time>2014-05-29T08:51:14.000Z</time>
      </trkpt>
      <trkpt lat="43.65624" lon="6.8611">
        <ele>645.4</ele>
        <time>2014-05-29T08:51:15.000Z</time>
      </trkpt>
      <trkpt lat="43.65624" lon="6.86106">
        <ele>647</ele>
        <time>2014-05-29T08:51:18.000Z</time>
      </trkpt>
      <trkpt lat="43.65624" lon="6.86104">
        <ele>646.8</ele>
        <time>2014-05-29T08:51:19.000Z</time>
      </trkpt>
      <trkpt lat="43.65623" lon="6.86098">
        <ele>648.1</ele>
        <time>2014-05-29T08:51:22.000Z</time>
      </trkpt>
      <trkpt lat="43.65622" lon="6.86097">
        <ele>648.9</ele>
        <time>2014-05-29T08:51:23.000Z</time>
      </trkpt>
      <trkpt lat="43.65623" lon="6.86092">
        <ele>650.4</ele>
        <time>2014-05-29T08:51:26.000Z</time>
      </trkpt>
      <trkpt lat="43.65623" lon="6.86091">
        <ele>651.8</ele>
        <time>2014-05-29T08:51:27.000Z</time>
      </trkpt>
      <trkpt lat="43.65623" lon="6.86085">
        <ele>652.5</ele>
        <time>2014-05-29T08:51:31.000Z</time>
      </trkpt>
      <trkpt lat="43.65622" lon="6.86083">
        <ele>653.1</ele>
        <time>2014-05-29T08:51:32.000Z</time>
      </trkpt>
      <trkpt lat="43.65622" lon="6.86077">
        <ele>653.4</ele>
        <time>2014-05-29T08:51:35.000Z</time>
      </trkpt>
      <trkpt lat="43.65624" lon="6.86076">
        <ele>651.6</ele>
        <time>2014-05-29T08:51:36.000Z</time>
      </trkpt>
      <trkpt lat="43.65624" lon="6.86071">
        <ele>650.1</ele>
        <time>2014-05-29T08:51:40.000Z</time>
      </trkpt>
      <trkpt lat="43.65624" lon="6.86069">
        <ele>650.2</ele>
        <time>2014-05-29T08:51:41.000Z</time>
      </trkpt>
      <trkpt lat="43.65625" lon="6.86063">
        <ele>648.5</ele>
        <time>2014-05-29T08:51:44.000Z</time>
      </trkpt>
      <trkpt lat="43.65626" lon="6.86062">
        <ele>648.7</ele>
        <time>2014-05-29T08:51:45.000Z</time>
      </trkpt>
      <trkpt lat="43.65627" lon="6.86056">
        <ele>648.1</ele>
        <time>2014-05-29T08:51:48.000Z</time>
      </trkpt>
      <trkpt lat="43.65627" lon="6.86054">
        <ele>647.2</ele>
        <time>2014-05-29T08:51:49.000Z</time>
      </trkpt>
      <trkpt lat="43.65627" lon="6.8605">
        <ele>646.7</ele>
        <time>2014-05-29T08:51:51.999Z</time>
      </trkpt>
      <trkpt lat="43.65626" lon="6.86048">
        <ele>645.4</ele>
        <time>2014-05-29T08:51:53.000Z</time>
      </trkpt>
      <trkpt lat="43.65627" lon="6.86043">
        <ele>643.6</ele>
        <time>2014-05-29T08:51:55.000Z</time>
      </trkpt>
      <trkpt lat="43.65626" lon="6.86041">
        <ele>644.4</ele>
        <time>2014-05-29T08:51:56.000Z</time>
      </trkpt>
      <trkpt lat="43.65625" lon="6.86035">
        <ele>644.1</ele>
        <time>2014-05-29T08:51:59.000Z</time>
      </trkpt>
      <trkpt lat="43.65625" lon="6.86034">
        <ele>644.6</ele>
        <time>2014-05-29T08:52:00.000Z</time>
      </trkpt>
      <trkpt lat="43.65625" lon="6.86028">
        <ele>644</ele>
        <time>2014-05-29T08:52:03.000Z</time>
      </trkpt>
      <trkpt lat="43.65625" lon="6.86027">
        <ele>644.2</ele>
        <time>2014-05-29T08:52:04.000Z</time>
      </trkpt>
      <trkpt lat="43.65625" lon="6.86021">
        <ele>644.3</ele>
        <time>2014-05-29T08:52:07.000Z</time>
      </trkpt>
      <trkpt lat="43.65625" lon="6.86019">
        <ele>644.7</ele>
        <time>2014-05-29T08:52:08.000Z</time>
      </trkpt>
      <trkpt lat="43.65625" lon="6.86013">
        <ele>646</ele>
        <time>2014-05-29T08:52:11.000Z</time>
      </trkpt>
      <trkpt lat="43.65625" lon="6.86012">
        <ele>646.1</ele>
        <time>2014-05-29T08:52:12.000Z</time>
      </trkpt>
      <trkpt lat="43.65622" lon="6.86007">
        <ele>648.8</ele>
        <time>2014-05-29T08:52:18.000Z</time>
      </trkpt>
      <trkpt lat="43.65622" lon="6.86007">
        <ele>649.7</ele>
        <time>2014-05-29T08:52:18.999Z</time>
      </trkpt>
      <trkpt lat="43.65619" lon="6.86003">
        <ele>650.1</ele>
        <time>2014-05-29T08:52:22.000Z</time>
      </trkpt>
      <trkpt lat="43.65619" lon="6.86">
        <ele>649.8</ele>
        <time>2014-05-29T08:52:23.000Z</time>
      </trkpt>
      <trkpt lat="43.65618" lon="6.85996">
        <ele>649.7</ele>
        <time>2014-05-29T08:52:26.000Z</time>
      </trkpt>
      <trkpt lat="43.65617" lon="6.85994">
        <ele>650.2</ele>
        <time>2014-05-29T08:52:27.000Z</time>
      </trkpt>
      <trkpt lat="43.65615" lon="6.8599">
        <ele>648.6</ele>
        <time>2014-05-29T08:52:30.000Z</time>
      </trkpt>
      <trkpt lat="43.65615" lon="6.85987">
        <ele>647.9</ele>
        <time>2014-05-29T08:52:31.000Z</time>
      </trkpt>
      <trkpt lat="43.65613" lon="6.85982">
        <ele>647.7</ele>
        <time>2014-05-29T08:52:34.000Z</time>
      </trkpt>
      <trkpt lat="43.65612" lon="6.85981">
        <ele>647.3</ele>
        <time>2014-05-29T08:52:35.000Z</time>
      </trkpt>
      <trkpt lat="43.65612" lon="6.85976">
        <ele>647.6</ele>
        <time>2014-05-29T08:52:37.000Z</time>
      </trkpt>
      <trkpt lat="43.65612" lon="6.85975">
        <ele>648.2</ele>
        <time>2014-05-29T08:52:38.000Z</time>
      </trkpt>
      <trkpt lat="43.6561" lon="6.85969">
        <ele>647.3</ele>
        <time>2014-05-29T08:52:42.000Z</time>
      </trkpt>
      <trkpt lat="43.65608" lon="6.85968">
        <ele>648.2</ele>
        <time>2014-05-29T08:52:43.000Z</time>
      </trkpt>
      <trkpt lat="43.65607" lon="6.85962">
        <ele>649</ele>
        <time>2014-05-29T08:52:46.998Z</time>
      </trkpt>
      <trkpt lat="43.65608" lon="6.85959">
        <ele>648.2</ele>
        <time>2014-05-29T08:52:48.000Z</time>
      </trkpt>
      <trkpt lat="43.65607" lon="6.85954">
        <ele>648.3</ele>
        <time>2014-05-29T08:52:52.000Z</time>
      </trkpt>
      <trkpt lat="43.65607" lon="6.85951">
        <ele>648.4</ele>
        <time>2014-05-29T08:52:53.000Z</time>
      </trkpt>
      <trkpt lat="43.65607" lon="6.85946">
        <ele>647.9</ele>
        <time>2014-05-29T08:52:56.000Z</time>
      </trkpt>
      <trkpt lat="43.65606" lon="6.85945">
        <ele>647.9</ele>
        <time>2014-05-29T08:52:57.000Z</time>
      </trkpt>
      <trkpt lat="43.65604" lon="6.85942">
        <ele>648.5</ele>
        <time>2014-05-29T08:53:03.000Z</time>
      </trkpt>
      <trkpt lat="43.65604" lon="6.8594">
        <ele>650</ele>
        <time>2014-05-29T08:53:04.000Z</time>
      </trkpt>
      <trkpt lat="43.65602" lon="6.85937">
        <ele>649.7</ele>
        <time>2014-05-29T08:53:07.000Z</time>
      </trkpt>
      <trkpt lat="43.65601" lon="6.85935">
        <ele>649.7</ele>
        <time>2014-05-29T08:53:08.000Z</time>
      </trkpt>
      <trkpt lat="43.65598" lon="6.85932">
        <ele>651</ele>
        <time>2014-05-29T08:53:12.000Z</time>
      </trkpt>
      <trkpt lat="43.65598" lon="6.8593">
        <ele>650.7</ele>
        <time>2014-05-29T08:53:13.000Z</time>
      </trkpt>
      <trkpt lat="43.65595" lon="6.85927">
        <ele>650.1</ele>
        <time>2014-05-29T08:53:15.000Z</time>
      </trkpt>
      <trkpt lat="43.65594" lon="6.85925">
        <ele>649.7</ele>
        <time>2014-05-29T08:53:16.000Z</time>
      </trkpt>
      <trkpt lat="43.65592" lon="6.85921">
        <ele>651.8</ele>
        <time>2014-05-29T08:53:20.000Z</time>
      </trkpt>
      <trkpt lat="43.65591" lon="6.8592">
        <ele>652</ele>
        <time>2014-05-29T08:53:21.000Z</time>
      </trkpt>
      <trkpt lat="43.6559" lon="6.85916">
        <ele>652.6</ele>
        <time>2014-05-29T08:53:24.000Z</time>
      </trkpt>
      <trkpt lat="43.6559" lon="6.85914">
        <ele>652.9</ele>
        <time>2014-05-29T08:53:25.000Z</time>
      </trkpt>
      <trkpt lat="43.65587" lon="6.85909">
        <ele>653</ele>
        <time>2014-05-29T08:53:28.000Z</time>
      </trkpt>
      <trkpt lat="43.65586" lon="6.85908">
        <ele>653.4</ele>
        <time>2014-05-29T08:53:29.000Z</time>
      </trkpt>
      <trkpt lat="43.65585" lon="6.85903">
        <ele>654</ele>
        <time>2014-05-29T08:53:32.000Z</time>
      </trkpt>
      <trkpt lat="43.65584" lon="6.85902">
        <ele>654.1</ele>
        <time>2014-05-29T08:53:32.999Z</time>
      </trkpt>
      <trkpt lat="43.65583" lon="6.85898">
        <ele>653.7</ele>
        <time>2014-05-29T08:53:35.000Z</time>
      </trkpt>
      <trkpt lat="43.65582" lon="6.85896">
        <ele>653.6</ele>
        <time>2014-05-29T08:53:36.000Z</time>
      </trkpt>
      <trkpt lat="43.65582" lon="6.85891">
        <ele>653.9</ele>
        <time>2014-05-29T08:53:39.000Z</time>
      </trkpt>
      <trkpt lat="43.65581" lon="6.8589">
        <ele>654.1</ele>
        <time>2014-05-29T08:53:40.000Z</time>
      </trkpt>
      <trkpt lat="43.65581" lon="6.85884">
        <ele>654.3</ele>
        <time>2014-05-29T08:53:43.000Z</time>
      </trkpt>
      <trkpt lat="43.6558" lon="6.85883">
        <ele>654.2</ele>
        <time>2014-05-29T08:53:44.000Z</time>
      </trkpt>
      <trkpt lat="43.65579" lon="6.85879">
        <ele>655.1</ele>
        <time>2014-05-29T08:53:47.000Z</time>
      </trkpt>
      <trkpt lat="43.65578" lon="6.85877">
        <ele>655.5</ele>
        <time>2014-05-29T08:53:48.000Z</time>
      </trkpt>
      <trkpt lat="43.65577" lon="6.85873">
        <ele>656</ele>
        <time>2014-05-29T08:53:51.000Z</time>
      </trkpt>
      <trkpt lat="43.65577" lon="6.85871">
        <ele>656.1</ele>
        <time>2014-05-29T08:53:52.000Z</time>
      </trkpt>
      <trkpt lat="43.65575" lon="6.85867">
        <ele>656.3</ele>
        <time>2014-05-29T08:53:55.000Z</time>
      </trkpt>
      <trkpt lat="43.65574" lon="6.85865">
        <ele>656.3</ele>
        <time>2014-05-29T08:53:56.000Z</time>
      </trkpt>
      <trkpt lat="43.65573" lon="6.85859">
        <ele>656.8</ele>
        <time>2014-05-29T08:53:59.000Z</time>
      </trkpt>
      <trkpt lat="43.65573" lon="6.85857">
        <ele>656.8</ele>
        <time>2014-05-29T08:54:00.000Z</time>
      </trkpt>
      <trkpt lat="43.6557" lon="6.85853">
        <ele>657.3</ele>
        <time>2014-05-29T08:54:03.000Z</time>
      </trkpt>
      <trkpt lat="43.6557" lon="6.85851">
        <ele>657.3</ele>
        <time>2014-05-29T08:54:04.000Z</time>
      </trkpt>
      <trkpt lat="43.65568" lon="6.85847">
        <ele>658.1</ele>
        <time>2014-05-29T08:54:07.000Z</time>
      </trkpt>
      <trkpt lat="43.65567" lon="6.85845">
        <ele>657.9</ele>
        <time>2014-05-29T08:54:08.000Z</time>
      </trkpt>
      <trkpt lat="43.65564" lon="6.85841">
        <ele>657.7</ele>
        <time>2014-05-29T08:54:12.000Z</time>
      </trkpt>
      <trkpt lat="43.65564" lon="6.85839">
        <ele>657.9</ele>
        <time>2014-05-29T08:54:13.000Z</time>
      </trkpt>
      <trkpt lat="43.65563" lon="6.85833">
        <ele>658.2</ele>
        <time>2014-05-29T08:54:16.000Z</time>
      </trkpt>
      <trkpt lat="43.65562" lon="6.85832">
        <ele>658</ele>
        <time>2014-05-29T08:54:17.000Z</time>
      </trkpt>
      <trkpt lat="43.65559" lon="6.85829">
        <ele>658.4</ele>
        <time>2014-05-29T08:54:19.000Z</time>
      </trkpt>
      <trkpt lat="43.65558" lon="6.85827">
        <ele>658</ele>
        <time>2014-05-29T08:54:20.000Z</time>
      </trkpt>
      <trkpt lat="43.65556" lon="6.85822">
        <ele>657.8</ele>
        <time>2014-05-29T08:54:22.000Z</time>
      </trkpt>
      <trkpt lat="43.65555" lon="6.85821">
        <ele>658.2</ele>
        <time>2014-05-29T08:54:23.000Z</time>
      </trkpt>
      <trkpt lat="43.65553" lon="6.85817">
        <ele>658.6</ele>
        <time>2014-05-29T08:54:25.000Z</time>
      </trkpt>
      <trkpt lat="43.65552" lon="6.85815">
        <ele>658.6</ele>
        <time>2014-05-29T08:54:26.000Z</time>
      </trkpt>
      <trkpt lat="43.6555" lon="6.8581">
        <ele>658.5</ele>
        <time>2014-05-29T08:54:28.000Z</time>
      </trkpt>
      <trkpt lat="43.65548" lon="6.85809">
        <ele>658.7</ele>
        <time>2014-05-29T08:54:29.000Z</time>
      </trkpt>
      <trkpt lat="43.65548" lon="6.85807">
        <ele>658.7</ele>
        <time>2014-05-29T08:54:30.000Z</time>
      </trkpt>
      <trkpt lat="43.65546" lon="6.85803">
        <ele>658.6</ele>
        <time>2014-05-29T08:54:31.446Z</time>
      </trkpt>
      <trkpt lat="43.65546" lon="6.85802">
        <ele>658.5</ele>
        <time>2014-05-29T08:54:32.000Z</time>
      </trkpt>
      <trkpt lat="43.65544" lon="6.85797">
        <ele>658.3</ele>
        <time>2014-05-29T08:54:34.000Z</time>
      </trkpt>
      <trkpt lat="43.65544" lon="6.85792">
        <ele>658.2</ele>
        <time>2014-05-29T08:54:34.999Z</time>
      </trkpt>
      <trkpt lat="43.65543" lon="6.85789">
        <ele>658.3</ele>
        <time>2014-05-29T08:54:36.000Z</time>
      </trkpt>
      <trkpt lat="43.65542" lon="6.85784">
        <ele>657.9</ele>
        <time>2014-05-29T08:54:38.000Z</time>
      </trkpt>
      <trkpt lat="43.65542" lon="6.85782">
        <ele>658</ele>
        <time>2014-05-29T08:54:39.000Z</time>
      </trkpt>
      <trkpt lat="43.65542" lon="6.85778">
        <ele>658.2</ele>
        <time>2014-05-29T08:54:40.000Z</time>
      </trkpt>
      <trkpt lat="43.65542" lon="6.85775">
        <ele>656.9</ele>
        <time>2014-05-29T08:54:41.000Z</time>
      </trkpt>
      <trkpt lat="43.65539" lon="6.8577">
        <ele>654.4</ele>
        <time>2014-05-29T08:54:44.000Z</time>
      </trkpt>
      <trkpt lat="43.65539" lon="6.85768">
        <ele>654.4</ele>
        <time>2014-05-29T08:54:45.000Z</time>
      </trkpt>
      <trkpt lat="43.65538" lon="6.85764">
        <ele>655.4</ele>
        <time>2014-05-29T08:54:47.000Z</time>
      </trkpt>
      <trkpt lat="43.65537" lon="6.85762">
        <ele>655.6</ele>
        <time>2014-05-29T08:54:48.000Z</time>
      </trkpt>
      <trkpt lat="43.65535" lon="6.85758">
        <ele>656.3</ele>
        <time>2014-05-29T08:54:50.000Z</time>
      </trkpt>
      <trkpt lat="43.65534" lon="6.85757">
        <ele>657.4</ele>
        <time>2014-05-29T08:54:51.000Z</time>
      </trkpt>
      <trkpt lat="43.65532" lon="6.85752">
        <ele>658</ele>
        <time>2014-05-29T08:54:54.000Z</time>
      </trkpt>
      <trkpt lat="43.6553" lon="6.8575">
        <ele>658.3</ele>
        <time>2014-05-29T08:54:55.000Z</time>
      </trkpt>
      <trkpt lat="43.65528" lon="6.85745">
        <ele>658.3</ele>
        <time>2014-05-29T08:54:57.000Z</time>
      </trkpt>
      <trkpt lat="43.65526" lon="6.85743">
        <ele>658.7</ele>
        <time>2014-05-29T08:54:58.000Z</time>
      </trkpt>
      <trkpt lat="43.65523" lon="6.85739">
        <ele>658.9</ele>
        <time>2014-05-29T08:55:00.000Z</time>
      </trkpt>
      <trkpt lat="43.65521" lon="6.85737">
        <ele>658.8</ele>
        <time>2014-05-29T08:55:01.000Z</time>
      </trkpt>
      <trkpt lat="43.65519" lon="6.85735">
        <ele>658.9</ele>
        <time>2014-05-29T08:55:02.000Z</time>
      </trkpt>
      <trkpt lat="43.65517" lon="6.85732">
        <ele>659.1</ele>
        <time>2014-05-29T08:55:03.000Z</time>
      </trkpt>
      <trkpt lat="43.65515" lon="6.8573">
        <ele>659</ele>
        <time>2014-05-29T08:55:04.000Z</time>
      </trkpt>
      <trkpt lat="43.65513" lon="6.85728">
        <ele>658.9</ele>
        <time>2014-05-29T08:55:05.000Z</time>
      </trkpt>
      <trkpt lat="43.65511" lon="6.85725">
        <ele>658.6</ele>
        <time>2014-05-29T08:55:06.000Z</time>
      </trkpt>
      <trkpt lat="43.65509" lon="6.85723">
        <ele>658.3</ele>
        <time>2014-05-29T08:55:07.000Z</time>
      </trkpt>
      <trkpt lat="43.65506" lon="6.8572">
        <ele>658</ele>
        <time>2014-05-29T08:55:08.000Z</time>
      </trkpt>
      <trkpt lat="43.65505" lon="6.85718">
        <ele>658.3</ele>
        <time>2014-05-29T08:55:08.999Z</time>
      </trkpt>
      <trkpt lat="43.65503" lon="6.85716">
        <ele>657.2</ele>
        <time>2014-05-29T08:55:10.000Z</time>
      </trkpt>
      <trkpt lat="43.655" lon="6.85713">
        <ele>657.8</ele>
        <time>2014-05-29T08:55:11.000Z</time>
      </trkpt>
      <trkpt lat="43.65498" lon="6.8571">
        <ele>657.8</ele>
        <time>2014-05-29T08:55:12.000Z</time>
      </trkpt>
      <trkpt lat="43.65495" lon="6.85709">
        <ele>657.4</ele>
        <time>2014-05-29T08:55:12.999Z</time>
      </trkpt>
      <trkpt lat="43.65493" lon="6.85705">
        <ele>657.5</ele>
        <time>2014-05-29T08:55:14.000Z</time>
      </trkpt>
      <trkpt lat="43.6549" lon="6.85701">
        <ele>657.3</ele>
        <time>2014-05-29T08:55:15.000Z</time>
      </trkpt>
      <trkpt lat="43.65487" lon="6.85697">
        <ele>657.8</ele>
        <time>2014-05-29T08:55:16.000Z</time>
      </trkpt>
      <trkpt lat="43.65485" lon="6.85694">
        <ele>657.8</ele>
        <time>2014-05-29T08:55:17.000Z</time>
      </trkpt>
      <trkpt lat="43.65482" lon="6.85691">
        <ele>659</ele>
        <time>2014-05-29T08:55:17.998Z</time>
      </trkpt>
      <trkpt lat="43.6548" lon="6.85687">
        <ele>659.3</ele>
        <time>2014-05-29T08:55:19.000Z</time>
      </trkpt>
      <trkpt lat="43.65477" lon="6.85683">
        <ele>659.3</ele>
        <time>2014-05-29T08:55:20.000Z</time>
      </trkpt>
      <trkpt lat="43.65475" lon="6.85679">
        <ele>658</ele>
        <time>2014-05-29T08:55:21.000Z</time>
      </trkpt>
      <trkpt lat="43.65472" lon="6.85675">
        <ele>657.3</ele>
        <time>2014-05-29T08:55:21.999Z</time>
      </trkpt>
      <trkpt lat="43.6547" lon="6.85671">
        <ele>657</ele>
        <time>2014-05-29T08:55:23.000Z</time>
      </trkpt>
      <trkpt lat="43.65468" lon="6.85668">
        <ele>656.7</ele>
        <time>2014-05-29T08:55:24.000Z</time>
      </trkpt>
      <trkpt lat="43.65466" lon="6.85665">
        <ele>657.2</ele>
        <time>2014-05-29T08:55:25.000Z</time>
      </trkpt>
      <trkpt lat="43.65464" lon="6.85662">
        <ele>657.6</ele>
        <time>2014-05-29T08:55:26.000Z</time>
      </trkpt>
      <trkpt lat="43.65461" lon="6.85659">
        <ele>657.5</ele>
        <time>2014-05-29T08:55:26.999Z</time>
      </trkpt>
      <trkpt lat="43.65459" lon="6.85656">
        <ele>657.7</ele>
        <time>2014-05-29T08:55:28.000Z</time>
      </trkpt>
      <trkpt lat="43.65457" lon="6.85652">
        <ele>657.5</ele>
        <time>2014-05-29T08:55:29.000Z</time>
      </trkpt>
      <trkpt lat="43.65456" lon="6.85648">
        <ele>657.7</ele>
        <time>2014-05-29T08:55:30.000Z</time>
      </trkpt>
      <trkpt lat="43.65452" lon="6.85643">
        <ele>657.2</ele>
        <time>2014-05-29T08:55:31.457Z</time>
      </trkpt>
      <trkpt lat="43.65451" lon="6.85641">
        <ele>657.2</ele>
        <time>2014-05-29T08:55:32.000Z</time>
      </trkpt>
      <trkpt lat="43.6545" lon="6.85636">
        <ele>657</ele>
        <time>2014-05-29T08:55:33.000Z</time>
      </trkpt>
      <trkpt lat="43.65448" lon="6.85633">
        <ele>656.7</ele>
        <time>2014-05-29T08:55:34.000Z</time>
      </trkpt>
      <trkpt lat="43.65447" lon="6.85629">
        <ele>657.3</ele>
        <time>2014-05-29T08:55:35.000Z</time>
      </trkpt>
      <trkpt lat="43.65444" lon="6.85625">
        <ele>657.4</ele>
        <time>2014-05-29T08:55:37.000Z</time>
      </trkpt>
      <trkpt lat="43.65441" lon="6.85624">
        <ele>657.3</ele>
        <time>2014-05-29T08:55:38.000Z</time>
      </trkpt>
      <trkpt lat="43.65439" lon="6.85621">
        <ele>657.2</ele>
        <time>2014-05-29T08:55:39.000Z</time>
      </trkpt>
      <trkpt lat="43.65438" lon="6.85618">
        <ele>657.4</ele>
        <time>2014-05-29T08:55:40.000Z</time>
      </trkpt>
      <trkpt lat="43.65436" lon="6.85614">
        <ele>657.2</ele>
        <time>2014-05-29T08:55:41.000Z</time>
      </trkpt>
      <trkpt lat="43.65434" lon="6.85611">
        <ele>657.6</ele>
        <time>2014-05-29T08:55:42.000Z</time>
      </trkpt>
      <trkpt lat="43.65432" lon="6.85607">
        <ele>657.7</ele>
        <time>2014-05-29T08:55:43.000Z</time>
      </trkpt>
      <trkpt lat="43.6543" lon="6.85603">
        <ele>657.5</ele>
        <time>2014-05-29T08:55:44.000Z</time>
      </trkpt>
      <trkpt lat="43.65429" lon="6.856">
        <ele>657</ele>
        <time>2014-05-29T08:55:45.000Z</time>
      </trkpt>
      <trkpt lat="43.65427" lon="6.85597">
        <ele>656.8</ele>
        <time>2014-05-29T08:55:46.000Z</time>
      </trkpt>
      <trkpt lat="43.65425" lon="6.85594">
        <ele>656.8</ele>
        <time>2014-05-29T08:55:47.000Z</time>
      </trkpt>
      <trkpt lat="43.65422" lon="6.85591">
        <ele>657.1</ele>
        <time>2014-05-29T08:55:48.000Z</time>
      </trkpt>
      <trkpt lat="43.6542" lon="6.85587">
        <ele>657.4</ele>
        <time>2014-05-29T08:55:49.000Z</time>
      </trkpt>
      <trkpt lat="43.65418" lon="6.85584">
        <ele>657.6</ele>
        <time>2014-05-29T08:55:50.000Z</time>
      </trkpt>
      <trkpt lat="43.65416" lon="6.85582">
        <ele>657.8</ele>
        <time>2014-05-29T08:55:51.000Z</time>
      </trkpt>
      <trkpt lat="43.65414" lon="6.85579">
        <ele>658.1</ele>
        <time>2014-05-29T08:55:52.000Z</time>
      </trkpt>
      <trkpt lat="43.65412" lon="6.85577">
        <ele>658.1</ele>
        <time>2014-05-29T08:55:53.000Z</time>
      </trkpt>
      <trkpt lat="43.6541" lon="6.85575">
        <ele>658.4</ele>
        <time>2014-05-29T08:55:54.000Z</time>
      </trkpt>
      <trkpt lat="43.65408" lon="6.85573">
        <ele>658.4</ele>
        <time>2014-05-29T08:55:55.000Z</time>
      </trkpt>
      <trkpt lat="43.65406" lon="6.8557">
        <ele>658.3</ele>
        <time>2014-05-29T08:55:56.000Z</time>
      </trkpt>
      <trkpt lat="43.65404" lon="6.85567">
        <ele>658</ele>
        <time>2014-05-29T08:55:57.000Z</time>
      </trkpt>
      <trkpt lat="43.65403" lon="6.85565">
        <ele>657.7</ele>
        <time>2014-05-29T08:55:58.000Z</time>
      </trkpt>
      <trkpt lat="43.65401" lon="6.85562">
        <ele>657.5</ele>
        <time>2014-05-29T08:55:59.000Z</time>
      </trkpt>
      <trkpt lat="43.65399" lon="6.85559">
        <ele>657.5</ele>
        <time>2014-05-29T08:56:00.000Z</time>
      </trkpt>
      <trkpt lat="43.65397" lon="6.85557">
        <ele>657.5</ele>
        <time>2014-05-29T08:56:01.000Z</time>
      </trkpt>
      <trkpt lat="43.65394" lon="6.85553">
        <ele>657.5</ele>
        <time>2014-05-29T08:56:02.000Z</time>
      </trkpt>
      <trkpt lat="43.65392" lon="6.8555">
        <ele>657.4</ele>
        <time>2014-05-29T08:56:03.000Z</time>
      </trkpt>
      <trkpt lat="43.65389" lon="6.85547">
        <ele>657.3</ele>
        <time>2014-05-29T08:56:04.000Z</time>
      </trkpt>
      <trkpt lat="43.65387" lon="6.85544">
        <ele>657.3</ele>
        <time>2014-05-29T08:56:05.000Z</time>
      </trkpt>
      <trkpt lat="43.65384" lon="6.8554">
        <ele>657.1</ele>
        <time>2014-05-29T08:56:06.000Z</time>
      </trkpt>
      <trkpt lat="43.65383" lon="6.85537">
        <ele>657.2</ele>
        <time>2014-05-29T08:56:07.000Z</time>
      </trkpt>
      <trkpt lat="43.65381" lon="6.85534">
        <ele>656.9</ele>
        <time>2014-05-29T08:56:08.000Z</time>
      </trkpt>
      <trkpt lat="43.65379" lon="6.85531">
        <ele>657.1</ele>
        <time>2014-05-29T08:56:09.000Z</time>
      </trkpt>
      <trkpt lat="43.65378" lon="6.85528">
        <ele>657</ele>
        <time>2014-05-29T08:56:10.000Z</time>
      </trkpt>
      <trkpt lat="43.65377" lon="6.85524">
        <ele>657.5</ele>
        <time>2014-05-29T08:56:11.000Z</time>
      </trkpt>
      <trkpt lat="43.65376" lon="6.8552">
        <ele>657.4</ele>
        <time>2014-05-29T08:56:12.000Z</time>
      </trkpt>
      <trkpt lat="43.65375" lon="6.85518">
        <ele>656.7</ele>
        <time>2014-05-29T08:56:13.000Z</time>
      </trkpt>
      <trkpt lat="43.65373" lon="6.85515">
        <ele>657.1</ele>
        <time>2014-05-29T08:56:14.000Z</time>
      </trkpt>
      <trkpt lat="43.65372" lon="6.85512">
        <ele>656.8</ele>
        <time>2014-05-29T08:56:15.000Z</time>
      </trkpt>
      <trkpt lat="43.65371" lon="6.85508">
        <ele>656.8</ele>
        <time>2014-05-29T08:56:16.000Z</time>
      </trkpt>
      <trkpt lat="43.6537" lon="6.85504">
        <ele>656.7</ele>
        <time>2014-05-29T08:56:17.000Z</time>
      </trkpt>
      <trkpt lat="43.65368" lon="6.855">
        <ele>656.9</ele>
        <time>2014-05-29T08:56:18.000Z</time>
      </trkpt>
      <trkpt lat="43.65366" lon="6.85496">
        <ele>657.1</ele>
        <time>2014-05-29T08:56:18.999Z</time>
      </trkpt>
      <trkpt lat="43.65365" lon="6.85494">
        <ele>657.9</ele>
        <time>2014-05-29T08:56:20.000Z</time>
      </trkpt>
      <trkpt lat="43.65363" lon="6.85491">
        <ele>658.1</ele>
        <time>2014-05-29T08:56:21.000Z</time>
      </trkpt>
      <trkpt lat="43.65361" lon="6.85488">
        <ele>658.2</ele>
        <time>2014-05-29T08:56:22.000Z</time>
      </trkpt>
      <trkpt lat="43.6536" lon="6.85484">
        <ele>658.3</ele>
        <time>2014-05-29T08:56:23.000Z</time>
      </trkpt>
      <trkpt lat="43.65359" lon="6.85481">
        <ele>658.5</ele>
        <time>2014-05-29T08:56:24.000Z</time>
      </trkpt>
      <trkpt lat="43.65357" lon="6.85478">
        <ele>658.9</ele>
        <time>2014-05-29T08:56:25.000Z</time>
      </trkpt>
      <trkpt lat="43.65356" lon="6.85474">
        <ele>659</ele>
        <time>2014-05-29T08:56:26.000Z</time>
      </trkpt>
      <trkpt lat="43.65354" lon="6.85471">
        <ele>658.7</ele>
        <time>2014-05-29T08:56:27.000Z</time>
      </trkpt>
      <trkpt lat="43.65352" lon="6.85468">
        <ele>658.8</ele>
        <time>2014-05-29T08:56:28.000Z</time>
      </trkpt>
      <trkpt lat="43.6535" lon="6.85465">
        <ele>658.5</ele>
        <time>2014-05-29T08:56:29.000Z</time>
      </trkpt>
      <trkpt lat="43.65349" lon="6.85462">
        <ele>658.3</ele>
        <time>2014-05-29T08:56:30.000Z</time>
      </trkpt>
      <trkpt lat="43.65346" lon="6.85457">
        <ele>658.6</ele>
        <time>2014-05-29T08:56:32.000Z</time>
      </trkpt>
      <trkpt lat="43.65344" lon="6.85455">
        <ele>658.7</ele>
        <time>2014-05-29T08:56:33.000Z</time>
      </trkpt>
      <trkpt lat="43.65341" lon="6.85452">
        <ele>658.3</ele>
        <time>2014-05-29T08:56:35.000Z</time>
      </trkpt>
      <trkpt lat="43.65338" lon="6.8545">
        <ele>658.2</ele>
        <time>2014-05-29T08:56:36.000Z</time>
      </trkpt>
      <trkpt lat="43.65336" lon="6.85446">
        <ele>657.8</ele>
        <time>2014-05-29T08:56:37.000Z</time>
      </trkpt>
      <trkpt lat="43.65335" lon="6.85442">
        <ele>656.5</ele>
        <time>2014-05-29T08:56:38.000Z</time>
      </trkpt>
      <trkpt lat="43.65333" lon="6.8544">
        <ele>657.6</ele>
        <time>2014-05-29T08:56:39.000Z</time>
      </trkpt>
      <trkpt lat="43.65332" lon="6.85437">
        <ele>658.5</ele>
        <time>2014-05-29T08:56:40.000Z</time>
      </trkpt>
      <trkpt lat="43.6533" lon="6.85435">
        <ele>658.7</ele>
        <time>2014-05-29T08:56:41.000Z</time>
      </trkpt>
      <trkpt lat="43.65328" lon="6.85432">
        <ele>658.7</ele>
        <time>2014-05-29T08:56:42.000Z</time>
      </trkpt>
      <trkpt lat="43.65327" lon="6.85429">
        <ele>659.2</ele>
        <time>2014-05-29T08:56:43.000Z</time>
      </trkpt>
      <trkpt lat="43.65325" lon="6.85426">
        <ele>659.2</ele>
        <time>2014-05-29T08:56:43.999Z</time>
      </trkpt>
      <trkpt lat="43.65322" lon="6.85422">
        <ele>659.3</ele>
        <time>2014-05-29T08:56:45.000Z</time>
      </trkpt>
      <trkpt lat="43.6532" lon="6.8542">
        <ele>658.5</ele>
        <time>2014-05-29T08:56:46.000Z</time>
      </trkpt>
      <trkpt lat="43.65316" lon="6.85418">
        <ele>655.7</ele>
        <time>2014-05-29T08:56:48.000Z</time>
      </trkpt>
      <trkpt lat="43.65315" lon="6.85416">
        <ele>654.6</ele>
        <time>2014-05-29T08:56:49.000Z</time>
      </trkpt>
      <trkpt lat="43.65313" lon="6.85414">
        <ele>654.7</ele>
        <time>2014-05-29T08:56:50.000Z</time>
      </trkpt>
      <trkpt lat="43.65312" lon="6.85411">
        <ele>654.6</ele>
        <time>2014-05-29T08:56:50.999Z</time>
      </trkpt>
      <trkpt lat="43.65312" lon="6.85405">
        <ele>655.9</ele>
        <time>2014-05-29T08:56:52.000Z</time>
      </trkpt>
      <trkpt lat="43.65311" lon="6.854">
        <ele>656.7</ele>
        <time>2014-05-29T08:56:53.000Z</time>
      </trkpt>
      <trkpt lat="43.6531" lon="6.85397">
        <ele>657.2</ele>
        <time>2014-05-29T08:56:54.000Z</time>
      </trkpt>
      <trkpt lat="43.65309" lon="6.85394">
        <ele>657.5</ele>
        <time>2014-05-29T08:56:55.000Z</time>
      </trkpt>
      <trkpt lat="43.65308" lon="6.85389">
        <ele>657.2</ele>
        <time>2014-05-29T08:56:56.000Z</time>
      </trkpt>
      <trkpt lat="43.65307" lon="6.85387">
        <ele>657.3</ele>
        <time>2014-05-29T08:56:57.000Z</time>
      </trkpt>
      <trkpt lat="43.65306" lon="6.85384">
        <ele>657</ele>
        <time>2014-05-29T08:56:58.000Z</time>
      </trkpt>
      <trkpt lat="43.65304" lon="6.85381">
        <ele>658.1</ele>
        <time>2014-05-29T08:56:59.000Z</time>
      </trkpt>
      <trkpt lat="43.65303" lon="6.85377">
        <ele>657.8</ele>
        <time>2014-05-29T08:57:00.000Z</time>
      </trkpt>
      <trkpt lat="43.65302" lon="6.85374">
        <ele>658</ele>
        <time>2014-05-29T08:57:01.000Z</time>
      </trkpt>
      <trkpt lat="43.65302" lon="6.85369">
        <ele>658.4</ele>
        <time>2014-05-29T08:57:02.000Z</time>
      </trkpt>
      <trkpt lat="43.653" lon="6.85367">
        <ele>659.1</ele>
        <time>2014-05-29T08:57:03.000Z</time>
      </trkpt>
      <trkpt lat="43.65299" lon="6.85363">
        <ele>659</ele>
        <time>2014-05-29T08:57:04.000Z</time>
      </trkpt>
      <trkpt lat="43.65297" lon="6.85361">
        <ele>659.5</ele>
        <time>2014-05-29T08:57:05.000Z</time>
      </trkpt>
      <trkpt lat="43.65296" lon="6.85357">
        <ele>659.6</ele>
        <time>2014-05-29T08:57:06.000Z</time>
      </trkpt>
      <trkpt lat="43.65295" lon="6.85354">
        <ele>659.7</ele>
        <time>2014-05-29T08:57:07.000Z</time>
      </trkpt>
      <trkpt lat="43.65294" lon="6.8535">
        <ele>659.3</ele>
        <time>2014-05-29T08:57:08.000Z</time>
      </trkpt>
      <trkpt lat="43.65294" lon="6.85346">
        <ele>659.8</ele>
        <time>2014-05-29T08:57:09.000Z</time>
      </trkpt>
      <trkpt lat="43.65294" lon="6.85342">
        <ele>660</ele>
        <time>2014-05-29T08:57:10.000Z</time>
      </trkpt>
      <trkpt lat="43.65293" lon="6.85339">
        <ele>660</ele>
        <time>2014-05-29T08:57:11.000Z</time>
      </trkpt>
      <trkpt lat="43.65293" lon="6.85335">
        <ele>659.9</ele>
        <time>2014-05-29T08:57:12.000Z</time>
      </trkpt>
      <trkpt lat="43.65293" lon="6.85331">
        <ele>659.5</ele>
        <time>2014-05-29T08:57:13.000Z</time>
      </trkpt>
      <trkpt lat="43.65293" lon="6.85327">
        <ele>659.7</ele>
        <time>2014-05-29T08:57:14.000Z</time>
      </trkpt>
      <trkpt lat="43.65291" lon="6.85324">
        <ele>659.3</ele>
        <time>2014-05-29T08:57:15.000Z</time>
      </trkpt>
      <trkpt lat="43.65289" lon="6.85321">
        <ele>659.1</ele>
        <time>2014-05-29T08:57:16.000Z</time>
      </trkpt>
      <trkpt lat="43.65286" lon="6.8532">
        <ele>659.4</ele>
        <time>2014-05-29T08:57:17.000Z</time>
      </trkpt>
      <trkpt lat="43.65284" lon="6.85317">
        <ele>658.8</ele>
        <time>2014-05-29T08:57:18.000Z</time>
      </trkpt>
      <trkpt lat="43.65283" lon="6.85314">
        <ele>658.9</ele>
        <time>2014-05-29T08:57:19.000Z</time>
      </trkpt>
      <trkpt lat="43.6528" lon="6.85311">
        <ele>658.3</ele>
        <time>2014-05-29T08:57:20.000Z</time>
      </trkpt>
      <trkpt lat="43.65278" lon="6.85308">
        <ele>658.2</ele>
        <time>2014-05-29T08:57:21.000Z</time>
      </trkpt>
      <trkpt lat="43.65275" lon="6.85304">
        <ele>658.1</ele>
        <time>2014-05-29T08:57:22.000Z</time>
      </trkpt>
      <trkpt lat="43.65272" lon="6.853">
        <ele>657.9</ele>
        <time>2014-05-29T08:57:23.000Z</time>
      </trkpt>
      <trkpt lat="43.65269" lon="6.85297">
        <ele>658.2</ele>
        <time>2014-05-29T08:57:24.000Z</time>
      </trkpt>
      <trkpt lat="43.65267" lon="6.85292">
        <ele>658</ele>
        <time>2014-05-29T08:57:25.000Z</time>
      </trkpt>
      <trkpt lat="43.65264" lon="6.85288">
        <ele>658</ele>
        <time>2014-05-29T08:57:26.000Z</time>
      </trkpt>
      <trkpt lat="43.65262" lon="6.85284">
        <ele>657.8</ele>
        <time>2014-05-29T08:57:27.000Z</time>
      </trkpt>
      <trkpt lat="43.65259" lon="6.8528">
        <ele>657.6</ele>
        <time>2014-05-29T08:57:28.000Z</time>
      </trkpt>
      <trkpt lat="43.65256" lon="6.85275">
        <ele>657.7</ele>
        <time>2014-05-29T08:57:29.000Z</time>
      </trkpt>
      <trkpt lat="43.65254" lon="6.85271">
        <ele>657.7</ele>
        <time>2014-05-29T08:57:30.000Z</time>
      </trkpt>
      <trkpt lat="43.65251" lon="6.85267">
        <ele>658</ele>
        <time>2014-05-29T08:57:31.000Z</time>
      </trkpt>
      <trkpt lat="43.65248" lon="6.85263">
        <ele>658</ele>
        <time>2014-05-29T08:57:32.000Z</time>
      </trkpt>
      <trkpt lat="43.65246" lon="6.85258">
        <ele>658.3</ele>
        <time>2014-05-29T08:57:33.000Z</time>
      </trkpt>
      <trkpt lat="43.65244" lon="6.85253">
        <ele>658.2</ele>
        <time>2014-05-29T08:57:34.000Z</time>
      </trkpt>
      <trkpt lat="43.65242" lon="6.85247">
        <ele>658</ele>
        <time>2014-05-29T08:57:35.000Z</time>
      </trkpt>
      <trkpt lat="43.6524" lon="6.85241">
        <ele>657.9</ele>
        <time>2014-05-29T08:57:36.000Z</time>
      </trkpt>
      <trkpt lat="43.65238" lon="6.85236">
        <ele>657.6</ele>
        <time>2014-05-29T08:57:37.000Z</time>
      </trkpt>
      <trkpt lat="43.65235" lon="6.85229">
        <ele>657.5</ele>
        <time>2014-05-29T08:57:38.000Z</time>
      </trkpt>
      <trkpt lat="43.65233" lon="6.85223">
        <ele>657.7</ele>
        <time>2014-05-29T08:57:39.000Z</time>
      </trkpt>
      <trkpt lat="43.6523" lon="6.85217">
        <ele>657.6</ele>
        <time>2014-05-29T08:57:40.000Z</time>
      </trkpt>
      <trkpt lat="43.65228" lon="6.85211">
        <ele>657.5</ele>
        <time>2014-05-29T08:57:41.000Z</time>
      </trkpt>
      <trkpt lat="43.65226" lon="6.85204">
        <ele>657.7</ele>
        <time>2014-05-29T08:57:42.000Z</time>
      </trkpt>
      <trkpt lat="43.65224" lon="6.85197">
        <ele>657.5</ele>
        <time>2014-05-29T08:57:43.000Z</time>
      </trkpt>
      <trkpt lat="43.65222" lon="6.85191">
        <ele>657.3</ele>
        <time>2014-05-29T08:57:44.000Z</time>
      </trkpt>
      <trkpt lat="43.6522" lon="6.85185">
        <ele>657.3</ele>
        <time>2014-05-29T08:57:45.000Z</time>
      </trkpt>
      <trkpt lat="43.65218" lon="6.85179">
        <ele>657.1</ele>
        <time>2014-05-29T08:57:46.000Z</time>
      </trkpt>
      <trkpt lat="43.65216" lon="6.85173">
        <ele>656.4</ele>
        <time>2014-05-29T08:57:47.000Z</time>
      </trkpt>
      <trkpt lat="43.65214" lon="6.85168">
        <ele>655.9</ele>
        <time>2014-05-29T08:57:48.000Z</time>
      </trkpt>
      <trkpt lat="43.6521" lon="6.85162">
        <ele>655.3</ele>
        <time>2014-05-29T08:57:49.000Z</time>
      </trkpt>
      <trkpt lat="43.65207" lon="6.85157">
        <ele>655.2</ele>
        <time>2014-05-29T08:57:50.000Z</time>
      </trkpt>
      <trkpt lat="43.65204" lon="6.85152">
        <ele>655</ele>
        <time>2014-05-29T08:57:51.000Z</time>
      </trkpt>
      <trkpt lat="43.652" lon="6.85148">
        <ele>654.7</ele>
        <time>2014-05-29T08:57:52.000Z</time>
      </trkpt>
      <trkpt lat="43.65196" lon="6.85143">
        <ele>654.5</ele>
        <time>2014-05-29T08:57:53.000Z</time>
      </trkpt>
      <trkpt lat="43.65192" lon="6.85137">
        <ele>654.4</ele>
        <time>2014-05-29T08:57:54.000Z</time>
      </trkpt>
      <trkpt lat="43.65188" lon="6.85132">
        <ele>654</ele>
        <time>2014-05-29T08:57:55.000Z</time>
      </trkpt>
      <trkpt lat="43.65183" lon="6.85126">
        <ele>653.9</ele>
        <time>2014-05-29T08:57:56.000Z</time>
      </trkpt>
      <trkpt lat="43.65179" lon="6.8512">
        <ele>653.7</ele>
        <time>2014-05-29T08:57:57.000Z</time>
      </trkpt>
      <trkpt lat="43.65175" lon="6.85115">
        <ele>653.2</ele>
        <time>2014-05-29T08:57:58.000Z</time>
      </trkpt>
      <trkpt lat="43.65171" lon="6.85109">
        <ele>653.5</ele>
        <time>2014-05-29T08:57:59.000Z</time>
      </trkpt>
      <trkpt lat="43.65167" lon="6.85104">
        <ele>653.2</ele>
        <time>2014-05-29T08:58:00.000Z</time>
      </trkpt>
      <trkpt lat="43.65163" lon="6.85099">
        <ele>653.4</ele>
        <time>2014-05-29T08:58:01.000Z</time>
      </trkpt>
      <trkpt lat="43.65159" lon="6.85095">
        <ele>652.7</ele>
        <time>2014-05-29T08:58:02.000Z</time>
      </trkpt>
      <trkpt lat="43.65155" lon="6.8509">
        <ele>652.4</ele>
        <time>2014-05-29T08:58:03.000Z</time>
      </trkpt>
      <trkpt lat="43.65152" lon="6.85085">
        <ele>652.4</ele>
        <time>2014-05-29T08:58:04.000Z</time>
      </trkpt>
      <trkpt lat="43.65148" lon="6.85081">
        <ele>652.4</ele>
        <time>2014-05-29T08:58:05.000Z</time>
      </trkpt>
      <trkpt lat="43.65145" lon="6.85077">
        <ele>652.1</ele>
        <time>2014-05-29T08:58:06.000Z</time>
      </trkpt>
      <trkpt lat="43.65143" lon="6.85073">
        <ele>652.6</ele>
        <time>2014-05-29T08:58:07.000Z</time>
      </trkpt>
      <trkpt lat="43.6514" lon="6.85071">
        <ele>653.2</ele>
        <time>2014-05-29T08:58:08.000Z</time>
      </trkpt>
      <trkpt lat="43.65137" lon="6.85069">
        <ele>653.8</ele>
        <time>2014-05-29T08:58:09.000Z</time>
      </trkpt>
      <trkpt lat="43.65137" lon="6.85061">
        <ele>651.5</ele>
        <time>2014-05-29T08:58:10.000Z</time>
      </trkpt>
      <trkpt lat="43.65135" lon="6.85057">
        <ele>651.2</ele>
        <time>2014-05-29T08:58:11.000Z</time>
      </trkpt>
      <trkpt lat="43.65133" lon="6.85054">
        <ele>651.2</ele>
        <time>2014-05-29T08:58:12.000Z</time>
      </trkpt>
      <trkpt lat="43.65131" lon="6.85049">
        <ele>651.6</ele>
        <time>2014-05-29T08:58:13.000Z</time>
      </trkpt>
      <trkpt lat="43.65129" lon="6.85045">
        <ele>651.9</ele>
        <time>2014-05-29T08:58:14.000Z</time>
      </trkpt>
      <trkpt lat="43.65127" lon="6.85041">
        <ele>652</ele>
        <time>2014-05-29T08:58:15.000Z</time>
      </trkpt>
      <trkpt lat="43.65125" lon="6.85037">
        <ele>651.6</ele>
        <time>2014-05-29T08:58:16.000Z</time>
      </trkpt>
      <trkpt lat="43.65123" lon="6.85033">
        <ele>651.7</ele>
        <time>2014-05-29T08:58:17.000Z</time>
      </trkpt>
      <trkpt lat="43.65121" lon="6.85028">
        <ele>651.6</ele>
        <time>2014-05-29T08:58:18.000Z</time>
      </trkpt>
      <trkpt lat="43.65119" lon="6.85024">
        <ele>651.5</ele>
        <time>2014-05-29T08:58:19.000Z</time>
      </trkpt>
      <trkpt lat="43.65117" lon="6.85019">
        <ele>650.7</ele>
        <time>2014-05-29T08:58:20.000Z</time>
      </trkpt>
      <trkpt lat="43.65115" lon="6.85015">
        <ele>649.7</ele>
        <time>2014-05-29T08:58:21.000Z</time>
      </trkpt>
      <trkpt lat="43.65113" lon="6.85011">
        <ele>648.7</ele>
        <time>2014-05-29T08:58:22.000Z</time>
      </trkpt>
      <trkpt lat="43.6511" lon="6.85008">
        <ele>649.8</ele>
        <time>2014-05-29T08:58:23.000Z</time>
      </trkpt>
      <trkpt lat="43.65108" lon="6.85005">
        <ele>650.1</ele>
        <time>2014-05-29T08:58:24.000Z</time>
      </trkpt>
      <trkpt lat="43.65106" lon="6.85001">
        <ele>650.4</ele>
        <time>2014-05-29T08:58:25.000Z</time>
      </trkpt>
      <trkpt lat="43.65103" lon="6.84997">
        <ele>650.9</ele>
        <time>2014-05-29T08:58:26.000Z</time>
      </trkpt>
      <trkpt lat="43.65101" lon="6.84994">
        <ele>651.2</ele>
        <time>2014-05-29T08:58:27.000Z</time>
      </trkpt>
      <trkpt lat="43.65099" lon="6.8499">
        <ele>651.4</ele>
        <time>2014-05-29T08:58:28.000Z</time>
      </trkpt>
      <trkpt lat="43.65096" lon="6.84988">
        <ele>651.9</ele>
        <time>2014-05-29T08:58:29.000Z</time>
      </trkpt>
      <trkpt lat="43.65093" lon="6.84985">
        <ele>651.7</ele>
        <time>2014-05-29T08:58:30.000Z</time>
      </trkpt>
      <trkpt lat="43.6509" lon="6.8498">
        <ele>652.1</ele>
        <time>2014-05-29T08:58:31.440Z</time>
      </trkpt>
      <trkpt lat="43.65089" lon="6.84978">
        <ele>652.2</ele>
        <time>2014-05-29T08:58:32.000Z</time>
      </trkpt>
      <trkpt lat="43.65084" lon="6.84973">
        <ele>651.9</ele>
        <time>2014-05-29T08:58:34.000Z</time>
      </trkpt>
      <trkpt lat="43.65083" lon="6.84969">
        <ele>651.8</ele>
        <time>2014-05-29T08:58:35.000Z</time>
      </trkpt>
      <trkpt lat="43.65081" lon="6.84966">
        <ele>652.3</ele>
        <time>2014-05-29T08:58:36.000Z</time>
      </trkpt>
      <trkpt lat="43.6508" lon="6.84962">
        <ele>652.4</ele>
        <time>2014-05-29T08:58:36.999Z</time>
      </trkpt>
      <trkpt lat="43.65079" lon="6.84959">
        <ele>652.9</ele>
        <time>2014-05-29T08:58:38.000Z</time>
      </trkpt>
      <trkpt lat="43.65077" lon="6.84955">
        <ele>652.7</ele>
        <time>2014-05-29T08:58:39.000Z</time>
      </trkpt>
      <trkpt lat="43.65075" lon="6.84951">
        <ele>653.8</ele>
        <time>2014-05-29T08:58:40.000Z</time>
      </trkpt>
      <trkpt lat="43.65074" lon="6.84947">
        <ele>654.3</ele>
        <time>2014-05-29T08:58:41.000Z</time>
      </trkpt>
      <trkpt lat="43.6507" lon="6.84946">
        <ele>653.1</ele>
        <time>2014-05-29T08:58:42.000Z</time>
      </trkpt>
      <trkpt lat="43.65068" lon="6.84943">
        <ele>653.1</ele>
        <time>2014-05-29T08:58:43.000Z</time>
      </trkpt>
      <trkpt lat="43.65066" lon="6.84939">
        <ele>653.1</ele>
        <time>2014-05-29T08:58:44.000Z</time>
      </trkpt>
      <trkpt lat="43.65063" lon="6.84937">
        <ele>653.7</ele>
        <time>2014-05-29T08:58:44.999Z</time>
      </trkpt>
      <trkpt lat="43.65061" lon="6.84934">
        <ele>653.6</ele>
        <time>2014-05-29T08:58:46.000Z</time>
      </trkpt>
      <trkpt lat="43.6506" lon="6.8493">
        <ele>653.4</ele>
        <time>2014-05-29T08:58:47.000Z</time>
      </trkpt>
      <trkpt lat="43.65058" lon="6.84927">
        <ele>653.6</ele>
        <time>2014-05-29T08:58:48.000Z</time>
      </trkpt>
      <trkpt lat="43.65057" lon="6.84923">
        <ele>653.8</ele>
        <time>2014-05-29T08:58:49.000Z</time>
      </trkpt>
      <trkpt lat="43.65054" lon="6.8492">
        <ele>654.3</ele>
        <time>2014-05-29T08:58:50.000Z</time>
      </trkpt>
      <trkpt lat="43.65052" lon="6.84918">
        <ele>654.2</ele>
        <time>2014-05-29T08:58:51.000Z</time>
      </trkpt>
      <trkpt lat="43.6505" lon="6.84914">
        <ele>654.4</ele>
        <time>2014-05-29T08:58:52.000Z</time>
      </trkpt>
      <trkpt lat="43.65047" lon="6.84912">
        <ele>654.4</ele>
        <time>2014-05-29T08:58:53.000Z</time>
      </trkpt>
      <trkpt lat="43.65045" lon="6.84908">
        <ele>654.3</ele>
        <time>2014-05-29T08:58:54.000Z</time>
      </trkpt>
      <trkpt lat="43.65043" lon="6.84905">
        <ele>654.8</ele>
        <time>2014-05-29T08:58:54.999Z</time>
      </trkpt>
      <trkpt lat="43.65041" lon="6.84901">
        <ele>655.1</ele>
        <time>2014-05-29T08:58:56.000Z</time>
      </trkpt>
      <trkpt lat="43.6504" lon="6.84897">
        <ele>654.9</ele>
        <time>2014-05-29T08:58:57.000Z</time>
      </trkpt>
      <trkpt lat="43.65038" lon="6.84894">
        <ele>654.5</ele>
        <time>2014-05-29T08:58:57.998Z</time>
      </trkpt>
      <trkpt lat="43.65036" lon="6.84891">
        <ele>654.5</ele>
        <time>2014-05-29T08:58:59.000Z</time>
      </trkpt>
      <trkpt lat="43.65035" lon="6.84887">
        <ele>654.2</ele>
        <time>2014-05-29T08:59:00.000Z</time>
      </trkpt>
      <trkpt lat="43.65033" lon="6.84884">
        <ele>654.3</ele>
        <time>2014-05-29T08:59:01.000Z</time>
      </trkpt>
      <trkpt lat="43.65031" lon="6.8488">
        <ele>653.9</ele>
        <time>2014-05-29T08:59:02.000Z</time>
      </trkpt>
      <trkpt lat="43.65028" lon="6.84876">
        <ele>654.2</ele>
        <time>2014-05-29T08:59:03.000Z</time>
      </trkpt>
      <trkpt lat="43.65026" lon="6.84872">
        <ele>654.4</ele>
        <time>2014-05-29T08:59:04.000Z</time>
      </trkpt>
      <trkpt lat="43.65024" lon="6.84869">
        <ele>654.7</ele>
        <time>2014-05-29T08:59:05.000Z</time>
      </trkpt>
      <trkpt lat="43.65023" lon="6.84865">
        <ele>654</ele>
        <time>2014-05-29T08:59:06.000Z</time>
      </trkpt>
      <trkpt lat="43.6502" lon="6.84861">
        <ele>653.4</ele>
        <time>2014-05-29T08:59:07.000Z</time>
      </trkpt>
      <trkpt lat="43.65018" lon="6.84858">
        <ele>653.3</ele>
        <time>2014-05-29T08:59:08.000Z</time>
      </trkpt>
      <trkpt lat="43.65017" lon="6.84854">
        <ele>654.2</ele>
        <time>2014-05-29T08:59:09.000Z</time>
      </trkpt>
      <trkpt lat="43.65015" lon="6.84849">
        <ele>654.1</ele>
        <time>2014-05-29T08:59:10.000Z</time>
      </trkpt>
      <trkpt lat="43.65014" lon="6.84846">
        <ele>654.1</ele>
        <time>2014-05-29T08:59:11.000Z</time>
      </trkpt>
      <trkpt lat="43.65013" lon="6.84843">
        <ele>654.2</ele>
        <time>2014-05-29T08:59:12.000Z</time>
      </trkpt>
      <trkpt lat="43.65011" lon="6.8484">
        <ele>654.7</ele>
        <time>2014-05-29T08:59:13.000Z</time>
      </trkpt>
      <trkpt lat="43.6501" lon="6.84837">
        <ele>655.1</ele>
        <time>2014-05-29T08:59:13.999Z</time>
      </trkpt>
      <trkpt lat="43.65008" lon="6.84834">
        <ele>654.9</ele>
        <time>2014-05-29T08:59:15.000Z</time>
      </trkpt>
      <trkpt lat="43.65006" lon="6.8483">
        <ele>654.9</ele>
        <time>2014-05-29T08:59:16.000Z</time>
      </trkpt>
      <trkpt lat="43.65005" lon="6.84826">
        <ele>654.2</ele>
        <time>2014-05-29T08:59:17.000Z</time>
      </trkpt>
      <trkpt lat="43.65004" lon="6.84822">
        <ele>653.7</ele>
        <time>2014-05-29T08:59:18.000Z</time>
      </trkpt>
      <trkpt lat="43.65003" lon="6.84818">
        <ele>653.1</ele>
        <time>2014-05-29T08:59:19.000Z</time>
      </trkpt>
      <trkpt lat="43.65001" lon="6.84814">
        <ele>652.8</ele>
        <time>2014-05-29T08:59:20.000Z</time>
      </trkpt>
      <trkpt lat="43.65" lon="6.84811">
        <ele>652.6</ele>
        <time>2014-05-29T08:59:20.999Z</time>
      </trkpt>
      <trkpt lat="43.64999" lon="6.84807">
        <ele>652.9</ele>
        <time>2014-05-29T08:59:22.000Z</time>
      </trkpt>
      <trkpt lat="43.64998" lon="6.84803">
        <ele>652.9</ele>
        <time>2014-05-29T08:59:23.000Z</time>
      </trkpt>
      <trkpt lat="43.64996" lon="6.84801">
        <ele>652.9</ele>
        <time>2014-05-29T08:59:24.000Z</time>
      </trkpt>
      <trkpt lat="43.64995" lon="6.84797">
        <ele>652.8</ele>
        <time>2014-05-29T08:59:25.000Z</time>
      </trkpt>
      <trkpt lat="43.64994" lon="6.84793">
        <ele>652.8</ele>
        <time>2014-05-29T08:59:26.000Z</time>
      </trkpt>
      <trkpt lat="43.64992" lon="6.8479">
        <ele>652.4</ele>
        <time>2014-05-29T08:59:27.000Z</time>
      </trkpt>
      <trkpt lat="43.64991" lon="6.84787">
        <ele>652.9</ele>
        <time>2014-05-29T08:59:28.000Z</time>
      </trkpt>
      <trkpt lat="43.64989" lon="6.84784">
        <ele>653.2</ele>
        <time>2014-05-29T08:59:29.000Z</time>
      </trkpt>
      <trkpt lat="43.64988" lon="6.84781">
        <ele>653.1</ele>
        <time>2014-05-29T08:59:29.999Z</time>
      </trkpt>
      <trkpt lat="43.64987" lon="6.84776">
        <ele>652.9</ele>
        <time>2014-05-29T08:59:31.448Z</time>
      </trkpt>
      <trkpt lat="43.64986" lon="6.84774">
        <ele>652.9</ele>
        <time>2014-05-29T08:59:32.000Z</time>
      </trkpt>
      <trkpt lat="43.64984" lon="6.84769">
        <ele>653.3</ele>
        <time>2014-05-29T08:59:33.998Z</time>
      </trkpt>
      <trkpt lat="43.64983" lon="6.84765">
        <ele>653.3</ele>
        <time>2014-05-29T08:59:35.000Z</time>
      </trkpt>
      <trkpt lat="43.64982" lon="6.84762">
        <ele>653.2</ele>
        <time>2014-05-29T08:59:36.000Z</time>
      </trkpt>
      <trkpt lat="43.6498" lon="6.84758">
        <ele>652.8</ele>
        <time>2014-05-29T08:59:37.000Z</time>
      </trkpt>
      <trkpt lat="43.64979" lon="6.84756">
        <ele>652.7</ele>
        <time>2014-05-29T08:59:38.000Z</time>
      </trkpt>
      <trkpt lat="43.64977" lon="6.84752">
        <ele>652.6</ele>
        <time>2014-05-29T08:59:39.000Z</time>
      </trkpt>
      <trkpt lat="43.64976" lon="6.84749">
        <ele>653.3</ele>
        <time>2014-05-29T08:59:40.000Z</time>
      </trkpt>
      <trkpt lat="43.64974" lon="6.84745">
        <ele>652.8</ele>
        <time>2014-05-29T08:59:41.000Z</time>
      </trkpt>
      <trkpt lat="43.64972" lon="6.84742">
        <ele>652.3</ele>
        <time>2014-05-29T08:59:42.000Z</time>
      </trkpt>
      <trkpt lat="43.6497" lon="6.84739">
        <ele>652</ele>
        <time>2014-05-29T08:59:43.000Z</time>
      </trkpt>
      <trkpt lat="43.64968" lon="6.84736">
        <ele>651.8</ele>
        <time>2014-05-29T08:59:44.000Z</time>
      </trkpt>
      <trkpt lat="43.64967" lon="6.84733">
        <ele>651.9</ele>
        <time>2014-05-29T08:59:44.999Z</time>
      </trkpt>
      <trkpt lat="43.64965" lon="6.84731">
        <ele>652.2</ele>
        <time>2014-05-29T08:59:46.000Z</time>
      </trkpt>
      <trkpt lat="43.64963" lon="6.84727">
        <ele>651.7</ele>
        <time>2014-05-29T08:59:47.000Z</time>
      </trkpt>
      <trkpt lat="43.6496" lon="6.84724">
        <ele>652.2</ele>
        <time>2014-05-29T08:59:48.000Z</time>
      </trkpt>
      <trkpt lat="43.64958" lon="6.84721">
        <ele>652.5</ele>
        <time>2014-05-29T08:59:49.000Z</time>
      </trkpt>
      <trkpt lat="43.64957" lon="6.84717">
        <ele>652.9</ele>
        <time>2014-05-29T08:59:50.000Z</time>
      </trkpt>
      <trkpt lat="43.64955" lon="6.84713">
        <ele>653</ele>
        <time>2014-05-29T08:59:51.000Z</time>
      </trkpt>
      <trkpt lat="43.64953" lon="6.84709">
        <ele>652.4</ele>
        <time>2014-05-29T08:59:51.999Z</time>
      </trkpt>
      <trkpt lat="43.64951" lon="6.84705">
        <ele>652.6</ele>
        <time>2014-05-29T08:59:53.000Z</time>
      </trkpt>
      <trkpt lat="43.6495" lon="6.84701">
        <ele>652.5</ele>
        <time>2014-05-29T08:59:54.000Z</time>
      </trkpt>
      <trkpt lat="43.64948" lon="6.84697">
        <ele>652.4</ele>
        <time>2014-05-29T08:59:55.000Z</time>
      </trkpt>
      <trkpt lat="43.64946" lon="6.84693">
        <ele>652.3</ele>
        <time>2014-05-29T08:59:56.000Z</time>
      </trkpt>
      <trkpt lat="43.64945" lon="6.84689">
        <ele>652.4</ele>
        <time>2014-05-29T08:59:57.000Z</time>
      </trkpt>
      <trkpt lat="43.64943" lon="6.84685">
        <ele>652.2</ele>
        <time>2014-05-29T08:59:58.000Z</time>
      </trkpt>
      <trkpt lat="43.64941" lon="6.8468">
        <ele>652.1</ele>
        <time>2014-05-29T08:59:59.000Z</time>
      </trkpt>
      <trkpt lat="43.6494" lon="6.84676">
        <ele>651.9</ele>
        <time>2014-05-29T09:00:00.000Z</time>
      </trkpt>
      <trkpt lat="43.64938" lon="6.84672">
        <ele>652.1</ele>
        <time>2014-05-29T09:00:01.000Z</time>
      </trkpt>
      <trkpt lat="43.64938" lon="6.84668">
        <ele>652.2</ele>
        <time>2014-05-29T09:00:02.000Z</time>
      </trkpt>
      <trkpt lat="43.64937" lon="6.84664">
        <ele>651.8</ele>
        <time>2014-05-29T09:00:02.999Z</time>
      </trkpt>
      <trkpt lat="43.64937" lon="6.84661">
        <ele>651.6</ele>
        <time>2014-05-29T09:00:04.000Z</time>
      </trkpt>
      <trkpt lat="43.64937" lon="6.84656">
        <ele>651.9</ele>
        <time>2014-05-29T09:00:05.000Z</time>
      </trkpt>
      <trkpt lat="43.64938" lon="6.8465">
        <ele>651.6</ele>
        <time>2014-05-29T09:00:06.000Z</time>
      </trkpt>
      <trkpt lat="43.64938" lon="6.84645">
        <ele>651.4</ele>
        <time>2014-05-29T09:00:07.000Z</time>
      </trkpt>
      <trkpt lat="43.64938" lon="6.84639">
        <ele>651</ele>
        <time>2014-05-29T09:00:08.000Z</time>
      </trkpt>
      <trkpt lat="43.64938" lon="6.84633">
        <ele>650.9</ele>
        <time>2014-05-29T09:00:09.000Z</time>
      </trkpt>
      <trkpt lat="43.64938" lon="6.84628">
        <ele>650.8</ele>
        <time>2014-05-29T09:00:10.000Z</time>
      </trkpt>
      <trkpt lat="43.64937" lon="6.84623">
        <ele>650.8</ele>
        <time>2014-05-29T09:00:11.000Z</time>
      </trkpt>
      <trkpt lat="43.64936" lon="6.84617">
        <ele>650.9</ele>
        <time>2014-05-29T09:00:12.000Z</time>
      </trkpt>
      <trkpt lat="43.64936" lon="6.84612">
        <ele>651.3</ele>
        <time>2014-05-29T09:00:13.000Z</time>
      </trkpt>
      <trkpt lat="43.64935" lon="6.84607">
        <ele>651.4</ele>
        <time>2014-05-29T09:00:13.999Z</time>
      </trkpt>
      <trkpt lat="43.64934" lon="6.84608">
        <ele>651.2</ele>
        <time>2014-05-29T09:00:14.998Z</time>
      </trkpt>
      <trkpt lat="43.64931" lon="6.84604">
        <ele>651.8</ele>
        <time>2014-05-29T09:00:16.000Z</time>
      </trkpt>
      <trkpt lat="43.6493" lon="6.846">
        <ele>652.1</ele>
        <time>2014-05-29T09:00:17.000Z</time>
      </trkpt>
      <trkpt lat="43.64928" lon="6.84596">
        <ele>653.5</ele>
        <time>2014-05-29T09:00:18.000Z</time>
      </trkpt>
      <trkpt lat="43.64926" lon="6.84593">
        <ele>654.1</ele>
        <time>2014-05-29T09:00:19.000Z</time>
      </trkpt>
      <trkpt lat="43.64924" lon="6.84589">
        <ele>655.1</ele>
        <time>2014-05-29T09:00:20.000Z</time>
      </trkpt>
      <trkpt lat="43.64922" lon="6.84585">
        <ele>656.3</ele>
        <time>2014-05-29T09:00:21.000Z</time>
      </trkpt>
      <trkpt lat="43.64921" lon="6.8458">
        <ele>656.4</ele>
        <time>2014-05-29T09:00:22.000Z</time>
      </trkpt>
      <trkpt lat="43.6492" lon="6.84576">
        <ele>657.3</ele>
        <time>2014-05-29T09:00:23.000Z</time>
      </trkpt>
      <trkpt lat="43.64918" lon="6.84571">
        <ele>657.8</ele>
        <time>2014-05-29T09:00:24.000Z</time>
      </trkpt>
      <trkpt lat="43.64915" lon="6.84566">
        <ele>657.5</ele>
        <time>2014-05-29T09:00:26.000Z</time>
      </trkpt>
      <trkpt lat="43.64913" lon="6.84562">
        <ele>657.4</ele>
        <time>2014-05-29T09:00:27.000Z</time>
      </trkpt>
      <trkpt lat="43.64911" lon="6.84558">
        <ele>656.7</ele>
        <time>2014-05-29T09:00:28.000Z</time>
      </trkpt>
      <trkpt lat="43.64909" lon="6.84554">
        <ele>656.6</ele>
        <time>2014-05-29T09:00:29.000Z</time>
      </trkpt>
      <trkpt lat="43.64908" lon="6.84551">
        <ele>655.8</ele>
        <time>2014-05-29T09:00:30.000Z</time>
      </trkpt>
      <trkpt lat="43.64906" lon="6.84548">
        <ele>654.9</ele>
        <time>2014-05-29T09:00:31.000Z</time>
      </trkpt>
      <trkpt lat="43.64892" lon="6.84508">
        <ele>650.6</ele>
        <time>2014-05-29T09:00:40.382Z</time>
      </trkpt>
      <trkpt lat="43.64891" lon="6.845">
        <ele>650.2</ele>
        <time>2014-05-29T09:00:42.000Z</time>
      </trkpt>
      <trkpt lat="43.6489" lon="6.84495">
        <ele>649.9</ele>
        <time>2014-05-29T09:00:43.000Z</time>
      </trkpt>
      <trkpt lat="43.64889" lon="6.84491">
        <ele>650.3</ele>
        <time>2014-05-29T09:00:44.000Z</time>
      </trkpt>
      <trkpt lat="43.64888" lon="6.84487">
        <ele>651.2</ele>
        <time>2014-05-29T09:00:45.000Z</time>
      </trkpt>
      <trkpt lat="43.64887" lon="6.84481">
        <ele>648.2</ele>
        <time>2014-05-29T09:00:46.000Z</time>
      </trkpt>
      <trkpt lat="43.64886" lon="6.84476">
        <ele>647.2</ele>
        <time>2014-05-29T09:00:47.000Z</time>
      </trkpt>
      <trkpt lat="43.64885" lon="6.84471">
        <ele>646.8</ele>
        <time>2014-05-29T09:00:48.000Z</time>
      </trkpt>
      <trkpt lat="43.64884" lon="6.84467">
        <ele>646.4</ele>
        <time>2014-05-29T09:00:49.000Z</time>
      </trkpt>
      <trkpt lat="43.64882" lon="6.84462">
        <ele>645.9</ele>
        <time>2014-05-29T09:00:50.000Z</time>
      </trkpt>
      <trkpt lat="43.64881" lon="6.84458">
        <ele>645.2</ele>
        <time>2014-05-29T09:00:51.000Z</time>
      </trkpt>
      <trkpt lat="43.6488" lon="6.84453">
        <ele>645.3</ele>
        <time>2014-05-29T09:00:52.000Z</time>
      </trkpt>
      <trkpt lat="43.64879" lon="6.84449">
        <ele>646</ele>
        <time>2014-05-29T09:00:54.000Z</time>
      </trkpt>
      <trkpt lat="43.64878" lon="6.84446">
        <ele>646.4</ele>
        <time>2014-05-29T09:00:54.998Z</time>
      </trkpt>
      <trkpt lat="43.64881" lon="6.84443">
        <ele>645.4</ele>
        <time>2014-05-29T09:00:56.000Z</time>
      </trkpt>
      <trkpt lat="43.64883" lon="6.8444">
        <ele>644.4</ele>
        <time>2014-05-29T09:00:57.000Z</time>
      </trkpt>
      <trkpt lat="43.64885" lon="6.8444">
        <ele>644.3</ele>
        <time>2014-05-29T09:00:58.000Z</time>
      </trkpt>
      <trkpt lat="43.64888" lon="6.84439">
        <ele>643.9</ele>
        <time>2014-05-29T09:00:59.000Z</time>
      </trkpt>
      <trkpt lat="43.64893" lon="6.8444">
        <ele>646.5</ele>
        <time>2014-05-29T09:01:00.000Z</time>
      </trkpt>
      <trkpt lat="43.64896" lon="6.84444">
        <ele>645</ele>
        <time>2014-05-29T09:01:01.000Z</time>
      </trkpt>
      <trkpt lat="43.64899" lon="6.84443">
        <ele>646</ele>
        <time>2014-05-29T09:01:02.000Z</time>
      </trkpt>
      <trkpt lat="43.64903" lon="6.84441">
        <ele>649.9</ele>
        <time>2014-05-29T09:01:04.000Z</time>
      </trkpt>
      <trkpt lat="43.64905" lon="6.8444">
        <ele>651</ele>
        <time>2014-05-29T09:01:05.000Z</time>
      </trkpt>
      <trkpt lat="43.64906" lon="6.84439">
        <ele>652.1</ele>
        <time>2014-05-29T09:01:06.000Z</time>
      </trkpt>
      <trkpt lat="43.6491" lon="6.84439">
        <ele>651.8</ele>
        <time>2014-05-29T09:01:07.000Z</time>
      </trkpt>
      <trkpt lat="43.64913" lon="6.84438">
        <ele>653.1</ele>
        <time>2014-05-29T09:01:08.000Z</time>
      </trkpt>
      <trkpt lat="43.64916" lon="6.84436">
        <ele>654.2</ele>
        <time>2014-05-29T09:01:09.000Z</time>
      </trkpt>
      <trkpt lat="43.6492" lon="6.84436">
        <ele>655.3</ele>
        <time>2014-05-29T09:01:10.000Z</time>
      </trkpt>
      <trkpt lat="43.64923" lon="6.84435">
        <ele>655.8</ele>
        <time>2014-05-29T09:01:11.000Z</time>
      </trkpt>
      <trkpt lat="43.64927" lon="6.84437">
        <ele>655.3</ele>
        <time>2014-05-29T09:01:12.000Z</time>
      </trkpt>
      <trkpt lat="43.6493" lon="6.84436">
        <ele>655.8</ele>
        <time>2014-05-29T09:01:13.000Z</time>
      </trkpt>
      <trkpt lat="43.64935" lon="6.84433">
        <ele>655.8</ele>
        <time>2014-05-29T09:01:14.000Z</time>
      </trkpt>
      <trkpt lat="43.64939" lon="6.84432">
        <ele>656.2</ele>
        <time>2014-05-29T09:01:17.000Z</time>
      </trkpt>
      <trkpt lat="43.64941" lon="6.84432">
        <ele>655.6</ele>
        <time>2014-05-29T09:01:18.000Z</time>
      </trkpt>
      <trkpt lat="43.64944" lon="6.84431">
        <ele>655.6</ele>
        <time>2014-05-29T09:01:19.000Z</time>
      </trkpt>
      <trkpt lat="43.64946" lon="6.8443">
        <ele>654.8</ele>
        <time>2014-05-29T09:01:20.000Z</time>
      </trkpt>
      <trkpt lat="43.64949" lon="6.84427">
        <ele>653.6</ele>
        <time>2014-05-29T09:01:20.998Z</time>
      </trkpt>
      <trkpt lat="43.64952" lon="6.84424">
        <ele>653.1</ele>
        <time>2014-05-29T09:01:22.000Z</time>
      </trkpt>
      <trkpt lat="43.64954" lon="6.8442">
        <ele>653.9</ele>
        <time>2014-05-29T09:01:24.000Z</time>
      </trkpt>
      <trkpt lat="43.64955" lon="6.84419">
        <ele>655.4</ele>
        <time>2014-05-29T09:01:24.998Z</time>
      </trkpt>
      <trkpt lat="43.64957" lon="6.84417">
        <ele>656.2</ele>
        <time>2014-05-29T09:01:26.000Z</time>
      </trkpt>
      <trkpt lat="43.64959" lon="6.84416">
        <ele>655</ele>
        <time>2014-05-29T09:01:26.999Z</time>
      </trkpt>
      <trkpt lat="43.64963" lon="6.84415">
        <ele>655.7</ele>
        <time>2014-05-29T09:01:28.999Z</time>
      </trkpt>
      <trkpt lat="43.64965" lon="6.84414">
        <ele>656</ele>
        <time>2014-05-29T09:01:30.000Z</time>
      </trkpt>
      <trkpt lat="43.64969" lon="6.84413">
        <ele>655.8</ele>
        <time>2014-05-29T09:01:32.000Z</time>
      </trkpt>
      <trkpt lat="43.64972" lon="6.84412">
        <ele>655.9</ele>
        <time>2014-05-29T09:01:34.000Z</time>
      </trkpt>
      <trkpt lat="43.64976" lon="6.84414">
        <ele>652.3</ele>
        <time>2014-05-29T09:01:37.000Z</time>
      </trkpt>
      <trkpt lat="43.64978" lon="6.84414">
        <ele>652.7</ele>
        <time>2014-05-29T09:01:38.000Z</time>
      </trkpt>
      <trkpt lat="43.6498" lon="6.84417">
        <ele>649.6</ele>
        <time>2014-05-29T09:01:41.000Z</time>
      </trkpt>
      <trkpt lat="43.64982" lon="6.84418">
        <ele>649.8</ele>
        <time>2014-05-29T09:01:42.000Z</time>
      </trkpt>
      <trkpt lat="43.64984" lon="6.84419">
        <ele>650.4</ele>
        <time>2014-05-29T09:01:43.000Z</time>
      </trkpt>
      <trkpt lat="43.64986" lon="6.84421">
        <ele>650.4</ele>
        <time>2014-05-29T09:01:44.000Z</time>
      </trkpt>
      <trkpt lat="43.64989" lon="6.84422">
        <ele>654.4</ele>
        <time>2014-05-29T09:01:47.000Z</time>
      </trkpt>
      <trkpt lat="43.64991" lon="6.84423">
        <ele>656</ele>
        <time>2014-05-29T09:01:48.000Z</time>
      </trkpt>
      <trkpt lat="43.64995" lon="6.84424">
        <ele>659</ele>
        <time>2014-05-29T09:01:50.000Z</time>
      </trkpt>
      <trkpt lat="43.64997" lon="6.84425">
        <ele>659.3</ele>
        <time>2014-05-29T09:01:51.000Z</time>
      </trkpt>
      <trkpt lat="43.64999" lon="6.84427">
        <ele>658.9</ele>
        <time>2014-05-29T09:01:52.000Z</time>
      </trkpt>
      <trkpt lat="43.65001" lon="6.84428">
        <ele>658.8</ele>
        <time>2014-05-29T09:01:53.000Z</time>
      </trkpt>
      <trkpt lat="43.65005" lon="6.84428">
        <ele>662.6</ele>
        <time>2014-05-29T09:01:57.000Z</time>
      </trkpt>
      <trkpt lat="43.65006" lon="6.84428">
        <ele>662.3</ele>
        <time>2014-05-29T09:01:57.999Z</time>
      </trkpt>
      <trkpt lat="43.65009" lon="6.84432">
        <ele>665.1</ele>
        <time>2014-05-29T09:02:00.000Z</time>
      </trkpt>
      <trkpt lat="43.65011" lon="6.84433">
        <ele>665.9</ele>
        <time>2014-05-29T09:02:01.000Z</time>
      </trkpt>
      <trkpt lat="43.65015" lon="6.84432">
        <ele>666.5</ele>
        <time>2014-05-29T09:02:03.000Z</time>
      </trkpt>
      <trkpt lat="43.65019" lon="6.84433">
        <ele>665.6</ele>
        <time>2014-05-29T09:02:04.000Z</time>
      </trkpt>
      <trkpt lat="43.65023" lon="6.84435">
        <ele>665.9</ele>
        <time>2014-05-29T09:02:05.999Z</time>
      </trkpt>
      <trkpt lat="43.65025" lon="6.84438">
        <ele>666</ele>
        <time>2014-05-29T09:02:07.000Z</time>
      </trkpt>
      <trkpt lat="43.65027" lon="6.84439">
        <ele>665.5</ele>
        <time>2014-05-29T09:02:08.000Z</time>
      </trkpt>
      <trkpt lat="43.6503" lon="6.84438">
        <ele>667.3</ele>
        <time>2014-05-29T09:02:09.000Z</time>
      </trkpt>
      <trkpt lat="43.65034" lon="6.84436">
        <ele>669.4</ele>
        <time>2014-05-29T09:02:10.999Z</time>
      </trkpt>
      <trkpt lat="43.65036" lon="6.84438">
        <ele>669.3</ele>
        <time>2014-05-29T09:02:12.000Z</time>
      </trkpt>
      <trkpt lat="43.65039" lon="6.84439">
        <ele>669.6</ele>
        <time>2014-05-29T09:02:13.000Z</time>
      </trkpt>
      <trkpt lat="43.65041" lon="6.84439">
        <ele>669.2</ele>
        <time>2014-05-29T09:02:13.999Z</time>
      </trkpt>
      <trkpt lat="43.65043" lon="6.8444">
        <ele>669.1</ele>
        <time>2014-05-29T09:02:15.000Z</time>
      </trkpt>
      <trkpt lat="43.65048" lon="6.84439">
        <ele>666.9</ele>
        <time>2014-05-29T09:02:16.000Z</time>
      </trkpt>
      <trkpt lat="43.6505" lon="6.8444">
        <ele>667.4</ele>
        <time>2014-05-29T09:02:16.999Z</time>
      </trkpt>
      <trkpt lat="43.65053" lon="6.84441">
        <ele>668.3</ele>
        <time>2014-05-29T09:02:18.000Z</time>
      </trkpt>
      <trkpt lat="43.65055" lon="6.84442">
        <ele>668.6</ele>
        <time>2014-05-29T09:02:19.000Z</time>
      </trkpt>
      <trkpt lat="43.65058" lon="6.84443">
        <ele>669.1</ele>
        <time>2014-05-29T09:02:20.000Z</time>
      </trkpt>
      <trkpt lat="43.65061" lon="6.84442">
        <ele>668.1</ele>
        <time>2014-05-29T09:02:20.999Z</time>
      </trkpt>
      <trkpt lat="43.65064" lon="6.84441">
        <ele>667.1</ele>
        <time>2014-05-29T09:02:22.000Z</time>
      </trkpt>
      <trkpt lat="43.65067" lon="6.8444">
        <ele>666.2</ele>
        <time>2014-05-29T09:02:22.999Z</time>
      </trkpt>
      <trkpt lat="43.65071" lon="6.84441">
        <ele>666</ele>
        <time>2014-05-29T09:02:24.000Z</time>
      </trkpt>
      <trkpt lat="43.65074" lon="6.84441">
        <ele>666.3</ele>
        <time>2014-05-29T09:02:25.000Z</time>
      </trkpt>
      <trkpt lat="43.65077" lon="6.84442">
        <ele>666.4</ele>
        <time>2014-05-29T09:02:26.000Z</time>
      </trkpt>
      <trkpt lat="43.6508" lon="6.84442">
        <ele>667.1</ele>
        <time>2014-05-29T09:02:27.000Z</time>
      </trkpt>
      <trkpt lat="43.65083" lon="6.84441">
        <ele>666.7</ele>
        <time>2014-05-29T09:02:28.000Z</time>
      </trkpt>
      <trkpt lat="43.65087" lon="6.84442">
        <ele>665.8</ele>
        <time>2014-05-29T09:02:29.000Z</time>
      </trkpt>
      <trkpt lat="43.65089" lon="6.84441">
        <ele>666.2</ele>
        <time>2014-05-29T09:02:30.000Z</time>
      </trkpt>
      <trkpt lat="43.65093" lon="6.84442">
        <ele>666.9</ele>
        <time>2014-05-29T09:02:31.457Z</time>
      </trkpt>
      <trkpt lat="43.65094" lon="6.84442">
        <ele>667.1</ele>
        <time>2014-05-29T09:02:32.000Z</time>
      </trkpt>
      <trkpt lat="43.651" lon="6.84442">
        <ele>666.6</ele>
        <time>2014-05-29T09:02:34.000Z</time>
      </trkpt>
      <trkpt lat="43.65102" lon="6.84441">
        <ele>669.8</ele>
        <time>2014-05-29T09:02:35.000Z</time>
      </trkpt>
      <trkpt lat="43.65106" lon="6.84444">
        <ele>667.6</ele>
        <time>2014-05-29T09:02:36.000Z</time>
      </trkpt>
      <trkpt lat="43.65109" lon="6.84445">
        <ele>666.9</ele>
        <time>2014-05-29T09:02:37.000Z</time>
      </trkpt>
      <trkpt lat="43.65111" lon="6.84445">
        <ele>666.3</ele>
        <time>2014-05-29T09:02:38.000Z</time>
      </trkpt>
      <trkpt lat="43.65114" lon="6.84445">
        <ele>665.7</ele>
        <time>2014-05-29T09:02:39.000Z</time>
      </trkpt>
      <trkpt lat="43.65116" lon="6.84444">
        <ele>667.2</ele>
        <time>2014-05-29T09:02:40.000Z</time>
      </trkpt>
      <trkpt lat="43.65119" lon="6.84445">
        <ele>667.5</ele>
        <time>2014-05-29T09:02:41.000Z</time>
      </trkpt>
      <trkpt lat="43.65122" lon="6.84445">
        <ele>667.3</ele>
        <time>2014-05-29T09:02:42.000Z</time>
      </trkpt>
      <trkpt lat="43.65124" lon="6.84444">
        <ele>667</ele>
        <time>2014-05-29T09:02:43.000Z</time>
      </trkpt>
      <trkpt lat="43.65127" lon="6.84444">
        <ele>666.8</ele>
        <time>2014-05-29T09:02:44.000Z</time>
      </trkpt>
      <trkpt lat="43.6513" lon="6.84444">
        <ele>667</ele>
        <time>2014-05-29T09:02:45.000Z</time>
      </trkpt>
      <trkpt lat="43.65132" lon="6.84444">
        <ele>669.5</ele>
        <time>2014-05-29T09:02:45.999Z</time>
      </trkpt>
      <trkpt lat="43.65135" lon="6.84443">
        <ele>669.8</ele>
        <time>2014-05-29T09:02:47.000Z</time>
      </trkpt>
      <trkpt lat="43.65138" lon="6.84442">
        <ele>669.7</ele>
        <time>2014-05-29T09:02:48.000Z</time>
      </trkpt>
      <trkpt lat="43.65142" lon="6.84442">
        <ele>669.9</ele>
        <time>2014-05-29T09:02:49.000Z</time>
      </trkpt>
      <trkpt lat="43.65146" lon="6.84442">
        <ele>668.9</ele>
        <time>2014-05-29T09:02:50.000Z</time>
      </trkpt>
      <trkpt lat="43.6515" lon="6.84442">
        <ele>668.3</ele>
        <time>2014-05-29T09:02:51.000Z</time>
      </trkpt>
      <trkpt lat="43.65154" lon="6.84443">
        <ele>667.7</ele>
        <time>2014-05-29T09:02:52.000Z</time>
      </trkpt>
      <trkpt lat="43.65157" lon="6.84442">
        <ele>666</ele>
        <time>2014-05-29T09:02:53.000Z</time>
      </trkpt>
      <trkpt lat="43.6516" lon="6.84442">
        <ele>664.9</ele>
        <time>2014-05-29T09:02:54.000Z</time>
      </trkpt>
      <trkpt lat="43.65165" lon="6.84444">
        <ele>663.9</ele>
        <time>2014-05-29T09:02:55.000Z</time>
      </trkpt>
      <trkpt lat="43.65168" lon="6.84444">
        <ele>663.8</ele>
        <time>2014-05-29T09:02:56.000Z</time>
      </trkpt>
      <trkpt lat="43.65172" lon="6.84444">
        <ele>663.5</ele>
        <time>2014-05-29T09:02:57.000Z</time>
      </trkpt>
      <trkpt lat="43.65176" lon="6.84443">
        <ele>663.3</ele>
        <time>2014-05-29T09:02:58.000Z</time>
      </trkpt>
      <trkpt lat="43.6518" lon="6.84442">
        <ele>662.9</ele>
        <time>2014-05-29T09:02:59.000Z</time>
      </trkpt>
      <trkpt lat="43.65183" lon="6.84444">
        <ele>660.9</ele>
        <time>2014-05-29T09:03:00.000Z</time>
      </trkpt>
      <trkpt lat="43.65188" lon="6.84443">
        <ele>659.9</ele>
        <time>2014-05-29T09:03:01.000Z</time>
      </trkpt>
      <trkpt lat="43.65191" lon="6.84442">
        <ele>659.3</ele>
        <time>2014-05-29T09:03:02.000Z</time>
      </trkpt>
      <trkpt lat="43.65194" lon="6.8444">
        <ele>660</ele>
        <time>2014-05-29T09:03:03.000Z</time>
      </trkpt>
      <trkpt lat="43.65197" lon="6.84438">
        <ele>660.2</ele>
        <time>2014-05-29T09:03:03.999Z</time>
      </trkpt>
      <trkpt lat="43.652" lon="6.84436">
        <ele>660</ele>
        <time>2014-05-29T09:03:05.000Z</time>
      </trkpt>
      <trkpt lat="43.65202" lon="6.84436">
        <ele>659.4</ele>
        <time>2014-05-29T09:03:06.000Z</time>
      </trkpt>
      <trkpt lat="43.65205" lon="6.84434">
        <ele>659.2</ele>
        <time>2014-05-29T09:03:07.000Z</time>
      </trkpt>
      <trkpt lat="43.65209" lon="6.84433">
        <ele>658.4</ele>
        <time>2014-05-29T09:03:08.000Z</time>
      </trkpt>
      <trkpt lat="43.65213" lon="6.84434">
        <ele>657.7</ele>
        <time>2014-05-29T09:03:09.000Z</time>
      </trkpt>
      <trkpt lat="43.65217" lon="6.84433">
        <ele>656.7</ele>
        <time>2014-05-29T09:03:10.000Z</time>
      </trkpt>
      <trkpt lat="43.65221" lon="6.84431">
        <ele>657</ele>
        <time>2014-05-29T09:03:11.000Z</time>
      </trkpt>
      <trkpt lat="43.65225" lon="6.84431">
        <ele>658</ele>
        <time>2014-05-29T09:03:12.000Z</time>
      </trkpt>
      <trkpt lat="43.65229" lon="6.8443">
        <ele>658.9</ele>
        <time>2014-05-29T09:03:13.000Z</time>
      </trkpt>
      <trkpt lat="43.65232" lon="6.84428">
        <ele>659.4</ele>
        <time>2014-05-29T09:03:14.000Z</time>
      </trkpt>
      <trkpt lat="43.65236" lon="6.84427">
        <ele>659.7</ele>
        <time>2014-05-29T09:03:15.000Z</time>
      </trkpt>
      <trkpt lat="43.65238" lon="6.84425">
        <ele>658.7</ele>
        <time>2014-05-29T09:03:16.000Z</time>
      </trkpt>
      <trkpt lat="43.65241" lon="6.84423">
        <ele>658.9</ele>
        <time>2014-05-29T09:03:17.000Z</time>
      </trkpt>
      <trkpt lat="43.65245" lon="6.84424">
        <ele>660.6</ele>
        <time>2014-05-29T09:03:19.000Z</time>
      </trkpt>
      <trkpt lat="43.65248" lon="6.84424">
        <ele>661</ele>
        <time>2014-05-29T09:03:20.000Z</time>
      </trkpt>
      <trkpt lat="43.65251" lon="6.84423">
        <ele>658.6</ele>
        <time>2014-05-29T09:03:21.000Z</time>
      </trkpt>
      <trkpt lat="43.65254" lon="6.84424">
        <ele>655.8</ele>
        <time>2014-05-29T09:03:22.000Z</time>
      </trkpt>
      <trkpt lat="43.65257" lon="6.84425">
        <ele>654.4</ele>
        <time>2014-05-29T09:03:23.000Z</time>
      </trkpt>
      <trkpt lat="43.65259" lon="6.84424">
        <ele>654</ele>
        <time>2014-05-29T09:03:23.999Z</time>
      </trkpt>
      <trkpt lat="43.65261" lon="6.84422">
        <ele>656.1</ele>
        <time>2014-05-29T09:03:25.000Z</time>
      </trkpt>
      <trkpt lat="43.65264" lon="6.84421">
        <ele>655.8</ele>
        <time>2014-05-29T09:03:26.000Z</time>
      </trkpt>
      <trkpt lat="43.65268" lon="6.84419">
        <ele>655.8</ele>
        <time>2014-05-29T09:03:28.000Z</time>
      </trkpt>
      <trkpt lat="43.65271" lon="6.84419">
        <ele>655.4</ele>
        <time>2014-05-29T09:03:29.000Z</time>
      </trkpt>
      <trkpt lat="43.65273" lon="6.84419">
        <ele>654</ele>
        <time>2014-05-29T09:03:30.000Z</time>
      </trkpt>
      <trkpt lat="43.65275" lon="6.84419">
        <ele>653.9</ele>
        <time>2014-05-29T09:03:31.000Z</time>
      </trkpt>
      <trkpt lat="43.65277" lon="6.84418">
        <ele>652.8</ele>
        <time>2014-05-29T09:03:32.000Z</time>
      </trkpt>
      <trkpt lat="43.6528" lon="6.84418">
        <ele>652.8</ele>
        <time>2014-05-29T09:03:32.999Z</time>
      </trkpt>
      <trkpt lat="43.65283" lon="6.84416">
        <ele>652.3</ele>
        <time>2014-05-29T09:03:35.000Z</time>
      </trkpt>
      <trkpt lat="43.65285" lon="6.84415">
        <ele>652.2</ele>
        <time>2014-05-29T09:03:36.000Z</time>
      </trkpt>
      <trkpt lat="43.65289" lon="6.84415">
        <ele>653.2</ele>
        <time>2014-05-29T09:03:37.999Z</time>
      </trkpt>
      <trkpt lat="43.65291" lon="6.84414">
        <ele>653.2</ele>
        <time>2014-05-29T09:03:39.000Z</time>
      </trkpt>
      <trkpt lat="43.65294" lon="6.84413">
        <ele>652.2</ele>
        <time>2014-05-29T09:03:41.000Z</time>
      </trkpt>
      <trkpt lat="43.65296" lon="6.84413">
        <ele>652.1</ele>
        <time>2014-05-29T09:03:42.000Z</time>
      </trkpt>
      <trkpt lat="43.65299" lon="6.84412">
        <ele>651.8</ele>
        <time>2014-05-29T09:03:43.000Z</time>
      </trkpt>
      <trkpt lat="43.65302" lon="6.84411">
        <ele>652.8</ele>
        <time>2014-05-29T09:03:44.000Z</time>
      </trkpt>
      <trkpt lat="43.65304" lon="6.84411">
        <ele>652.8</ele>
        <time>2014-05-29T09:03:45.000Z</time>
      </trkpt>
      <trkpt lat="43.65306" lon="6.84411">
        <ele>653</ele>
        <time>2014-05-29T09:03:45.998Z</time>
      </trkpt>
      <trkpt lat="43.65309" lon="6.84409">
        <ele>651.5</ele>
        <time>2014-05-29T09:03:47.000Z</time>
      </trkpt>
      <trkpt lat="43.65311" lon="6.84407">
        <ele>652.9</ele>
        <time>2014-05-29T09:03:48.000Z</time>
      </trkpt>
      <trkpt lat="43.65314" lon="6.84406">
        <ele>652.2</ele>
        <time>2014-05-29T09:03:49.000Z</time>
      </trkpt>
      <trkpt lat="43.65317" lon="6.84405">
        <ele>651.4</ele>
        <time>2014-05-29T09:03:50.000Z</time>
      </trkpt>
      <trkpt lat="43.6532" lon="6.84404">
        <ele>649.1</ele>
        <time>2014-05-29T09:03:50.999Z</time>
      </trkpt>
      <trkpt lat="43.65322" lon="6.84401">
        <ele>650.6</ele>
        <time>2014-05-29T09:03:52.000Z</time>
      </trkpt>
      <trkpt lat="43.65325" lon="6.84399">
        <ele>651.3</ele>
        <time>2014-05-29T09:03:53.000Z</time>
      </trkpt>
      <trkpt lat="43.65329" lon="6.84397">
        <ele>651.6</ele>
        <time>2014-05-29T09:03:54.000Z</time>
      </trkpt>
      <trkpt lat="43.65333" lon="6.84394">
        <ele>652.1</ele>
        <time>2014-05-29T09:03:55.000Z</time>
      </trkpt>
      <trkpt lat="43.65337" lon="6.84392">
        <ele>652.6</ele>
        <time>2014-05-29T09:03:56.000Z</time>
      </trkpt>
      <trkpt lat="43.65341" lon="6.84389">
        <ele>652.9</ele>
        <time>2014-05-29T09:03:57.000Z</time>
      </trkpt>
      <trkpt lat="43.65344" lon="6.84387">
        <ele>652.7</ele>
        <time>2014-05-29T09:03:58.000Z</time>
      </trkpt>
      <trkpt lat="43.65348" lon="6.84384">
        <ele>652.9</ele>
        <time>2014-05-29T09:03:59.000Z</time>
      </trkpt>
      <trkpt lat="43.65353" lon="6.84381">
        <ele>652.9</ele>
        <time>2014-05-29T09:04:00.000Z</time>
      </trkpt>
      <trkpt lat="43.65358" lon="6.8438">
        <ele>653.1</ele>
        <time>2014-05-29T09:04:01.000Z</time>
      </trkpt>
      <trkpt lat="43.65363" lon="6.84377">
        <ele>653.4</ele>
        <time>2014-05-29T09:04:02.000Z</time>
      </trkpt>
      <trkpt lat="43.65368" lon="6.84374">
        <ele>652.4</ele>
        <time>2014-05-29T09:04:03.000Z</time>
      </trkpt>
      <trkpt lat="43.65374" lon="6.84371">
        <ele>652.2</ele>
        <time>2014-05-29T09:04:04.000Z</time>
      </trkpt>
      <trkpt lat="43.6538" lon="6.84368">
        <ele>651.6</ele>
        <time>2014-05-29T09:04:05.000Z</time>
      </trkpt>
      <trkpt lat="43.65386" lon="6.84364">
        <ele>651</ele>
        <time>2014-05-29T09:04:06.000Z</time>
      </trkpt>
      <trkpt lat="43.65393" lon="6.84361">
        <ele>650.7</ele>
        <time>2014-05-29T09:04:07.000Z</time>
      </trkpt>
      <trkpt lat="43.654" lon="6.84356">
        <ele>650.4</ele>
        <time>2014-05-29T09:04:08.000Z</time>
      </trkpt>
      <trkpt lat="43.65407" lon="6.84352">
        <ele>650.2</ele>
        <time>2014-05-29T09:04:09.000Z</time>
      </trkpt>
      <trkpt lat="43.65416" lon="6.84348">
        <ele>649</ele>
        <time>2014-05-29T09:04:09.999Z</time>
      </trkpt>
      <trkpt lat="43.65422" lon="6.84343">
        <ele>648.8</ele>
        <time>2014-05-29T09:04:11.000Z</time>
      </trkpt>
      <trkpt lat="43.65429" lon="6.84338">
        <ele>648.6</ele>
        <time>2014-05-29T09:04:12.000Z</time>
      </trkpt>
      <trkpt lat="43.65436" lon="6.84332">
        <ele>648.5</ele>
        <time>2014-05-29T09:04:13.000Z</time>
      </trkpt>
      <trkpt lat="43.65442" lon="6.84327">
        <ele>648.2</ele>
        <time>2014-05-29T09:04:14.000Z</time>
      </trkpt>
      <trkpt lat="43.65447" lon="6.84323">
        <ele>647.9</ele>
        <time>2014-05-29T09:04:15.000Z</time>
      </trkpt>
      <trkpt lat="43.65452" lon="6.84319">
        <ele>648.6</ele>
        <time>2014-05-29T09:04:16.000Z</time>
      </trkpt>
      <trkpt lat="43.65458" lon="6.84316">
        <ele>648.5</ele>
        <time>2014-05-29T09:04:16.999Z</time>
      </trkpt>
      <trkpt lat="43.65463" lon="6.84311">
        <ele>648</ele>
        <time>2014-05-29T09:04:18.000Z</time>
      </trkpt>
      <trkpt lat="43.65469" lon="6.84308">
        <ele>647.5</ele>
        <time>2014-05-29T09:04:19.000Z</time>
      </trkpt>
      <trkpt lat="43.65475" lon="6.84306">
        <ele>646.8</ele>
        <time>2014-05-29T09:04:20.000Z</time>
      </trkpt>
      <trkpt lat="43.65481" lon="6.84303">
        <ele>645.4</ele>
        <time>2014-05-29T09:04:21.000Z</time>
      </trkpt>
      <trkpt lat="43.65485" lon="6.84299">
        <ele>645.6</ele>
        <time>2014-05-29T09:04:22.000Z</time>
      </trkpt>
      <trkpt lat="43.65489" lon="6.84295">
        <ele>645.1</ele>
        <time>2014-05-29T09:04:23.000Z</time>
      </trkpt>
      <trkpt lat="43.65495" lon="6.84292">
        <ele>644.6</ele>
        <time>2014-05-29T09:04:24.000Z</time>
      </trkpt>
      <trkpt lat="43.655" lon="6.84289">
        <ele>644.1</ele>
        <time>2014-05-29T09:04:25.000Z</time>
      </trkpt>
      <trkpt lat="43.65504" lon="6.84284">
        <ele>644.1</ele>
        <time>2014-05-29T09:04:26.000Z</time>
      </trkpt>
      <trkpt lat="43.65509" lon="6.84282">
        <ele>644</ele>
        <time>2014-05-29T09:04:27.000Z</time>
      </trkpt>
      <trkpt lat="43.65513" lon="6.84278">
        <ele>644.6</ele>
        <time>2014-05-29T09:04:27.999Z</time>
      </trkpt>
      <trkpt lat="43.65517" lon="6.84276">
        <ele>646.3</ele>
        <time>2014-05-29T09:04:28.999Z</time>
      </trkpt>
      <trkpt lat="43.6552" lon="6.84275">
        <ele>645.7</ele>
        <time>2014-05-29T09:04:30.000Z</time>
      </trkpt>
      <trkpt lat="43.65523" lon="6.84272">
        <ele>645.8</ele>
        <time>2014-05-29T09:04:31.000Z</time>
      </trkpt>
      <trkpt lat="43.65526" lon="6.84271">
        <ele>646.2</ele>
        <time>2014-05-29T09:04:32.000Z</time>
      </trkpt>
      <trkpt lat="43.65529" lon="6.84271">
        <ele>646.1</ele>
        <time>2014-05-29T09:04:33.000Z</time>
      </trkpt>
      <trkpt lat="43.65533" lon="6.84268">
        <ele>645.5</ele>
        <time>2014-05-29T09:04:34.000Z</time>
      </trkpt>
      <trkpt lat="43.65536" lon="6.84267">
        <ele>645.7</ele>
        <time>2014-05-29T09:04:35.000Z</time>
      </trkpt>
      <trkpt lat="43.65539" lon="6.84265">
        <ele>646</ele>
        <time>2014-05-29T09:04:36.000Z</time>
      </trkpt>
      <trkpt lat="43.65542" lon="6.84264">
        <ele>646.4</ele>
        <time>2014-05-29T09:04:37.000Z</time>
      </trkpt>
      <trkpt lat="43.65544" lon="6.84263">
        <ele>646.4</ele>
        <time>2014-05-29T09:04:38.000Z</time>
      </trkpt>
      <trkpt lat="43.65547" lon="6.84263">
        <ele>645.6</ele>
        <time>2014-05-29T09:04:38.999Z</time>
      </trkpt>
      <trkpt lat="43.6555" lon="6.84261">
        <ele>644.7</ele>
        <time>2014-05-29T09:04:40.000Z</time>
      </trkpt>
      <trkpt lat="43.65553" lon="6.84259">
        <ele>644.4</ele>
        <time>2014-05-29T09:04:41.000Z</time>
      </trkpt>
      <trkpt lat="43.65556" lon="6.84257">
        <ele>644.2</ele>
        <time>2014-05-29T09:04:42.000Z</time>
      </trkpt>
      <trkpt lat="43.65558" lon="6.84255">
        <ele>644.6</ele>
        <time>2014-05-29T09:04:43.000Z</time>
      </trkpt>
      <trkpt lat="43.65561" lon="6.84252">
        <ele>644.5</ele>
        <time>2014-05-29T09:04:44.000Z</time>
      </trkpt>
      <trkpt lat="43.65564" lon="6.84251">
        <ele>643.9</ele>
        <time>2014-05-29T09:04:45.000Z</time>
      </trkpt>
      <trkpt lat="43.65566" lon="6.84249">
        <ele>643.8</ele>
        <time>2014-05-29T09:04:46.000Z</time>
      </trkpt>
      <trkpt lat="43.65569" lon="6.84247">
        <ele>643.6</ele>
        <time>2014-05-29T09:04:47.000Z</time>
      </trkpt>
      <trkpt lat="43.65572" lon="6.84245">
        <ele>643.6</ele>
        <time>2014-05-29T09:04:48.000Z</time>
      </trkpt>
      <trkpt lat="43.65575" lon="6.84243">
        <ele>643.4</ele>
        <time>2014-05-29T09:04:49.000Z</time>
      </trkpt>
      <trkpt lat="43.65578" lon="6.84241">
        <ele>643.8</ele>
        <time>2014-05-29T09:04:50.000Z</time>
      </trkpt>
      <trkpt lat="43.65581" lon="6.84239">
        <ele>643.9</ele>
        <time>2014-05-29T09:04:51.000Z</time>
      </trkpt>
      <trkpt lat="43.65584" lon="6.84237">
        <ele>643.9</ele>
        <time>2014-05-29T09:04:52.000Z</time>
      </trkpt>
      <trkpt lat="43.65587" lon="6.84236">
        <ele>644.3</ele>
        <time>2014-05-29T09:04:53.000Z</time>
      </trkpt>
      <trkpt lat="43.6559" lon="6.84233">
        <ele>644.6</ele>
        <time>2014-05-29T09:04:54.000Z</time>
      </trkpt>
      <trkpt lat="43.65593" lon="6.84231">
        <ele>644.1</ele>
        <time>2014-05-29T09:04:55.000Z</time>
      </trkpt>
      <trkpt lat="43.65596" lon="6.84229">
        <ele>644.4</ele>
        <time>2014-05-29T09:04:56.000Z</time>
      </trkpt>
      <trkpt lat="43.65598" lon="6.84227">
        <ele>644.1</ele>
        <time>2014-05-29T09:04:57.000Z</time>
      </trkpt>
      <trkpt lat="43.65601" lon="6.84225">
        <ele>644.2</ele>
        <time>2014-05-29T09:04:58.000Z</time>
      </trkpt>
      <trkpt lat="43.65604" lon="6.84223">
        <ele>644.3</ele>
        <time>2014-05-29T09:04:59.000Z</time>
      </trkpt>
      <trkpt lat="43.65606" lon="6.84221">
        <ele>644.2</ele>
        <time>2014-05-29T09:05:00.000Z</time>
      </trkpt>
      <trkpt lat="43.65609" lon="6.84219">
        <ele>644.3</ele>
        <time>2014-05-29T09:05:01.000Z</time>
      </trkpt>
      <trkpt lat="43.65612" lon="6.84218">
        <ele>644.3</ele>
        <time>2014-05-29T09:05:02.000Z</time>
      </trkpt>
      <trkpt lat="43.65615" lon="6.84217">
        <ele>644.5</ele>
        <time>2014-05-29T09:05:03.000Z</time>
      </trkpt>
      <trkpt lat="43.65618" lon="6.84215">
        <ele>645.3</ele>
        <time>2014-05-29T09:05:04.000Z</time>
      </trkpt>
      <trkpt lat="43.6562" lon="6.84212">
        <ele>645.5</ele>
        <time>2014-05-29T09:05:05.000Z</time>
      </trkpt>
      <trkpt lat="43.65623" lon="6.8421">
        <ele>645.7</ele>
        <time>2014-05-29T09:05:06.000Z</time>
      </trkpt>
      <trkpt lat="43.65626" lon="6.84209">
        <ele>645.6</ele>
        <time>2014-05-29T09:05:07.000Z</time>
      </trkpt>
      <trkpt lat="43.65629" lon="6.84207">
        <ele>645.4</ele>
        <time>2014-05-29T09:05:08.000Z</time>
      </trkpt>
      <trkpt lat="43.65632" lon="6.84205">
        <ele>646.1</ele>
        <time>2014-05-29T09:05:09.000Z</time>
      </trkpt>
      <trkpt lat="43.65634" lon="6.84203">
        <ele>646.6</ele>
        <time>2014-05-29T09:05:10.000Z</time>
      </trkpt>
      <trkpt lat="43.65637" lon="6.842">
        <ele>647.3</ele>
        <time>2014-05-29T09:05:11.000Z</time>
      </trkpt>
      <trkpt lat="43.65639" lon="6.84198">
        <ele>647.6</ele>
        <time>2014-05-29T09:05:12.000Z</time>
      </trkpt>
      <trkpt lat="43.65642" lon="6.84195">
        <ele>647.9</ele>
        <time>2014-05-29T09:05:13.000Z</time>
      </trkpt>
      <trkpt lat="43.65645" lon="6.84193">
        <ele>648.3</ele>
        <time>2014-05-29T09:05:14.000Z</time>
      </trkpt>
      <trkpt lat="43.65647" lon="6.8419">
        <ele>649.3</ele>
        <time>2014-05-29T09:05:15.000Z</time>
      </trkpt>
      <trkpt lat="43.6565" lon="6.84189">
        <ele>650.5</ele>
        <time>2014-05-29T09:05:16.000Z</time>
      </trkpt>
      <trkpt lat="43.65652" lon="6.84187">
        <ele>651.1</ele>
        <time>2014-05-29T09:05:17.000Z</time>
      </trkpt>
      <trkpt lat="43.65654" lon="6.84185">
        <ele>651.8</ele>
        <time>2014-05-29T09:05:18.000Z</time>
      </trkpt>
      <trkpt lat="43.65656" lon="6.84184">
        <ele>652.6</ele>
        <time>2014-05-29T09:05:19.000Z</time>
      </trkpt>
      <trkpt lat="43.65658" lon="6.84182">
        <ele>653.6</ele>
        <time>2014-05-29T09:05:20.000Z</time>
      </trkpt>
      <trkpt lat="43.6566" lon="6.84181">
        <ele>654.2</ele>
        <time>2014-05-29T09:05:21.000Z</time>
      </trkpt>
      <trkpt lat="43.65663" lon="6.8418">
        <ele>654.3</ele>
        <time>2014-05-29T09:05:22.000Z</time>
      </trkpt>
      <trkpt lat="43.65667" lon="6.84177">
        <ele>655.4</ele>
        <time>2014-05-29T09:05:23.999Z</time>
      </trkpt>
      <trkpt lat="43.65669" lon="6.84177">
        <ele>655.3</ele>
        <time>2014-05-29T09:05:25.000Z</time>
      </trkpt>
      <trkpt lat="43.65672" lon="6.84174">
        <ele>655.6</ele>
        <time>2014-05-29T09:05:27.000Z</time>
      </trkpt>
      <trkpt lat="43.65674" lon="6.84173">
        <ele>655.4</ele>
        <time>2014-05-29T09:05:28.000Z</time>
      </trkpt>
      <trkpt lat="43.65677" lon="6.8417">
        <ele>654.7</ele>
        <time>2014-05-29T09:05:31.000Z</time>
      </trkpt>
      <trkpt lat="43.65682" lon="6.84167">
        <ele>655.7</ele>
        <time>2014-05-29T09:05:35.000Z</time>
      </trkpt>
      <trkpt lat="43.65685" lon="6.84163">
        <ele>656.4</ele>
        <time>2014-05-29T09:05:38.000Z</time>
      </trkpt>
      <trkpt lat="43.65686" lon="6.84162">
        <ele>656.6</ele>
        <time>2014-05-29T09:05:38.996Z</time>
      </trkpt>
      <trkpt lat="43.65689" lon="6.84158">
        <ele>657</ele>
        <time>2014-05-29T09:05:43.000Z</time>
      </trkpt>
      <trkpt lat="43.65691" lon="6.84157">
        <ele>657.4</ele>
        <time>2014-05-29T09:05:43.997Z</time>
      </trkpt>
      <trkpt lat="43.65694" lon="6.84156">
        <ele>658.3</ele>
        <time>2014-05-29T09:05:46.000Z</time>
      </trkpt>
      <trkpt lat="43.65696" lon="6.84156">
        <ele>658.4</ele>
        <time>2014-05-29T09:05:47.000Z</time>
      </trkpt>
      <trkpt lat="43.65699" lon="6.84152">
        <ele>660.2</ele>
        <time>2014-05-29T09:05:49.000Z</time>
      </trkpt>
      <trkpt lat="43.657" lon="6.84152">
        <ele>660.8</ele>
        <time>2014-05-29T09:05:50.000Z</time>
      </trkpt>
      <trkpt lat="43.65702" lon="6.84149">
        <ele>663.3</ele>
        <time>2014-05-29T09:05:51.998Z</time>
      </trkpt>
      <trkpt lat="43.65703" lon="6.84148">
        <ele>663.3</ele>
        <time>2014-05-29T09:05:53.000Z</time>
      </trkpt>
      <trkpt lat="43.65707" lon="6.84144">
        <ele>664.3</ele>
        <time>2014-05-29T09:05:56.998Z</time>
      </trkpt>
      <trkpt lat="43.65708" lon="6.84143">
        <ele>664.4</ele>
        <time>2014-05-29T09:05:58.000Z</time>
      </trkpt>
      <trkpt lat="43.65711" lon="6.84142">
        <ele>663.5</ele>
        <time>2014-05-29T09:06:00.000Z</time>
      </trkpt>
      <trkpt lat="43.65713" lon="6.8414">
        <ele>663.5</ele>
        <time>2014-05-29T09:06:01.000Z</time>
      </trkpt>
      <trkpt lat="43.65716" lon="6.84138">
        <ele>662.8</ele>
        <time>2014-05-29T09:06:04.999Z</time>
      </trkpt>
      <trkpt lat="43.65718" lon="6.84138">
        <ele>662</ele>
        <time>2014-05-29T09:06:06.000Z</time>
      </trkpt>
      <trkpt lat="43.65722" lon="6.84135">
        <ele>662</ele>
        <time>2014-05-29T09:06:09.999Z</time>
      </trkpt>
      <trkpt lat="43.65723" lon="6.84134">
        <ele>661.5</ele>
        <time>2014-05-29T09:06:11.000Z</time>
      </trkpt>
      <trkpt lat="43.65725" lon="6.84132">
        <ele>661.1</ele>
        <time>2014-05-29T09:06:13.000Z</time>
      </trkpt>
      <trkpt lat="43.65728" lon="6.84131">
        <ele>659.2</ele>
        <time>2014-05-29T09:06:13.999Z</time>
      </trkpt>
      <trkpt lat="43.6573" lon="6.84129">
        <ele>660.5</ele>
        <time>2014-05-29T09:06:17.000Z</time>
      </trkpt>
      <trkpt lat="43.65732" lon="6.84127">
        <ele>660.3</ele>
        <time>2014-05-29T09:06:18.000Z</time>
      </trkpt>
      <trkpt lat="43.65735" lon="6.84125">
        <ele>658.2</ele>
        <time>2014-05-29T09:06:20.000Z</time>
      </trkpt>
      <trkpt lat="43.65736" lon="6.84124">
        <ele>658.2</ele>
        <time>2014-05-29T09:06:21.000Z</time>
      </trkpt>
      <trkpt lat="43.65739" lon="6.8412">
        <ele>657.7</ele>
        <time>2014-05-29T09:06:23.000Z</time>
      </trkpt>
      <trkpt lat="43.6574" lon="6.84118">
        <ele>657.5</ele>
        <time>2014-05-29T09:06:24.000Z</time>
      </trkpt>
      <trkpt lat="43.65742" lon="6.84116">
        <ele>657.5</ele>
        <time>2014-05-29T09:06:26.000Z</time>
      </trkpt>
      <trkpt lat="43.65744" lon="6.84115">
        <ele>657.2</ele>
        <time>2014-05-29T09:06:27.000Z</time>
      </trkpt>
      <trkpt lat="43.65746" lon="6.84114">
        <ele>656.3</ele>
        <time>2014-05-29T09:06:27.999Z</time>
      </trkpt>
      <trkpt lat="43.65748" lon="6.84111">
        <ele>656</ele>
        <time>2014-05-29T09:06:29.000Z</time>
      </trkpt>
      <trkpt lat="43.6575" lon="6.8411">
        <ele>655.7</ele>
        <time>2014-05-29T09:06:29.998Z</time>
      </trkpt>
      <trkpt lat="43.65754" lon="6.84106">
        <ele>655.5</ele>
        <time>2014-05-29T09:06:31.991Z</time>
      </trkpt>
      <trkpt lat="43.65757" lon="6.84104">
        <ele>655</ele>
        <time>2014-05-29T09:06:33.000Z</time>
      </trkpt>
      <trkpt lat="43.65759" lon="6.84103">
        <ele>655.8</ele>
        <time>2014-05-29T09:06:34.000Z</time>
      </trkpt>
      <trkpt lat="43.6576" lon="6.84101">
        <ele>654.8</ele>
        <time>2014-05-29T09:06:35.000Z</time>
      </trkpt>
      <trkpt lat="43.65762" lon="6.84099">
        <ele>654</ele>
        <time>2014-05-29T09:06:36.000Z</time>
      </trkpt>
      <trkpt lat="43.65765" lon="6.84097">
        <ele>654.4</ele>
        <time>2014-05-29T09:06:37.000Z</time>
      </trkpt>
      <trkpt lat="43.65767" lon="6.84096">
        <ele>654.8</ele>
        <time>2014-05-29T09:06:38.000Z</time>
      </trkpt>
      <trkpt lat="43.65769" lon="6.84094">
        <ele>654.8</ele>
        <time>2014-05-29T09:06:39.000Z</time>
      </trkpt>
      <trkpt lat="43.65771" lon="6.84093">
        <ele>654</ele>
        <time>2014-05-29T09:06:39.999Z</time>
      </trkpt>
      <trkpt lat="43.65774" lon="6.84092">
        <ele>655.3</ele>
        <time>2014-05-29T09:06:41.000Z</time>
      </trkpt>
      <trkpt lat="43.65776" lon="6.8409">
        <ele>655.3</ele>
        <time>2014-05-29T09:06:42.000Z</time>
      </trkpt>
      <trkpt lat="43.65778" lon="6.84088">
        <ele>655.3</ele>
        <time>2014-05-29T09:06:43.000Z</time>
      </trkpt>
      <trkpt lat="43.65781" lon="6.84086">
        <ele>655.2</ele>
        <time>2014-05-29T09:06:44.000Z</time>
      </trkpt>
      <trkpt lat="43.65783" lon="6.84084">
        <ele>655.2</ele>
        <time>2014-05-29T09:06:45.000Z</time>
      </trkpt>
      <trkpt lat="43.65785" lon="6.84083">
        <ele>655.1</ele>
        <time>2014-05-29T09:06:46.000Z</time>
      </trkpt>
      <trkpt lat="43.65787" lon="6.84081">
        <ele>655</ele>
        <time>2014-05-29T09:06:46.998Z</time>
      </trkpt>
      <trkpt lat="43.6579" lon="6.84079">
        <ele>655.9</ele>
        <time>2014-05-29T09:06:48.000Z</time>
      </trkpt>
      <trkpt lat="43.65792" lon="6.84078">
        <ele>655.5</ele>
        <time>2014-05-29T09:06:49.000Z</time>
      </trkpt>
      <trkpt lat="43.65794" lon="6.84077">
        <ele>654.9</ele>
        <time>2014-05-29T09:06:50.000Z</time>
      </trkpt>
      <trkpt lat="43.65797" lon="6.84075">
        <ele>654.2</ele>
        <time>2014-05-29T09:06:51.000Z</time>
      </trkpt>
      <trkpt lat="43.658" lon="6.84074">
        <ele>654.7</ele>
        <time>2014-05-29T09:06:52.000Z</time>
      </trkpt>
      <trkpt lat="43.65803" lon="6.84072">
        <ele>653.9</ele>
        <time>2014-05-29T09:06:53.000Z</time>
      </trkpt>
      <trkpt lat="43.65806" lon="6.84069">
        <ele>653.8</ele>
        <time>2014-05-29T09:06:54.000Z</time>
      </trkpt>
      <trkpt lat="43.65809" lon="6.84069">
        <ele>652.7</ele>
        <time>2014-05-29T09:06:55.000Z</time>
      </trkpt>
      <trkpt lat="43.65812" lon="6.84068">
        <ele>652.7</ele>
        <time>2014-05-29T09:06:55.997Z</time>
      </trkpt>
      <trkpt lat="43.65814" lon="6.84066">
        <ele>652.3</ele>
        <time>2014-05-29T09:06:57.000Z</time>
      </trkpt>
      <trkpt lat="43.65816" lon="6.84065">
        <ele>654.3</ele>
        <time>2014-05-29T09:06:58.000Z</time>
      </trkpt>
      <trkpt lat="43.6582" lon="6.84064">
        <ele>655.7</ele>
        <time>2014-05-29T09:06:59.998Z</time>
      </trkpt>
      <trkpt lat="43.65822" lon="6.84062">
        <ele>656.1</ele>
        <time>2014-05-29T09:07:01.000Z</time>
      </trkpt>
      <trkpt lat="43.65825" lon="6.84059">
        <ele>658.1</ele>
        <time>2014-05-29T09:07:03.000Z</time>
      </trkpt>
      <trkpt lat="43.65826" lon="6.84057">
        <ele>657.9</ele>
        <time>2014-05-29T09:07:04.000Z</time>
      </trkpt>
      <trkpt lat="43.65829" lon="6.84058">
        <ele>656.9</ele>
        <time>2014-05-29T09:07:04.999Z</time>
      </trkpt>
      <trkpt lat="43.65831" lon="6.84057">
        <ele>656.1</ele>
        <time>2014-05-29T09:07:06.000Z</time>
      </trkpt>
      <trkpt lat="43.65834" lon="6.84055">
        <ele>656.3</ele>
        <time>2014-05-29T09:07:07.000Z</time>
      </trkpt>
      <trkpt lat="43.65836" lon="6.84053">
        <ele>656</ele>
        <time>2014-05-29T09:07:08.000Z</time>
      </trkpt>
      <trkpt lat="43.65838" lon="6.84052">
        <ele>656.6</ele>
        <time>2014-05-29T09:07:08.999Z</time>
      </trkpt>
      <trkpt lat="43.65841" lon="6.8405">
        <ele>656.2</ele>
        <time>2014-05-29T09:07:10.000Z</time>
      </trkpt>
      <trkpt lat="43.65843" lon="6.84047">
        <ele>655.7</ele>
        <time>2014-05-29T09:07:11.000Z</time>
      </trkpt>
      <trkpt lat="43.65845" lon="6.84044">
        <ele>653.5</ele>
        <time>2014-05-29T09:07:11.999Z</time>
      </trkpt>
      <trkpt lat="43.65846" lon="6.84041">
        <ele>654.6</ele>
        <time>2014-05-29T09:07:13.000Z</time>
      </trkpt>
      <trkpt lat="43.65849" lon="6.84039">
        <ele>654.9</ele>
        <time>2014-05-29T09:07:14.000Z</time>
      </trkpt>
      <trkpt lat="43.65851" lon="6.84036">
        <ele>655.4</ele>
        <time>2014-05-29T09:07:15.000Z</time>
      </trkpt>
      <trkpt lat="43.65853" lon="6.84034">
        <ele>655.6</ele>
        <time>2014-05-29T09:07:16.000Z</time>
      </trkpt>
      <trkpt lat="43.65855" lon="6.84032">
        <ele>655.6</ele>
        <time>2014-05-29T09:07:17.000Z</time>
      </trkpt>
      <trkpt lat="43.65858" lon="6.8403">
        <ele>656.3</ele>
        <time>2014-05-29T09:07:18.000Z</time>
      </trkpt>
      <trkpt lat="43.6586" lon="6.84028">
        <ele>658.3</ele>
        <time>2014-05-29T09:07:19.000Z</time>
      </trkpt>
      <trkpt lat="43.65862" lon="6.84024">
        <ele>658.4</ele>
        <time>2014-05-29T09:07:20.000Z</time>
      </trkpt>
      <trkpt lat="43.65866" lon="6.8402">
        <ele>657.9</ele>
        <time>2014-05-29T09:07:20.998Z</time>
      </trkpt>
      <trkpt lat="43.65869" lon="6.84016">
        <ele>658.2</ele>
        <time>2014-05-29T09:07:22.000Z</time>
      </trkpt>
      <trkpt lat="43.65871" lon="6.84014">
        <ele>658</ele>
        <time>2014-05-29T09:07:23.000Z</time>
      </trkpt>
      <trkpt lat="43.65874" lon="6.84011">
        <ele>656.6</ele>
        <time>2014-05-29T09:07:24.000Z</time>
      </trkpt>
      <trkpt lat="43.65876" lon="6.84008">
        <ele>657.2</ele>
        <time>2014-05-29T09:07:25.000Z</time>
      </trkpt>
      <trkpt lat="43.65878" lon="6.84006">
        <ele>656.8</ele>
        <time>2014-05-29T09:07:26.000Z</time>
      </trkpt>
      <trkpt lat="43.65881" lon="6.84003">
        <ele>656.1</ele>
        <time>2014-05-29T09:07:27.000Z</time>
      </trkpt>
      <trkpt lat="43.65884" lon="6.84001">
        <ele>657.2</ele>
        <time>2014-05-29T09:07:27.999Z</time>
      </trkpt>
      <trkpt lat="43.65886" lon="6.83999">
        <ele>656.8</ele>
        <time>2014-05-29T09:07:29.000Z</time>
      </trkpt>
      <trkpt lat="43.65889" lon="6.83997">
        <ele>656.3</ele>
        <time>2014-05-29T09:07:30.000Z</time>
      </trkpt>
      <trkpt lat="43.65891" lon="6.83995">
        <ele>657.2</ele>
        <time>2014-05-29T09:07:31.000Z</time>
      </trkpt>
      <trkpt lat="43.65893" lon="6.83993">
        <ele>656.2</ele>
        <time>2014-05-29T09:07:32.000Z</time>
      </trkpt>
      <trkpt lat="43.65896" lon="6.8399">
        <ele>655.9</ele>
        <time>2014-05-29T09:07:33.000Z</time>
      </trkpt>
      <trkpt lat="43.65898" lon="6.83988">
        <ele>657.2</ele>
        <time>2014-05-29T09:07:34.000Z</time>
      </trkpt>
      <trkpt lat="43.65899" lon="6.83986">
        <ele>658.7</ele>
        <time>2014-05-29T09:07:35.000Z</time>
      </trkpt>
      <trkpt lat="43.65901" lon="6.83984">
        <ele>658.9</ele>
        <time>2014-05-29T09:07:36.000Z</time>
      </trkpt>
      <trkpt lat="43.65904" lon="6.83982">
        <ele>658.7</ele>
        <time>2014-05-29T09:07:37.000Z</time>
      </trkpt>
      <trkpt lat="43.65906" lon="6.83979">
        <ele>658.6</ele>
        <time>2014-05-29T09:07:38.000Z</time>
      </trkpt>
      <trkpt lat="43.65908" lon="6.83976">
        <ele>658.5</ele>
        <time>2014-05-29T09:07:39.000Z</time>
      </trkpt>
      <trkpt lat="43.6591" lon="6.83974">
        <ele>658.5</ele>
        <time>2014-05-29T09:07:40.000Z</time>
      </trkpt>
      <trkpt lat="43.65913" lon="6.83971">
        <ele>658.5</ele>
        <time>2014-05-29T09:07:41.000Z</time>
      </trkpt>
      <trkpt lat="43.65915" lon="6.83969">
        <ele>658.6</ele>
        <time>2014-05-29T09:07:42.000Z</time>
      </trkpt>
      <trkpt lat="43.65917" lon="6.83966">
        <ele>659.6</ele>
        <time>2014-05-29T09:07:43.000Z</time>
      </trkpt>
      <trkpt lat="43.65919" lon="6.83964">
        <ele>659.4</ele>
        <time>2014-05-29T09:07:44.000Z</time>
      </trkpt>
      <trkpt lat="43.65921" lon="6.83961">
        <ele>659</ele>
        <time>2014-05-29T09:07:45.000Z</time>
      </trkpt>
      <trkpt lat="43.65923" lon="6.83959">
        <ele>659.2</ele>
        <time>2014-05-29T09:07:46.000Z</time>
      </trkpt>
      <trkpt lat="43.65927" lon="6.83955">
        <ele>659.9</ele>
        <time>2014-05-29T09:07:48.000Z</time>
      </trkpt>
      <trkpt lat="43.65929" lon="6.83954">
        <ele>660</ele>
        <time>2014-05-29T09:07:49.000Z</time>
      </trkpt>
      <trkpt lat="43.65932" lon="6.8395">
        <ele>660.1</ele>
        <time>2014-05-29T09:07:50.000Z</time>
      </trkpt>
      <trkpt lat="43.65934" lon="6.83948">
        <ele>660.2</ele>
        <time>2014-05-29T09:07:51.000Z</time>
      </trkpt>
      <trkpt lat="43.65936" lon="6.83946">
        <ele>660</ele>
        <time>2014-05-29T09:07:52.000Z</time>
      </trkpt>
      <trkpt lat="43.65938" lon="6.83944">
        <ele>659.8</ele>
        <time>2014-05-29T09:07:53.000Z</time>
      </trkpt>
      <trkpt lat="43.65941" lon="6.83938">
        <ele>660.4</ele>
        <time>2014-05-29T09:07:53.999Z</time>
      </trkpt>
      <trkpt lat="43.65944" lon="6.83937">
        <ele>660.5</ele>
        <time>2014-05-29T09:07:55.000Z</time>
      </trkpt>
      <trkpt lat="43.65946" lon="6.83936">
        <ele>661.1</ele>
        <time>2014-05-29T09:07:55.998Z</time>
      </trkpt>
      <trkpt lat="43.65948" lon="6.83933">
        <ele>660.7</ele>
        <time>2014-05-29T09:07:57.000Z</time>
      </trkpt>
      <trkpt lat="43.6595" lon="6.83932">
        <ele>660.9</ele>
        <time>2014-05-29T09:07:58.000Z</time>
      </trkpt>
      <trkpt lat="43.65953" lon="6.83928">
        <ele>661.6</ele>
        <time>2014-05-29T09:08:00.000Z</time>
      </trkpt>
      <trkpt lat="43.65954" lon="6.83926">
        <ele>664.4</ele>
        <time>2014-05-29T09:08:01.000Z</time>
      </trkpt>
      <trkpt lat="43.65957" lon="6.83924">
        <ele>667.1</ele>
        <time>2014-05-29T09:08:03.000Z</time>
      </trkpt>
      <trkpt lat="43.6596" lon="6.83921">
        <ele>666.4</ele>
        <time>2014-05-29T09:08:04.000Z</time>
      </trkpt>
      <trkpt lat="43.65963" lon="6.83918">
        <ele>668.1</ele>
        <time>2014-05-29T09:08:06.000Z</time>
      </trkpt>
      <trkpt lat="43.65965" lon="6.83915">
        <ele>668.9</ele>
        <time>2014-05-29T09:08:06.998Z</time>
      </trkpt>
      <trkpt lat="43.65967" lon="6.83914">
        <ele>670.4</ele>
        <time>2014-05-29T09:08:08.000Z</time>
      </trkpt>
      <trkpt lat="43.65969" lon="6.83911">
        <ele>675.1</ele>
        <time>2014-05-29T09:08:09.000Z</time>
      </trkpt>
      <trkpt lat="43.65972" lon="6.83908">
        <ele>674.3</ele>
        <time>2014-05-29T09:08:10.000Z</time>
      </trkpt>
      <trkpt lat="43.65974" lon="6.83906">
        <ele>674.8</ele>
        <time>2014-05-29T09:08:11.000Z</time>
      </trkpt>
      <trkpt lat="43.65976" lon="6.83905">
        <ele>673.9</ele>
        <time>2014-05-29T09:08:12.000Z</time>
      </trkpt>
      <trkpt lat="43.65979" lon="6.83904">
        <ele>674.1</ele>
        <time>2014-05-29T09:08:13.000Z</time>
      </trkpt>
      <trkpt lat="43.65981" lon="6.83903">
        <ele>674.2</ele>
        <time>2014-05-29T09:08:14.000Z</time>
      </trkpt>
      <trkpt lat="43.65983" lon="6.839">
        <ele>674.4</ele>
        <time>2014-05-29T09:08:15.000Z</time>
      </trkpt>
      <trkpt lat="43.65986" lon="6.83899">
        <ele>674.1</ele>
        <time>2014-05-29T09:08:16.000Z</time>
      </trkpt>
      <trkpt lat="43.65989" lon="6.83898">
        <ele>674.3</ele>
        <time>2014-05-29T09:08:16.998Z</time>
      </trkpt>
      <trkpt lat="43.65991" lon="6.83895">
        <ele>673.6</ele>
        <time>2014-05-29T09:08:18.000Z</time>
      </trkpt>
      <trkpt lat="43.65993" lon="6.83896">
        <ele>675.9</ele>
        <time>2014-05-29T09:08:19.000Z</time>
      </trkpt>
      <trkpt lat="43.65996" lon="6.83896">
        <ele>675.9</ele>
        <time>2014-05-29T09:08:20.000Z</time>
      </trkpt>
      <trkpt lat="43.65998" lon="6.83896">
        <ele>677.8</ele>
        <time>2014-05-29T09:08:21.000Z</time>
      </trkpt>
      <trkpt lat="43.66001" lon="6.83895">
        <ele>680.1</ele>
        <time>2014-05-29T09:08:22.000Z</time>
      </trkpt>
      <trkpt lat="43.66004" lon="6.83895">
        <ele>681</ele>
        <time>2014-05-29T09:08:23.000Z</time>
      </trkpt>
      <trkpt lat="43.66007" lon="6.83894">
        <ele>681.1</ele>
        <time>2014-05-29T09:08:24.000Z</time>
      </trkpt>
      <trkpt lat="43.6601" lon="6.83893">
        <ele>680.9</ele>
        <time>2014-05-29T09:08:24.999Z</time>
      </trkpt>
      <trkpt lat="43.66013" lon="6.83894">
        <ele>680.7</ele>
        <time>2014-05-29T09:08:26.000Z</time>
      </trkpt>
      <trkpt lat="43.66016" lon="6.83895">
        <ele>679.8</ele>
        <time>2014-05-29T09:08:27.000Z</time>
      </trkpt>
      <trkpt lat="43.66019" lon="6.83895">
        <ele>679</ele>
        <time>2014-05-29T09:08:28.000Z</time>
      </trkpt>
      <trkpt lat="43.66022" lon="6.83895">
        <ele>678.7</ele>
        <time>2014-05-29T09:08:28.999Z</time>
      </trkpt>
      <trkpt lat="43.66026" lon="6.83895">
        <ele>678.4</ele>
        <time>2014-05-29T09:08:29.999Z</time>
      </trkpt>
      <trkpt lat="43.66031" lon="6.83895">
        <ele>678.9</ele>
        <time>2014-05-29T09:08:31.523Z</time>
      </trkpt>
      <trkpt lat="43.66033" lon="6.83895">
        <ele>679</ele>
        <time>2014-05-29T09:08:32.000Z</time>
      </trkpt>
      <trkpt lat="43.66036" lon="6.83896">
        <ele>678.3</ele>
        <time>2014-05-29T09:08:33.000Z</time>
      </trkpt>
      <trkpt lat="43.66041" lon="6.83896">
        <ele>678</ele>
        <time>2014-05-29T09:08:34.000Z</time>
      </trkpt>
      <trkpt lat="43.66043" lon="6.83902">
        <ele>677.3</ele>
        <time>2014-05-29T09:08:35.000Z</time>
      </trkpt>
      <trkpt lat="43.66047" lon="6.83903">
        <ele>676.6</ele>
        <time>2014-05-29T09:08:36.000Z</time>
      </trkpt>
      <trkpt lat="43.6605" lon="6.83906">
        <ele>676.3</ele>
        <time>2014-05-29T09:08:36.999Z</time>
      </trkpt>
      <trkpt lat="43.66053" lon="6.83908">
        <ele>675.8</ele>
        <time>2014-05-29T09:08:37.999Z</time>
      </trkpt>
      <trkpt lat="43.66056" lon="6.8391">
        <ele>674.3</ele>
        <time>2014-05-29T09:08:39.000Z</time>
      </trkpt>
      <trkpt lat="43.66059" lon="6.83913">
        <ele>674</ele>
        <time>2014-05-29T09:08:39.998Z</time>
      </trkpt>
      <trkpt lat="43.66061" lon="6.83917">
        <ele>673.2</ele>
        <time>2014-05-29T09:08:41.000Z</time>
      </trkpt>
      <trkpt lat="43.66065" lon="6.83923">
        <ele>673.9</ele>
        <time>2014-05-29T09:08:42.000Z</time>
      </trkpt>
      <trkpt lat="43.66067" lon="6.83927">
        <ele>673.7</ele>
        <time>2014-05-29T09:08:42.998Z</time>
      </trkpt>
      <trkpt lat="43.66069" lon="6.8393">
        <ele>673.3</ele>
        <time>2014-05-29T09:08:44.000Z</time>
      </trkpt>
      <trkpt lat="43.66072" lon="6.83936">
        <ele>673.3</ele>
        <time>2014-05-29T09:08:45.000Z</time>
      </trkpt>
      <trkpt lat="43.66074" lon="6.8394">
        <ele>673.3</ele>
        <time>2014-05-29T09:08:46.000Z</time>
      </trkpt>
      <trkpt lat="43.66077" lon="6.83947">
        <ele>671.3</ele>
        <time>2014-05-29T09:08:47.000Z</time>
      </trkpt>
      <trkpt lat="43.66079" lon="6.83953">
        <ele>670.5</ele>
        <time>2014-05-29T09:08:48.000Z</time>
      </trkpt>
      <trkpt lat="43.66081" lon="6.83958">
        <ele>670.5</ele>
        <time>2014-05-29T09:08:49.000Z</time>
      </trkpt>
      <trkpt lat="43.66084" lon="6.83963">
        <ele>670.4</ele>
        <time>2014-05-29T09:08:50.000Z</time>
      </trkpt>
      <trkpt lat="43.66086" lon="6.83968">
        <ele>669.4</ele>
        <time>2014-05-29T09:08:51.000Z</time>
      </trkpt>
      <trkpt lat="43.66089" lon="6.83972">
        <ele>669.3</ele>
        <time>2014-05-29T09:08:52.000Z</time>
      </trkpt>
      <trkpt lat="43.66091" lon="6.83975">
        <ele>669.4</ele>
        <time>2014-05-29T09:08:53.000Z</time>
      </trkpt>
      <trkpt lat="43.66093" lon="6.83979">
        <ele>669.8</ele>
        <time>2014-05-29T09:08:54.000Z</time>
      </trkpt>
      <trkpt lat="43.66094" lon="6.83982">
        <ele>668.7</ele>
        <time>2014-05-29T09:08:55.000Z</time>
      </trkpt>
      <trkpt lat="43.66095" lon="6.83985">
        <ele>668.8</ele>
        <time>2014-05-29T09:08:55.999Z</time>
      </trkpt>
      <trkpt lat="43.66097" lon="6.8398">
        <ele>666.2</ele>
        <time>2014-05-29T09:09:04.999Z</time>
      </trkpt>
      <trkpt lat="43.66098" lon="6.8398">
        <ele>665.4</ele>
        <time>2014-05-29T09:09:06.000Z</time>
      </trkpt>
      <trkpt lat="43.66095" lon="6.83977">
        <ele>667.7</ele>
        <time>2014-05-29T09:09:08.000Z</time>
      </trkpt>
      <trkpt lat="43.66095" lon="6.83972">
        <ele>666.1</ele>
        <time>2014-05-29T09:09:09.000Z</time>
      </trkpt>
      <trkpt lat="43.66093" lon="6.83967">
        <ele>663</ele>
        <time>2014-05-29T09:09:11.000Z</time>
      </trkpt>
      <trkpt lat="43.66093" lon="6.83962">
        <ele>664.2</ele>
        <time>2014-05-29T09:09:12.000Z</time>
      </trkpt>
      <trkpt lat="43.66092" lon="6.83957">
        <ele>661.1</ele>
        <time>2014-05-29T09:09:14.000Z</time>
      </trkpt>
      <trkpt lat="43.66091" lon="6.83955">
        <ele>659.4</ele>
        <time>2014-05-29T09:09:15.000Z</time>
      </trkpt>
      <trkpt lat="43.6609" lon="6.8395">
        <ele>656.7</ele>
        <time>2014-05-29T09:09:17.000Z</time>
      </trkpt>
      <trkpt lat="43.66091" lon="6.83947">
        <ele>656.5</ele>
        <time>2014-05-29T09:09:18.000Z</time>
      </trkpt>
      <trkpt lat="43.66092" lon="6.83942">
        <ele>658</ele>
        <time>2014-05-29T09:09:20.000Z</time>
      </trkpt>
      <trkpt lat="43.66094" lon="6.83938">
        <ele>658.3</ele>
        <time>2014-05-29T09:09:21.000Z</time>
      </trkpt>
      <trkpt lat="43.66096" lon="6.83934">
        <ele>656</ele>
        <time>2014-05-29T09:09:21.998Z</time>
      </trkpt>
      <trkpt lat="43.66098" lon="6.8393">
        <ele>654.4</ele>
        <time>2014-05-29T09:09:23.000Z</time>
      </trkpt>
      <trkpt lat="43.66099" lon="6.83927">
        <ele>653.4</ele>
        <time>2014-05-29T09:09:24.000Z</time>
      </trkpt>
      <trkpt lat="43.66101" lon="6.83922">
        <ele>652.7</ele>
        <time>2014-05-29T09:09:25.000Z</time>
      </trkpt>
      <trkpt lat="43.66102" lon="6.83918">
        <ele>652.2</ele>
        <time>2014-05-29T09:09:26.000Z</time>
      </trkpt>
      <trkpt lat="43.66102" lon="6.83915">
        <ele>652.2</ele>
        <time>2014-05-29T09:09:27.000Z</time>
      </trkpt>
      <trkpt lat="43.66099" lon="6.83912">
        <ele>651.1</ele>
        <time>2014-05-29T09:09:28.000Z</time>
      </trkpt>
      <trkpt lat="43.66098" lon="6.83908">
        <ele>651.6</ele>
        <time>2014-05-29T09:09:29.000Z</time>
      </trkpt>
      <trkpt lat="43.66098" lon="6.83904">
        <ele>651.5</ele>
        <time>2014-05-29T09:09:30.000Z</time>
      </trkpt>
      <trkpt lat="43.66099" lon="6.83899">
        <ele>650.8</ele>
        <time>2014-05-29T09:09:31.563Z</time>
      </trkpt>
      <trkpt lat="43.66099" lon="6.83897">
        <ele>650.8</ele>
        <time>2014-05-29T09:09:32.000Z</time>
      </trkpt>
      <trkpt lat="43.661" lon="6.8389">
        <ele>649.6</ele>
        <time>2014-05-29T09:09:34.000Z</time>
      </trkpt>
      <trkpt lat="43.66101" lon="6.83885">
        <ele>649.3</ele>
        <time>2014-05-29T09:09:35.000Z</time>
      </trkpt>
      <trkpt lat="43.66102" lon="6.8388">
        <ele>648.7</ele>
        <time>2014-05-29T09:09:36.000Z</time>
      </trkpt>
      <trkpt lat="43.66102" lon="6.83876">
        <ele>648.2</ele>
        <time>2014-05-29T09:09:37.000Z</time>
      </trkpt>
      <trkpt lat="43.66102" lon="6.83873">
        <ele>650.4</ele>
        <time>2014-05-29T09:09:38.000Z</time>
      </trkpt>
      <trkpt lat="43.66101" lon="6.83869">
        <ele>651.1</ele>
        <time>2014-05-29T09:09:38.998Z</time>
      </trkpt>
      <trkpt lat="43.66101" lon="6.83867">
        <ele>651.8</ele>
        <time>2014-05-29T09:09:40.000Z</time>
      </trkpt>
      <trkpt lat="43.66101" lon="6.83864">
        <ele>651.8</ele>
        <time>2014-05-29T09:09:41.000Z</time>
      </trkpt>
      <trkpt lat="43.66102" lon="6.83859">
        <ele>651.7</ele>
        <time>2014-05-29T09:09:42.000Z</time>
      </trkpt>
      <trkpt lat="43.66103" lon="6.83852">
        <ele>651.8</ele>
        <time>2014-05-29T09:09:43.000Z</time>
      </trkpt>
      <trkpt lat="43.66104" lon="6.83848">
        <ele>652.3</ele>
        <time>2014-05-29T09:09:44.000Z</time>
      </trkpt>
      <trkpt lat="43.66104" lon="6.83843">
        <ele>652.5</ele>
        <time>2014-05-29T09:09:45.000Z</time>
      </trkpt>
      <trkpt lat="43.66105" lon="6.83839">
        <ele>651.6</ele>
        <time>2014-05-29T09:09:46.000Z</time>
      </trkpt>
      <trkpt lat="43.66105" lon="6.83834">
        <ele>651.5</ele>
        <time>2014-05-29T09:09:47.000Z</time>
      </trkpt>
      <trkpt lat="43.66104" lon="6.83831">
        <ele>654.8</ele>
        <time>2014-05-29T09:09:48.000Z</time>
      </trkpt>
      <trkpt lat="43.66102" lon="6.83828">
        <ele>656.5</ele>
        <time>2014-05-29T09:09:49.000Z</time>
      </trkpt>
      <trkpt lat="43.66102" lon="6.83825">
        <ele>658.5</ele>
        <time>2014-05-29T09:09:49.999Z</time>
      </trkpt>
      <trkpt lat="43.66102" lon="6.83821">
        <ele>657.5</ele>
        <time>2014-05-29T09:09:51.000Z</time>
      </trkpt>
      <trkpt lat="43.66104" lon="6.83816">
        <ele>651.1</ele>
        <time>2014-05-29T09:09:52.000Z</time>
      </trkpt>
      <trkpt lat="43.66104" lon="6.83811">
        <ele>650.6</ele>
        <time>2014-05-29T09:09:53.000Z</time>
      </trkpt>
      <trkpt lat="43.66104" lon="6.83806">
        <ele>650.4</ele>
        <time>2014-05-29T09:09:54.998Z</time>
      </trkpt>
      <trkpt lat="43.66104" lon="6.83802">
        <ele>649.8</ele>
        <time>2014-05-29T09:09:56.000Z</time>
      </trkpt>
      <trkpt lat="43.66105" lon="6.83795">
        <ele>645.4</ele>
        <time>2014-05-29T09:09:56.998Z</time>
      </trkpt>
      <trkpt lat="43.66105" lon="6.83791">
        <ele>644.2</ele>
        <time>2014-05-29T09:09:58.000Z</time>
      </trkpt>
      <trkpt lat="43.66105" lon="6.83789">
        <ele>642.7</ele>
        <time>2014-05-29T09:09:59.000Z</time>
      </trkpt>
      <trkpt lat="43.66106" lon="6.83786">
        <ele>641.9</ele>
        <time>2014-05-29T09:10:00.000Z</time>
      </trkpt>
      <trkpt lat="43.66107" lon="6.83781">
        <ele>641.5</ele>
        <time>2014-05-29T09:10:01.000Z</time>
      </trkpt>
      <trkpt lat="43.66108" lon="6.83776">
        <ele>641.6</ele>
        <time>2014-05-29T09:10:02.000Z</time>
      </trkpt>
      <trkpt lat="43.66109" lon="6.83771">
        <ele>642.9</ele>
        <time>2014-05-29T09:10:03.000Z</time>
      </trkpt>
      <trkpt lat="43.66109" lon="6.83766">
        <ele>642.5</ele>
        <time>2014-05-29T09:10:03.999Z</time>
      </trkpt>
      <trkpt lat="43.66109" lon="6.83761">
        <ele>641</ele>
        <time>2014-05-29T09:10:05.000Z</time>
      </trkpt>
      <trkpt lat="43.6611" lon="6.83756">
        <ele>640</ele>
        <time>2014-05-29T09:10:06.000Z</time>
      </trkpt>
      <trkpt lat="43.6611" lon="6.83751">
        <ele>639.7</ele>
        <time>2014-05-29T09:10:07.000Z</time>
      </trkpt>
      <trkpt lat="43.66112" lon="6.83746">
        <ele>639.7</ele>
        <time>2014-05-29T09:10:08.000Z</time>
      </trkpt>
      <trkpt lat="43.66114" lon="6.8374">
        <ele>639.7</ele>
        <time>2014-05-29T09:10:09.000Z</time>
      </trkpt>
      <trkpt lat="43.66115" lon="6.83736">
        <ele>639.7</ele>
        <time>2014-05-29T09:10:10.000Z</time>
      </trkpt>
      <trkpt lat="43.66116" lon="6.83731">
        <ele>639.7</ele>
        <time>2014-05-29T09:10:11.000Z</time>
      </trkpt>
      <trkpt lat="43.66117" lon="6.83727">
        <ele>639.4</ele>
        <time>2014-05-29T09:10:12.000Z</time>
      </trkpt>
      <trkpt lat="43.6612" lon="6.8372">
        <ele>639.5</ele>
        <time>2014-05-29T09:10:12.997Z</time>
      </trkpt>
      <trkpt lat="43.66123" lon="6.83707">
        <ele>638.7</ele>
        <time>2014-05-29T09:10:14.000Z</time>
      </trkpt>
      <trkpt lat="43.66125" lon="6.83697">
        <ele>638.1</ele>
        <time>2014-05-29T09:10:15.000Z</time>
      </trkpt>
      <trkpt lat="43.66128" lon="6.83689">
        <ele>637.8</ele>
        <time>2014-05-29T09:10:16.000Z</time>
      </trkpt>
      <trkpt lat="43.66131" lon="6.8368">
        <ele>637.7</ele>
        <time>2014-05-29T09:10:17.000Z</time>
      </trkpt>
      <trkpt lat="43.66134" lon="6.83669">
        <ele>639.3</ele>
        <time>2014-05-29T09:10:18.000Z</time>
      </trkpt>
      <trkpt lat="43.66138" lon="6.83659">
        <ele>638.9</ele>
        <time>2014-05-29T09:10:19.000Z</time>
      </trkpt>
      <trkpt lat="43.66143" lon="6.83651">
        <ele>638.4</ele>
        <time>2014-05-29T09:10:20.000Z</time>
      </trkpt>
      <trkpt lat="43.66147" lon="6.83644">
        <ele>638</ele>
        <time>2014-05-29T09:10:21.000Z</time>
      </trkpt>
      <trkpt lat="43.66152" lon="6.83637">
        <ele>637.7</ele>
        <time>2014-05-29T09:10:22.000Z</time>
      </trkpt>
      <trkpt lat="43.66158" lon="6.83632">
        <ele>638</ele>
        <time>2014-05-29T09:10:23.000Z</time>
      </trkpt>
      <trkpt lat="43.66165" lon="6.83628">
        <ele>638.5</ele>
        <time>2014-05-29T09:10:24.000Z</time>
      </trkpt>
      <trkpt lat="43.66173" lon="6.83624">
        <ele>638.8</ele>
        <time>2014-05-29T09:10:25.000Z</time>
      </trkpt>
      <trkpt lat="43.66181" lon="6.83624">
        <ele>638.4</ele>
        <time>2014-05-29T09:10:26.000Z</time>
      </trkpt>
      <trkpt lat="43.66187" lon="6.83624">
        <ele>637.7</ele>
        <time>2014-05-29T09:10:27.000Z</time>
      </trkpt>
      <trkpt lat="43.66191" lon="6.83624">
        <ele>636.7</ele>
        <time>2014-05-29T09:10:28.000Z</time>
      </trkpt>
      <trkpt lat="43.66194" lon="6.83624">
        <ele>636.2</ele>
        <time>2014-05-29T09:10:29.000Z</time>
      </trkpt>
      <trkpt lat="43.66197" lon="6.83621">
        <ele>636.6</ele>
        <time>2014-05-29T09:10:30.000Z</time>
      </trkpt>
      <trkpt lat="43.66198" lon="6.83617">
        <ele>636.7</ele>
        <time>2014-05-29T09:10:31.000Z</time>
      </trkpt>
      <trkpt lat="43.66229" lon="6.83579">
        <ele>630.4</ele>
        <time>2014-05-29T09:10:41.485Z</time>
      </trkpt>
      <trkpt lat="43.6623" lon="6.83577">
        <ele>630.4</ele>
        <time>2014-05-29T09:10:42.000Z</time>
      </trkpt>
      <trkpt lat="43.66232" lon="6.83573">
        <ele>625.2</ele>
        <time>2014-05-29T09:10:43.000Z</time>
      </trkpt>
      <trkpt lat="43.66235" lon="6.8357">
        <ele>624.6</ele>
        <time>2014-05-29T09:10:43.999Z</time>
      </trkpt>
      <trkpt lat="43.66237" lon="6.83566">
        <ele>623.6</ele>
        <time>2014-05-29T09:10:45.000Z</time>
      </trkpt>
      <trkpt lat="43.66239" lon="6.83562">
        <ele>623.3</ele>
        <time>2014-05-29T09:10:46.000Z</time>
      </trkpt>
      <trkpt lat="43.66242" lon="6.83558">
        <ele>623.4</ele>
        <time>2014-05-29T09:10:47.000Z</time>
      </trkpt>
      <trkpt lat="43.66244" lon="6.83554">
        <ele>623.4</ele>
        <time>2014-05-29T09:10:48.000Z</time>
      </trkpt>
      <trkpt lat="43.66246" lon="6.8355">
        <ele>622.9</ele>
        <time>2014-05-29T09:10:48.999Z</time>
      </trkpt>
      <trkpt lat="43.66249" lon="6.83545">
        <ele>622.7</ele>
        <time>2014-05-29T09:10:50.000Z</time>
      </trkpt>
      <trkpt lat="43.66251" lon="6.83542">
        <ele>622</ele>
        <time>2014-05-29T09:10:51.000Z</time>
      </trkpt>
      <trkpt lat="43.66254" lon="6.83538">
        <ele>621</ele>
        <time>2014-05-29T09:10:52.000Z</time>
      </trkpt>
      <trkpt lat="43.66256" lon="6.83535">
        <ele>620.4</ele>
        <time>2014-05-29T09:10:53.000Z</time>
      </trkpt>
      <trkpt lat="43.6626" lon="6.83531">
        <ele>618.1</ele>
        <time>2014-05-29T09:10:54.000Z</time>
      </trkpt>
      <trkpt lat="43.66263" lon="6.83529">
        <ele>618.4</ele>
        <time>2014-05-29T09:10:55.000Z</time>
      </trkpt>
      <trkpt lat="43.66266" lon="6.83525">
        <ele>619.3</ele>
        <time>2014-05-29T09:10:56.000Z</time>
      </trkpt>
      <trkpt lat="43.66269" lon="6.83522">
        <ele>618.9</ele>
        <time>2014-05-29T09:10:57.000Z</time>
      </trkpt>
      <trkpt lat="43.66271" lon="6.83518">
        <ele>618.9</ele>
        <time>2014-05-29T09:10:58.000Z</time>
      </trkpt>
      <trkpt lat="43.66273" lon="6.83513">
        <ele>617.4</ele>
        <time>2014-05-29T09:10:59.000Z</time>
      </trkpt>
      <trkpt lat="43.66275" lon="6.83508">
        <ele>615.5</ele>
        <time>2014-05-29T09:11:00.000Z</time>
      </trkpt>
      <trkpt lat="43.66276" lon="6.83503">
        <ele>614.6</ele>
        <time>2014-05-29T09:11:01.000Z</time>
      </trkpt>
      <trkpt lat="43.66277" lon="6.83497">
        <ele>615.5</ele>
        <time>2014-05-29T09:11:02.000Z</time>
      </trkpt>
      <trkpt lat="43.66278" lon="6.83491">
        <ele>615</ele>
        <time>2014-05-29T09:11:03.000Z</time>
      </trkpt>
      <trkpt lat="43.66279" lon="6.83485">
        <ele>615.2</ele>
        <time>2014-05-29T09:11:04.000Z</time>
      </trkpt>
      <trkpt lat="43.6628" lon="6.8348">
        <ele>615.6</ele>
        <time>2014-05-29T09:11:05.000Z</time>
      </trkpt>
      <trkpt lat="43.66281" lon="6.83476">
        <ele>615.6</ele>
        <time>2014-05-29T09:11:06.000Z</time>
      </trkpt>
      <trkpt lat="43.66282" lon="6.8347">
        <ele>616.2</ele>
        <time>2014-05-29T09:11:07.000Z</time>
      </trkpt>
      <trkpt lat="43.66282" lon="6.83467">
        <ele>615.3</ele>
        <time>2014-05-29T09:11:08.000Z</time>
      </trkpt>
      <trkpt lat="43.66282" lon="6.83463">
        <ele>614.8</ele>
        <time>2014-05-29T09:11:09.000Z</time>
      </trkpt>
      <trkpt lat="43.66284" lon="6.8346">
        <ele>613.9</ele>
        <time>2014-05-29T09:11:10.000Z</time>
      </trkpt>
      <trkpt lat="43.66284" lon="6.83457">
        <ele>612.2</ele>
        <time>2014-05-29T09:11:12.000Z</time>
      </trkpt>
      <trkpt lat="43.66288" lon="6.83454">
        <ele>611.2</ele>
        <time>2014-05-29T09:11:13.000Z</time>
      </trkpt>
      <trkpt lat="43.66292" lon="6.83451">
        <ele>610.6</ele>
        <time>2014-05-29T09:11:14.000Z</time>
      </trkpt>
      <trkpt lat="43.66296" lon="6.8345">
        <ele>610.6</ele>
        <time>2014-05-29T09:11:14.998Z</time>
      </trkpt>
      <trkpt lat="43.663" lon="6.83448">
        <ele>610.6</ele>
        <time>2014-05-29T09:11:16.000Z</time>
      </trkpt>
      <trkpt lat="43.66304" lon="6.83446">
        <ele>609.8</ele>
        <time>2014-05-29T09:11:16.999Z</time>
      </trkpt>
      <trkpt lat="43.66307" lon="6.83442">
        <ele>609.7</ele>
        <time>2014-05-29T09:11:18.000Z</time>
      </trkpt>
      <trkpt lat="43.66309" lon="6.83438">
        <ele>609.2</ele>
        <time>2014-05-29T09:11:19.000Z</time>
      </trkpt>
      <trkpt lat="43.6631" lon="6.83434">
        <ele>608.9</ele>
        <time>2014-05-29T09:11:20.000Z</time>
      </trkpt>
      <trkpt lat="43.66311" lon="6.8343">
        <ele>608.7</ele>
        <time>2014-05-29T09:11:20.999Z</time>
      </trkpt>
      <trkpt lat="43.66313" lon="6.83424">
        <ele>609</ele>
        <time>2014-05-29T09:11:22.000Z</time>
      </trkpt>
      <trkpt lat="43.66315" lon="6.83419">
        <ele>608.7</ele>
        <time>2014-05-29T09:11:23.000Z</time>
      </trkpt>
      <trkpt lat="43.66317" lon="6.83414">
        <ele>608.4</ele>
        <time>2014-05-29T09:11:23.999Z</time>
      </trkpt>
      <trkpt lat="43.66319" lon="6.83409">
        <ele>608.4</ele>
        <time>2014-05-29T09:11:25.000Z</time>
      </trkpt>
      <trkpt lat="43.6632" lon="6.83404">
        <ele>607.8</ele>
        <time>2014-05-29T09:11:26.000Z</time>
      </trkpt>
      <trkpt lat="43.66322" lon="6.834">
        <ele>607.4</ele>
        <time>2014-05-29T09:11:27.000Z</time>
      </trkpt>
      <trkpt lat="43.66326" lon="6.83397">
        <ele>607.7</ele>
        <time>2014-05-29T09:11:28.000Z</time>
      </trkpt>
      <trkpt lat="43.66329" lon="6.83394">
        <ele>608.1</ele>
        <time>2014-05-29T09:11:29.000Z</time>
      </trkpt>
      <trkpt lat="43.66332" lon="6.83392">
        <ele>608.2</ele>
        <time>2014-05-29T09:11:30.000Z</time>
      </trkpt>
      <trkpt lat="43.66337" lon="6.83389">
        <ele>607.9</ele>
        <time>2014-05-29T09:11:31.556Z</time>
      </trkpt>
      <trkpt lat="43.66339" lon="6.83388">
        <ele>607.9</ele>
        <time>2014-05-29T09:11:32.000Z</time>
      </trkpt>
      <trkpt lat="43.66365" lon="6.83372">
        <ele>628.5</ele>
        <time>2014-05-29T09:11:36.991Z</time>
      </trkpt>
      <trkpt lat="43.66374" lon="6.83368">
        <ele>636.6</ele>
        <time>2014-05-29T09:11:37.971Z</time>
      </trkpt>
      <trkpt lat="43.66379" lon="6.83368">
        <ele>634.9</ele>
        <time>2014-05-29T09:11:38.971Z</time>
      </trkpt>
      <trkpt lat="43.66369" lon="6.83381">
        <ele>608.6</ele>
        <time>2014-05-29T09:11:39.998Z</time>
      </trkpt>
      <trkpt lat="43.66375" lon="6.83381">
        <ele>609.3</ele>
        <time>2014-05-29T09:11:41.000Z</time>
      </trkpt>
      <trkpt lat="43.66378" lon="6.8338">
        <ele>609.7</ele>
        <time>2014-05-29T09:11:42.000Z</time>
      </trkpt>
      <trkpt lat="43.6638" lon="6.83379">
        <ele>609.8</ele>
        <time>2014-05-29T09:11:42.997Z</time>
      </trkpt>
      <trkpt lat="43.66384" lon="6.83378">
        <ele>609.3</ele>
        <time>2014-05-29T09:11:44.000Z</time>
      </trkpt>
      <trkpt lat="43.66388" lon="6.83377">
        <ele>609.2</ele>
        <time>2014-05-29T09:11:45.000Z</time>
      </trkpt>
      <trkpt lat="43.66391" lon="6.83373">
        <ele>609.9</ele>
        <time>2014-05-29T09:11:46.000Z</time>
      </trkpt>
      <trkpt lat="43.66393" lon="6.83369">
        <ele>609.5</ele>
        <time>2014-05-29T09:11:47.000Z</time>
      </trkpt>
      <trkpt lat="43.66396" lon="6.83367">
        <ele>609</ele>
        <time>2014-05-29T09:11:47.998Z</time>
      </trkpt>
      <trkpt lat="43.66399" lon="6.83363">
        <ele>608.9</ele>
        <time>2014-05-29T09:11:49.000Z</time>
      </trkpt>
      <trkpt lat="43.66401" lon="6.83358">
        <ele>608.6</ele>
        <time>2014-05-29T09:11:50.000Z</time>
      </trkpt>
      <trkpt lat="43.66402" lon="6.83352">
        <ele>609.3</ele>
        <time>2014-05-29T09:11:51.000Z</time>
      </trkpt>
      <trkpt lat="43.66403" lon="6.83348">
        <ele>608.5</ele>
        <time>2014-05-29T09:11:51.997Z</time>
      </trkpt>
      <trkpt lat="43.66405" lon="6.83342">
        <ele>608.3</ele>
        <time>2014-05-29T09:11:53.000Z</time>
      </trkpt>
      <trkpt lat="43.66407" lon="6.83338">
        <ele>608.3</ele>
        <time>2014-05-29T09:11:54.000Z</time>
      </trkpt>
      <trkpt lat="43.66411" lon="6.83331">
        <ele>608.6</ele>
        <time>2014-05-29T09:11:55.000Z</time>
      </trkpt>
      <trkpt lat="43.66413" lon="6.83324">
        <ele>608.8</ele>
        <time>2014-05-29T09:11:56.000Z</time>
      </trkpt>
      <trkpt lat="43.66416" lon="6.83318">
        <ele>608.2</ele>
        <time>2014-05-29T09:11:57.000Z</time>
      </trkpt>
      <trkpt lat="43.66419" lon="6.83311">
        <ele>608.3</ele>
        <time>2014-05-29T09:11:58.000Z</time>
      </trkpt>
      <trkpt lat="43.66422" lon="6.83305">
        <ele>608.1</ele>
        <time>2014-05-29T09:11:59.000Z</time>
      </trkpt>
      <trkpt lat="43.66426" lon="6.83301">
        <ele>608</ele>
        <time>2014-05-29T09:12:00.000Z</time>
      </trkpt>
      <trkpt lat="43.6643" lon="6.83296">
        <ele>608.6</ele>
        <time>2014-05-29T09:12:01.000Z</time>
      </trkpt>
      <trkpt lat="43.66432" lon="6.8329">
        <ele>606.1</ele>
        <time>2014-05-29T09:12:01.998Z</time>
      </trkpt>
      <trkpt lat="43.66432" lon="6.83284">
        <ele>606.5</ele>
        <time>2014-05-29T09:12:03.000Z</time>
      </trkpt>
      <trkpt lat="43.66433" lon="6.83279">
        <ele>605.7</ele>
        <time>2014-05-29T09:12:04.000Z</time>
      </trkpt>
      <trkpt lat="43.66435" lon="6.83272">
        <ele>605.6</ele>
        <time>2014-05-29T09:12:05.000Z</time>
      </trkpt>
      <trkpt lat="43.66436" lon="6.83267">
        <ele>605.6</ele>
        <time>2014-05-29T09:12:06.000Z</time>
      </trkpt>
      <trkpt lat="43.66438" lon="6.83264">
        <ele>604.2</ele>
        <time>2014-05-29T09:12:07.000Z</time>
      </trkpt>
      <trkpt lat="43.6644" lon="6.83259">
        <ele>603.8</ele>
        <time>2014-05-29T09:12:08.000Z</time>
      </trkpt>
      <trkpt lat="43.66443" lon="6.83256">
        <ele>603.8</ele>
        <time>2014-05-29T09:12:09.000Z</time>
      </trkpt>
      <trkpt lat="43.66447" lon="6.83262">
        <ele>604.9</ele>
        <time>2014-05-29T09:12:09.999Z</time>
      </trkpt>
      <trkpt lat="43.6645" lon="6.83265">
        <ele>605.5</ele>
        <time>2014-05-29T09:12:11.000Z</time>
      </trkpt>
      <trkpt lat="43.66453" lon="6.83268">
        <ele>606.1</ele>
        <time>2014-05-29T09:12:12.000Z</time>
      </trkpt>
      <trkpt lat="43.66456" lon="6.83263">
        <ele>606.4</ele>
        <time>2014-05-29T09:12:15.000Z</time>
      </trkpt>
      <trkpt lat="43.66456" lon="6.8326">
        <ele>606.1</ele>
        <time>2014-05-29T09:12:16.000Z</time>
      </trkpt>
      <trkpt lat="43.66457" lon="6.83257">
        <ele>605</ele>
        <time>2014-05-29T09:12:17.000Z</time>
      </trkpt>
      <trkpt lat="43.66458" lon="6.83254">
        <ele>604.1</ele>
        <time>2014-05-29T09:12:18.000Z</time>
      </trkpt>
      <trkpt lat="43.66459" lon="6.8325">
        <ele>603.8</ele>
        <time>2014-05-29T09:12:19.000Z</time>
      </trkpt>
      <trkpt lat="43.66461" lon="6.83243">
        <ele>603.7</ele>
        <time>2014-05-29T09:12:19.999Z</time>
      </trkpt>
      <trkpt lat="43.66462" lon="6.83238">
        <ele>604.2</ele>
        <time>2014-05-29T09:12:21.000Z</time>
      </trkpt>
      <trkpt lat="43.66463" lon="6.83232">
        <ele>604.3</ele>
        <time>2014-05-29T09:12:22.000Z</time>
      </trkpt>
      <trkpt lat="43.66464" lon="6.83227">
        <ele>604.6</ele>
        <time>2014-05-29T09:12:23.000Z</time>
      </trkpt>
      <trkpt lat="43.66464" lon="6.83221">
        <ele>604.9</ele>
        <time>2014-05-29T09:12:24.000Z</time>
      </trkpt>
      <trkpt lat="43.66464" lon="6.83217">
        <ele>604.8</ele>
        <time>2014-05-29T09:12:24.998Z</time>
      </trkpt>
      <trkpt lat="43.66464" lon="6.83212">
        <ele>605.4</ele>
        <time>2014-05-29T09:12:26.000Z</time>
      </trkpt>
      <trkpt lat="43.66464" lon="6.83207">
        <ele>605.5</ele>
        <time>2014-05-29T09:12:27.000Z</time>
      </trkpt>
      <trkpt lat="43.66472" lon="6.83207">
        <ele>603.8</ele>
        <time>2014-05-29T09:12:28.000Z</time>
      </trkpt>
      <trkpt lat="43.66479" lon="6.83205">
        <ele>604.4</ele>
        <time>2014-05-29T09:12:29.000Z</time>
      </trkpt>
      <trkpt lat="43.66483" lon="6.83204">
        <ele>606.5</ele>
        <time>2014-05-29T09:12:30.000Z</time>
      </trkpt>
      <trkpt lat="43.66486" lon="6.832">
        <ele>607.9</ele>
        <time>2014-05-29T09:12:32.000Z</time>
      </trkpt>
      <trkpt lat="43.66487" lon="6.83198">
        <ele>607.5</ele>
        <time>2014-05-29T09:12:33.000Z</time>
      </trkpt>
      <trkpt lat="43.6649" lon="6.83196">
        <ele>609.2</ele>
        <time>2014-05-29T09:12:48.000Z</time>
      </trkpt>
      <trkpt lat="43.66556" lon="6.83038">
        <ele>609.3</ele>
        <time>2014-05-29T09:13:22.000Z</time>
      </trkpt>
      <trkpt lat="43.66559" lon="6.83037">
        <ele>609.3</ele>
        <time>2014-05-29T09:13:23.000Z</time>
      </trkpt>
      <trkpt lat="43.66566" lon="6.8303">
        <ele>611.4</ele>
        <time>2014-05-29T09:13:24.000Z</time>
      </trkpt>
      <trkpt lat="43.66573" lon="6.83027">
        <ele>612.7</ele>
        <time>2014-05-29T09:13:25.000Z</time>
      </trkpt>
      <trkpt lat="43.66578" lon="6.83025">
        <ele>614.6</ele>
        <time>2014-05-29T09:13:26.000Z</time>
      </trkpt>
      <trkpt lat="43.66581" lon="6.83024">
        <ele>618.7</ele>
        <time>2014-05-29T09:13:27.000Z</time>
      </trkpt>
      <trkpt lat="43.66586" lon="6.83027">
        <ele>612.5</ele>
        <time>2014-05-29T09:13:28.000Z</time>
      </trkpt>
      <trkpt lat="43.66591" lon="6.83021">
        <ele>610.6</ele>
        <time>2014-05-29T09:13:28.999Z</time>
      </trkpt>
      <trkpt lat="43.66595" lon="6.83018">
        <ele>612.9</ele>
        <time>2014-05-29T09:13:30.000Z</time>
      </trkpt>
      <trkpt lat="43.66597" lon="6.83012">
        <ele>616.1</ele>
        <time>2014-05-29T09:13:32.000Z</time>
      </trkpt>
      <trkpt lat="43.666" lon="6.83009">
        <ele>615.4</ele>
        <time>2014-05-29T09:13:33.000Z</time>
      </trkpt>
      <trkpt lat="43.66604" lon="6.83007">
        <ele>613.7</ele>
        <time>2014-05-29T09:13:34.000Z</time>
      </trkpt>
      <trkpt lat="43.66609" lon="6.83002">
        <ele>613.6</ele>
        <time>2014-05-29T09:13:35.000Z</time>
      </trkpt>
      <trkpt lat="43.66614" lon="6.82998">
        <ele>613.1</ele>
        <time>2014-05-29T09:13:36.000Z</time>
      </trkpt>
      <trkpt lat="43.66618" lon="6.82996">
        <ele>613.8</ele>
        <time>2014-05-29T09:13:37.000Z</time>
      </trkpt>
      <trkpt lat="43.66621" lon="6.82996">
        <ele>611.5</ele>
        <time>2014-05-29T09:13:38.000Z</time>
      </trkpt>
      <trkpt lat="43.66624" lon="6.82993">
        <ele>608.8</ele>
        <time>2014-05-29T09:13:39.000Z</time>
      </trkpt>
      <trkpt lat="43.66626" lon="6.82993">
        <ele>607</ele>
        <time>2014-05-29T09:13:40.000Z</time>
      </trkpt>
      <trkpt lat="43.66629" lon="6.82991">
        <ele>608.2</ele>
        <time>2014-05-29T09:13:41.000Z</time>
      </trkpt>
      <trkpt lat="43.66631" lon="6.8299">
        <ele>610</ele>
        <time>2014-05-29T09:13:42.000Z</time>
      </trkpt>
      <trkpt lat="43.66634" lon="6.82987">
        <ele>609.2</ele>
        <time>2014-05-29T09:13:43.000Z</time>
      </trkpt>
      <trkpt lat="43.66638" lon="6.82985">
        <ele>607.3</ele>
        <time>2014-05-29T09:13:44.000Z</time>
      </trkpt>
      <trkpt lat="43.66642" lon="6.82983">
        <ele>605.8</ele>
        <time>2014-05-29T09:13:45.000Z</time>
      </trkpt>
      <trkpt lat="43.66645" lon="6.82982">
        <ele>605.5</ele>
        <time>2014-05-29T09:13:46.000Z</time>
      </trkpt>
      <trkpt lat="43.66648" lon="6.82977">
        <ele>604.9</ele>
        <time>2014-05-29T09:13:47.000Z</time>
      </trkpt>
      <trkpt lat="43.6665" lon="6.82974">
        <ele>606.6</ele>
        <time>2014-05-29T09:13:47.998Z</time>
      </trkpt>
      <trkpt lat="43.66652" lon="6.8297">
        <ele>607.2</ele>
        <time>2014-05-29T09:13:49.000Z</time>
      </trkpt>
      <trkpt lat="43.66655" lon="6.82966">
        <ele>606.8</ele>
        <time>2014-05-29T09:13:49.999Z</time>
      </trkpt>
      <trkpt lat="43.6666" lon="6.82965">
        <ele>606</ele>
        <time>2014-05-29T09:13:51.000Z</time>
      </trkpt>
      <trkpt lat="43.66662" lon="6.82963">
        <ele>606.2</ele>
        <time>2014-05-29T09:13:52.000Z</time>
      </trkpt>
      <trkpt lat="43.66666" lon="6.8296">
        <ele>607.1</ele>
        <time>2014-05-29T09:13:53.000Z</time>
      </trkpt>
      <trkpt lat="43.6667" lon="6.82957">
        <ele>607</ele>
        <time>2014-05-29T09:13:54.000Z</time>
      </trkpt>
      <trkpt lat="43.66673" lon="6.82953">
        <ele>606</ele>
        <time>2014-05-29T09:13:55.000Z</time>
      </trkpt>
      <trkpt lat="43.66676" lon="6.82952">
        <ele>604.9</ele>
        <time>2014-05-29T09:13:56.000Z</time>
      </trkpt>
      <trkpt lat="43.66678" lon="6.8295">
        <ele>606.1</ele>
        <time>2014-05-29T09:13:57.000Z</time>
      </trkpt>
      <trkpt lat="43.6668" lon="6.82947">
        <ele>607.1</ele>
        <time>2014-05-29T09:13:58.000Z</time>
      </trkpt>
      <trkpt lat="43.66682" lon="6.82942">
        <ele>606.9</ele>
        <time>2014-05-29T09:13:59.000Z</time>
      </trkpt>
      <trkpt lat="43.66684" lon="6.82937">
        <ele>606.7</ele>
        <time>2014-05-29T09:14:00.000Z</time>
      </trkpt>
      <trkpt lat="43.66686" lon="6.82934">
        <ele>606.2</ele>
        <time>2014-05-29T09:14:01.000Z</time>
      </trkpt>
      <trkpt lat="43.66687" lon="6.8293">
        <ele>606.1</ele>
        <time>2014-05-29T09:14:02.000Z</time>
      </trkpt>
      <trkpt lat="43.66688" lon="6.82925">
        <ele>606.9</ele>
        <time>2014-05-29T09:14:03.000Z</time>
      </trkpt>
      <trkpt lat="43.66688" lon="6.82921">
        <ele>605.4</ele>
        <time>2014-05-29T09:14:04.000Z</time>
      </trkpt>
      <trkpt lat="43.66689" lon="6.82915">
        <ele>604.6</ele>
        <time>2014-05-29T09:14:05.000Z</time>
      </trkpt>
      <trkpt lat="43.66691" lon="6.82911">
        <ele>604.5</ele>
        <time>2014-05-29T09:14:06.000Z</time>
      </trkpt>
      <trkpt lat="43.66692" lon="6.82906">
        <ele>603.3</ele>
        <time>2014-05-29T09:14:07.000Z</time>
      </trkpt>
      <trkpt lat="43.66694" lon="6.82902">
        <ele>601.9</ele>
        <time>2014-05-29T09:14:08.000Z</time>
      </trkpt>
      <trkpt lat="43.66695" lon="6.82897">
        <ele>600.6</ele>
        <time>2014-05-29T09:14:09.000Z</time>
      </trkpt>
      <trkpt lat="43.66695" lon="6.82892">
        <ele>601.2</ele>
        <time>2014-05-29T09:14:10.000Z</time>
      </trkpt>
      <trkpt lat="43.66695" lon="6.82887">
        <ele>601.9</ele>
        <time>2014-05-29T09:14:11.000Z</time>
      </trkpt>
      <trkpt lat="43.66695" lon="6.82881">
        <ele>599.9</ele>
        <time>2014-05-29T09:14:12.000Z</time>
      </trkpt>
      <trkpt lat="43.66696" lon="6.82877">
        <ele>599.8</ele>
        <time>2014-05-29T09:14:12.998Z</time>
      </trkpt>
      <trkpt lat="43.66696" lon="6.82874">
        <ele>599.5</ele>
        <time>2014-05-29T09:14:14.000Z</time>
      </trkpt>
      <trkpt lat="43.66698" lon="6.8287">
        <ele>598.9</ele>
        <time>2014-05-29T09:14:14.998Z</time>
      </trkpt>
      <trkpt lat="43.66698" lon="6.82866">
        <ele>597.6</ele>
        <time>2014-05-29T09:14:16.000Z</time>
      </trkpt>
      <trkpt lat="43.66697" lon="6.82862">
        <ele>597.3</ele>
        <time>2014-05-29T09:14:17.000Z</time>
      </trkpt>
      <trkpt lat="43.66696" lon="6.82857">
        <ele>596.5</ele>
        <time>2014-05-29T09:14:18.000Z</time>
      </trkpt>
      <trkpt lat="43.66696" lon="6.82854">
        <ele>598.8</ele>
        <time>2014-05-29T09:14:19.000Z</time>
      </trkpt>
      <trkpt lat="43.66695" lon="6.8285">
        <ele>599.7</ele>
        <time>2014-05-29T09:14:20.000Z</time>
      </trkpt>
      <trkpt lat="43.66694" lon="6.82846">
        <ele>598</ele>
        <time>2014-05-29T09:14:21.000Z</time>
      </trkpt>
      <trkpt lat="43.66693" lon="6.82843">
        <ele>597</ele>
        <time>2014-05-29T09:14:22.000Z</time>
      </trkpt>
      <trkpt lat="43.66693" lon="6.82837">
        <ele>597.3</ele>
        <time>2014-05-29T09:14:23.999Z</time>
      </trkpt>
      <trkpt lat="43.66693" lon="6.82835">
        <ele>597.5</ele>
        <time>2014-05-29T09:14:25.000Z</time>
      </trkpt>
      <trkpt lat="43.66694" lon="6.82832">
        <ele>596.4</ele>
        <time>2014-05-29T09:14:26.000Z</time>
      </trkpt>
      <trkpt lat="43.66695" lon="6.8283">
        <ele>596.7</ele>
        <time>2014-05-29T09:14:27.000Z</time>
      </trkpt>
      <trkpt lat="43.66696" lon="6.82827">
        <ele>596.7</ele>
        <time>2014-05-29T09:14:28.000Z</time>
      </trkpt>
      <trkpt lat="43.66696" lon="6.82823">
        <ele>596.9</ele>
        <time>2014-05-29T09:14:29.000Z</time>
      </trkpt>
      <trkpt lat="43.66697" lon="6.82819">
        <ele>596.8</ele>
        <time>2014-05-29T09:14:30.000Z</time>
      </trkpt>
      <trkpt lat="43.66698" lon="6.82813">
        <ele>596.8</ele>
        <time>2014-05-29T09:14:31.575Z</time>
      </trkpt>
      <trkpt lat="43.66698" lon="6.82812">
        <ele>596.8</ele>
        <time>2014-05-29T09:14:32.000Z</time>
      </trkpt>
      <trkpt lat="43.66701" lon="6.8277">
        <ele>593.2</ele>
        <time>2014-05-29T09:14:38.990Z</time>
      </trkpt>
      <trkpt lat="43.66703" lon="6.82765">
        <ele>596.4</ele>
        <time>2014-05-29T09:14:39.990Z</time>
      </trkpt>
      <trkpt lat="43.66704" lon="6.8276">
        <ele>597.7</ele>
        <time>2014-05-29T09:14:40.990Z</time>
      </trkpt>
      <trkpt lat="43.66707" lon="6.82753">
        <ele>600.3</ele>
        <time>2014-05-29T09:14:41.990Z</time>
      </trkpt>
      <trkpt lat="43.66708" lon="6.82748">
        <ele>598.3</ele>
        <time>2014-05-29T09:14:42.990Z</time>
      </trkpt>
      <trkpt lat="43.66711" lon="6.82741">
        <ele>595.7</ele>
        <time>2014-05-29T09:14:43.990Z</time>
      </trkpt>
      <trkpt lat="43.66715" lon="6.82734">
        <ele>601.6</ele>
        <time>2014-05-29T09:14:44.990Z</time>
      </trkpt>
      <trkpt lat="43.6671" lon="6.82732">
        <ele>593.7</ele>
        <time>2014-05-29T09:14:47.000Z</time>
      </trkpt>
      <trkpt lat="43.66712" lon="6.82727">
        <ele>593.9</ele>
        <time>2014-05-29T09:14:48.000Z</time>
      </trkpt>
      <trkpt lat="43.66715" lon="6.82722">
        <ele>594.1</ele>
        <time>2014-05-29T09:14:49.000Z</time>
      </trkpt>
      <trkpt lat="43.66715" lon="6.82718">
        <ele>593</ele>
        <time>2014-05-29T09:14:50.000Z</time>
      </trkpt>
      <trkpt lat="43.66715" lon="6.82715">
        <ele>593.8</ele>
        <time>2014-05-29T09:14:51.000Z</time>
      </trkpt>
      <trkpt lat="43.66716" lon="6.82711">
        <ele>593.9</ele>
        <time>2014-05-29T09:14:52.000Z</time>
      </trkpt>
      <trkpt lat="43.66716" lon="6.82706">
        <ele>593.3</ele>
        <time>2014-05-29T09:14:53.000Z</time>
      </trkpt>
      <trkpt lat="43.66717" lon="6.82702">
        <ele>594</ele>
        <time>2014-05-29T09:14:54.000Z</time>
      </trkpt>
      <trkpt lat="43.66717" lon="6.82696">
        <ele>593.5</ele>
        <time>2014-05-29T09:14:55.000Z</time>
      </trkpt>
      <trkpt lat="43.66719" lon="6.82693">
        <ele>594.2</ele>
        <time>2014-05-29T09:14:57.000Z</time>
      </trkpt>
      <trkpt lat="43.6672" lon="6.8269">
        <ele>593.2</ele>
        <time>2014-05-29T09:14:58.000Z</time>
      </trkpt>
      <trkpt lat="43.66719" lon="6.82687">
        <ele>593.8</ele>
        <time>2014-05-29T09:14:59.000Z</time>
      </trkpt>
      <trkpt lat="43.66719" lon="6.82681">
        <ele>593.3</ele>
        <time>2014-05-29T09:15:00.000Z</time>
      </trkpt>
      <trkpt lat="43.6672" lon="6.82675">
        <ele>592.5</ele>
        <time>2014-05-29T09:15:01.000Z</time>
      </trkpt>
      <trkpt lat="43.66721" lon="6.8267">
        <ele>592.1</ele>
        <time>2014-05-29T09:15:02.000Z</time>
      </trkpt>
      <trkpt lat="43.66722" lon="6.82666">
        <ele>591.6</ele>
        <time>2014-05-29T09:15:03.000Z</time>
      </trkpt>
      <trkpt lat="43.66725" lon="6.82662">
        <ele>591.5</ele>
        <time>2014-05-29T09:15:04.000Z</time>
      </trkpt>
      <trkpt lat="43.66726" lon="6.82659">
        <ele>591.4</ele>
        <time>2014-05-29T09:15:05.000Z</time>
      </trkpt>
      <trkpt lat="43.66728" lon="6.82655">
        <ele>591.8</ele>
        <time>2014-05-29T09:15:06.000Z</time>
      </trkpt>
      <trkpt lat="43.6673" lon="6.82651">
        <ele>590.7</ele>
        <time>2014-05-29T09:15:07.000Z</time>
      </trkpt>
      <trkpt lat="43.66732" lon="6.82646">
        <ele>591.7</ele>
        <time>2014-05-29T09:15:08.000Z</time>
      </trkpt>
      <trkpt lat="43.66735" lon="6.82641">
        <ele>593</ele>
        <time>2014-05-29T09:15:09.000Z</time>
      </trkpt>
      <trkpt lat="43.66737" lon="6.82635">
        <ele>593</ele>
        <time>2014-05-29T09:15:10.000Z</time>
      </trkpt>
      <trkpt lat="43.66739" lon="6.8263">
        <ele>593.1</ele>
        <time>2014-05-29T09:15:11.000Z</time>
      </trkpt>
      <trkpt lat="43.6674" lon="6.82624">
        <ele>593.4</ele>
        <time>2014-05-29T09:15:12.000Z</time>
      </trkpt>
      <trkpt lat="43.6674" lon="6.82618">
        <ele>593.5</ele>
        <time>2014-05-29T09:15:13.000Z</time>
      </trkpt>
      <trkpt lat="43.6674" lon="6.82612">
        <ele>593.4</ele>
        <time>2014-05-29T09:15:14.000Z</time>
      </trkpt>
      <trkpt lat="43.66742" lon="6.82607">
        <ele>594.6</ele>
        <time>2014-05-29T09:15:15.000Z</time>
      </trkpt>
      <trkpt lat="43.66744" lon="6.82601">
        <ele>595</ele>
        <time>2014-05-29T09:15:16.000Z</time>
      </trkpt>
      <trkpt lat="43.66745" lon="6.82596">
        <ele>593.2</ele>
        <time>2014-05-29T09:15:17.000Z</time>
      </trkpt>
      <trkpt lat="43.66747" lon="6.8259">
        <ele>592.8</ele>
        <time>2014-05-29T09:15:18.000Z</time>
      </trkpt>
      <trkpt lat="43.66748" lon="6.82585">
        <ele>592.6</ele>
        <time>2014-05-29T09:15:19.000Z</time>
      </trkpt>
      <trkpt lat="43.66749" lon="6.8258">
        <ele>592.1</ele>
        <time>2014-05-29T09:15:20.000Z</time>
      </trkpt>
      <trkpt lat="43.6675" lon="6.82576">
        <ele>591.7</ele>
        <time>2014-05-29T09:15:21.000Z</time>
      </trkpt>
      <trkpt lat="43.66752" lon="6.82572">
        <ele>593</ele>
        <time>2014-05-29T09:15:22.000Z</time>
      </trkpt>
      <trkpt lat="43.66751" lon="6.82566">
        <ele>592.8</ele>
        <time>2014-05-29T09:15:23.000Z</time>
      </trkpt>
      <trkpt lat="43.6675" lon="6.82562">
        <ele>592.2</ele>
        <time>2014-05-29T09:15:24.000Z</time>
      </trkpt>
      <trkpt lat="43.6675" lon="6.82558">
        <ele>591.8</ele>
        <time>2014-05-29T09:15:25.000Z</time>
      </trkpt>
      <trkpt lat="43.66752" lon="6.82552">
        <ele>590</ele>
        <time>2014-05-29T09:15:26.000Z</time>
      </trkpt>
      <trkpt lat="43.66754" lon="6.82547">
        <ele>588.6</ele>
        <time>2014-05-29T09:15:27.000Z</time>
      </trkpt>
      <trkpt lat="43.66756" lon="6.82542">
        <ele>589.3</ele>
        <time>2014-05-29T09:15:28.000Z</time>
      </trkpt>
      <trkpt lat="43.66758" lon="6.82538">
        <ele>588.6</ele>
        <time>2014-05-29T09:15:29.000Z</time>
      </trkpt>
      <trkpt lat="43.66759" lon="6.82535">
        <ele>587.4</ele>
        <time>2014-05-29T09:15:30.000Z</time>
      </trkpt>
      <trkpt lat="43.66761" lon="6.8253">
        <ele>586.9</ele>
        <time>2014-05-29T09:15:31.501Z</time>
      </trkpt>
      <trkpt lat="43.66807" lon="6.82354">
        <ele>590.6</ele>
        <time>2014-05-29T09:16:04.000Z</time>
      </trkpt>
      <trkpt lat="43.66809" lon="6.8235">
        <ele>589.4</ele>
        <time>2014-05-29T09:16:05.000Z</time>
      </trkpt>
      <trkpt lat="43.66812" lon="6.82348">
        <ele>589.8</ele>
        <time>2014-05-29T09:16:06.000Z</time>
      </trkpt>
      <trkpt lat="43.66813" lon="6.82344">
        <ele>592.9</ele>
        <time>2014-05-29T09:16:06.999Z</time>
      </trkpt>
      <trkpt lat="43.66816" lon="6.8234">
        <ele>591.8</ele>
        <time>2014-05-29T09:16:08.000Z</time>
      </trkpt>
      <trkpt lat="43.66818" lon="6.82336">
        <ele>590.7</ele>
        <time>2014-05-29T09:16:09.000Z</time>
      </trkpt>
      <trkpt lat="43.66817" lon="6.8233">
        <ele>588</ele>
        <time>2014-05-29T09:16:10.000Z</time>
      </trkpt>
      <trkpt lat="43.66817" lon="6.82324">
        <ele>588.4</ele>
        <time>2014-05-29T09:16:11.000Z</time>
      </trkpt>
      <trkpt lat="43.66817" lon="6.82319">
        <ele>589.4</ele>
        <time>2014-05-29T09:16:12.000Z</time>
      </trkpt>
      <trkpt lat="43.66816" lon="6.82315">
        <ele>587.9</ele>
        <time>2014-05-29T09:16:13.000Z</time>
      </trkpt>
      <trkpt lat="43.66816" lon="6.8231">
        <ele>588.5</ele>
        <time>2014-05-29T09:16:14.000Z</time>
      </trkpt>
      <trkpt lat="43.66816" lon="6.82307">
        <ele>587.7</ele>
        <time>2014-05-29T09:16:15.000Z</time>
      </trkpt>
      <trkpt lat="43.66816" lon="6.82301">
        <ele>588.1</ele>
        <time>2014-05-29T09:16:16.000Z</time>
      </trkpt>
      <trkpt lat="43.66816" lon="6.82296">
        <ele>587.9</ele>
        <time>2014-05-29T09:16:17.000Z</time>
      </trkpt>
      <trkpt lat="43.66815" lon="6.82292">
        <ele>587.7</ele>
        <time>2014-05-29T09:16:18.000Z</time>
      </trkpt>
      <trkpt lat="43.66814" lon="6.82288">
        <ele>586</ele>
        <time>2014-05-29T09:16:19.000Z</time>
      </trkpt>
      <trkpt lat="43.66813" lon="6.82284">
        <ele>585.8</ele>
        <time>2014-05-29T09:16:20.000Z</time>
      </trkpt>
      <trkpt lat="43.66812" lon="6.82281">
        <ele>586.5</ele>
        <time>2014-05-29T09:16:21.000Z</time>
      </trkpt>
      <trkpt lat="43.66811" lon="6.82277">
        <ele>586.7</ele>
        <time>2014-05-29T09:16:22.000Z</time>
      </trkpt>
      <trkpt lat="43.6681" lon="6.82274">
        <ele>587</ele>
        <time>2014-05-29T09:16:23.000Z</time>
      </trkpt>
      <trkpt lat="43.66811" lon="6.82269">
        <ele>586.1</ele>
        <time>2014-05-29T09:16:24.000Z</time>
      </trkpt>
      <trkpt lat="43.6681" lon="6.82265">
        <ele>585.6</ele>
        <time>2014-05-29T09:16:25.000Z</time>
      </trkpt>
      <trkpt lat="43.6681" lon="6.82262">
        <ele>585.3</ele>
        <time>2014-05-29T09:16:26.000Z</time>
      </trkpt>
      <trkpt lat="43.66814" lon="6.82258">
        <ele>584.9</ele>
        <time>2014-05-29T09:16:26.999Z</time>
      </trkpt>
      <trkpt lat="43.66814" lon="6.82254">
        <ele>584.4</ele>
        <time>2014-05-29T09:16:28.000Z</time>
      </trkpt>
      <trkpt lat="43.66814" lon="6.8225">
        <ele>584.8</ele>
        <time>2014-05-29T09:16:29.000Z</time>
      </trkpt>
      <trkpt lat="43.66813" lon="6.82246">
        <ele>585.2</ele>
        <time>2014-05-29T09:16:29.998Z</time>
      </trkpt>
      <trkpt lat="43.66811" lon="6.82241">
        <ele>585.3</ele>
        <time>2014-05-29T09:16:31.000Z</time>
      </trkpt>
      <trkpt lat="43.6681" lon="6.82238">
        <ele>586.4</ele>
        <time>2014-05-29T09:16:32.000Z</time>
      </trkpt>
      <trkpt lat="43.66809" lon="6.82234">
        <ele>587.5</ele>
        <time>2014-05-29T09:16:33.000Z</time>
      </trkpt>
      <trkpt lat="43.66808" lon="6.82228">
        <ele>587.6</ele>
        <time>2014-05-29T09:16:35.000Z</time>
      </trkpt>
      <trkpt lat="43.66807" lon="6.82228">
        <ele>586.9</ele>
        <time>2014-05-29T09:16:36.000Z</time>
      </trkpt>
      <trkpt lat="43.66807" lon="6.82223">
        <ele>586.6</ele>
        <time>2014-05-29T09:16:38.000Z</time>
      </trkpt>
      <trkpt lat="43.66808" lon="6.82219">
        <ele>587.2</ele>
        <time>2014-05-29T09:16:38.999Z</time>
      </trkpt>
      <trkpt lat="43.66809" lon="6.82215">
        <ele>586.9</ele>
        <time>2014-05-29T09:16:40.000Z</time>
      </trkpt>
      <trkpt lat="43.6681" lon="6.82211">
        <ele>586.5</ele>
        <time>2014-05-29T09:16:41.000Z</time>
      </trkpt>
      <trkpt lat="43.66811" lon="6.82207">
        <ele>585.8</ele>
        <time>2014-05-29T09:16:42.000Z</time>
      </trkpt>
      <trkpt lat="43.66811" lon="6.82203">
        <ele>586.2</ele>
        <time>2014-05-29T09:16:43.000Z</time>
      </trkpt>
      <trkpt lat="43.66812" lon="6.82199">
        <ele>586.7</ele>
        <time>2014-05-29T09:16:44.000Z</time>
      </trkpt>
      <trkpt lat="43.66812" lon="6.82195">
        <ele>586.4</ele>
        <time>2014-05-29T09:16:45.000Z</time>
      </trkpt>
      <trkpt lat="43.66811" lon="6.82192">
        <ele>586.7</ele>
        <time>2014-05-29T09:16:45.998Z</time>
      </trkpt>
      <trkpt lat="43.66811" lon="6.82189">
        <ele>586.7</ele>
        <time>2014-05-29T09:16:46.998Z</time>
      </trkpt>
      <trkpt lat="43.66811" lon="6.82185">
        <ele>586.7</ele>
        <time>2014-05-29T09:16:47.998Z</time>
      </trkpt>
      <trkpt lat="43.66811" lon="6.82182">
        <ele>586.7</ele>
        <time>2014-05-29T09:16:49.000Z</time>
      </trkpt>
      <trkpt lat="43.6681" lon="6.82176">
        <ele>586.7</ele>
        <time>2014-05-29T09:16:51.000Z</time>
      </trkpt>
      <trkpt lat="43.6681" lon="6.82173">
        <ele>586.7</ele>
        <time>2014-05-29T09:16:52.000Z</time>
      </trkpt>
      <trkpt lat="43.66841" lon="6.81994">
        <ele>593</ele>
        <time>2014-05-29T09:17:34.000Z</time>
      </trkpt>
      <trkpt lat="43.66839" lon="6.81989">
        <ele>590.4</ele>
        <time>2014-05-29T09:17:35.000Z</time>
      </trkpt>
      <trkpt lat="43.66841" lon="6.81986">
        <ele>591.4</ele>
        <time>2014-05-29T09:17:36.000Z</time>
      </trkpt>
      <trkpt lat="43.66843" lon="6.81981">
        <ele>590.9</ele>
        <time>2014-05-29T09:17:37.000Z</time>
      </trkpt>
      <trkpt lat="43.66845" lon="6.81977">
        <ele>590</ele>
        <time>2014-05-29T09:17:38.000Z</time>
      </trkpt>
      <trkpt lat="43.66846" lon="6.81973">
        <ele>592.6</ele>
        <time>2014-05-29T09:17:39.000Z</time>
      </trkpt>
      <trkpt lat="43.66848" lon="6.81969">
        <ele>594.1</ele>
        <time>2014-05-29T09:17:40.000Z</time>
      </trkpt>
      <trkpt lat="43.6685" lon="6.81967">
        <ele>593.4</ele>
        <time>2014-05-29T09:17:41.000Z</time>
      </trkpt>
      <trkpt lat="43.66853" lon="6.81962">
        <ele>592.4</ele>
        <time>2014-05-29T09:17:42.000Z</time>
      </trkpt>
      <trkpt lat="43.66858" lon="6.81959">
        <ele>591.8</ele>
        <time>2014-05-29T09:17:43.000Z</time>
      </trkpt>
      <trkpt lat="43.66861" lon="6.81955">
        <ele>593.2</ele>
        <time>2014-05-29T09:17:44.000Z</time>
      </trkpt>
      <trkpt lat="43.66865" lon="6.81952">
        <ele>591.7</ele>
        <time>2014-05-29T09:17:45.000Z</time>
      </trkpt>
      <trkpt lat="43.6687" lon="6.81952">
        <ele>586.8</ele>
        <time>2014-05-29T09:17:46.000Z</time>
      </trkpt>
      <trkpt lat="43.66873" lon="6.81951">
        <ele>586.1</ele>
        <time>2014-05-29T09:17:47.000Z</time>
      </trkpt>
      <trkpt lat="43.66876" lon="6.8195">
        <ele>585.7</ele>
        <time>2014-05-29T09:17:48.000Z</time>
      </trkpt>
      <trkpt lat="43.66882" lon="6.81947">
        <ele>585.5</ele>
        <time>2014-05-29T09:17:49.000Z</time>
      </trkpt>
      <trkpt lat="43.66885" lon="6.81945">
        <ele>585.8</ele>
        <time>2014-05-29T09:17:50.000Z</time>
      </trkpt>
      <trkpt lat="43.66889" lon="6.81943">
        <ele>586.2</ele>
        <time>2014-05-29T09:17:51.000Z</time>
      </trkpt>
      <trkpt lat="43.66893" lon="6.81939">
        <ele>586.1</ele>
        <time>2014-05-29T09:17:52.000Z</time>
      </trkpt>
      <trkpt lat="43.66897" lon="6.81933">
        <ele>582.8</ele>
        <time>2014-05-29T09:17:52.998Z</time>
      </trkpt>
      <trkpt lat="43.669" lon="6.81927">
        <ele>582.2</ele>
        <time>2014-05-29T09:17:54.000Z</time>
      </trkpt>
      <trkpt lat="43.66902" lon="6.81921">
        <ele>582.1</ele>
        <time>2014-05-29T09:17:55.000Z</time>
      </trkpt>
      <trkpt lat="43.66903" lon="6.81919">
        <ele>582.1</ele>
        <time>2014-05-29T09:17:56.000Z</time>
      </trkpt>
      <trkpt lat="43.66906" lon="6.81913">
        <ele>582.1</ele>
        <time>2014-05-29T09:17:57.000Z</time>
      </trkpt>
      <trkpt lat="43.66908" lon="6.81907">
        <ele>582.2</ele>
        <time>2014-05-29T09:17:58.000Z</time>
      </trkpt>
      <trkpt lat="43.66971" lon="6.81726">
        <ele>582.4</ele>
        <time>2014-05-29T09:19:00.000Z</time>
      </trkpt>
      <trkpt lat="43.67024" lon="6.81618">
        <ele>576.3</ele>
        <time>2014-05-29T09:19:33.999Z</time>
      </trkpt>
      <trkpt lat="43.67025" lon="6.81615">
        <ele>576.3</ele>
        <time>2014-05-29T09:19:35.000Z</time>
      </trkpt>
      <trkpt lat="43.67026" lon="6.81612">
        <ele>576.3</ele>
        <time>2014-05-29T09:19:36.000Z</time>
      </trkpt>
      <trkpt lat="43.67028" lon="6.81609">
        <ele>576.3</ele>
        <time>2014-05-29T09:19:37.000Z</time>
      </trkpt>
      <trkpt lat="43.67029" lon="6.81606">
        <ele>576.3</ele>
        <time>2014-05-29T09:19:38.000Z</time>
      </trkpt>
      <trkpt lat="43.6703" lon="6.81603">
        <ele>576.2</ele>
        <time>2014-05-29T09:19:39.000Z</time>
      </trkpt>
      <trkpt lat="43.67079" lon="6.81471">
        <ele>578.5</ele>
        <time>2014-05-29T09:20:34.000Z</time>
      </trkpt>
      <trkpt lat="43.67077" lon="6.81466">
        <ele>573.7</ele>
        <time>2014-05-29T09:20:35.000Z</time>
      </trkpt>
      <trkpt lat="43.67051" lon="6.81366">
        <ele>572.6</ele>
        <time>2014-05-29T09:21:07.000Z</time>
      </trkpt>
      <trkpt lat="43.67048" lon="6.81363">
        <ele>564.8</ele>
        <time>2014-05-29T09:21:07.998Z</time>
      </trkpt>
      <trkpt lat="43.67049" lon="6.81359">
        <ele>564.4</ele>
        <time>2014-05-29T09:21:09.000Z</time>
      </trkpt>
      <trkpt lat="43.6705" lon="6.81353">
        <ele>569.2</ele>
        <time>2014-05-29T09:21:10.999Z</time>
      </trkpt>
      <trkpt lat="43.67049" lon="6.81352">
        <ele>570.1</ele>
        <time>2014-05-29T09:21:12.000Z</time>
      </trkpt>
      <trkpt lat="43.67047" lon="6.81349">
        <ele>571.9</ele>
        <time>2014-05-29T09:21:13.999Z</time>
      </trkpt>
      <trkpt lat="43.67045" lon="6.81344">
        <ele>570.5</ele>
        <time>2014-05-29T09:21:15.000Z</time>
      </trkpt>
      <trkpt lat="43.67044" lon="6.8134">
        <ele>570.4</ele>
        <time>2014-05-29T09:21:17.000Z</time>
      </trkpt>
      <trkpt lat="43.67044" lon="6.81338">
        <ele>570.2</ele>
        <time>2014-05-29T09:21:17.998Z</time>
      </trkpt>
      <trkpt lat="43.67043" lon="6.81332">
        <ele>569.5</ele>
        <time>2014-05-29T09:21:20.000Z</time>
      </trkpt>
      <trkpt lat="43.67042" lon="6.81331">
        <ele>569.7</ele>
        <time>2014-05-29T09:21:21.000Z</time>
      </trkpt>
      <trkpt lat="43.67041" lon="6.81326">
        <ele>570.8</ele>
        <time>2014-05-29T09:21:23.000Z</time>
      </trkpt>
      <trkpt lat="43.6704" lon="6.81324">
        <ele>571.2</ele>
        <time>2014-05-29T09:21:24.000Z</time>
      </trkpt>
      <trkpt lat="43.67041" lon="6.81319">
        <ele>570.5</ele>
        <time>2014-05-29T09:21:25.000Z</time>
      </trkpt>
      <trkpt lat="43.67041" lon="6.81316">
        <ele>570.7</ele>
        <time>2014-05-29T09:21:25.998Z</time>
      </trkpt>
      <trkpt lat="43.67038" lon="6.81311">
        <ele>570.7</ele>
        <time>2014-05-29T09:21:27.999Z</time>
      </trkpt>
      <trkpt lat="43.67037" lon="6.81308">
        <ele>571.5</ele>
        <time>2014-05-29T09:21:29.000Z</time>
      </trkpt>
      <trkpt lat="43.67038" lon="6.81303">
        <ele>570.2</ele>
        <time>2014-05-29T09:21:29.999Z</time>
      </trkpt>
      <trkpt lat="43.67038" lon="6.81298">
        <ele>570.6</ele>
        <time>2014-05-29T09:21:31.522Z</time>
      </trkpt>
      <trkpt lat="43.67038" lon="6.81293">
        <ele>570.4</ele>
        <time>2014-05-29T09:21:33.000Z</time>
      </trkpt>
      <trkpt lat="43.67035" lon="6.81289">
        <ele>569.6</ele>
        <time>2014-05-29T09:21:34.000Z</time>
      </trkpt>
      <trkpt lat="43.67033" lon="6.81285">
        <ele>570.8</ele>
        <time>2014-05-29T09:21:35.000Z</time>
      </trkpt>
      <trkpt lat="43.67032" lon="6.81282">
        <ele>571.8</ele>
        <time>2014-05-29T09:21:36.000Z</time>
      </trkpt>
      <trkpt lat="43.6703" lon="6.81279">
        <ele>571.8</ele>
        <time>2014-05-29T09:21:37.000Z</time>
      </trkpt>
      <trkpt lat="43.67027" lon="6.81275">
        <ele>571.8</ele>
        <time>2014-05-29T09:21:38.000Z</time>
      </trkpt>
      <trkpt lat="43.67026" lon="6.8127">
        <ele>570.7</ele>
        <time>2014-05-29T09:21:39.000Z</time>
      </trkpt>
      <trkpt lat="43.67025" lon="6.81266">
        <ele>570.6</ele>
        <time>2014-05-29T09:21:39.999Z</time>
      </trkpt>
      <trkpt lat="43.67024" lon="6.81262">
        <ele>570.3</ele>
        <time>2014-05-29T09:21:41.000Z</time>
      </trkpt>
      <trkpt lat="43.67022" lon="6.81259">
        <ele>571.4</ele>
        <time>2014-05-29T09:21:41.999Z</time>
      </trkpt>
      <trkpt lat="43.67021" lon="6.81256">
        <ele>570.2</ele>
        <time>2014-05-29T09:21:43.000Z</time>
      </trkpt>
      <trkpt lat="43.67021" lon="6.81252">
        <ele>570.7</ele>
        <time>2014-05-29T09:21:44.000Z</time>
      </trkpt>
      <trkpt lat="43.6702" lon="6.81248">
        <ele>571.6</ele>
        <time>2014-05-29T09:21:45.000Z</time>
      </trkpt>
      <trkpt lat="43.6702" lon="6.81243">
        <ele>572.2</ele>
        <time>2014-05-29T09:21:46.000Z</time>
      </trkpt>
      <trkpt lat="43.67018" lon="6.8124">
        <ele>573.2</ele>
        <time>2014-05-29T09:21:47.000Z</time>
      </trkpt>
      <trkpt lat="43.67017" lon="6.81236">
        <ele>573.8</ele>
        <time>2014-05-29T09:21:48.000Z</time>
      </trkpt>
      <trkpt lat="43.67016" lon="6.81231">
        <ele>573.5</ele>
        <time>2014-05-29T09:21:49.000Z</time>
      </trkpt>
      <trkpt lat="43.67015" lon="6.81227">
        <ele>573.6</ele>
        <time>2014-05-29T09:21:50.000Z</time>
      </trkpt>
      <trkpt lat="43.67014" lon="6.81222">
        <ele>573.7</ele>
        <time>2014-05-29T09:21:51.000Z</time>
      </trkpt>
      <trkpt lat="43.67013" lon="6.81218">
        <ele>573</ele>
        <time>2014-05-29T09:21:52.000Z</time>
      </trkpt>
      <trkpt lat="43.67012" lon="6.81212">
        <ele>573.9</ele>
        <time>2014-05-29T09:21:53.000Z</time>
      </trkpt>
      <trkpt lat="43.67012" lon="6.81207">
        <ele>573.2</ele>
        <time>2014-05-29T09:21:54.000Z</time>
      </trkpt>
      <trkpt lat="43.67011" lon="6.81202">
        <ele>572.7</ele>
        <time>2014-05-29T09:21:55.000Z</time>
      </trkpt>
      <trkpt lat="43.67011" lon="6.81198">
        <ele>571.9</ele>
        <time>2014-05-29T09:21:56.000Z</time>
      </trkpt>
      <trkpt lat="43.67012" lon="6.81195">
        <ele>571.2</ele>
        <time>2014-05-29T09:21:57.000Z</time>
      </trkpt>
      <trkpt lat="43.67013" lon="6.81191">
        <ele>571</ele>
        <time>2014-05-29T09:21:58.000Z</time>
      </trkpt>
      <trkpt lat="43.67014" lon="6.81188">
        <ele>572.3</ele>
        <time>2014-05-29T09:21:59.000Z</time>
      </trkpt>
      <trkpt lat="43.67015" lon="6.81184">
        <ele>573.1</ele>
        <time>2014-05-29T09:22:00.000Z</time>
      </trkpt>
      <trkpt lat="43.67016" lon="6.8118">
        <ele>572.8</ele>
        <time>2014-05-29T09:22:01.000Z</time>
      </trkpt>
      <trkpt lat="43.67016" lon="6.81177">
        <ele>573.3</ele>
        <time>2014-05-29T09:22:02.000Z</time>
      </trkpt>
      <trkpt lat="43.67014" lon="6.81172">
        <ele>572.5</ele>
        <time>2014-05-29T09:22:12.000Z</time>
      </trkpt>
      <trkpt lat="43.67014" lon="6.8117">
        <ele>572.4</ele>
        <time>2014-05-29T09:22:12.999Z</time>
      </trkpt>
      <trkpt lat="43.67014" lon="6.81165">
        <ele>570.1</ele>
        <time>2014-05-29T09:22:15.000Z</time>
      </trkpt>
      <trkpt lat="43.67014" lon="6.81162">
        <ele>568.8</ele>
        <time>2014-05-29T09:22:16.000Z</time>
      </trkpt>
      <trkpt lat="43.67015" lon="6.81156">
        <ele>571.9</ele>
        <time>2014-05-29T09:22:21.000Z</time>
      </trkpt>
      <trkpt lat="43.67015" lon="6.81155">
        <ele>572.3</ele>
        <time>2014-05-29T09:22:22.000Z</time>
      </trkpt>
      <trkpt lat="43.67015" lon="6.81151">
        <ele>570.2</ele>
        <time>2014-05-29T09:22:23.000Z</time>
      </trkpt>
      <trkpt lat="43.67015" lon="6.81147">
        <ele>570.4</ele>
        <time>2014-05-29T09:22:24.000Z</time>
      </trkpt>
      <trkpt lat="43.67017" lon="6.81142">
        <ele>571.7</ele>
        <time>2014-05-29T09:22:26.998Z</time>
      </trkpt>
      <trkpt lat="43.67017" lon="6.81139">
        <ele>570.8</ele>
        <time>2014-05-29T09:22:28.000Z</time>
      </trkpt>
      <trkpt lat="43.67019" lon="6.81134">
        <ele>570</ele>
        <time>2014-05-29T09:22:30.000Z</time>
      </trkpt>
      <trkpt lat="43.6702" lon="6.81131">
        <ele>569.3</ele>
        <time>2014-05-29T09:22:31.478Z</time>
      </trkpt>
      <trkpt lat="43.6702" lon="6.8113">
        <ele>569.1</ele>
        <time>2014-05-29T09:22:32.000Z</time>
      </trkpt>
      <trkpt lat="43.6702" lon="6.81123">
        <ele>569.3</ele>
        <time>2014-05-29T09:22:34.000Z</time>
      </trkpt>
      <trkpt lat="43.67021" lon="6.8112">
        <ele>569.3</ele>
        <time>2014-05-29T09:22:35.000Z</time>
      </trkpt>
      <trkpt lat="43.67022" lon="6.81116">
        <ele>570.9</ele>
        <time>2014-05-29T09:22:36.000Z</time>
      </trkpt>
      <trkpt lat="43.67023" lon="6.81113">
        <ele>571.9</ele>
        <time>2014-05-29T09:22:37.000Z</time>
      </trkpt>
      <trkpt lat="43.67024" lon="6.81108">
        <ele>571.5</ele>
        <time>2014-05-29T09:22:38.000Z</time>
      </trkpt>
      <trkpt lat="43.67025" lon="6.81105">
        <ele>572.2</ele>
        <time>2014-05-29T09:22:38.998Z</time>
      </trkpt>
      <trkpt lat="43.67027" lon="6.81101">
        <ele>572.1</ele>
        <time>2014-05-29T09:22:40.000Z</time>
      </trkpt>
      <trkpt lat="43.67027" lon="6.81098">
        <ele>571.6</ele>
        <time>2014-05-29T09:22:41.000Z</time>
      </trkpt>
      <trkpt lat="43.67028" lon="6.81095">
        <ele>569</ele>
        <time>2014-05-29T09:22:42.000Z</time>
      </trkpt>
      <trkpt lat="43.67029" lon="6.81092">
        <ele>567.9</ele>
        <time>2014-05-29T09:22:42.998Z</time>
      </trkpt>
      <trkpt lat="43.67031" lon="6.81089">
        <ele>566.8</ele>
        <time>2014-05-29T09:22:44.000Z</time>
      </trkpt>
      <trkpt lat="43.67032" lon="6.81083">
        <ele>566.2</ele>
        <time>2014-05-29T09:22:46.000Z</time>
      </trkpt>
      <trkpt lat="43.67033" lon="6.8108">
        <ele>566.1</ele>
        <time>2014-05-29T09:22:47.000Z</time>
      </trkpt>
      <trkpt lat="43.67033" lon="6.81077">
        <ele>565.2</ele>
        <time>2014-05-29T09:22:48.000Z</time>
      </trkpt>
      <trkpt lat="43.67034" lon="6.81073">
        <ele>566</ele>
        <time>2014-05-29T09:22:49.000Z</time>
      </trkpt>
      <trkpt lat="43.67035" lon="6.8107">
        <ele>565.1</ele>
        <time>2014-05-29T09:22:50.000Z</time>
      </trkpt>
      <trkpt lat="43.67036" lon="6.81066">
        <ele>564.9</ele>
        <time>2014-05-29T09:22:51.000Z</time>
      </trkpt>
      <trkpt lat="43.67036" lon="6.81063">
        <ele>564.2</ele>
        <time>2014-05-29T09:22:52.000Z</time>
      </trkpt>
      <trkpt lat="43.67037" lon="6.81059">
        <ele>564.2</ele>
        <time>2014-05-29T09:22:53.000Z</time>
      </trkpt>
      <trkpt lat="43.67038" lon="6.81056">
        <ele>563.8</ele>
        <time>2014-05-29T09:22:54.000Z</time>
      </trkpt>
      <trkpt lat="43.67039" lon="6.81052">
        <ele>563.4</ele>
        <time>2014-05-29T09:22:55.000Z</time>
      </trkpt>
      <trkpt lat="43.6704" lon="6.81049">
        <ele>562.8</ele>
        <time>2014-05-29T09:22:56.000Z</time>
      </trkpt>
      <trkpt lat="43.6704" lon="6.81045">
        <ele>563.4</ele>
        <time>2014-05-29T09:22:57.000Z</time>
      </trkpt>
      <trkpt lat="43.67042" lon="6.81041">
        <ele>563.3</ele>
        <time>2014-05-29T09:22:58.000Z</time>
      </trkpt>
      <trkpt lat="43.67044" lon="6.81038">
        <ele>561.6</ele>
        <time>2014-05-29T09:22:59.000Z</time>
      </trkpt>
      <trkpt lat="43.67045" lon="6.81034">
        <ele>560.4</ele>
        <time>2014-05-29T09:23:00.000Z</time>
      </trkpt>
      <trkpt lat="43.67046" lon="6.81032">
        <ele>559.8</ele>
        <time>2014-05-29T09:23:01.000Z</time>
      </trkpt>
      <trkpt lat="43.67046" lon="6.81028">
        <ele>560</ele>
        <time>2014-05-29T09:23:01.999Z</time>
      </trkpt>
      <trkpt lat="43.67047" lon="6.81025">
        <ele>559.9</ele>
        <time>2014-05-29T09:23:03.000Z</time>
      </trkpt>
      <trkpt lat="43.67046" lon="6.81019">
        <ele>554.5</ele>
        <time>2014-05-29T09:23:06.000Z</time>
      </trkpt>
      <trkpt lat="43.67046" lon="6.81015">
        <ele>554.4</ele>
        <time>2014-05-29T09:23:07.000Z</time>
      </trkpt>
      <trkpt lat="43.67044" lon="6.8101">
        <ele>553.4</ele>
        <time>2014-05-29T09:23:09.000Z</time>
      </trkpt>
      <trkpt lat="43.67041" lon="6.81005">
        <ele>554.5</ele>
        <time>2014-05-29T09:23:10.000Z</time>
      </trkpt>
      <trkpt lat="43.67041" lon="6.81002">
        <ele>556</ele>
        <time>2014-05-29T09:23:11.000Z</time>
      </trkpt>
      <trkpt lat="43.6704" lon="6.80998">
        <ele>557.8</ele>
        <time>2014-05-29T09:23:11.999Z</time>
      </trkpt>
      <trkpt lat="43.67039" lon="6.80994">
        <ele>559.3</ele>
        <time>2014-05-29T09:23:13.000Z</time>
      </trkpt>
      <trkpt lat="43.67037" lon="6.80991">
        <ele>559.6</ele>
        <time>2014-05-29T09:23:14.000Z</time>
      </trkpt>
      <trkpt lat="43.67034" lon="6.80987">
        <ele>559.9</ele>
        <time>2014-05-29T09:23:15.000Z</time>
      </trkpt>
      <trkpt lat="43.67032" lon="6.80984">
        <ele>560.1</ele>
        <time>2014-05-29T09:23:16.000Z</time>
      </trkpt>
      <trkpt lat="43.67031" lon="6.80981">
        <ele>558.7</ele>
        <time>2014-05-29T09:23:17.000Z</time>
      </trkpt>
      <trkpt lat="43.6703" lon="6.80977">
        <ele>558.6</ele>
        <time>2014-05-29T09:23:18.000Z</time>
      </trkpt>
      <trkpt lat="43.67028" lon="6.80973">
        <ele>558.1</ele>
        <time>2014-05-29T09:23:19.000Z</time>
      </trkpt>
      <trkpt lat="43.67026" lon="6.80969">
        <ele>559.7</ele>
        <time>2014-05-29T09:23:20.000Z</time>
      </trkpt>
      <trkpt lat="43.67024" lon="6.80965">
        <ele>560</ele>
        <time>2014-05-29T09:23:21.000Z</time>
      </trkpt>
      <trkpt lat="43.67022" lon="6.80961">
        <ele>558.7</ele>
        <time>2014-05-29T09:23:22.000Z</time>
      </trkpt>
      <trkpt lat="43.6702" lon="6.80958">
        <ele>557.8</ele>
        <time>2014-05-29T09:23:23.000Z</time>
      </trkpt>
      <trkpt lat="43.67018" lon="6.80954">
        <ele>558.9</ele>
        <time>2014-05-29T09:23:24.000Z</time>
      </trkpt>
      <trkpt lat="43.67017" lon="6.80951">
        <ele>559.9</ele>
        <time>2014-05-29T09:23:25.000Z</time>
      </trkpt>
      <trkpt lat="43.67014" lon="6.80947">
        <ele>560.1</ele>
        <time>2014-05-29T09:23:26.000Z</time>
      </trkpt>
      <trkpt lat="43.67011" lon="6.80943">
        <ele>559.9</ele>
        <time>2014-05-29T09:23:27.000Z</time>
      </trkpt>
      <trkpt lat="43.6701" lon="6.8094">
        <ele>560.9</ele>
        <time>2014-05-29T09:23:28.000Z</time>
      </trkpt>
      <trkpt lat="43.67009" lon="6.80938">
        <ele>561.6</ele>
        <time>2014-05-29T09:23:29.000Z</time>
      </trkpt>
      <trkpt lat="43.67006" lon="6.80934">
        <ele>561.3</ele>
        <time>2014-05-29T09:23:30.000Z</time>
      </trkpt>
      <trkpt lat="43.67003" lon="6.80928">
        <ele>560.7</ele>
        <time>2014-05-29T09:23:31.994Z</time>
      </trkpt>
      <trkpt lat="43.67002" lon="6.80925">
        <ele>560.4</ele>
        <time>2014-05-29T09:23:33.000Z</time>
      </trkpt>
      <trkpt lat="43.67" lon="6.80923">
        <ele>560.3</ele>
        <time>2014-05-29T09:23:34.000Z</time>
      </trkpt>
      <trkpt lat="43.66997" lon="6.8092">
        <ele>563.5</ele>
        <time>2014-05-29T09:23:36.000Z</time>
      </trkpt>
      <trkpt lat="43.66996" lon="6.80918">
        <ele>563.7</ele>
        <time>2014-05-29T09:23:37.000Z</time>
      </trkpt>
      <trkpt lat="43.66994" lon="6.80914">
        <ele>567.2</ele>
        <time>2014-05-29T09:23:40.000Z</time>
      </trkpt>
      <trkpt lat="43.66994" lon="6.80912">
        <ele>566.6</ele>
        <time>2014-05-29T09:23:41.000Z</time>
      </trkpt>
      <trkpt lat="43.66993" lon="6.80907">
        <ele>565.2</ele>
        <time>2014-05-29T09:23:44.000Z</time>
      </trkpt>
      <trkpt lat="43.66993" lon="6.80905">
        <ele>566.3</ele>
        <time>2014-05-29T09:23:45.000Z</time>
      </trkpt>
      <trkpt lat="43.66992" lon="6.80901">
        <ele>565.9</ele>
        <time>2014-05-29T09:23:47.000Z</time>
      </trkpt>
      <trkpt lat="43.66992" lon="6.80899">
        <ele>565.6</ele>
        <time>2014-05-29T09:23:48.000Z</time>
      </trkpt>
      <trkpt lat="43.6699" lon="6.80894">
        <ele>565.9</ele>
        <time>2014-05-29T09:23:51.000Z</time>
      </trkpt>
      <trkpt lat="43.66989" lon="6.80893">
        <ele>566</ele>
        <time>2014-05-29T09:23:52.000Z</time>
      </trkpt>
      <trkpt lat="43.66986" lon="6.80889">
        <ele>567.3</ele>
        <time>2014-05-29T09:23:57.000Z</time>
      </trkpt>
      <trkpt lat="43.66985" lon="6.80889">
        <ele>567.3</ele>
        <time>2014-05-29T09:23:58.000Z</time>
      </trkpt>
      <trkpt lat="43.66981" lon="6.80889">
        <ele>570.1</ele>
        <time>2014-05-29T09:24:04.000Z</time>
      </trkpt>
      <trkpt lat="43.66981" lon="6.80888">
        <ele>570.4</ele>
        <time>2014-05-29T09:24:04.998Z</time>
      </trkpt>
      <trkpt lat="43.66976" lon="6.80888">
        <ele>570.3</ele>
        <time>2014-05-29T09:24:08.000Z</time>
      </trkpt>
      <trkpt lat="43.66975" lon="6.80888">
        <ele>570.9</ele>
        <time>2014-05-29T09:24:08.999Z</time>
      </trkpt>
      <trkpt lat="43.66971" lon="6.80888">
        <ele>573.3</ele>
        <time>2014-05-29T09:24:13.000Z</time>
      </trkpt>
      <trkpt lat="43.66969" lon="6.80888">
        <ele>572.7</ele>
        <time>2014-05-29T09:24:13.998Z</time>
      </trkpt>
      <trkpt lat="43.66965" lon="6.80887">
        <ele>575.7</ele>
        <time>2014-05-29T09:24:19.000Z</time>
      </trkpt>
      <trkpt lat="43.66964" lon="6.80887">
        <ele>576.2</ele>
        <time>2014-05-29T09:24:19.999Z</time>
      </trkpt>
      <trkpt lat="43.66962" lon="6.80882">
        <ele>580.6</ele>
        <time>2014-05-29T09:24:28.000Z</time>
      </trkpt>
      <trkpt lat="43.66961" lon="6.80881">
        <ele>580.3</ele>
        <time>2014-05-29T09:24:28.999Z</time>
      </trkpt>
      <trkpt lat="43.66957" lon="6.8088">
        <ele>582.6</ele>
        <time>2014-05-29T09:24:32.000Z</time>
      </trkpt>
      <trkpt lat="43.66953" lon="6.80879">
        <ele>582.8</ele>
        <time>2014-05-29T09:24:34.000Z</time>
      </trkpt>
      <trkpt lat="43.6695" lon="6.80877">
        <ele>582.4</ele>
        <time>2014-05-29T09:24:36.000Z</time>
      </trkpt>
      <trkpt lat="43.66949" lon="6.80877">
        <ele>582.9</ele>
        <time>2014-05-29T09:24:37.000Z</time>
      </trkpt>
      <trkpt lat="43.66946" lon="6.80873">
        <ele>583.8</ele>
        <time>2014-05-29T09:24:40.999Z</time>
      </trkpt>
      <trkpt lat="43.66944" lon="6.80872">
        <ele>584.8</ele>
        <time>2014-05-29T09:24:42.000Z</time>
      </trkpt>
      <trkpt lat="43.6694" lon="6.80871">
        <ele>584.5</ele>
        <time>2014-05-29T09:24:49.000Z</time>
      </trkpt>
      <trkpt lat="43.66939" lon="6.80871">
        <ele>584.4</ele>
        <time>2014-05-29T09:24:50.000Z</time>
      </trkpt>
      <trkpt lat="43.66937" lon="6.80871">
        <ele>588.6</ele>
        <time>2014-05-29T09:24:55.000Z</time>
      </trkpt>
      <trkpt lat="43.66935" lon="6.80871">
        <ele>588.3</ele>
        <time>2014-05-29T09:24:56.000Z</time>
      </trkpt>
      <trkpt lat="43.66931" lon="6.80871">
        <ele>587.7</ele>
        <time>2014-05-29T09:25:02.000Z</time>
      </trkpt>
      <trkpt lat="43.6693" lon="6.80871">
        <ele>587.4</ele>
        <time>2014-05-29T09:25:03.000Z</time>
      </trkpt>
      <trkpt lat="43.66926" lon="6.8087">
        <ele>588.9</ele>
        <time>2014-05-29T09:27:14.000Z</time>
      </trkpt>
      <trkpt lat="43.66925" lon="6.80869">
        <ele>589.3</ele>
        <time>2014-05-29T09:27:14.998Z</time>
      </trkpt>
      <trkpt lat="43.66921" lon="6.80867">
        <ele>588.2</ele>
        <time>2014-05-29T09:30:00.000Z</time>
      </trkpt>
      <trkpt lat="43.6692" lon="6.80867">
        <ele>586.7</ele>
        <time>2014-05-29T09:30:01.000Z</time>
      </trkpt>
      <trkpt lat="43.6692" lon="6.80861">
        <ele>586.8</ele>
        <time>2014-05-29T09:30:05.000Z</time>
      </trkpt>
      <trkpt lat="43.6692" lon="6.8086">
        <ele>587.8</ele>
        <time>2014-05-29T09:30:06.000Z</time>
      </trkpt>
      <trkpt lat="43.66919" lon="6.80854">
        <ele>589.7</ele>
        <time>2014-05-29T09:30:07.999Z</time>
      </trkpt>
      <trkpt lat="43.66919" lon="6.8085">
        <ele>590.3</ele>
        <time>2014-05-29T09:30:09.000Z</time>
      </trkpt>
      <trkpt lat="43.66915" lon="6.8085">
        <ele>589.8</ele>
        <time>2014-05-29T09:30:10.000Z</time>
      </trkpt>
      <trkpt lat="43.66914" lon="6.80849">
        <ele>590</ele>
        <time>2014-05-29T09:30:11.000Z</time>
      </trkpt>
      <trkpt lat="43.66912" lon="6.80845">
        <ele>591</ele>
        <time>2014-05-29T09:30:15.000Z</time>
      </trkpt>
      <trkpt lat="43.66912" lon="6.80843">
        <ele>590.5</ele>
        <time>2014-05-29T09:30:16.000Z</time>
      </trkpt>
      <trkpt lat="43.66909" lon="6.8084">
        <ele>589.1</ele>
        <time>2014-05-29T09:30:19.000Z</time>
      </trkpt>
      <trkpt lat="43.66908" lon="6.80838">
        <ele>589.4</ele>
        <time>2014-05-29T09:30:20.000Z</time>
      </trkpt>
      <trkpt lat="43.66905" lon="6.80834">
        <ele>589.8</ele>
        <time>2014-05-29T09:30:23.000Z</time>
      </trkpt>
      <trkpt lat="43.66905" lon="6.80833">
        <ele>590</ele>
        <time>2014-05-29T09:30:23.999Z</time>
      </trkpt>
      <trkpt lat="43.66902" lon="6.80829">
        <ele>589.2</ele>
        <time>2014-05-29T09:30:26.000Z</time>
      </trkpt>
      <trkpt lat="43.66902" lon="6.80825">
        <ele>588.2</ele>
        <time>2014-05-29T09:30:27.000Z</time>
      </trkpt>
      <trkpt lat="43.66899" lon="6.80822">
        <ele>589.7</ele>
        <time>2014-05-29T09:30:29.000Z</time>
      </trkpt>
      <trkpt lat="43.66898" lon="6.80821">
        <ele>590.3</ele>
        <time>2014-05-29T09:30:29.999Z</time>
      </trkpt>
      <trkpt lat="43.66898" lon="6.80816">
        <ele>588</ele>
        <time>2014-05-29T09:30:31.000Z</time>
      </trkpt>
      <trkpt lat="43.66898" lon="6.80813">
        <ele>587.4</ele>
        <time>2014-05-29T09:30:32.000Z</time>
      </trkpt>
      <trkpt lat="43.66896" lon="6.80811">
        <ele>587</ele>
        <time>2014-05-29T09:30:33.000Z</time>
      </trkpt>
      <trkpt lat="43.66895" lon="6.80807">
        <ele>587.2</ele>
        <time>2014-05-29T09:30:34.000Z</time>
      </trkpt>
      <trkpt lat="43.66893" lon="6.80806">
        <ele>587.8</ele>
        <time>2014-05-29T09:30:35.000Z</time>
      </trkpt>
      <trkpt lat="43.66878" lon="6.80793">
        <ele>587.8</ele>
        <time>2014-05-29T09:30:45.999Z</time>
      </trkpt>
      <trkpt lat="43.66876" lon="6.80791">
        <ele>588.8</ele>
        <time>2014-05-29T09:30:51.000Z</time>
      </trkpt>
      <trkpt lat="43.66872" lon="6.8079">
        <ele>590.1</ele>
        <time>2014-05-29T09:30:52.000Z</time>
      </trkpt>
      <trkpt lat="43.66868" lon="6.80789">
        <ele>591.6</ele>
        <time>2014-05-29T09:30:53.000Z</time>
      </trkpt>
      <trkpt lat="43.66863" lon="6.80787">
        <ele>590.8</ele>
        <time>2014-05-29T09:30:54.000Z</time>
      </trkpt>
      <trkpt lat="43.6686" lon="6.80787">
        <ele>591.6</ele>
        <time>2014-05-29T09:30:55.000Z</time>
      </trkpt>
      <trkpt lat="43.66856" lon="6.80786">
        <ele>592</ele>
        <time>2014-05-29T09:30:56.000Z</time>
      </trkpt>
      <trkpt lat="43.66852" lon="6.80783">
        <ele>592.5</ele>
        <time>2014-05-29T09:30:57.000Z</time>
      </trkpt>
      <trkpt lat="43.66846" lon="6.80781">
        <ele>592</ele>
        <time>2014-05-29T09:30:58.000Z</time>
      </trkpt>
      <trkpt lat="43.66841" lon="6.80778">
        <ele>590.7</ele>
        <time>2014-05-29T09:30:59.000Z</time>
      </trkpt>
      <trkpt lat="43.66836" lon="6.80775">
        <ele>589.8</ele>
        <time>2014-05-29T09:31:00.000Z</time>
      </trkpt>
      <trkpt lat="43.66829" lon="6.80769">
        <ele>595.2</ele>
        <time>2014-05-29T09:31:01.000Z</time>
      </trkpt>
      <trkpt lat="43.66824" lon="6.80764">
        <ele>594.2</ele>
        <time>2014-05-29T09:31:02.000Z</time>
      </trkpt>
      <trkpt lat="43.6682" lon="6.80761">
        <ele>593</ele>
        <time>2014-05-29T09:31:03.000Z</time>
      </trkpt>
      <trkpt lat="43.66816" lon="6.80758">
        <ele>592</ele>
        <time>2014-05-29T09:31:04.000Z</time>
      </trkpt>
      <trkpt lat="43.66812" lon="6.80755">
        <ele>591.5</ele>
        <time>2014-05-29T09:31:05.000Z</time>
      </trkpt>
      <trkpt lat="43.66808" lon="6.80752">
        <ele>590.3</ele>
        <time>2014-05-29T09:31:06.000Z</time>
      </trkpt>
      <trkpt lat="43.66805" lon="6.80749">
        <ele>589.7</ele>
        <time>2014-05-29T09:31:07.000Z</time>
      </trkpt>
      <trkpt lat="43.66801" lon="6.80747">
        <ele>591.7</ele>
        <time>2014-05-29T09:31:08.000Z</time>
      </trkpt>
      <trkpt lat="43.66799" lon="6.80745">
        <ele>592.4</ele>
        <time>2014-05-29T09:31:08.999Z</time>
      </trkpt>
      <trkpt lat="43.66795" lon="6.80743">
        <ele>592.8</ele>
        <time>2014-05-29T09:31:11.000Z</time>
      </trkpt>
      <trkpt lat="43.66794" lon="6.80741">
        <ele>592.9</ele>
        <time>2014-05-29T09:31:12.000Z</time>
      </trkpt>
      <trkpt lat="43.66793" lon="6.80738">
        <ele>591.8</ele>
        <time>2014-05-29T09:31:13.999Z</time>
      </trkpt>
      <trkpt lat="43.6679" lon="6.80736">
        <ele>589</ele>
        <time>2014-05-29T09:31:15.000Z</time>
      </trkpt>
      <trkpt lat="43.66789" lon="6.80731">
        <ele>588.2</ele>
        <time>2014-05-29T09:31:17.000Z</time>
      </trkpt>
      <trkpt lat="43.66788" lon="6.80729">
        <ele>586.9</ele>
        <time>2014-05-29T09:31:17.999Z</time>
      </trkpt>
      <trkpt lat="43.66787" lon="6.80725">
        <ele>585.2</ele>
        <time>2014-05-29T09:31:20.000Z</time>
      </trkpt>
      <trkpt lat="43.66786" lon="6.80723">
        <ele>585.3</ele>
        <time>2014-05-29T09:31:21.000Z</time>
      </trkpt>
      <trkpt lat="43.66783" lon="6.80718">
        <ele>584.9</ele>
        <time>2014-05-29T09:31:23.000Z</time>
      </trkpt>
      <trkpt lat="43.66781" lon="6.80716">
        <ele>584.1</ele>
        <time>2014-05-29T09:31:23.999Z</time>
      </trkpt>
      <trkpt lat="43.66778" lon="6.80712">
        <ele>583.2</ele>
        <time>2014-05-29T09:31:26.000Z</time>
      </trkpt>
      <trkpt lat="43.66778" lon="6.80707">
        <ele>583.4</ele>
        <time>2014-05-29T09:31:27.000Z</time>
      </trkpt>
      <trkpt lat="43.66777" lon="6.80704">
        <ele>582.8</ele>
        <time>2014-05-29T09:31:28.000Z</time>
      </trkpt>
      <trkpt lat="43.66777" lon="6.80698">
        <ele>582.9</ele>
        <time>2014-05-29T09:31:28.998Z</time>
      </trkpt>
      <trkpt lat="43.66776" lon="6.80694">
        <ele>583.1</ele>
        <time>2014-05-29T09:31:30.000Z</time>
      </trkpt>
      <trkpt lat="43.66775" lon="6.80689">
        <ele>582.9</ele>
        <time>2014-05-29T09:31:31.000Z</time>
      </trkpt>
      <trkpt lat="43.66773" lon="6.80686">
        <ele>583.2</ele>
        <time>2014-05-29T09:31:32.000Z</time>
      </trkpt>
      <trkpt lat="43.66773" lon="6.80683">
        <ele>583.4</ele>
        <time>2014-05-29T09:31:33.000Z</time>
      </trkpt>
      <trkpt lat="43.66771" lon="6.80679">
        <ele>583.5</ele>
        <time>2014-05-29T09:31:34.000Z</time>
      </trkpt>
      <trkpt lat="43.66772" lon="6.80672">
        <ele>580.2</ele>
        <time>2014-05-29T09:31:34.999Z</time>
      </trkpt>
      <trkpt lat="43.6677" lon="6.80668">
        <ele>579.6</ele>
        <time>2014-05-29T09:31:36.000Z</time>
      </trkpt>
      <trkpt lat="43.66769" lon="6.80665">
        <ele>579.9</ele>
        <time>2014-05-29T09:31:36.999Z</time>
      </trkpt>
      <trkpt lat="43.66768" lon="6.80661">
        <ele>579.9</ele>
        <time>2014-05-29T09:31:38.000Z</time>
      </trkpt>
      <trkpt lat="43.66766" lon="6.80657">
        <ele>579.7</ele>
        <time>2014-05-29T09:31:39.000Z</time>
      </trkpt>
      <trkpt lat="43.66767" lon="6.8065">
        <ele>578.6</ele>
        <time>2014-05-29T09:31:40.000Z</time>
      </trkpt>
      <trkpt lat="43.66766" lon="6.80645">
        <ele>578.5</ele>
        <time>2014-05-29T09:31:41.000Z</time>
      </trkpt>
      <trkpt lat="43.66766" lon="6.8064">
        <ele>578.1</ele>
        <time>2014-05-29T09:31:42.000Z</time>
      </trkpt>
      <trkpt lat="43.66766" lon="6.80634">
        <ele>577.7</ele>
        <time>2014-05-29T09:31:43.000Z</time>
      </trkpt>
      <trkpt lat="43.66765" lon="6.80629">
        <ele>578.1</ele>
        <time>2014-05-29T09:31:44.000Z</time>
      </trkpt>
      <trkpt lat="43.66762" lon="6.80623">
        <ele>578.6</ele>
        <time>2014-05-29T09:31:45.000Z</time>
      </trkpt>
      <trkpt lat="43.66762" lon="6.80618">
        <ele>578.6</ele>
        <time>2014-05-29T09:31:45.999Z</time>
      </trkpt>
      <trkpt lat="43.66761" lon="6.80613">
        <ele>578.9</ele>
        <time>2014-05-29T09:31:47.000Z</time>
      </trkpt>
      <trkpt lat="43.6676" lon="6.80609">
        <ele>578.6</ele>
        <time>2014-05-29T09:31:47.999Z</time>
      </trkpt>
      <trkpt lat="43.66758" lon="6.80604">
        <ele>578.5</ele>
        <time>2014-05-29T09:31:48.999Z</time>
      </trkpt>
      <trkpt lat="43.66758" lon="6.80599">
        <ele>578.4</ele>
        <time>2014-05-29T09:31:50.000Z</time>
      </trkpt>
      <trkpt lat="43.66756" lon="6.80595">
        <ele>578</ele>
        <time>2014-05-29T09:31:51.000Z</time>
      </trkpt>
      <trkpt lat="43.66755" lon="6.80592">
        <ele>577.7</ele>
        <time>2014-05-29T09:31:52.000Z</time>
      </trkpt>
      <trkpt lat="43.66754" lon="6.80588">
        <ele>577.7</ele>
        <time>2014-05-29T09:31:53.000Z</time>
      </trkpt>
      <trkpt lat="43.66753" lon="6.80584">
        <ele>576.4</ele>
        <time>2014-05-29T09:31:53.998Z</time>
      </trkpt>
      <trkpt lat="43.66752" lon="6.80579">
        <ele>577.1</ele>
        <time>2014-05-29T09:31:55.000Z</time>
      </trkpt>
      <trkpt lat="43.66752" lon="6.80574">
        <ele>575.8</ele>
        <time>2014-05-29T09:31:56.000Z</time>
      </trkpt>
      <trkpt lat="43.6675" lon="6.80571">
        <ele>575.3</ele>
        <time>2014-05-29T09:31:57.000Z</time>
      </trkpt>
      <trkpt lat="43.66748" lon="6.80567">
        <ele>576</ele>
        <time>2014-05-29T09:31:58.000Z</time>
      </trkpt>
      <trkpt lat="43.66745" lon="6.80563">
        <ele>575.9</ele>
        <time>2014-05-29T09:31:58.999Z</time>
      </trkpt>
      <trkpt lat="43.66743" lon="6.80559">
        <ele>575.9</ele>
        <time>2014-05-29T09:32:00.000Z</time>
      </trkpt>
      <trkpt lat="43.66741" lon="6.80554">
        <ele>575.8</ele>
        <time>2014-05-29T09:32:01.000Z</time>
      </trkpt>
      <trkpt lat="43.66738" lon="6.8055">
        <ele>576</ele>
        <time>2014-05-29T09:32:02.000Z</time>
      </trkpt>
      <trkpt lat="43.66737" lon="6.80543">
        <ele>575.3</ele>
        <time>2014-05-29T09:32:03.000Z</time>
      </trkpt>
      <trkpt lat="43.66735" lon="6.80537">
        <ele>575.3</ele>
        <time>2014-05-29T09:32:04.000Z</time>
      </trkpt>
      <trkpt lat="43.66734" lon="6.80534">
        <ele>574.8</ele>
        <time>2014-05-29T09:32:05.000Z</time>
      </trkpt>
      <trkpt lat="43.66732" lon="6.8053">
        <ele>575</ele>
        <time>2014-05-29T09:32:06.000Z</time>
      </trkpt>
      <trkpt lat="43.66731" lon="6.80526">
        <ele>575.3</ele>
        <time>2014-05-29T09:32:07.000Z</time>
      </trkpt>
      <trkpt lat="43.66729" lon="6.80522">
        <ele>574.1</ele>
        <time>2014-05-29T09:32:08.000Z</time>
      </trkpt>
      <trkpt lat="43.66727" lon="6.80518">
        <ele>574.3</ele>
        <time>2014-05-29T09:32:08.998Z</time>
      </trkpt>
      <trkpt lat="43.66726" lon="6.80514">
        <ele>574.4</ele>
        <time>2014-05-29T09:32:10.000Z</time>
      </trkpt>
      <trkpt lat="43.66724" lon="6.80509">
        <ele>574.7</ele>
        <time>2014-05-29T09:32:11.000Z</time>
      </trkpt>
      <trkpt lat="43.66723" lon="6.80505">
        <ele>574.9</ele>
        <time>2014-05-29T09:32:12.000Z</time>
      </trkpt>
      <trkpt lat="43.66721" lon="6.80501">
        <ele>575.4</ele>
        <time>2014-05-29T09:32:12.999Z</time>
      </trkpt>
      <trkpt lat="43.66719" lon="6.80496">
        <ele>575.5</ele>
        <time>2014-05-29T09:32:14.000Z</time>
      </trkpt>
      <trkpt lat="43.66718" lon="6.80489">
        <ele>575.2</ele>
        <time>2014-05-29T09:32:15.000Z</time>
      </trkpt>
      <trkpt lat="43.66717" lon="6.80484">
        <ele>575.1</ele>
        <time>2014-05-29T09:32:16.000Z</time>
      </trkpt>
      <trkpt lat="43.66715" lon="6.80477">
        <ele>574.6</ele>
        <time>2014-05-29T09:32:17.000Z</time>
      </trkpt>
      <trkpt lat="43.66712" lon="6.80473">
        <ele>574.6</ele>
        <time>2014-05-29T09:32:18.000Z</time>
      </trkpt>
      <trkpt lat="43.6671" lon="6.80469">
        <ele>574</ele>
        <time>2014-05-29T09:32:19.000Z</time>
      </trkpt>
      <trkpt lat="43.66709" lon="6.80463">
        <ele>573.5</ele>
        <time>2014-05-29T09:32:20.000Z</time>
      </trkpt>
      <trkpt lat="43.66709" lon="6.80457">
        <ele>573.5</ele>
        <time>2014-05-29T09:32:21.000Z</time>
      </trkpt>
      <trkpt lat="43.66709" lon="6.80451">
        <ele>573.1</ele>
        <time>2014-05-29T09:32:22.000Z</time>
      </trkpt>
      <trkpt lat="43.66709" lon="6.80444">
        <ele>572.4</ele>
        <time>2014-05-29T09:32:23.000Z</time>
      </trkpt>
      <trkpt lat="43.66709" lon="6.80437">
        <ele>571.7</ele>
        <time>2014-05-29T09:32:24.000Z</time>
      </trkpt>
      <trkpt lat="43.66709" lon="6.8043">
        <ele>571</ele>
        <time>2014-05-29T09:32:25.000Z</time>
      </trkpt>
      <trkpt lat="43.66708" lon="6.80423">
        <ele>570.6</ele>
        <time>2014-05-29T09:32:26.000Z</time>
      </trkpt>
      <trkpt lat="43.66706" lon="6.80417">
        <ele>570.2</ele>
        <time>2014-05-29T09:32:27.000Z</time>
      </trkpt>
      <trkpt lat="43.66706" lon="6.8041">
        <ele>568.3</ele>
        <time>2014-05-29T09:32:27.999Z</time>
      </trkpt>
      <trkpt lat="43.66705" lon="6.80403">
        <ele>566.8</ele>
        <time>2014-05-29T09:32:29.000Z</time>
      </trkpt>
      <trkpt lat="43.66704" lon="6.80396">
        <ele>566.3</ele>
        <time>2014-05-29T09:32:30.000Z</time>
      </trkpt>
      <trkpt lat="43.66704" lon="6.8039">
        <ele>566</ele>
        <time>2014-05-29T09:32:30.999Z</time>
      </trkpt>
      <trkpt lat="43.66703" lon="6.80385">
        <ele>566.8</ele>
        <time>2014-05-29T09:32:32.000Z</time>
      </trkpt>
      <trkpt lat="43.66703" lon="6.80379">
        <ele>567</ele>
        <time>2014-05-29T09:32:33.000Z</time>
      </trkpt>
      <trkpt lat="43.66703" lon="6.80374">
        <ele>567.2</ele>
        <time>2014-05-29T09:32:34.000Z</time>
      </trkpt>
      <trkpt lat="43.66704" lon="6.8037">
        <ele>567.7</ele>
        <time>2014-05-29T09:32:35.000Z</time>
      </trkpt>
      <trkpt lat="43.66706" lon="6.80367">
        <ele>567.7</ele>
        <time>2014-05-29T09:32:36.000Z</time>
      </trkpt>
      <trkpt lat="43.66708" lon="6.80364">
        <ele>567.9</ele>
        <time>2014-05-29T09:32:37.000Z</time>
      </trkpt>
      <trkpt lat="43.66709" lon="6.80359">
        <ele>568</ele>
        <time>2014-05-29T09:32:38.000Z</time>
      </trkpt>
      <trkpt lat="43.6671" lon="6.80355">
        <ele>568.2</ele>
        <time>2014-05-29T09:32:39.000Z</time>
      </trkpt>
      <trkpt lat="43.66711" lon="6.80347">
        <ele>568.5</ele>
        <time>2014-05-29T09:32:40.000Z</time>
      </trkpt>
      <trkpt lat="43.66711" lon="6.80341">
        <ele>568.7</ele>
        <time>2014-05-29T09:32:41.000Z</time>
      </trkpt>
      <trkpt lat="43.66709" lon="6.80336">
        <ele>568.4</ele>
        <time>2014-05-29T09:32:42.000Z</time>
      </trkpt>
      <trkpt lat="43.66707" lon="6.80331">
        <ele>568</ele>
        <time>2014-05-29T09:32:43.000Z</time>
      </trkpt>
      <trkpt lat="43.66705" lon="6.80327">
        <ele>567.8</ele>
        <time>2014-05-29T09:32:44.000Z</time>
      </trkpt>
      <trkpt lat="43.66702" lon="6.80323">
        <ele>568.1</ele>
        <time>2014-05-29T09:32:45.000Z</time>
      </trkpt>
      <trkpt lat="43.667" lon="6.80317">
        <ele>568.3</ele>
        <time>2014-05-29T09:32:46.000Z</time>
      </trkpt>
      <trkpt lat="43.667" lon="6.80313">
        <ele>568.4</ele>
        <time>2014-05-29T09:32:47.000Z</time>
      </trkpt>
      <trkpt lat="43.66701" lon="6.80309">
        <ele>569</ele>
        <time>2014-05-29T09:32:48.000Z</time>
      </trkpt>
      <trkpt lat="43.66701" lon="6.80304">
        <ele>569.5</ele>
        <time>2014-05-29T09:32:49.000Z</time>
      </trkpt>
      <trkpt lat="43.667" lon="6.80299">
        <ele>569.8</ele>
        <time>2014-05-29T09:32:50.000Z</time>
      </trkpt>
      <trkpt lat="43.66696" lon="6.80292">
        <ele>569.2</ele>
        <time>2014-05-29T09:32:51.000Z</time>
      </trkpt>
      <trkpt lat="43.66694" lon="6.80285">
        <ele>569.2</ele>
        <time>2014-05-29T09:32:52.000Z</time>
      </trkpt>
      <trkpt lat="43.66691" lon="6.80279">
        <ele>569</ele>
        <time>2014-05-29T09:32:53.000Z</time>
      </trkpt>
      <trkpt lat="43.66689" lon="6.80274">
        <ele>568.7</ele>
        <time>2014-05-29T09:32:54.000Z</time>
      </trkpt>
      <trkpt lat="43.66686" lon="6.80268">
        <ele>568.2</ele>
        <time>2014-05-29T09:32:55.000Z</time>
      </trkpt>
      <trkpt lat="43.66684" lon="6.80263">
        <ele>568.6</ele>
        <time>2014-05-29T09:32:56.000Z</time>
      </trkpt>
      <trkpt lat="43.66682" lon="6.80258">
        <ele>568</ele>
        <time>2014-05-29T09:32:57.000Z</time>
      </trkpt>
      <trkpt lat="43.66679" lon="6.80253">
        <ele>567.9</ele>
        <time>2014-05-29T09:32:58.000Z</time>
      </trkpt>
      <trkpt lat="43.66677" lon="6.80248">
        <ele>568</ele>
        <time>2014-05-29T09:32:59.000Z</time>
      </trkpt>
      <trkpt lat="43.66676" lon="6.80241">
        <ele>567.9</ele>
        <time>2014-05-29T09:33:00.000Z</time>
      </trkpt>
      <trkpt lat="43.66674" lon="6.80236">
        <ele>568</ele>
        <time>2014-05-29T09:33:01.000Z</time>
      </trkpt>
      <trkpt lat="43.66674" lon="6.8023">
        <ele>567.9</ele>
        <time>2014-05-29T09:33:02.000Z</time>
      </trkpt>
      <trkpt lat="43.66673" lon="6.80226">
        <ele>568.3</ele>
        <time>2014-05-29T09:33:03.000Z</time>
      </trkpt>
      <trkpt lat="43.66671" lon="6.80221">
        <ele>568.8</ele>
        <time>2014-05-29T09:33:04.000Z</time>
      </trkpt>
      <trkpt lat="43.6667" lon="6.80216">
        <ele>568.9</ele>
        <time>2014-05-29T09:33:05.000Z</time>
      </trkpt>
      <trkpt lat="43.66669" lon="6.80211">
        <ele>569</ele>
        <time>2014-05-29T09:33:06.000Z</time>
      </trkpt>
      <trkpt lat="43.66668" lon="6.80205">
        <ele>568.9</ele>
        <time>2014-05-29T09:33:07.000Z</time>
      </trkpt>
      <trkpt lat="43.66667" lon="6.80201">
        <ele>568.9</ele>
        <time>2014-05-29T09:33:08.000Z</time>
      </trkpt>
      <trkpt lat="43.66666" lon="6.80197">
        <ele>569</ele>
        <time>2014-05-29T09:33:09.000Z</time>
      </trkpt>
      <trkpt lat="43.66667" lon="6.80192">
        <ele>569</ele>
        <time>2014-05-29T09:33:10.000Z</time>
      </trkpt>
      <trkpt lat="43.66666" lon="6.80189">
        <ele>569</ele>
        <time>2014-05-29T09:33:11.000Z</time>
      </trkpt>
      <trkpt lat="43.66665" lon="6.80185">
        <ele>569.2</ele>
        <time>2014-05-29T09:33:12.000Z</time>
      </trkpt>
      <trkpt lat="43.66663" lon="6.80182">
        <ele>569.6</ele>
        <time>2014-05-29T09:33:13.000Z</time>
      </trkpt>
      <trkpt lat="43.66662" lon="6.8018">
        <ele>570.4</ele>
        <time>2014-05-29T09:33:14.000Z</time>
      </trkpt>
      <trkpt lat="43.66659" lon="6.80178">
        <ele>575</ele>
        <time>2014-05-29T09:33:16.000Z</time>
      </trkpt>
      <trkpt lat="43.66658" lon="6.80176">
        <ele>575.6</ele>
        <time>2014-05-29T09:33:17.000Z</time>
      </trkpt>
      <trkpt lat="43.66655" lon="6.80175">
        <ele>576.3</ele>
        <time>2014-05-29T09:33:18.000Z</time>
      </trkpt>
      <trkpt lat="43.66654" lon="6.80171">
        <ele>575.8</ele>
        <time>2014-05-29T09:33:19.000Z</time>
      </trkpt>
      <trkpt lat="43.66652" lon="6.80167">
        <ele>575.4</ele>
        <time>2014-05-29T09:33:21.000Z</time>
      </trkpt>
      <trkpt lat="43.66651" lon="6.80165">
        <ele>575.6</ele>
        <time>2014-05-29T09:33:22.000Z</time>
      </trkpt>
      <trkpt lat="43.66651" lon="6.80163">
        <ele>575.4</ele>
        <time>2014-05-29T09:33:23.000Z</time>
      </trkpt>
      <trkpt lat="43.66651" lon="6.80157">
        <ele>575.7</ele>
        <time>2014-05-29T09:33:24.000Z</time>
      </trkpt>
      <trkpt lat="43.66651" lon="6.80153">
        <ele>575</ele>
        <time>2014-05-29T09:33:25.000Z</time>
      </trkpt>
      <trkpt lat="43.66651" lon="6.80149">
        <ele>574.8</ele>
        <time>2014-05-29T09:33:25.999Z</time>
      </trkpt>
      <trkpt lat="43.66651" lon="6.80144">
        <ele>573.9</ele>
        <time>2014-05-29T09:33:27.000Z</time>
      </trkpt>
      <trkpt lat="43.66651" lon="6.80138">
        <ele>572.6</ele>
        <time>2014-05-29T09:33:28.000Z</time>
      </trkpt>
      <trkpt lat="43.66651" lon="6.80133">
        <ele>571.1</ele>
        <time>2014-05-29T09:33:29.000Z</time>
      </trkpt>
      <trkpt lat="43.66649" lon="6.80131">
        <ele>573.8</ele>
        <time>2014-05-29T09:33:29.999Z</time>
      </trkpt>
      <trkpt lat="43.66648" lon="6.80127">
        <ele>574</ele>
        <time>2014-05-29T09:33:31.000Z</time>
      </trkpt>
      <trkpt lat="43.66648" lon="6.80123">
        <ele>574.4</ele>
        <time>2014-05-29T09:33:32.000Z</time>
      </trkpt>
      <trkpt lat="43.66649" lon="6.80117">
        <ele>571</ele>
        <time>2014-05-29T09:33:33.000Z</time>
      </trkpt>
      <trkpt lat="43.66649" lon="6.80112">
        <ele>569.9</ele>
        <time>2014-05-29T09:33:34.000Z</time>
      </trkpt>
      <trkpt lat="43.66648" lon="6.80105">
        <ele>569.4</ele>
        <time>2014-05-29T09:33:34.999Z</time>
      </trkpt>
      <trkpt lat="43.66647" lon="6.80099">
        <ele>569.2</ele>
        <time>2014-05-29T09:33:36.000Z</time>
      </trkpt>
      <trkpt lat="43.66646" lon="6.80094">
        <ele>568.7</ele>
        <time>2014-05-29T09:33:37.000Z</time>
      </trkpt>
      <trkpt lat="43.66645" lon="6.80089">
        <ele>568.3</ele>
        <time>2014-05-29T09:33:38.000Z</time>
      </trkpt>
      <trkpt lat="43.66644" lon="6.80084">
        <ele>567.8</ele>
        <time>2014-05-29T09:33:39.000Z</time>
      </trkpt>
      <trkpt lat="43.66644" lon="6.80079">
        <ele>567.8</ele>
        <time>2014-05-29T09:33:40.000Z</time>
      </trkpt>
      <trkpt lat="43.66645" lon="6.80073">
        <ele>567.8</ele>
        <time>2014-05-29T09:33:41.000Z</time>
      </trkpt>
      <trkpt lat="43.66645" lon="6.80068">
        <ele>567.9</ele>
        <time>2014-05-29T09:33:42.000Z</time>
      </trkpt>
      <trkpt lat="43.66646" lon="6.8006">
        <ele>565.3</ele>
        <time>2014-05-29T09:33:42.999Z</time>
      </trkpt>
      <trkpt lat="43.66645" lon="6.80054">
        <ele>565</ele>
        <time>2014-05-29T09:33:44.000Z</time>
      </trkpt>
      <trkpt lat="43.66645" lon="6.80048">
        <ele>564.8</ele>
        <time>2014-05-29T09:33:45.000Z</time>
      </trkpt>
      <trkpt lat="43.66645" lon="6.80041">
        <ele>565.4</ele>
        <time>2014-05-29T09:33:46.000Z</time>
      </trkpt>
      <trkpt lat="43.66645" lon="6.80035">
        <ele>565.6</ele>
        <time>2014-05-29T09:33:47.000Z</time>
      </trkpt>
      <trkpt lat="43.66645" lon="6.80028">
        <ele>565.6</ele>
        <time>2014-05-29T09:33:48.000Z</time>
      </trkpt>
      <trkpt lat="43.66645" lon="6.80021">
        <ele>565.6</ele>
        <time>2014-05-29T09:33:49.000Z</time>
      </trkpt>
      <trkpt lat="43.66647" lon="6.80015">
        <ele>565.7</ele>
        <time>2014-05-29T09:33:50.000Z</time>
      </trkpt>
      <trkpt lat="43.66647" lon="6.80009">
        <ele>565.6</ele>
        <time>2014-05-29T09:33:51.000Z</time>
      </trkpt>
      <trkpt lat="43.66647" lon="6.80003">
        <ele>565.3</ele>
        <time>2014-05-29T09:33:52.000Z</time>
      </trkpt>
      <trkpt lat="43.66647" lon="6.79997">
        <ele>565.3</ele>
        <time>2014-05-29T09:33:53.000Z</time>
      </trkpt>
      <trkpt lat="43.66647" lon="6.79991">
        <ele>565.2</ele>
        <time>2014-05-29T09:33:54.000Z</time>
      </trkpt>
      <trkpt lat="43.66648" lon="6.79987">
        <ele>565</ele>
        <time>2014-05-29T09:33:55.000Z</time>
      </trkpt>
      <trkpt lat="43.66649" lon="6.79982">
        <ele>565.1</ele>
        <time>2014-05-29T09:33:56.000Z</time>
      </trkpt>
      <trkpt lat="43.6665" lon="6.79977">
        <ele>565.3</ele>
        <time>2014-05-29T09:33:57.000Z</time>
      </trkpt>
      <trkpt lat="43.66647" lon="6.79976">
        <ele>565</ele>
        <time>2014-05-29T09:33:57.998Z</time>
      </trkpt>
      <trkpt lat="43.66646" lon="6.79973">
        <ele>565.3</ele>
        <time>2014-05-29T09:33:59.000Z</time>
      </trkpt>
      <trkpt lat="43.66645" lon="6.79967">
        <ele>565.2</ele>
        <time>2014-05-29T09:34:01.000Z</time>
      </trkpt>
      <trkpt lat="43.66644" lon="6.79966">
        <ele>565.3</ele>
        <time>2014-05-29T09:34:02.000Z</time>
      </trkpt>
      <trkpt lat="43.6664" lon="6.79965">
        <ele>564.4</ele>
        <time>2014-05-29T09:34:03.000Z</time>
      </trkpt>
      <trkpt lat="43.66637" lon="6.79962">
        <ele>564.4</ele>
        <time>2014-05-29T09:34:04.000Z</time>
      </trkpt>
      <trkpt lat="43.66634" lon="6.7996">
        <ele>564.8</ele>
        <time>2014-05-29T09:34:05.000Z</time>
      </trkpt>
      <trkpt lat="43.6663" lon="6.79957">
        <ele>564.1</ele>
        <time>2014-05-29T09:34:06.000Z</time>
      </trkpt>
      <trkpt lat="43.66627" lon="6.79954">
        <ele>563.8</ele>
        <time>2014-05-29T09:34:07.000Z</time>
      </trkpt>
      <trkpt lat="43.66623" lon="6.79952">
        <ele>563.5</ele>
        <time>2014-05-29T09:34:08.000Z</time>
      </trkpt>
      <trkpt lat="43.6662" lon="6.7995">
        <ele>563.7</ele>
        <time>2014-05-29T09:34:09.000Z</time>
      </trkpt>
      <trkpt lat="43.66616" lon="6.79946">
        <ele>563.4</ele>
        <time>2014-05-29T09:34:10.000Z</time>
      </trkpt>
      <trkpt lat="43.66611" lon="6.79942">
        <ele>563.3</ele>
        <time>2014-05-29T09:34:11.000Z</time>
      </trkpt>
      <trkpt lat="43.66607" lon="6.79933">
        <ele>561.2</ele>
        <time>2014-05-29T09:34:12.000Z</time>
      </trkpt>
      <trkpt lat="43.66603" lon="6.79925">
        <ele>560.1</ele>
        <time>2014-05-29T09:34:13.000Z</time>
      </trkpt>
      <trkpt lat="43.66598" lon="6.79918">
        <ele>559.1</ele>
        <time>2014-05-29T09:34:14.000Z</time>
      </trkpt>
      <trkpt lat="43.66593" lon="6.79911">
        <ele>558.4</ele>
        <time>2014-05-29T09:34:15.000Z</time>
      </trkpt>
      <trkpt lat="43.66587" lon="6.79907">
        <ele>557.3</ele>
        <time>2014-05-29T09:34:16.000Z</time>
      </trkpt>
      <trkpt lat="43.6658" lon="6.79903">
        <ele>556.9</ele>
        <time>2014-05-29T09:34:17.000Z</time>
      </trkpt>
      <trkpt lat="43.66574" lon="6.799">
        <ele>557</ele>
        <time>2014-05-29T09:34:18.000Z</time>
      </trkpt>
      <trkpt lat="43.66568" lon="6.79896">
        <ele>555.8</ele>
        <time>2014-05-29T09:34:19.000Z</time>
      </trkpt>
      <trkpt lat="43.66562" lon="6.79893">
        <ele>554.8</ele>
        <time>2014-05-29T09:34:20.000Z</time>
      </trkpt>
      <trkpt lat="43.66556" lon="6.79888">
        <ele>553.7</ele>
        <time>2014-05-29T09:34:21.000Z</time>
      </trkpt>
      <trkpt lat="43.66549" lon="6.79883">
        <ele>552.3</ele>
        <time>2014-05-29T09:34:22.000Z</time>
      </trkpt>
      <trkpt lat="43.66541" lon="6.79879">
        <ele>551.4</ele>
        <time>2014-05-29T09:34:23.000Z</time>
      </trkpt>
      <trkpt lat="43.66534" lon="6.79876">
        <ele>551.8</ele>
        <time>2014-05-29T09:34:24.000Z</time>
      </trkpt>
      <trkpt lat="43.66528" lon="6.79874">
        <ele>551.4</ele>
        <time>2014-05-29T09:34:25.001Z</time>
      </trkpt>
      <trkpt lat="43.66521" lon="6.79873">
        <ele>551.3</ele>
        <time>2014-05-29T09:34:26.000Z</time>
      </trkpt>
      <trkpt lat="43.66517" lon="6.79872">
        <ele>551</ele>
        <time>2014-05-29T09:34:27.000Z</time>
      </trkpt>
      <trkpt lat="43.66511" lon="6.79871">
        <ele>550.7</ele>
        <time>2014-05-29T09:34:28.000Z</time>
      </trkpt>
      <trkpt lat="43.66504" lon="6.79867">
        <ele>550.4</ele>
        <time>2014-05-29T09:34:29.000Z</time>
      </trkpt>
      <trkpt lat="43.66498" lon="6.79861">
        <ele>550</ele>
        <time>2014-05-29T09:34:30.000Z</time>
      </trkpt>
      <trkpt lat="43.66495" lon="6.79849">
        <ele>545.2</ele>
        <time>2014-05-29T09:34:31.000Z</time>
      </trkpt>
      <trkpt lat="43.6649" lon="6.7984">
        <ele>543.6</ele>
        <time>2014-05-29T09:34:32.000Z</time>
      </trkpt>
      <trkpt lat="43.66485" lon="6.79832">
        <ele>542.5</ele>
        <time>2014-05-29T09:34:33.000Z</time>
      </trkpt>
      <trkpt lat="43.6648" lon="6.79824">
        <ele>542.3</ele>
        <time>2014-05-29T09:34:34.000Z</time>
      </trkpt>
      <trkpt lat="43.66474" lon="6.79819">
        <ele>542.2</ele>
        <time>2014-05-29T09:34:35.000Z</time>
      </trkpt>
      <trkpt lat="43.6647" lon="6.79813">
        <ele>541.2</ele>
        <time>2014-05-29T09:34:36.000Z</time>
      </trkpt>
      <trkpt lat="43.66466" lon="6.79807">
        <ele>540.4</ele>
        <time>2014-05-29T09:34:37.000Z</time>
      </trkpt>
      <trkpt lat="43.66463" lon="6.79797">
        <ele>539.6</ele>
        <time>2014-05-29T09:34:38.000Z</time>
      </trkpt>
      <trkpt lat="43.6646" lon="6.79789">
        <ele>537.9</ele>
        <time>2014-05-29T09:34:38.999Z</time>
      </trkpt>
      <trkpt lat="43.66455" lon="6.79781">
        <ele>536.7</ele>
        <time>2014-05-29T09:34:40.000Z</time>
      </trkpt>
      <trkpt lat="43.66451" lon="6.79775">
        <ele>535.8</ele>
        <time>2014-05-29T09:34:41.000Z</time>
      </trkpt>
      <trkpt lat="43.66448" lon="6.79766">
        <ele>534.6</ele>
        <time>2014-05-29T09:34:42.000Z</time>
      </trkpt>
      <trkpt lat="43.66445" lon="6.79757">
        <ele>533.6</ele>
        <time>2014-05-29T09:34:43.000Z</time>
      </trkpt>
      <trkpt lat="43.66442" lon="6.79747">
        <ele>532.5</ele>
        <time>2014-05-29T09:34:44.000Z</time>
      </trkpt>
      <trkpt lat="43.66439" lon="6.79736">
        <ele>531.7</ele>
        <time>2014-05-29T09:34:45.000Z</time>
      </trkpt>
      <trkpt lat="43.66436" lon="6.79725">
        <ele>530.5</ele>
        <time>2014-05-29T09:34:46.000Z</time>
      </trkpt>
      <trkpt lat="43.66435" lon="6.79715">
        <ele>529.5</ele>
        <time>2014-05-29T09:34:47.000Z</time>
      </trkpt>
      <trkpt lat="43.66432" lon="6.79706">
        <ele>530</ele>
        <time>2014-05-29T09:34:47.999Z</time>
      </trkpt>
      <trkpt lat="43.66429" lon="6.79699">
        <ele>529.9</ele>
        <time>2014-05-29T09:34:49.000Z</time>
      </trkpt>
      <trkpt lat="43.66423" lon="6.79694">
        <ele>531.4</ele>
        <time>2014-05-29T09:34:49.999Z</time>
      </trkpt>
      <trkpt lat="43.66418" lon="6.7969">
        <ele>530.7</ele>
        <time>2014-05-29T09:34:50.998Z</time>
      </trkpt>
      <trkpt lat="43.66413" lon="6.79687">
        <ele>530.3</ele>
        <time>2014-05-29T09:34:52.000Z</time>
      </trkpt>
      <trkpt lat="43.66409" lon="6.79685">
        <ele>530.1</ele>
        <time>2014-05-29T09:34:53.000Z</time>
      </trkpt>
      <trkpt lat="43.66405" lon="6.79683">
        <ele>529.8</ele>
        <time>2014-05-29T09:34:54.000Z</time>
      </trkpt>
      <trkpt lat="43.66402" lon="6.79682">
        <ele>529.8</ele>
        <time>2014-05-29T09:34:55.000Z</time>
      </trkpt>
      <trkpt lat="43.66397" lon="6.79681">
        <ele>529.8</ele>
        <time>2014-05-29T09:34:56.000Z</time>
      </trkpt>
      <trkpt lat="43.66391" lon="6.79679">
        <ele>530.2</ele>
        <time>2014-05-29T09:34:57.000Z</time>
      </trkpt>
      <trkpt lat="43.66387" lon="6.79678">
        <ele>530.3</ele>
        <time>2014-05-29T09:34:58.000Z</time>
      </trkpt>
      <trkpt lat="43.6638" lon="6.79675">
        <ele>529.7</ele>
        <time>2014-05-29T09:34:59.000Z</time>
      </trkpt>
      <trkpt lat="43.66371" lon="6.79673">
        <ele>529.4</ele>
        <time>2014-05-29T09:35:00.000Z</time>
      </trkpt>
      <trkpt lat="43.66362" lon="6.79671">
        <ele>529.4</ele>
        <time>2014-05-29T09:35:01.000Z</time>
      </trkpt>
      <trkpt lat="43.66357" lon="6.79664">
        <ele>528.6</ele>
        <time>2014-05-29T09:35:02.000Z</time>
      </trkpt>
      <trkpt lat="43.66351" lon="6.7966">
        <ele>528.1</ele>
        <time>2014-05-29T09:35:03.000Z</time>
      </trkpt>
      <trkpt lat="43.66345" lon="6.79657">
        <ele>527.2</ele>
        <time>2014-05-29T09:35:04.000Z</time>
      </trkpt>
      <trkpt lat="43.66338" lon="6.79652">
        <ele>526.5</ele>
        <time>2014-05-29T09:35:05.000Z</time>
      </trkpt>
      <trkpt lat="43.66332" lon="6.7965">
        <ele>526.7</ele>
        <time>2014-05-29T09:35:06.000Z</time>
      </trkpt>
      <trkpt lat="43.66325" lon="6.79647">
        <ele>526.5</ele>
        <time>2014-05-29T09:35:07.000Z</time>
      </trkpt>
      <trkpt lat="43.66319" lon="6.79643">
        <ele>526.3</ele>
        <time>2014-05-29T09:35:08.000Z</time>
      </trkpt>
      <trkpt lat="43.66313" lon="6.7964">
        <ele>526.2</ele>
        <time>2014-05-29T09:35:09.000Z</time>
      </trkpt>
      <trkpt lat="43.66308" lon="6.79635">
        <ele>525.9</ele>
        <time>2014-05-29T09:35:10.000Z</time>
      </trkpt>
      <trkpt lat="43.66302" lon="6.79631">
        <ele>526</ele>
        <time>2014-05-29T09:35:11.000Z</time>
      </trkpt>
      <trkpt lat="43.66296" lon="6.79628">
        <ele>526</ele>
        <time>2014-05-29T09:35:12.000Z</time>
      </trkpt>
      <trkpt lat="43.6629" lon="6.79625">
        <ele>526.3</ele>
        <time>2014-05-29T09:35:13.000Z</time>
      </trkpt>
      <trkpt lat="43.66284" lon="6.79623">
        <ele>526.2</ele>
        <time>2014-05-29T09:35:14.000Z</time>
      </trkpt>
      <trkpt lat="43.66278" lon="6.79621">
        <ele>526</ele>
        <time>2014-05-29T09:35:15.000Z</time>
      </trkpt>
      <trkpt lat="43.66272" lon="6.79618">
        <ele>525.6</ele>
        <time>2014-05-29T09:35:16.000Z</time>
      </trkpt>
      <trkpt lat="43.66267" lon="6.79614">
        <ele>525.2</ele>
        <time>2014-05-29T09:35:17.000Z</time>
      </trkpt>
      <trkpt lat="43.66261" lon="6.79611">
        <ele>524.5</ele>
        <time>2014-05-29T09:35:18.000Z</time>
      </trkpt>
      <trkpt lat="43.66255" lon="6.79608">
        <ele>524</ele>
        <time>2014-05-29T09:35:19.000Z</time>
      </trkpt>
      <trkpt lat="43.6625" lon="6.79606">
        <ele>523.6</ele>
        <time>2014-05-29T09:35:20.000Z</time>
      </trkpt>
      <trkpt lat="43.66244" lon="6.79604">
        <ele>523.4</ele>
        <time>2014-05-29T09:35:21.000Z</time>
      </trkpt>
      <trkpt lat="43.66238" lon="6.79603">
        <ele>523.2</ele>
        <time>2014-05-29T09:35:22.000Z</time>
      </trkpt>
      <trkpt lat="43.66234" lon="6.79601">
        <ele>523.5</ele>
        <time>2014-05-29T09:35:23.000Z</time>
      </trkpt>
      <trkpt lat="43.66229" lon="6.796">
        <ele>523.1</ele>
        <time>2014-05-29T09:35:24.000Z</time>
      </trkpt>
      <trkpt lat="43.66225" lon="6.79598">
        <ele>523.2</ele>
        <time>2014-05-29T09:35:25.000Z</time>
      </trkpt>
      <trkpt lat="43.66221" lon="6.79596">
        <ele>523.2</ele>
        <time>2014-05-29T09:35:26.000Z</time>
      </trkpt>
      <trkpt lat="43.66216" lon="6.79593">
        <ele>523.9</ele>
        <time>2014-05-29T09:35:27.000Z</time>
      </trkpt>
      <trkpt lat="43.6621" lon="6.79591">
        <ele>523.2</ele>
        <time>2014-05-29T09:35:28.000Z</time>
      </trkpt>
      <trkpt lat="43.66204" lon="6.79588">
        <ele>522.9</ele>
        <time>2014-05-29T09:35:29.000Z</time>
      </trkpt>
      <trkpt lat="43.66199" lon="6.79585">
        <ele>522.7</ele>
        <time>2014-05-29T09:35:30.000Z</time>
      </trkpt>
      <trkpt lat="43.66194" lon="6.79582">
        <ele>522.5</ele>
        <time>2014-05-29T09:35:31.000Z</time>
      </trkpt>
      <trkpt lat="43.66191" lon="6.79579">
        <ele>522.2</ele>
        <time>2014-05-29T09:35:32.000Z</time>
      </trkpt>
      <trkpt lat="43.66188" lon="6.79576">
        <ele>521.8</ele>
        <time>2014-05-29T09:35:33.000Z</time>
      </trkpt>
      <trkpt lat="43.66186" lon="6.79571">
        <ele>521.4</ele>
        <time>2014-05-29T09:35:35.000Z</time>
      </trkpt>
      <trkpt lat="43.66184" lon="6.79567">
        <ele>522.8</ele>
        <time>2014-05-29T09:35:44.397Z</time>
      </trkpt>
      <trkpt lat="43.66188" lon="6.79564">
        <ele>523.5</ele>
        <time>2014-05-29T09:35:50.000Z</time>
      </trkpt>
      <trkpt lat="43.66189" lon="6.79563">
        <ele>523.5</ele>
        <time>2014-05-29T09:35:51.000Z</time>
      </trkpt>
      <trkpt lat="43.66189" lon="6.79558">
        <ele>523.1</ele>
        <time>2014-05-29T09:35:54.000Z</time>
      </trkpt>
      <trkpt lat="43.66189" lon="6.79556">
        <ele>523.1</ele>
        <time>2014-05-29T09:35:55.000Z</time>
      </trkpt>
      <trkpt lat="43.66187" lon="6.7956">
        <ele>523.4</ele>
        <time>2014-05-29T09:35:59.000Z</time>
      </trkpt>
      <trkpt lat="43.66187" lon="6.79561">
        <ele>524.3</ele>
        <time>2014-05-29T09:36:00.000Z</time>
      </trkpt>
      <trkpt lat="43.66189" lon="6.79558">
        <ele>524.3</ele>
        <time>2014-05-29T09:36:05.000Z</time>
      </trkpt>
      <trkpt lat="43.6619" lon="6.79556">
        <ele>524.1</ele>
        <time>2014-05-29T09:36:06.000Z</time>
      </trkpt>
      <trkpt lat="43.66192" lon="6.7955">
        <ele>523.7</ele>
        <time>2014-05-29T09:36:09.000Z</time>
      </trkpt>
      <trkpt lat="43.66193" lon="6.79549">
        <ele>523.5</ele>
        <time>2014-05-29T09:36:10.000Z</time>
      </trkpt>
      <trkpt lat="43.66195" lon="6.79546">
        <ele>523</ele>
        <time>2014-05-29T09:36:12.000Z</time>
      </trkpt>
      <trkpt lat="43.66197" lon="6.79544">
        <ele>522.8</ele>
        <time>2014-05-29T09:36:13.000Z</time>
      </trkpt>
      <trkpt lat="43.66198" lon="6.79539">
        <ele>522.2</ele>
        <time>2014-05-29T09:36:15.000Z</time>
      </trkpt>
      <trkpt lat="43.662" lon="6.79537">
        <ele>522.1</ele>
        <time>2014-05-29T09:36:16.000Z</time>
      </trkpt>
      <trkpt lat="43.66201" lon="6.79532">
        <ele>522.1</ele>
        <time>2014-05-29T09:36:18.000Z</time>
      </trkpt>
      <trkpt lat="43.66202" lon="6.79529">
        <ele>522</ele>
        <time>2014-05-29T09:36:19.000Z</time>
      </trkpt>
      <trkpt lat="43.66203" lon="6.79524">
        <ele>521.7</ele>
        <time>2014-05-29T09:36:21.000Z</time>
      </trkpt>
      <trkpt lat="43.66204" lon="6.79522">
        <ele>521.6</ele>
        <time>2014-05-29T09:36:22.000Z</time>
      </trkpt>
      <trkpt lat="43.66205" lon="6.79517">
        <ele>521.6</ele>
        <time>2014-05-29T09:36:24.000Z</time>
      </trkpt>
      <trkpt lat="43.66205" lon="6.79515">
        <ele>521.4</ele>
        <time>2014-05-29T09:36:25.000Z</time>
      </trkpt>
      <trkpt lat="43.66206" lon="6.79509">
        <ele>521.6</ele>
        <time>2014-05-29T09:36:29.000Z</time>
      </trkpt>
      <trkpt lat="43.66206" lon="6.79506">
        <ele>521.6</ele>
        <time>2014-05-29T09:36:30.000Z</time>
      </trkpt>
      <trkpt lat="43.66207" lon="6.79502">
        <ele>521.9</ele>
        <time>2014-05-29T09:36:31.000Z</time>
      </trkpt>
      <trkpt lat="43.66208" lon="6.79499">
        <ele>522.3</ele>
        <time>2014-05-29T09:36:32.000Z</time>
      </trkpt>
      <trkpt lat="43.66209" lon="6.79494">
        <ele>523.8</ele>
        <time>2014-05-29T09:36:34.000Z</time>
      </trkpt>
      <trkpt lat="43.6621" lon="6.79488">
        <ele>521.9</ele>
        <time>2014-05-29T09:36:35.000Z</time>
      </trkpt>
      <trkpt lat="43.66211" lon="6.79484">
        <ele>521.4</ele>
        <time>2014-05-29T09:36:35.999Z</time>
      </trkpt>
      <trkpt lat="43.66212" lon="6.7948">
        <ele>521.7</ele>
        <time>2014-05-29T09:36:37.000Z</time>
      </trkpt>
      <trkpt lat="43.66213" lon="6.79476">
        <ele>520.8</ele>
        <time>2014-05-29T09:36:38.000Z</time>
      </trkpt>
      <trkpt lat="43.66213" lon="6.79473">
        <ele>521.1</ele>
        <time>2014-05-29T09:36:39.000Z</time>
      </trkpt>
      <trkpt lat="43.66214" lon="6.7947">
        <ele>521.1</ele>
        <time>2014-05-29T09:36:40.000Z</time>
      </trkpt>
      <trkpt lat="43.66215" lon="6.79466">
        <ele>521.6</ele>
        <time>2014-05-29T09:36:41.000Z</time>
      </trkpt>
      <trkpt lat="43.66215" lon="6.79461">
        <ele>522.7</ele>
        <time>2014-05-29T09:36:43.000Z</time>
      </trkpt>
      <trkpt lat="43.66215" lon="6.79458">
        <ele>522.9</ele>
        <time>2014-05-29T09:36:43.999Z</time>
      </trkpt>
      <trkpt lat="43.66215" lon="6.79455">
        <ele>523.5</ele>
        <time>2014-05-29T09:36:45.000Z</time>
      </trkpt>
      <trkpt lat="43.66216" lon="6.79452">
        <ele>523.6</ele>
        <time>2014-05-29T09:36:46.000Z</time>
      </trkpt>
      <trkpt lat="43.66216" lon="6.79448">
        <ele>523.1</ele>
        <time>2014-05-29T09:36:47.000Z</time>
      </trkpt>
      <trkpt lat="43.66217" lon="6.79444">
        <ele>523.1</ele>
        <time>2014-05-29T09:36:47.998Z</time>
      </trkpt>
      <trkpt lat="43.66218" lon="6.7944">
        <ele>523.3</ele>
        <time>2014-05-29T09:36:49.000Z</time>
      </trkpt>
      <trkpt lat="43.6622" lon="6.79437">
        <ele>523.4</ele>
        <time>2014-05-29T09:36:50.000Z</time>
      </trkpt>
      <trkpt lat="43.66221" lon="6.79433">
        <ele>523.6</ele>
        <time>2014-05-29T09:36:51.000Z</time>
      </trkpt>
      <trkpt lat="43.66223" lon="6.79429">
        <ele>523.5</ele>
        <time>2014-05-29T09:36:52.000Z</time>
      </trkpt>
      <trkpt lat="43.66224" lon="6.79425">
        <ele>523.9</ele>
        <time>2014-05-29T09:36:53.000Z</time>
      </trkpt>
      <trkpt lat="43.66226" lon="6.79422">
        <ele>523.9</ele>
        <time>2014-05-29T09:36:54.000Z</time>
      </trkpt>
      <trkpt lat="43.66229" lon="6.79419">
        <ele>523</ele>
        <time>2014-05-29T09:36:55.000Z</time>
      </trkpt>
      <trkpt lat="43.66232" lon="6.79417">
        <ele>523</ele>
        <time>2014-05-29T09:36:56.000Z</time>
      </trkpt>
      <trkpt lat="43.66235" lon="6.79414">
        <ele>522.8</ele>
        <time>2014-05-29T09:36:57.000Z</time>
      </trkpt>
      <trkpt lat="43.66238" lon="6.79412">
        <ele>522.8</ele>
        <time>2014-05-29T09:36:58.000Z</time>
      </trkpt>
      <trkpt lat="43.66241" lon="6.79411">
        <ele>522.9</ele>
        <time>2014-05-29T09:36:59.000Z</time>
      </trkpt>
      <trkpt lat="43.66244" lon="6.7941">
        <ele>522.4</ele>
        <time>2014-05-29T09:37:00.000Z</time>
      </trkpt>
      <trkpt lat="43.66248" lon="6.7941">
        <ele>521.9</ele>
        <time>2014-05-29T09:37:01.000Z</time>
      </trkpt>
      <trkpt lat="43.66251" lon="6.7941">
        <ele>521.3</ele>
        <time>2014-05-29T09:37:02.000Z</time>
      </trkpt>
      <trkpt lat="43.66253" lon="6.79411">
        <ele>522.2</ele>
        <time>2014-05-29T09:37:03.000Z</time>
      </trkpt>
      <trkpt lat="43.66256" lon="6.79411">
        <ele>522.9</ele>
        <time>2014-05-29T09:37:04.000Z</time>
      </trkpt>
      <trkpt lat="43.66259" lon="6.79412">
        <ele>522.4</ele>
        <time>2014-05-29T09:37:05.000Z</time>
      </trkpt>
      <trkpt lat="43.66262" lon="6.79412">
        <ele>522.4</ele>
        <time>2014-05-29T09:37:06.000Z</time>
      </trkpt>
      <trkpt lat="43.66264" lon="6.79413">
        <ele>522</ele>
        <time>2014-05-29T09:37:07.000Z</time>
      </trkpt>
      <trkpt lat="43.66267" lon="6.79413">
        <ele>521.8</ele>
        <time>2014-05-29T09:37:08.000Z</time>
      </trkpt>
      <trkpt lat="43.6627" lon="6.79414">
        <ele>521.7</ele>
        <time>2014-05-29T09:37:09.000Z</time>
      </trkpt>
      <trkpt lat="43.66273" lon="6.79414">
        <ele>521.7</ele>
        <time>2014-05-29T09:37:10.000Z</time>
      </trkpt>
      <trkpt lat="43.66276" lon="6.79415">
        <ele>521.8</ele>
        <time>2014-05-29T09:37:11.000Z</time>
      </trkpt>
      <trkpt lat="43.66278" lon="6.79415">
        <ele>522.1</ele>
        <time>2014-05-29T09:37:12.000Z</time>
      </trkpt>
      <trkpt lat="43.66281" lon="6.79415">
        <ele>522.2</ele>
        <time>2014-05-29T09:37:13.000Z</time>
      </trkpt>
      <trkpt lat="43.66284" lon="6.79417">
        <ele>522</ele>
        <time>2014-05-29T09:37:14.000Z</time>
      </trkpt>
      <trkpt lat="43.66286" lon="6.79418">
        <ele>521.8</ele>
        <time>2014-05-29T09:37:15.000Z</time>
      </trkpt>
      <trkpt lat="43.66289" lon="6.79419">
        <ele>521.7</ele>
        <time>2014-05-29T09:37:16.000Z</time>
      </trkpt>
      <trkpt lat="43.66291" lon="6.7942">
        <ele>521.8</ele>
        <time>2014-05-29T09:37:17.000Z</time>
      </trkpt>
      <trkpt lat="43.66294" lon="6.79421">
        <ele>520.9</ele>
        <time>2014-05-29T09:37:18.000Z</time>
      </trkpt>
      <trkpt lat="43.66296" lon="6.79421">
        <ele>520.6</ele>
        <time>2014-05-29T09:37:19.000Z</time>
      </trkpt>
      <trkpt lat="43.66299" lon="6.79421">
        <ele>520.2</ele>
        <time>2014-05-29T09:37:20.000Z</time>
      </trkpt>
      <trkpt lat="43.66302" lon="6.79423">
        <ele>519.6</ele>
        <time>2014-05-29T09:37:21.000Z</time>
      </trkpt>
      <trkpt lat="43.66304" lon="6.79424">
        <ele>518.7</ele>
        <time>2014-05-29T09:37:22.000Z</time>
      </trkpt>
      <trkpt lat="43.66307" lon="6.79424">
        <ele>518</ele>
        <time>2014-05-29T09:37:23.000Z</time>
      </trkpt>
      <trkpt lat="43.66309" lon="6.79425">
        <ele>517.5</ele>
        <time>2014-05-29T09:37:24.000Z</time>
      </trkpt>
      <trkpt lat="43.66311" lon="6.79426">
        <ele>518.8</ele>
        <time>2014-05-29T09:37:25.000Z</time>
      </trkpt>
      <trkpt lat="43.66313" lon="6.79428">
        <ele>518.7</ele>
        <time>2014-05-29T09:37:26.000Z</time>
      </trkpt>
      <trkpt lat="43.66316" lon="6.79429">
        <ele>518.6</ele>
        <time>2014-05-29T09:37:27.000Z</time>
      </trkpt>
      <trkpt lat="43.66318" lon="6.7943">
        <ele>518.4</ele>
        <time>2014-05-29T09:37:28.000Z</time>
      </trkpt>
      <trkpt lat="43.66322" lon="6.79432">
        <ele>518.4</ele>
        <time>2014-05-29T09:37:30.000Z</time>
      </trkpt>
      <trkpt lat="43.66324" lon="6.79432">
        <ele>518.8</ele>
        <time>2014-05-29T09:37:31.000Z</time>
      </trkpt>
      <trkpt lat="43.66329" lon="6.79434">
        <ele>520</ele>
        <time>2014-05-29T09:37:33.000Z</time>
      </trkpt>
      <trkpt lat="43.6633" lon="6.79436">
        <ele>519.6</ele>
        <time>2014-05-29T09:37:34.000Z</time>
      </trkpt>
      <trkpt lat="43.66334" lon="6.79439">
        <ele>520.1</ele>
        <time>2014-05-29T09:37:36.000Z</time>
      </trkpt>
      <trkpt lat="43.66335" lon="6.7944">
        <ele>521.7</ele>
        <time>2014-05-29T09:37:37.000Z</time>
      </trkpt>
      <trkpt lat="43.66339" lon="6.79441">
        <ele>522</ele>
        <time>2014-05-29T09:37:39.000Z</time>
      </trkpt>
      <trkpt lat="43.66341" lon="6.79443">
        <ele>523.1</ele>
        <time>2014-05-29T09:37:40.000Z</time>
      </trkpt>
      <trkpt lat="43.66344" lon="6.79445">
        <ele>524.1</ele>
        <time>2014-05-29T09:37:42.000Z</time>
      </trkpt>
      <trkpt lat="43.66345" lon="6.79446">
        <ele>525</ele>
        <time>2014-05-29T09:37:42.999Z</time>
      </trkpt>
      <trkpt lat="43.66348" lon="6.79449">
        <ele>524.9</ele>
        <time>2014-05-29T09:37:45.000Z</time>
      </trkpt>
      <trkpt lat="43.6635" lon="6.7945">
        <ele>525</ele>
        <time>2014-05-29T09:37:46.000Z</time>
      </trkpt>
      <trkpt lat="43.66352" lon="6.79452">
        <ele>525.9</ele>
        <time>2014-05-29T09:37:48.000Z</time>
      </trkpt>
      <trkpt lat="43.66354" lon="6.79454">
        <ele>525.9</ele>
        <time>2014-05-29T09:37:49.000Z</time>
      </trkpt>
      <trkpt lat="43.66358" lon="6.79456">
        <ele>526.4</ele>
        <time>2014-05-29T09:37:51.000Z</time>
      </trkpt>
      <trkpt lat="43.66359" lon="6.79457">
        <ele>526.2</ele>
        <time>2014-05-29T09:37:52.000Z</time>
      </trkpt>
      <trkpt lat="43.66363" lon="6.79459">
        <ele>527.5</ele>
        <time>2014-05-29T09:37:54.000Z</time>
      </trkpt>
      <trkpt lat="43.66364" lon="6.7946">
        <ele>528.3</ele>
        <time>2014-05-29T09:37:55.000Z</time>
      </trkpt>
      <trkpt lat="43.66367" lon="6.79465">
        <ele>535.4</ele>
        <time>2014-05-29T09:37:58.000Z</time>
      </trkpt>
      <trkpt lat="43.66368" lon="6.79466">
        <ele>536.2</ele>
        <time>2014-05-29T09:37:59.000Z</time>
      </trkpt>
      <trkpt lat="43.66371" lon="6.79467">
        <ele>537.5</ele>
        <time>2014-05-29T09:38:01.000Z</time>
      </trkpt>
      <trkpt lat="43.66372" lon="6.7947">
        <ele>537.4</ele>
        <time>2014-05-29T09:38:02.000Z</time>
      </trkpt>
      <trkpt lat="43.66374" lon="6.79473">
        <ele>537.6</ele>
        <time>2014-05-29T09:38:03.000Z</time>
      </trkpt>
      <trkpt lat="43.66376" lon="6.79475">
        <ele>537</ele>
        <time>2014-05-29T09:38:04.000Z</time>
      </trkpt>
      <trkpt lat="43.66378" lon="6.79477">
        <ele>536.6</ele>
        <time>2014-05-29T09:38:05.000Z</time>
      </trkpt>
      <trkpt lat="43.6638" lon="6.79479">
        <ele>536.4</ele>
        <time>2014-05-29T09:38:06.000Z</time>
      </trkpt>
      <trkpt lat="43.66384" lon="6.79479">
        <ele>537</ele>
        <time>2014-05-29T09:38:08.000Z</time>
      </trkpt>
      <trkpt lat="43.66385" lon="6.7948">
        <ele>537.4</ele>
        <time>2014-05-29T09:38:09.000Z</time>
      </trkpt>
      <trkpt lat="43.66388" lon="6.79482">
        <ele>538.1</ele>
        <time>2014-05-29T09:38:10.000Z</time>
      </trkpt>
      <trkpt lat="43.6639" lon="6.79483">
        <ele>538.4</ele>
        <time>2014-05-29T09:38:11.000Z</time>
      </trkpt>
      <trkpt lat="43.66393" lon="6.79485">
        <ele>538.7</ele>
        <time>2014-05-29T09:38:13.000Z</time>
      </trkpt>
      <trkpt lat="43.66395" lon="6.79489">
        <ele>537.3</ele>
        <time>2014-05-29T09:38:14.000Z</time>
      </trkpt>
      <trkpt lat="43.66398" lon="6.79491">
        <ele>537.9</ele>
        <time>2014-05-29T09:38:16.000Z</time>
      </trkpt>
      <trkpt lat="43.664" lon="6.79492">
        <ele>538.1</ele>
        <time>2014-05-29T09:38:17.000Z</time>
      </trkpt>
      <trkpt lat="43.66404" lon="6.79493">
        <ele>539.2</ele>
        <time>2014-05-29T09:38:19.000Z</time>
      </trkpt>
      <trkpt lat="43.66406" lon="6.79494">
        <ele>539.4</ele>
        <time>2014-05-29T09:38:20.000Z</time>
      </trkpt>
      <trkpt lat="43.66409" lon="6.79494">
        <ele>539.8</ele>
        <time>2014-05-29T09:38:22.000Z</time>
      </trkpt>
      <trkpt lat="43.66411" lon="6.79496">
        <ele>539.9</ele>
        <time>2014-05-29T09:38:23.000Z</time>
      </trkpt>
      <trkpt lat="43.66415" lon="6.79498">
        <ele>539.1</ele>
        <time>2014-05-29T09:38:25.000Z</time>
      </trkpt>
      <trkpt lat="43.66417" lon="6.79498">
        <ele>539.1</ele>
        <time>2014-05-29T09:38:26.000Z</time>
      </trkpt>
      <trkpt lat="43.6642" lon="6.79499">
        <ele>539.9</ele>
        <time>2014-05-29T09:38:29.000Z</time>
      </trkpt>
      <trkpt lat="43.66422" lon="6.795">
        <ele>539.7</ele>
        <time>2014-05-29T09:38:30.000Z</time>
      </trkpt>
      <trkpt lat="43.66425" lon="6.79504">
        <ele>538.4</ele>
        <time>2014-05-29T09:38:31.502Z</time>
      </trkpt>
      <trkpt lat="43.66425" lon="6.79505">
        <ele>538.4</ele>
        <time>2014-05-29T09:38:32.001Z</time>
      </trkpt>
      <trkpt lat="43.6643" lon="6.79509">
        <ele>538</ele>
        <time>2014-05-29T09:38:34.000Z</time>
      </trkpt>
      <trkpt lat="43.66434" lon="6.7951">
        <ele>538</ele>
        <time>2014-05-29T09:38:35.000Z</time>
      </trkpt>
      <trkpt lat="43.66437" lon="6.7951">
        <ele>538</ele>
        <time>2014-05-29T09:38:36.000Z</time>
      </trkpt>
      <trkpt lat="43.6644" lon="6.79515">
        <ele>535.6</ele>
        <time>2014-05-29T09:38:36.999Z</time>
      </trkpt>
      <trkpt lat="43.66443" lon="6.79517">
        <ele>535.5</ele>
        <time>2014-05-29T09:38:38.000Z</time>
      </trkpt>
      <trkpt lat="43.66445" lon="6.79518">
        <ele>535.3</ele>
        <time>2014-05-29T09:38:39.000Z</time>
      </trkpt>
      <trkpt lat="43.66448" lon="6.79519">
        <ele>535.4</ele>
        <time>2014-05-29T09:38:40.000Z</time>
      </trkpt>
      <trkpt lat="43.66451" lon="6.7952">
        <ele>535.4</ele>
        <time>2014-05-29T09:38:41.000Z</time>
      </trkpt>
      <trkpt lat="43.66454" lon="6.79521">
        <ele>535.6</ele>
        <time>2014-05-29T09:38:42.000Z</time>
      </trkpt>
      <trkpt lat="43.66457" lon="6.79522">
        <ele>536</ele>
        <time>2014-05-29T09:38:43.000Z</time>
      </trkpt>
      <trkpt lat="43.66459" lon="6.79523">
        <ele>535.8</ele>
        <time>2014-05-29T09:38:44.000Z</time>
      </trkpt>
      <trkpt lat="43.66462" lon="6.79523">
        <ele>535.8</ele>
        <time>2014-05-29T09:38:45.000Z</time>
      </trkpt>
      <trkpt lat="43.66465" lon="6.79524">
        <ele>535.6</ele>
        <time>2014-05-29T09:38:46.000Z</time>
      </trkpt>
      <trkpt lat="43.66467" lon="6.79524">
        <ele>536.1</ele>
        <time>2014-05-29T09:38:47.000Z</time>
      </trkpt>
      <trkpt lat="43.66471" lon="6.79525">
        <ele>536.1</ele>
        <time>2014-05-29T09:38:48.000Z</time>
      </trkpt>
      <trkpt lat="43.66473" lon="6.79527">
        <ele>536.3</ele>
        <time>2014-05-29T09:38:49.000Z</time>
      </trkpt>
      <trkpt lat="43.66476" lon="6.79528">
        <ele>536.5</ele>
        <time>2014-05-29T09:38:50.000Z</time>
      </trkpt>
      <trkpt lat="43.66479" lon="6.79529">
        <ele>537.1</ele>
        <time>2014-05-29T09:38:51.000Z</time>
      </trkpt>
      <trkpt lat="43.66482" lon="6.79533">
        <ele>536.2</ele>
        <time>2014-05-29T09:38:52.000Z</time>
      </trkpt>
      <trkpt lat="43.66485" lon="6.79535">
        <ele>536.1</ele>
        <time>2014-05-29T09:38:53.000Z</time>
      </trkpt>
      <trkpt lat="43.66488" lon="6.79536">
        <ele>537.5</ele>
        <time>2014-05-29T09:38:54.000Z</time>
      </trkpt>
      <trkpt lat="43.66491" lon="6.79537">
        <ele>537.5</ele>
        <time>2014-05-29T09:38:54.999Z</time>
      </trkpt>
      <trkpt lat="43.66495" lon="6.79537">
        <ele>537</ele>
        <time>2014-05-29T09:38:56.000Z</time>
      </trkpt>
      <trkpt lat="43.66497" lon="6.79537">
        <ele>536.9</ele>
        <time>2014-05-29T09:38:57.000Z</time>
      </trkpt>
      <trkpt lat="43.665" lon="6.79538">
        <ele>537.1</ele>
        <time>2014-05-29T09:38:58.000Z</time>
      </trkpt>
      <trkpt lat="43.66504" lon="6.79539">
        <ele>537.4</ele>
        <time>2014-05-29T09:38:59.000Z</time>
      </trkpt>
      <trkpt lat="43.66507" lon="6.7954">
        <ele>537.6</ele>
        <time>2014-05-29T09:39:00.000Z</time>
      </trkpt>
      <trkpt lat="43.6651" lon="6.79541">
        <ele>537.9</ele>
        <time>2014-05-29T09:39:01.000Z</time>
      </trkpt>
      <trkpt lat="43.66512" lon="6.79542">
        <ele>537.1</ele>
        <time>2014-05-29T09:39:02.000Z</time>
      </trkpt>
      <trkpt lat="43.66515" lon="6.79544">
        <ele>537.6</ele>
        <time>2014-05-29T09:39:02.999Z</time>
      </trkpt>
      <trkpt lat="43.66518" lon="6.79544">
        <ele>537.4</ele>
        <time>2014-05-29T09:39:04.000Z</time>
      </trkpt>
      <trkpt lat="43.66521" lon="6.79545">
        <ele>537.5</ele>
        <time>2014-05-29T09:39:05.000Z</time>
      </trkpt>
      <trkpt lat="43.66525" lon="6.79547">
        <ele>537</ele>
        <time>2014-05-29T09:39:06.000Z</time>
      </trkpt>
      <trkpt lat="43.66528" lon="6.79548">
        <ele>537</ele>
        <time>2014-05-29T09:39:07.000Z</time>
      </trkpt>
      <trkpt lat="43.66531" lon="6.79549">
        <ele>536.8</ele>
        <time>2014-05-29T09:39:08.000Z</time>
      </trkpt>
      <trkpt lat="43.66534" lon="6.7955">
        <ele>536.9</ele>
        <time>2014-05-29T09:39:09.000Z</time>
      </trkpt>
      <trkpt lat="43.66537" lon="6.79551">
        <ele>537.1</ele>
        <time>2014-05-29T09:39:10.000Z</time>
      </trkpt>
      <trkpt lat="43.6654" lon="6.79552">
        <ele>537</ele>
        <time>2014-05-29T09:39:11.000Z</time>
      </trkpt>
      <trkpt lat="43.66544" lon="6.79553">
        <ele>536.7</ele>
        <time>2014-05-29T09:39:12.000Z</time>
      </trkpt>
      <trkpt lat="43.66546" lon="6.79555">
        <ele>537</ele>
        <time>2014-05-29T09:39:13.000Z</time>
      </trkpt>
      <trkpt lat="43.66549" lon="6.79556">
        <ele>536.4</ele>
        <time>2014-05-29T09:39:14.000Z</time>
      </trkpt>
      <trkpt lat="43.66552" lon="6.79557">
        <ele>536.4</ele>
        <time>2014-05-29T09:39:15.000Z</time>
      </trkpt>
      <trkpt lat="43.66555" lon="6.79558">
        <ele>536.1</ele>
        <time>2014-05-29T09:39:16.000Z</time>
      </trkpt>
      <trkpt lat="43.66558" lon="6.79559">
        <ele>536.3</ele>
        <time>2014-05-29T09:39:17.000Z</time>
      </trkpt>
      <trkpt lat="43.66561" lon="6.7956">
        <ele>536.1</ele>
        <time>2014-05-29T09:39:18.000Z</time>
      </trkpt>
      <trkpt lat="43.66563" lon="6.79561">
        <ele>536.2</ele>
        <time>2014-05-29T09:39:19.000Z</time>
      </trkpt>
      <trkpt lat="43.66566" lon="6.79563">
        <ele>536.3</ele>
        <time>2014-05-29T09:39:20.000Z</time>
      </trkpt>
      <trkpt lat="43.66569" lon="6.79565">
        <ele>536</ele>
        <time>2014-05-29T09:39:21.000Z</time>
      </trkpt>
      <trkpt lat="43.66572" lon="6.79566">
        <ele>536.3</ele>
        <time>2014-05-29T09:39:22.000Z</time>
      </trkpt>
      <trkpt lat="43.66574" lon="6.79567">
        <ele>536.4</ele>
        <time>2014-05-29T09:39:23.000Z</time>
      </trkpt>
      <trkpt lat="43.66577" lon="6.79568">
        <ele>536.8</ele>
        <time>2014-05-29T09:39:24.000Z</time>
      </trkpt>
      <trkpt lat="43.6658" lon="6.79569">
        <ele>537.5</ele>
        <time>2014-05-29T09:39:24.998Z</time>
      </trkpt>
      <trkpt lat="43.66583" lon="6.79571">
        <ele>537.9</ele>
        <time>2014-05-29T09:39:26.000Z</time>
      </trkpt>
      <trkpt lat="43.66585" lon="6.79572">
        <ele>538.2</ele>
        <time>2014-05-29T09:39:27.000Z</time>
      </trkpt>
      <trkpt lat="43.66587" lon="6.79573">
        <ele>538.6</ele>
        <time>2014-05-29T09:39:28.000Z</time>
      </trkpt>
      <trkpt lat="43.6659" lon="6.79574">
        <ele>539</ele>
        <time>2014-05-29T09:39:29.000Z</time>
      </trkpt>
      <trkpt lat="43.66593" lon="6.79575">
        <ele>538.4</ele>
        <time>2014-05-29T09:39:30.000Z</time>
      </trkpt>
      <trkpt lat="43.66598" lon="6.79578">
        <ele>538.4</ele>
        <time>2014-05-29T09:39:31.554Z</time>
      </trkpt>
      <trkpt lat="43.66599" lon="6.79578">
        <ele>538.4</ele>
        <time>2014-05-29T09:39:32.000Z</time>
      </trkpt>
      <trkpt lat="43.66605" lon="6.79582">
        <ele>538.4</ele>
        <time>2014-05-29T09:39:34.000Z</time>
      </trkpt>
      <trkpt lat="43.66608" lon="6.79582">
        <ele>538.5</ele>
        <time>2014-05-29T09:39:35.000Z</time>
      </trkpt>
      <trkpt lat="43.66611" lon="6.79582">
        <ele>537.9</ele>
        <time>2014-05-29T09:39:35.999Z</time>
      </trkpt>
      <trkpt lat="43.66614" lon="6.79584">
        <ele>538</ele>
        <time>2014-05-29T09:39:37.000Z</time>
      </trkpt>
      <trkpt lat="43.66617" lon="6.79586">
        <ele>537.6</ele>
        <time>2014-05-29T09:39:38.000Z</time>
      </trkpt>
      <trkpt lat="43.6662" lon="6.79588">
        <ele>538.3</ele>
        <time>2014-05-29T09:39:39.000Z</time>
      </trkpt>
      <trkpt lat="43.66622" lon="6.7959">
        <ele>538.7</ele>
        <time>2014-05-29T09:39:39.998Z</time>
      </trkpt>
      <trkpt lat="43.66625" lon="6.79591">
        <ele>539.2</ele>
        <time>2014-05-29T09:39:41.000Z</time>
      </trkpt>
      <trkpt lat="43.66628" lon="6.79592">
        <ele>538.5</ele>
        <time>2014-05-29T09:39:41.999Z</time>
      </trkpt>
      <trkpt lat="43.66631" lon="6.79593">
        <ele>538.5</ele>
        <time>2014-05-29T09:39:43.000Z</time>
      </trkpt>
      <trkpt lat="43.66633" lon="6.79595">
        <ele>538.8</ele>
        <time>2014-05-29T09:39:44.000Z</time>
      </trkpt>
      <trkpt lat="43.66636" lon="6.79595">
        <ele>539.2</ele>
        <time>2014-05-29T09:39:45.000Z</time>
      </trkpt>
      <trkpt lat="43.66638" lon="6.79596">
        <ele>540.5</ele>
        <time>2014-05-29T09:39:46.000Z</time>
      </trkpt>
      <trkpt lat="43.66641" lon="6.79598">
        <ele>540.2</ele>
        <time>2014-05-29T09:39:47.000Z</time>
      </trkpt>
      <trkpt lat="43.66643" lon="6.79599">
        <ele>540.6</ele>
        <time>2014-05-29T09:39:47.999Z</time>
      </trkpt>
      <trkpt lat="43.66646" lon="6.79601">
        <ele>540.7</ele>
        <time>2014-05-29T09:39:49.000Z</time>
      </trkpt>
      <trkpt lat="43.66648" lon="6.79602">
        <ele>540.7</ele>
        <time>2014-05-29T09:39:50.000Z</time>
      </trkpt>
      <trkpt lat="43.66652" lon="6.79604">
        <ele>539.8</ele>
        <time>2014-05-29T09:39:51.000Z</time>
      </trkpt>
      <trkpt lat="43.66655" lon="6.79605">
        <ele>540.4</ele>
        <time>2014-05-29T09:39:52.000Z</time>
      </trkpt>
      <trkpt lat="43.66657" lon="6.79607">
        <ele>540.6</ele>
        <time>2014-05-29T09:39:53.000Z</time>
      </trkpt>
      <trkpt lat="43.6666" lon="6.79608">
        <ele>540.9</ele>
        <time>2014-05-29T09:39:54.000Z</time>
      </trkpt>
      <trkpt lat="43.66663" lon="6.79609">
        <ele>541</ele>
        <time>2014-05-29T09:39:55.000Z</time>
      </trkpt>
      <trkpt lat="43.66666" lon="6.7961">
        <ele>541.8</ele>
        <time>2014-05-29T09:39:56.000Z</time>
      </trkpt>
      <trkpt lat="43.66669" lon="6.79611">
        <ele>541.8</ele>
        <time>2014-05-29T09:39:57.000Z</time>
      </trkpt>
      <trkpt lat="43.66671" lon="6.79612">
        <ele>541.8</ele>
        <time>2014-05-29T09:39:58.000Z</time>
      </trkpt>
      <trkpt lat="43.66673" lon="6.79614">
        <ele>542.4</ele>
        <time>2014-05-29T09:39:59.000Z</time>
      </trkpt>
      <trkpt lat="43.66675" lon="6.79616">
        <ele>542.2</ele>
        <time>2014-05-29T09:40:00.000Z</time>
      </trkpt>
      <trkpt lat="43.66677" lon="6.79617">
        <ele>542</ele>
        <time>2014-05-29T09:40:01.000Z</time>
      </trkpt>
      <trkpt lat="43.6668" lon="6.79619">
        <ele>541.8</ele>
        <time>2014-05-29T09:40:02.000Z</time>
      </trkpt>
      <trkpt lat="43.66684" lon="6.79619">
        <ele>543.2</ele>
        <time>2014-05-29T09:40:03.000Z</time>
      </trkpt>
      <trkpt lat="43.66686" lon="6.79621">
        <ele>543.1</ele>
        <time>2014-05-29T09:40:04.000Z</time>
      </trkpt>
      <trkpt lat="43.66689" lon="6.79622">
        <ele>543.9</ele>
        <time>2014-05-29T09:40:05.000Z</time>
      </trkpt>
      <trkpt lat="43.66692" lon="6.79623">
        <ele>543.5</ele>
        <time>2014-05-29T09:40:06.000Z</time>
      </trkpt>
      <trkpt lat="43.66695" lon="6.79624">
        <ele>543.7</ele>
        <time>2014-05-29T09:40:07.000Z</time>
      </trkpt>
      <trkpt lat="43.66698" lon="6.79626">
        <ele>544.5</ele>
        <time>2014-05-29T09:40:08.000Z</time>
      </trkpt>
      <trkpt lat="43.667" lon="6.79627">
        <ele>545</ele>
        <time>2014-05-29T09:40:09.000Z</time>
      </trkpt>
      <trkpt lat="43.66703" lon="6.79627">
        <ele>546</ele>
        <time>2014-05-29T09:40:10.000Z</time>
      </trkpt>
      <trkpt lat="43.66705" lon="6.79628">
        <ele>546.4</ele>
        <time>2014-05-29T09:40:11.000Z</time>
      </trkpt>
      <trkpt lat="43.66708" lon="6.79629">
        <ele>546.8</ele>
        <time>2014-05-29T09:40:12.000Z</time>
      </trkpt>
      <trkpt lat="43.66711" lon="6.7963">
        <ele>546.4</ele>
        <time>2014-05-29T09:40:13.000Z</time>
      </trkpt>
      <trkpt lat="43.66714" lon="6.79632">
        <ele>546.1</ele>
        <time>2014-05-29T09:40:14.000Z</time>
      </trkpt>
      <trkpt lat="43.66717" lon="6.79633">
        <ele>546.1</ele>
        <time>2014-05-29T09:40:15.000Z</time>
      </trkpt>
      <trkpt lat="43.6672" lon="6.79635">
        <ele>545.9</ele>
        <time>2014-05-29T09:40:16.000Z</time>
      </trkpt>
      <trkpt lat="43.66723" lon="6.79637">
        <ele>545.6</ele>
        <time>2014-05-29T09:40:17.000Z</time>
      </trkpt>
      <trkpt lat="43.66726" lon="6.79638">
        <ele>545.5</ele>
        <time>2014-05-29T09:40:18.000Z</time>
      </trkpt>
      <trkpt lat="43.66729" lon="6.7964">
        <ele>545.6</ele>
        <time>2014-05-29T09:40:19.000Z</time>
      </trkpt>
      <trkpt lat="43.66732" lon="6.79643">
        <ele>545.6</ele>
        <time>2014-05-29T09:40:20.000Z</time>
      </trkpt>
      <trkpt lat="43.66735" lon="6.79643">
        <ele>545.9</ele>
        <time>2014-05-29T09:40:21.000Z</time>
      </trkpt>
      <trkpt lat="43.66739" lon="6.79644">
        <ele>546.5</ele>
        <time>2014-05-29T09:40:22.000Z</time>
      </trkpt>
      <trkpt lat="43.66742" lon="6.79645">
        <ele>547.1</ele>
        <time>2014-05-29T09:40:23.000Z</time>
      </trkpt>
      <trkpt lat="43.66744" lon="6.79645">
        <ele>549.1</ele>
        <time>2014-05-29T09:40:24.000Z</time>
      </trkpt>
      <trkpt lat="43.66749" lon="6.79645">
        <ele>551.3</ele>
        <time>2014-05-29T09:40:26.000Z</time>
      </trkpt>
      <trkpt lat="43.66752" lon="6.79646">
        <ele>551.6</ele>
        <time>2014-05-29T09:40:26.998Z</time>
      </trkpt>
      <trkpt lat="43.66754" lon="6.79648">
        <ele>552.6</ele>
        <time>2014-05-29T09:40:28.000Z</time>
      </trkpt>
      <trkpt lat="43.66758" lon="6.79648">
        <ele>551.6</ele>
        <time>2014-05-29T09:40:29.000Z</time>
      </trkpt>
      <trkpt lat="43.6676" lon="6.79648">
        <ele>553.8</ele>
        <time>2014-05-29T09:40:30.000Z</time>
      </trkpt>
      <trkpt lat="43.66763" lon="6.79647">
        <ele>556.1</ele>
        <time>2014-05-29T09:40:31.511Z</time>
      </trkpt>
      <trkpt lat="43.66764" lon="6.79647">
        <ele>556.6</ele>
        <time>2014-05-29T09:40:32.000Z</time>
      </trkpt>
      <trkpt lat="43.66769" lon="6.79648">
        <ele>556.9</ele>
        <time>2014-05-29T09:40:34.000Z</time>
      </trkpt>
      <trkpt lat="43.66773" lon="6.79649">
        <ele>557</ele>
        <time>2014-05-29T09:40:35.000Z</time>
      </trkpt>
      <trkpt lat="43.66776" lon="6.7965">
        <ele>557.5</ele>
        <time>2014-05-29T09:40:35.999Z</time>
      </trkpt>
      <trkpt lat="43.66784" lon="6.79653">
        <ele>558.4</ele>
        <time>2014-05-29T09:40:39.000Z</time>
      </trkpt>
      <trkpt lat="43.66788" lon="6.79653">
        <ele>559.4</ele>
        <time>2014-05-29T09:40:39.999Z</time>
      </trkpt>
      <trkpt lat="43.66791" lon="6.79654">
        <ele>559.3</ele>
        <time>2014-05-29T09:40:41.000Z</time>
      </trkpt>
      <trkpt lat="43.66793" lon="6.79653">
        <ele>559.2</ele>
        <time>2014-05-29T09:40:42.000Z</time>
      </trkpt>
      <trkpt lat="43.66796" lon="6.79654">
        <ele>559.5</ele>
        <time>2014-05-29T09:40:43.000Z</time>
      </trkpt>
      <trkpt lat="43.668" lon="6.79654">
        <ele>559.6</ele>
        <time>2014-05-29T09:40:44.000Z</time>
      </trkpt>
      <trkpt lat="43.66803" lon="6.79657">
        <ele>559</ele>
        <time>2014-05-29T09:40:45.000Z</time>
      </trkpt>
      <trkpt lat="43.66806" lon="6.79658">
        <ele>558.6</ele>
        <time>2014-05-29T09:40:45.999Z</time>
      </trkpt>
      <trkpt lat="43.6681" lon="6.7966">
        <ele>557.5</ele>
        <time>2014-05-29T09:40:47.000Z</time>
      </trkpt>
      <trkpt lat="43.66814" lon="6.79663">
        <ele>557.7</ele>
        <time>2014-05-29T09:40:48.000Z</time>
      </trkpt>
      <trkpt lat="43.66818" lon="6.79662">
        <ele>555.4</ele>
        <time>2014-05-29T09:40:49.000Z</time>
      </trkpt>
      <trkpt lat="43.66822" lon="6.79665">
        <ele>554.6</ele>
        <time>2014-05-29T09:40:50.000Z</time>
      </trkpt>
      <trkpt lat="43.66825" lon="6.79667">
        <ele>554.3</ele>
        <time>2014-05-29T09:40:50.999Z</time>
      </trkpt>
      <trkpt lat="43.66828" lon="6.79668">
        <ele>553.7</ele>
        <time>2014-05-29T09:40:52.000Z</time>
      </trkpt>
      <trkpt lat="43.66831" lon="6.7967">
        <ele>553.7</ele>
        <time>2014-05-29T09:40:52.999Z</time>
      </trkpt>
      <trkpt lat="43.66834" lon="6.79671">
        <ele>554.3</ele>
        <time>2014-05-29T09:40:54.000Z</time>
      </trkpt>
      <trkpt lat="43.66837" lon="6.79672">
        <ele>554.7</ele>
        <time>2014-05-29T09:40:55.000Z</time>
      </trkpt>
      <trkpt lat="43.66839" lon="6.79674">
        <ele>554.8</ele>
        <time>2014-05-29T09:40:56.000Z</time>
      </trkpt>
      <trkpt lat="43.66843" lon="6.79675">
        <ele>555.4</ele>
        <time>2014-05-29T09:40:57.000Z</time>
      </trkpt>
      <trkpt lat="43.66846" lon="6.79676">
        <ele>555.6</ele>
        <time>2014-05-29T09:40:57.999Z</time>
      </trkpt>
      <trkpt lat="43.66848" lon="6.79679">
        <ele>555.6</ele>
        <time>2014-05-29T09:41:00.000Z</time>
      </trkpt>
      <trkpt lat="43.6685" lon="6.79679">
        <ele>557.4</ele>
        <time>2014-05-29T09:41:00.998Z</time>
      </trkpt>
      <trkpt lat="43.66853" lon="6.79682">
        <ele>557.9</ele>
        <time>2014-05-29T09:41:02.999Z</time>
      </trkpt>
      <trkpt lat="43.66855" lon="6.79683">
        <ele>558.7</ele>
        <time>2014-05-29T09:41:04.000Z</time>
      </trkpt>
      <trkpt lat="43.66859" lon="6.79685">
        <ele>560.4</ele>
        <time>2014-05-29T09:41:06.000Z</time>
      </trkpt>
      <trkpt lat="43.6686" lon="6.79685">
        <ele>562.9</ele>
        <time>2014-05-29T09:41:07.000Z</time>
      </trkpt>
      <trkpt lat="43.66864" lon="6.79687">
        <ele>563.9</ele>
        <time>2014-05-29T09:41:09.000Z</time>
      </trkpt>
      <trkpt lat="43.66866" lon="6.79687">
        <ele>563.9</ele>
        <time>2014-05-29T09:41:10.000Z</time>
      </trkpt>
      <trkpt lat="43.66868" lon="6.79689">
        <ele>564.1</ele>
        <time>2014-05-29T09:41:11.000Z</time>
      </trkpt>
      <trkpt lat="43.6687" lon="6.79695">
        <ele>560.6</ele>
        <time>2014-05-29T09:41:12.000Z</time>
      </trkpt>
      <trkpt lat="43.66874" lon="6.79698">
        <ele>560.9</ele>
        <time>2014-05-29T09:41:13.999Z</time>
      </trkpt>
      <trkpt lat="43.66876" lon="6.797">
        <ele>561.5</ele>
        <time>2014-05-29T09:41:15.000Z</time>
      </trkpt>
      <trkpt lat="43.66878" lon="6.79701">
        <ele>561.5</ele>
        <time>2014-05-29T09:41:16.000Z</time>
      </trkpt>
      <trkpt lat="43.66881" lon="6.79702">
        <ele>561.6</ele>
        <time>2014-05-29T09:41:17.000Z</time>
      </trkpt>
      <trkpt lat="43.66884" lon="6.79705">
        <ele>569.2</ele>
        <time>2014-05-29T09:41:22.000Z</time>
      </trkpt>
      <trkpt lat="43.66886" lon="6.79705">
        <ele>569.8</ele>
        <time>2014-05-29T09:41:23.000Z</time>
      </trkpt>
      <trkpt lat="43.6689" lon="6.79707">
        <ele>570.3</ele>
        <time>2014-05-29T09:41:25.000Z</time>
      </trkpt>
      <trkpt lat="43.66891" lon="6.79708">
        <ele>570.6</ele>
        <time>2014-05-29T09:41:26.000Z</time>
      </trkpt>
      <trkpt lat="43.66893" lon="6.79713">
        <ele>569.5</ele>
        <time>2014-05-29T09:41:27.000Z</time>
      </trkpt>
      <trkpt lat="43.66895" lon="6.79713">
        <ele>569.7</ele>
        <time>2014-05-29T09:41:28.000Z</time>
      </trkpt>
      <trkpt lat="43.66897" lon="6.79713">
        <ele>567.8</ele>
        <time>2014-05-29T09:41:29.000Z</time>
      </trkpt>
      <trkpt lat="43.66899" lon="6.79716">
        <ele>566.5</ele>
        <time>2014-05-29T09:41:30.000Z</time>
      </trkpt>
      <trkpt lat="43.66902" lon="6.79718">
        <ele>566.5</ele>
        <time>2014-05-29T09:41:32.000Z</time>
      </trkpt>
      <trkpt lat="43.66904" lon="6.79719">
        <ele>567.2</ele>
        <time>2014-05-29T09:41:33.000Z</time>
      </trkpt>
      <trkpt lat="43.66907" lon="6.79723">
        <ele>569.5</ele>
        <time>2014-05-29T09:41:36.000Z</time>
      </trkpt>
      <trkpt lat="43.66908" lon="6.79724">
        <ele>569.5</ele>
        <time>2014-05-29T09:41:37.000Z</time>
      </trkpt>
      <trkpt lat="43.66911" lon="6.79726">
        <ele>569</ele>
        <time>2014-05-29T09:41:39.000Z</time>
      </trkpt>
      <trkpt lat="43.66913" lon="6.79728">
        <ele>569.2</ele>
        <time>2014-05-29T09:41:40.000Z</time>
      </trkpt>
      <trkpt lat="43.66916" lon="6.79729">
        <ele>574.5</ele>
        <time>2014-05-29T09:41:44.000Z</time>
      </trkpt>
      <trkpt lat="43.66917" lon="6.7973">
        <ele>575</ele>
        <time>2014-05-29T09:41:45.000Z</time>
      </trkpt>
      <trkpt lat="43.6692" lon="6.79731">
        <ele>576.3</ele>
        <time>2014-05-29T09:41:47.000Z</time>
      </trkpt>
      <trkpt lat="43.66923" lon="6.79735">
        <ele>575.6</ele>
        <time>2014-05-29T09:41:48.000Z</time>
      </trkpt>
      <trkpt lat="43.66926" lon="6.79735">
        <ele>579.4</ele>
        <time>2014-05-29T09:41:50.000Z</time>
      </trkpt>
      <trkpt lat="43.66928" lon="6.79737">
        <ele>580.1</ele>
        <time>2014-05-29T09:41:51.000Z</time>
      </trkpt>
      <trkpt lat="43.66931" lon="6.79739">
        <ele>580.7</ele>
        <time>2014-05-29T09:41:53.000Z</time>
      </trkpt>
      <trkpt lat="43.66933" lon="6.79741">
        <ele>581</ele>
        <time>2014-05-29T09:41:54.000Z</time>
      </trkpt>
      <trkpt lat="43.66936" lon="6.79742">
        <ele>583</ele>
        <time>2014-05-29T09:41:56.000Z</time>
      </trkpt>
      <trkpt lat="43.66938" lon="6.79743">
        <ele>583.5</ele>
        <time>2014-05-29T09:41:57.000Z</time>
      </trkpt>
      <trkpt lat="43.66941" lon="6.79747">
        <ele>582.8</ele>
        <time>2014-05-29T09:41:59.000Z</time>
      </trkpt>
      <trkpt lat="43.66942" lon="6.79748">
        <ele>582.4</ele>
        <time>2014-05-29T09:42:00.000Z</time>
      </trkpt>
      <trkpt lat="43.66945" lon="6.79749">
        <ele>586.1</ele>
        <time>2014-05-29T09:42:02.000Z</time>
      </trkpt>
      <trkpt lat="43.66947" lon="6.7975">
        <ele>586.5</ele>
        <time>2014-05-29T09:42:03.000Z</time>
      </trkpt>
      <trkpt lat="43.6695" lon="6.79752">
        <ele>584.9</ele>
        <time>2014-05-29T09:42:04.000Z</time>
      </trkpt>
      <trkpt lat="43.66952" lon="6.79753">
        <ele>584.9</ele>
        <time>2014-05-29T09:42:05.000Z</time>
      </trkpt>
      <trkpt lat="43.66955" lon="6.79755">
        <ele>584</ele>
        <time>2014-05-29T09:42:06.000Z</time>
      </trkpt>
      <trkpt lat="43.66958" lon="6.79757">
        <ele>582.7</ele>
        <time>2014-05-29T09:42:07.000Z</time>
      </trkpt>
      <trkpt lat="43.66961" lon="6.79759">
        <ele>581.2</ele>
        <time>2014-05-29T09:42:08.000Z</time>
      </trkpt>
      <trkpt lat="43.66963" lon="6.7976">
        <ele>580.2</ele>
        <time>2014-05-29T09:42:09.000Z</time>
      </trkpt>
      <trkpt lat="43.66966" lon="6.79761">
        <ele>580.1</ele>
        <time>2014-05-29T09:42:10.000Z</time>
      </trkpt>
      <trkpt lat="43.66969" lon="6.79763">
        <ele>578.4</ele>
        <time>2014-05-29T09:42:11.000Z</time>
      </trkpt>
      <trkpt lat="43.66971" lon="6.79764">
        <ele>577.2</ele>
        <time>2014-05-29T09:42:12.000Z</time>
      </trkpt>
      <trkpt lat="43.66973" lon="6.79765">
        <ele>576.5</ele>
        <time>2014-05-29T09:42:13.000Z</time>
      </trkpt>
      <trkpt lat="43.66976" lon="6.79767">
        <ele>575.4</ele>
        <time>2014-05-29T09:42:14.000Z</time>
      </trkpt>
      <trkpt lat="43.66978" lon="6.79767">
        <ele>575</ele>
        <time>2014-05-29T09:42:15.000Z</time>
      </trkpt>
      <trkpt lat="43.66982" lon="6.79767">
        <ele>575.1</ele>
        <time>2014-05-29T09:42:17.000Z</time>
      </trkpt>
      <trkpt lat="43.66984" lon="6.79767">
        <ele>575.1</ele>
        <time>2014-05-29T09:42:18.000Z</time>
      </trkpt>
      <trkpt lat="43.66986" lon="6.79768">
        <ele>574.9</ele>
        <time>2014-05-29T09:42:19.000Z</time>
      </trkpt>
      <trkpt lat="43.66987" lon="6.79771">
        <ele>574</ele>
        <time>2014-05-29T09:42:20.000Z</time>
      </trkpt>
      <trkpt lat="43.66992" lon="6.79773">
        <ele>572</ele>
        <time>2014-05-29T09:42:22.000Z</time>
      </trkpt>
      <trkpt lat="43.66994" lon="6.79773">
        <ele>571.7</ele>
        <time>2014-05-29T09:42:23.000Z</time>
      </trkpt>
      <trkpt lat="43.66997" lon="6.79773">
        <ele>571.4</ele>
        <time>2014-05-29T09:42:24.000Z</time>
      </trkpt>
      <trkpt lat="43.66999" lon="6.79773">
        <ele>571.4</ele>
        <time>2014-05-29T09:42:25.000Z</time>
      </trkpt>
      <trkpt lat="43.67003" lon="6.79774">
        <ele>571.9</ele>
        <time>2014-05-29T09:42:27.000Z</time>
      </trkpt>
      <trkpt lat="43.67005" lon="6.79775">
        <ele>571.8</ele>
        <time>2014-05-29T09:42:28.000Z</time>
      </trkpt>
      <trkpt lat="43.67007" lon="6.79775">
        <ele>571.6</ele>
        <time>2014-05-29T09:42:29.000Z</time>
      </trkpt>
      <trkpt lat="43.67009" lon="6.79775">
        <ele>571.2</ele>
        <time>2014-05-29T09:42:30.000Z</time>
      </trkpt>
      <trkpt lat="43.67013" lon="6.79775">
        <ele>571</ele>
        <time>2014-05-29T09:42:32.000Z</time>
      </trkpt>
      <trkpt lat="43.67016" lon="6.79776">
        <ele>569.7</ele>
        <time>2014-05-29T09:42:34.000Z</time>
      </trkpt>
      <trkpt lat="43.67021" lon="6.79777">
        <ele>567</ele>
        <time>2014-05-29T09:42:37.000Z</time>
      </trkpt>
      <trkpt lat="43.67023" lon="6.79777">
        <ele>565.5</ele>
        <time>2014-05-29T09:42:38.000Z</time>
      </trkpt>
      <trkpt lat="43.67027" lon="6.79775">
        <ele>563.8</ele>
        <time>2014-05-29T09:42:40.000Z</time>
      </trkpt>
      <trkpt lat="43.67029" lon="6.79774">
        <ele>562.7</ele>
        <time>2014-05-29T09:42:41.000Z</time>
      </trkpt>
      <trkpt lat="43.67031" lon="6.79773">
        <ele>562.6</ele>
        <time>2014-05-29T09:42:42.999Z</time>
      </trkpt>
      <trkpt lat="43.67033" lon="6.79771">
        <ele>561.8</ele>
        <time>2014-05-29T09:42:44.000Z</time>
      </trkpt>
      <trkpt lat="43.67036" lon="6.79769">
        <ele>561.3</ele>
        <time>2014-05-29T09:42:46.000Z</time>
      </trkpt>
      <trkpt lat="43.67037" lon="6.79768">
        <ele>561.2</ele>
        <time>2014-05-29T09:42:47.000Z</time>
      </trkpt>
      <trkpt lat="43.67041" lon="6.79766">
        <ele>560.4</ele>
        <time>2014-05-29T09:42:49.000Z</time>
      </trkpt>
      <trkpt lat="43.67042" lon="6.79765">
        <ele>560.6</ele>
        <time>2014-05-29T09:42:49.998Z</time>
      </trkpt>
      <trkpt lat="43.67045" lon="6.79764">
        <ele>560.4</ele>
        <time>2014-05-29T09:42:52.000Z</time>
      </trkpt>
      <trkpt lat="43.67047" lon="6.79762">
        <ele>560.7</ele>
        <time>2014-05-29T09:42:53.000Z</time>
      </trkpt>
      <trkpt lat="43.67049" lon="6.79761">
        <ele>561</ele>
        <time>2014-05-29T09:42:55.000Z</time>
      </trkpt>
      <trkpt lat="43.67051" lon="6.7976">
        <ele>560.9</ele>
        <time>2014-05-29T09:42:56.000Z</time>
      </trkpt>
      <trkpt lat="43.67054" lon="6.79759">
        <ele>560.8</ele>
        <time>2014-05-29T09:42:58.000Z</time>
      </trkpt>
      <trkpt lat="43.67055" lon="6.79758">
        <ele>561.1</ele>
        <time>2014-05-29T09:42:59.000Z</time>
      </trkpt>
      <trkpt lat="43.67058" lon="6.79756">
        <ele>561.9</ele>
        <time>2014-05-29T09:43:01.000Z</time>
      </trkpt>
      <trkpt lat="43.6706" lon="6.79756">
        <ele>561.8</ele>
        <time>2014-05-29T09:43:02.000Z</time>
      </trkpt>
      <trkpt lat="43.67062" lon="6.79755">
        <ele>561.2</ele>
        <time>2014-05-29T09:43:04.000Z</time>
      </trkpt>
      <trkpt lat="43.67064" lon="6.79754">
        <ele>561.6</ele>
        <time>2014-05-29T09:43:05.000Z</time>
      </trkpt>
      <trkpt lat="43.67067" lon="6.79752">
        <ele>562.2</ele>
        <time>2014-05-29T09:43:07.000Z</time>
      </trkpt>
      <trkpt lat="43.67068" lon="6.7975">
        <ele>563.3</ele>
        <time>2014-05-29T09:43:08.000Z</time>
      </trkpt>
      <trkpt lat="43.67071" lon="6.79748">
        <ele>565.6</ele>
        <time>2014-05-29T09:43:10.000Z</time>
      </trkpt>
      <trkpt lat="43.67073" lon="6.79748">
        <ele>565.3</ele>
        <time>2014-05-29T09:43:11.000Z</time>
      </trkpt>
      <trkpt lat="43.67077" lon="6.79746">
        <ele>564.8</ele>
        <time>2014-05-29T09:43:14.000Z</time>
      </trkpt>
      <trkpt lat="43.67078" lon="6.79745">
        <ele>565.1</ele>
        <time>2014-05-29T09:43:15.000Z</time>
      </trkpt>
      <trkpt lat="43.67082" lon="6.79742">
        <ele>564.9</ele>
        <time>2014-05-29T09:43:18.000Z</time>
      </trkpt>
      <trkpt lat="43.67083" lon="6.79741">
        <ele>565.2</ele>
        <time>2014-05-29T09:43:19.000Z</time>
      </trkpt>
      <trkpt lat="43.67086" lon="6.79739">
        <ele>564.6</ele>
        <time>2014-05-29T09:43:21.000Z</time>
      </trkpt>
      <trkpt lat="43.67088" lon="6.79739">
        <ele>564.6</ele>
        <time>2014-05-29T09:43:22.000Z</time>
      </trkpt>
      <trkpt lat="43.67091" lon="6.79738">
        <ele>564.4</ele>
        <time>2014-05-29T09:43:24.000Z</time>
      </trkpt>
      <trkpt lat="43.67092" lon="6.79737">
        <ele>564.4</ele>
        <time>2014-05-29T09:43:25.000Z</time>
      </trkpt>
      <trkpt lat="43.67095" lon="6.79736">
        <ele>564</ele>
        <time>2014-05-29T09:43:27.000Z</time>
      </trkpt>
      <trkpt lat="43.67097" lon="6.79736">
        <ele>564</ele>
        <time>2014-05-29T09:43:28.000Z</time>
      </trkpt>
      <trkpt lat="43.671" lon="6.79735">
        <ele>564.3</ele>
        <time>2014-05-29T09:43:30.000Z</time>
      </trkpt>
      <trkpt lat="43.67103" lon="6.79735">
        <ele>564.6</ele>
        <time>2014-05-29T09:43:31.521Z</time>
      </trkpt>
      <trkpt lat="43.67107" lon="6.79735">
        <ele>564</ele>
        <time>2014-05-29T09:43:34.000Z</time>
      </trkpt>
      <trkpt lat="43.67109" lon="6.79734">
        <ele>564</ele>
        <time>2014-05-29T09:43:35.000Z</time>
      </trkpt>
      <trkpt lat="43.67112" lon="6.79733">
        <ele>564.1</ele>
        <time>2014-05-29T09:43:37.000Z</time>
      </trkpt>
      <trkpt lat="43.67114" lon="6.79733">
        <ele>564</ele>
        <time>2014-05-29T09:43:38.000Z</time>
      </trkpt>
      <trkpt lat="43.67118" lon="6.79731">
        <ele>563.8</ele>
        <time>2014-05-29T09:43:40.000Z</time>
      </trkpt>
      <trkpt lat="43.6712" lon="6.7973">
        <ele>563.9</ele>
        <time>2014-05-29T09:43:41.000Z</time>
      </trkpt>
      <trkpt lat="43.67124" lon="6.79729">
        <ele>564.1</ele>
        <time>2014-05-29T09:43:43.000Z</time>
      </trkpt>
      <trkpt lat="43.67126" lon="6.79729">
        <ele>564</ele>
        <time>2014-05-29T09:43:44.000Z</time>
      </trkpt>
      <trkpt lat="43.6713" lon="6.7973">
        <ele>564.1</ele>
        <time>2014-05-29T09:43:46.000Z</time>
      </trkpt>
      <trkpt lat="43.67133" lon="6.79729">
        <ele>564.4</ele>
        <time>2014-05-29T09:43:47.000Z</time>
      </trkpt>
      <trkpt lat="43.67135" lon="6.79729">
        <ele>564.5</ele>
        <time>2014-05-29T09:43:48.000Z</time>
      </trkpt>
      <trkpt lat="43.67137" lon="6.79729">
        <ele>564.6</ele>
        <time>2014-05-29T09:43:49.000Z</time>
      </trkpt>
      <trkpt lat="43.6714" lon="6.79729">
        <ele>564.6</ele>
        <time>2014-05-29T09:43:50.000Z</time>
      </trkpt>
      <trkpt lat="43.67142" lon="6.79728">
        <ele>565.1</ele>
        <time>2014-05-29T09:43:51.000Z</time>
      </trkpt>
      <trkpt lat="43.67144" lon="6.79728">
        <ele>565</ele>
        <time>2014-05-29T09:43:52.000Z</time>
      </trkpt>
      <trkpt lat="43.67147" lon="6.79728">
        <ele>564.7</ele>
        <time>2014-05-29T09:43:53.000Z</time>
      </trkpt>
      <trkpt lat="43.6715" lon="6.79728">
        <ele>565.1</ele>
        <time>2014-05-29T09:43:54.000Z</time>
      </trkpt>
      <trkpt lat="43.67152" lon="6.79728">
        <ele>565.1</ele>
        <time>2014-05-29T09:43:55.000Z</time>
      </trkpt>
      <trkpt lat="43.67155" lon="6.79728">
        <ele>565.4</ele>
        <time>2014-05-29T09:43:56.000Z</time>
      </trkpt>
      <trkpt lat="43.67157" lon="6.79728">
        <ele>565.4</ele>
        <time>2014-05-29T09:43:57.000Z</time>
      </trkpt>
      <trkpt lat="43.67159" lon="6.79728">
        <ele>565.8</ele>
        <time>2014-05-29T09:43:58.000Z</time>
      </trkpt>
      <trkpt lat="43.67162" lon="6.79728">
        <ele>565.9</ele>
        <time>2014-05-29T09:43:59.000Z</time>
      </trkpt>
      <trkpt lat="43.67164" lon="6.79729">
        <ele>566.1</ele>
        <time>2014-05-29T09:44:00.000Z</time>
      </trkpt>
      <trkpt lat="43.67166" lon="6.79729">
        <ele>566.3</ele>
        <time>2014-05-29T09:44:01.000Z</time>
      </trkpt>
      <trkpt lat="43.67169" lon="6.79729">
        <ele>566.2</ele>
        <time>2014-05-29T09:44:02.000Z</time>
      </trkpt>
      <trkpt lat="43.67171" lon="6.79729">
        <ele>566.2</ele>
        <time>2014-05-29T09:44:03.000Z</time>
      </trkpt>
      <trkpt lat="43.67173" lon="6.79729">
        <ele>566.1</ele>
        <time>2014-05-29T09:44:04.000Z</time>
      </trkpt>
      <trkpt lat="43.67176" lon="6.79728">
        <ele>566.2</ele>
        <time>2014-05-29T09:44:05.000Z</time>
      </trkpt>
      <trkpt lat="43.6718" lon="6.79728">
        <ele>567.4</ele>
        <time>2014-05-29T09:44:07.000Z</time>
      </trkpt>
      <trkpt lat="43.67182" lon="6.79728">
        <ele>567.6</ele>
        <time>2014-05-29T09:44:08.000Z</time>
      </trkpt>
      <trkpt lat="43.67184" lon="6.79728">
        <ele>568.6</ele>
        <time>2014-05-29T09:44:09.000Z</time>
      </trkpt>
      <trkpt lat="43.67186" lon="6.79727">
        <ele>568.3</ele>
        <time>2014-05-29T09:44:10.000Z</time>
      </trkpt>
      <trkpt lat="43.67189" lon="6.79727">
        <ele>569</ele>
        <time>2014-05-29T09:44:11.000Z</time>
      </trkpt>
      <trkpt lat="43.67191" lon="6.79727">
        <ele>569.3</ele>
        <time>2014-05-29T09:44:12.000Z</time>
      </trkpt>
      <trkpt lat="43.67193" lon="6.79726">
        <ele>569.8</ele>
        <time>2014-05-29T09:44:13.000Z</time>
      </trkpt>
      <trkpt lat="43.67196" lon="6.79725">
        <ele>570</ele>
        <time>2014-05-29T09:44:14.000Z</time>
      </trkpt>
      <trkpt lat="43.672" lon="6.79724">
        <ele>570.8</ele>
        <time>2014-05-29T09:44:16.000Z</time>
      </trkpt>
      <trkpt lat="43.67202" lon="6.79724">
        <ele>571.4</ele>
        <time>2014-05-29T09:44:17.000Z</time>
      </trkpt>
      <trkpt lat="43.67204" lon="6.79724">
        <ele>571.4</ele>
        <time>2014-05-29T09:44:18.000Z</time>
      </trkpt>
      <trkpt lat="43.67207" lon="6.79724">
        <ele>571.3</ele>
        <time>2014-05-29T09:44:19.000Z</time>
      </trkpt>
      <trkpt lat="43.67211" lon="6.79723">
        <ele>571.8</ele>
        <time>2014-05-29T09:44:21.000Z</time>
      </trkpt>
      <trkpt lat="43.67213" lon="6.79722">
        <ele>572.4</ele>
        <time>2014-05-29T09:44:22.000Z</time>
      </trkpt>
      <trkpt lat="43.67215" lon="6.79722">
        <ele>572.8</ele>
        <time>2014-05-29T09:44:23.000Z</time>
      </trkpt>
      <trkpt lat="43.67217" lon="6.79721">
        <ele>573.6</ele>
        <time>2014-05-29T09:44:24.000Z</time>
      </trkpt>
      <trkpt lat="43.6722" lon="6.79721">
        <ele>573.6</ele>
        <time>2014-05-29T09:44:25.000Z</time>
      </trkpt>
      <trkpt lat="43.67222" lon="6.7972">
        <ele>573.4</ele>
        <time>2014-05-29T09:44:26.000Z</time>
      </trkpt>
      <trkpt lat="43.67224" lon="6.79719">
        <ele>573.7</ele>
        <time>2014-05-29T09:44:27.000Z</time>
      </trkpt>
      <trkpt lat="43.67226" lon="6.79719">
        <ele>573.7</ele>
        <time>2014-05-29T09:44:28.000Z</time>
      </trkpt>
      <trkpt lat="43.67229" lon="6.79718">
        <ele>574.1</ele>
        <time>2014-05-29T09:44:29.000Z</time>
      </trkpt>
      <trkpt lat="43.67231" lon="6.79718">
        <ele>574</ele>
        <time>2014-05-29T09:44:30.000Z</time>
      </trkpt>
      <trkpt lat="43.67235" lon="6.79717">
        <ele>574.3</ele>
        <time>2014-05-29T09:44:32.000Z</time>
      </trkpt>
      <trkpt lat="43.67237" lon="6.79717">
        <ele>574.6</ele>
        <time>2014-05-29T09:44:33.000Z</time>
      </trkpt>
      <trkpt lat="43.6724" lon="6.79716">
        <ele>574.7</ele>
        <time>2014-05-29T09:44:34.000Z</time>
      </trkpt>
      <trkpt lat="43.67244" lon="6.79715">
        <ele>575.2</ele>
        <time>2014-05-29T09:44:36.000Z</time>
      </trkpt>
      <trkpt lat="43.67246" lon="6.79715">
        <ele>575.3</ele>
        <time>2014-05-29T09:44:37.000Z</time>
      </trkpt>
      <trkpt lat="43.67251" lon="6.79714">
        <ele>575.4</ele>
        <time>2014-05-29T09:44:39.000Z</time>
      </trkpt>
      <trkpt lat="43.67253" lon="6.79714">
        <ele>575.9</ele>
        <time>2014-05-29T09:44:40.000Z</time>
      </trkpt>
      <trkpt lat="43.67257" lon="6.79713">
        <ele>575.7</ele>
        <time>2014-05-29T09:44:42.000Z</time>
      </trkpt>
      <trkpt lat="43.67259" lon="6.79713">
        <ele>576.3</ele>
        <time>2014-05-29T09:44:43.000Z</time>
      </trkpt>
      <trkpt lat="43.67263" lon="6.79714">
        <ele>575.6</ele>
        <time>2014-05-29T09:44:45.000Z</time>
      </trkpt>
      <trkpt lat="43.67265" lon="6.79713">
        <ele>576.2</ele>
        <time>2014-05-29T09:44:46.000Z</time>
      </trkpt>
      <trkpt lat="43.67268" lon="6.79713">
        <ele>577</ele>
        <time>2014-05-29T09:44:47.000Z</time>
      </trkpt>
      <trkpt lat="43.6727" lon="6.79712">
        <ele>577.4</ele>
        <time>2014-05-29T09:44:48.000Z</time>
      </trkpt>
      <trkpt lat="43.67272" lon="6.79712">
        <ele>577.5</ele>
        <time>2014-05-29T09:44:49.000Z</time>
      </trkpt>
      <trkpt lat="43.67275" lon="6.79712">
        <ele>577.9</ele>
        <time>2014-05-29T09:44:50.000Z</time>
      </trkpt>
      <trkpt lat="43.67278" lon="6.79712">
        <ele>578.3</ele>
        <time>2014-05-29T09:44:51.000Z</time>
      </trkpt>
      <trkpt lat="43.6728" lon="6.79712">
        <ele>578.6</ele>
        <time>2014-05-29T09:44:52.000Z</time>
      </trkpt>
      <trkpt lat="43.67284" lon="6.79713">
        <ele>578.4</ele>
        <time>2014-05-29T09:44:54.000Z</time>
      </trkpt>
      <trkpt lat="43.67286" lon="6.79713">
        <ele>578.7</ele>
        <time>2014-05-29T09:44:55.000Z</time>
      </trkpt>
      <trkpt lat="43.67289" lon="6.79713">
        <ele>578.5</ele>
        <time>2014-05-29T09:44:56.000Z</time>
      </trkpt>
      <trkpt lat="43.67291" lon="6.79713">
        <ele>578.5</ele>
        <time>2014-05-29T09:44:57.000Z</time>
      </trkpt>
      <trkpt lat="43.67293" lon="6.79713">
        <ele>578.7</ele>
        <time>2014-05-29T09:44:58.000Z</time>
      </trkpt>
      <trkpt lat="43.67296" lon="6.79713">
        <ele>578.7</ele>
        <time>2014-05-29T09:44:59.000Z</time>
      </trkpt>
      <trkpt lat="43.673" lon="6.79714">
        <ele>578.8</ele>
        <time>2014-05-29T09:45:01.000Z</time>
      </trkpt>
      <trkpt lat="43.67302" lon="6.79714">
        <ele>578.9</ele>
        <time>2014-05-29T09:45:02.000Z</time>
      </trkpt>
      <trkpt lat="43.67305" lon="6.79714">
        <ele>578.9</ele>
        <time>2014-05-29T09:45:03.000Z</time>
      </trkpt>
      <trkpt lat="43.67307" lon="6.79714">
        <ele>579.2</ele>
        <time>2014-05-29T09:45:04.000Z</time>
      </trkpt>
      <trkpt lat="43.6731" lon="6.79714">
        <ele>579.4</ele>
        <time>2014-05-29T09:45:05.000Z</time>
      </trkpt>
      <trkpt lat="43.67312" lon="6.79714">
        <ele>579.5</ele>
        <time>2014-05-29T09:45:06.000Z</time>
      </trkpt>
      <trkpt lat="43.67314" lon="6.79714">
        <ele>579.5</ele>
        <time>2014-05-29T09:45:07.000Z</time>
      </trkpt>
      <trkpt lat="43.67317" lon="6.79715">
        <ele>580.1</ele>
        <time>2014-05-29T09:45:08.000Z</time>
      </trkpt>
      <trkpt lat="43.67321" lon="6.79716">
        <ele>580.8</ele>
        <time>2014-05-29T09:45:10.000Z</time>
      </trkpt>
      <trkpt lat="43.67324" lon="6.79716">
        <ele>580.8</ele>
        <time>2014-05-29T09:45:11.000Z</time>
      </trkpt>
      <trkpt lat="43.67326" lon="6.79717">
        <ele>581.3</ele>
        <time>2014-05-29T09:45:12.000Z</time>
      </trkpt>
      <trkpt lat="43.67328" lon="6.79718">
        <ele>581.4</ele>
        <time>2014-05-29T09:45:13.000Z</time>
      </trkpt>
      <trkpt lat="43.6733" lon="6.79718">
        <ele>581.9</ele>
        <time>2014-05-29T09:45:14.000Z</time>
      </trkpt>
      <trkpt lat="43.67333" lon="6.79719">
        <ele>582.4</ele>
        <time>2014-05-29T09:45:15.000Z</time>
      </trkpt>
      <trkpt lat="43.67335" lon="6.79719">
        <ele>582.1</ele>
        <time>2014-05-29T09:45:16.000Z</time>
      </trkpt>
      <trkpt lat="43.67337" lon="6.79719">
        <ele>582.6</ele>
        <time>2014-05-29T09:45:17.000Z</time>
      </trkpt>
      <trkpt lat="43.67339" lon="6.79719">
        <ele>582.7</ele>
        <time>2014-05-29T09:45:18.000Z</time>
      </trkpt>
      <trkpt lat="43.67342" lon="6.7972">
        <ele>582.7</ele>
        <time>2014-05-29T09:45:19.000Z</time>
      </trkpt>
      <trkpt lat="43.67346" lon="6.7972">
        <ele>583.2</ele>
        <time>2014-05-29T09:45:21.000Z</time>
      </trkpt>
      <trkpt lat="43.67348" lon="6.79721">
        <ele>583.7</ele>
        <time>2014-05-29T09:45:22.000Z</time>
      </trkpt>
      <trkpt lat="43.6735" lon="6.79722">
        <ele>584.2</ele>
        <time>2014-05-29T09:45:23.000Z</time>
      </trkpt>
      <trkpt lat="43.67353" lon="6.79722">
        <ele>584.6</ele>
        <time>2014-05-29T09:45:24.000Z</time>
      </trkpt>
      <trkpt lat="43.67357" lon="6.79722">
        <ele>585.2</ele>
        <time>2014-05-29T09:45:26.000Z</time>
      </trkpt>
      <trkpt lat="43.67359" lon="6.79723">
        <ele>585.2</ele>
        <time>2014-05-29T09:45:27.000Z</time>
      </trkpt>
      <trkpt lat="43.67362" lon="6.79723">
        <ele>585</ele>
        <time>2014-05-29T09:45:28.000Z</time>
      </trkpt>
      <trkpt lat="43.67364" lon="6.79724">
        <ele>584.9</ele>
        <time>2014-05-29T09:45:29.000Z</time>
      </trkpt>
      <trkpt lat="43.67366" lon="6.79724">
        <ele>585.2</ele>
        <time>2014-05-29T09:45:30.000Z</time>
      </trkpt>
      <trkpt lat="43.67371" lon="6.79725">
        <ele>585.6</ele>
        <time>2014-05-29T09:45:31.983Z</time>
      </trkpt>
      <trkpt lat="43.67373" lon="6.79725">
        <ele>585.8</ele>
        <time>2014-05-29T09:45:32.983Z</time>
      </trkpt>
      <trkpt lat="43.67375" lon="6.79726">
        <ele>586</ele>
        <time>2014-05-29T09:45:33.983Z</time>
      </trkpt>
      <trkpt lat="43.67378" lon="6.79726">
        <ele>586.2</ele>
        <time>2014-05-29T09:45:34.983Z</time>
      </trkpt>
      <trkpt lat="43.6738" lon="6.79726">
        <ele>586.4</ele>
        <time>2014-05-29T09:45:35.983Z</time>
      </trkpt>
      <trkpt lat="43.67384" lon="6.79727">
        <ele>586.8</ele>
        <time>2014-05-29T09:45:37.983Z</time>
      </trkpt>
      <trkpt lat="43.67386" lon="6.79728">
        <ele>587</ele>
        <time>2014-05-29T09:45:38.983Z</time>
      </trkpt>
      <trkpt lat="43.67389" lon="6.79728">
        <ele>587.3</ele>
        <time>2014-05-29T09:45:39.983Z</time>
      </trkpt>
      <trkpt lat="43.6739" lon="6.79738">
        <ele>588</ele>
        <time>2014-05-29T09:45:41.000Z</time>
      </trkpt>
      <trkpt lat="43.67391" lon="6.79735">
        <ele>587.3</ele>
        <time>2014-05-29T09:45:42.000Z</time>
      </trkpt>
      <trkpt lat="43.67395" lon="6.79735">
        <ele>586.8</ele>
        <time>2014-05-29T09:45:43.000Z</time>
      </trkpt>
      <trkpt lat="43.67398" lon="6.79734">
        <ele>586.4</ele>
        <time>2014-05-29T09:45:47.000Z</time>
      </trkpt>
      <trkpt lat="43.674" lon="6.79734">
        <ele>586.3</ele>
        <time>2014-05-29T09:45:48.000Z</time>
      </trkpt>
      <trkpt lat="43.67403" lon="6.79735">
        <ele>587.7</ele>
        <time>2014-05-29T09:45:51.000Z</time>
      </trkpt>
      <trkpt lat="43.67404" lon="6.79736">
        <ele>588.3</ele>
        <time>2014-05-29T09:45:52.000Z</time>
      </trkpt>
      <trkpt lat="43.67408" lon="6.79736">
        <ele>588</ele>
        <time>2014-05-29T09:45:55.000Z</time>
      </trkpt>
      <trkpt lat="43.67409" lon="6.79734">
        <ele>587.5</ele>
        <time>2014-05-29T09:45:56.000Z</time>
      </trkpt>
      <trkpt lat="43.67413" lon="6.79731">
        <ele>586.1</ele>
        <time>2014-05-29T09:45:59.000Z</time>
      </trkpt>
      <trkpt lat="43.67414" lon="6.7973">
        <ele>585.9</ele>
        <time>2014-05-29T09:46:00.000Z</time>
      </trkpt>
      <trkpt lat="43.67417" lon="6.79728">
        <ele>585.3</ele>
        <time>2014-05-29T09:46:03.000Z</time>
      </trkpt>
      <trkpt lat="43.67418" lon="6.79728">
        <ele>585.2</ele>
        <time>2014-05-29T09:46:04.000Z</time>
      </trkpt>
      <trkpt lat="43.67422" lon="6.79729">
        <ele>585.4</ele>
        <time>2014-05-29T09:46:07.000Z</time>
      </trkpt>
      <trkpt lat="43.67424" lon="6.7973">
        <ele>585.5</ele>
        <time>2014-05-29T09:46:08.000Z</time>
      </trkpt>
      <trkpt lat="43.67427" lon="6.79728">
        <ele>585.4</ele>
        <time>2014-05-29T09:46:11.000Z</time>
      </trkpt>
      <trkpt lat="43.67428" lon="6.79727">
        <ele>585.3</ele>
        <time>2014-05-29T09:46:12.000Z</time>
      </trkpt>
      <trkpt lat="43.67432" lon="6.79728">
        <ele>586.7</ele>
        <time>2014-05-29T09:46:16.000Z</time>
      </trkpt>
      <trkpt lat="43.67433" lon="6.79728">
        <ele>586.8</ele>
        <time>2014-05-29T09:46:17.000Z</time>
      </trkpt>
      <trkpt lat="43.67437" lon="6.79728">
        <ele>587.4</ele>
        <time>2014-05-29T09:46:20.000Z</time>
      </trkpt>
      <trkpt lat="43.67438" lon="6.79728">
        <ele>587.4</ele>
        <time>2014-05-29T09:46:21.000Z</time>
      </trkpt>
      <trkpt lat="43.67442" lon="6.79727">
        <ele>587.1</ele>
        <time>2014-05-29T09:46:24.000Z</time>
      </trkpt>
      <trkpt lat="43.67443" lon="6.79727">
        <ele>587.3</ele>
        <time>2014-05-29T09:46:25.000Z</time>
      </trkpt>
      <trkpt lat="43.67447" lon="6.79726">
        <ele>588.8</ele>
        <time>2014-05-29T09:46:29.000Z</time>
      </trkpt>
      <trkpt lat="43.67447" lon="6.79725">
        <ele>589.2</ele>
        <time>2014-05-29T09:46:30.000Z</time>
      </trkpt>
      <trkpt lat="43.67451" lon="6.79723">
        <ele>589</ele>
        <time>2014-05-29T09:46:34.000Z</time>
      </trkpt>
      <trkpt lat="43.67452" lon="6.79723">
        <ele>589.5</ele>
        <time>2014-05-29T09:46:35.000Z</time>
      </trkpt>
      <trkpt lat="43.67456" lon="6.79722">
        <ele>589.6</ele>
        <time>2014-05-29T09:46:39.000Z</time>
      </trkpt>
      <trkpt lat="43.67457" lon="6.79721">
        <ele>590</ele>
        <time>2014-05-29T09:46:40.000Z</time>
      </trkpt>
      <trkpt lat="43.67461" lon="6.7972">
        <ele>590.3</ele>
        <time>2014-05-29T09:46:44.000Z</time>
      </trkpt>
      <trkpt lat="43.67462" lon="6.7972">
        <ele>590.6</ele>
        <time>2014-05-29T09:46:45.000Z</time>
      </trkpt>
      <trkpt lat="43.67467" lon="6.79719">
        <ele>592.1</ele>
        <time>2014-05-29T09:46:49.000Z</time>
      </trkpt>
      <trkpt lat="43.67468" lon="6.7972">
        <ele>592.5</ele>
        <time>2014-05-29T09:46:50.000Z</time>
      </trkpt>
      <trkpt lat="43.67471" lon="6.7972">
        <ele>593.1</ele>
        <time>2014-05-29T09:46:53.000Z</time>
      </trkpt>
      <trkpt lat="43.67473" lon="6.7972">
        <ele>593.1</ele>
        <time>2014-05-29T09:46:54.000Z</time>
      </trkpt>
      <trkpt lat="43.67477" lon="6.79718">
        <ele>592.5</ele>
        <time>2014-05-29T09:46:58.000Z</time>
      </trkpt>
      <trkpt lat="43.67478" lon="6.79718">
        <ele>592.4</ele>
        <time>2014-05-29T09:46:59.000Z</time>
      </trkpt>
      <trkpt lat="43.67482" lon="6.79716">
        <ele>592.9</ele>
        <time>2014-05-29T09:47:03.000Z</time>
      </trkpt>
      <trkpt lat="43.67483" lon="6.79716">
        <ele>592.9</ele>
        <time>2014-05-29T09:47:04.000Z</time>
      </trkpt>
      <trkpt lat="43.67487" lon="6.79717">
        <ele>592.8</ele>
        <time>2014-05-29T09:47:07.000Z</time>
      </trkpt>
      <trkpt lat="43.67488" lon="6.79717">
        <ele>592.9</ele>
        <time>2014-05-29T09:47:08.000Z</time>
      </trkpt>
      <trkpt lat="43.67491" lon="6.79721">
        <ele>595.7</ele>
        <time>2014-05-29T09:47:13.000Z</time>
      </trkpt>
      <trkpt lat="43.67493" lon="6.79721">
        <ele>595.7</ele>
        <time>2014-05-29T09:47:14.000Z</time>
      </trkpt>
      <trkpt lat="43.67497" lon="6.7972">
        <ele>597.6</ele>
        <time>2014-05-29T09:47:18.000Z</time>
      </trkpt>
      <trkpt lat="43.67498" lon="6.7972">
        <ele>598.1</ele>
        <time>2014-05-29T09:47:19.000Z</time>
      </trkpt>
      <trkpt lat="43.67502" lon="6.7972">
        <ele>598</ele>
        <time>2014-05-29T09:47:22.000Z</time>
      </trkpt>
      <trkpt lat="43.67503" lon="6.79719">
        <ele>598.2</ele>
        <time>2014-05-29T09:47:23.000Z</time>
      </trkpt>
      <trkpt lat="43.67507" lon="6.79719">
        <ele>599</ele>
        <time>2014-05-29T09:47:26.000Z</time>
      </trkpt>
      <trkpt lat="43.67508" lon="6.79719">
        <ele>599.4</ele>
        <time>2014-05-29T09:47:27.000Z</time>
      </trkpt>
      <trkpt lat="43.67511" lon="6.79716">
        <ele>599</ele>
        <time>2014-05-29T09:47:30.000Z</time>
      </trkpt>
      <trkpt lat="43.67513" lon="6.79713">
        <ele>599.4</ele>
        <time>2014-05-29T09:47:31.986Z</time>
      </trkpt>
      <trkpt lat="43.67514" lon="6.79709">
        <ele>600.1</ele>
        <time>2014-05-29T09:47:34.986Z</time>
      </trkpt>
      <trkpt lat="43.67515" lon="6.79708">
        <ele>600.3</ele>
        <time>2014-05-29T09:47:35.986Z</time>
      </trkpt>
      <trkpt lat="43.67517" lon="6.79703">
        <ele>600.9</ele>
        <time>2014-05-29T09:47:38.986Z</time>
      </trkpt>
      <trkpt lat="43.67518" lon="6.79702">
        <ele>601.2</ele>
        <time>2014-05-29T09:47:39.986Z</time>
      </trkpt>
      <trkpt lat="43.67522" lon="6.79712">
        <ele>603.3</ele>
        <time>2014-05-29T09:47:41.000Z</time>
      </trkpt>
      <trkpt lat="43.67526" lon="6.79711">
        <ele>602.3</ele>
        <time>2014-05-29T09:47:45.000Z</time>
      </trkpt>
      <trkpt lat="43.67527" lon="6.79711">
        <ele>599.9</ele>
        <time>2014-05-29T09:47:46.000Z</time>
      </trkpt>
      <trkpt lat="43.67531" lon="6.7971">
        <ele>599.3</ele>
        <time>2014-05-29T09:47:50.000Z</time>
      </trkpt>
      <trkpt lat="43.67532" lon="6.79709">
        <ele>600.3</ele>
        <time>2014-05-29T09:47:51.000Z</time>
      </trkpt>
      <trkpt lat="43.67535" lon="6.79706">
        <ele>602.2</ele>
        <time>2014-05-29T09:47:54.000Z</time>
      </trkpt>
      <trkpt lat="43.67536" lon="6.79705">
        <ele>602</ele>
        <time>2014-05-29T09:47:55.000Z</time>
      </trkpt>
      <trkpt lat="43.6754" lon="6.79704">
        <ele>601.7</ele>
        <time>2014-05-29T09:47:58.000Z</time>
      </trkpt>
      <trkpt lat="43.67542" lon="6.79703">
        <ele>602.1</ele>
        <time>2014-05-29T09:47:59.000Z</time>
      </trkpt>
      <trkpt lat="43.67545" lon="6.79702">
        <ele>601.9</ele>
        <time>2014-05-29T09:48:02.000Z</time>
      </trkpt>
      <trkpt lat="43.67546" lon="6.79701">
        <ele>602.2</ele>
        <time>2014-05-29T09:48:03.000Z</time>
      </trkpt>
      <trkpt lat="43.6755" lon="6.797">
        <ele>602.8</ele>
        <time>2014-05-29T09:48:06.000Z</time>
      </trkpt>
      <trkpt lat="43.67551" lon="6.79699">
        <ele>602.4</ele>
        <time>2014-05-29T09:48:07.000Z</time>
      </trkpt>
      <trkpt lat="43.67555" lon="6.79697">
        <ele>602.8</ele>
        <time>2014-05-29T09:48:11.000Z</time>
      </trkpt>
      <trkpt lat="43.67556" lon="6.79697">
        <ele>602.8</ele>
        <time>2014-05-29T09:48:12.000Z</time>
      </trkpt>
      <trkpt lat="43.6756" lon="6.79695">
        <ele>603.8</ele>
        <time>2014-05-29T09:48:16.000Z</time>
      </trkpt>
      <trkpt lat="43.67561" lon="6.79694">
        <ele>604.1</ele>
        <time>2014-05-29T09:48:17.000Z</time>
      </trkpt>
      <trkpt lat="43.67564" lon="6.79693">
        <ele>604.9</ele>
        <time>2014-05-29T09:48:20.000Z</time>
      </trkpt>
      <trkpt lat="43.67566" lon="6.79693">
        <ele>604.5</ele>
        <time>2014-05-29T09:48:21.000Z</time>
      </trkpt>
      <trkpt lat="43.67569" lon="6.79692">
        <ele>603.6</ele>
        <time>2014-05-29T09:48:24.000Z</time>
      </trkpt>
      <trkpt lat="43.6757" lon="6.79691">
        <ele>603.7</ele>
        <time>2014-05-29T09:48:25.000Z</time>
      </trkpt>
      <trkpt lat="43.67574" lon="6.79689">
        <ele>604.9</ele>
        <time>2014-05-29T09:48:29.000Z</time>
      </trkpt>
      <trkpt lat="43.67575" lon="6.79689">
        <ele>605.1</ele>
        <time>2014-05-29T09:48:30.000Z</time>
      </trkpt>
      <trkpt lat="43.67579" lon="6.79689">
        <ele>605</ele>
        <time>2014-05-29T09:48:33.000Z</time>
      </trkpt>
      <trkpt lat="43.6758" lon="6.79688">
        <ele>604.9</ele>
        <time>2014-05-29T09:48:34.000Z</time>
      </trkpt>
      <trkpt lat="43.67584" lon="6.79687">
        <ele>605.5</ele>
        <time>2014-05-29T09:48:38.000Z</time>
      </trkpt>
      <trkpt lat="43.67585" lon="6.79686">
        <ele>604.8</ele>
        <time>2014-05-29T09:48:39.000Z</time>
      </trkpt>
      <trkpt lat="43.67589" lon="6.79685">
        <ele>606</ele>
        <time>2014-05-29T09:48:44.000Z</time>
      </trkpt>
      <trkpt lat="43.6759" lon="6.79684">
        <ele>606.4</ele>
        <time>2014-05-29T09:48:45.000Z</time>
      </trkpt>
      <trkpt lat="43.67594" lon="6.79683">
        <ele>606.7</ele>
        <time>2014-05-29T09:48:49.000Z</time>
      </trkpt>
      <trkpt lat="43.67595" lon="6.79682">
        <ele>607.3</ele>
        <time>2014-05-29T09:48:50.000Z</time>
      </trkpt>
      <trkpt lat="43.67599" lon="6.79681">
        <ele>607.2</ele>
        <time>2014-05-29T09:48:54.000Z</time>
      </trkpt>
      <trkpt lat="43.676" lon="6.79681">
        <ele>606.8</ele>
        <time>2014-05-29T09:48:55.000Z</time>
      </trkpt>
      <trkpt lat="43.67603" lon="6.79679">
        <ele>606.7</ele>
        <time>2014-05-29T09:48:58.000Z</time>
      </trkpt>
      <trkpt lat="43.67604" lon="6.79679">
        <ele>606.9</ele>
        <time>2014-05-29T09:48:59.000Z</time>
      </trkpt>
      <trkpt lat="43.67608" lon="6.79679">
        <ele>606</ele>
        <time>2014-05-29T09:49:02.000Z</time>
      </trkpt>
      <trkpt lat="43.67609" lon="6.79679">
        <ele>605.4</ele>
        <time>2014-05-29T09:49:03.000Z</time>
      </trkpt>
      <trkpt lat="43.67613" lon="6.79677">
        <ele>605.8</ele>
        <time>2014-05-29T09:49:06.000Z</time>
      </trkpt>
      <trkpt lat="43.67613" lon="6.79676">
        <ele>605.6</ele>
        <time>2014-05-29T09:49:07.000Z</time>
      </trkpt>
      <trkpt lat="43.67616" lon="6.79674">
        <ele>606.6</ele>
        <time>2014-05-29T09:49:11.000Z</time>
      </trkpt>
      <trkpt lat="43.67618" lon="6.79673">
        <ele>606.5</ele>
        <time>2014-05-29T09:49:12.000Z</time>
      </trkpt>
      <trkpt lat="43.67621" lon="6.79671">
        <ele>607.2</ele>
        <time>2014-05-29T09:49:16.000Z</time>
      </trkpt>
      <trkpt lat="43.67623" lon="6.79671">
        <ele>607.1</ele>
        <time>2014-05-29T09:49:17.000Z</time>
      </trkpt>
      <trkpt lat="43.67627" lon="6.7967">
        <ele>608.5</ele>
        <time>2014-05-29T09:49:22.000Z</time>
      </trkpt>
      <trkpt lat="43.67628" lon="6.7967">
        <ele>609.2</ele>
        <time>2014-05-29T09:49:23.000Z</time>
      </trkpt>
      <trkpt lat="43.67631" lon="6.7967">
        <ele>609.6</ele>
        <time>2014-05-29T09:49:25.000Z</time>
      </trkpt>
      <trkpt lat="43.67633" lon="6.79669">
        <ele>610</ele>
        <time>2014-05-29T09:49:26.000Z</time>
      </trkpt>
      <trkpt lat="43.67637" lon="6.79668">
        <ele>611</ele>
        <time>2014-05-29T09:49:29.000Z</time>
      </trkpt>
      <trkpt lat="43.67638" lon="6.79668">
        <ele>611.2</ele>
        <time>2014-05-29T09:49:30.000Z</time>
      </trkpt>
      <trkpt lat="43.67642" lon="6.79666">
        <ele>611.2</ele>
        <time>2014-05-29T09:49:33.000Z</time>
      </trkpt>
      <trkpt lat="43.67643" lon="6.79666">
        <ele>611</ele>
        <time>2014-05-29T09:49:34.000Z</time>
      </trkpt>
      <trkpt lat="43.67646" lon="6.79665">
        <ele>610.9</ele>
        <time>2014-05-29T09:49:37.000Z</time>
      </trkpt>
      <trkpt lat="43.67647" lon="6.79665">
        <ele>610.6</ele>
        <time>2014-05-29T09:49:38.000Z</time>
      </trkpt>
      <trkpt lat="43.67651" lon="6.79665">
        <ele>612.7</ele>
        <time>2014-05-29T09:49:42.000Z</time>
      </trkpt>
      <trkpt lat="43.67652" lon="6.79664">
        <ele>613.4</ele>
        <time>2014-05-29T09:49:43.000Z</time>
      </trkpt>
      <trkpt lat="43.67656" lon="6.79664">
        <ele>613.2</ele>
        <time>2014-05-29T09:49:47.000Z</time>
      </trkpt>
      <trkpt lat="43.67658" lon="6.79664">
        <ele>613.5</ele>
        <time>2014-05-29T09:49:48.000Z</time>
      </trkpt>
      <trkpt lat="43.67661" lon="6.79664">
        <ele>614.2</ele>
        <time>2014-05-29T09:49:51.000Z</time>
      </trkpt>
      <trkpt lat="43.67662" lon="6.79664">
        <ele>614.1</ele>
        <time>2014-05-29T09:49:52.000Z</time>
      </trkpt>
      <trkpt lat="43.67666" lon="6.79662">
        <ele>615</ele>
        <time>2014-05-29T09:49:56.000Z</time>
      </trkpt>
      <trkpt lat="43.67667" lon="6.79663">
        <ele>614.9</ele>
        <time>2014-05-29T09:49:57.000Z</time>
      </trkpt>
      <trkpt lat="43.67671" lon="6.79662">
        <ele>615.2</ele>
        <time>2014-05-29T09:50:01.000Z</time>
      </trkpt>
      <trkpt lat="43.67672" lon="6.79662">
        <ele>615.6</ele>
        <time>2014-05-29T09:50:02.000Z</time>
      </trkpt>
      <trkpt lat="43.67676" lon="6.79662">
        <ele>616.1</ele>
        <time>2014-05-29T09:50:06.000Z</time>
      </trkpt>
      <trkpt lat="43.67677" lon="6.79662">
        <ele>616.3</ele>
        <time>2014-05-29T09:50:07.000Z</time>
      </trkpt>
      <trkpt lat="43.67681" lon="6.79661">
        <ele>616.7</ele>
        <time>2014-05-29T09:50:11.000Z</time>
      </trkpt>
      <trkpt lat="43.67682" lon="6.79662">
        <ele>616.9</ele>
        <time>2014-05-29T09:50:12.000Z</time>
      </trkpt>
      <trkpt lat="43.67686" lon="6.79662">
        <ele>617.2</ele>
        <time>2014-05-29T09:50:15.000Z</time>
      </trkpt>
      <trkpt lat="43.67687" lon="6.79663">
        <ele>617.1</ele>
        <time>2014-05-29T09:50:16.000Z</time>
      </trkpt>
      <trkpt lat="43.67691" lon="6.79663">
        <ele>618.2</ele>
        <time>2014-05-29T09:50:20.000Z</time>
      </trkpt>
      <trkpt lat="43.67692" lon="6.79663">
        <ele>618.4</ele>
        <time>2014-05-29T09:50:21.000Z</time>
      </trkpt>
      <trkpt lat="43.67696" lon="6.79664">
        <ele>619.6</ele>
        <time>2014-05-29T09:50:25.000Z</time>
      </trkpt>
      <trkpt lat="43.67697" lon="6.79665">
        <ele>619.5</ele>
        <time>2014-05-29T09:50:26.000Z</time>
      </trkpt>
      <trkpt lat="43.67701" lon="6.79666">
        <ele>620.4</ele>
        <time>2014-05-29T09:50:30.000Z</time>
      </trkpt>
      <trkpt lat="43.67703" lon="6.79667">
        <ele>621.3</ele>
        <time>2014-05-29T09:50:31.989Z</time>
      </trkpt>
      <trkpt lat="43.67707" lon="6.79667">
        <ele>623.2</ele>
        <time>2014-05-29T09:50:35.989Z</time>
      </trkpt>
      <trkpt lat="43.67708" lon="6.79667">
        <ele>623.6</ele>
        <time>2014-05-29T09:50:36.989Z</time>
      </trkpt>
      <trkpt lat="43.67711" lon="6.79667">
        <ele>625</ele>
        <time>2014-05-29T09:50:39.989Z</time>
      </trkpt>
      <trkpt lat="43.67712" lon="6.7967">
        <ele>620.5</ele>
        <time>2014-05-29T09:50:41.000Z</time>
      </trkpt>
      <trkpt lat="43.67716" lon="6.79673">
        <ele>619.3</ele>
        <time>2014-05-29T09:50:46.000Z</time>
      </trkpt>
      <trkpt lat="43.67717" lon="6.79674">
        <ele>618.3</ele>
        <time>2014-05-29T09:50:47.000Z</time>
      </trkpt>
      <trkpt lat="43.67721" lon="6.79676">
        <ele>619</ele>
        <time>2014-05-29T09:50:51.000Z</time>
      </trkpt>
      <trkpt lat="43.67723" lon="6.79676">
        <ele>618.6</ele>
        <time>2014-05-29T09:50:52.000Z</time>
      </trkpt>
      <trkpt lat="43.67727" lon="6.79677">
        <ele>619.4</ele>
        <time>2014-05-29T09:50:56.000Z</time>
      </trkpt>
      <trkpt lat="43.67728" lon="6.79677">
        <ele>619.1</ele>
        <time>2014-05-29T09:50:57.000Z</time>
      </trkpt>
      <trkpt lat="43.67731" lon="6.7968">
        <ele>620.4</ele>
        <time>2014-05-29T09:51:00.000Z</time>
      </trkpt>
      <trkpt lat="43.67732" lon="6.79679">
        <ele>620.8</ele>
        <time>2014-05-29T09:51:01.000Z</time>
      </trkpt>
      <trkpt lat="43.67735" lon="6.7968">
        <ele>621.3</ele>
        <time>2014-05-29T09:51:04.000Z</time>
      </trkpt>
      <trkpt lat="43.67736" lon="6.79681">
        <ele>621.4</ele>
        <time>2014-05-29T09:51:05.000Z</time>
      </trkpt>
      <trkpt lat="43.6774" lon="6.79682">
        <ele>622.9</ele>
        <time>2014-05-29T09:51:09.000Z</time>
      </trkpt>
      <trkpt lat="43.67741" lon="6.79682">
        <ele>623.3</ele>
        <time>2014-05-29T09:51:10.000Z</time>
      </trkpt>
      <trkpt lat="43.67745" lon="6.79683">
        <ele>624.1</ele>
        <time>2014-05-29T09:51:14.000Z</time>
      </trkpt>
      <trkpt lat="43.67746" lon="6.79684">
        <ele>624.1</ele>
        <time>2014-05-29T09:51:15.000Z</time>
      </trkpt>
      <trkpt lat="43.67749" lon="6.79686">
        <ele>624.5</ele>
        <time>2014-05-29T09:51:18.000Z</time>
      </trkpt>
      <trkpt lat="43.6775" lon="6.79687">
        <ele>625.1</ele>
        <time>2014-05-29T09:51:19.000Z</time>
      </trkpt>
      <trkpt lat="43.67753" lon="6.79688">
        <ele>624.8</ele>
        <time>2014-05-29T09:51:22.000Z</time>
      </trkpt>
      <trkpt lat="43.67755" lon="6.79688">
        <ele>624.5</ele>
        <time>2014-05-29T09:51:23.000Z</time>
      </trkpt>
      <trkpt lat="43.67758" lon="6.79689">
        <ele>624.8</ele>
        <time>2014-05-29T09:51:26.000Z</time>
      </trkpt>
      <trkpt lat="43.6776" lon="6.79689">
        <ele>625.2</ele>
        <time>2014-05-29T09:51:27.000Z</time>
      </trkpt>
      <trkpt lat="43.67762" lon="6.7969">
        <ele>624.8</ele>
        <time>2014-05-29T09:51:30.000Z</time>
      </trkpt>
      <trkpt lat="43.67765" lon="6.79691">
        <ele>624.8</ele>
        <time>2014-05-29T09:51:31.990Z</time>
      </trkpt>
      <trkpt lat="43.67768" lon="6.79692">
        <ele>624.8</ele>
        <time>2014-05-29T09:51:34.990Z</time>
      </trkpt>
      <trkpt lat="43.67769" lon="6.79692">
        <ele>624.8</ele>
        <time>2014-05-29T09:51:35.990Z</time>
      </trkpt>
      <trkpt lat="43.67772" lon="6.79694">
        <ele>624.8</ele>
        <time>2014-05-29T09:51:38.990Z</time>
      </trkpt>
      <trkpt lat="43.67773" lon="6.79694">
        <ele>624.8</ele>
        <time>2014-05-29T09:51:39.990Z</time>
      </trkpt>
      <trkpt lat="43.67776" lon="6.79699">
        <ele>632.6</ele>
        <time>2014-05-29T09:51:43.000Z</time>
      </trkpt>
      <trkpt lat="43.67777" lon="6.79698">
        <ele>631.5</ele>
        <time>2014-05-29T09:51:44.000Z</time>
      </trkpt>
      <trkpt lat="43.67781" lon="6.79697">
        <ele>634.5</ele>
        <time>2014-05-29T09:51:47.000Z</time>
      </trkpt>
      <trkpt lat="43.67782" lon="6.79696">
        <ele>635.4</ele>
        <time>2014-05-29T09:51:48.000Z</time>
      </trkpt>
      <trkpt lat="43.67785" lon="6.79699">
        <ele>637.6</ele>
        <time>2014-05-29T09:51:52.000Z</time>
      </trkpt>
      <trkpt lat="43.67786" lon="6.797">
        <ele>638.4</ele>
        <time>2014-05-29T09:51:53.000Z</time>
      </trkpt>
      <trkpt lat="43.67787" lon="6.79705">
        <ele>637.4</ele>
        <time>2014-05-29T09:51:56.000Z</time>
      </trkpt>
      <trkpt lat="43.67787" lon="6.79706">
        <ele>636</ele>
        <time>2014-05-29T09:51:57.000Z</time>
      </trkpt>
      <trkpt lat="43.67787" lon="6.79711">
        <ele>634.2</ele>
        <time>2014-05-29T09:52:00.000Z</time>
      </trkpt>
      <trkpt lat="43.67787" lon="6.79713">
        <ele>633.3</ele>
        <time>2014-05-29T09:52:01.000Z</time>
      </trkpt>
      <trkpt lat="43.67784" lon="6.79717">
        <ele>633.5</ele>
        <time>2014-05-29T09:52:05.000Z</time>
      </trkpt>
      <trkpt lat="43.67784" lon="6.79718">
        <ele>633.5</ele>
        <time>2014-05-29T09:52:06.000Z</time>
      </trkpt>
      <trkpt lat="43.67782" lon="6.79723">
        <ele>633.6</ele>
        <time>2014-05-29T09:52:09.000Z</time>
      </trkpt>
      <trkpt lat="43.67781" lon="6.79724">
        <ele>632.9</ele>
        <time>2014-05-29T09:52:10.000Z</time>
      </trkpt>
      <trkpt lat="43.67778" lon="6.79728">
        <ele>632.3</ele>
        <time>2014-05-29T09:52:14.000Z</time>
      </trkpt>
      <trkpt lat="43.67778" lon="6.79729">
        <ele>632.3</ele>
        <time>2014-05-29T09:52:15.000Z</time>
      </trkpt>
      <trkpt lat="43.67776" lon="6.79733">
        <ele>632</ele>
        <time>2014-05-29T09:52:18.000Z</time>
      </trkpt>
      <trkpt lat="43.67775" lon="6.79734">
        <ele>631.5</ele>
        <time>2014-05-29T09:52:19.000Z</time>
      </trkpt>
      <trkpt lat="43.67772" lon="6.79739">
        <ele>632</ele>
        <time>2014-05-29T09:52:23.000Z</time>
      </trkpt>
      <trkpt lat="43.67771" lon="6.7974">
        <ele>632.4</ele>
        <time>2014-05-29T09:52:24.000Z</time>
      </trkpt>
      <trkpt lat="43.6777" lon="6.79745">
        <ele>633.3</ele>
        <time>2014-05-29T09:52:28.000Z</time>
      </trkpt>
      <trkpt lat="43.67769" lon="6.79747">
        <ele>633.5</ele>
        <time>2014-05-29T09:52:29.000Z</time>
      </trkpt>
      <trkpt lat="43.67768" lon="6.79748">
        <ele>633.9</ele>
        <time>2014-05-29T09:52:29.810Z</time>
      </trkpt>
      <trkpt lat="43.67766" lon="6.79753">
        <ele>633.8</ele>
        <time>2014-05-29T09:52:32.990Z</time>
      </trkpt>
      <trkpt lat="43.67765" lon="6.79757">
        <ele>633.8</ele>
        <time>2014-05-29T09:52:35.990Z</time>
      </trkpt>
      <trkpt lat="43.67764" lon="6.79759">
        <ele>633.7</ele>
        <time>2014-05-29T09:52:36.990Z</time>
      </trkpt>
      <trkpt lat="43.67762" lon="6.79763">
        <ele>633.6</ele>
        <time>2014-05-29T09:52:39.990Z</time>
      </trkpt>
      <trkpt lat="43.67759" lon="6.79765">
        <ele>635</ele>
        <time>2014-05-29T09:52:41.000Z</time>
      </trkpt>
      <trkpt lat="43.67756" lon="6.7977">
        <ele>633.8</ele>
        <time>2014-05-29T09:52:46.000Z</time>
      </trkpt>
      <trkpt lat="43.67755" lon="6.79771">
        <ele>633.7</ele>
        <time>2014-05-29T09:52:47.000Z</time>
      </trkpt>
      <trkpt lat="43.67753" lon="6.79776">
        <ele>635.4</ele>
        <time>2014-05-29T09:52:50.000Z</time>
      </trkpt>
      <trkpt lat="43.67752" lon="6.79777">
        <ele>634.7</ele>
        <time>2014-05-29T09:52:51.000Z</time>
      </trkpt>
      <trkpt lat="43.67749" lon="6.79781">
        <ele>635.1</ele>
        <time>2014-05-29T09:52:55.000Z</time>
      </trkpt>
      <trkpt lat="43.67748" lon="6.79783">
        <ele>634.8</ele>
        <time>2014-05-29T09:52:56.000Z</time>
      </trkpt>
      <trkpt lat="43.67747" lon="6.79788">
        <ele>635.7</ele>
        <time>2014-05-29T09:53:00.000Z</time>
      </trkpt>
      <trkpt lat="43.67746" lon="6.79789">
        <ele>635.3</ele>
        <time>2014-05-29T09:53:01.000Z</time>
      </trkpt>
      <trkpt lat="43.67743" lon="6.79794">
        <ele>634.7</ele>
        <time>2014-05-29T09:53:05.000Z</time>
      </trkpt>
      <trkpt lat="43.67742" lon="6.79795">
        <ele>635.1</ele>
        <time>2014-05-29T09:53:06.000Z</time>
      </trkpt>
      <trkpt lat="43.6774" lon="6.79799">
        <ele>634.9</ele>
        <time>2014-05-29T09:53:09.000Z</time>
      </trkpt>
      <trkpt lat="43.67739" lon="6.798">
        <ele>635.3</ele>
        <time>2014-05-29T09:53:10.000Z</time>
      </trkpt>
      <trkpt lat="43.67737" lon="6.79804">
        <ele>635.1</ele>
        <time>2014-05-29T09:53:13.000Z</time>
      </trkpt>
      <trkpt lat="43.67737" lon="6.79806">
        <ele>635.1</ele>
        <time>2014-05-29T09:53:14.000Z</time>
      </trkpt>
      <trkpt lat="43.67736" lon="6.79812">
        <ele>635.3</ele>
        <time>2014-05-29T09:53:17.000Z</time>
      </trkpt>
      <trkpt lat="43.67737" lon="6.79813">
        <ele>635.2</ele>
        <time>2014-05-29T09:53:18.000Z</time>
      </trkpt>
      <trkpt lat="43.6774" lon="6.79816">
        <ele>636.3</ele>
        <time>2014-05-29T09:53:21.000Z</time>
      </trkpt>
      <trkpt lat="43.67741" lon="6.79816">
        <ele>636</ele>
        <time>2014-05-29T09:53:22.000Z</time>
      </trkpt>
      <trkpt lat="43.67745" lon="6.79816">
        <ele>636.7</ele>
        <time>2014-05-29T09:53:25.000Z</time>
      </trkpt>
      <trkpt lat="43.67746" lon="6.79815">
        <ele>636.8</ele>
        <time>2014-05-29T09:53:26.000Z</time>
      </trkpt>
      <trkpt lat="43.67749" lon="6.79812">
        <ele>637.4</ele>
        <time>2014-05-29T09:53:28.000Z</time>
      </trkpt>
      <trkpt lat="43.6775" lon="6.79811">
        <ele>637.7</ele>
        <time>2014-05-29T09:53:29.000Z</time>
      </trkpt>
      <trkpt lat="43.67754" lon="6.7981">
        <ele>638.2</ele>
        <time>2014-05-29T09:53:31.991Z</time>
      </trkpt>
      <trkpt lat="43.67755" lon="6.79809">
        <ele>638.4</ele>
        <time>2014-05-29T09:53:32.991Z</time>
      </trkpt>
      <trkpt lat="43.67759" lon="6.79807">
        <ele>639.2</ele>
        <time>2014-05-29T09:53:35.991Z</time>
      </trkpt>
      <trkpt lat="43.6776" lon="6.79806">
        <ele>639.5</ele>
        <time>2014-05-29T09:53:36.991Z</time>
      </trkpt>
      <trkpt lat="43.67763" lon="6.79804">
        <ele>640.2</ele>
        <time>2014-05-29T09:53:39.991Z</time>
      </trkpt>
      <trkpt lat="43.67764" lon="6.79802">
        <ele>637.3</ele>
        <time>2014-05-29T09:53:41.000Z</time>
      </trkpt>
      <trkpt lat="43.67768" lon="6.79802">
        <ele>636.1</ele>
        <time>2014-05-29T09:53:45.000Z</time>
      </trkpt>
      <trkpt lat="43.6777" lon="6.79801">
        <ele>636.9</ele>
        <time>2014-05-29T09:53:46.000Z</time>
      </trkpt>
      <trkpt lat="43.67773" lon="6.79799">
        <ele>637.7</ele>
        <time>2014-05-29T09:53:49.000Z</time>
      </trkpt>
      <trkpt lat="43.67774" lon="6.79797">
        <ele>637.9</ele>
        <time>2014-05-29T09:53:50.000Z</time>
      </trkpt>
      <trkpt lat="43.67778" lon="6.79794">
        <ele>638.2</ele>
        <time>2014-05-29T09:53:53.000Z</time>
      </trkpt>
      <trkpt lat="43.67779" lon="6.79794">
        <ele>638.7</ele>
        <time>2014-05-29T09:53:54.000Z</time>
      </trkpt>
      <trkpt lat="43.67783" lon="6.79792">
        <ele>638.2</ele>
        <time>2014-05-29T09:53:58.000Z</time>
      </trkpt>
      <trkpt lat="43.67784" lon="6.79791">
        <ele>638.4</ele>
        <time>2014-05-29T09:53:59.000Z</time>
      </trkpt>
      <trkpt lat="43.67788" lon="6.79788">
        <ele>638.3</ele>
        <time>2014-05-29T09:54:03.000Z</time>
      </trkpt>
      <trkpt lat="43.6779" lon="6.79787">
        <ele>638.2</ele>
        <time>2014-05-29T09:54:04.000Z</time>
      </trkpt>
      <trkpt lat="43.67794" lon="6.79785">
        <ele>637.9</ele>
        <time>2014-05-29T09:54:07.000Z</time>
      </trkpt>
      <trkpt lat="43.67795" lon="6.79784">
        <ele>638.7</ele>
        <time>2014-05-29T09:54:08.000Z</time>
      </trkpt>
      <trkpt lat="43.67798" lon="6.79782">
        <ele>638.6</ele>
        <time>2014-05-29T09:54:11.000Z</time>
      </trkpt>
      <trkpt lat="43.67799" lon="6.79781">
        <ele>638.4</ele>
        <time>2014-05-29T09:54:12.000Z</time>
      </trkpt>
      <trkpt lat="43.67803" lon="6.7978">
        <ele>638</ele>
        <time>2014-05-29T09:54:15.000Z</time>
      </trkpt>
      <trkpt lat="43.67804" lon="6.7978">
        <ele>638.4</ele>
        <time>2014-05-29T09:54:16.000Z</time>
      </trkpt>
      <trkpt lat="43.67807" lon="6.79778">
        <ele>638.1</ele>
        <time>2014-05-29T09:54:19.000Z</time>
      </trkpt>
      <trkpt lat="43.67808" lon="6.79777">
        <ele>638.6</ele>
        <time>2014-05-29T09:54:20.000Z</time>
      </trkpt>
      <trkpt lat="43.67812" lon="6.79777">
        <ele>638.5</ele>
        <time>2014-05-29T09:54:23.000Z</time>
      </trkpt>
      <trkpt lat="43.67813" lon="6.79776">
        <ele>639</ele>
        <time>2014-05-29T09:54:24.000Z</time>
      </trkpt>
      <trkpt lat="43.67816" lon="6.79775">
        <ele>638.8</ele>
        <time>2014-05-29T09:54:27.000Z</time>
      </trkpt>
      <trkpt lat="43.67817" lon="6.79774">
        <ele>638.8</ele>
        <time>2014-05-29T09:54:28.000Z</time>
      </trkpt>
      <trkpt lat="43.6782" lon="6.79773">
        <ele>638.6</ele>
        <time>2014-05-29T09:54:30.000Z</time>
      </trkpt>
      <trkpt lat="43.67822" lon="6.79773">
        <ele>639.2</ele>
        <time>2014-05-29T09:54:31.992Z</time>
      </trkpt>
      <trkpt lat="43.67825" lon="6.79771">
        <ele>640.2</ele>
        <time>2014-05-29T09:54:34.992Z</time>
      </trkpt>
      <trkpt lat="43.67826" lon="6.79771">
        <ele>640.6</ele>
        <time>2014-05-29T09:54:35.992Z</time>
      </trkpt>
      <trkpt lat="43.67829" lon="6.79769">
        <ele>641.6</ele>
        <time>2014-05-29T09:54:38.992Z</time>
      </trkpt>
      <trkpt lat="43.6783" lon="6.79769">
        <ele>641.9</ele>
        <time>2014-05-29T09:54:39.992Z</time>
      </trkpt>
      <trkpt lat="43.67834" lon="6.79772">
        <ele>640</ele>
        <time>2014-05-29T09:54:42.000Z</time>
      </trkpt>
      <trkpt lat="43.67836" lon="6.7977">
        <ele>638.8</ele>
        <time>2014-05-29T09:54:43.000Z</time>
      </trkpt>
      <trkpt lat="43.67839" lon="6.79771">
        <ele>637.4</ele>
        <time>2014-05-29T09:54:45.000Z</time>
      </trkpt>
      <trkpt lat="43.67841" lon="6.7977">
        <ele>637.8</ele>
        <time>2014-05-29T09:54:46.000Z</time>
      </trkpt>
      <trkpt lat="43.67845" lon="6.79772">
        <ele>639.8</ele>
        <time>2014-05-29T09:54:49.000Z</time>
      </trkpt>
      <trkpt lat="43.67846" lon="6.79772">
        <ele>641.3</ele>
        <time>2014-05-29T09:54:50.000Z</time>
      </trkpt>
      <trkpt lat="43.67849" lon="6.79773">
        <ele>642.7</ele>
        <time>2014-05-29T09:54:53.000Z</time>
      </trkpt>
      <trkpt lat="43.67851" lon="6.79773">
        <ele>643</ele>
        <time>2014-05-29T09:54:54.000Z</time>
      </trkpt>
      <trkpt lat="43.67854" lon="6.79774">
        <ele>643.7</ele>
        <time>2014-05-29T09:54:57.000Z</time>
      </trkpt>
      <trkpt lat="43.67855" lon="6.79774">
        <ele>644.2</ele>
        <time>2014-05-29T09:54:58.000Z</time>
      </trkpt>
      <trkpt lat="43.67859" lon="6.79776">
        <ele>646.2</ele>
        <time>2014-05-29T09:55:03.000Z</time>
      </trkpt>
      <trkpt lat="43.6786" lon="6.79777">
        <ele>646.6</ele>
        <time>2014-05-29T09:55:04.000Z</time>
      </trkpt>
      <trkpt lat="43.67863" lon="6.7978">
        <ele>647.3</ele>
        <time>2014-05-29T09:55:07.000Z</time>
      </trkpt>
      <trkpt lat="43.67864" lon="6.7978">
        <ele>647.2</ele>
        <time>2014-05-29T09:55:08.000Z</time>
      </trkpt>
      <trkpt lat="43.67867" lon="6.79784">
        <ele>650</ele>
        <time>2014-05-29T09:55:13.000Z</time>
      </trkpt>
      <trkpt lat="43.67868" lon="6.79785">
        <ele>651.1</ele>
        <time>2014-05-29T09:55:14.000Z</time>
      </trkpt>
      <trkpt lat="43.67871" lon="6.79788">
        <ele>651.1</ele>
        <time>2014-05-29T09:55:17.000Z</time>
      </trkpt>
      <trkpt lat="43.67871" lon="6.79789">
        <ele>650.8</ele>
        <time>2014-05-29T09:55:18.000Z</time>
      </trkpt>
      <trkpt lat="43.67875" lon="6.79792">
        <ele>650.5</ele>
        <time>2014-05-29T09:55:21.000Z</time>
      </trkpt>
      <trkpt lat="43.67875" lon="6.79794">
        <ele>650.3</ele>
        <time>2014-05-29T09:55:22.000Z</time>
      </trkpt>
      <trkpt lat="43.67878" lon="6.79797">
        <ele>650.5</ele>
        <time>2014-05-29T09:55:25.000Z</time>
      </trkpt>
      <trkpt lat="43.67879" lon="6.79798">
        <ele>650.4</ele>
        <time>2014-05-29T09:55:26.000Z</time>
      </trkpt>
      <trkpt lat="43.67881" lon="6.798">
        <ele>653.5</ele>
        <time>2014-05-29T09:55:30.000Z</time>
      </trkpt>
      <trkpt lat="43.67883" lon="6.79801">
        <ele>655</ele>
        <time>2014-05-29T09:55:31.992Z</time>
      </trkpt>
      <trkpt lat="43.67885" lon="6.79806">
        <ele>658.6</ele>
        <time>2014-05-29T09:55:36.992Z</time>
      </trkpt>
      <trkpt lat="43.67886" lon="6.79806">
        <ele>659.3</ele>
        <time>2014-05-29T09:55:37.992Z</time>
      </trkpt>
      <trkpt lat="43.67887" lon="6.79808">
        <ele>660.8</ele>
        <time>2014-05-29T09:55:39.992Z</time>
      </trkpt>
      <trkpt lat="43.6789" lon="6.79812">
        <ele>656</ele>
        <time>2014-05-29T09:55:41.000Z</time>
      </trkpt>
      <trkpt lat="43.67892" lon="6.79818">
        <ele>654.3</ele>
        <time>2014-05-29T09:55:42.000Z</time>
      </trkpt>
      <trkpt lat="43.67895" lon="6.79821">
        <ele>655.6</ele>
        <time>2014-05-29T09:55:45.000Z</time>
      </trkpt>
      <trkpt lat="43.67897" lon="6.79822">
        <ele>653.6</ele>
        <time>2014-05-29T09:55:46.000Z</time>
      </trkpt>
      <trkpt lat="43.67901" lon="6.79824">
        <ele>653.9</ele>
        <time>2014-05-29T09:55:50.000Z</time>
      </trkpt>
      <trkpt lat="43.67902" lon="6.79826">
        <ele>654.1</ele>
        <time>2014-05-29T09:55:51.000Z</time>
      </trkpt>
      <trkpt lat="43.67905" lon="6.79829">
        <ele>655.1</ele>
        <time>2014-05-29T09:55:55.000Z</time>
      </trkpt>
      <trkpt lat="43.67906" lon="6.7983">
        <ele>655</ele>
        <time>2014-05-29T09:55:56.000Z</time>
      </trkpt>
      <trkpt lat="43.67908" lon="6.79835">
        <ele>656.9</ele>
        <time>2014-05-29T09:56:00.000Z</time>
      </trkpt>
      <trkpt lat="43.67909" lon="6.79836">
        <ele>656.2</ele>
        <time>2014-05-29T09:56:01.000Z</time>
      </trkpt>
      <trkpt lat="43.67911" lon="6.79839">
        <ele>655.9</ele>
        <time>2014-05-29T09:56:04.000Z</time>
      </trkpt>
      <trkpt lat="43.67912" lon="6.79842">
        <ele>655.5</ele>
        <time>2014-05-29T09:56:05.000Z</time>
      </trkpt>
      <trkpt lat="43.67913" lon="6.79846">
        <ele>654.4</ele>
        <time>2014-05-29T09:56:07.000Z</time>
      </trkpt>
      <trkpt lat="43.67914" lon="6.79847">
        <ele>654.5</ele>
        <time>2014-05-29T09:56:08.000Z</time>
      </trkpt>
      <trkpt lat="43.67916" lon="6.7985">
        <ele>657.1</ele>
        <time>2014-05-29T09:56:12.000Z</time>
      </trkpt>
      <trkpt lat="43.67917" lon="6.79851">
        <ele>656.9</ele>
        <time>2014-05-29T09:56:13.000Z</time>
      </trkpt>
      <trkpt lat="43.67919" lon="6.79854">
        <ele>657.4</ele>
        <time>2014-05-29T09:56:15.000Z</time>
      </trkpt>
      <trkpt lat="43.6792" lon="6.79857">
        <ele>656.7</ele>
        <time>2014-05-29T09:56:16.000Z</time>
      </trkpt>
      <trkpt lat="43.67922" lon="6.79862">
        <ele>657.4</ele>
        <time>2014-05-29T09:56:20.000Z</time>
      </trkpt>
      <trkpt lat="43.67923" lon="6.79862">
        <ele>658</ele>
        <time>2014-05-29T09:56:21.000Z</time>
      </trkpt>
      <trkpt lat="43.67926" lon="6.79866">
        <ele>658</ele>
        <time>2014-05-29T09:56:24.000Z</time>
      </trkpt>
      <trkpt lat="43.67926" lon="6.79867">
        <ele>657.6</ele>
        <time>2014-05-29T09:56:25.000Z</time>
      </trkpt>
      <trkpt lat="43.67927" lon="6.79871">
        <ele>658.5</ele>
        <time>2014-05-29T09:56:28.000Z</time>
      </trkpt>
      <trkpt lat="43.67928" lon="6.79873">
        <ele>658</ele>
        <time>2014-05-29T09:56:29.000Z</time>
      </trkpt>
      <trkpt lat="43.6793" lon="6.79877">
        <ele>655.6</ele>
        <time>2014-05-29T09:56:31.993Z</time>
      </trkpt>
      <trkpt lat="43.6793" lon="6.79879">
        <ele>654.7</ele>
        <time>2014-05-29T09:56:32.993Z</time>
      </trkpt>
      <trkpt lat="43.67932" lon="6.79884">
        <ele>650.9</ele>
        <time>2014-05-29T09:56:36.993Z</time>
      </trkpt>
      <trkpt lat="43.67933" lon="6.79885">
        <ele>649.9</ele>
        <time>2014-05-29T09:56:37.993Z</time>
      </trkpt>
      <trkpt lat="43.67934" lon="6.79888">
        <ele>648</ele>
        <time>2014-05-29T09:56:39.993Z</time>
      </trkpt>
      <trkpt lat="43.67934" lon="6.79893">
        <ele>654.6</ele>
        <time>2014-05-29T09:56:41.000Z</time>
      </trkpt>
      <trkpt lat="43.67937" lon="6.79895">
        <ele>653.9</ele>
        <time>2014-05-29T09:56:42.000Z</time>
      </trkpt>
      <trkpt lat="43.67943" lon="6.79895">
        <ele>653.7</ele>
        <time>2014-05-29T09:56:43.000Z</time>
      </trkpt>
      <trkpt lat="43.67946" lon="6.79899">
        <ele>652.1</ele>
        <time>2014-05-29T09:56:46.000Z</time>
      </trkpt>
      <trkpt lat="43.67947" lon="6.79899">
        <ele>651.1</ele>
        <time>2014-05-29T09:56:47.000Z</time>
      </trkpt>
      <trkpt lat="43.67946" lon="6.79904">
        <ele>653.8</ele>
        <time>2014-05-29T09:56:51.000Z</time>
      </trkpt>
      <trkpt lat="43.67946" lon="6.79905">
        <ele>654.3</ele>
        <time>2014-05-29T09:56:52.000Z</time>
      </trkpt>
      <trkpt lat="43.67947" lon="6.7991">
        <ele>656.5</ele>
        <time>2014-05-29T09:56:56.000Z</time>
      </trkpt>
      <trkpt lat="43.67949" lon="6.7991">
        <ele>657.5</ele>
        <time>2014-05-29T09:56:57.000Z</time>
      </trkpt>
      <trkpt lat="43.67951" lon="6.79914">
        <ele>658.6</ele>
        <time>2014-05-29T09:57:01.000Z</time>
      </trkpt>
      <trkpt lat="43.67951" lon="6.79915">
        <ele>660.1</ele>
        <time>2014-05-29T09:57:02.000Z</time>
      </trkpt>
      <trkpt lat="43.67953" lon="6.79918">
        <ele>659.8</ele>
        <time>2014-05-29T09:57:05.000Z</time>
      </trkpt>
      <trkpt lat="43.67954" lon="6.7992">
        <ele>659.5</ele>
        <time>2014-05-29T09:57:06.000Z</time>
      </trkpt>
      <trkpt lat="43.67957" lon="6.79924">
        <ele>661.6</ele>
        <time>2014-05-29T09:57:10.000Z</time>
      </trkpt>
      <trkpt lat="43.67959" lon="6.79926">
        <ele>661.4</ele>
        <time>2014-05-29T09:57:11.000Z</time>
      </trkpt>
      <trkpt lat="43.6796" lon="6.79931">
        <ele>661.6</ele>
        <time>2014-05-29T09:57:14.000Z</time>
      </trkpt>
      <trkpt lat="43.67961" lon="6.79931">
        <ele>661.3</ele>
        <time>2014-05-29T09:57:15.000Z</time>
      </trkpt>
      <trkpt lat="43.67963" lon="6.79936">
        <ele>663.9</ele>
        <time>2014-05-29T09:57:19.000Z</time>
      </trkpt>
      <trkpt lat="43.67964" lon="6.79938">
        <ele>664.5</ele>
        <time>2014-05-29T09:57:20.000Z</time>
      </trkpt>
      <trkpt lat="43.67966" lon="6.79943">
        <ele>664.2</ele>
        <time>2014-05-29T09:57:22.000Z</time>
      </trkpt>
      <trkpt lat="43.67966" lon="6.79945">
        <ele>664.5</ele>
        <time>2014-05-29T09:57:23.000Z</time>
      </trkpt>
      <trkpt lat="43.67966" lon="6.79951">
        <ele>663.1</ele>
        <time>2014-05-29T09:57:26.000Z</time>
      </trkpt>
      <trkpt lat="43.67966" lon="6.79953">
        <ele>663</ele>
        <time>2014-05-29T09:57:27.000Z</time>
      </trkpt>
      <trkpt lat="43.67964" lon="6.79958">
        <ele>662.7</ele>
        <time>2014-05-29T09:57:29.000Z</time>
      </trkpt>
      <trkpt lat="43.67965" lon="6.79961">
        <ele>662.5</ele>
        <time>2014-05-29T09:57:30.000Z</time>
      </trkpt>
      <trkpt lat="43.67965" lon="6.79965">
        <ele>662.8</ele>
        <time>2014-05-29T09:57:32.000Z</time>
      </trkpt>
      <trkpt lat="43.67965" lon="6.79967">
        <ele>662.7</ele>
        <time>2014-05-29T09:57:33.000Z</time>
      </trkpt>
      <trkpt lat="43.67965" lon="6.79969">
        <ele>663.2</ele>
        <time>2014-05-29T09:57:34.000Z</time>
      </trkpt>
      <trkpt lat="43.67967" lon="6.79973">
        <ele>662.5</ele>
        <time>2014-05-29T09:57:35.000Z</time>
      </trkpt>
      <trkpt lat="43.67967" lon="6.79979">
        <ele>663.5</ele>
        <time>2014-05-29T09:57:38.000Z</time>
      </trkpt>
      <trkpt lat="43.67965" lon="6.79981">
        <ele>663.5</ele>
        <time>2014-05-29T09:57:39.000Z</time>
      </trkpt>
      <trkpt lat="43.67964" lon="6.79987">
        <ele>663.1</ele>
        <time>2014-05-29T09:57:42.000Z</time>
      </trkpt>
      <trkpt lat="43.67965" lon="6.79988">
        <ele>662.9</ele>
        <time>2014-05-29T09:57:43.000Z</time>
      </trkpt>
      <trkpt lat="43.67964" lon="6.79994">
        <ele>662.6</ele>
        <time>2014-05-29T09:57:45.000Z</time>
      </trkpt>
      <trkpt lat="43.67964" lon="6.79996">
        <ele>664.5</ele>
        <time>2014-05-29T09:57:46.000Z</time>
      </trkpt>
      <trkpt lat="43.67965" lon="6.80001">
        <ele>662.9</ele>
        <time>2014-05-29T09:57:49.000Z</time>
      </trkpt>
      <trkpt lat="43.67964" lon="6.80003">
        <ele>663</ele>
        <time>2014-05-29T09:57:50.000Z</time>
      </trkpt>
      <trkpt lat="43.67963" lon="6.80009">
        <ele>664.4</ele>
        <time>2014-05-29T09:57:53.000Z</time>
      </trkpt>
      <trkpt lat="43.67962" lon="6.8001">
        <ele>664</ele>
        <time>2014-05-29T09:57:54.000Z</time>
      </trkpt>
      <trkpt lat="43.67962" lon="6.80015">
        <ele>665.5</ele>
        <time>2014-05-29T09:57:57.000Z</time>
      </trkpt>
      <trkpt lat="43.67961" lon="6.80016">
        <ele>665.5</ele>
        <time>2014-05-29T09:57:58.000Z</time>
      </trkpt>
      <trkpt lat="43.6796" lon="6.8002">
        <ele>664.4</ele>
        <time>2014-05-29T09:58:00.000Z</time>
      </trkpt>
      <trkpt lat="43.67959" lon="6.80022">
        <ele>664.4</ele>
        <time>2014-05-29T09:58:01.000Z</time>
      </trkpt>
      <trkpt lat="43.67958" lon="6.80027">
        <ele>664.8</ele>
        <time>2014-05-29T09:58:04.000Z</time>
      </trkpt>
      <trkpt lat="43.67957" lon="6.80029">
        <ele>665</ele>
        <time>2014-05-29T09:58:05.000Z</time>
      </trkpt>
      <trkpt lat="43.67954" lon="6.80031">
        <ele>663.1</ele>
        <time>2014-05-29T09:58:07.000Z</time>
      </trkpt>
      <trkpt lat="43.67954" lon="6.80033">
        <ele>663.5</ele>
        <time>2014-05-29T09:58:08.000Z</time>
      </trkpt>
      <trkpt lat="43.67953" lon="6.80038">
        <ele>665.5</ele>
        <time>2014-05-29T09:58:11.000Z</time>
      </trkpt>
      <trkpt lat="43.67952" lon="6.8004">
        <ele>666.3</ele>
        <time>2014-05-29T09:58:12.000Z</time>
      </trkpt>
      <trkpt lat="43.67953" lon="6.80045">
        <ele>666.3</ele>
        <time>2014-05-29T09:58:15.000Z</time>
      </trkpt>
      <trkpt lat="43.67953" lon="6.80047">
        <ele>666.3</ele>
        <time>2014-05-29T09:58:16.000Z</time>
      </trkpt>
      <trkpt lat="43.67952" lon="6.80053">
        <ele>667</ele>
        <time>2014-05-29T09:58:19.000Z</time>
      </trkpt>
      <trkpt lat="43.67951" lon="6.80054">
        <ele>667.2</ele>
        <time>2014-05-29T09:58:20.000Z</time>
      </trkpt>
      <trkpt lat="43.6795" lon="6.8006">
        <ele>667.8</ele>
        <time>2014-05-29T09:58:23.000Z</time>
      </trkpt>
      <trkpt lat="43.67949" lon="6.80062">
        <ele>667.2</ele>
        <time>2014-05-29T09:58:24.000Z</time>
      </trkpt>
      <trkpt lat="43.67948" lon="6.80067">
        <ele>668.6</ele>
        <time>2014-05-29T09:58:28.000Z</time>
      </trkpt>
      <trkpt lat="43.67948" lon="6.80069">
        <ele>668.7</ele>
        <time>2014-05-29T09:58:29.000Z</time>
      </trkpt>
      <trkpt lat="43.67947" lon="6.80074">
        <ele>669.8</ele>
        <time>2014-05-29T09:58:31.995Z</time>
      </trkpt>
      <trkpt lat="43.67947" lon="6.80076">
        <ele>670</ele>
        <time>2014-05-29T09:58:32.995Z</time>
      </trkpt>
      <trkpt lat="43.67946" lon="6.80081">
        <ele>670.6</ele>
        <time>2014-05-29T09:58:35.995Z</time>
      </trkpt>
      <trkpt lat="43.67946" lon="6.80083">
        <ele>670.8</ele>
        <time>2014-05-29T09:58:36.995Z</time>
      </trkpt>
      <trkpt lat="43.67946" lon="6.80088">
        <ele>672.2</ele>
        <time>2014-05-29T09:58:41.000Z</time>
      </trkpt>
      <trkpt lat="43.67947" lon="6.8009">
        <ele>672.8</ele>
        <time>2014-05-29T09:58:42.000Z</time>
      </trkpt>
      <trkpt lat="43.67949" lon="6.80096">
        <ele>672.9</ele>
        <time>2014-05-29T09:58:43.000Z</time>
      </trkpt>
      <trkpt lat="43.67949" lon="6.80102">
        <ele>677.3</ele>
        <time>2014-05-29T09:58:46.000Z</time>
      </trkpt>
      <trkpt lat="43.67949" lon="6.80103">
        <ele>677.3</ele>
        <time>2014-05-29T09:58:47.000Z</time>
      </trkpt>
      <trkpt lat="43.67951" lon="6.80108">
        <ele>675.7</ele>
        <time>2014-05-29T09:58:51.000Z</time>
      </trkpt>
      <trkpt lat="43.6795" lon="6.80109">
        <ele>674.4</ele>
        <time>2014-05-29T09:58:52.000Z</time>
      </trkpt>
      <trkpt lat="43.6795" lon="6.80115">
        <ele>675.9</ele>
        <time>2014-05-29T09:58:56.000Z</time>
      </trkpt>
      <trkpt lat="43.6795" lon="6.80117">
        <ele>677</ele>
        <time>2014-05-29T09:58:57.000Z</time>
      </trkpt>
      <trkpt lat="43.67951" lon="6.80122">
        <ele>679.6</ele>
        <time>2014-05-29T09:59:00.000Z</time>
      </trkpt>
      <trkpt lat="43.67951" lon="6.80123">
        <ele>680.1</ele>
        <time>2014-05-29T09:59:01.000Z</time>
      </trkpt>
      <trkpt lat="43.67952" lon="6.80128">
        <ele>681.4</ele>
        <time>2014-05-29T09:59:04.000Z</time>
      </trkpt>
      <trkpt lat="43.67952" lon="6.8013">
        <ele>681.3</ele>
        <time>2014-05-29T09:59:05.000Z</time>
      </trkpt>
      <trkpt lat="43.67952" lon="6.80134">
        <ele>681.6</ele>
        <time>2014-05-29T09:59:08.000Z</time>
      </trkpt>
      <trkpt lat="43.67952" lon="6.80136">
        <ele>682.6</ele>
        <time>2014-05-29T09:59:09.000Z</time>
      </trkpt>
      <trkpt lat="43.67952" lon="6.80142">
        <ele>683</ele>
        <time>2014-05-29T09:59:12.000Z</time>
      </trkpt>
      <trkpt lat="43.67953" lon="6.80143">
        <ele>682.3</ele>
        <time>2014-05-29T09:59:13.000Z</time>
      </trkpt>
      <trkpt lat="43.6795" lon="6.80147">
        <ele>681.6</ele>
        <time>2014-05-29T09:59:16.000Z</time>
      </trkpt>
      <trkpt lat="43.6795" lon="6.80149">
        <ele>681.3</ele>
        <time>2014-05-29T09:59:17.000Z</time>
      </trkpt>
      <trkpt lat="43.67948" lon="6.80154">
        <ele>681.1</ele>
        <time>2014-05-29T09:59:19.000Z</time>
      </trkpt>
      <trkpt lat="43.67947" lon="6.80156">
        <ele>681.1</ele>
        <time>2014-05-29T09:59:20.000Z</time>
      </trkpt>
      <trkpt lat="43.67947" lon="6.80161">
        <ele>681.1</ele>
        <time>2014-05-29T09:59:22.000Z</time>
      </trkpt>
      <trkpt lat="43.67946" lon="6.80163">
        <ele>681.1</ele>
        <time>2014-05-29T09:59:23.000Z</time>
      </trkpt>
      <trkpt lat="43.67945" lon="6.80166">
        <ele>679.9</ele>
        <time>2014-05-29T09:59:25.000Z</time>
      </trkpt>
      <trkpt lat="43.67944" lon="6.80168">
        <ele>680</ele>
        <time>2014-05-29T09:59:26.000Z</time>
      </trkpt>
      <trkpt lat="43.67944" lon="6.80173">
        <ele>679.9</ele>
        <time>2014-05-29T09:59:28.000Z</time>
      </trkpt>
      <trkpt lat="43.67945" lon="6.80175">
        <ele>680.3</ele>
        <time>2014-05-29T09:59:29.000Z</time>
      </trkpt>
      <trkpt lat="43.67945" lon="6.80181">
        <ele>681.4</ele>
        <time>2014-05-29T09:59:32.000Z</time>
      </trkpt>
      <trkpt lat="43.67944" lon="6.80183">
        <ele>681.2</ele>
        <time>2014-05-29T09:59:33.000Z</time>
      </trkpt>
      <trkpt lat="43.67945" lon="6.80187">
        <ele>681</ele>
        <time>2014-05-29T09:59:35.000Z</time>
      </trkpt>
      <trkpt lat="43.67946" lon="6.8019">
        <ele>680.9</ele>
        <time>2014-05-29T09:59:36.000Z</time>
      </trkpt>
      <trkpt lat="43.67945" lon="6.80195">
        <ele>682.1</ele>
        <time>2014-05-29T09:59:39.000Z</time>
      </trkpt>
      <trkpt lat="43.67946" lon="6.80197">
        <ele>682.8</ele>
        <time>2014-05-29T09:59:40.000Z</time>
      </trkpt>
      <trkpt lat="43.67947" lon="6.80202">
        <ele>683.1</ele>
        <time>2014-05-29T09:59:43.000Z</time>
      </trkpt>
      <trkpt lat="43.67947" lon="6.80204">
        <ele>683.4</ele>
        <time>2014-05-29T09:59:44.000Z</time>
      </trkpt>
      <trkpt lat="43.67946" lon="6.8021">
        <ele>683.7</ele>
        <time>2014-05-29T09:59:47.000Z</time>
      </trkpt>
      <trkpt lat="43.67946" lon="6.80212">
        <ele>684</ele>
        <time>2014-05-29T09:59:48.000Z</time>
      </trkpt>
      <trkpt lat="43.67945" lon="6.80217">
        <ele>682.5</ele>
        <time>2014-05-29T09:59:50.000Z</time>
      </trkpt>
      <trkpt lat="43.67945" lon="6.80218">
        <ele>683.2</ele>
        <time>2014-05-29T09:59:51.000Z</time>
      </trkpt>
      <trkpt lat="43.67945" lon="6.80224">
        <ele>684.8</ele>
        <time>2014-05-29T09:59:54.000Z</time>
      </trkpt>
      <trkpt lat="43.67943" lon="6.80228">
        <ele>684.3</ele>
        <time>2014-05-29T09:59:55.000Z</time>
      </trkpt>
      <trkpt lat="43.67942" lon="6.80233">
        <ele>684.1</ele>
        <time>2014-05-29T09:59:58.000Z</time>
      </trkpt>
      <trkpt lat="43.67941" lon="6.80235">
        <ele>684.9</ele>
        <time>2014-05-29T09:59:59.000Z</time>
      </trkpt>
      <trkpt lat="43.67943" lon="6.80241">
        <ele>686.9</ele>
        <time>2014-05-29T10:00:02.000Z</time>
      </trkpt>
      <trkpt lat="43.67942" lon="6.80242">
        <ele>686.8</ele>
        <time>2014-05-29T10:00:03.000Z</time>
      </trkpt>
      <trkpt lat="43.67942" lon="6.80247">
        <ele>689</ele>
        <time>2014-05-29T10:00:06.000Z</time>
      </trkpt>
      <trkpt lat="43.67942" lon="6.80249">
        <ele>688.5</ele>
        <time>2014-05-29T10:00:07.000Z</time>
      </trkpt>
      <trkpt lat="43.6794" lon="6.80253">
        <ele>687.9</ele>
        <time>2014-05-29T10:00:09.000Z</time>
      </trkpt>
      <trkpt lat="43.6794" lon="6.80256">
        <ele>687.8</ele>
        <time>2014-05-29T10:00:10.000Z</time>
      </trkpt>
      <trkpt lat="43.6794" lon="6.80261">
        <ele>690.2</ele>
        <time>2014-05-29T10:00:12.000Z</time>
      </trkpt>
      <trkpt lat="43.6794" lon="6.80263">
        <ele>690.7</ele>
        <time>2014-05-29T10:00:13.000Z</time>
      </trkpt>
      <trkpt lat="43.67939" lon="6.80268">
        <ele>690.5</ele>
        <time>2014-05-29T10:00:15.000Z</time>
      </trkpt>
      <trkpt lat="43.67938" lon="6.8027">
        <ele>690.2</ele>
        <time>2014-05-29T10:00:16.000Z</time>
      </trkpt>
      <trkpt lat="43.67938" lon="6.80276">
        <ele>690.9</ele>
        <time>2014-05-29T10:00:19.000Z</time>
      </trkpt>
      <trkpt lat="43.67938" lon="6.80278">
        <ele>691.1</ele>
        <time>2014-05-29T10:00:20.000Z</time>
      </trkpt>
      <trkpt lat="43.67938" lon="6.80282">
        <ele>692.1</ele>
        <time>2014-05-29T10:00:22.000Z</time>
      </trkpt>
      <trkpt lat="43.67938" lon="6.80284">
        <ele>691.5</ele>
        <time>2014-05-29T10:00:23.000Z</time>
      </trkpt>
      <trkpt lat="43.67939" lon="6.80289">
        <ele>691.4</ele>
        <time>2014-05-29T10:00:25.000Z</time>
      </trkpt>
      <trkpt lat="43.67939" lon="6.80291">
        <ele>692</ele>
        <time>2014-05-29T10:00:26.000Z</time>
      </trkpt>
      <trkpt lat="43.67939" lon="6.80296">
        <ele>692.8</ele>
        <time>2014-05-29T10:00:28.000Z</time>
      </trkpt>
      <trkpt lat="43.67939" lon="6.80297">
        <ele>692.9</ele>
        <time>2014-05-29T10:00:29.000Z</time>
      </trkpt>
      <trkpt lat="43.6794" lon="6.80299">
        <ele>693.9</ele>
        <time>2014-05-29T10:00:30.000Z</time>
      </trkpt>
      <trkpt lat="43.67942" lon="6.80302">
        <ele>694.5</ele>
        <time>2014-05-29T10:00:31.493Z</time>
      </trkpt>
      <trkpt lat="43.67943" lon="6.80307">
        <ele>695.3</ele>
        <time>2014-05-29T10:00:34.000Z</time>
      </trkpt>
      <trkpt lat="43.67944" lon="6.8031">
        <ele>696</ele>
        <time>2014-05-29T10:00:35.000Z</time>
      </trkpt>
      <trkpt lat="43.67944" lon="6.80315">
        <ele>695.9</ele>
        <time>2014-05-29T10:00:37.000Z</time>
      </trkpt>
      <trkpt lat="43.67945" lon="6.80316">
        <ele>697</ele>
        <time>2014-05-29T10:00:38.000Z</time>
      </trkpt>
      <trkpt lat="43.67947" lon="6.80321">
        <ele>697.7</ele>
        <time>2014-05-29T10:00:41.000Z</time>
      </trkpt>
      <trkpt lat="43.67949" lon="6.80322">
        <ele>698.3</ele>
        <time>2014-05-29T10:00:42.000Z</time>
      </trkpt>
      <trkpt lat="43.67949" lon="6.80326">
        <ele>697.5</ele>
        <time>2014-05-29T10:00:44.000Z</time>
      </trkpt>
      <trkpt lat="43.6795" lon="6.80329">
        <ele>697.1</ele>
        <time>2014-05-29T10:00:45.000Z</time>
      </trkpt>
      <trkpt lat="43.6795" lon="6.80333">
        <ele>697.3</ele>
        <time>2014-05-29T10:00:47.000Z</time>
      </trkpt>
      <trkpt lat="43.6795" lon="6.80335">
        <ele>697.2</ele>
        <time>2014-05-29T10:00:48.000Z</time>
      </trkpt>
      <trkpt lat="43.67951" lon="6.8034">
        <ele>698</ele>
        <time>2014-05-29T10:00:51.000Z</time>
      </trkpt>
      <trkpt lat="43.67951" lon="6.80342">
        <ele>699</ele>
        <time>2014-05-29T10:00:52.000Z</time>
      </trkpt>
      <trkpt lat="43.6795" lon="6.80347">
        <ele>700.1</ele>
        <time>2014-05-29T10:00:55.000Z</time>
      </trkpt>
      <trkpt lat="43.6795" lon="6.80349">
        <ele>700.4</ele>
        <time>2014-05-29T10:00:56.000Z</time>
      </trkpt>
      <trkpt lat="43.67949" lon="6.80354">
        <ele>700.1</ele>
        <time>2014-05-29T10:00:58.000Z</time>
      </trkpt>
      <trkpt lat="43.67949" lon="6.80356">
        <ele>700.3</ele>
        <time>2014-05-29T10:00:59.000Z</time>
      </trkpt>
      <trkpt lat="43.67949" lon="6.80361">
        <ele>699.4</ele>
        <time>2014-05-29T10:01:01.000Z</time>
      </trkpt>
      <trkpt lat="43.67948" lon="6.80362">
        <ele>698.6</ele>
        <time>2014-05-29T10:01:02.000Z</time>
      </trkpt>
      <trkpt lat="43.67948" lon="6.80366">
        <ele>699.2</ele>
        <time>2014-05-29T10:01:04.000Z</time>
      </trkpt>
      <trkpt lat="43.67949" lon="6.80369">
        <ele>699.3</ele>
        <time>2014-05-29T10:01:05.000Z</time>
      </trkpt>
      <trkpt lat="43.67949" lon="6.80374">
        <ele>699.2</ele>
        <time>2014-05-29T10:01:07.000Z</time>
      </trkpt>
      <trkpt lat="43.67949" lon="6.80376">
        <ele>699.7</ele>
        <time>2014-05-29T10:01:08.000Z</time>
      </trkpt>
      <trkpt lat="43.67948" lon="6.80382">
        <ele>700</ele>
        <time>2014-05-29T10:01:11.000Z</time>
      </trkpt>
      <trkpt lat="43.67949" lon="6.80383">
        <ele>699.3</ele>
        <time>2014-05-29T10:01:12.000Z</time>
      </trkpt>
      <trkpt lat="43.67951" lon="6.80388">
        <ele>699.2</ele>
        <time>2014-05-29T10:01:15.000Z</time>
      </trkpt>
      <trkpt lat="43.67951" lon="6.8039">
        <ele>699.5</ele>
        <time>2014-05-29T10:01:16.000Z</time>
      </trkpt>
      <trkpt lat="43.67952" lon="6.80395">
        <ele>700.9</ele>
        <time>2014-05-29T10:01:19.000Z</time>
      </trkpt>
      <trkpt lat="43.67951" lon="6.80397">
        <ele>700.9</ele>
        <time>2014-05-29T10:01:20.000Z</time>
      </trkpt>
      <trkpt lat="43.67952" lon="6.80401">
        <ele>701.1</ele>
        <time>2014-05-29T10:01:22.000Z</time>
      </trkpt>
      <trkpt lat="43.67954" lon="6.80403">
        <ele>701.6</ele>
        <time>2014-05-29T10:01:23.000Z</time>
      </trkpt>
      <trkpt lat="43.67955" lon="6.80408">
        <ele>702.7</ele>
        <time>2014-05-29T10:01:26.000Z</time>
      </trkpt>
      <trkpt lat="43.67956" lon="6.8041">
        <ele>703.1</ele>
        <time>2014-05-29T10:01:27.000Z</time>
      </trkpt>
      <trkpt lat="43.67958" lon="6.80415">
        <ele>704</ele>
        <time>2014-05-29T10:01:30.000Z</time>
      </trkpt>
      <trkpt lat="43.67958" lon="6.80417">
        <ele>704.5</ele>
        <time>2014-05-29T10:01:31.000Z</time>
      </trkpt>
      <trkpt lat="43.67959" lon="6.80423">
        <ele>705.8</ele>
        <time>2014-05-29T10:01:34.000Z</time>
      </trkpt>
      <trkpt lat="43.67959" lon="6.80425">
        <ele>705.8</ele>
        <time>2014-05-29T10:01:35.000Z</time>
      </trkpt>
      <trkpt lat="43.67957" lon="6.80428">
        <ele>706.3</ele>
        <time>2014-05-29T10:01:37.000Z</time>
      </trkpt>
      <trkpt lat="43.67956" lon="6.80429">
        <ele>706</ele>
        <time>2014-05-29T10:01:38.000Z</time>
      </trkpt>
      <trkpt lat="43.67953" lon="6.80431">
        <ele>706.3</ele>
        <time>2014-05-29T10:01:40.000Z</time>
      </trkpt>
      <trkpt lat="43.67951" lon="6.80432">
        <ele>705.7</ele>
        <time>2014-05-29T10:01:41.000Z</time>
      </trkpt>
      <trkpt lat="43.67947" lon="6.80432">
        <ele>706.1</ele>
        <time>2014-05-29T10:01:43.000Z</time>
      </trkpt>
      <trkpt lat="43.67946" lon="6.80432">
        <ele>706.5</ele>
        <time>2014-05-29T10:01:44.000Z</time>
      </trkpt>
      <trkpt lat="43.67943" lon="6.80432">
        <ele>707.2</ele>
        <time>2014-05-29T10:01:46.000Z</time>
      </trkpt>
      <trkpt lat="43.67941" lon="6.80432">
        <ele>707.1</ele>
        <time>2014-05-29T10:01:47.000Z</time>
      </trkpt>
      <trkpt lat="43.67937" lon="6.8043">
        <ele>707.8</ele>
        <time>2014-05-29T10:01:49.000Z</time>
      </trkpt>
      <trkpt lat="43.67935" lon="6.8043">
        <ele>708</ele>
        <time>2014-05-29T10:01:50.000Z</time>
      </trkpt>
      <trkpt lat="43.67931" lon="6.80431">
        <ele>708.2</ele>
        <time>2014-05-29T10:01:52.000Z</time>
      </trkpt>
      <trkpt lat="43.6793" lon="6.8043">
        <ele>707.8</ele>
        <time>2014-05-29T10:01:53.000Z</time>
      </trkpt>
      <trkpt lat="43.67927" lon="6.80428">
        <ele>707.8</ele>
        <time>2014-05-29T10:01:56.000Z</time>
      </trkpt>
      <trkpt lat="43.67926" lon="6.80427">
        <ele>708.7</ele>
        <time>2014-05-29T10:01:57.000Z</time>
      </trkpt>
      <trkpt lat="43.67922" lon="6.80424">
        <ele>709.3</ele>
        <time>2014-05-29T10:02:01.000Z</time>
      </trkpt>
      <trkpt lat="43.6792" lon="6.80423">
        <ele>709.3</ele>
        <time>2014-05-29T10:02:02.000Z</time>
      </trkpt>
      <trkpt lat="43.67916" lon="6.80422">
        <ele>710.4</ele>
        <time>2014-05-29T10:02:05.000Z</time>
      </trkpt>
      <trkpt lat="43.67913" lon="6.80421">
        <ele>710</ele>
        <time>2014-05-29T10:02:06.000Z</time>
      </trkpt>
      <trkpt lat="43.6791" lon="6.80419">
        <ele>711</ele>
        <time>2014-05-29T10:02:09.000Z</time>
      </trkpt>
      <trkpt lat="43.67908" lon="6.80418">
        <ele>711.7</ele>
        <time>2014-05-29T10:02:10.000Z</time>
      </trkpt>
      <trkpt lat="43.67905" lon="6.80418">
        <ele>712.2</ele>
        <time>2014-05-29T10:02:12.000Z</time>
      </trkpt>
      <trkpt lat="43.67904" lon="6.80418">
        <ele>712.5</ele>
        <time>2014-05-29T10:02:13.000Z</time>
      </trkpt>
      <trkpt lat="43.679" lon="6.8042">
        <ele>712.4</ele>
        <time>2014-05-29T10:02:15.000Z</time>
      </trkpt>
      <trkpt lat="43.67899" lon="6.80422">
        <ele>712.5</ele>
        <time>2014-05-29T10:02:16.000Z</time>
      </trkpt>
      <trkpt lat="43.67898" lon="6.80428">
        <ele>713.1</ele>
        <time>2014-05-29T10:02:20.000Z</time>
      </trkpt>
      <trkpt lat="43.67899" lon="6.80429">
        <ele>712.8</ele>
        <time>2014-05-29T10:02:21.000Z</time>
      </trkpt>
      <trkpt lat="43.67901" lon="6.80434">
        <ele>712.7</ele>
        <time>2014-05-29T10:02:24.000Z</time>
      </trkpt>
      <trkpt lat="43.67901" lon="6.80434">
        <ele>712.5</ele>
        <time>2014-05-29T10:02:25.000Z</time>
      </trkpt>
      <trkpt lat="43.67903" lon="6.80439">
        <ele>713.8</ele>
        <time>2014-05-29T10:02:27.000Z</time>
      </trkpt>
      <trkpt lat="43.67905" lon="6.8044">
        <ele>713.5</ele>
        <time>2014-05-29T10:02:28.000Z</time>
      </trkpt>
      <trkpt lat="43.67907" lon="6.80441">
        <ele>713.8</ele>
        <time>2014-05-29T10:02:29.797Z</time>
      </trkpt>
      <trkpt lat="43.6791" lon="6.80447">
        <ele>714.1</ele>
        <time>2014-05-29T10:02:32.999Z</time>
      </trkpt>
      <trkpt lat="43.67912" lon="6.80451">
        <ele>714.3</ele>
        <time>2014-05-29T10:02:34.999Z</time>
      </trkpt>
      <trkpt lat="43.67913" lon="6.80452">
        <ele>714.4</ele>
        <time>2014-05-29T10:02:35.999Z</time>
      </trkpt>
      <trkpt lat="43.67915" lon="6.80456">
        <ele>714.6</ele>
        <time>2014-05-29T10:02:37.999Z</time>
      </trkpt>
      <trkpt lat="43.67916" lon="6.80458">
        <ele>714.7</ele>
        <time>2014-05-29T10:02:38.999Z</time>
      </trkpt>
      <trkpt lat="43.67917" lon="6.8046">
        <ele>714.8</ele>
        <time>2014-05-29T10:02:39.999Z</time>
      </trkpt>
      <trkpt lat="43.67921" lon="6.80462">
        <ele>718.1</ele>
        <time>2014-05-29T10:02:41.000Z</time>
      </trkpt>
      <trkpt lat="43.67924" lon="6.80463">
        <ele>716.5</ele>
        <time>2014-05-29T10:02:46.000Z</time>
      </trkpt>
      <trkpt lat="43.67926" lon="6.80467">
        <ele>715</ele>
        <time>2014-05-29T10:02:47.000Z</time>
      </trkpt>
      <trkpt lat="43.67928" lon="6.8047">
        <ele>715.5</ele>
        <time>2014-05-29T10:02:49.000Z</time>
      </trkpt>
      <trkpt lat="43.67929" lon="6.80473">
        <ele>715.3</ele>
        <time>2014-05-29T10:02:50.000Z</time>
      </trkpt>
      <trkpt lat="43.67931" lon="6.80476">
        <ele>716.8</ele>
        <time>2014-05-29T10:02:53.000Z</time>
      </trkpt>
      <trkpt lat="43.67932" lon="6.80478">
        <ele>716.4</ele>
        <time>2014-05-29T10:02:54.000Z</time>
      </trkpt>
      <trkpt lat="43.67934" lon="6.80482">
        <ele>714.6</ele>
        <time>2014-05-29T10:02:56.000Z</time>
      </trkpt>
      <trkpt lat="43.67935" lon="6.80485">
        <ele>714.9</ele>
        <time>2014-05-29T10:02:57.000Z</time>
      </trkpt>
      <trkpt lat="43.67937" lon="6.8049">
        <ele>713.5</ele>
        <time>2014-05-29T10:02:59.000Z</time>
      </trkpt>
      <trkpt lat="43.67938" lon="6.80492">
        <ele>713.9</ele>
        <time>2014-05-29T10:03:00.000Z</time>
      </trkpt>
      <trkpt lat="43.6794" lon="6.80497">
        <ele>713.8</ele>
        <time>2014-05-29T10:03:03.000Z</time>
      </trkpt>
      <trkpt lat="43.6794" lon="6.80499">
        <ele>714.2</ele>
        <time>2014-05-29T10:03:04.000Z</time>
      </trkpt>
      <trkpt lat="43.67943" lon="6.80503">
        <ele>714.9</ele>
        <time>2014-05-29T10:03:07.000Z</time>
      </trkpt>
      <trkpt lat="43.67943" lon="6.80505">
        <ele>715.1</ele>
        <time>2014-05-29T10:03:08.000Z</time>
      </trkpt>
      <trkpt lat="43.67945" lon="6.80509">
        <ele>714.2</ele>
        <time>2014-05-29T10:03:11.000Z</time>
      </trkpt>
      <trkpt lat="43.67946" lon="6.80511">
        <ele>715.4</ele>
        <time>2014-05-29T10:03:12.000Z</time>
      </trkpt>
      <trkpt lat="43.67948" lon="6.80514">
        <ele>716</ele>
        <time>2014-05-29T10:03:14.000Z</time>
      </trkpt>
      <trkpt lat="43.67948" lon="6.80516">
        <ele>716.5</ele>
        <time>2014-05-29T10:03:15.000Z</time>
      </trkpt>
      <trkpt lat="43.6795" lon="6.80521">
        <ele>717.6</ele>
        <time>2014-05-29T10:03:18.000Z</time>
      </trkpt>
      <trkpt lat="43.6795" lon="6.80523">
        <ele>717.6</ele>
        <time>2014-05-29T10:03:19.000Z</time>
      </trkpt>
      <trkpt lat="43.67952" lon="6.80527">
        <ele>718.5</ele>
        <time>2014-05-29T10:03:22.000Z</time>
      </trkpt>
      <trkpt lat="43.67952" lon="6.8053">
        <ele>718.5</ele>
        <time>2014-05-29T10:03:23.000Z</time>
      </trkpt>
      <trkpt lat="43.67953" lon="6.80534">
        <ele>718.9</ele>
        <time>2014-05-29T10:03:25.000Z</time>
      </trkpt>
      <trkpt lat="43.67954" lon="6.80537">
        <ele>719.9</ele>
        <time>2014-05-29T10:03:26.000Z</time>
      </trkpt>
      <trkpt lat="43.67956" lon="6.80539">
        <ele>720.6</ele>
        <time>2014-05-29T10:03:29.000Z</time>
      </trkpt>
      <trkpt lat="43.67958" lon="6.80541">
        <ele>721.2</ele>
        <time>2014-05-29T10:03:30.000Z</time>
      </trkpt>
      <trkpt lat="43.67958" lon="6.80541">
        <ele>721.2</ele>
        <time>2014-05-29T10:03:29.792Z</time>
      </trkpt>
      <trkpt lat="43.67962" lon="6.80546">
        <ele>722.1</ele>
        <time>2014-05-29T10:03:32.999Z</time>
      </trkpt>
      <trkpt lat="43.67965" lon="6.8055">
        <ele>722.6</ele>
        <time>2014-05-29T10:03:34.999Z</time>
      </trkpt>
      <trkpt lat="43.67966" lon="6.80551">
        <ele>722.9</ele>
        <time>2014-05-29T10:03:35.999Z</time>
      </trkpt>
      <trkpt lat="43.67969" lon="6.80555">
        <ele>723.5</ele>
        <time>2014-05-29T10:03:37.999Z</time>
      </trkpt>
      <trkpt lat="43.6797" lon="6.80556">
        <ele>723.8</ele>
        <time>2014-05-29T10:03:38.999Z</time>
      </trkpt>
      <trkpt lat="43.67967" lon="6.80559">
        <ele>725.3</ele>
        <time>2014-05-29T10:03:41.000Z</time>
      </trkpt>
      <trkpt lat="43.67967" lon="6.80562">
        <ele>725.3</ele>
        <time>2014-05-29T10:03:42.000Z</time>
      </trkpt>
      <trkpt lat="43.67966" lon="6.80568">
        <ele>725.4</ele>
        <time>2014-05-29T10:03:44.000Z</time>
      </trkpt>
      <trkpt lat="43.67966" lon="6.8057">
        <ele>725.1</ele>
        <time>2014-05-29T10:03:45.000Z</time>
      </trkpt>
      <trkpt lat="43.67968" lon="6.80574">
        <ele>724</ele>
        <time>2014-05-29T10:03:47.000Z</time>
      </trkpt>
      <trkpt lat="43.67969" lon="6.80577">
        <ele>723.2</ele>
        <time>2014-05-29T10:03:48.000Z</time>
      </trkpt>
      <trkpt lat="43.6797" lon="6.80581">
        <ele>723.1</ele>
        <time>2014-05-29T10:03:50.000Z</time>
      </trkpt>
      <trkpt lat="43.67971" lon="6.80582">
        <ele>723.3</ele>
        <time>2014-05-29T10:03:51.000Z</time>
      </trkpt>
      <trkpt lat="43.67975" lon="6.80584">
        <ele>723.5</ele>
        <time>2014-05-29T10:03:53.000Z</time>
      </trkpt>
      <trkpt lat="43.67976" lon="6.80586">
        <ele>724.6</ele>
        <time>2014-05-29T10:03:54.000Z</time>
      </trkpt>
      <trkpt lat="43.67979" lon="6.8059">
        <ele>724.5</ele>
        <time>2014-05-29T10:03:57.000Z</time>
      </trkpt>
      <trkpt lat="43.6798" lon="6.80592">
        <ele>725.1</ele>
        <time>2014-05-29T10:03:58.000Z</time>
      </trkpt>
      <trkpt lat="43.67984" lon="6.80594">
        <ele>726.3</ele>
        <time>2014-05-29T10:04:20.000Z</time>
      </trkpt>
      <trkpt lat="43.67984" lon="6.80595">
        <ele>726.6</ele>
        <time>2014-05-29T10:04:21.000Z</time>
      </trkpt>
      <trkpt lat="43.67981" lon="6.80595">
        <ele>712.8</ele>
        <time>2014-05-29T10:04:37.984Z</time>
      </trkpt>
      <trkpt lat="43.67985" lon="6.80602">
        <ele>720.7</ele>
        <time>2014-05-29T10:04:39.004Z</time>
      </trkpt>
      <trkpt lat="43.67986" lon="6.80597">
        <ele>727.1</ele>
        <time>2014-05-29T10:05:29.000Z</time>
      </trkpt>
      <trkpt lat="43.67984" lon="6.80596">
        <ele>726.9</ele>
        <time>2014-05-29T10:05:30.000Z</time>
      </trkpt>
      <trkpt lat="43.67987" lon="6.80597">
        <ele>727.7</ele>
        <time>2014-05-29T10:06:23.000Z</time>
      </trkpt>
      <trkpt lat="43.67989" lon="6.80597">
        <ele>727.6</ele>
        <time>2014-05-29T10:06:24.000Z</time>
      </trkpt>
      <trkpt lat="43.67992" lon="6.80598">
        <ele>727.1</ele>
        <time>2014-05-29T10:06:26.000Z</time>
      </trkpt>
      <trkpt lat="43.67994" lon="6.80599">
        <ele>727</ele>
        <time>2014-05-29T10:06:27.000Z</time>
      </trkpt>
      <trkpt lat="43.67998" lon="6.80599">
        <ele>727.2</ele>
        <time>2014-05-29T10:06:29.000Z</time>
      </trkpt>
      <trkpt lat="43.68" lon="6.80598">
        <ele>727.2</ele>
        <time>2014-05-29T10:06:30.000Z</time>
      </trkpt>
      <trkpt lat="43.68003" lon="6.80597">
        <ele>727.8</ele>
        <time>2014-05-29T10:06:32.000Z</time>
      </trkpt>
      <trkpt lat="43.68006" lon="6.80596">
        <ele>728</ele>
        <time>2014-05-29T10:06:34.000Z</time>
      </trkpt>
      <trkpt lat="43.68008" lon="6.80595">
        <ele>727.9</ele>
        <time>2014-05-29T10:06:34.999Z</time>
      </trkpt>
      <trkpt lat="43.6801" lon="6.80593">
        <ele>727.5</ele>
        <time>2014-05-29T10:06:36.000Z</time>
      </trkpt>
      <trkpt lat="43.68014" lon="6.80592">
        <ele>727.1</ele>
        <time>2014-05-29T10:06:38.000Z</time>
      </trkpt>
      <trkpt lat="43.68016" lon="6.80591">
        <ele>727.9</ele>
        <time>2014-05-29T10:06:39.000Z</time>
      </trkpt>
      <trkpt lat="43.68019" lon="6.80589">
        <ele>727.8</ele>
        <time>2014-05-29T10:06:40.998Z</time>
      </trkpt>
      <trkpt lat="43.68021" lon="6.80588">
        <ele>727.8</ele>
        <time>2014-05-29T10:06:42.000Z</time>
      </trkpt>
      <trkpt lat="43.68022" lon="6.80582">
        <ele>727.9</ele>
        <time>2014-05-29T10:06:44.000Z</time>
      </trkpt>
      <trkpt lat="43.68023" lon="6.8058">
        <ele>727.9</ele>
        <time>2014-05-29T10:06:45.000Z</time>
      </trkpt>
      <trkpt lat="43.68027" lon="6.80578">
        <ele>726.3</ele>
        <time>2014-05-29T10:06:46.998Z</time>
      </trkpt>
      <trkpt lat="43.68028" lon="6.80576">
        <ele>726.6</ele>
        <time>2014-05-29T10:06:48.000Z</time>
      </trkpt>
      <trkpt lat="43.6803" lon="6.80573">
        <ele>726.6</ele>
        <time>2014-05-29T10:06:49.998Z</time>
      </trkpt>
      <trkpt lat="43.68031" lon="6.80571">
        <ele>727</ele>
        <time>2014-05-29T10:06:51.000Z</time>
      </trkpt>
      <trkpt lat="43.68034" lon="6.80568">
        <ele>728</ele>
        <time>2014-05-29T10:06:54.000Z</time>
      </trkpt>
      <trkpt lat="43.68035" lon="6.80566">
        <ele>727.7</ele>
        <time>2014-05-29T10:06:55.000Z</time>
      </trkpt>
      <trkpt lat="43.68037" lon="6.80562">
        <ele>728</ele>
        <time>2014-05-29T10:06:57.000Z</time>
      </trkpt>
      <trkpt lat="43.68038" lon="6.80561">
        <ele>728.4</ele>
        <time>2014-05-29T10:06:57.997Z</time>
      </trkpt>
      <trkpt lat="43.6804" lon="6.80557">
        <ele>728.4</ele>
        <time>2014-05-29T10:07:00.000Z</time>
      </trkpt>
      <trkpt lat="43.68041" lon="6.80555">
        <ele>728.2</ele>
        <time>2014-05-29T10:07:01.000Z</time>
      </trkpt>
      <trkpt lat="43.68044" lon="6.80552">
        <ele>729.1</ele>
        <time>2014-05-29T10:07:03.000Z</time>
      </trkpt>
      <trkpt lat="43.68045" lon="6.8055">
        <ele>729.2</ele>
        <time>2014-05-29T10:07:04.000Z</time>
      </trkpt>
      <trkpt lat="43.68047" lon="6.80547">
        <ele>730.2</ele>
        <time>2014-05-29T10:07:06.000Z</time>
      </trkpt>
      <trkpt lat="43.68048" lon="6.80545">
        <ele>730.1</ele>
        <time>2014-05-29T10:07:07.000Z</time>
      </trkpt>
      <trkpt lat="43.6805" lon="6.80542">
        <ele>730</ele>
        <time>2014-05-29T10:07:08.999Z</time>
      </trkpt>
      <trkpt lat="43.68051" lon="6.80541">
        <ele>730.3</ele>
        <time>2014-05-29T10:07:10.000Z</time>
      </trkpt>
      <trkpt lat="43.68056" lon="6.80539">
        <ele>730.3</ele>
        <time>2014-05-29T10:07:13.000Z</time>
      </trkpt>
      <trkpt lat="43.68057" lon="6.8054">
        <ele>730.3</ele>
        <time>2014-05-29T10:07:14.000Z</time>
      </trkpt>
      <trkpt lat="43.68061" lon="6.80543">
        <ele>730.2</ele>
        <time>2014-05-29T10:07:17.000Z</time>
      </trkpt>
      <trkpt lat="43.68063" lon="6.80544">
        <ele>730.3</ele>
        <time>2014-05-29T10:07:18.000Z</time>
      </trkpt>
      <trkpt lat="43.68063" lon="6.80549">
        <ele>730.3</ele>
        <time>2014-05-29T10:07:20.000Z</time>
      </trkpt>
      <trkpt lat="43.68063" lon="6.80552">
        <ele>730.6</ele>
        <time>2014-05-29T10:07:21.000Z</time>
      </trkpt>
      <trkpt lat="43.68062" lon="6.80556">
        <ele>730.8</ele>
        <time>2014-05-29T10:07:23.000Z</time>
      </trkpt>
      <trkpt lat="43.68061" lon="6.80559">
        <ele>730.8</ele>
        <time>2014-05-29T10:07:24.000Z</time>
      </trkpt>
      <trkpt lat="43.6806" lon="6.80564">
        <ele>731.1</ele>
        <time>2014-05-29T10:07:26.000Z</time>
      </trkpt>
      <trkpt lat="43.68059" lon="6.80565">
        <ele>731.1</ele>
        <time>2014-05-29T10:07:27.000Z</time>
      </trkpt>
      <trkpt lat="43.68057" lon="6.8057">
        <ele>731.3</ele>
        <time>2014-05-29T10:07:29.000Z</time>
      </trkpt>
      <trkpt lat="43.68056" lon="6.80573">
        <ele>731.6</ele>
        <time>2014-05-29T10:07:30.000Z</time>
      </trkpt>
      <trkpt lat="43.68054" lon="6.80577">
        <ele>731.9</ele>
        <time>2014-05-29T10:07:32.000Z</time>
      </trkpt>
      <trkpt lat="43.68053" lon="6.8058">
        <ele>732</ele>
        <time>2014-05-29T10:07:33.000Z</time>
      </trkpt>
      <trkpt lat="43.68051" lon="6.80584">
        <ele>732.1</ele>
        <time>2014-05-29T10:07:35.000Z</time>
      </trkpt>
      <trkpt lat="43.6805" lon="6.80586">
        <ele>732.1</ele>
        <time>2014-05-29T10:07:36.000Z</time>
      </trkpt>
      <trkpt lat="43.68049" lon="6.80591">
        <ele>732.3</ele>
        <time>2014-05-29T10:07:38.000Z</time>
      </trkpt>
      <trkpt lat="43.68048" lon="6.80593">
        <ele>732.5</ele>
        <time>2014-05-29T10:07:39.000Z</time>
      </trkpt>
      <trkpt lat="43.68047" lon="6.80598">
        <ele>732.6</ele>
        <time>2014-05-29T10:07:41.000Z</time>
      </trkpt>
      <trkpt lat="43.68047" lon="6.806">
        <ele>733</ele>
        <time>2014-05-29T10:07:42.000Z</time>
      </trkpt>
      <trkpt lat="43.68047" lon="6.80605">
        <ele>733.3</ele>
        <time>2014-05-29T10:07:44.000Z</time>
      </trkpt>
      <trkpt lat="43.68046" lon="6.80607">
        <ele>733.4</ele>
        <time>2014-05-29T10:07:45.000Z</time>
      </trkpt>
      <trkpt lat="43.68046" lon="6.80612">
        <ele>733.5</ele>
        <time>2014-05-29T10:07:47.000Z</time>
      </trkpt>
      <trkpt lat="43.68045" lon="6.80614">
        <ele>733.6</ele>
        <time>2014-05-29T10:07:48.000Z</time>
      </trkpt>
      <trkpt lat="43.68044" lon="6.80619">
        <ele>734.1</ele>
        <time>2014-05-29T10:07:50.000Z</time>
      </trkpt>
      <trkpt lat="43.68044" lon="6.80621">
        <ele>734.3</ele>
        <time>2014-05-29T10:07:51.000Z</time>
      </trkpt>
      <trkpt lat="43.68044" lon="6.80626">
        <ele>734.7</ele>
        <time>2014-05-29T10:07:53.000Z</time>
      </trkpt>
      <trkpt lat="43.68043" lon="6.80628">
        <ele>734.7</ele>
        <time>2014-05-29T10:07:54.000Z</time>
      </trkpt>
      <trkpt lat="43.68042" lon="6.80633">
        <ele>734.7</ele>
        <time>2014-05-29T10:07:56.000Z</time>
      </trkpt>
      <trkpt lat="43.68041" lon="6.80635">
        <ele>734.9</ele>
        <time>2014-05-29T10:07:57.000Z</time>
      </trkpt>
      <trkpt lat="43.68041" lon="6.8064">
        <ele>735.1</ele>
        <time>2014-05-29T10:07:59.000Z</time>
      </trkpt>
      <trkpt lat="43.6804" lon="6.80642">
        <ele>735.1</ele>
        <time>2014-05-29T10:08:00.000Z</time>
      </trkpt>
      <trkpt lat="43.6804" lon="6.80647">
        <ele>735.2</ele>
        <time>2014-05-29T10:08:02.000Z</time>
      </trkpt>
      <trkpt lat="43.68039" lon="6.80649">
        <ele>735.3</ele>
        <time>2014-05-29T10:08:03.000Z</time>
      </trkpt>
      <trkpt lat="43.68038" lon="6.80653">
        <ele>735.2</ele>
        <time>2014-05-29T10:08:05.000Z</time>
      </trkpt>
      <trkpt lat="43.68038" lon="6.80656">
        <ele>735.4</ele>
        <time>2014-05-29T10:08:06.000Z</time>
      </trkpt>
      <trkpt lat="43.68037" lon="6.8066">
        <ele>735.6</ele>
        <time>2014-05-29T10:08:08.000Z</time>
      </trkpt>
      <trkpt lat="43.68036" lon="6.80662">
        <ele>735.8</ele>
        <time>2014-05-29T10:08:09.000Z</time>
      </trkpt>
      <trkpt lat="43.68036" lon="6.80666">
        <ele>736</ele>
        <time>2014-05-29T10:08:11.000Z</time>
      </trkpt>
      <trkpt lat="43.68035" lon="6.80668">
        <ele>735.8</ele>
        <time>2014-05-29T10:08:12.000Z</time>
      </trkpt>
      <trkpt lat="43.68034" lon="6.80673">
        <ele>736</ele>
        <time>2014-05-29T10:08:14.000Z</time>
      </trkpt>
      <trkpt lat="43.68034" lon="6.80676">
        <ele>735.7</ele>
        <time>2014-05-29T10:08:15.000Z</time>
      </trkpt>
      <trkpt lat="43.68034" lon="6.80681">
        <ele>735.7</ele>
        <time>2014-05-29T10:08:17.000Z</time>
      </trkpt>
      <trkpt lat="43.68033" lon="6.80683">
        <ele>735.6</ele>
        <time>2014-05-29T10:08:18.000Z</time>
      </trkpt>
      <trkpt lat="43.68033" lon="6.80687">
        <ele>735.7</ele>
        <time>2014-05-29T10:08:20.000Z</time>
      </trkpt>
      <trkpt lat="43.68033" lon="6.8069">
        <ele>735.7</ele>
        <time>2014-05-29T10:08:21.000Z</time>
      </trkpt>
      <trkpt lat="43.68032" lon="6.80695">
        <ele>736.1</ele>
        <time>2014-05-29T10:08:23.000Z</time>
      </trkpt>
      <trkpt lat="43.68032" lon="6.80697">
        <ele>736.3</ele>
        <time>2014-05-29T10:08:24.000Z</time>
      </trkpt>
      <trkpt lat="43.68031" lon="6.80702">
        <ele>736.6</ele>
        <time>2014-05-29T10:08:26.000Z</time>
      </trkpt>
      <trkpt lat="43.68031" lon="6.80704">
        <ele>736.7</ele>
        <time>2014-05-29T10:08:27.000Z</time>
      </trkpt>
      <trkpt lat="43.68031" lon="6.80709">
        <ele>736.9</ele>
        <time>2014-05-29T10:08:29.000Z</time>
      </trkpt>
      <trkpt lat="43.6803" lon="6.80712">
        <ele>736.9</ele>
        <time>2014-05-29T10:08:30.000Z</time>
      </trkpt>
      <trkpt lat="43.6803" lon="6.80717">
        <ele>737</ele>
        <time>2014-05-29T10:08:32.000Z</time>
      </trkpt>
      <trkpt lat="43.68029" lon="6.80722">
        <ele>737.3</ele>
        <time>2014-05-29T10:08:34.000Z</time>
      </trkpt>
      <trkpt lat="43.68029" lon="6.80727">
        <ele>738.1</ele>
        <time>2014-05-29T10:08:36.000Z</time>
      </trkpt>
      <trkpt lat="43.68029" lon="6.80729">
        <ele>738.1</ele>
        <time>2014-05-29T10:08:37.000Z</time>
      </trkpt>
      <trkpt lat="43.68029" lon="6.80732">
        <ele>737.5</ele>
        <time>2014-05-29T10:08:38.000Z</time>
      </trkpt>
      <trkpt lat="43.68029" lon="6.80735">
        <ele>738</ele>
        <time>2014-05-29T10:08:39.000Z</time>
      </trkpt>
      <trkpt lat="43.68029" lon="6.8074">
        <ele>737.4</ele>
        <time>2014-05-29T10:08:41.000Z</time>
      </trkpt>
      <trkpt lat="43.68028" lon="6.80742">
        <ele>737.4</ele>
        <time>2014-05-29T10:08:42.000Z</time>
      </trkpt>
      <trkpt lat="43.68027" lon="6.80746">
        <ele>737.7</ele>
        <time>2014-05-29T10:08:44.000Z</time>
      </trkpt>
      <trkpt lat="43.68027" lon="6.80749">
        <ele>737.6</ele>
        <time>2014-05-29T10:08:45.000Z</time>
      </trkpt>
      <trkpt lat="43.68026" lon="6.80753">
        <ele>737.1</ele>
        <time>2014-05-29T10:08:47.000Z</time>
      </trkpt>
      <trkpt lat="43.68026" lon="6.80756">
        <ele>736.7</ele>
        <time>2014-05-29T10:08:48.000Z</time>
      </trkpt>
      <trkpt lat="43.68026" lon="6.80762">
        <ele>736.8</ele>
        <time>2014-05-29T10:08:50.000Z</time>
      </trkpt>
      <trkpt lat="43.68026" lon="6.80764">
        <ele>736.3</ele>
        <time>2014-05-29T10:08:51.000Z</time>
      </trkpt>
      <trkpt lat="43.68025" lon="6.80767">
        <ele>736.7</ele>
        <time>2014-05-29T10:08:53.000Z</time>
      </trkpt>
      <trkpt lat="43.68025" lon="6.8077">
        <ele>736.7</ele>
        <time>2014-05-29T10:08:54.000Z</time>
      </trkpt>
      <trkpt lat="43.68023" lon="6.80774">
        <ele>737.7</ele>
        <time>2014-05-29T10:08:56.000Z</time>
      </trkpt>
      <trkpt lat="43.68023" lon="6.80776">
        <ele>737.7</ele>
        <time>2014-05-29T10:08:57.000Z</time>
      </trkpt>
      <trkpt lat="43.68023" lon="6.80782">
        <ele>738.1</ele>
        <time>2014-05-29T10:08:59.000Z</time>
      </trkpt>
      <trkpt lat="43.68023" lon="6.80785">
        <ele>738.2</ele>
        <time>2014-05-29T10:09:00.000Z</time>
      </trkpt>
      <trkpt lat="43.68023" lon="6.80791">
        <ele>738.2</ele>
        <time>2014-05-29T10:09:02.000Z</time>
      </trkpt>
      <trkpt lat="43.68022" lon="6.80793">
        <ele>738.4</ele>
        <time>2014-05-29T10:09:03.000Z</time>
      </trkpt>
      <trkpt lat="43.68022" lon="6.80799">
        <ele>738.6</ele>
        <time>2014-05-29T10:09:05.000Z</time>
      </trkpt>
      <trkpt lat="43.68022" lon="6.80802">
        <ele>738.5</ele>
        <time>2014-05-29T10:09:06.000Z</time>
      </trkpt>
      <trkpt lat="43.68022" lon="6.80805">
        <ele>738.6</ele>
        <time>2014-05-29T10:09:07.000Z</time>
      </trkpt>
      <trkpt lat="43.68022" lon="6.8081">
        <ele>738.6</ele>
        <time>2014-05-29T10:09:08.000Z</time>
      </trkpt>
      <trkpt lat="43.68022" lon="6.80813">
        <ele>738.3</ele>
        <time>2014-05-29T10:09:09.000Z</time>
      </trkpt>
      <trkpt lat="43.68022" lon="6.80817">
        <ele>737.5</ele>
        <time>2014-05-29T10:09:10.000Z</time>
      </trkpt>
      <trkpt lat="43.68022" lon="6.8082">
        <ele>737.7</ele>
        <time>2014-05-29T10:09:11.000Z</time>
      </trkpt>
      <trkpt lat="43.68022" lon="6.80824">
        <ele>737.9</ele>
        <time>2014-05-29T10:09:12.000Z</time>
      </trkpt>
      <trkpt lat="43.68022" lon="6.80828">
        <ele>738.5</ele>
        <time>2014-05-29T10:09:13.000Z</time>
      </trkpt>
      <trkpt lat="43.68022" lon="6.8083">
        <ele>739.2</ele>
        <time>2014-05-29T10:09:14.000Z</time>
      </trkpt>
      <trkpt lat="43.68022" lon="6.80833">
        <ele>739.6</ele>
        <time>2014-05-29T10:09:15.000Z</time>
      </trkpt>
      <trkpt lat="43.68022" lon="6.80837">
        <ele>739.8</ele>
        <time>2014-05-29T10:09:16.000Z</time>
      </trkpt>
      <trkpt lat="43.68021" lon="6.80839">
        <ele>739.7</ele>
        <time>2014-05-29T10:09:17.000Z</time>
      </trkpt>
      <trkpt lat="43.68022" lon="6.80843">
        <ele>740.2</ele>
        <time>2014-05-29T10:09:18.000Z</time>
      </trkpt>
      <trkpt lat="43.68021" lon="6.80846">
        <ele>740.3</ele>
        <time>2014-05-29T10:09:19.000Z</time>
      </trkpt>
      <trkpt lat="43.68021" lon="6.80849">
        <ele>740.1</ele>
        <time>2014-05-29T10:09:20.000Z</time>
      </trkpt>
      <trkpt lat="43.6802" lon="6.80852">
        <ele>740.3</ele>
        <time>2014-05-29T10:09:21.000Z</time>
      </trkpt>
      <trkpt lat="43.68021" lon="6.80855">
        <ele>740.2</ele>
        <time>2014-05-29T10:09:22.000Z</time>
      </trkpt>
      <trkpt lat="43.68021" lon="6.80859">
        <ele>739.7</ele>
        <time>2014-05-29T10:09:23.000Z</time>
      </trkpt>
      <trkpt lat="43.68021" lon="6.80862">
        <ele>739.8</ele>
        <time>2014-05-29T10:09:24.000Z</time>
      </trkpt>
      <trkpt lat="43.6802" lon="6.80866">
        <ele>740.4</ele>
        <time>2014-05-29T10:09:25.000Z</time>
      </trkpt>
      <trkpt lat="43.6802" lon="6.8087">
        <ele>740.8</ele>
        <time>2014-05-29T10:09:26.000Z</time>
      </trkpt>
      <trkpt lat="43.6802" lon="6.80874">
        <ele>740.3</ele>
        <time>2014-05-29T10:09:27.000Z</time>
      </trkpt>
      <trkpt lat="43.6802" lon="6.80877">
        <ele>740.4</ele>
        <time>2014-05-29T10:09:28.000Z</time>
      </trkpt>
      <trkpt lat="43.68019" lon="6.8088">
        <ele>740.5</ele>
        <time>2014-05-29T10:09:29.000Z</time>
      </trkpt>
      <trkpt lat="43.68019" lon="6.80883">
        <ele>741.1</ele>
        <time>2014-05-29T10:09:30.000Z</time>
      </trkpt>
      <trkpt lat="43.68019" lon="6.80883">
        <ele>741</ele>
        <time>2014-05-29T10:09:29.779Z</time>
      </trkpt>
      <trkpt lat="43.68018" lon="6.80894">
        <ele>741.7</ele>
        <time>2014-05-29T10:09:33.005Z</time>
      </trkpt>
      <trkpt lat="43.68018" lon="6.80898">
        <ele>741.9</ele>
        <time>2014-05-29T10:09:34.005Z</time>
      </trkpt>
      <trkpt lat="43.68017" lon="6.80901">
        <ele>742.1</ele>
        <time>2014-05-29T10:09:35.005Z</time>
      </trkpt>
      <trkpt lat="43.68017" lon="6.80905">
        <ele>742.4</ele>
        <time>2014-05-29T10:09:36.005Z</time>
      </trkpt>
      <trkpt lat="43.68017" lon="6.80909">
        <ele>742.6</ele>
        <time>2014-05-29T10:09:37.005Z</time>
      </trkpt>
      <trkpt lat="43.68016" lon="6.80912">
        <ele>742.8</ele>
        <time>2014-05-29T10:09:38.005Z</time>
      </trkpt>
      <trkpt lat="43.68016" lon="6.80916">
        <ele>743</ele>
        <time>2014-05-29T10:09:39.005Z</time>
      </trkpt>
      <trkpt lat="43.68016" lon="6.80919">
        <ele>743.2</ele>
        <time>2014-05-29T10:09:40.005Z</time>
      </trkpt>
      <trkpt lat="43.68016" lon="6.80927">
        <ele>740</ele>
        <time>2014-05-29T10:09:41.000Z</time>
      </trkpt>
      <trkpt lat="43.68014" lon="6.80931">
        <ele>739.1</ele>
        <time>2014-05-29T10:09:42.000Z</time>
      </trkpt>
      <trkpt lat="43.68013" lon="6.80933">
        <ele>738</ele>
        <time>2014-05-29T10:09:43.000Z</time>
      </trkpt>
      <trkpt lat="43.68014" lon="6.80937">
        <ele>738.5</ele>
        <time>2014-05-29T10:09:44.000Z</time>
      </trkpt>
      <trkpt lat="43.68014" lon="6.80941">
        <ele>737.6</ele>
        <time>2014-05-29T10:09:45.000Z</time>
      </trkpt>
      <trkpt lat="43.68013" lon="6.80945">
        <ele>737.7</ele>
        <time>2014-05-29T10:09:46.000Z</time>
      </trkpt>
      <trkpt lat="43.68013" lon="6.80949">
        <ele>737.5</ele>
        <time>2014-05-29T10:09:47.000Z</time>
      </trkpt>
      <trkpt lat="43.68013" lon="6.80953">
        <ele>737.6</ele>
        <time>2014-05-29T10:09:47.998Z</time>
      </trkpt>
      <trkpt lat="43.68012" lon="6.80957">
        <ele>737.8</ele>
        <time>2014-05-29T10:09:49.000Z</time>
      </trkpt>
      <trkpt lat="43.68012" lon="6.80962">
        <ele>738.3</ele>
        <time>2014-05-29T10:09:50.000Z</time>
      </trkpt>
      <trkpt lat="43.68011" lon="6.80967">
        <ele>740</ele>
        <time>2014-05-29T10:09:50.998Z</time>
      </trkpt>
      <trkpt lat="43.68011" lon="6.80971">
        <ele>740.1</ele>
        <time>2014-05-29T10:09:52.000Z</time>
      </trkpt>
      <trkpt lat="43.6801" lon="6.80975">
        <ele>740.8</ele>
        <time>2014-05-29T10:09:53.000Z</time>
      </trkpt>
      <trkpt lat="43.6801" lon="6.80979">
        <ele>741.6</ele>
        <time>2014-05-29T10:09:54.000Z</time>
      </trkpt>
      <trkpt lat="43.68011" lon="6.80983">
        <ele>741.7</ele>
        <time>2014-05-29T10:09:55.000Z</time>
      </trkpt>
      <trkpt lat="43.68011" lon="6.80986">
        <ele>741.8</ele>
        <time>2014-05-29T10:09:56.000Z</time>
      </trkpt>
      <trkpt lat="43.68011" lon="6.80991">
        <ele>741.8</ele>
        <time>2014-05-29T10:09:57.000Z</time>
      </trkpt>
      <trkpt lat="43.68011" lon="6.80995">
        <ele>742.1</ele>
        <time>2014-05-29T10:09:58.000Z</time>
      </trkpt>
      <trkpt lat="43.68011" lon="6.81">
        <ele>741.8</ele>
        <time>2014-05-29T10:09:59.000Z</time>
      </trkpt>
      <trkpt lat="43.68011" lon="6.81004">
        <ele>742.4</ele>
        <time>2014-05-29T10:10:00.000Z</time>
      </trkpt>
      <trkpt lat="43.68012" lon="6.81008">
        <ele>742.1</ele>
        <time>2014-05-29T10:10:01.000Z</time>
      </trkpt>
      <trkpt lat="43.68012" lon="6.81012">
        <ele>742.1</ele>
        <time>2014-05-29T10:10:02.000Z</time>
      </trkpt>
      <trkpt lat="43.68013" lon="6.81016">
        <ele>742</ele>
        <time>2014-05-29T10:10:03.000Z</time>
      </trkpt>
      <trkpt lat="43.68013" lon="6.8102">
        <ele>741.7</ele>
        <time>2014-05-29T10:10:04.000Z</time>
      </trkpt>
      <trkpt lat="43.68013" lon="6.81023">
        <ele>742.1</ele>
        <time>2014-05-29T10:10:05.000Z</time>
      </trkpt>
      <trkpt lat="43.68014" lon="6.81029">
        <ele>742.1</ele>
        <time>2014-05-29T10:10:06.000Z</time>
      </trkpt>
      <trkpt lat="43.68013" lon="6.81031">
        <ele>742.5</ele>
        <time>2014-05-29T10:10:07.000Z</time>
      </trkpt>
      <trkpt lat="43.68014" lon="6.81035">
        <ele>741.6</ele>
        <time>2014-05-29T10:10:08.000Z</time>
      </trkpt>
      <trkpt lat="43.68015" lon="6.81039">
        <ele>741.8</ele>
        <time>2014-05-29T10:10:09.000Z</time>
      </trkpt>
      <trkpt lat="43.68016" lon="6.81042">
        <ele>742.6</ele>
        <time>2014-05-29T10:10:10.000Z</time>
      </trkpt>
      <trkpt lat="43.68016" lon="6.81046">
        <ele>742.4</ele>
        <time>2014-05-29T10:10:11.000Z</time>
      </trkpt>
      <trkpt lat="43.68018" lon="6.8105">
        <ele>742.5</ele>
        <time>2014-05-29T10:10:12.000Z</time>
      </trkpt>
      <trkpt lat="43.68019" lon="6.81054">
        <ele>743</ele>
        <time>2014-05-29T10:10:13.000Z</time>
      </trkpt>
      <trkpt lat="43.6802" lon="6.81058">
        <ele>743.4</ele>
        <time>2014-05-29T10:10:14.000Z</time>
      </trkpt>
      <trkpt lat="43.68022" lon="6.81061">
        <ele>743.5</ele>
        <time>2014-05-29T10:10:15.000Z</time>
      </trkpt>
      <trkpt lat="43.68023" lon="6.81066">
        <ele>743.2</ele>
        <time>2014-05-29T10:10:16.000Z</time>
      </trkpt>
      <trkpt lat="43.68025" lon="6.81069">
        <ele>743.2</ele>
        <time>2014-05-29T10:10:17.000Z</time>
      </trkpt>
      <trkpt lat="43.68027" lon="6.81071">
        <ele>743.9</ele>
        <time>2014-05-29T10:10:18.000Z</time>
      </trkpt>
      <trkpt lat="43.6803" lon="6.81075">
        <ele>743.9</ele>
        <time>2014-05-29T10:10:19.000Z</time>
      </trkpt>
      <trkpt lat="43.6803" lon="6.81079">
        <ele>742.9</ele>
        <time>2014-05-29T10:10:20.000Z</time>
      </trkpt>
      <trkpt lat="43.68033" lon="6.81083">
        <ele>743</ele>
        <time>2014-05-29T10:10:21.000Z</time>
      </trkpt>
      <trkpt lat="43.68036" lon="6.81087">
        <ele>743.6</ele>
        <time>2014-05-29T10:10:22.000Z</time>
      </trkpt>
      <trkpt lat="43.68038" lon="6.81091">
        <ele>744.3</ele>
        <time>2014-05-29T10:10:23.000Z</time>
      </trkpt>
      <trkpt lat="43.6804" lon="6.81094">
        <ele>744.4</ele>
        <time>2014-05-29T10:10:24.000Z</time>
      </trkpt>
      <trkpt lat="43.68043" lon="6.81098">
        <ele>744.7</ele>
        <time>2014-05-29T10:10:25.000Z</time>
      </trkpt>
      <trkpt lat="43.68046" lon="6.81101">
        <ele>744.6</ele>
        <time>2014-05-29T10:10:26.000Z</time>
      </trkpt>
      <trkpt lat="43.68049" lon="6.81104">
        <ele>744.6</ele>
        <time>2014-05-29T10:10:27.000Z</time>
      </trkpt>
      <trkpt lat="43.68052" lon="6.81107">
        <ele>744.7</ele>
        <time>2014-05-29T10:10:28.000Z</time>
      </trkpt>
      <trkpt lat="43.68054" lon="6.81111">
        <ele>744.5</ele>
        <time>2014-05-29T10:10:29.000Z</time>
      </trkpt>
      <trkpt lat="43.68056" lon="6.81114">
        <ele>744.7</ele>
        <time>2014-05-29T10:10:29.799Z</time>
      </trkpt>
      <trkpt lat="43.68066" lon="6.81125">
        <ele>744.6</ele>
        <time>2014-05-29T10:10:33.006Z</time>
      </trkpt>
      <trkpt lat="43.68068" lon="6.81128">
        <ele>744.6</ele>
        <time>2014-05-29T10:10:34.006Z</time>
      </trkpt>
      <trkpt lat="43.68071" lon="6.81132">
        <ele>744.6</ele>
        <time>2014-05-29T10:10:35.006Z</time>
      </trkpt>
      <trkpt lat="43.68074" lon="6.81135">
        <ele>744.6</ele>
        <time>2014-05-29T10:10:36.006Z</time>
      </trkpt>
      <trkpt lat="43.68077" lon="6.81139">
        <ele>744.6</ele>
        <time>2014-05-29T10:10:37.006Z</time>
      </trkpt>
      <trkpt lat="43.6808" lon="6.81142">
        <ele>744.5</ele>
        <time>2014-05-29T10:10:38.006Z</time>
      </trkpt>
      <trkpt lat="43.68083" lon="6.81146">
        <ele>744.5</ele>
        <time>2014-05-29T10:10:39.006Z</time>
      </trkpt>
      <trkpt lat="43.68085" lon="6.81149">
        <ele>744.5</ele>
        <time>2014-05-29T10:10:40.006Z</time>
      </trkpt>
      <trkpt lat="43.68091" lon="6.8115">
        <ele>747.4</ele>
        <time>2014-05-29T10:10:41.000Z</time>
      </trkpt>
      <trkpt lat="43.68091" lon="6.81152">
        <ele>746.6</ele>
        <time>2014-05-29T10:10:42.000Z</time>
      </trkpt>
      <trkpt lat="43.68095" lon="6.81157">
        <ele>746.2</ele>
        <time>2014-05-29T10:10:43.000Z</time>
      </trkpt>
      <trkpt lat="43.68099" lon="6.81159">
        <ele>746.3</ele>
        <time>2014-05-29T10:10:44.000Z</time>
      </trkpt>
      <trkpt lat="43.68103" lon="6.81165">
        <ele>745.7</ele>
        <time>2014-05-29T10:10:45.000Z</time>
      </trkpt>
      <trkpt lat="43.68103" lon="6.81169">
        <ele>747</ele>
        <time>2014-05-29T10:10:46.000Z</time>
      </trkpt>
      <trkpt lat="43.68105" lon="6.81173">
        <ele>746.5</ele>
        <time>2014-05-29T10:10:47.000Z</time>
      </trkpt>
      <trkpt lat="43.68106" lon="6.81178">
        <ele>746.5</ele>
        <time>2014-05-29T10:10:48.000Z</time>
      </trkpt>
      <trkpt lat="43.6811" lon="6.81183">
        <ele>747.2</ele>
        <time>2014-05-29T10:10:49.000Z</time>
      </trkpt>
      <trkpt lat="43.68111" lon="6.81188">
        <ele>746.3</ele>
        <time>2014-05-29T10:10:50.000Z</time>
      </trkpt>
      <trkpt lat="43.68113" lon="6.81192">
        <ele>746.4</ele>
        <time>2014-05-29T10:10:51.000Z</time>
      </trkpt>
      <trkpt lat="43.68114" lon="6.81196">
        <ele>746.7</ele>
        <time>2014-05-29T10:10:52.000Z</time>
      </trkpt>
      <trkpt lat="43.68117" lon="6.812">
        <ele>747</ele>
        <time>2014-05-29T10:10:53.000Z</time>
      </trkpt>
      <trkpt lat="43.68119" lon="6.81205">
        <ele>746.2</ele>
        <time>2014-05-29T10:10:54.000Z</time>
      </trkpt>
      <trkpt lat="43.68121" lon="6.8121">
        <ele>745.7</ele>
        <time>2014-05-29T10:10:55.000Z</time>
      </trkpt>
      <trkpt lat="43.68123" lon="6.81214">
        <ele>747</ele>
        <time>2014-05-29T10:10:56.000Z</time>
      </trkpt>
      <trkpt lat="43.68124" lon="6.81218">
        <ele>746.2</ele>
        <time>2014-05-29T10:10:57.000Z</time>
      </trkpt>
      <trkpt lat="43.68126" lon="6.81222">
        <ele>746.1</ele>
        <time>2014-05-29T10:10:58.000Z</time>
      </trkpt>
      <trkpt lat="43.68129" lon="6.81226">
        <ele>747.6</ele>
        <time>2014-05-29T10:10:59.000Z</time>
      </trkpt>
      <trkpt lat="43.68132" lon="6.8123">
        <ele>748.2</ele>
        <time>2014-05-29T10:11:00.000Z</time>
      </trkpt>
      <trkpt lat="43.68135" lon="6.81234">
        <ele>749.1</ele>
        <time>2014-05-29T10:11:01.000Z</time>
      </trkpt>
      <trkpt lat="43.68137" lon="6.81238">
        <ele>749.6</ele>
        <time>2014-05-29T10:11:02.000Z</time>
      </trkpt>
      <trkpt lat="43.68138" lon="6.81242">
        <ele>749.9</ele>
        <time>2014-05-29T10:11:03.000Z</time>
      </trkpt>
      <trkpt lat="43.68141" lon="6.81245">
        <ele>749.7</ele>
        <time>2014-05-29T10:11:04.000Z</time>
      </trkpt>
      <trkpt lat="43.68143" lon="6.81248">
        <ele>749.7</ele>
        <time>2014-05-29T10:11:05.000Z</time>
      </trkpt>
      <trkpt lat="43.68145" lon="6.81252">
        <ele>749.8</ele>
        <time>2014-05-29T10:11:06.000Z</time>
      </trkpt>
      <trkpt lat="43.68146" lon="6.81256">
        <ele>749.7</ele>
        <time>2014-05-29T10:11:07.000Z</time>
      </trkpt>
      <trkpt lat="43.68148" lon="6.81259">
        <ele>749.8</ele>
        <time>2014-05-29T10:11:08.000Z</time>
      </trkpt>
      <trkpt lat="43.6815" lon="6.81262">
        <ele>749.8</ele>
        <time>2014-05-29T10:11:09.000Z</time>
      </trkpt>
      <trkpt lat="43.68151" lon="6.81267">
        <ele>749.3</ele>
        <time>2014-05-29T10:11:10.000Z</time>
      </trkpt>
      <trkpt lat="43.68155" lon="6.81271">
        <ele>748.5</ele>
        <time>2014-05-29T10:11:11.000Z</time>
      </trkpt>
      <trkpt lat="43.68157" lon="6.81276">
        <ele>749</ele>
        <time>2014-05-29T10:11:12.000Z</time>
      </trkpt>
      <trkpt lat="43.68159" lon="6.8128">
        <ele>749.5</ele>
        <time>2014-05-29T10:11:13.000Z</time>
      </trkpt>
      <trkpt lat="43.68162" lon="6.81284">
        <ele>748.4</ele>
        <time>2014-05-29T10:11:14.000Z</time>
      </trkpt>
      <trkpt lat="43.68165" lon="6.81287">
        <ele>748</ele>
        <time>2014-05-29T10:11:15.000Z</time>
      </trkpt>
      <trkpt lat="43.68167" lon="6.8129">
        <ele>748.7</ele>
        <time>2014-05-29T10:11:16.000Z</time>
      </trkpt>
      <trkpt lat="43.68169" lon="6.81294">
        <ele>749.5</ele>
        <time>2014-05-29T10:11:17.000Z</time>
      </trkpt>
      <trkpt lat="43.68172" lon="6.81298">
        <ele>749.2</ele>
        <time>2014-05-29T10:11:17.999Z</time>
      </trkpt>
      <trkpt lat="43.68174" lon="6.81302">
        <ele>749</ele>
        <time>2014-05-29T10:11:19.000Z</time>
      </trkpt>
      <trkpt lat="43.68177" lon="6.81306">
        <ele>749</ele>
        <time>2014-05-29T10:11:20.000Z</time>
      </trkpt>
      <trkpt lat="43.6818" lon="6.81311">
        <ele>748.9</ele>
        <time>2014-05-29T10:11:21.000Z</time>
      </trkpt>
      <trkpt lat="43.68183" lon="6.81315">
        <ele>748.8</ele>
        <time>2014-05-29T10:11:22.000Z</time>
      </trkpt>
      <trkpt lat="43.68185" lon="6.81319">
        <ele>748.4</ele>
        <time>2014-05-29T10:11:23.000Z</time>
      </trkpt>
      <trkpt lat="43.68188" lon="6.81324">
        <ele>748.3</ele>
        <time>2014-05-29T10:11:23.999Z</time>
      </trkpt>
      <trkpt lat="43.6819" lon="6.81329">
        <ele>748.1</ele>
        <time>2014-05-29T10:11:25.000Z</time>
      </trkpt>
      <trkpt lat="43.68193" lon="6.81336">
        <ele>748</ele>
        <time>2014-05-29T10:11:26.000Z</time>
      </trkpt>
      <trkpt lat="43.68195" lon="6.81342">
        <ele>747.4</ele>
        <time>2014-05-29T10:11:27.000Z</time>
      </trkpt>
      <trkpt lat="43.68197" lon="6.81348">
        <ele>747.1</ele>
        <time>2014-05-29T10:11:28.000Z</time>
      </trkpt>
      <trkpt lat="43.68199" lon="6.81355">
        <ele>746.7</ele>
        <time>2014-05-29T10:11:29.000Z</time>
      </trkpt>
      <trkpt lat="43.68201" lon="6.81361">
        <ele>746.4</ele>
        <time>2014-05-29T10:11:30.000Z</time>
      </trkpt>
      <trkpt lat="43.68204" lon="6.81372">
        <ele>746.1</ele>
        <time>2014-05-29T10:11:31.445Z</time>
      </trkpt>
      <trkpt lat="43.68205" lon="6.81376">
        <ele>746</ele>
        <time>2014-05-29T10:11:32.000Z</time>
      </trkpt>
      <trkpt lat="43.6821" lon="6.81392">
        <ele>745.9</ele>
        <time>2014-05-29T10:11:34.000Z</time>
      </trkpt>
      <trkpt lat="43.68212" lon="6.81401">
        <ele>744.8</ele>
        <time>2014-05-29T10:11:35.000Z</time>
      </trkpt>
      <trkpt lat="43.68215" lon="6.81409">
        <ele>744.6</ele>
        <time>2014-05-29T10:11:36.000Z</time>
      </trkpt>
      <trkpt lat="43.68216" lon="6.81416">
        <ele>745.8</ele>
        <time>2014-05-29T10:11:37.000Z</time>
      </trkpt>
      <trkpt lat="43.68218" lon="6.81424">
        <ele>746.7</ele>
        <time>2014-05-29T10:11:38.000Z</time>
      </trkpt>
      <trkpt lat="43.68221" lon="6.81432">
        <ele>746.1</ele>
        <time>2014-05-29T10:11:39.000Z</time>
      </trkpt>
      <trkpt lat="43.68223" lon="6.81439">
        <ele>745.8</ele>
        <time>2014-05-29T10:11:40.000Z</time>
      </trkpt>
      <trkpt lat="43.68225" lon="6.81448">
        <ele>745.9</ele>
        <time>2014-05-29T10:11:41.000Z</time>
      </trkpt>
      <trkpt lat="43.68227" lon="6.81456">
        <ele>746.2</ele>
        <time>2014-05-29T10:11:42.000Z</time>
      </trkpt>
      <trkpt lat="43.68228" lon="6.81464">
        <ele>746.3</ele>
        <time>2014-05-29T10:11:43.000Z</time>
      </trkpt>
      <trkpt lat="43.68231" lon="6.81474">
        <ele>746.4</ele>
        <time>2014-05-29T10:11:44.000Z</time>
      </trkpt>
      <trkpt lat="43.68232" lon="6.81484">
        <ele>746.2</ele>
        <time>2014-05-29T10:11:45.000Z</time>
      </trkpt>
      <trkpt lat="43.68232" lon="6.81492">
        <ele>746</ele>
        <time>2014-05-29T10:11:46.000Z</time>
      </trkpt>
      <trkpt lat="43.68234" lon="6.81501">
        <ele>745.4</ele>
        <time>2014-05-29T10:11:47.000Z</time>
      </trkpt>
      <trkpt lat="43.68236" lon="6.8151">
        <ele>745.2</ele>
        <time>2014-05-29T10:11:48.000Z</time>
      </trkpt>
      <trkpt lat="43.68233" lon="6.81517">
        <ele>744.6</ele>
        <time>2014-05-29T10:11:49.000Z</time>
      </trkpt>
      <trkpt lat="43.68231" lon="6.81525">
        <ele>744.7</ele>
        <time>2014-05-29T10:11:50.000Z</time>
      </trkpt>
      <trkpt lat="43.6823" lon="6.81533">
        <ele>745</ele>
        <time>2014-05-29T10:11:51.000Z</time>
      </trkpt>
      <trkpt lat="43.68229" lon="6.81541">
        <ele>744.8</ele>
        <time>2014-05-29T10:11:52.000Z</time>
      </trkpt>
      <trkpt lat="43.68228" lon="6.81549">
        <ele>745.8</ele>
        <time>2014-05-29T10:11:53.000Z</time>
      </trkpt>
      <trkpt lat="43.68226" lon="6.81558">
        <ele>745.8</ele>
        <time>2014-05-29T10:11:54.000Z</time>
      </trkpt>
      <trkpt lat="43.68224" lon="6.81568">
        <ele>746.2</ele>
        <time>2014-05-29T10:11:55.000Z</time>
      </trkpt>
      <trkpt lat="43.68223" lon="6.81576">
        <ele>746.2</ele>
        <time>2014-05-29T10:11:56.000Z</time>
      </trkpt>
      <trkpt lat="43.68221" lon="6.81586">
        <ele>745.9</ele>
        <time>2014-05-29T10:11:57.000Z</time>
      </trkpt>
      <trkpt lat="43.68219" lon="6.81595">
        <ele>745.9</ele>
        <time>2014-05-29T10:11:58.000Z</time>
      </trkpt>
      <trkpt lat="43.68218" lon="6.81602">
        <ele>745.2</ele>
        <time>2014-05-29T10:11:59.000Z</time>
      </trkpt>
      <trkpt lat="43.68218" lon="6.81612">
        <ele>744.6</ele>
        <time>2014-05-29T10:12:00.000Z</time>
      </trkpt>
      <trkpt lat="43.68216" lon="6.8162">
        <ele>744.1</ele>
        <time>2014-05-29T10:12:01.000Z</time>
      </trkpt>
      <trkpt lat="43.68217" lon="6.81629">
        <ele>744.7</ele>
        <time>2014-05-29T10:12:02.000Z</time>
      </trkpt>
      <trkpt lat="43.68218" lon="6.81637">
        <ele>745</ele>
        <time>2014-05-29T10:12:03.000Z</time>
      </trkpt>
      <trkpt lat="43.6822" lon="6.81647">
        <ele>745.2</ele>
        <time>2014-05-29T10:12:04.000Z</time>
      </trkpt>
      <trkpt lat="43.68221" lon="6.81656">
        <ele>745.2</ele>
        <time>2014-05-29T10:12:05.000Z</time>
      </trkpt>
      <trkpt lat="43.68224" lon="6.81664">
        <ele>745.3</ele>
        <time>2014-05-29T10:12:06.000Z</time>
      </trkpt>
      <trkpt lat="43.68227" lon="6.81672">
        <ele>746.2</ele>
        <time>2014-05-29T10:12:07.000Z</time>
      </trkpt>
      <trkpt lat="43.6823" lon="6.81679">
        <ele>746.6</ele>
        <time>2014-05-29T10:12:08.000Z</time>
      </trkpt>
      <trkpt lat="43.68232" lon="6.81686">
        <ele>746.7</ele>
        <time>2014-05-29T10:12:09.000Z</time>
      </trkpt>
      <trkpt lat="43.68234" lon="6.81694">
        <ele>745.4</ele>
        <time>2014-05-29T10:12:10.000Z</time>
      </trkpt>
      <trkpt lat="43.68237" lon="6.81702">
        <ele>745.5</ele>
        <time>2014-05-29T10:12:11.000Z</time>
      </trkpt>
      <trkpt lat="43.68239" lon="6.81711">
        <ele>745.4</ele>
        <time>2014-05-29T10:12:12.000Z</time>
      </trkpt>
      <trkpt lat="43.68243" lon="6.8172">
        <ele>745.5</ele>
        <time>2014-05-29T10:12:13.000Z</time>
      </trkpt>
      <trkpt lat="43.68246" lon="6.81728">
        <ele>745.2</ele>
        <time>2014-05-29T10:12:14.000Z</time>
      </trkpt>
      <trkpt lat="43.68248" lon="6.81738">
        <ele>744.8</ele>
        <time>2014-05-29T10:12:15.000Z</time>
      </trkpt>
      <trkpt lat="43.68251" lon="6.81746">
        <ele>745</ele>
        <time>2014-05-29T10:12:16.000Z</time>
      </trkpt>
      <trkpt lat="43.68254" lon="6.81755">
        <ele>745</ele>
        <time>2014-05-29T10:12:17.000Z</time>
      </trkpt>
      <trkpt lat="43.68257" lon="6.81765">
        <ele>745.5</ele>
        <time>2014-05-29T10:12:18.000Z</time>
      </trkpt>
      <trkpt lat="43.6826" lon="6.81774">
        <ele>745.6</ele>
        <time>2014-05-29T10:12:19.000Z</time>
      </trkpt>
      <trkpt lat="43.68264" lon="6.81783">
        <ele>745.6</ele>
        <time>2014-05-29T10:12:20.000Z</time>
      </trkpt>
      <trkpt lat="43.68267" lon="6.81791">
        <ele>746</ele>
        <time>2014-05-29T10:12:21.000Z</time>
      </trkpt>
      <trkpt lat="43.6827" lon="6.818">
        <ele>745.6</ele>
        <time>2014-05-29T10:12:22.000Z</time>
      </trkpt>
      <trkpt lat="43.68272" lon="6.81808">
        <ele>745.4</ele>
        <time>2014-05-29T10:12:23.000Z</time>
      </trkpt>
      <trkpt lat="43.68277" lon="6.81817">
        <ele>745.5</ele>
        <time>2014-05-29T10:12:24.000Z</time>
      </trkpt>
      <trkpt lat="43.68281" lon="6.81825">
        <ele>746</ele>
        <time>2014-05-29T10:12:25.000Z</time>
      </trkpt>
      <trkpt lat="43.68285" lon="6.81833">
        <ele>746.5</ele>
        <time>2014-05-29T10:12:26.000Z</time>
      </trkpt>
      <trkpt lat="43.68289" lon="6.81841">
        <ele>746.3</ele>
        <time>2014-05-29T10:12:27.000Z</time>
      </trkpt>
      <trkpt lat="43.68293" lon="6.81848">
        <ele>746.4</ele>
        <time>2014-05-29T10:12:28.000Z</time>
      </trkpt>
      <trkpt lat="43.68297" lon="6.81855">
        <ele>746.2</ele>
        <time>2014-05-29T10:12:29.000Z</time>
      </trkpt>
      <trkpt lat="43.68301" lon="6.81861">
        <ele>746.1</ele>
        <time>2014-05-29T10:12:30.000Z</time>
      </trkpt>
      <trkpt lat="43.68308" lon="6.81871">
        <ele>746</ele>
        <time>2014-05-29T10:12:31.470Z</time>
      </trkpt>
      <trkpt lat="43.68314" lon="6.81882">
        <ele>745.2</ele>
        <time>2014-05-29T10:12:33.000Z</time>
      </trkpt>
      <trkpt lat="43.68319" lon="6.81887">
        <ele>744.8</ele>
        <time>2014-05-29T10:12:34.000Z</time>
      </trkpt>
      <trkpt lat="43.68324" lon="6.81892">
        <ele>745.7</ele>
        <time>2014-05-29T10:12:35.000Z</time>
      </trkpt>
      <trkpt lat="43.68331" lon="6.81896">
        <ele>746.3</ele>
        <time>2014-05-29T10:12:36.000Z</time>
      </trkpt>
      <trkpt lat="43.68336" lon="6.81899">
        <ele>745.7</ele>
        <time>2014-05-29T10:12:37.000Z</time>
      </trkpt>
      <trkpt lat="43.68343" lon="6.81902">
        <ele>746.1</ele>
        <time>2014-05-29T10:12:38.000Z</time>
      </trkpt>
      <trkpt lat="43.6835" lon="6.81904">
        <ele>746.1</ele>
        <time>2014-05-29T10:12:39.000Z</time>
      </trkpt>
      <trkpt lat="43.68356" lon="6.81906">
        <ele>746.5</ele>
        <time>2014-05-29T10:12:40.000Z</time>
      </trkpt>
      <trkpt lat="43.68363" lon="6.81908">
        <ele>746.6</ele>
        <time>2014-05-29T10:12:41.000Z</time>
      </trkpt>
      <trkpt lat="43.68369" lon="6.8191">
        <ele>746.9</ele>
        <time>2014-05-29T10:12:42.000Z</time>
      </trkpt>
      <trkpt lat="43.68375" lon="6.81911">
        <ele>746.7</ele>
        <time>2014-05-29T10:12:43.000Z</time>
      </trkpt>
      <trkpt lat="43.68381" lon="6.81913">
        <ele>746.6</ele>
        <time>2014-05-29T10:12:44.000Z</time>
      </trkpt>
      <trkpt lat="43.68387" lon="6.81914">
        <ele>747.2</ele>
        <time>2014-05-29T10:12:45.000Z</time>
      </trkpt>
      <trkpt lat="43.68392" lon="6.81916">
        <ele>748.2</ele>
        <time>2014-05-29T10:12:46.000Z</time>
      </trkpt>
      <trkpt lat="43.68399" lon="6.81917">
        <ele>748.9</ele>
        <time>2014-05-29T10:12:47.000Z</time>
      </trkpt>
      <trkpt lat="43.68405" lon="6.8192">
        <ele>748.7</ele>
        <time>2014-05-29T10:12:48.000Z</time>
      </trkpt>
      <trkpt lat="43.68412" lon="6.81923">
        <ele>748.7</ele>
        <time>2014-05-29T10:12:49.000Z</time>
      </trkpt>
      <trkpt lat="43.68418" lon="6.81923">
        <ele>748.9</ele>
        <time>2014-05-29T10:12:50.000Z</time>
      </trkpt>
      <trkpt lat="43.68424" lon="6.81927">
        <ele>749.5</ele>
        <time>2014-05-29T10:12:51.000Z</time>
      </trkpt>
      <trkpt lat="43.6843" lon="6.81931">
        <ele>748.8</ele>
        <time>2014-05-29T10:12:52.000Z</time>
      </trkpt>
      <trkpt lat="43.68435" lon="6.81934">
        <ele>748.8</ele>
        <time>2014-05-29T10:12:53.000Z</time>
      </trkpt>
      <trkpt lat="43.68441" lon="6.81937">
        <ele>748.6</ele>
        <time>2014-05-29T10:12:53.998Z</time>
      </trkpt>
      <trkpt lat="43.68446" lon="6.81942">
        <ele>748.5</ele>
        <time>2014-05-29T10:12:55.000Z</time>
      </trkpt>
      <trkpt lat="43.68451" lon="6.81947">
        <ele>748.3</ele>
        <time>2014-05-29T10:12:56.000Z</time>
      </trkpt>
      <trkpt lat="43.68455" lon="6.8195">
        <ele>748.3</ele>
        <time>2014-05-29T10:12:57.000Z</time>
      </trkpt>
      <trkpt lat="43.68459" lon="6.81954">
        <ele>748.4</ele>
        <time>2014-05-29T10:12:58.000Z</time>
      </trkpt>
      <trkpt lat="43.68465" lon="6.81961">
        <ele>748.1</ele>
        <time>2014-05-29T10:12:59.000Z</time>
      </trkpt>
      <trkpt lat="43.68469" lon="6.81965">
        <ele>747.7</ele>
        <time>2014-05-29T10:13:00.000Z</time>
      </trkpt>
      <trkpt lat="43.68473" lon="6.81969">
        <ele>747.5</ele>
        <time>2014-05-29T10:13:01.000Z</time>
      </trkpt>
      <trkpt lat="43.68479" lon="6.81975">
        <ele>747.1</ele>
        <time>2014-05-29T10:13:02.000Z</time>
      </trkpt>
      <trkpt lat="43.68485" lon="6.81979">
        <ele>747.2</ele>
        <time>2014-05-29T10:13:03.000Z</time>
      </trkpt>
      <trkpt lat="43.6849" lon="6.81983">
        <ele>746.8</ele>
        <time>2014-05-29T10:13:04.000Z</time>
      </trkpt>
      <trkpt lat="43.68497" lon="6.8199">
        <ele>746.3</ele>
        <time>2014-05-29T10:13:05.000Z</time>
      </trkpt>
      <trkpt lat="43.68503" lon="6.81995">
        <ele>746</ele>
        <time>2014-05-29T10:13:06.000Z</time>
      </trkpt>
      <trkpt lat="43.68509" lon="6.81998">
        <ele>745.8</ele>
        <time>2014-05-29T10:13:07.000Z</time>
      </trkpt>
      <trkpt lat="43.68513" lon="6.82001">
        <ele>745.6</ele>
        <time>2014-05-29T10:13:08.000Z</time>
      </trkpt>
      <trkpt lat="43.68519" lon="6.82005">
        <ele>745.7</ele>
        <time>2014-05-29T10:13:09.000Z</time>
      </trkpt>
      <trkpt lat="43.68524" lon="6.82009">
        <ele>745.2</ele>
        <time>2014-05-29T10:13:10.000Z</time>
      </trkpt>
      <trkpt lat="43.6853" lon="6.82013">
        <ele>745.2</ele>
        <time>2014-05-29T10:13:11.000Z</time>
      </trkpt>
      <trkpt lat="43.68535" lon="6.82018">
        <ele>745.2</ele>
        <time>2014-05-29T10:13:12.000Z</time>
      </trkpt>
      <trkpt lat="43.68541" lon="6.82021">
        <ele>745</ele>
        <time>2014-05-29T10:13:13.000Z</time>
      </trkpt>
      <trkpt lat="43.68547" lon="6.82024">
        <ele>745.3</ele>
        <time>2014-05-29T10:13:14.000Z</time>
      </trkpt>
      <trkpt lat="43.6855" lon="6.8203">
        <ele>745.1</ele>
        <time>2014-05-29T10:13:15.000Z</time>
      </trkpt>
      <trkpt lat="43.68557" lon="6.82037">
        <ele>744.9</ele>
        <time>2014-05-29T10:13:16.000Z</time>
      </trkpt>
      <trkpt lat="43.68564" lon="6.82044">
        <ele>744.9</ele>
        <time>2014-05-29T10:13:17.000Z</time>
      </trkpt>
      <trkpt lat="43.68568" lon="6.82052">
        <ele>744.8</ele>
        <time>2014-05-29T10:13:18.000Z</time>
      </trkpt>
      <trkpt lat="43.68576" lon="6.8206">
        <ele>744.5</ele>
        <time>2014-05-29T10:13:19.000Z</time>
      </trkpt>
      <trkpt lat="43.68579" lon="6.82068">
        <ele>743.5</ele>
        <time>2014-05-29T10:13:20.000Z</time>
      </trkpt>
      <trkpt lat="43.68584" lon="6.82077">
        <ele>743</ele>
        <time>2014-05-29T10:13:21.000Z</time>
      </trkpt>
      <trkpt lat="43.68589" lon="6.82085">
        <ele>742</ele>
        <time>2014-05-29T10:13:22.000Z</time>
      </trkpt>
      <trkpt lat="43.68593" lon="6.82093">
        <ele>741.8</ele>
        <time>2014-05-29T10:13:23.000Z</time>
      </trkpt>
      <trkpt lat="43.68597" lon="6.82101">
        <ele>741.5</ele>
        <time>2014-05-29T10:13:24.000Z</time>
      </trkpt>
      <trkpt lat="43.68601" lon="6.8211">
        <ele>741.1</ele>
        <time>2014-05-29T10:13:25.000Z</time>
      </trkpt>
      <trkpt lat="43.68605" lon="6.82119">
        <ele>740.4</ele>
        <time>2014-05-29T10:13:26.000Z</time>
      </trkpt>
      <trkpt lat="43.68608" lon="6.8213">
        <ele>740.2</ele>
        <time>2014-05-29T10:13:27.000Z</time>
      </trkpt>
      <trkpt lat="43.6861" lon="6.8214">
        <ele>739.7</ele>
        <time>2014-05-29T10:13:28.000Z</time>
      </trkpt>
      <trkpt lat="43.68613" lon="6.8215">
        <ele>738.9</ele>
        <time>2014-05-29T10:13:29.000Z</time>
      </trkpt>
      <trkpt lat="43.68615" lon="6.82161">
        <ele>738.7</ele>
        <time>2014-05-29T10:13:30.000Z</time>
      </trkpt>
      <trkpt lat="43.68618" lon="6.82172">
        <ele>738.9</ele>
        <time>2014-05-29T10:13:31.000Z</time>
      </trkpt>
      <trkpt lat="43.6862" lon="6.82183">
        <ele>738.9</ele>
        <time>2014-05-29T10:13:32.000Z</time>
      </trkpt>
      <trkpt lat="43.68621" lon="6.82194">
        <ele>739</ele>
        <time>2014-05-29T10:13:33.000Z</time>
      </trkpt>
      <trkpt lat="43.68623" lon="6.82205">
        <ele>739</ele>
        <time>2014-05-29T10:13:34.000Z</time>
      </trkpt>
      <trkpt lat="43.68626" lon="6.82216">
        <ele>738.9</ele>
        <time>2014-05-29T10:13:35.000Z</time>
      </trkpt>
      <trkpt lat="43.68628" lon="6.82226">
        <ele>738.9</ele>
        <time>2014-05-29T10:13:36.000Z</time>
      </trkpt>
      <trkpt lat="43.68629" lon="6.82237">
        <ele>738.9</ele>
        <time>2014-05-29T10:13:37.000Z</time>
      </trkpt>
      <trkpt lat="43.68624" lon="6.8225">
        <ele>737.3</ele>
        <time>2014-05-29T10:13:38.000Z</time>
      </trkpt>
      <trkpt lat="43.68623" lon="6.82261">
        <ele>736.5</ele>
        <time>2014-05-29T10:13:39.000Z</time>
      </trkpt>
      <trkpt lat="43.68622" lon="6.82272">
        <ele>736</ele>
        <time>2014-05-29T10:13:40.000Z</time>
      </trkpt>
      <trkpt lat="43.6862" lon="6.82283">
        <ele>736.1</ele>
        <time>2014-05-29T10:13:41.000Z</time>
      </trkpt>
      <trkpt lat="43.68618" lon="6.82294">
        <ele>735.3</ele>
        <time>2014-05-29T10:13:42.000Z</time>
      </trkpt>
      <trkpt lat="43.68615" lon="6.82305">
        <ele>735.3</ele>
        <time>2014-05-29T10:13:43.000Z</time>
      </trkpt>
      <trkpt lat="43.68612" lon="6.82316">
        <ele>735.4</ele>
        <time>2014-05-29T10:13:44.000Z</time>
      </trkpt>
      <trkpt lat="43.68609" lon="6.82327">
        <ele>735.4</ele>
        <time>2014-05-29T10:13:45.000Z</time>
      </trkpt>
      <trkpt lat="43.68605" lon="6.82338">
        <ele>735.1</ele>
        <time>2014-05-29T10:13:46.000Z</time>
      </trkpt>
      <trkpt lat="43.68601" lon="6.82349">
        <ele>735</ele>
        <time>2014-05-29T10:13:47.000Z</time>
      </trkpt>
      <trkpt lat="43.68598" lon="6.8236">
        <ele>734.4</ele>
        <time>2014-05-29T10:13:48.000Z</time>
      </trkpt>
      <trkpt lat="43.68596" lon="6.82371">
        <ele>734.4</ele>
        <time>2014-05-29T10:13:49.000Z</time>
      </trkpt>
      <trkpt lat="43.68599" lon="6.82383">
        <ele>733.2</ele>
        <time>2014-05-29T10:13:50.000Z</time>
      </trkpt>
      <trkpt lat="43.68601" lon="6.82395">
        <ele>733.2</ele>
        <time>2014-05-29T10:13:51.000Z</time>
      </trkpt>
      <trkpt lat="43.68605" lon="6.82405">
        <ele>732.8</ele>
        <time>2014-05-29T10:13:52.000Z</time>
      </trkpt>
      <trkpt lat="43.68609" lon="6.82415">
        <ele>732.8</ele>
        <time>2014-05-29T10:13:53.000Z</time>
      </trkpt>
      <trkpt lat="43.68614" lon="6.82421">
        <ele>732.9</ele>
        <time>2014-05-29T10:13:54.000Z</time>
      </trkpt>
      <trkpt lat="43.6862" lon="6.82426">
        <ele>732.7</ele>
        <time>2014-05-29T10:13:55.000Z</time>
      </trkpt>
      <trkpt lat="43.68626" lon="6.8243">
        <ele>732.7</ele>
        <time>2014-05-29T10:13:56.000Z</time>
      </trkpt>
      <trkpt lat="43.68633" lon="6.82434">
        <ele>732.6</ele>
        <time>2014-05-29T10:13:57.000Z</time>
      </trkpt>
      <trkpt lat="43.6864" lon="6.82437">
        <ele>732.3</ele>
        <time>2014-05-29T10:13:58.000Z</time>
      </trkpt>
      <trkpt lat="43.6865" lon="6.82442">
        <ele>732.5</ele>
        <time>2014-05-29T10:13:59.000Z</time>
      </trkpt>
      <trkpt lat="43.68657" lon="6.82448">
        <ele>732.1</ele>
        <time>2014-05-29T10:14:00.000Z</time>
      </trkpt>
      <trkpt lat="43.68665" lon="6.82453">
        <ele>731.8</ele>
        <time>2014-05-29T10:14:01.000Z</time>
      </trkpt>
      <trkpt lat="43.68676" lon="6.82459">
        <ele>732.9</ele>
        <time>2014-05-29T10:14:02.000Z</time>
      </trkpt>
      <trkpt lat="43.68683" lon="6.82465">
        <ele>732.9</ele>
        <time>2014-05-29T10:14:03.000Z</time>
      </trkpt>
      <trkpt lat="43.6869" lon="6.8247">
        <ele>733</ele>
        <time>2014-05-29T10:14:04.000Z</time>
      </trkpt>
      <trkpt lat="43.68697" lon="6.82475">
        <ele>733.2</ele>
        <time>2014-05-29T10:14:05.000Z</time>
      </trkpt>
      <trkpt lat="43.68703" lon="6.82481">
        <ele>733</ele>
        <time>2014-05-29T10:14:06.000Z</time>
      </trkpt>
      <trkpt lat="43.68709" lon="6.82487">
        <ele>732.9</ele>
        <time>2014-05-29T10:14:07.000Z</time>
      </trkpt>
      <trkpt lat="43.68715" lon="6.82493">
        <ele>732.6</ele>
        <time>2014-05-29T10:14:08.000Z</time>
      </trkpt>
      <trkpt lat="43.68721" lon="6.825">
        <ele>733.2</ele>
        <time>2014-05-29T10:14:09.000Z</time>
      </trkpt>
      <trkpt lat="43.68729" lon="6.82508">
        <ele>733.1</ele>
        <time>2014-05-29T10:14:10.000Z</time>
      </trkpt>
      <trkpt lat="43.68734" lon="6.82515">
        <ele>733.2</ele>
        <time>2014-05-29T10:14:11.000Z</time>
      </trkpt>
      <trkpt lat="43.68741" lon="6.82521">
        <ele>733.1</ele>
        <time>2014-05-29T10:14:12.000Z</time>
      </trkpt>
      <trkpt lat="43.68747" lon="6.82528">
        <ele>732.8</ele>
        <time>2014-05-29T10:14:13.000Z</time>
      </trkpt>
      <trkpt lat="43.68752" lon="6.82535">
        <ele>732.7</ele>
        <time>2014-05-29T10:14:14.000Z</time>
      </trkpt>
      <trkpt lat="43.68758" lon="6.82543">
        <ele>732.8</ele>
        <time>2014-05-29T10:14:15.000Z</time>
      </trkpt>
      <trkpt lat="43.68764" lon="6.8255">
        <ele>732.8</ele>
        <time>2014-05-29T10:14:16.000Z</time>
      </trkpt>
      <trkpt lat="43.68768" lon="6.82559">
        <ele>732.7</ele>
        <time>2014-05-29T10:14:17.000Z</time>
      </trkpt>
      <trkpt lat="43.68772" lon="6.82568">
        <ele>732.5</ele>
        <time>2014-05-29T10:14:18.000Z</time>
      </trkpt>
      <trkpt lat="43.68776" lon="6.82578">
        <ele>732.6</ele>
        <time>2014-05-29T10:14:19.000Z</time>
      </trkpt>
      <trkpt lat="43.68779" lon="6.82589">
        <ele>731.9</ele>
        <time>2014-05-29T10:14:19.999Z</time>
      </trkpt>
      <trkpt lat="43.68781" lon="6.82599">
        <ele>731.6</ele>
        <time>2014-05-29T10:14:21.000Z</time>
      </trkpt>
      <trkpt lat="43.68783" lon="6.8261">
        <ele>731.2</ele>
        <time>2014-05-29T10:14:22.000Z</time>
      </trkpt>
      <trkpt lat="43.68785" lon="6.82621">
        <ele>730.4</ele>
        <time>2014-05-29T10:14:22.998Z</time>
      </trkpt>
      <trkpt lat="43.68785" lon="6.82631">
        <ele>730.4</ele>
        <time>2014-05-29T10:14:24.000Z</time>
      </trkpt>
      <trkpt lat="43.68786" lon="6.82644">
        <ele>730.3</ele>
        <time>2014-05-29T10:14:24.999Z</time>
      </trkpt>
      <trkpt lat="43.68786" lon="6.82651">
        <ele>730.1</ele>
        <time>2014-05-29T10:14:26.000Z</time>
      </trkpt>
      <trkpt lat="43.68783" lon="6.82661">
        <ele>729.6</ele>
        <time>2014-05-29T10:14:27.000Z</time>
      </trkpt>
      <trkpt lat="43.68782" lon="6.8267">
        <ele>730</ele>
        <time>2014-05-29T10:14:28.000Z</time>
      </trkpt>
      <trkpt lat="43.68779" lon="6.82679">
        <ele>730.1</ele>
        <time>2014-05-29T10:14:29.000Z</time>
      </trkpt>
      <trkpt lat="43.68776" lon="6.82689">
        <ele>730.2</ele>
        <time>2014-05-29T10:14:30.000Z</time>
      </trkpt>
      <trkpt lat="43.68773" lon="6.82704">
        <ele>730.4</ele>
        <time>2014-05-29T10:14:31.459Z</time>
      </trkpt>
      <trkpt lat="43.68772" lon="6.82709">
        <ele>730.4</ele>
        <time>2014-05-29T10:14:32.000Z</time>
      </trkpt>
      <trkpt lat="43.68767" lon="6.82727">
        <ele>730</ele>
        <time>2014-05-29T10:14:34.000Z</time>
      </trkpt>
      <trkpt lat="43.68763" lon="6.82736">
        <ele>730.4</ele>
        <time>2014-05-29T10:14:35.000Z</time>
      </trkpt>
      <trkpt lat="43.6876" lon="6.82746">
        <ele>729.6</ele>
        <time>2014-05-29T10:14:36.000Z</time>
      </trkpt>
      <trkpt lat="43.68757" lon="6.82754">
        <ele>729.9</ele>
        <time>2014-05-29T10:14:37.000Z</time>
      </trkpt>
      <trkpt lat="43.68754" lon="6.82761">
        <ele>729.3</ele>
        <time>2014-05-29T10:14:38.000Z</time>
      </trkpt>
      <trkpt lat="43.68751" lon="6.82769">
        <ele>729.5</ele>
        <time>2014-05-29T10:14:39.000Z</time>
      </trkpt>
      <trkpt lat="43.68748" lon="6.82776">
        <ele>729.7</ele>
        <time>2014-05-29T10:14:40.000Z</time>
      </trkpt>
      <trkpt lat="43.68745" lon="6.82784">
        <ele>730</ele>
        <time>2014-05-29T10:14:41.000Z</time>
      </trkpt>
      <trkpt lat="43.68742" lon="6.82791">
        <ele>730.2</ele>
        <time>2014-05-29T10:14:42.000Z</time>
      </trkpt>
      <trkpt lat="43.68739" lon="6.82798">
        <ele>730.2</ele>
        <time>2014-05-29T10:14:43.000Z</time>
      </trkpt>
      <trkpt lat="43.68736" lon="6.82806">
        <ele>730.5</ele>
        <time>2014-05-29T10:14:44.000Z</time>
      </trkpt>
      <trkpt lat="43.68733" lon="6.82814">
        <ele>730.6</ele>
        <time>2014-05-29T10:14:45.000Z</time>
      </trkpt>
      <trkpt lat="43.68729" lon="6.82822">
        <ele>730.6</ele>
        <time>2014-05-29T10:14:46.000Z</time>
      </trkpt>
      <trkpt lat="43.68727" lon="6.8283">
        <ele>731.5</ele>
        <time>2014-05-29T10:14:47.000Z</time>
      </trkpt>
      <trkpt lat="43.68724" lon="6.82838">
        <ele>731.2</ele>
        <time>2014-05-29T10:14:48.000Z</time>
      </trkpt>
      <trkpt lat="43.68722" lon="6.82845">
        <ele>730.6</ele>
        <time>2014-05-29T10:14:49.000Z</time>
      </trkpt>
      <trkpt lat="43.6872" lon="6.82851">
        <ele>730.7</ele>
        <time>2014-05-29T10:14:50.000Z</time>
      </trkpt>
      <trkpt lat="43.68721" lon="6.8286">
        <ele>731.1</ele>
        <time>2014-05-29T10:14:51.000Z</time>
      </trkpt>
      <trkpt lat="43.68726" lon="6.82871">
        <ele>731.4</ele>
        <time>2014-05-29T10:14:52.000Z</time>
      </trkpt>
      <trkpt lat="43.68728" lon="6.82879">
        <ele>731.2</ele>
        <time>2014-05-29T10:14:53.000Z</time>
      </trkpt>
      <trkpt lat="43.68729" lon="6.82888">
        <ele>732</ele>
        <time>2014-05-29T10:14:54.000Z</time>
      </trkpt>
      <trkpt lat="43.68731" lon="6.82895">
        <ele>731.9</ele>
        <time>2014-05-29T10:14:55.000Z</time>
      </trkpt>
      <trkpt lat="43.68734" lon="6.82904">
        <ele>731.2</ele>
        <time>2014-05-29T10:14:56.000Z</time>
      </trkpt>
      <trkpt lat="43.68737" lon="6.82911">
        <ele>730.8</ele>
        <time>2014-05-29T10:14:57.000Z</time>
      </trkpt>
      <trkpt lat="43.6874" lon="6.82918">
        <ele>730.2</ele>
        <time>2014-05-29T10:14:58.000Z</time>
      </trkpt>
      <trkpt lat="43.68743" lon="6.82925">
        <ele>730.3</ele>
        <time>2014-05-29T10:14:59.000Z</time>
      </trkpt>
      <trkpt lat="43.68747" lon="6.82932">
        <ele>730.2</ele>
        <time>2014-05-29T10:15:00.000Z</time>
      </trkpt>
      <trkpt lat="43.68751" lon="6.82937">
        <ele>729.5</ele>
        <time>2014-05-29T10:15:01.000Z</time>
      </trkpt>
      <trkpt lat="43.68755" lon="6.82943">
        <ele>729</ele>
        <time>2014-05-29T10:15:02.000Z</time>
      </trkpt>
      <trkpt lat="43.6876" lon="6.82948">
        <ele>728.9</ele>
        <time>2014-05-29T10:15:03.000Z</time>
      </trkpt>
      <trkpt lat="43.68766" lon="6.82952">
        <ele>729.1</ele>
        <time>2014-05-29T10:15:04.000Z</time>
      </trkpt>
      <trkpt lat="43.68771" lon="6.82955">
        <ele>729.1</ele>
        <time>2014-05-29T10:15:05.000Z</time>
      </trkpt>
      <trkpt lat="43.68777" lon="6.82958">
        <ele>728.7</ele>
        <time>2014-05-29T10:15:06.000Z</time>
      </trkpt>
      <trkpt lat="43.68784" lon="6.8296">
        <ele>728.6</ele>
        <time>2014-05-29T10:15:07.000Z</time>
      </trkpt>
      <trkpt lat="43.6879" lon="6.8296">
        <ele>728.5</ele>
        <time>2014-05-29T10:15:08.000Z</time>
      </trkpt>
      <trkpt lat="43.68797" lon="6.82961">
        <ele>728.6</ele>
        <time>2014-05-29T10:15:09.000Z</time>
      </trkpt>
      <trkpt lat="43.68803" lon="6.82962">
        <ele>728.6</ele>
        <time>2014-05-29T10:15:10.000Z</time>
      </trkpt>
      <trkpt lat="43.6881" lon="6.82962">
        <ele>729.1</ele>
        <time>2014-05-29T10:15:11.000Z</time>
      </trkpt>
      <trkpt lat="43.68816" lon="6.82963">
        <ele>728.1</ele>
        <time>2014-05-29T10:15:12.000Z</time>
      </trkpt>
      <trkpt lat="43.68822" lon="6.82963">
        <ele>729.2</ele>
        <time>2014-05-29T10:15:13.000Z</time>
      </trkpt>
      <trkpt lat="43.68829" lon="6.82963">
        <ele>729.4</ele>
        <time>2014-05-29T10:15:14.000Z</time>
      </trkpt>
      <trkpt lat="43.68836" lon="6.82964">
        <ele>728.6</ele>
        <time>2014-05-29T10:15:15.000Z</time>
      </trkpt>
      <trkpt lat="43.68842" lon="6.82965">
        <ele>728.2</ele>
        <time>2014-05-29T10:15:16.000Z</time>
      </trkpt>
      <trkpt lat="43.68849" lon="6.82966">
        <ele>727.8</ele>
        <time>2014-05-29T10:15:17.000Z</time>
      </trkpt>
      <trkpt lat="43.68855" lon="6.82968">
        <ele>727.7</ele>
        <time>2014-05-29T10:15:18.000Z</time>
      </trkpt>
      <trkpt lat="43.6886" lon="6.82969">
        <ele>728.7</ele>
        <time>2014-05-29T10:15:19.000Z</time>
      </trkpt>
      <trkpt lat="43.68866" lon="6.82971">
        <ele>729.3</ele>
        <time>2014-05-29T10:15:20.000Z</time>
      </trkpt>
      <trkpt lat="43.68872" lon="6.82973">
        <ele>729.6</ele>
        <time>2014-05-29T10:15:21.000Z</time>
      </trkpt>
      <trkpt lat="43.68878" lon="6.82975">
        <ele>730.8</ele>
        <time>2014-05-29T10:15:22.000Z</time>
      </trkpt>
      <trkpt lat="43.68883" lon="6.82979">
        <ele>731.4</ele>
        <time>2014-05-29T10:15:23.000Z</time>
      </trkpt>
      <trkpt lat="43.68889" lon="6.82983">
        <ele>731.3</ele>
        <time>2014-05-29T10:15:24.000Z</time>
      </trkpt>
      <trkpt lat="43.68895" lon="6.82987">
        <ele>730.9</ele>
        <time>2014-05-29T10:15:25.000Z</time>
      </trkpt>
      <trkpt lat="43.68901" lon="6.8299">
        <ele>730.7</ele>
        <time>2014-05-29T10:15:26.000Z</time>
      </trkpt>
      <trkpt lat="43.68906" lon="6.82996">
        <ele>730.7</ele>
        <time>2014-05-29T10:15:27.000Z</time>
      </trkpt>
      <trkpt lat="43.68911" lon="6.83001">
        <ele>730.7</ele>
        <time>2014-05-29T10:15:28.000Z</time>
      </trkpt>
      <trkpt lat="43.68917" lon="6.83007">
        <ele>730.9</ele>
        <time>2014-05-29T10:15:29.000Z</time>
      </trkpt>
      <trkpt lat="43.68921" lon="6.83012">
        <ele>731.3</ele>
        <time>2014-05-29T10:15:30.000Z</time>
      </trkpt>
      <trkpt lat="43.68927" lon="6.83023">
        <ele>730.7</ele>
        <time>2014-05-29T10:15:31.457Z</time>
      </trkpt>
      <trkpt lat="43.68934" lon="6.83035">
        <ele>730.1</ele>
        <time>2014-05-29T10:15:33.000Z</time>
      </trkpt>
      <trkpt lat="43.68938" lon="6.83043">
        <ele>729.9</ele>
        <time>2014-05-29T10:15:34.000Z</time>
      </trkpt>
      <trkpt lat="43.68939" lon="6.83051">
        <ele>730.2</ele>
        <time>2014-05-29T10:15:35.000Z</time>
      </trkpt>
      <trkpt lat="43.68943" lon="6.83058">
        <ele>729.7</ele>
        <time>2014-05-29T10:15:36.000Z</time>
      </trkpt>
      <trkpt lat="43.68947" lon="6.83066">
        <ele>728.7</ele>
        <time>2014-05-29T10:15:37.000Z</time>
      </trkpt>
      <trkpt lat="43.68949" lon="6.83072">
        <ele>728</ele>
        <time>2014-05-29T10:15:38.000Z</time>
      </trkpt>
      <trkpt lat="43.68953" lon="6.8308">
        <ele>727</ele>
        <time>2014-05-29T10:15:39.000Z</time>
      </trkpt>
      <trkpt lat="43.68957" lon="6.83091">
        <ele>726.6</ele>
        <time>2014-05-29T10:15:40.000Z</time>
      </trkpt>
      <trkpt lat="43.68959" lon="6.83099">
        <ele>726.1</ele>
        <time>2014-05-29T10:15:41.000Z</time>
      </trkpt>
      <trkpt lat="43.6896" lon="6.83106">
        <ele>727</ele>
        <time>2014-05-29T10:15:42.000Z</time>
      </trkpt>
      <trkpt lat="43.68964" lon="6.83113">
        <ele>726.6</ele>
        <time>2014-05-29T10:15:43.000Z</time>
      </trkpt>
      <trkpt lat="43.68967" lon="6.83122">
        <ele>726.8</ele>
        <time>2014-05-29T10:15:44.000Z</time>
      </trkpt>
      <trkpt lat="43.68968" lon="6.83132">
        <ele>726</ele>
        <time>2014-05-29T10:15:45.000Z</time>
      </trkpt>
      <trkpt lat="43.68971" lon="6.83141">
        <ele>725.8</ele>
        <time>2014-05-29T10:15:46.000Z</time>
      </trkpt>
      <trkpt lat="43.68973" lon="6.8315">
        <ele>725.9</ele>
        <time>2014-05-29T10:15:47.000Z</time>
      </trkpt>
      <trkpt lat="43.68975" lon="6.8316">
        <ele>726.2</ele>
        <time>2014-05-29T10:15:48.000Z</time>
      </trkpt>
      <trkpt lat="43.68976" lon="6.83169">
        <ele>725.9</ele>
        <time>2014-05-29T10:15:49.000Z</time>
      </trkpt>
      <trkpt lat="43.68978" lon="6.83178">
        <ele>725.3</ele>
        <time>2014-05-29T10:15:50.000Z</time>
      </trkpt>
      <trkpt lat="43.6898" lon="6.83186">
        <ele>726.4</ele>
        <time>2014-05-29T10:15:51.000Z</time>
      </trkpt>
      <trkpt lat="43.68982" lon="6.83196">
        <ele>726.9</ele>
        <time>2014-05-29T10:15:52.000Z</time>
      </trkpt>
      <trkpt lat="43.68983" lon="6.83205">
        <ele>728.1</ele>
        <time>2014-05-29T10:15:53.000Z</time>
      </trkpt>
      <trkpt lat="43.68985" lon="6.83214">
        <ele>728.8</ele>
        <time>2014-05-29T10:15:54.000Z</time>
      </trkpt>
      <trkpt lat="43.68987" lon="6.83224">
        <ele>729.2</ele>
        <time>2014-05-29T10:15:55.000Z</time>
      </trkpt>
      <trkpt lat="43.68988" lon="6.83234">
        <ele>729.4</ele>
        <time>2014-05-29T10:15:56.000Z</time>
      </trkpt>
      <trkpt lat="43.68989" lon="6.83244">
        <ele>729.7</ele>
        <time>2014-05-29T10:15:57.000Z</time>
      </trkpt>
      <trkpt lat="43.6899" lon="6.83255">
        <ele>729.2</ele>
        <time>2014-05-29T10:15:58.000Z</time>
      </trkpt>
      <trkpt lat="43.68991" lon="6.83264">
        <ele>729</ele>
        <time>2014-05-29T10:15:59.000Z</time>
      </trkpt>
      <trkpt lat="43.68992" lon="6.83274">
        <ele>729.5</ele>
        <time>2014-05-29T10:16:00.000Z</time>
      </trkpt>
      <trkpt lat="43.68992" lon="6.83283">
        <ele>729.3</ele>
        <time>2014-05-29T10:16:01.000Z</time>
      </trkpt>
      <trkpt lat="43.68993" lon="6.83292">
        <ele>729.2</ele>
        <time>2014-05-29T10:16:02.000Z</time>
      </trkpt>
      <trkpt lat="43.68995" lon="6.83301">
        <ele>729.9</ele>
        <time>2014-05-29T10:16:03.000Z</time>
      </trkpt>
      <trkpt lat="43.68997" lon="6.83309">
        <ele>730.1</ele>
        <time>2014-05-29T10:16:04.000Z</time>
      </trkpt>
      <trkpt lat="43.69" lon="6.83318">
        <ele>730.5</ele>
        <time>2014-05-29T10:16:05.000Z</time>
      </trkpt>
      <trkpt lat="43.69003" lon="6.83326">
        <ele>730.7</ele>
        <time>2014-05-29T10:16:06.000Z</time>
      </trkpt>
      <trkpt lat="43.69006" lon="6.83333">
        <ele>730.2</ele>
        <time>2014-05-29T10:16:07.000Z</time>
      </trkpt>
      <trkpt lat="43.6901" lon="6.83341">
        <ele>730.5</ele>
        <time>2014-05-29T10:16:08.000Z</time>
      </trkpt>
      <trkpt lat="43.69014" lon="6.83349">
        <ele>731.1</ele>
        <time>2014-05-29T10:16:09.000Z</time>
      </trkpt>
      <trkpt lat="43.69017" lon="6.83357">
        <ele>731.2</ele>
        <time>2014-05-29T10:16:10.000Z</time>
      </trkpt>
      <trkpt lat="43.6902" lon="6.83366">
        <ele>731.2</ele>
        <time>2014-05-29T10:16:11.000Z</time>
      </trkpt>
      <trkpt lat="43.69065" lon="6.83549">
        <ele>730.5</ele>
        <time>2014-05-29T10:16:33.000Z</time>
      </trkpt>
      <trkpt lat="43.69068" lon="6.83557">
        <ele>726.1</ele>
        <time>2014-05-29T10:16:34.000Z</time>
      </trkpt>
      <trkpt lat="43.69069" lon="6.83565">
        <ele>718.3</ele>
        <time>2014-05-29T10:16:35.000Z</time>
      </trkpt>
      <trkpt lat="43.69072" lon="6.83572">
        <ele>718.4</ele>
        <time>2014-05-29T10:16:36.000Z</time>
      </trkpt>
      <trkpt lat="43.69077" lon="6.83578">
        <ele>718</ele>
        <time>2014-05-29T10:16:37.000Z</time>
      </trkpt>
      <trkpt lat="43.69081" lon="6.83585">
        <ele>718.4</ele>
        <time>2014-05-29T10:16:38.000Z</time>
      </trkpt>
      <trkpt lat="43.69085" lon="6.83593">
        <ele>718.7</ele>
        <time>2014-05-29T10:16:39.000Z</time>
      </trkpt>
      <trkpt lat="43.69088" lon="6.83599">
        <ele>719.3</ele>
        <time>2014-05-29T10:16:40.000Z</time>
      </trkpt>
      <trkpt lat="43.69092" lon="6.83606">
        <ele>719.6</ele>
        <time>2014-05-29T10:16:41.000Z</time>
      </trkpt>
      <trkpt lat="43.69097" lon="6.83612">
        <ele>719.4</ele>
        <time>2014-05-29T10:16:42.000Z</time>
      </trkpt>
      <trkpt lat="43.69102" lon="6.83618">
        <ele>719.5</ele>
        <time>2014-05-29T10:16:43.000Z</time>
      </trkpt>
      <trkpt lat="43.69106" lon="6.83624">
        <ele>719.4</ele>
        <time>2014-05-29T10:16:44.000Z</time>
      </trkpt>
      <trkpt lat="43.6911" lon="6.8363">
        <ele>719.4</ele>
        <time>2014-05-29T10:16:45.000Z</time>
      </trkpt>
      <trkpt lat="43.69115" lon="6.83636">
        <ele>719.7</ele>
        <time>2014-05-29T10:16:46.000Z</time>
      </trkpt>
      <trkpt lat="43.6912" lon="6.83641">
        <ele>719.6</ele>
        <time>2014-05-29T10:16:47.000Z</time>
      </trkpt>
      <trkpt lat="43.69125" lon="6.83646">
        <ele>720.3</ele>
        <time>2014-05-29T10:16:48.000Z</time>
      </trkpt>
      <trkpt lat="43.6913" lon="6.83651">
        <ele>720</ele>
        <time>2014-05-29T10:16:49.000Z</time>
      </trkpt>
      <trkpt lat="43.69133" lon="6.83655">
        <ele>719.4</ele>
        <time>2014-05-29T10:16:50.000Z</time>
      </trkpt>
      <trkpt lat="43.69138" lon="6.8366">
        <ele>719.4</ele>
        <time>2014-05-29T10:16:51.000Z</time>
      </trkpt>
      <trkpt lat="43.69142" lon="6.83664">
        <ele>720.1</ele>
        <time>2014-05-29T10:16:52.000Z</time>
      </trkpt>
      <trkpt lat="43.69146" lon="6.83669">
        <ele>720.3</ele>
        <time>2014-05-29T10:16:53.000Z</time>
      </trkpt>
      <trkpt lat="43.6915" lon="6.83675">
        <ele>720.5</ele>
        <time>2014-05-29T10:16:54.000Z</time>
      </trkpt>
      <trkpt lat="43.69155" lon="6.8368">
        <ele>720.5</ele>
        <time>2014-05-29T10:16:55.000Z</time>
      </trkpt>
      <trkpt lat="43.69159" lon="6.83685">
        <ele>720.7</ele>
        <time>2014-05-29T10:16:56.000Z</time>
      </trkpt>
      <trkpt lat="43.69163" lon="6.8369">
        <ele>720.8</ele>
        <time>2014-05-29T10:16:57.000Z</time>
      </trkpt>
      <trkpt lat="43.69167" lon="6.83695">
        <ele>720.7</ele>
        <time>2014-05-29T10:16:58.000Z</time>
      </trkpt>
      <trkpt lat="43.69171" lon="6.837">
        <ele>721.2</ele>
        <time>2014-05-29T10:16:59.000Z</time>
      </trkpt>
      <trkpt lat="43.69175" lon="6.83705">
        <ele>721.3</ele>
        <time>2014-05-29T10:17:00.000Z</time>
      </trkpt>
      <trkpt lat="43.69179" lon="6.8371">
        <ele>721.5</ele>
        <time>2014-05-29T10:17:01.000Z</time>
      </trkpt>
      <trkpt lat="43.69183" lon="6.83715">
        <ele>721.7</ele>
        <time>2014-05-29T10:17:02.000Z</time>
      </trkpt>
      <trkpt lat="43.69186" lon="6.83719">
        <ele>721.4</ele>
        <time>2014-05-29T10:17:03.000Z</time>
      </trkpt>
      <trkpt lat="43.6919" lon="6.83725">
        <ele>721.2</ele>
        <time>2014-05-29T10:17:04.000Z</time>
      </trkpt>
      <trkpt lat="43.69194" lon="6.8373">
        <ele>721.1</ele>
        <time>2014-05-29T10:17:05.000Z</time>
      </trkpt>
      <trkpt lat="43.69197" lon="6.83735">
        <ele>721.3</ele>
        <time>2014-05-29T10:17:06.000Z</time>
      </trkpt>
      <trkpt lat="43.692" lon="6.8374">
        <ele>721.1</ele>
        <time>2014-05-29T10:17:07.000Z</time>
      </trkpt>
      <trkpt lat="43.69203" lon="6.83746">
        <ele>721.3</ele>
        <time>2014-05-29T10:17:08.000Z</time>
      </trkpt>
      <trkpt lat="43.69207" lon="6.83752">
        <ele>721.4</ele>
        <time>2014-05-29T10:17:09.000Z</time>
      </trkpt>
      <trkpt lat="43.69209" lon="6.83757">
        <ele>721.6</ele>
        <time>2014-05-29T10:17:10.000Z</time>
      </trkpt>
      <trkpt lat="43.69212" lon="6.83763">
        <ele>721.5</ele>
        <time>2014-05-29T10:17:11.000Z</time>
      </trkpt>
      <trkpt lat="43.69215" lon="6.83768">
        <ele>721.9</ele>
        <time>2014-05-29T10:17:12.000Z</time>
      </trkpt>
      <trkpt lat="43.69217" lon="6.83773">
        <ele>721.7</ele>
        <time>2014-05-29T10:17:13.000Z</time>
      </trkpt>
      <trkpt lat="43.6922" lon="6.83778">
        <ele>721.8</ele>
        <time>2014-05-29T10:17:14.000Z</time>
      </trkpt>
      <trkpt lat="43.69222" lon="6.83783">
        <ele>721.7</ele>
        <time>2014-05-29T10:17:15.000Z</time>
      </trkpt>
      <trkpt lat="43.69224" lon="6.83789">
        <ele>721.9</ele>
        <time>2014-05-29T10:17:16.000Z</time>
      </trkpt>
      <trkpt lat="43.69226" lon="6.83794">
        <ele>721.8</ele>
        <time>2014-05-29T10:17:17.000Z</time>
      </trkpt>
      <trkpt lat="43.69228" lon="6.838">
        <ele>721.7</ele>
        <time>2014-05-29T10:17:18.000Z</time>
      </trkpt>
      <trkpt lat="43.69231" lon="6.83804">
        <ele>721.6</ele>
        <time>2014-05-29T10:17:19.000Z</time>
      </trkpt>
      <trkpt lat="43.69233" lon="6.83809">
        <ele>722</ele>
        <time>2014-05-29T10:17:20.000Z</time>
      </trkpt>
      <trkpt lat="43.69235" lon="6.83815">
        <ele>722.2</ele>
        <time>2014-05-29T10:17:21.000Z</time>
      </trkpt>
      <trkpt lat="43.69237" lon="6.8382">
        <ele>722.3</ele>
        <time>2014-05-29T10:17:22.000Z</time>
      </trkpt>
      <trkpt lat="43.69239" lon="6.83825">
        <ele>722.1</ele>
        <time>2014-05-29T10:17:23.000Z</time>
      </trkpt>
      <trkpt lat="43.69241" lon="6.8383">
        <ele>722.1</ele>
        <time>2014-05-29T10:17:24.000Z</time>
      </trkpt>
      <trkpt lat="43.69244" lon="6.83835">
        <ele>723</ele>
        <time>2014-05-29T10:17:25.000Z</time>
      </trkpt>
      <trkpt lat="43.69246" lon="6.83839">
        <ele>723.9</ele>
        <time>2014-05-29T10:17:26.000Z</time>
      </trkpt>
      <trkpt lat="43.69249" lon="6.83845">
        <ele>724.2</ele>
        <time>2014-05-29T10:17:27.000Z</time>
      </trkpt>
      <trkpt lat="43.69251" lon="6.83849">
        <ele>724.6</ele>
        <time>2014-05-29T10:17:28.000Z</time>
      </trkpt>
      <trkpt lat="43.69253" lon="6.83854">
        <ele>724.8</ele>
        <time>2014-05-29T10:17:29.000Z</time>
      </trkpt>
      <trkpt lat="43.69255" lon="6.83859">
        <ele>724.6</ele>
        <time>2014-05-29T10:17:30.000Z</time>
      </trkpt>
      <trkpt lat="43.69257" lon="6.83866">
        <ele>724.8</ele>
        <time>2014-05-29T10:17:31.462Z</time>
      </trkpt>
      <trkpt lat="43.69258" lon="6.83869">
        <ele>724.8</ele>
        <time>2014-05-29T10:17:32.000Z</time>
      </trkpt>
      <trkpt lat="43.69262" lon="6.83879">
        <ele>725</ele>
        <time>2014-05-29T10:17:34.000Z</time>
      </trkpt>
      <trkpt lat="43.69265" lon="6.83885">
        <ele>724.1</ele>
        <time>2014-05-29T10:17:35.000Z</time>
      </trkpt>
      <trkpt lat="43.69266" lon="6.83891">
        <ele>724</ele>
        <time>2014-05-29T10:17:35.998Z</time>
      </trkpt>
      <trkpt lat="43.69267" lon="6.83894">
        <ele>724.1</ele>
        <time>2014-05-29T10:17:37.000Z</time>
      </trkpt>
      <trkpt lat="43.69269" lon="6.83899">
        <ele>724</ele>
        <time>2014-05-29T10:17:38.000Z</time>
      </trkpt>
      <trkpt lat="43.69271" lon="6.83903">
        <ele>724.7</ele>
        <time>2014-05-29T10:17:38.998Z</time>
      </trkpt>
      <trkpt lat="43.69273" lon="6.83906">
        <ele>724.6</ele>
        <time>2014-05-29T10:17:40.000Z</time>
      </trkpt>
      <trkpt lat="43.69275" lon="6.83911">
        <ele>725</ele>
        <time>2014-05-29T10:17:40.999Z</time>
      </trkpt>
      <trkpt lat="43.69276" lon="6.83917">
        <ele>724.7</ele>
        <time>2014-05-29T10:17:42.000Z</time>
      </trkpt>
      <trkpt lat="43.69278" lon="6.83922">
        <ele>724.8</ele>
        <time>2014-05-29T10:17:43.000Z</time>
      </trkpt>
      <trkpt lat="43.69278" lon="6.83927">
        <ele>724.8</ele>
        <time>2014-05-29T10:17:43.999Z</time>
      </trkpt>
      <trkpt lat="43.69279" lon="6.83931">
        <ele>724.6</ele>
        <time>2014-05-29T10:17:45.000Z</time>
      </trkpt>
      <trkpt lat="43.69281" lon="6.83937">
        <ele>724.3</ele>
        <time>2014-05-29T10:17:46.000Z</time>
      </trkpt>
      <trkpt lat="43.69281" lon="6.8394">
        <ele>724.3</ele>
        <time>2014-05-29T10:17:47.000Z</time>
      </trkpt>
      <trkpt lat="43.69283" lon="6.83944">
        <ele>723.6</ele>
        <time>2014-05-29T10:17:48.000Z</time>
      </trkpt>
      <trkpt lat="43.69285" lon="6.83948">
        <ele>723</ele>
        <time>2014-05-29T10:17:49.000Z</time>
      </trkpt>
      <trkpt lat="43.69286" lon="6.83953">
        <ele>722.8</ele>
        <time>2014-05-29T10:17:50.000Z</time>
      </trkpt>
      <trkpt lat="43.69286" lon="6.83958">
        <ele>722.9</ele>
        <time>2014-05-29T10:17:51.000Z</time>
      </trkpt>
      <trkpt lat="43.69287" lon="6.83962">
        <ele>722.9</ele>
        <time>2014-05-29T10:17:52.000Z</time>
      </trkpt>
      <trkpt lat="43.69287" lon="6.83967">
        <ele>723.5</ele>
        <time>2014-05-29T10:17:53.000Z</time>
      </trkpt>
      <trkpt lat="43.6929" lon="6.83971">
        <ele>724.7</ele>
        <time>2014-05-29T10:17:54.000Z</time>
      </trkpt>
      <trkpt lat="43.69292" lon="6.83976">
        <ele>726.1</ele>
        <time>2014-05-29T10:17:55.000Z</time>
      </trkpt>
      <trkpt lat="43.69294" lon="6.8398">
        <ele>727.5</ele>
        <time>2014-05-29T10:17:56.000Z</time>
      </trkpt>
      <trkpt lat="43.69296" lon="6.83983">
        <ele>728.1</ele>
        <time>2014-05-29T10:17:57.000Z</time>
      </trkpt>
      <trkpt lat="43.69297" lon="6.83987">
        <ele>728.1</ele>
        <time>2014-05-29T10:17:58.000Z</time>
      </trkpt>
      <trkpt lat="43.69298" lon="6.83991">
        <ele>727.9</ele>
        <time>2014-05-29T10:17:59.000Z</time>
      </trkpt>
      <trkpt lat="43.69299" lon="6.83997">
        <ele>727.4</ele>
        <time>2014-05-29T10:18:00.000Z</time>
      </trkpt>
      <trkpt lat="43.69301" lon="6.84002">
        <ele>727.2</ele>
        <time>2014-05-29T10:18:01.000Z</time>
      </trkpt>
      <trkpt lat="43.693" lon="6.84007">
        <ele>726.1</ele>
        <time>2014-05-29T10:18:02.000Z</time>
      </trkpt>
      <trkpt lat="43.69301" lon="6.84013">
        <ele>726.6</ele>
        <time>2014-05-29T10:18:03.000Z</time>
      </trkpt>
      <trkpt lat="43.69303" lon="6.84018">
        <ele>726.9</ele>
        <time>2014-05-29T10:18:04.000Z</time>
      </trkpt>
      <trkpt lat="43.69303" lon="6.84023">
        <ele>726</ele>
        <time>2014-05-29T10:18:05.000Z</time>
      </trkpt>
      <trkpt lat="43.69304" lon="6.84029">
        <ele>725.2</ele>
        <time>2014-05-29T10:18:06.000Z</time>
      </trkpt>
      <trkpt lat="43.69305" lon="6.84033">
        <ele>725.5</ele>
        <time>2014-05-29T10:18:07.000Z</time>
      </trkpt>
      <trkpt lat="43.69306" lon="6.84035">
        <ele>725.1</ele>
        <time>2014-05-29T10:18:08.000Z</time>
      </trkpt>
      <trkpt lat="43.69308" lon="6.84039">
        <ele>725.1</ele>
        <time>2014-05-29T10:18:09.000Z</time>
      </trkpt>
      <trkpt lat="43.69309" lon="6.84042">
        <ele>725.4</ele>
        <time>2014-05-29T10:18:10.000Z</time>
      </trkpt>
      <trkpt lat="43.69309" lon="6.84046">
        <ele>724.9</ele>
        <time>2014-05-29T10:18:11.000Z</time>
      </trkpt>
      <trkpt lat="43.69311" lon="6.8405">
        <ele>725.5</ele>
        <time>2014-05-29T10:18:12.000Z</time>
      </trkpt>
      <trkpt lat="43.69311" lon="6.84055">
        <ele>724.7</ele>
        <time>2014-05-29T10:18:13.000Z</time>
      </trkpt>
      <trkpt lat="43.69311" lon="6.8406">
        <ele>723.8</ele>
        <time>2014-05-29T10:18:13.998Z</time>
      </trkpt>
      <trkpt lat="43.69312" lon="6.84063">
        <ele>724.1</ele>
        <time>2014-05-29T10:18:15.000Z</time>
      </trkpt>
      <trkpt lat="43.69312" lon="6.84068">
        <ele>723.9</ele>
        <time>2014-05-29T10:18:16.000Z</time>
      </trkpt>
      <trkpt lat="43.69313" lon="6.84072">
        <ele>724.4</ele>
        <time>2014-05-29T10:18:17.000Z</time>
      </trkpt>
      <trkpt lat="43.69313" lon="6.84075">
        <ele>724.6</ele>
        <time>2014-05-29T10:18:18.000Z</time>
      </trkpt>
      <trkpt lat="43.69314" lon="6.84079">
        <ele>724.6</ele>
        <time>2014-05-29T10:18:19.000Z</time>
      </trkpt>
      <trkpt lat="43.69315" lon="6.84082">
        <ele>725</ele>
        <time>2014-05-29T10:18:20.000Z</time>
      </trkpt>
      <trkpt lat="43.69316" lon="6.84085">
        <ele>724.8</ele>
        <time>2014-05-29T10:18:21.000Z</time>
      </trkpt>
      <trkpt lat="43.69316" lon="6.8409">
        <ele>725.5</ele>
        <time>2014-05-29T10:18:22.000Z</time>
      </trkpt>
      <trkpt lat="43.69317" lon="6.84094">
        <ele>725.4</ele>
        <time>2014-05-29T10:18:23.000Z</time>
      </trkpt>
      <trkpt lat="43.69317" lon="6.841">
        <ele>727.3</ele>
        <time>2014-05-29T10:18:25.000Z</time>
      </trkpt>
      <trkpt lat="43.69319" lon="6.84103">
        <ele>726.5</ele>
        <time>2014-05-29T10:18:26.000Z</time>
      </trkpt>
      <trkpt lat="43.69318" lon="6.84106">
        <ele>726.4</ele>
        <time>2014-05-29T10:18:27.000Z</time>
      </trkpt>
      <trkpt lat="43.69317" lon="6.84112">
        <ele>727</ele>
        <time>2014-05-29T10:18:28.000Z</time>
      </trkpt>
      <trkpt lat="43.69319" lon="6.84113">
        <ele>728.6</ele>
        <time>2014-05-29T10:18:29.000Z</time>
      </trkpt>
      <trkpt lat="43.6932" lon="6.84117">
        <ele>730</ele>
        <time>2014-05-29T10:18:30.000Z</time>
      </trkpt>
      <trkpt lat="43.69322" lon="6.84122">
        <ele>731.3</ele>
        <time>2014-05-29T10:18:32.998Z</time>
      </trkpt>
      <trkpt lat="43.69322" lon="6.84124">
        <ele>732.6</ele>
        <time>2014-05-29T10:18:34.000Z</time>
      </trkpt>
      <trkpt lat="43.69321" lon="6.84129">
        <ele>732.5</ele>
        <time>2014-05-29T10:18:36.000Z</time>
      </trkpt>
      <trkpt lat="43.69321" lon="6.84132">
        <ele>732.9</ele>
        <time>2014-05-29T10:18:36.998Z</time>
      </trkpt>
      <trkpt lat="43.6932" lon="6.84137">
        <ele>733.3</ele>
        <time>2014-05-29T10:18:39.000Z</time>
      </trkpt>
      <trkpt lat="43.6932" lon="6.84139">
        <ele>733.7</ele>
        <time>2014-05-29T10:18:40.000Z</time>
      </trkpt>
      <trkpt lat="43.6932" lon="6.84145">
        <ele>734</ele>
        <time>2014-05-29T10:18:42.000Z</time>
      </trkpt>
      <trkpt lat="43.6932" lon="6.84145">
        <ele>733.5</ele>
        <time>2014-05-29T10:18:43.000Z</time>
      </trkpt>
      <trkpt lat="43.69319" lon="6.8415">
        <ele>733.5</ele>
        <time>2014-05-29T10:18:45.000Z</time>
      </trkpt>
      <trkpt lat="43.69317" lon="6.84151">
        <ele>734.2</ele>
        <time>2014-05-29T10:18:46.000Z</time>
      </trkpt>
      <trkpt lat="43.69315" lon="6.84156">
        <ele>732.5</ele>
        <time>2014-05-29T10:18:49.000Z</time>
      </trkpt>
      <trkpt lat="43.69313" lon="6.84158">
        <ele>730.9</ele>
        <time>2014-05-29T10:18:50.000Z</time>
      </trkpt>
      <trkpt lat="43.69311" lon="6.8416">
        <ele>730.6</ele>
        <time>2014-05-29T10:18:51.000Z</time>
      </trkpt>
      <trkpt lat="43.69309" lon="6.84162">
        <ele>730.4</ele>
        <time>2014-05-29T10:18:52.000Z</time>
      </trkpt>
      <trkpt lat="43.69305" lon="6.84163">
        <ele>731.5</ele>
        <time>2014-05-29T10:18:55.000Z</time>
      </trkpt>
      <trkpt lat="43.69304" lon="6.84163">
        <ele>732.3</ele>
        <time>2014-05-29T10:18:56.000Z</time>
      </trkpt>
      <trkpt lat="43.693" lon="6.84163">
        <ele>732</ele>
        <time>2014-05-29T10:18:59.000Z</time>
      </trkpt>
      <trkpt lat="43.69298" lon="6.84163">
        <ele>732.6</ele>
        <time>2014-05-29T10:19:00.000Z</time>
      </trkpt>
      <trkpt lat="43.69295" lon="6.84164">
        <ele>733.9</ele>
        <time>2014-05-29T10:19:03.000Z</time>
      </trkpt>
      <trkpt lat="43.69293" lon="6.84165">
        <ele>733.2</ele>
        <time>2014-05-29T10:19:04.000Z</time>
      </trkpt>
      <trkpt lat="43.6929" lon="6.84167">
        <ele>733.6</ele>
        <time>2014-05-29T10:19:07.000Z</time>
      </trkpt>
      <trkpt lat="43.69289" lon="6.84167">
        <ele>734.6</ele>
        <time>2014-05-29T10:19:08.000Z</time>
      </trkpt>
      <trkpt lat="43.69286" lon="6.8417">
        <ele>735.5</ele>
        <time>2014-05-29T10:19:11.000Z</time>
      </trkpt>
      <trkpt lat="43.69284" lon="6.8417">
        <ele>735.4</ele>
        <time>2014-05-29T10:19:12.000Z</time>
      </trkpt>
      <trkpt lat="43.6928" lon="6.84171">
        <ele>734.8</ele>
        <time>2014-05-29T10:19:15.000Z</time>
      </trkpt>
      <trkpt lat="43.69279" lon="6.84171">
        <ele>735.1</ele>
        <time>2014-05-29T10:19:16.000Z</time>
      </trkpt>
      <trkpt lat="43.69275" lon="6.84172">
        <ele>735.1</ele>
        <time>2014-05-29T10:19:20.000Z</time>
      </trkpt>
      <trkpt lat="43.69274" lon="6.84173">
        <ele>735.4</ele>
        <time>2014-05-29T10:19:21.000Z</time>
      </trkpt>
      <trkpt lat="43.6927" lon="6.84173">
        <ele>736.5</ele>
        <time>2014-05-29T10:19:25.000Z</time>
      </trkpt>
      <trkpt lat="43.69269" lon="6.84174">
        <ele>737.6</ele>
        <time>2014-05-29T10:19:26.000Z</time>
      </trkpt>
      <trkpt lat="43.69265" lon="6.84175">
        <ele>742</ele>
        <time>2014-05-29T10:19:31.453Z</time>
      </trkpt>
      <trkpt lat="43.69265" lon="6.84176">
        <ele>742.5</ele>
        <time>2014-05-29T10:19:32.000Z</time>
      </trkpt>
      <trkpt lat="43.69253" lon="6.84181">
        <ele>737.6</ele>
        <time>2014-05-29T10:19:37.008Z</time>
      </trkpt>
      <trkpt lat="43.6925" lon="6.84178">
        <ele>740</ele>
        <time>2014-05-29T10:19:42.000Z</time>
      </trkpt>
      <trkpt lat="43.69248" lon="6.84177">
        <ele>741.6</ele>
        <time>2014-05-29T10:19:43.000Z</time>
      </trkpt>
      <trkpt lat="43.69245" lon="6.84176">
        <ele>741.6</ele>
        <time>2014-05-29T10:19:44.000Z</time>
      </trkpt>
      <trkpt lat="43.69243" lon="6.84175">
        <ele>741.6</ele>
        <time>2014-05-29T10:19:45.000Z</time>
      </trkpt>
      <trkpt lat="43.69239" lon="6.84177">
        <ele>739.1</ele>
        <time>2014-05-29T10:19:48.000Z</time>
      </trkpt>
      <trkpt lat="43.69237" lon="6.84177">
        <ele>738.5</ele>
        <time>2014-05-29T10:19:49.000Z</time>
      </trkpt>
      <trkpt lat="43.69232" lon="6.84178">
        <ele>738.3</ele>
        <time>2014-05-29T10:19:53.000Z</time>
      </trkpt>
      <trkpt lat="43.69231" lon="6.84179">
        <ele>739.1</ele>
        <time>2014-05-29T10:19:54.000Z</time>
      </trkpt>
      <trkpt lat="43.69228" lon="6.8418">
        <ele>739.5</ele>
        <time>2014-05-29T10:19:56.000Z</time>
      </trkpt>
      <trkpt lat="43.69227" lon="6.8418">
        <ele>738.9</ele>
        <time>2014-05-29T10:19:57.000Z</time>
      </trkpt>
      <trkpt lat="43.69224" lon="6.84181">
        <ele>739.1</ele>
        <time>2014-05-29T10:19:59.000Z</time>
      </trkpt>
      <trkpt lat="43.69222" lon="6.84181">
        <ele>739.4</ele>
        <time>2014-05-29T10:20:00.000Z</time>
      </trkpt>
      <trkpt lat="43.69218" lon="6.84182">
        <ele>740.7</ele>
        <time>2014-05-29T10:20:03.000Z</time>
      </trkpt>
      <trkpt lat="43.69218" lon="6.84183">
        <ele>741</ele>
        <time>2014-05-29T10:20:04.000Z</time>
      </trkpt>
      <trkpt lat="43.69214" lon="6.84185">
        <ele>741</ele>
        <time>2014-05-29T10:20:07.000Z</time>
      </trkpt>
      <trkpt lat="43.69213" lon="6.84185">
        <ele>741.4</ele>
        <time>2014-05-29T10:20:08.000Z</time>
      </trkpt>
      <trkpt lat="43.69209" lon="6.84189">
        <ele>743</ele>
        <time>2014-05-29T10:20:12.000Z</time>
      </trkpt>
      <trkpt lat="43.69208" lon="6.84189">
        <ele>742.9</ele>
        <time>2014-05-29T10:20:13.000Z</time>
      </trkpt>
      <trkpt lat="43.69205" lon="6.84191">
        <ele>743.2</ele>
        <time>2014-05-29T10:20:16.000Z</time>
      </trkpt>
      <trkpt lat="43.69203" lon="6.84191">
        <ele>742.8</ele>
        <time>2014-05-29T10:20:17.000Z</time>
      </trkpt>
      <trkpt lat="43.69199" lon="6.84194">
        <ele>743.3</ele>
        <time>2014-05-29T10:20:20.000Z</time>
      </trkpt>
      <trkpt lat="43.69197" lon="6.84194">
        <ele>743.3</ele>
        <time>2014-05-29T10:20:21.000Z</time>
      </trkpt>
      <trkpt lat="43.69194" lon="6.84197">
        <ele>743.9</ele>
        <time>2014-05-29T10:20:24.000Z</time>
      </trkpt>
      <trkpt lat="43.69193" lon="6.84198">
        <ele>744.4</ele>
        <time>2014-05-29T10:20:25.000Z</time>
      </trkpt>
      <trkpt lat="43.6919" lon="6.84201">
        <ele>745.1</ele>
        <time>2014-05-29T10:20:28.000Z</time>
      </trkpt>
      <trkpt lat="43.69189" lon="6.84202">
        <ele>745.4</ele>
        <time>2014-05-29T10:20:29.000Z</time>
      </trkpt>
      <trkpt lat="43.69185" lon="6.84204">
        <ele>746</ele>
        <time>2014-05-29T10:20:32.000Z</time>
      </trkpt>
      <trkpt lat="43.69184" lon="6.84205">
        <ele>745.8</ele>
        <time>2014-05-29T10:20:33.000Z</time>
      </trkpt>
      <trkpt lat="43.69181" lon="6.84206">
        <ele>745</ele>
        <time>2014-05-29T10:20:35.000Z</time>
      </trkpt>
      <trkpt lat="43.6918" lon="6.84207">
        <ele>744.4</ele>
        <time>2014-05-29T10:20:36.000Z</time>
      </trkpt>
      <trkpt lat="43.69177" lon="6.84208">
        <ele>744.4</ele>
        <time>2014-05-29T10:20:38.000Z</time>
      </trkpt>
      <trkpt lat="43.69175" lon="6.84208">
        <ele>744.5</ele>
        <time>2014-05-29T10:20:39.000Z</time>
      </trkpt>
      <trkpt lat="43.69171" lon="6.84212">
        <ele>745.8</ele>
        <time>2014-05-29T10:20:43.000Z</time>
      </trkpt>
      <trkpt lat="43.6917" lon="6.84212">
        <ele>745.6</ele>
        <time>2014-05-29T10:20:44.000Z</time>
      </trkpt>
      <trkpt lat="43.69167" lon="6.84214">
        <ele>746.3</ele>
        <time>2014-05-29T10:20:47.000Z</time>
      </trkpt>
      <trkpt lat="43.69166" lon="6.84215">
        <ele>746.4</ele>
        <time>2014-05-29T10:20:48.000Z</time>
      </trkpt>
      <trkpt lat="43.69163" lon="6.84217">
        <ele>746.8</ele>
        <time>2014-05-29T10:20:50.000Z</time>
      </trkpt>
      <trkpt lat="43.69162" lon="6.84219">
        <ele>746.9</ele>
        <time>2014-05-29T10:20:51.000Z</time>
      </trkpt>
      <trkpt lat="43.69158" lon="6.84222">
        <ele>748.3</ele>
        <time>2014-05-29T10:20:54.000Z</time>
      </trkpt>
      <trkpt lat="43.69157" lon="6.84223">
        <ele>748.4</ele>
        <time>2014-05-29T10:20:55.000Z</time>
      </trkpt>
      <trkpt lat="43.69154" lon="6.84226">
        <ele>749</ele>
        <time>2014-05-29T10:20:58.000Z</time>
      </trkpt>
      <trkpt lat="43.69153" lon="6.84227">
        <ele>748.8</ele>
        <time>2014-05-29T10:20:59.000Z</time>
      </trkpt>
      <trkpt lat="43.6915" lon="6.84228">
        <ele>748.3</ele>
        <time>2014-05-29T10:21:01.000Z</time>
      </trkpt>
      <trkpt lat="43.69149" lon="6.84228">
        <ele>748.5</ele>
        <time>2014-05-29T10:21:02.000Z</time>
      </trkpt>
      <trkpt lat="43.69146" lon="6.8423">
        <ele>748.9</ele>
        <time>2014-05-29T10:21:04.000Z</time>
      </trkpt>
      <trkpt lat="43.69144" lon="6.84231">
        <ele>748.8</ele>
        <time>2014-05-29T10:21:04.999Z</time>
      </trkpt>
      <trkpt lat="43.6914" lon="6.84232">
        <ele>749.9</ele>
        <time>2014-05-29T10:21:08.000Z</time>
      </trkpt>
      <trkpt lat="43.69139" lon="6.84232">
        <ele>750</ele>
        <time>2014-05-29T10:21:09.000Z</time>
      </trkpt>
      <trkpt lat="43.69135" lon="6.84232">
        <ele>749.8</ele>
        <time>2014-05-29T10:21:11.000Z</time>
      </trkpt>
      <trkpt lat="43.69092" lon="6.84236">
        <ele>747.4</ele>
        <time>2014-05-29T10:21:42.000Z</time>
      </trkpt>
      <trkpt lat="43.69089" lon="6.84235">
        <ele>745</ele>
        <time>2014-05-29T10:21:43.000Z</time>
      </trkpt>
      <trkpt lat="43.69086" lon="6.84236">
        <ele>743.4</ele>
        <time>2014-05-29T10:21:44.000Z</time>
      </trkpt>
      <trkpt lat="43.69083" lon="6.84236">
        <ele>745.3</ele>
        <time>2014-05-29T10:21:46.000Z</time>
      </trkpt>
      <trkpt lat="43.69081" lon="6.84235">
        <ele>744.8</ele>
        <time>2014-05-29T10:21:47.000Z</time>
      </trkpt>
      <trkpt lat="43.69077" lon="6.84236">
        <ele>745.2</ele>
        <time>2014-05-29T10:21:49.000Z</time>
      </trkpt>
      <trkpt lat="43.69074" lon="6.84236">
        <ele>744.5</ele>
        <time>2014-05-29T10:21:50.000Z</time>
      </trkpt>
      <trkpt lat="43.69071" lon="6.84238">
        <ele>745.4</ele>
        <time>2014-05-29T10:21:52.000Z</time>
      </trkpt>
      <trkpt lat="43.69068" lon="6.84239">
        <ele>745.7</ele>
        <time>2014-05-29T10:21:53.000Z</time>
      </trkpt>
      <trkpt lat="43.69064" lon="6.84239">
        <ele>744.8</ele>
        <time>2014-05-29T10:21:53.999Z</time>
      </trkpt>
      <trkpt lat="43.69062" lon="6.8424">
        <ele>744.9</ele>
        <time>2014-05-29T10:21:55.000Z</time>
      </trkpt>
      <trkpt lat="43.69059" lon="6.84242">
        <ele>745.3</ele>
        <time>2014-05-29T10:21:56.000Z</time>
      </trkpt>
      <trkpt lat="43.69058" lon="6.84247">
        <ele>745.6</ele>
        <time>2014-05-29T10:21:57.000Z</time>
      </trkpt>
      <trkpt lat="43.69056" lon="6.84249">
        <ele>746</ele>
        <time>2014-05-29T10:21:58.000Z</time>
      </trkpt>
      <trkpt lat="43.69055" lon="6.84252">
        <ele>745.6</ele>
        <time>2014-05-29T10:21:58.999Z</time>
      </trkpt>
      <trkpt lat="43.69053" lon="6.84256">
        <ele>745.9</ele>
        <time>2014-05-29T10:22:00.000Z</time>
      </trkpt>
      <trkpt lat="43.69051" lon="6.84259">
        <ele>745.7</ele>
        <time>2014-05-29T10:22:01.000Z</time>
      </trkpt>
      <trkpt lat="43.6905" lon="6.84264">
        <ele>745.3</ele>
        <time>2014-05-29T10:22:02.000Z</time>
      </trkpt>
      <trkpt lat="43.69049" lon="6.84268">
        <ele>745.4</ele>
        <time>2014-05-29T10:22:03.000Z</time>
      </trkpt>
      <trkpt lat="43.69049" lon="6.84272">
        <ele>746</ele>
        <time>2014-05-29T10:22:04.000Z</time>
      </trkpt>
      <trkpt lat="43.69048" lon="6.84276">
        <ele>746.1</ele>
        <time>2014-05-29T10:22:05.000Z</time>
      </trkpt>
      <trkpt lat="43.69048" lon="6.8428">
        <ele>745.7</ele>
        <time>2014-05-29T10:22:06.000Z</time>
      </trkpt>
      <trkpt lat="43.69049" lon="6.84283">
        <ele>745.7</ele>
        <time>2014-05-29T10:22:07.000Z</time>
      </trkpt>
      <trkpt lat="43.69049" lon="6.84287">
        <ele>745.9</ele>
        <time>2014-05-29T10:22:08.000Z</time>
      </trkpt>
      <trkpt lat="43.69048" lon="6.8429">
        <ele>745.4</ele>
        <time>2014-05-29T10:22:09.000Z</time>
      </trkpt>
      <trkpt lat="43.69048" lon="6.84294">
        <ele>744.9</ele>
        <time>2014-05-29T10:22:10.000Z</time>
      </trkpt>
      <trkpt lat="43.69047" lon="6.84296">
        <ele>744.5</ele>
        <time>2014-05-29T10:22:11.000Z</time>
      </trkpt>
      <trkpt lat="43.69047" lon="6.84301">
        <ele>744.9</ele>
        <time>2014-05-29T10:22:13.000Z</time>
      </trkpt>
      <trkpt lat="43.69047" lon="6.84303">
        <ele>744.6</ele>
        <time>2014-05-29T10:22:14.000Z</time>
      </trkpt>
      <trkpt lat="43.69046" lon="6.84308">
        <ele>744.4</ele>
        <time>2014-05-29T10:22:16.000Z</time>
      </trkpt>
      <trkpt lat="43.69045" lon="6.84311">
        <ele>744.3</ele>
        <time>2014-05-29T10:22:17.000Z</time>
      </trkpt>
      <trkpt lat="43.69045" lon="6.84314">
        <ele>744.2</ele>
        <time>2014-05-29T10:22:18.000Z</time>
      </trkpt>
      <trkpt lat="43.69045" lon="6.84317">
        <ele>744.7</ele>
        <time>2014-05-29T10:22:19.000Z</time>
      </trkpt>
      <trkpt lat="43.69043" lon="6.84321">
        <ele>744.5</ele>
        <time>2014-05-29T10:22:20.000Z</time>
      </trkpt>
      <trkpt lat="43.69041" lon="6.84323">
        <ele>744.4</ele>
        <time>2014-05-29T10:22:21.000Z</time>
      </trkpt>
      <trkpt lat="43.69038" lon="6.84325">
        <ele>744.8</ele>
        <time>2014-05-29T10:22:23.000Z</time>
      </trkpt>
      <trkpt lat="43.69036" lon="6.84326">
        <ele>744.5</ele>
        <time>2014-05-29T10:22:24.000Z</time>
      </trkpt>
      <trkpt lat="43.69034" lon="6.84325">
        <ele>744</ele>
        <time>2014-05-29T10:22:25.000Z</time>
      </trkpt>
      <trkpt lat="43.69031" lon="6.84325">
        <ele>744.4</ele>
        <time>2014-05-29T10:22:26.000Z</time>
      </trkpt>
      <trkpt lat="43.69028" lon="6.84323">
        <ele>744.2</ele>
        <time>2014-05-29T10:22:27.000Z</time>
      </trkpt>
      <trkpt lat="43.69025" lon="6.84322">
        <ele>744</ele>
        <time>2014-05-29T10:22:28.000Z</time>
      </trkpt>
      <trkpt lat="43.6902" lon="6.84321">
        <ele>743.6</ele>
        <time>2014-05-29T10:22:29.000Z</time>
      </trkpt>
      <trkpt lat="43.69016" lon="6.8432">
        <ele>743</ele>
        <time>2014-05-29T10:22:30.000Z</time>
      </trkpt>
      <trkpt lat="43.69009" lon="6.84318">
        <ele>742.5</ele>
        <time>2014-05-29T10:22:31.461Z</time>
      </trkpt>
      <trkpt lat="43.69006" lon="6.84317">
        <ele>742.4</ele>
        <time>2014-05-29T10:22:32.000Z</time>
      </trkpt>
      <trkpt lat="43.68997" lon="6.84312">
        <ele>742.2</ele>
        <time>2014-05-29T10:22:34.000Z</time>
      </trkpt>
      <trkpt lat="43.68989" lon="6.8431">
        <ele>740.7</ele>
        <time>2014-05-29T10:22:35.000Z</time>
      </trkpt>
      <trkpt lat="43.68982" lon="6.84309">
        <ele>740.1</ele>
        <time>2014-05-29T10:22:36.000Z</time>
      </trkpt>
      <trkpt lat="43.68976" lon="6.84307">
        <ele>740.6</ele>
        <time>2014-05-29T10:22:37.000Z</time>
      </trkpt>
      <trkpt lat="43.6897" lon="6.84304">
        <ele>741</ele>
        <time>2014-05-29T10:22:38.000Z</time>
      </trkpt>
      <trkpt lat="43.68963" lon="6.84301">
        <ele>741.5</ele>
        <time>2014-05-29T10:22:39.000Z</time>
      </trkpt>
      <trkpt lat="43.68958" lon="6.84298">
        <ele>740.7</ele>
        <time>2014-05-29T10:22:40.000Z</time>
      </trkpt>
      <trkpt lat="43.68951" lon="6.84295">
        <ele>741.2</ele>
        <time>2014-05-29T10:22:41.000Z</time>
      </trkpt>
      <trkpt lat="43.68945" lon="6.84291">
        <ele>741.1</ele>
        <time>2014-05-29T10:22:42.000Z</time>
      </trkpt>
      <trkpt lat="43.6894" lon="6.84287">
        <ele>741.9</ele>
        <time>2014-05-29T10:22:43.000Z</time>
      </trkpt>
      <trkpt lat="43.68935" lon="6.84282">
        <ele>741.7</ele>
        <time>2014-05-29T10:22:44.000Z</time>
      </trkpt>
      <trkpt lat="43.68931" lon="6.84279">
        <ele>742</ele>
        <time>2014-05-29T10:22:45.000Z</time>
      </trkpt>
      <trkpt lat="43.68928" lon="6.84276">
        <ele>742.4</ele>
        <time>2014-05-29T10:22:46.000Z</time>
      </trkpt>
      <trkpt lat="43.68925" lon="6.84271">
        <ele>742.4</ele>
        <time>2014-05-29T10:22:47.000Z</time>
      </trkpt>
      <trkpt lat="43.68921" lon="6.84267">
        <ele>743.2</ele>
        <time>2014-05-29T10:22:48.000Z</time>
      </trkpt>
      <trkpt lat="43.68919" lon="6.84264">
        <ele>743</ele>
        <time>2014-05-29T10:22:49.000Z</time>
      </trkpt>
      <trkpt lat="43.68916" lon="6.84261">
        <ele>743.2</ele>
        <time>2014-05-29T10:22:50.000Z</time>
      </trkpt>
      <trkpt lat="43.68913" lon="6.8426">
        <ele>743</ele>
        <time>2014-05-29T10:22:51.000Z</time>
      </trkpt>
      <trkpt lat="43.68909" lon="6.84257">
        <ele>742.7</ele>
        <time>2014-05-29T10:22:52.000Z</time>
      </trkpt>
      <trkpt lat="43.68903" lon="6.84255">
        <ele>741.5</ele>
        <time>2014-05-29T10:22:53.000Z</time>
      </trkpt>
      <trkpt lat="43.689" lon="6.84254">
        <ele>740.6</ele>
        <time>2014-05-29T10:22:54.000Z</time>
      </trkpt>
      <trkpt lat="43.68895" lon="6.8425">
        <ele>739.2</ele>
        <time>2014-05-29T10:22:55.000Z</time>
      </trkpt>
      <trkpt lat="43.68889" lon="6.84248">
        <ele>737.7</ele>
        <time>2014-05-29T10:22:56.000Z</time>
      </trkpt>
      <trkpt lat="43.68884" lon="6.84245">
        <ele>736.8</ele>
        <time>2014-05-29T10:22:57.000Z</time>
      </trkpt>
      <trkpt lat="43.68879" lon="6.84241">
        <ele>736.8</ele>
        <time>2014-05-29T10:22:58.000Z</time>
      </trkpt>
      <trkpt lat="43.68874" lon="6.84239">
        <ele>736.7</ele>
        <time>2014-05-29T10:22:59.000Z</time>
      </trkpt>
      <trkpt lat="43.6887" lon="6.84236">
        <ele>737.4</ele>
        <time>2014-05-29T10:23:01.000Z</time>
      </trkpt>
      <trkpt lat="43.68867" lon="6.84236">
        <ele>737.4</ele>
        <time>2014-05-29T10:23:02.000Z</time>
      </trkpt>
      <trkpt lat="43.68865" lon="6.84234">
        <ele>736.4</ele>
        <time>2014-05-29T10:23:03.000Z</time>
      </trkpt>
      <trkpt lat="43.68862" lon="6.84234">
        <ele>736.2</ele>
        <time>2014-05-29T10:23:04.000Z</time>
      </trkpt>
      <trkpt lat="43.68858" lon="6.84235">
        <ele>739.1</ele>
        <time>2014-05-29T10:23:08.000Z</time>
      </trkpt>
      <trkpt lat="43.68857" lon="6.84235">
        <ele>739.1</ele>
        <time>2014-05-29T10:23:08.999Z</time>
      </trkpt>
      <trkpt lat="43.68854" lon="6.84236">
        <ele>738.9</ele>
        <time>2014-05-29T10:23:13.000Z</time>
      </trkpt>
      <trkpt lat="43.68851" lon="6.84236">
        <ele>738.8</ele>
        <time>2014-05-29T10:23:13.999Z</time>
      </trkpt>
      <trkpt lat="43.68849" lon="6.84236">
        <ele>738.6</ele>
        <time>2014-05-29T10:23:15.000Z</time>
      </trkpt>
      <trkpt lat="43.68847" lon="6.84236">
        <ele>738.3</ele>
        <time>2014-05-29T10:23:15.999Z</time>
      </trkpt>
      <trkpt lat="43.68844" lon="6.84236">
        <ele>738.2</ele>
        <time>2014-05-29T10:23:17.000Z</time>
      </trkpt>
      <trkpt lat="43.68841" lon="6.84236">
        <ele>737.4</ele>
        <time>2014-05-29T10:23:18.000Z</time>
      </trkpt>
      <trkpt lat="43.68838" lon="6.84236">
        <ele>737.3</ele>
        <time>2014-05-29T10:23:19.000Z</time>
      </trkpt>
      <trkpt lat="43.68835" lon="6.84236">
        <ele>737.5</ele>
        <time>2014-05-29T10:23:19.998Z</time>
      </trkpt>
      <trkpt lat="43.68832" lon="6.84236">
        <ele>736.8</ele>
        <time>2014-05-29T10:23:21.000Z</time>
      </trkpt>
      <trkpt lat="43.68829" lon="6.84237">
        <ele>736</ele>
        <time>2014-05-29T10:23:22.000Z</time>
      </trkpt>
      <trkpt lat="43.68825" lon="6.84238">
        <ele>735</ele>
        <time>2014-05-29T10:23:23.000Z</time>
      </trkpt>
      <trkpt lat="43.68821" lon="6.84238">
        <ele>734.3</ele>
        <time>2014-05-29T10:23:24.000Z</time>
      </trkpt>
      <trkpt lat="43.68817" lon="6.84238">
        <ele>734</ele>
        <time>2014-05-29T10:23:25.000Z</time>
      </trkpt>
      <trkpt lat="43.68812" lon="6.84239">
        <ele>732.9</ele>
        <time>2014-05-29T10:23:26.000Z</time>
      </trkpt>
      <trkpt lat="43.68808" lon="6.84239">
        <ele>732.2</ele>
        <time>2014-05-29T10:23:27.000Z</time>
      </trkpt>
      <trkpt lat="43.68802" lon="6.84239">
        <ele>731.4</ele>
        <time>2014-05-29T10:23:28.000Z</time>
      </trkpt>
      <trkpt lat="43.68797" lon="6.8424">
        <ele>731</ele>
        <time>2014-05-29T10:23:29.000Z</time>
      </trkpt>
      <trkpt lat="43.68792" lon="6.8424">
        <ele>730.7</ele>
        <time>2014-05-29T10:23:30.000Z</time>
      </trkpt>
      <trkpt lat="43.68785" lon="6.84241">
        <ele>730.7</ele>
        <time>2014-05-29T10:23:31.491Z</time>
      </trkpt>
      <trkpt lat="43.68779" lon="6.84243">
        <ele>731.7</ele>
        <time>2014-05-29T10:23:33.000Z</time>
      </trkpt>
      <trkpt lat="43.68775" lon="6.84244">
        <ele>731.7</ele>
        <time>2014-05-29T10:23:34.000Z</time>
      </trkpt>
      <trkpt lat="43.68772" lon="6.84245">
        <ele>730.8</ele>
        <time>2014-05-29T10:23:35.000Z</time>
      </trkpt>
      <trkpt lat="43.68768" lon="6.84246">
        <ele>730.4</ele>
        <time>2014-05-29T10:23:36.000Z</time>
      </trkpt>
      <trkpt lat="43.68764" lon="6.84247">
        <ele>730.8</ele>
        <time>2014-05-29T10:23:37.000Z</time>
      </trkpt>
      <trkpt lat="43.6876" lon="6.84247">
        <ele>730.6</ele>
        <time>2014-05-29T10:23:38.000Z</time>
      </trkpt>
      <trkpt lat="43.68759" lon="6.84249">
        <ele>735.5</ele>
        <time>2014-05-29T10:23:39.000Z</time>
      </trkpt>
      <trkpt lat="43.68756" lon="6.84251">
        <ele>737.1</ele>
        <time>2014-05-29T10:23:40.000Z</time>
      </trkpt>
      <trkpt lat="43.68753" lon="6.84253">
        <ele>737.6</ele>
        <time>2014-05-29T10:23:41.000Z</time>
      </trkpt>
      <trkpt lat="43.6875" lon="6.84254">
        <ele>738.9</ele>
        <time>2014-05-29T10:23:42.000Z</time>
      </trkpt>
      <trkpt lat="43.68747" lon="6.84256">
        <ele>738.7</ele>
        <time>2014-05-29T10:23:43.000Z</time>
      </trkpt>
      <trkpt lat="43.68743" lon="6.84256">
        <ele>737.9</ele>
        <time>2014-05-29T10:23:44.000Z</time>
      </trkpt>
      <trkpt lat="43.68739" lon="6.84256">
        <ele>737.4</ele>
        <time>2014-05-29T10:23:45.000Z</time>
      </trkpt>
      <trkpt lat="43.68735" lon="6.84256">
        <ele>736.6</ele>
        <time>2014-05-29T10:23:46.000Z</time>
      </trkpt>
      <trkpt lat="43.68731" lon="6.84256">
        <ele>735.5</ele>
        <time>2014-05-29T10:23:47.000Z</time>
      </trkpt>
      <trkpt lat="43.68726" lon="6.84256">
        <ele>734.2</ele>
        <time>2014-05-29T10:23:48.000Z</time>
      </trkpt>
      <trkpt lat="43.68721" lon="6.84256">
        <ele>734</ele>
        <time>2014-05-29T10:23:49.000Z</time>
      </trkpt>
      <trkpt lat="43.68717" lon="6.84256">
        <ele>734.8</ele>
        <time>2014-05-29T10:23:50.000Z</time>
      </trkpt>
      <trkpt lat="43.68713" lon="6.84256">
        <ele>734.8</ele>
        <time>2014-05-29T10:23:51.000Z</time>
      </trkpt>
      <trkpt lat="43.6871" lon="6.84256">
        <ele>735.8</ele>
        <time>2014-05-29T10:23:52.000Z</time>
      </trkpt>
      <trkpt lat="43.68705" lon="6.84257">
        <ele>735.3</ele>
        <time>2014-05-29T10:23:53.000Z</time>
      </trkpt>
      <trkpt lat="43.68701" lon="6.84258">
        <ele>735.6</ele>
        <time>2014-05-29T10:23:54.000Z</time>
      </trkpt>
      <trkpt lat="43.68697" lon="6.84259">
        <ele>735.8</ele>
        <time>2014-05-29T10:23:55.000Z</time>
      </trkpt>
      <trkpt lat="43.68691" lon="6.84259">
        <ele>735.2</ele>
        <time>2014-05-29T10:23:55.998Z</time>
      </trkpt>
      <trkpt lat="43.68686" lon="6.84258">
        <ele>735</ele>
        <time>2014-05-29T10:23:57.000Z</time>
      </trkpt>
      <trkpt lat="43.68681" lon="6.8426">
        <ele>735.4</ele>
        <time>2014-05-29T10:23:58.000Z</time>
      </trkpt>
      <trkpt lat="43.68677" lon="6.84259">
        <ele>734.3</ele>
        <time>2014-05-29T10:23:59.000Z</time>
      </trkpt>
      <trkpt lat="43.68673" lon="6.84261">
        <ele>732.9</ele>
        <time>2014-05-29T10:24:00.000Z</time>
      </trkpt>
      <trkpt lat="43.6867" lon="6.84262">
        <ele>732.6</ele>
        <time>2014-05-29T10:24:01.000Z</time>
      </trkpt>
      <trkpt lat="43.68665" lon="6.84261">
        <ele>731.9</ele>
        <time>2014-05-29T10:24:02.000Z</time>
      </trkpt>
      <trkpt lat="43.6866" lon="6.84261">
        <ele>732.2</ele>
        <time>2014-05-29T10:24:03.000Z</time>
      </trkpt>
      <trkpt lat="43.68656" lon="6.84261">
        <ele>732.6</ele>
        <time>2014-05-29T10:24:04.000Z</time>
      </trkpt>
      <trkpt lat="43.68652" lon="6.8426">
        <ele>731.7</ele>
        <time>2014-05-29T10:24:05.000Z</time>
      </trkpt>
      <trkpt lat="43.68648" lon="6.84259">
        <ele>731.8</ele>
        <time>2014-05-29T10:24:06.000Z</time>
      </trkpt>
      <trkpt lat="43.68646" lon="6.84259">
        <ele>731.4</ele>
        <time>2014-05-29T10:24:07.000Z</time>
      </trkpt>
      <trkpt lat="43.68642" lon="6.84257">
        <ele>731.7</ele>
        <time>2014-05-29T10:24:08.000Z</time>
      </trkpt>
      <trkpt lat="43.68638" lon="6.84256">
        <ele>731.2</ele>
        <time>2014-05-29T10:24:09.000Z</time>
      </trkpt>
      <trkpt lat="43.68635" lon="6.84256">
        <ele>732.5</ele>
        <time>2014-05-29T10:24:10.000Z</time>
      </trkpt>
      <trkpt lat="43.68632" lon="6.84254">
        <ele>733.2</ele>
        <time>2014-05-29T10:24:11.000Z</time>
      </trkpt>
      <trkpt lat="43.68629" lon="6.84254">
        <ele>734.1</ele>
        <time>2014-05-29T10:24:12.000Z</time>
      </trkpt>
      <trkpt lat="43.68625" lon="6.84253">
        <ele>732.9</ele>
        <time>2014-05-29T10:24:13.000Z</time>
      </trkpt>
      <trkpt lat="43.68621" lon="6.84253">
        <ele>731.4</ele>
        <time>2014-05-29T10:24:14.000Z</time>
      </trkpt>
      <trkpt lat="43.68619" lon="6.84252">
        <ele>731.7</ele>
        <time>2014-05-29T10:24:15.000Z</time>
      </trkpt>
      <trkpt lat="43.68617" lon="6.84251">
        <ele>732.2</ele>
        <time>2014-05-29T10:24:16.000Z</time>
      </trkpt>
      <trkpt lat="43.68614" lon="6.8425">
        <ele>732.3</ele>
        <time>2014-05-29T10:24:17.000Z</time>
      </trkpt>
      <trkpt lat="43.68611" lon="6.84249">
        <ele>733.3</ele>
        <time>2014-05-29T10:24:19.000Z</time>
      </trkpt>
      <trkpt lat="43.68609" lon="6.84249">
        <ele>733.1</ele>
        <time>2014-05-29T10:24:20.000Z</time>
      </trkpt>
      <trkpt lat="43.68605" lon="6.84247">
        <ele>733.9</ele>
        <time>2014-05-29T10:24:22.000Z</time>
      </trkpt>
      <trkpt lat="43.68603" lon="6.84246">
        <ele>734.5</ele>
        <time>2014-05-29T10:24:23.000Z</time>
      </trkpt>
      <trkpt lat="43.68599" lon="6.84244">
        <ele>735.6</ele>
        <time>2014-05-29T10:24:25.000Z</time>
      </trkpt>
      <trkpt lat="43.68597" lon="6.84244">
        <ele>736.7</ele>
        <time>2014-05-29T10:24:26.000Z</time>
      </trkpt>
      <trkpt lat="43.68594" lon="6.84245">
        <ele>738.2</ele>
        <time>2014-05-29T10:24:29.000Z</time>
      </trkpt>
      <trkpt lat="43.68592" lon="6.84245">
        <ele>738.6</ele>
        <time>2014-05-29T10:24:30.000Z</time>
      </trkpt>
      <trkpt lat="43.6859" lon="6.84245">
        <ele>738.9</ele>
        <time>2014-05-29T10:24:31.508Z</time>
      </trkpt>
      <trkpt lat="43.68587" lon="6.84246">
        <ele>738.6</ele>
        <time>2014-05-29T10:24:33.000Z</time>
      </trkpt>
      <trkpt lat="43.68583" lon="6.84246">
        <ele>740.4</ele>
        <time>2014-05-29T10:24:35.000Z</time>
      </trkpt>
      <trkpt lat="43.68582" lon="6.84247">
        <ele>740.9</ele>
        <time>2014-05-29T10:24:36.000Z</time>
      </trkpt>
      <trkpt lat="43.68578" lon="6.84246">
        <ele>739.8</ele>
        <time>2014-05-29T10:24:38.000Z</time>
      </trkpt>
      <trkpt lat="43.68576" lon="6.84246">
        <ele>739.8</ele>
        <time>2014-05-29T10:24:38.999Z</time>
      </trkpt>
      <trkpt lat="43.68572" lon="6.84245">
        <ele>739.2</ele>
        <time>2014-05-29T10:24:41.000Z</time>
      </trkpt>
      <trkpt lat="43.6857" lon="6.84246">
        <ele>739.7</ele>
        <time>2014-05-29T10:24:42.000Z</time>
      </trkpt>
      <trkpt lat="43.68567" lon="6.84244">
        <ele>738.7</ele>
        <time>2014-05-29T10:24:45.000Z</time>
      </trkpt>
      <trkpt lat="43.68566" lon="6.84243">
        <ele>738.9</ele>
        <time>2014-05-29T10:24:46.000Z</time>
      </trkpt>
      <trkpt lat="43.68562" lon="6.84242">
        <ele>740</ele>
        <time>2014-05-29T10:24:48.000Z</time>
      </trkpt>
      <trkpt lat="43.6856" lon="6.84241">
        <ele>740.2</ele>
        <time>2014-05-29T10:24:49.000Z</time>
      </trkpt>
      <trkpt lat="43.68559" lon="6.84239">
        <ele>739.9</ele>
        <time>2014-05-29T10:24:50.000Z</time>
      </trkpt>
      <trkpt lat="43.68556" lon="6.84238">
        <ele>739</ele>
        <time>2014-05-29T10:24:51.000Z</time>
      </trkpt>
      <trkpt lat="43.68553" lon="6.84236">
        <ele>739.8</ele>
        <time>2014-05-29T10:24:53.000Z</time>
      </trkpt>
      <trkpt lat="43.68551" lon="6.84234">
        <ele>740</ele>
        <time>2014-05-29T10:24:54.000Z</time>
      </trkpt>
      <trkpt lat="43.68547" lon="6.84233">
        <ele>740.6</ele>
        <time>2014-05-29T10:24:56.000Z</time>
      </trkpt>
      <trkpt lat="43.68545" lon="6.84233">
        <ele>740.3</ele>
        <time>2014-05-29T10:24:57.000Z</time>
      </trkpt>
      <trkpt lat="43.6854" lon="6.84232">
        <ele>740.3</ele>
        <time>2014-05-29T10:24:59.001Z</time>
      </trkpt>
      <trkpt lat="43.68538" lon="6.84231">
        <ele>740.1</ele>
        <time>2014-05-29T10:25:00.000Z</time>
      </trkpt>
      <trkpt lat="43.68536" lon="6.84231">
        <ele>739.4</ele>
        <time>2014-05-29T10:25:01.000Z</time>
      </trkpt>
      <trkpt lat="43.68532" lon="6.8423">
        <ele>737</ele>
        <time>2014-05-29T10:25:02.000Z</time>
      </trkpt>
      <trkpt lat="43.68529" lon="6.84229">
        <ele>735.4</ele>
        <time>2014-05-29T10:25:03.000Z</time>
      </trkpt>
      <trkpt lat="43.68525" lon="6.84227">
        <ele>735.4</ele>
        <time>2014-05-29T10:25:04.000Z</time>
      </trkpt>
      <trkpt lat="43.68522" lon="6.84226">
        <ele>735.2</ele>
        <time>2014-05-29T10:25:05.000Z</time>
      </trkpt>
      <trkpt lat="43.68519" lon="6.84224">
        <ele>734.9</ele>
        <time>2014-05-29T10:25:06.000Z</time>
      </trkpt>
      <trkpt lat="43.68515" lon="6.84222">
        <ele>734.8</ele>
        <time>2014-05-29T10:25:07.000Z</time>
      </trkpt>
      <trkpt lat="43.68511" lon="6.8422">
        <ele>734.2</ele>
        <time>2014-05-29T10:25:08.000Z</time>
      </trkpt>
      <trkpt lat="43.68507" lon="6.84217">
        <ele>733.7</ele>
        <time>2014-05-29T10:25:09.000Z</time>
      </trkpt>
      <trkpt lat="43.68502" lon="6.84215">
        <ele>733.4</ele>
        <time>2014-05-29T10:25:10.000Z</time>
      </trkpt>
      <trkpt lat="43.68498" lon="6.84213">
        <ele>732.4</ele>
        <time>2014-05-29T10:25:11.000Z</time>
      </trkpt>
      <trkpt lat="43.68494" lon="6.84211">
        <ele>732.1</ele>
        <time>2014-05-29T10:25:12.000Z</time>
      </trkpt>
      <trkpt lat="43.68489" lon="6.84207">
        <ele>732</ele>
        <time>2014-05-29T10:25:13.000Z</time>
      </trkpt>
      <trkpt lat="43.68485" lon="6.84204">
        <ele>731.5</ele>
        <time>2014-05-29T10:25:14.000Z</time>
      </trkpt>
      <trkpt lat="43.6848" lon="6.84202">
        <ele>731.4</ele>
        <time>2014-05-29T10:25:14.998Z</time>
      </trkpt>
      <trkpt lat="43.68476" lon="6.842">
        <ele>731.4</ele>
        <time>2014-05-29T10:25:16.000Z</time>
      </trkpt>
      <trkpt lat="43.68472" lon="6.84198">
        <ele>731.5</ele>
        <time>2014-05-29T10:25:17.000Z</time>
      </trkpt>
      <trkpt lat="43.68466" lon="6.84198">
        <ele>729.5</ele>
        <time>2014-05-29T10:25:18.000Z</time>
      </trkpt>
      <trkpt lat="43.68462" lon="6.84198">
        <ele>729.4</ele>
        <time>2014-05-29T10:25:19.000Z</time>
      </trkpt>
      <trkpt lat="43.68458" lon="6.84197">
        <ele>729.6</ele>
        <time>2014-05-29T10:25:20.000Z</time>
      </trkpt>
      <trkpt lat="43.68454" lon="6.84196">
        <ele>729.9</ele>
        <time>2014-05-29T10:25:21.000Z</time>
      </trkpt>
      <trkpt lat="43.68448" lon="6.84195">
        <ele>729.8</ele>
        <time>2014-05-29T10:25:22.000Z</time>
      </trkpt>
      <trkpt lat="43.68444" lon="6.84193">
        <ele>730</ele>
        <time>2014-05-29T10:25:23.000Z</time>
      </trkpt>
      <trkpt lat="43.68441" lon="6.84193">
        <ele>730.1</ele>
        <time>2014-05-29T10:25:24.000Z</time>
      </trkpt>
      <trkpt lat="43.68437" lon="6.84192">
        <ele>730.6</ele>
        <time>2014-05-29T10:25:25.000Z</time>
      </trkpt>
      <trkpt lat="43.68433" lon="6.8419">
        <ele>730.3</ele>
        <time>2014-05-29T10:25:26.000Z</time>
      </trkpt>
      <trkpt lat="43.68429" lon="6.84187">
        <ele>730.3</ele>
        <time>2014-05-29T10:25:27.000Z</time>
      </trkpt>
      <trkpt lat="43.68425" lon="6.84185">
        <ele>731.4</ele>
        <time>2014-05-29T10:25:28.000Z</time>
      </trkpt>
      <trkpt lat="43.6842" lon="6.84184">
        <ele>731.2</ele>
        <time>2014-05-29T10:25:29.000Z</time>
      </trkpt>
      <trkpt lat="43.68417" lon="6.84183">
        <ele>731.6</ele>
        <time>2014-05-29T10:25:29.800Z</time>
      </trkpt>
      <trkpt lat="43.68404" lon="6.84179">
        <ele>731</ele>
        <time>2014-05-29T10:25:33.019Z</time>
      </trkpt>
      <trkpt lat="43.684" lon="6.84178">
        <ele>730.9</ele>
        <time>2014-05-29T10:25:34.019Z</time>
      </trkpt>
      <trkpt lat="43.68396" lon="6.84177">
        <ele>730.7</ele>
        <time>2014-05-29T10:25:35.019Z</time>
      </trkpt>
      <trkpt lat="43.68392" lon="6.84176">
        <ele>730.5</ele>
        <time>2014-05-29T10:25:36.019Z</time>
      </trkpt>
      <trkpt lat="43.68388" lon="6.84175">
        <ele>730.3</ele>
        <time>2014-05-29T10:25:37.019Z</time>
      </trkpt>
      <trkpt lat="43.68384" lon="6.84174">
        <ele>730.1</ele>
        <time>2014-05-29T10:25:38.019Z</time>
      </trkpt>
      <trkpt lat="43.6838" lon="6.84173">
        <ele>730</ele>
        <time>2014-05-29T10:25:39.019Z</time>
      </trkpt>
      <trkpt lat="43.68378" lon="6.84174">
        <ele>735.4</ele>
        <time>2014-05-29T10:25:41.000Z</time>
      </trkpt>
      <trkpt lat="43.68375" lon="6.84175">
        <ele>740</ele>
        <time>2014-05-29T10:25:42.000Z</time>
      </trkpt>
      <trkpt lat="43.68372" lon="6.84175">
        <ele>739.2</ele>
        <time>2014-05-29T10:25:43.000Z</time>
      </trkpt>
      <trkpt lat="43.68369" lon="6.84173">
        <ele>739.4</ele>
        <time>2014-05-29T10:25:44.000Z</time>
      </trkpt>
      <trkpt lat="43.68366" lon="6.84172">
        <ele>737.7</ele>
        <time>2014-05-29T10:25:45.000Z</time>
      </trkpt>
      <trkpt lat="43.68362" lon="6.84171">
        <ele>736.9</ele>
        <time>2014-05-29T10:25:46.000Z</time>
      </trkpt>
      <trkpt lat="43.6836" lon="6.84171">
        <ele>737</ele>
        <time>2014-05-29T10:25:47.000Z</time>
      </trkpt>
      <trkpt lat="43.68358" lon="6.84169">
        <ele>736.7</ele>
        <time>2014-05-29T10:25:48.000Z</time>
      </trkpt>
      <trkpt lat="43.68355" lon="6.84169">
        <ele>737.3</ele>
        <time>2014-05-29T10:25:49.000Z</time>
      </trkpt>
      <trkpt lat="43.68352" lon="6.84169">
        <ele>738</ele>
        <time>2014-05-29T10:25:50.000Z</time>
      </trkpt>
      <trkpt lat="43.6835" lon="6.84168">
        <ele>738.5</ele>
        <time>2014-05-29T10:25:51.000Z</time>
      </trkpt>
      <trkpt lat="43.68346" lon="6.84167">
        <ele>737.4</ele>
        <time>2014-05-29T10:25:52.000Z</time>
      </trkpt>
      <trkpt lat="43.68344" lon="6.84166">
        <ele>738.6</ele>
        <time>2014-05-29T10:25:53.000Z</time>
      </trkpt>
      <trkpt lat="43.68341" lon="6.84165">
        <ele>737.7</ele>
        <time>2014-05-29T10:25:54.000Z</time>
      </trkpt>
      <trkpt lat="43.68337" lon="6.84164">
        <ele>740.4</ele>
        <time>2014-05-29T10:25:56.000Z</time>
      </trkpt>
      <trkpt lat="43.68334" lon="6.84163">
        <ele>739.9</ele>
        <time>2014-05-29T10:25:57.000Z</time>
      </trkpt>
      <trkpt lat="43.68331" lon="6.84162">
        <ele>739.6</ele>
        <time>2014-05-29T10:25:58.000Z</time>
      </trkpt>
      <trkpt lat="43.68328" lon="6.84161">
        <ele>739.5</ele>
        <time>2014-05-29T10:25:59.000Z</time>
      </trkpt>
      <trkpt lat="43.68325" lon="6.84159">
        <ele>739.3</ele>
        <time>2014-05-29T10:26:00.000Z</time>
      </trkpt>
      <trkpt lat="43.68322" lon="6.84158">
        <ele>738.3</ele>
        <time>2014-05-29T10:26:01.000Z</time>
      </trkpt>
      <trkpt lat="43.68318" lon="6.84156">
        <ele>737.8</ele>
        <time>2014-05-29T10:26:02.000Z</time>
      </trkpt>
      <trkpt lat="43.68314" lon="6.84154">
        <ele>737.9</ele>
        <time>2014-05-29T10:26:03.000Z</time>
      </trkpt>
      <trkpt lat="43.6831" lon="6.84152">
        <ele>737.3</ele>
        <time>2014-05-29T10:26:04.000Z</time>
      </trkpt>
      <trkpt lat="43.68304" lon="6.8415">
        <ele>736.5</ele>
        <time>2014-05-29T10:26:05.000Z</time>
      </trkpt>
      <trkpt lat="43.68299" lon="6.84148">
        <ele>736</ele>
        <time>2014-05-29T10:26:06.000Z</time>
      </trkpt>
      <trkpt lat="43.68295" lon="6.84146">
        <ele>736.5</ele>
        <time>2014-05-29T10:26:07.000Z</time>
      </trkpt>
      <trkpt lat="43.6829" lon="6.84144">
        <ele>737</ele>
        <time>2014-05-29T10:26:08.000Z</time>
      </trkpt>
      <trkpt lat="43.68285" lon="6.84142">
        <ele>736.5</ele>
        <time>2014-05-29T10:26:09.000Z</time>
      </trkpt>
      <trkpt lat="43.68279" lon="6.84141">
        <ele>735.5</ele>
        <time>2014-05-29T10:26:10.000Z</time>
      </trkpt>
      <trkpt lat="43.68274" lon="6.84139">
        <ele>735.2</ele>
        <time>2014-05-29T10:26:11.000Z</time>
      </trkpt>
      <trkpt lat="43.68267" lon="6.84137">
        <ele>734.6</ele>
        <time>2014-05-29T10:26:12.000Z</time>
      </trkpt>
      <trkpt lat="43.68128" lon="6.84085">
        <ele>716.4</ele>
        <time>2014-05-29T10:26:45.000Z</time>
      </trkpt>
      <trkpt lat="43.68127" lon="6.84089">
        <ele>719.9</ele>
        <time>2014-05-29T10:26:46.000Z</time>
      </trkpt>
      <trkpt lat="43.68123" lon="6.84093">
        <ele>722.6</ele>
        <time>2014-05-29T10:26:47.000Z</time>
      </trkpt>
      <trkpt lat="43.68121" lon="6.84096">
        <ele>721.5</ele>
        <time>2014-05-29T10:26:48.000Z</time>
      </trkpt>
      <trkpt lat="43.68123" lon="6.84099">
        <ele>721.4</ele>
        <time>2014-05-29T10:26:49.000Z</time>
      </trkpt>
      <trkpt lat="43.68125" lon="6.84104">
        <ele>720.4</ele>
        <time>2014-05-29T10:26:50.000Z</time>
      </trkpt>
      <trkpt lat="43.68127" lon="6.84106">
        <ele>718.6</ele>
        <time>2014-05-29T10:26:50.999Z</time>
      </trkpt>
      <trkpt lat="43.68129" lon="6.8411">
        <ele>718.7</ele>
        <time>2014-05-29T10:26:52.000Z</time>
      </trkpt>
      <trkpt lat="43.68125" lon="6.84113">
        <ele>718.8</ele>
        <time>2014-05-29T10:26:53.000Z</time>
      </trkpt>
      <trkpt lat="43.68123" lon="6.84116">
        <ele>717.9</ele>
        <time>2014-05-29T10:26:53.998Z</time>
      </trkpt>
      <trkpt lat="43.68122" lon="6.84119">
        <ele>718.2</ele>
        <time>2014-05-29T10:26:55.000Z</time>
      </trkpt>
      <trkpt lat="43.68119" lon="6.84123">
        <ele>718.1</ele>
        <time>2014-05-29T10:26:56.000Z</time>
      </trkpt>
      <trkpt lat="43.68118" lon="6.84126">
        <ele>718.1</ele>
        <time>2014-05-29T10:26:57.000Z</time>
      </trkpt>
      <trkpt lat="43.68117" lon="6.84129">
        <ele>718.5</ele>
        <time>2014-05-29T10:26:58.000Z</time>
      </trkpt>
      <trkpt lat="43.68116" lon="6.84133">
        <ele>719.4</ele>
        <time>2014-05-29T10:26:59.000Z</time>
      </trkpt>
      <trkpt lat="43.68117" lon="6.84136">
        <ele>720.8</ele>
        <time>2014-05-29T10:27:00.000Z</time>
      </trkpt>
      <trkpt lat="43.68118" lon="6.84139">
        <ele>721.3</ele>
        <time>2014-05-29T10:27:00.998Z</time>
      </trkpt>
      <trkpt lat="43.68116" lon="6.84143">
        <ele>720.9</ele>
        <time>2014-05-29T10:27:02.000Z</time>
      </trkpt>
      <trkpt lat="43.68115" lon="6.84147">
        <ele>721</ele>
        <time>2014-05-29T10:27:03.000Z</time>
      </trkpt>
      <trkpt lat="43.68114" lon="6.84151">
        <ele>721.5</ele>
        <time>2014-05-29T10:27:04.000Z</time>
      </trkpt>
      <trkpt lat="43.68113" lon="6.84155">
        <ele>722.1</ele>
        <time>2014-05-29T10:27:05.000Z</time>
      </trkpt>
      <trkpt lat="43.68114" lon="6.84159">
        <ele>722.7</ele>
        <time>2014-05-29T10:27:06.000Z</time>
      </trkpt>
      <trkpt lat="43.68112" lon="6.84163">
        <ele>722.3</ele>
        <time>2014-05-29T10:27:07.000Z</time>
      </trkpt>
      <trkpt lat="43.68111" lon="6.84167">
        <ele>721.8</ele>
        <time>2014-05-29T10:27:08.000Z</time>
      </trkpt>
      <trkpt lat="43.6811" lon="6.8417">
        <ele>722</ele>
        <time>2014-05-29T10:27:09.000Z</time>
      </trkpt>
      <trkpt lat="43.68108" lon="6.84173">
        <ele>721.8</ele>
        <time>2014-05-29T10:27:10.000Z</time>
      </trkpt>
      <trkpt lat="43.68113" lon="6.84176">
        <ele>727.3</ele>
        <time>2014-05-29T10:27:11.000Z</time>
      </trkpt>
      <trkpt lat="43.68112" lon="6.84181">
        <ele>727.3</ele>
        <time>2014-05-29T10:27:12.000Z</time>
      </trkpt>
      <trkpt lat="43.68111" lon="6.84186">
        <ele>728.3</ele>
        <time>2014-05-29T10:27:13.000Z</time>
      </trkpt>
      <trkpt lat="43.6811" lon="6.8419">
        <ele>727.9</ele>
        <time>2014-05-29T10:27:14.000Z</time>
      </trkpt>
      <trkpt lat="43.68109" lon="6.84193">
        <ele>727.6</ele>
        <time>2014-05-29T10:27:15.000Z</time>
      </trkpt>
      <trkpt lat="43.68108" lon="6.84197">
        <ele>727.6</ele>
        <time>2014-05-29T10:27:16.000Z</time>
      </trkpt>
      <trkpt lat="43.68103" lon="6.84202">
        <ele>726.6</ele>
        <time>2014-05-29T10:27:16.999Z</time>
      </trkpt>
      <trkpt lat="43.68103" lon="6.84206">
        <ele>727.1</ele>
        <time>2014-05-29T10:27:18.000Z</time>
      </trkpt>
      <trkpt lat="43.68103" lon="6.84211">
        <ele>727.1</ele>
        <time>2014-05-29T10:27:18.998Z</time>
      </trkpt>
      <trkpt lat="43.68103" lon="6.84215">
        <ele>728.3</ele>
        <time>2014-05-29T10:27:20.000Z</time>
      </trkpt>
      <trkpt lat="43.68102" lon="6.84219">
        <ele>728.3</ele>
        <time>2014-05-29T10:27:21.000Z</time>
      </trkpt>
      <trkpt lat="43.68101" lon="6.84223">
        <ele>726.8</ele>
        <time>2014-05-29T10:27:22.000Z</time>
      </trkpt>
      <trkpt lat="43.681" lon="6.84226">
        <ele>724.9</ele>
        <time>2014-05-29T10:27:23.000Z</time>
      </trkpt>
      <trkpt lat="43.68099" lon="6.8423">
        <ele>724.3</ele>
        <time>2014-05-29T10:27:24.000Z</time>
      </trkpt>
      <trkpt lat="43.681" lon="6.84233">
        <ele>724.4</ele>
        <time>2014-05-29T10:27:25.001Z</time>
      </trkpt>
      <trkpt lat="43.68099" lon="6.84237">
        <ele>723.7</ele>
        <time>2014-05-29T10:27:26.000Z</time>
      </trkpt>
      <trkpt lat="43.68099" lon="6.8424">
        <ele>723.5</ele>
        <time>2014-05-29T10:27:27.000Z</time>
      </trkpt>
      <trkpt lat="43.68098" lon="6.84246">
        <ele>724.8</ele>
        <time>2014-05-29T10:27:27.998Z</time>
      </trkpt>
      <trkpt lat="43.68095" lon="6.84252">
        <ele>726.1</ele>
        <time>2014-05-29T10:27:29.000Z</time>
      </trkpt>
      <trkpt lat="43.6809" lon="6.84253">
        <ele>725.3</ele>
        <time>2014-05-29T10:27:30.000Z</time>
      </trkpt>
      <trkpt lat="43.68087" lon="6.84255">
        <ele>725.1</ele>
        <time>2014-05-29T10:27:30.993Z</time>
      </trkpt>
      <trkpt lat="43.68085" lon="6.84256">
        <ele>725.3</ele>
        <time>2014-05-29T10:27:31.450Z</time>
      </trkpt>
      <trkpt lat="43.6808" lon="6.84259">
        <ele>725.7</ele>
        <time>2014-05-29T10:27:33.000Z</time>
      </trkpt>
      <trkpt lat="43.68075" lon="6.84256">
        <ele>725</ele>
        <time>2014-05-29T10:27:34.000Z</time>
      </trkpt>
      <trkpt lat="43.68071" lon="6.84255">
        <ele>724.8</ele>
        <time>2014-05-29T10:27:35.000Z</time>
      </trkpt>
      <trkpt lat="43.68067" lon="6.84254">
        <ele>725.6</ele>
        <time>2014-05-29T10:27:36.000Z</time>
      </trkpt>
      <trkpt lat="43.68064" lon="6.84253">
        <ele>725.2</ele>
        <time>2014-05-29T10:27:37.000Z</time>
      </trkpt>
      <trkpt lat="43.68059" lon="6.84251">
        <ele>724.8</ele>
        <time>2014-05-29T10:27:38.000Z</time>
      </trkpt>
      <trkpt lat="43.68056" lon="6.8425">
        <ele>726.4</ele>
        <time>2014-05-29T10:27:39.000Z</time>
      </trkpt>
      <trkpt lat="43.68051" lon="6.84249">
        <ele>727.6</ele>
        <time>2014-05-29T10:27:40.000Z</time>
      </trkpt>
      <trkpt lat="43.68046" lon="6.84249">
        <ele>728.1</ele>
        <time>2014-05-29T10:27:41.000Z</time>
      </trkpt>
      <trkpt lat="43.6804" lon="6.84248">
        <ele>728.6</ele>
        <time>2014-05-29T10:27:42.000Z</time>
      </trkpt>
      <trkpt lat="43.68035" lon="6.84249">
        <ele>728.8</ele>
        <time>2014-05-29T10:27:43.000Z</time>
      </trkpt>
      <trkpt lat="43.6803" lon="6.84249">
        <ele>728.3</ele>
        <time>2014-05-29T10:27:44.000Z</time>
      </trkpt>
      <trkpt lat="43.68026" lon="6.8425">
        <ele>728.5</ele>
        <time>2014-05-29T10:27:45.000Z</time>
      </trkpt>
      <trkpt lat="43.68022" lon="6.84249">
        <ele>727.7</ele>
        <time>2014-05-29T10:27:46.000Z</time>
      </trkpt>
      <trkpt lat="43.68018" lon="6.84248">
        <ele>728.2</ele>
        <time>2014-05-29T10:27:47.000Z</time>
      </trkpt>
      <trkpt lat="43.68014" lon="6.84247">
        <ele>728.2</ele>
        <time>2014-05-29T10:27:48.000Z</time>
      </trkpt>
      <trkpt lat="43.6801" lon="6.84247">
        <ele>728.4</ele>
        <time>2014-05-29T10:27:49.000Z</time>
      </trkpt>
      <trkpt lat="43.68008" lon="6.84246">
        <ele>728.3</ele>
        <time>2014-05-29T10:27:50.000Z</time>
      </trkpt>
      <trkpt lat="43.68005" lon="6.84246">
        <ele>729</ele>
        <time>2014-05-29T10:27:51.000Z</time>
      </trkpt>
      <trkpt lat="43.68003" lon="6.84244">
        <ele>729.6</ele>
        <time>2014-05-29T10:27:52.000Z</time>
      </trkpt>
      <trkpt lat="43.68" lon="6.84244">
        <ele>729.9</ele>
        <time>2014-05-29T10:27:53.000Z</time>
      </trkpt>
      <trkpt lat="43.67998" lon="6.84244">
        <ele>730.1</ele>
        <time>2014-05-29T10:27:54.000Z</time>
      </trkpt>
      <trkpt lat="43.67996" lon="6.84242">
        <ele>730.4</ele>
        <time>2014-05-29T10:27:55.000Z</time>
      </trkpt>
      <trkpt lat="43.67993" lon="6.84241">
        <ele>730.4</ele>
        <time>2014-05-29T10:27:56.000Z</time>
      </trkpt>
      <trkpt lat="43.67991" lon="6.8424">
        <ele>730.2</ele>
        <time>2014-05-29T10:27:57.000Z</time>
      </trkpt>
      <trkpt lat="43.67989" lon="6.84239">
        <ele>730</ele>
        <time>2014-05-29T10:27:58.000Z</time>
      </trkpt>
      <trkpt lat="43.67987" lon="6.84238">
        <ele>729.6</ele>
        <time>2014-05-29T10:27:59.000Z</time>
      </trkpt>
      <trkpt lat="43.67985" lon="6.84237">
        <ele>730.1</ele>
        <time>2014-05-29T10:28:00.000Z</time>
      </trkpt>
      <trkpt lat="43.67982" lon="6.84236">
        <ele>730.5</ele>
        <time>2014-05-29T10:28:01.000Z</time>
      </trkpt>
      <trkpt lat="43.67979" lon="6.84236">
        <ele>731</ele>
        <time>2014-05-29T10:28:02.000Z</time>
      </trkpt>
      <trkpt lat="43.67977" lon="6.84235">
        <ele>730.7</ele>
        <time>2014-05-29T10:28:03.000Z</time>
      </trkpt>
      <trkpt lat="43.67973" lon="6.84235">
        <ele>732.8</ele>
        <time>2014-05-29T10:28:05.000Z</time>
      </trkpt>
      <trkpt lat="43.6797" lon="6.84236">
        <ele>733.7</ele>
        <time>2014-05-29T10:28:06.000Z</time>
      </trkpt>
      <trkpt lat="43.67968" lon="6.84236">
        <ele>733.6</ele>
        <time>2014-05-29T10:28:07.000Z</time>
      </trkpt>
      <trkpt lat="43.67965" lon="6.84235">
        <ele>733.8</ele>
        <time>2014-05-29T10:28:08.000Z</time>
      </trkpt>
      <trkpt lat="43.67961" lon="6.84234">
        <ele>733.8</ele>
        <time>2014-05-29T10:28:10.000Z</time>
      </trkpt>
      <trkpt lat="43.67958" lon="6.84233">
        <ele>734.2</ele>
        <time>2014-05-29T10:28:11.000Z</time>
      </trkpt>
      <trkpt lat="43.67956" lon="6.84233">
        <ele>733.8</ele>
        <time>2014-05-29T10:28:12.000Z</time>
      </trkpt>
      <trkpt lat="43.67954" lon="6.84233">
        <ele>733.5</ele>
        <time>2014-05-29T10:28:13.000Z</time>
      </trkpt>
      <trkpt lat="43.67949" lon="6.84232">
        <ele>734.2</ele>
        <time>2014-05-29T10:28:15.000Z</time>
      </trkpt>
      <trkpt lat="43.67947" lon="6.84231">
        <ele>733.8</ele>
        <time>2014-05-29T10:28:16.000Z</time>
      </trkpt>
      <trkpt lat="43.67942" lon="6.84231">
        <ele>735.5</ele>
        <time>2014-05-29T10:28:18.000Z</time>
      </trkpt>
      <trkpt lat="43.6794" lon="6.8423">
        <ele>735.6</ele>
        <time>2014-05-29T10:28:19.000Z</time>
      </trkpt>
      <trkpt lat="43.67937" lon="6.8423">
        <ele>735.7</ele>
        <time>2014-05-29T10:28:20.000Z</time>
      </trkpt>
      <trkpt lat="43.67935" lon="6.84229">
        <ele>736.1</ele>
        <time>2014-05-29T10:28:21.000Z</time>
      </trkpt>
      <trkpt lat="43.67932" lon="6.84228">
        <ele>736.2</ele>
        <time>2014-05-29T10:28:22.000Z</time>
      </trkpt>
      <trkpt lat="43.6793" lon="6.84228">
        <ele>736.3</ele>
        <time>2014-05-29T10:28:23.000Z</time>
      </trkpt>
      <trkpt lat="43.67927" lon="6.84227">
        <ele>736.1</ele>
        <time>2014-05-29T10:28:24.000Z</time>
      </trkpt>
      <trkpt lat="43.67924" lon="6.84226">
        <ele>735.4</ele>
        <time>2014-05-29T10:28:25.000Z</time>
      </trkpt>
      <trkpt lat="43.67922" lon="6.84226">
        <ele>734.2</ele>
        <time>2014-05-29T10:28:26.000Z</time>
      </trkpt>
      <trkpt lat="43.67919" lon="6.84225">
        <ele>734</ele>
        <time>2014-05-29T10:28:27.000Z</time>
      </trkpt>
      <trkpt lat="43.67917" lon="6.84225">
        <ele>733.4</ele>
        <time>2014-05-29T10:28:28.000Z</time>
      </trkpt>
      <trkpt lat="43.67914" lon="6.84225">
        <ele>733.6</ele>
        <time>2014-05-29T10:28:29.000Z</time>
      </trkpt>
      <trkpt lat="43.67912" lon="6.84225">
        <ele>733.7</ele>
        <time>2014-05-29T10:28:30.000Z</time>
      </trkpt>
      <trkpt lat="43.67908" lon="6.84225">
        <ele>733</ele>
        <time>2014-05-29T10:28:31.469Z</time>
      </trkpt>
      <trkpt lat="43.67904" lon="6.84225">
        <ele>733.1</ele>
        <time>2014-05-29T10:28:33.000Z</time>
      </trkpt>
      <trkpt lat="43.67901" lon="6.84225">
        <ele>733.8</ele>
        <time>2014-05-29T10:28:33.999Z</time>
      </trkpt>
      <trkpt lat="43.67899" lon="6.84226">
        <ele>733.6</ele>
        <time>2014-05-29T10:28:35.000Z</time>
      </trkpt>
      <trkpt lat="43.67896" lon="6.84225">
        <ele>733.3</ele>
        <time>2014-05-29T10:28:36.000Z</time>
      </trkpt>
      <trkpt lat="43.67892" lon="6.84225">
        <ele>733.4</ele>
        <time>2014-05-29T10:28:38.000Z</time>
      </trkpt>
      <trkpt lat="43.67889" lon="6.84225">
        <ele>733.7</ele>
        <time>2014-05-29T10:28:39.000Z</time>
      </trkpt>
      <trkpt lat="43.67886" lon="6.84225">
        <ele>734.1</ele>
        <time>2014-05-29T10:28:40.000Z</time>
      </trkpt>
      <trkpt lat="43.67884" lon="6.84225">
        <ele>734.2</ele>
        <time>2014-05-29T10:28:41.000Z</time>
      </trkpt>
      <trkpt lat="43.67881" lon="6.84225">
        <ele>734.8</ele>
        <time>2014-05-29T10:28:43.000Z</time>
      </trkpt>
      <trkpt lat="43.67879" lon="6.84225">
        <ele>736</ele>
        <time>2014-05-29T10:28:44.000Z</time>
      </trkpt>
      <trkpt lat="43.67874" lon="6.84224">
        <ele>736.7</ele>
        <time>2014-05-29T10:28:46.000Z</time>
      </trkpt>
      <trkpt lat="43.67872" lon="6.84224">
        <ele>736.9</ele>
        <time>2014-05-29T10:28:47.000Z</time>
      </trkpt>
      <trkpt lat="43.67868" lon="6.84225">
        <ele>737.7</ele>
        <time>2014-05-29T10:28:49.000Z</time>
      </trkpt>
      <trkpt lat="43.67866" lon="6.84224">
        <ele>737.8</ele>
        <time>2014-05-29T10:28:50.000Z</time>
      </trkpt>
      <trkpt lat="43.67863" lon="6.84225">
        <ele>737.2</ele>
        <time>2014-05-29T10:28:52.000Z</time>
      </trkpt>
      <trkpt lat="43.67862" lon="6.84225">
        <ele>737</ele>
        <time>2014-05-29T10:28:52.999Z</time>
      </trkpt>
      <trkpt lat="43.67858" lon="6.84226">
        <ele>736.9</ele>
        <time>2014-05-29T10:29:05.000Z</time>
      </trkpt>
      <trkpt lat="43.67857" lon="6.84225">
        <ele>736.8</ele>
        <time>2014-05-29T10:29:06.000Z</time>
      </trkpt>
      <trkpt lat="43.67854" lon="6.84224">
        <ele>736.6</ele>
        <time>2014-05-29T10:29:07.000Z</time>
      </trkpt>
      <trkpt lat="43.67852" lon="6.84224">
        <ele>736.3</ele>
        <time>2014-05-29T10:29:08.000Z</time>
      </trkpt>
      <trkpt lat="43.67849" lon="6.84223">
        <ele>736.2</ele>
        <time>2014-05-29T10:29:09.000Z</time>
      </trkpt>
      <trkpt lat="43.67846" lon="6.84223">
        <ele>735.9</ele>
        <time>2014-05-29T10:29:10.000Z</time>
      </trkpt>
      <trkpt lat="43.67843" lon="6.84223">
        <ele>735.6</ele>
        <time>2014-05-29T10:29:11.000Z</time>
      </trkpt>
      <trkpt lat="43.6784" lon="6.84223">
        <ele>735.6</ele>
        <time>2014-05-29T10:29:12.000Z</time>
      </trkpt>
      <trkpt lat="43.67836" lon="6.84223">
        <ele>735.4</ele>
        <time>2014-05-29T10:29:13.000Z</time>
      </trkpt>
      <trkpt lat="43.67833" lon="6.84223">
        <ele>735.2</ele>
        <time>2014-05-29T10:29:14.000Z</time>
      </trkpt>
      <trkpt lat="43.67829" lon="6.84223">
        <ele>735.2</ele>
        <time>2014-05-29T10:29:15.000Z</time>
      </trkpt>
      <trkpt lat="43.67825" lon="6.84224">
        <ele>735.1</ele>
        <time>2014-05-29T10:29:16.000Z</time>
      </trkpt>
      <trkpt lat="43.67821" lon="6.84224">
        <ele>734.9</ele>
        <time>2014-05-29T10:29:17.000Z</time>
      </trkpt>
      <trkpt lat="43.67816" lon="6.84223">
        <ele>734.3</ele>
        <time>2014-05-29T10:29:18.000Z</time>
      </trkpt>
      <trkpt lat="43.6781" lon="6.84222">
        <ele>733.5</ele>
        <time>2014-05-29T10:29:19.000Z</time>
      </trkpt>
      <trkpt lat="43.67804" lon="6.84221">
        <ele>732.8</ele>
        <time>2014-05-29T10:29:20.000Z</time>
      </trkpt>
      <trkpt lat="43.67799" lon="6.8422">
        <ele>732.2</ele>
        <time>2014-05-29T10:29:21.000Z</time>
      </trkpt>
      <trkpt lat="43.67793" lon="6.8422">
        <ele>731.3</ele>
        <time>2014-05-29T10:29:22.000Z</time>
      </trkpt>
      <trkpt lat="43.67788" lon="6.8422">
        <ele>730.7</ele>
        <time>2014-05-29T10:29:23.000Z</time>
      </trkpt>
      <trkpt lat="43.67782" lon="6.84219">
        <ele>730.2</ele>
        <time>2014-05-29T10:29:24.000Z</time>
      </trkpt>
      <trkpt lat="43.67776" lon="6.84218">
        <ele>729.4</ele>
        <time>2014-05-29T10:29:25.000Z</time>
      </trkpt>
      <trkpt lat="43.6777" lon="6.84219">
        <ele>728.3</ele>
        <time>2014-05-29T10:29:26.000Z</time>
      </trkpt>
      <trkpt lat="43.67763" lon="6.84221">
        <ele>727.4</ele>
        <time>2014-05-29T10:29:27.000Z</time>
      </trkpt>
      <trkpt lat="43.67756" lon="6.8422">
        <ele>726.7</ele>
        <time>2014-05-29T10:29:28.000Z</time>
      </trkpt>
      <trkpt lat="43.67748" lon="6.8422">
        <ele>725.7</ele>
        <time>2014-05-29T10:29:29.000Z</time>
      </trkpt>
      <trkpt lat="43.6774" lon="6.84221">
        <ele>724.7</ele>
        <time>2014-05-29T10:29:30.000Z</time>
      </trkpt>
      <trkpt lat="43.67729" lon="6.8422">
        <ele>723.8</ele>
        <time>2014-05-29T10:29:31.447Z</time>
      </trkpt>
      <trkpt lat="43.67725" lon="6.8422">
        <ele>723.7</ele>
        <time>2014-05-29T10:29:32.000Z</time>
      </trkpt>
      <trkpt lat="43.6771" lon="6.84219">
        <ele>723.2</ele>
        <time>2014-05-29T10:29:34.000Z</time>
      </trkpt>
      <trkpt lat="43.67707" lon="6.8422">
        <ele>722.2</ele>
        <time>2014-05-29T10:29:35.000Z</time>
      </trkpt>
      <trkpt lat="43.67701" lon="6.8422">
        <ele>721.8</ele>
        <time>2014-05-29T10:29:36.000Z</time>
      </trkpt>
      <trkpt lat="43.67697" lon="6.84221">
        <ele>722.7</ele>
        <time>2014-05-29T10:29:41.000Z</time>
      </trkpt>
      <trkpt lat="43.67697" lon="6.84221">
        <ele>722.9</ele>
        <time>2014-05-29T10:29:42.000Z</time>
      </trkpt>
      <trkpt lat="43.67694" lon="6.84219">
        <ele>722.9</ele>
        <time>2014-05-29T10:29:43.000Z</time>
      </trkpt>
      <trkpt lat="43.67691" lon="6.84219">
        <ele>721.8</ele>
        <time>2014-05-29T10:29:44.000Z</time>
      </trkpt>
      <trkpt lat="43.67688" lon="6.84219">
        <ele>721.5</ele>
        <time>2014-05-29T10:29:45.000Z</time>
      </trkpt>
      <trkpt lat="43.67684" lon="6.8422">
        <ele>721.1</ele>
        <time>2014-05-29T10:29:45.999Z</time>
      </trkpt>
      <trkpt lat="43.6768" lon="6.8422">
        <ele>720.8</ele>
        <time>2014-05-29T10:29:47.000Z</time>
      </trkpt>
      <trkpt lat="43.67676" lon="6.84219">
        <ele>720.8</ele>
        <time>2014-05-29T10:29:48.000Z</time>
      </trkpt>
      <trkpt lat="43.67672" lon="6.84212">
        <ele>720.7</ele>
        <time>2014-05-29T10:29:49.000Z</time>
      </trkpt>
      <trkpt lat="43.67669" lon="6.84207">
        <ele>720</ele>
        <time>2014-05-29T10:29:49.998Z</time>
      </trkpt>
      <trkpt lat="43.67666" lon="6.84202">
        <ele>719.8</ele>
        <time>2014-05-29T10:29:51.000Z</time>
      </trkpt>
      <trkpt lat="43.67664" lon="6.84196">
        <ele>719.3</ele>
        <time>2014-05-29T10:29:52.000Z</time>
      </trkpt>
      <trkpt lat="43.67662" lon="6.84191">
        <ele>719.3</ele>
        <time>2014-05-29T10:29:52.999Z</time>
      </trkpt>
      <trkpt lat="43.6766" lon="6.84185">
        <ele>719.1</ele>
        <time>2014-05-29T10:29:54.000Z</time>
      </trkpt>
      <trkpt lat="43.67656" lon="6.84182">
        <ele>719.2</ele>
        <time>2014-05-29T10:29:55.000Z</time>
      </trkpt>
      <trkpt lat="43.67655" lon="6.8418">
        <ele>719.4</ele>
        <time>2014-05-29T10:29:56.000Z</time>
      </trkpt>
      <trkpt lat="43.67652" lon="6.84178">
        <ele>719.3</ele>
        <time>2014-05-29T10:29:57.000Z</time>
      </trkpt>
      <trkpt lat="43.67649" lon="6.84177">
        <ele>719.1</ele>
        <time>2014-05-29T10:29:58.000Z</time>
      </trkpt>
      <trkpt lat="43.67646" lon="6.84179">
        <ele>717.9</ele>
        <time>2014-05-29T10:29:59.000Z</time>
      </trkpt>
      <trkpt lat="43.67641" lon="6.8418">
        <ele>715.8</ele>
        <time>2014-05-29T10:30:00.000Z</time>
      </trkpt>
      <trkpt lat="43.67635" lon="6.84182">
        <ele>714.7</ele>
        <time>2014-05-29T10:30:01.000Z</time>
      </trkpt>
      <trkpt lat="43.67631" lon="6.84186">
        <ele>714</ele>
        <time>2014-05-29T10:30:02.000Z</time>
      </trkpt>
      <trkpt lat="43.67626" lon="6.84191">
        <ele>713.3</ele>
        <time>2014-05-29T10:30:03.000Z</time>
      </trkpt>
      <trkpt lat="43.67621" lon="6.84195">
        <ele>712.6</ele>
        <time>2014-05-29T10:30:04.000Z</time>
      </trkpt>
      <trkpt lat="43.67618" lon="6.84203">
        <ele>711</ele>
        <time>2014-05-29T10:30:05.000Z</time>
      </trkpt>
      <trkpt lat="43.67615" lon="6.84209">
        <ele>709.9</ele>
        <time>2014-05-29T10:30:06.000Z</time>
      </trkpt>
      <trkpt lat="43.67613" lon="6.84215">
        <ele>709.3</ele>
        <time>2014-05-29T10:30:07.000Z</time>
      </trkpt>
      <trkpt lat="43.67618" lon="6.84222">
        <ele>709.7</ele>
        <time>2014-05-29T10:30:07.999Z</time>
      </trkpt>
      <trkpt lat="43.67621" lon="6.84229">
        <ele>710.2</ele>
        <time>2014-05-29T10:30:09.000Z</time>
      </trkpt>
      <trkpt lat="43.67623" lon="6.84234">
        <ele>710.2</ele>
        <time>2014-05-29T10:30:10.000Z</time>
      </trkpt>
      <trkpt lat="43.67626" lon="6.84238">
        <ele>709.9</ele>
        <time>2014-05-29T10:30:11.000Z</time>
      </trkpt>
      <trkpt lat="43.67629" lon="6.84242">
        <ele>710.7</ele>
        <time>2014-05-29T10:30:12.000Z</time>
      </trkpt>
      <trkpt lat="43.67632" lon="6.84246">
        <ele>710.1</ele>
        <time>2014-05-29T10:30:13.000Z</time>
      </trkpt>
      <trkpt lat="43.67634" lon="6.84252">
        <ele>710.4</ele>
        <time>2014-05-29T10:30:14.000Z</time>
      </trkpt>
      <trkpt lat="43.67635" lon="6.84256">
        <ele>710.7</ele>
        <time>2014-05-29T10:30:15.000Z</time>
      </trkpt>
      <trkpt lat="43.67637" lon="6.84261">
        <ele>710.4</ele>
        <time>2014-05-29T10:30:16.000Z</time>
      </trkpt>
      <trkpt lat="43.67639" lon="6.84265">
        <ele>710.5</ele>
        <time>2014-05-29T10:30:17.000Z</time>
      </trkpt>
      <trkpt lat="43.67641" lon="6.84269">
        <ele>710.7</ele>
        <time>2014-05-29T10:30:18.000Z</time>
      </trkpt>
      <trkpt lat="43.67642" lon="6.84273">
        <ele>710.8</ele>
        <time>2014-05-29T10:30:19.000Z</time>
      </trkpt>
      <trkpt lat="43.67643" lon="6.84276">
        <ele>710.3</ele>
        <time>2014-05-29T10:30:20.000Z</time>
      </trkpt>
      <trkpt lat="43.67644" lon="6.84281">
        <ele>710.6</ele>
        <time>2014-05-29T10:30:21.000Z</time>
      </trkpt>
      <trkpt lat="43.67645" lon="6.84285">
        <ele>710.6</ele>
        <time>2014-05-29T10:30:22.000Z</time>
      </trkpt>
      <trkpt lat="43.67647" lon="6.8429">
        <ele>710.4</ele>
        <time>2014-05-29T10:30:23.000Z</time>
      </trkpt>
      <trkpt lat="43.67648" lon="6.84294">
        <ele>710.9</ele>
        <time>2014-05-29T10:30:24.000Z</time>
      </trkpt>
      <trkpt lat="43.6765" lon="6.84299">
        <ele>712</ele>
        <time>2014-05-29T10:30:25.000Z</time>
      </trkpt>
      <trkpt lat="43.6765" lon="6.84303">
        <ele>712.1</ele>
        <time>2014-05-29T10:30:26.000Z</time>
      </trkpt>
      <trkpt lat="43.67651" lon="6.84307">
        <ele>712.3</ele>
        <time>2014-05-29T10:30:27.000Z</time>
      </trkpt>
      <trkpt lat="43.67652" lon="6.84311">
        <ele>712.6</ele>
        <time>2014-05-29T10:30:28.000Z</time>
      </trkpt>
      <trkpt lat="43.67652" lon="6.84317">
        <ele>713.2</ele>
        <time>2014-05-29T10:30:30.000Z</time>
      </trkpt>
      <trkpt lat="43.67653" lon="6.8432">
        <ele>713.3</ele>
        <time>2014-05-29T10:30:31.428Z</time>
      </trkpt>
      <trkpt lat="43.67653" lon="6.84322">
        <ele>713.3</ele>
        <time>2014-05-29T10:30:32.000Z</time>
      </trkpt>
      <trkpt lat="43.67654" lon="6.84329">
        <ele>713.3</ele>
        <time>2014-05-29T10:30:34.000Z</time>
      </trkpt>
      <trkpt lat="43.67655" lon="6.84334">
        <ele>713.6</ele>
        <time>2014-05-29T10:30:35.000Z</time>
      </trkpt>
      <trkpt lat="43.67655" lon="6.84338">
        <ele>712.6</ele>
        <time>2014-05-29T10:30:36.000Z</time>
      </trkpt>
      <trkpt lat="43.67656" lon="6.84343">
        <ele>712.4</ele>
        <time>2014-05-29T10:30:37.000Z</time>
      </trkpt>
      <trkpt lat="43.67657" lon="6.84346">
        <ele>712.2</ele>
        <time>2014-05-29T10:30:38.000Z</time>
      </trkpt>
      <trkpt lat="43.67657" lon="6.84349">
        <ele>712.5</ele>
        <time>2014-05-29T10:30:39.000Z</time>
      </trkpt>
      <trkpt lat="43.67657" lon="6.84353">
        <ele>712.5</ele>
        <time>2014-05-29T10:30:40.000Z</time>
      </trkpt>
      <trkpt lat="43.67657" lon="6.84357">
        <ele>712.5</ele>
        <time>2014-05-29T10:30:41.000Z</time>
      </trkpt>
      <trkpt lat="43.67657" lon="6.8436">
        <ele>712.4</ele>
        <time>2014-05-29T10:30:42.000Z</time>
      </trkpt>
      <trkpt lat="43.67661" lon="6.84364">
        <ele>714.1</ele>
        <time>2014-05-29T10:30:43.000Z</time>
      </trkpt>
      <trkpt lat="43.67663" lon="6.84368">
        <ele>714.3</ele>
        <time>2014-05-29T10:30:44.000Z</time>
      </trkpt>
      <trkpt lat="43.67663" lon="6.84372">
        <ele>715.1</ele>
        <time>2014-05-29T10:30:44.999Z</time>
      </trkpt>
      <trkpt lat="43.67663" lon="6.84377">
        <ele>714.6</ele>
        <time>2014-05-29T10:30:46.000Z</time>
      </trkpt>
      <trkpt lat="43.67665" lon="6.84379">
        <ele>715</ele>
        <time>2014-05-29T10:30:47.000Z</time>
      </trkpt>
      <trkpt lat="43.67668" lon="6.84383">
        <ele>717</ele>
        <time>2014-05-29T10:31:05.000Z</time>
      </trkpt>
      <trkpt lat="43.67668" lon="6.84386">
        <ele>717.2</ele>
        <time>2014-05-29T10:31:05.999Z</time>
      </trkpt>
      <trkpt lat="43.6767" lon="6.8439">
        <ele>717.7</ele>
        <time>2014-05-29T10:31:08.000Z</time>
      </trkpt>
      <trkpt lat="43.67669" lon="6.84392">
        <ele>718.1</ele>
        <time>2014-05-29T10:31:09.000Z</time>
      </trkpt>
      <trkpt lat="43.67668" lon="6.84397">
        <ele>718.4</ele>
        <time>2014-05-29T10:31:11.000Z</time>
      </trkpt>
      <trkpt lat="43.67668" lon="6.84399">
        <ele>717.9</ele>
        <time>2014-05-29T10:31:12.000Z</time>
      </trkpt>
      <trkpt lat="43.67666" lon="6.84404">
        <ele>715.8</ele>
        <time>2014-05-29T10:31:12.999Z</time>
      </trkpt>
      <trkpt lat="43.67672" lon="6.84454">
        <ele>724.7</ele>
        <time>2014-05-29T10:31:33.000Z</time>
      </trkpt>
      <trkpt lat="43.67673" lon="6.84456">
        <ele>722.5</ele>
        <time>2014-05-29T10:31:34.000Z</time>
      </trkpt>
      <trkpt lat="43.67675" lon="6.84462">
        <ele>724.6</ele>
        <time>2014-05-29T10:31:34.999Z</time>
      </trkpt>
      <trkpt lat="43.67673" lon="6.84467">
        <ele>721.7</ele>
        <time>2014-05-29T10:31:36.000Z</time>
      </trkpt>
      <trkpt lat="43.67673" lon="6.84471">
        <ele>721.8</ele>
        <time>2014-05-29T10:31:37.000Z</time>
      </trkpt>
      <trkpt lat="43.67674" lon="6.84474">
        <ele>723.9</ele>
        <time>2014-05-29T10:31:37.998Z</time>
      </trkpt>
      <trkpt lat="43.67673" lon="6.84479">
        <ele>721.8</ele>
        <time>2014-05-29T10:31:39.000Z</time>
      </trkpt>
      <trkpt lat="43.67673" lon="6.84482">
        <ele>721.6</ele>
        <time>2014-05-29T10:31:40.000Z</time>
      </trkpt>
      <trkpt lat="43.67673" lon="6.84486">
        <ele>722.6</ele>
        <time>2014-05-29T10:31:40.999Z</time>
      </trkpt>
      <trkpt lat="43.67673" lon="6.8449">
        <ele>723.1</ele>
        <time>2014-05-29T10:31:42.000Z</time>
      </trkpt>
      <trkpt lat="43.67673" lon="6.84494">
        <ele>722.2</ele>
        <time>2014-05-29T10:31:43.000Z</time>
      </trkpt>
      <trkpt lat="43.67673" lon="6.84496">
        <ele>722.1</ele>
        <time>2014-05-29T10:31:44.000Z</time>
      </trkpt>
      <trkpt lat="43.67672" lon="6.845">
        <ele>721.2</ele>
        <time>2014-05-29T10:31:45.000Z</time>
      </trkpt>
      <trkpt lat="43.67673" lon="6.84505">
        <ele>720.5</ele>
        <time>2014-05-29T10:31:46.000Z</time>
      </trkpt>
      <trkpt lat="43.67675" lon="6.84508">
        <ele>721</ele>
        <time>2014-05-29T10:31:46.998Z</time>
      </trkpt>
      <trkpt lat="43.67675" lon="6.84512">
        <ele>720.8</ele>
        <time>2014-05-29T10:31:48.000Z</time>
      </trkpt>
      <trkpt lat="43.67675" lon="6.84515">
        <ele>720.9</ele>
        <time>2014-05-29T10:31:49.000Z</time>
      </trkpt>
      <trkpt lat="43.67672" lon="6.8452">
        <ele>720.9</ele>
        <time>2014-05-29T10:31:49.998Z</time>
      </trkpt>
      <trkpt lat="43.67672" lon="6.84524">
        <ele>721.1</ele>
        <time>2014-05-29T10:31:51.000Z</time>
      </trkpt>
      <trkpt lat="43.6767" lon="6.84529">
        <ele>720.7</ele>
        <time>2014-05-29T10:31:52.000Z</time>
      </trkpt>
      <trkpt lat="43.67668" lon="6.84533">
        <ele>720.8</ele>
        <time>2014-05-29T10:31:53.000Z</time>
      </trkpt>
      <trkpt lat="43.67667" lon="6.84537">
        <ele>720.4</ele>
        <time>2014-05-29T10:31:54.000Z</time>
      </trkpt>
      <trkpt lat="43.67666" lon="6.84541">
        <ele>720</ele>
        <time>2014-05-29T10:31:55.000Z</time>
      </trkpt>
      <trkpt lat="43.67665" lon="6.84545">
        <ele>719.4</ele>
        <time>2014-05-29T10:31:56.000Z</time>
      </trkpt>
      <trkpt lat="43.67664" lon="6.8455">
        <ele>719.2</ele>
        <time>2014-05-29T10:31:57.000Z</time>
      </trkpt>
      <trkpt lat="43.67663" lon="6.84555">
        <ele>719.2</ele>
        <time>2014-05-29T10:31:58.000Z</time>
      </trkpt>
      <trkpt lat="43.67662" lon="6.84559">
        <ele>719</ele>
        <time>2014-05-29T10:31:59.000Z</time>
      </trkpt>
      <trkpt lat="43.67661" lon="6.84563">
        <ele>718.5</ele>
        <time>2014-05-29T10:32:00.000Z</time>
      </trkpt>
      <trkpt lat="43.67661" lon="6.84567">
        <ele>718.2</ele>
        <time>2014-05-29T10:32:01.000Z</time>
      </trkpt>
      <trkpt lat="43.6766" lon="6.84571">
        <ele>718.5</ele>
        <time>2014-05-29T10:32:02.000Z</time>
      </trkpt>
      <trkpt lat="43.67659" lon="6.84576">
        <ele>717.9</ele>
        <time>2014-05-29T10:32:03.000Z</time>
      </trkpt>
      <trkpt lat="43.67659" lon="6.8458">
        <ele>717.5</ele>
        <time>2014-05-29T10:32:04.000Z</time>
      </trkpt>
      <trkpt lat="43.67658" lon="6.84584">
        <ele>717.3</ele>
        <time>2014-05-29T10:32:05.000Z</time>
      </trkpt>
      <trkpt lat="43.67656" lon="6.84588">
        <ele>717.4</ele>
        <time>2014-05-29T10:32:06.000Z</time>
      </trkpt>
      <trkpt lat="43.67655" lon="6.84593">
        <ele>717</ele>
        <time>2014-05-29T10:32:07.000Z</time>
      </trkpt>
      <trkpt lat="43.67654" lon="6.84597">
        <ele>716.4</ele>
        <time>2014-05-29T10:32:08.000Z</time>
      </trkpt>
      <trkpt lat="43.67653" lon="6.84602">
        <ele>716.7</ele>
        <time>2014-05-29T10:32:09.000Z</time>
      </trkpt>
      <trkpt lat="43.67653" lon="6.84606">
        <ele>717.1</ele>
        <time>2014-05-29T10:32:10.000Z</time>
      </trkpt>
      <trkpt lat="43.67653" lon="6.84612">
        <ele>717.1</ele>
        <time>2014-05-29T10:32:11.000Z</time>
      </trkpt>
      <trkpt lat="43.67654" lon="6.84617">
        <ele>717.8</ele>
        <time>2014-05-29T10:32:12.000Z</time>
      </trkpt>
      <trkpt lat="43.67654" lon="6.84622">
        <ele>718.7</ele>
        <time>2014-05-29T10:32:13.000Z</time>
      </trkpt>
      <trkpt lat="43.67655" lon="6.84627">
        <ele>719.1</ele>
        <time>2014-05-29T10:32:14.000Z</time>
      </trkpt>
      <trkpt lat="43.67656" lon="6.84632">
        <ele>719.5</ele>
        <time>2014-05-29T10:32:15.000Z</time>
      </trkpt>
      <trkpt lat="43.67657" lon="6.84637">
        <ele>719.6</ele>
        <time>2014-05-29T10:32:15.998Z</time>
      </trkpt>
      <trkpt lat="43.67659" lon="6.84642">
        <ele>719.4</ele>
        <time>2014-05-29T10:32:17.000Z</time>
      </trkpt>
      <trkpt lat="43.6766" lon="6.84647">
        <ele>720</ele>
        <time>2014-05-29T10:32:18.000Z</time>
      </trkpt>
      <trkpt lat="43.6766" lon="6.84653">
        <ele>720.2</ele>
        <time>2014-05-29T10:32:19.000Z</time>
      </trkpt>
      <trkpt lat="43.6766" lon="6.84658">
        <ele>720.5</ele>
        <time>2014-05-29T10:32:20.000Z</time>
      </trkpt>
      <trkpt lat="43.6766" lon="6.84662">
        <ele>720.4</ele>
        <time>2014-05-29T10:32:21.000Z</time>
      </trkpt>
      <trkpt lat="43.67663" lon="6.84666">
        <ele>724</ele>
        <time>2014-05-29T10:32:22.000Z</time>
      </trkpt>
      <trkpt lat="43.67662" lon="6.84671">
        <ele>723.2</ele>
        <time>2014-05-29T10:32:23.000Z</time>
      </trkpt>
      <trkpt lat="43.67661" lon="6.84675">
        <ele>723.1</ele>
        <time>2014-05-29T10:32:24.000Z</time>
      </trkpt>
      <trkpt lat="43.67661" lon="6.8468">
        <ele>722.7</ele>
        <time>2014-05-29T10:32:25.000Z</time>
      </trkpt>
      <trkpt lat="43.6766" lon="6.84684">
        <ele>723.2</ele>
        <time>2014-05-29T10:32:26.000Z</time>
      </trkpt>
      <trkpt lat="43.6766" lon="6.84688">
        <ele>723.2</ele>
        <time>2014-05-29T10:32:27.000Z</time>
      </trkpt>
      <trkpt lat="43.67659" lon="6.84692">
        <ele>722.9</ele>
        <time>2014-05-29T10:32:28.000Z</time>
      </trkpt>
      <trkpt lat="43.6766" lon="6.84696">
        <ele>723</ele>
        <time>2014-05-29T10:32:29.000Z</time>
      </trkpt>
      <trkpt lat="43.6766" lon="6.84701">
        <ele>722.4</ele>
        <time>2014-05-29T10:32:30.000Z</time>
      </trkpt>
      <trkpt lat="43.67661" lon="6.84706">
        <ele>722.1</ele>
        <time>2014-05-29T10:32:31.457Z</time>
      </trkpt>
      <trkpt lat="43.67661" lon="6.84708">
        <ele>722.1</ele>
        <time>2014-05-29T10:32:32.000Z</time>
      </trkpt>
      <trkpt lat="43.67661" lon="6.84719">
        <ele>721.4</ele>
        <time>2014-05-29T10:32:34.000Z</time>
      </trkpt>
      <trkpt lat="43.67661" lon="6.84725">
        <ele>721.4</ele>
        <time>2014-05-29T10:32:34.998Z</time>
      </trkpt>
      <trkpt lat="43.67662" lon="6.84728">
        <ele>721.9</ele>
        <time>2014-05-29T10:32:36.000Z</time>
      </trkpt>
      <trkpt lat="43.67663" lon="6.84732">
        <ele>721.4</ele>
        <time>2014-05-29T10:32:37.000Z</time>
      </trkpt>
      <trkpt lat="43.67664" lon="6.84737">
        <ele>721.8</ele>
        <time>2014-05-29T10:32:37.999Z</time>
      </trkpt>
      <trkpt lat="43.67664" lon="6.84742">
        <ele>721.7</ele>
        <time>2014-05-29T10:32:39.000Z</time>
      </trkpt>
      <trkpt lat="43.67665" lon="6.84748">
        <ele>721.7</ele>
        <time>2014-05-29T10:32:40.000Z</time>
      </trkpt>
      <trkpt lat="43.67666" lon="6.84753">
        <ele>722.9</ele>
        <time>2014-05-29T10:32:41.000Z</time>
      </trkpt>
      <trkpt lat="43.67666" lon="6.84759">
        <ele>723</ele>
        <time>2014-05-29T10:32:42.000Z</time>
      </trkpt>
      <trkpt lat="43.67666" lon="6.84765">
        <ele>723.6</ele>
        <time>2014-05-29T10:32:43.000Z</time>
      </trkpt>
      <trkpt lat="43.67666" lon="6.84772">
        <ele>723.5</ele>
        <time>2014-05-29T10:32:44.000Z</time>
      </trkpt>
      <trkpt lat="43.67665" lon="6.84776">
        <ele>723.3</ele>
        <time>2014-05-29T10:32:45.000Z</time>
      </trkpt>
      <trkpt lat="43.67663" lon="6.8478">
        <ele>724</ele>
        <time>2014-05-29T10:32:46.000Z</time>
      </trkpt>
      <trkpt lat="43.67662" lon="6.84786">
        <ele>723.2</ele>
        <time>2014-05-29T10:32:46.999Z</time>
      </trkpt>
      <trkpt lat="43.67662" lon="6.84791">
        <ele>722.8</ele>
        <time>2014-05-29T10:32:48.000Z</time>
      </trkpt>
      <trkpt lat="43.67662" lon="6.84797">
        <ele>722.4</ele>
        <time>2014-05-29T10:32:48.999Z</time>
      </trkpt>
      <trkpt lat="43.67661" lon="6.84801">
        <ele>720.7</ele>
        <time>2014-05-29T10:32:50.000Z</time>
      </trkpt>
      <trkpt lat="43.67662" lon="6.84806">
        <ele>720.8</ele>
        <time>2014-05-29T10:32:51.000Z</time>
      </trkpt>
      <trkpt lat="43.67664" lon="6.84811">
        <ele>722.1</ele>
        <time>2014-05-29T10:32:51.999Z</time>
      </trkpt>
      <trkpt lat="43.67665" lon="6.84814">
        <ele>722.2</ele>
        <time>2014-05-29T10:32:53.000Z</time>
      </trkpt>
      <trkpt lat="43.67667" lon="6.84818">
        <ele>722.5</ele>
        <time>2014-05-29T10:32:54.000Z</time>
      </trkpt>
      <trkpt lat="43.67668" lon="6.84821">
        <ele>722.9</ele>
        <time>2014-05-29T10:32:55.000Z</time>
      </trkpt>
      <trkpt lat="43.67669" lon="6.84825">
        <ele>722.7</ele>
        <time>2014-05-29T10:32:56.000Z</time>
      </trkpt>
      <trkpt lat="43.67671" lon="6.8483">
        <ele>725.2</ele>
        <time>2014-05-29T10:32:56.998Z</time>
      </trkpt>
      <trkpt lat="43.67675" lon="6.84835">
        <ele>726.9</ele>
        <time>2014-05-29T10:32:58.000Z</time>
      </trkpt>
      <trkpt lat="43.67677" lon="6.84838">
        <ele>728</ele>
        <time>2014-05-29T10:32:59.000Z</time>
      </trkpt>
      <trkpt lat="43.67678" lon="6.84843">
        <ele>728.4</ele>
        <time>2014-05-29T10:33:00.000Z</time>
      </trkpt>
      <trkpt lat="43.67675" lon="6.84845">
        <ele>726.5</ele>
        <time>2014-05-29T10:33:00.999Z</time>
      </trkpt>
      <trkpt lat="43.67674" lon="6.84848">
        <ele>725.3</ele>
        <time>2014-05-29T10:33:02.000Z</time>
      </trkpt>
      <trkpt lat="43.67673" lon="6.84851">
        <ele>722.6</ele>
        <time>2014-05-29T10:33:03.000Z</time>
      </trkpt>
      <trkpt lat="43.67673" lon="6.84854">
        <ele>721.9</ele>
        <time>2014-05-29T10:33:04.000Z</time>
      </trkpt>
      <trkpt lat="43.67675" lon="6.84859">
        <ele>725</ele>
        <time>2014-05-29T10:33:06.000Z</time>
      </trkpt>
      <trkpt lat="43.67676" lon="6.84861">
        <ele>726</ele>
        <time>2014-05-29T10:33:07.000Z</time>
      </trkpt>
      <trkpt lat="43.67673" lon="6.84863">
        <ele>723.3</ele>
        <time>2014-05-29T10:33:34.000Z</time>
      </trkpt>
      <trkpt lat="43.67671" lon="6.84864">
        <ele>723</ele>
        <time>2014-05-29T10:33:35.000Z</time>
      </trkpt>
      <trkpt lat="43.67667" lon="6.84865">
        <ele>722.9</ele>
        <time>2014-05-29T10:33:44.000Z</time>
      </trkpt>
      <trkpt lat="43.67666" lon="6.84866">
        <ele>722.3</ele>
        <time>2014-05-29T10:33:45.000Z</time>
      </trkpt>
      <trkpt lat="43.67669" lon="6.84862">
        <ele>715.9</ele>
        <time>2014-05-29T10:38:26.000Z</time>
      </trkpt>
      <trkpt lat="43.6767" lon="6.84861">
        <ele>715.7</ele>
        <time>2014-05-29T10:38:27.000Z</time>
      </trkpt>
      <trkpt lat="43.6767" lon="6.84861">
        <ele>716.9</ele>
        <time>2014-05-29T10:39:46.000Z</time>
      </trkpt>
      <trkpt lat="43.67647" lon="6.84869">
        <ele>706.7</ele>
        <time>2014-05-29T10:40:17.000Z</time>
      </trkpt>
      <trkpt lat="43.67645" lon="6.84869">
        <ele>710.2</ele>
        <time>2014-05-29T10:40:18.000Z</time>
      </trkpt>
      <trkpt lat="43.67642" lon="6.84869">
        <ele>706.9</ele>
        <time>2014-05-29T10:40:19.000Z</time>
      </trkpt>
      <trkpt lat="43.67638" lon="6.84871">
        <ele>701.2</ele>
        <time>2014-05-29T10:40:21.000Z</time>
      </trkpt>
      <trkpt lat="43.67637" lon="6.84872">
        <ele>704.4</ele>
        <time>2014-05-29T10:40:22.000Z</time>
      </trkpt>
      <trkpt lat="43.67634" lon="6.84873">
        <ele>703.1</ele>
        <time>2014-05-29T10:40:23.000Z</time>
      </trkpt>
      <trkpt lat="43.67631" lon="6.84873">
        <ele>703.2</ele>
        <time>2014-05-29T10:40:24.000Z</time>
      </trkpt>
      <trkpt lat="43.67629" lon="6.84874">
        <ele>705.7</ele>
        <time>2014-05-29T10:40:25.000Z</time>
      </trkpt>
      <trkpt lat="43.67626" lon="6.84875">
        <ele>705.8</ele>
        <time>2014-05-29T10:40:26.000Z</time>
      </trkpt>
      <trkpt lat="43.67623" lon="6.84875">
        <ele>705.7</ele>
        <time>2014-05-29T10:40:27.000Z</time>
      </trkpt>
      <trkpt lat="43.67621" lon="6.84877">
        <ele>705.7</ele>
        <time>2014-05-29T10:40:28.000Z</time>
      </trkpt>
      <trkpt lat="43.67618" lon="6.8488">
        <ele>706.8</ele>
        <time>2014-05-29T10:40:30.000Z</time>
      </trkpt>
      <trkpt lat="43.67615" lon="6.84882">
        <ele>706.5</ele>
        <time>2014-05-29T10:40:31.459Z</time>
      </trkpt>
      <trkpt lat="43.67613" lon="6.84885">
        <ele>706</ele>
        <time>2014-05-29T10:40:33.000Z</time>
      </trkpt>
      <trkpt lat="43.67609" lon="6.84886">
        <ele>705.6</ele>
        <time>2014-05-29T10:40:34.000Z</time>
      </trkpt>
      <trkpt lat="43.67607" lon="6.84886">
        <ele>706</ele>
        <time>2014-05-29T10:40:35.000Z</time>
      </trkpt>
      <trkpt lat="43.67604" lon="6.84887">
        <ele>704.6</ele>
        <time>2014-05-29T10:40:36.000Z</time>
      </trkpt>
      <trkpt lat="43.676" lon="6.84888">
        <ele>703.9</ele>
        <time>2014-05-29T10:40:38.000Z</time>
      </trkpt>
      <trkpt lat="43.67598" lon="6.84889">
        <ele>704.4</ele>
        <time>2014-05-29T10:40:39.000Z</time>
      </trkpt>
      <trkpt lat="43.67594" lon="6.8489">
        <ele>704.9</ele>
        <time>2014-05-29T10:40:41.000Z</time>
      </trkpt>
      <trkpt lat="43.67593" lon="6.84892">
        <ele>705.8</ele>
        <time>2014-05-29T10:40:42.000Z</time>
      </trkpt>
      <trkpt lat="43.67589" lon="6.84895">
        <ele>707.4</ele>
        <time>2014-05-29T10:40:44.000Z</time>
      </trkpt>
      <trkpt lat="43.67588" lon="6.84897">
        <ele>708.1</ele>
        <time>2014-05-29T10:40:45.000Z</time>
      </trkpt>
      <trkpt lat="43.67585" lon="6.84899">
        <ele>707.7</ele>
        <time>2014-05-29T10:40:46.000Z</time>
      </trkpt>
      <trkpt lat="43.67581" lon="6.84901">
        <ele>708</ele>
        <time>2014-05-29T10:40:47.000Z</time>
      </trkpt>
      <trkpt lat="43.67577" lon="6.84904">
        <ele>708</ele>
        <time>2014-05-29T10:40:48.000Z</time>
      </trkpt>
      <trkpt lat="43.67573" lon="6.84905">
        <ele>707.2</ele>
        <time>2014-05-29T10:40:49.000Z</time>
      </trkpt>
      <trkpt lat="43.6757" lon="6.84906">
        <ele>708.1</ele>
        <time>2014-05-29T10:40:50.000Z</time>
      </trkpt>
      <trkpt lat="43.67567" lon="6.84908">
        <ele>707.8</ele>
        <time>2014-05-29T10:40:51.000Z</time>
      </trkpt>
      <trkpt lat="43.67565" lon="6.84909">
        <ele>708.5</ele>
        <time>2014-05-29T10:40:52.000Z</time>
      </trkpt>
      <trkpt lat="43.67563" lon="6.84909">
        <ele>708.3</ele>
        <time>2014-05-29T10:40:53.000Z</time>
      </trkpt>
      <trkpt lat="43.67559" lon="6.84911">
        <ele>708.7</ele>
        <time>2014-05-29T10:40:55.000Z</time>
      </trkpt>
      <trkpt lat="43.67556" lon="6.84912">
        <ele>708.6</ele>
        <time>2014-05-29T10:40:56.000Z</time>
      </trkpt>
      <trkpt lat="43.67553" lon="6.84913">
        <ele>707.6</ele>
        <time>2014-05-29T10:40:57.000Z</time>
      </trkpt>
      <trkpt lat="43.6755" lon="6.84914">
        <ele>707.1</ele>
        <time>2014-05-29T10:40:58.000Z</time>
      </trkpt>
      <trkpt lat="43.67547" lon="6.84915">
        <ele>706</ele>
        <time>2014-05-29T10:40:59.000Z</time>
      </trkpt>
      <trkpt lat="43.67545" lon="6.84917">
        <ele>705.1</ele>
        <time>2014-05-29T10:41:00.000Z</time>
      </trkpt>
      <trkpt lat="43.67542" lon="6.84917">
        <ele>705.1</ele>
        <time>2014-05-29T10:41:01.000Z</time>
      </trkpt>
      <trkpt lat="43.6754" lon="6.84918">
        <ele>704.6</ele>
        <time>2014-05-29T10:41:02.000Z</time>
      </trkpt>
      <trkpt lat="43.67537" lon="6.8492">
        <ele>704.7</ele>
        <time>2014-05-29T10:41:04.000Z</time>
      </trkpt>
      <trkpt lat="43.67537" lon="6.84924">
        <ele>703.6</ele>
        <time>2014-05-29T10:41:05.000Z</time>
      </trkpt>
      <trkpt lat="43.67533" lon="6.84926">
        <ele>703.9</ele>
        <time>2014-05-29T10:41:07.000Z</time>
      </trkpt>
      <trkpt lat="43.67531" lon="6.84927">
        <ele>703.9</ele>
        <time>2014-05-29T10:41:08.000Z</time>
      </trkpt>
      <trkpt lat="43.67528" lon="6.84927">
        <ele>702.6</ele>
        <time>2014-05-29T10:41:10.000Z</time>
      </trkpt>
      <trkpt lat="43.67526" lon="6.8493">
        <ele>703.1</ele>
        <time>2014-05-29T10:41:11.000Z</time>
      </trkpt>
      <trkpt lat="43.67523" lon="6.84931">
        <ele>702.5</ele>
        <time>2014-05-29T10:41:12.000Z</time>
      </trkpt>
      <trkpt lat="43.67521" lon="6.84933">
        <ele>701.7</ele>
        <time>2014-05-29T10:41:13.000Z</time>
      </trkpt>
      <trkpt lat="43.67518" lon="6.84933">
        <ele>700.3</ele>
        <time>2014-05-29T10:41:14.000Z</time>
      </trkpt>
      <trkpt lat="43.67515" lon="6.84933">
        <ele>699.8</ele>
        <time>2014-05-29T10:41:15.000Z</time>
      </trkpt>
      <trkpt lat="43.67514" lon="6.84936">
        <ele>700.2</ele>
        <time>2014-05-29T10:41:16.000Z</time>
      </trkpt>
      <trkpt lat="43.67512" lon="6.84939">
        <ele>699.5</ele>
        <time>2014-05-29T10:41:17.000Z</time>
      </trkpt>
      <trkpt lat="43.6751" lon="6.84941">
        <ele>696.6</ele>
        <time>2014-05-29T10:41:18.000Z</time>
      </trkpt>
      <trkpt lat="43.67507" lon="6.84943">
        <ele>695</ele>
        <time>2014-05-29T10:41:19.000Z</time>
      </trkpt>
      <trkpt lat="43.67507" lon="6.84946">
        <ele>696.4</ele>
        <time>2014-05-29T10:41:20.000Z</time>
      </trkpt>
      <trkpt lat="43.67505" lon="6.8495">
        <ele>696.5</ele>
        <time>2014-05-29T10:41:21.000Z</time>
      </trkpt>
      <trkpt lat="43.67503" lon="6.84951">
        <ele>695.4</ele>
        <time>2014-05-29T10:41:22.000Z</time>
      </trkpt>
      <trkpt lat="43.675" lon="6.84954">
        <ele>694.4</ele>
        <time>2014-05-29T10:41:23.000Z</time>
      </trkpt>
      <trkpt lat="43.67498" lon="6.84957">
        <ele>693.6</ele>
        <time>2014-05-29T10:41:24.000Z</time>
      </trkpt>
      <trkpt lat="43.67495" lon="6.84959">
        <ele>693.2</ele>
        <time>2014-05-29T10:41:25.000Z</time>
      </trkpt>
      <trkpt lat="43.6749" lon="6.84961">
        <ele>691.6</ele>
        <time>2014-05-29T10:41:26.000Z</time>
      </trkpt>
      <trkpt lat="43.67487" lon="6.84965">
        <ele>692.4</ele>
        <time>2014-05-29T10:41:27.000Z</time>
      </trkpt>
      <trkpt lat="43.67484" lon="6.84968">
        <ele>693.4</ele>
        <time>2014-05-29T10:41:28.000Z</time>
      </trkpt>
      <trkpt lat="43.67481" lon="6.84971">
        <ele>693.1</ele>
        <time>2014-05-29T10:41:29.000Z</time>
      </trkpt>
      <trkpt lat="43.67477" lon="6.84973">
        <ele>693.9</ele>
        <time>2014-05-29T10:41:30.000Z</time>
      </trkpt>
      <trkpt lat="43.67478" lon="6.84973">
        <ele>693.8</ele>
        <time>2014-05-29T10:41:29.795Z</time>
      </trkpt>
      <trkpt lat="43.67467" lon="6.8498">
        <ele>694.1</ele>
        <time>2014-05-29T10:41:33.033Z</time>
      </trkpt>
      <trkpt lat="43.67463" lon="6.84982">
        <ele>694.1</ele>
        <time>2014-05-29T10:41:34.033Z</time>
      </trkpt>
      <trkpt lat="43.6746" lon="6.84984">
        <ele>694.2</ele>
        <time>2014-05-29T10:41:35.033Z</time>
      </trkpt>
      <trkpt lat="43.67456" lon="6.84987">
        <ele>694.3</ele>
        <time>2014-05-29T10:41:36.033Z</time>
      </trkpt>
      <trkpt lat="43.67453" lon="6.84989">
        <ele>694.3</ele>
        <time>2014-05-29T10:41:37.033Z</time>
      </trkpt>
      <trkpt lat="43.6745" lon="6.84991">
        <ele>694.4</ele>
        <time>2014-05-29T10:41:38.033Z</time>
      </trkpt>
      <trkpt lat="43.67443" lon="6.84996">
        <ele>700.9</ele>
        <time>2014-05-29T10:41:42.000Z</time>
      </trkpt>
      <trkpt lat="43.67444" lon="6.85">
        <ele>698.8</ele>
        <time>2014-05-29T10:41:43.000Z</time>
      </trkpt>
      <trkpt lat="43.67439" lon="6.84999">
        <ele>696.3</ele>
        <time>2014-05-29T10:41:44.000Z</time>
      </trkpt>
      <trkpt lat="43.67436" lon="6.85002">
        <ele>694.6</ele>
        <time>2014-05-29T10:41:46.000Z</time>
      </trkpt>
      <trkpt lat="43.67436" lon="6.85005">
        <ele>695</ele>
        <time>2014-05-29T10:41:47.000Z</time>
      </trkpt>
      <trkpt lat="43.67434" lon="6.85006">
        <ele>695.4</ele>
        <time>2014-05-29T10:41:48.000Z</time>
      </trkpt>
      <trkpt lat="43.67431" lon="6.85006">
        <ele>695.3</ele>
        <time>2014-05-29T10:41:49.000Z</time>
      </trkpt>
      <trkpt lat="43.67428" lon="6.85009">
        <ele>695.9</ele>
        <time>2014-05-29T10:41:51.000Z</time>
      </trkpt>
      <trkpt lat="43.67427" lon="6.8501">
        <ele>696</ele>
        <time>2014-05-29T10:41:52.000Z</time>
      </trkpt>
      <trkpt lat="43.67425" lon="6.85011">
        <ele>696.3</ele>
        <time>2014-05-29T10:41:53.000Z</time>
      </trkpt>
      <trkpt lat="43.67423" lon="6.85014">
        <ele>696.2</ele>
        <time>2014-05-29T10:41:54.000Z</time>
      </trkpt>
      <trkpt lat="43.67419" lon="6.85016">
        <ele>694.8</ele>
        <time>2014-05-29T10:41:55.000Z</time>
      </trkpt>
      <trkpt lat="43.67416" lon="6.85019">
        <ele>694.7</ele>
        <time>2014-05-29T10:41:56.000Z</time>
      </trkpt>
      <trkpt lat="43.67413" lon="6.85023">
        <ele>694.1</ele>
        <time>2014-05-29T10:41:57.000Z</time>
      </trkpt>
      <trkpt lat="43.6741" lon="6.85026">
        <ele>693.5</ele>
        <time>2014-05-29T10:41:58.000Z</time>
      </trkpt>
      <trkpt lat="43.67408" lon="6.8503">
        <ele>694.3</ele>
        <time>2014-05-29T10:41:59.000Z</time>
      </trkpt>
      <trkpt lat="43.67405" lon="6.85033">
        <ele>694.7</ele>
        <time>2014-05-29T10:42:00.000Z</time>
      </trkpt>
      <trkpt lat="43.67401" lon="6.85035">
        <ele>694.1</ele>
        <time>2014-05-29T10:42:01.000Z</time>
      </trkpt>
      <trkpt lat="43.67398" lon="6.85037">
        <ele>692.2</ele>
        <time>2014-05-29T10:42:02.000Z</time>
      </trkpt>
      <trkpt lat="43.67396" lon="6.8504">
        <ele>692.2</ele>
        <time>2014-05-29T10:42:03.000Z</time>
      </trkpt>
      <trkpt lat="43.67393" lon="6.85042">
        <ele>691.8</ele>
        <time>2014-05-29T10:42:04.000Z</time>
      </trkpt>
      <trkpt lat="43.6739" lon="6.85044">
        <ele>691.4</ele>
        <time>2014-05-29T10:42:05.000Z</time>
      </trkpt>
      <trkpt lat="43.67388" lon="6.85047">
        <ele>692.4</ele>
        <time>2014-05-29T10:42:06.000Z</time>
      </trkpt>
      <trkpt lat="43.67384" lon="6.85049">
        <ele>692.6</ele>
        <time>2014-05-29T10:42:07.000Z</time>
      </trkpt>
      <trkpt lat="43.6738" lon="6.85051">
        <ele>692.4</ele>
        <time>2014-05-29T10:42:08.000Z</time>
      </trkpt>
      <trkpt lat="43.67377" lon="6.85052">
        <ele>691.4</ele>
        <time>2014-05-29T10:42:09.000Z</time>
      </trkpt>
      <trkpt lat="43.67373" lon="6.85054">
        <ele>691.6</ele>
        <time>2014-05-29T10:42:10.000Z</time>
      </trkpt>
      <trkpt lat="43.67369" lon="6.85055">
        <ele>691.3</ele>
        <time>2014-05-29T10:42:11.000Z</time>
      </trkpt>
      <trkpt lat="43.67366" lon="6.85057">
        <ele>690.9</ele>
        <time>2014-05-29T10:42:12.000Z</time>
      </trkpt>
      <trkpt lat="43.67363" lon="6.8506">
        <ele>690.4</ele>
        <time>2014-05-29T10:42:13.000Z</time>
      </trkpt>
      <trkpt lat="43.67362" lon="6.85062">
        <ele>690.1</ele>
        <time>2014-05-29T10:42:14.000Z</time>
      </trkpt>
      <trkpt lat="43.67361" lon="6.85066">
        <ele>689</ele>
        <time>2014-05-29T10:42:23.000Z</time>
      </trkpt>
      <trkpt lat="43.67361" lon="6.85068">
        <ele>689.3</ele>
        <time>2014-05-29T10:42:24.000Z</time>
      </trkpt>
      <trkpt lat="43.6736" lon="6.85071">
        <ele>690.2</ele>
        <time>2014-05-29T10:42:25.000Z</time>
      </trkpt>
      <trkpt lat="43.67359" lon="6.85075">
        <ele>689.9</ele>
        <time>2014-05-29T10:42:26.000Z</time>
      </trkpt>
      <trkpt lat="43.67357" lon="6.85078">
        <ele>689.7</ele>
        <time>2014-05-29T10:42:26.999Z</time>
      </trkpt>
      <trkpt lat="43.67356" lon="6.85081">
        <ele>689.9</ele>
        <time>2014-05-29T10:42:28.000Z</time>
      </trkpt>
      <trkpt lat="43.67353" lon="6.85082">
        <ele>691</ele>
        <time>2014-05-29T10:42:29.000Z</time>
      </trkpt>
      <trkpt lat="43.6735" lon="6.85082">
        <ele>690.5</ele>
        <time>2014-05-29T10:42:30.000Z</time>
      </trkpt>
      <trkpt lat="43.67346" lon="6.85082">
        <ele>690.6</ele>
        <time>2014-05-29T10:42:31.447Z</time>
      </trkpt>
      <trkpt lat="43.67342" lon="6.85083">
        <ele>690.9</ele>
        <time>2014-05-29T10:42:33.000Z</time>
      </trkpt>
      <trkpt lat="43.67339" lon="6.85084">
        <ele>690.4</ele>
        <time>2014-05-29T10:42:34.000Z</time>
      </trkpt>
      <trkpt lat="43.67336" lon="6.85085">
        <ele>690.8</ele>
        <time>2014-05-29T10:42:35.000Z</time>
      </trkpt>
      <trkpt lat="43.67333" lon="6.85088">
        <ele>690.6</ele>
        <time>2014-05-29T10:42:37.000Z</time>
      </trkpt>
      <trkpt lat="43.67331" lon="6.8509">
        <ele>691.3</ele>
        <time>2014-05-29T10:42:37.999Z</time>
      </trkpt>
      <trkpt lat="43.67329" lon="6.85092">
        <ele>691.5</ele>
        <time>2014-05-29T10:42:39.000Z</time>
      </trkpt>
      <trkpt lat="43.67327" lon="6.85094">
        <ele>691.8</ele>
        <time>2014-05-29T10:42:40.000Z</time>
      </trkpt>
      <trkpt lat="43.67324" lon="6.85095">
        <ele>691.5</ele>
        <time>2014-05-29T10:42:41.000Z</time>
      </trkpt>
      <trkpt lat="43.67322" lon="6.85096">
        <ele>691.3</ele>
        <time>2014-05-29T10:42:42.000Z</time>
      </trkpt>
      <trkpt lat="43.6732" lon="6.85097">
        <ele>691.1</ele>
        <time>2014-05-29T10:42:43.000Z</time>
      </trkpt>
      <trkpt lat="43.67318" lon="6.85094">
        <ele>689.8</ele>
        <time>2014-05-29T10:42:44.000Z</time>
      </trkpt>
      <trkpt lat="43.67315" lon="6.85094">
        <ele>689.4</ele>
        <time>2014-05-29T10:42:45.000Z</time>
      </trkpt>
      <trkpt lat="43.67313" lon="6.85092">
        <ele>689.7</ele>
        <time>2014-05-29T10:42:46.000Z</time>
      </trkpt>
      <trkpt lat="43.6731" lon="6.85091">
        <ele>689.4</ele>
        <time>2014-05-29T10:42:48.000Z</time>
      </trkpt>
      <trkpt lat="43.67308" lon="6.85091">
        <ele>688.9</ele>
        <time>2014-05-29T10:42:49.000Z</time>
      </trkpt>
      <trkpt lat="43.67305" lon="6.85092">
        <ele>689.5</ele>
        <time>2014-05-29T10:42:50.000Z</time>
      </trkpt>
      <trkpt lat="43.67302" lon="6.85093">
        <ele>690.1</ele>
        <time>2014-05-29T10:42:51.000Z</time>
      </trkpt>
      <trkpt lat="43.67298" lon="6.85093">
        <ele>688.7</ele>
        <time>2014-05-29T10:42:52.000Z</time>
      </trkpt>
      <trkpt lat="43.67294" lon="6.85093">
        <ele>688.3</ele>
        <time>2014-05-29T10:42:53.000Z</time>
      </trkpt>
      <trkpt lat="43.67291" lon="6.85093">
        <ele>687.6</ele>
        <time>2014-05-29T10:42:54.000Z</time>
      </trkpt>
      <trkpt lat="43.67288" lon="6.85094">
        <ele>687.2</ele>
        <time>2014-05-29T10:42:55.000Z</time>
      </trkpt>
      <trkpt lat="43.67285" lon="6.85093">
        <ele>686.5</ele>
        <time>2014-05-29T10:42:56.000Z</time>
      </trkpt>
      <trkpt lat="43.67282" lon="6.85092">
        <ele>686.1</ele>
        <time>2014-05-29T10:42:57.000Z</time>
      </trkpt>
      <trkpt lat="43.6728" lon="6.8509">
        <ele>685.3</ele>
        <time>2014-05-29T10:42:58.000Z</time>
      </trkpt>
      <trkpt lat="43.67278" lon="6.85089">
        <ele>685.1</ele>
        <time>2014-05-29T10:42:59.000Z</time>
      </trkpt>
      <trkpt lat="43.67274" lon="6.85089">
        <ele>685.1</ele>
        <time>2014-05-29T10:43:00.000Z</time>
      </trkpt>
      <trkpt lat="43.67271" lon="6.85088">
        <ele>685.3</ele>
        <time>2014-05-29T10:43:01.000Z</time>
      </trkpt>
      <trkpt lat="43.67268" lon="6.85087">
        <ele>685.6</ele>
        <time>2014-05-29T10:43:02.000Z</time>
      </trkpt>
      <trkpt lat="43.67264" lon="6.85086">
        <ele>686.2</ele>
        <time>2014-05-29T10:43:03.000Z</time>
      </trkpt>
      <trkpt lat="43.67261" lon="6.85087">
        <ele>686.1</ele>
        <time>2014-05-29T10:43:04.000Z</time>
      </trkpt>
      <trkpt lat="43.67258" lon="6.85089">
        <ele>686.1</ele>
        <time>2014-05-29T10:43:05.000Z</time>
      </trkpt>
      <trkpt lat="43.67255" lon="6.85091">
        <ele>686.3</ele>
        <time>2014-05-29T10:43:06.000Z</time>
      </trkpt>
      <trkpt lat="43.67252" lon="6.85093">
        <ele>686</ele>
        <time>2014-05-29T10:43:07.000Z</time>
      </trkpt>
      <trkpt lat="43.67248" lon="6.85094">
        <ele>685.1</ele>
        <time>2014-05-29T10:43:08.000Z</time>
      </trkpt>
      <trkpt lat="43.67245" lon="6.85096">
        <ele>684.8</ele>
        <time>2014-05-29T10:43:09.000Z</time>
      </trkpt>
      <trkpt lat="43.67242" lon="6.85098">
        <ele>685.3</ele>
        <time>2014-05-29T10:43:10.000Z</time>
      </trkpt>
      <trkpt lat="43.67239" lon="6.85099">
        <ele>685.8</ele>
        <time>2014-05-29T10:43:11.000Z</time>
      </trkpt>
      <trkpt lat="43.67236" lon="6.851">
        <ele>685.2</ele>
        <time>2014-05-29T10:43:12.000Z</time>
      </trkpt>
      <trkpt lat="43.67232" lon="6.851">
        <ele>684.9</ele>
        <time>2014-05-29T10:43:13.000Z</time>
      </trkpt>
      <trkpt lat="43.67228" lon="6.851">
        <ele>684.4</ele>
        <time>2014-05-29T10:43:14.000Z</time>
      </trkpt>
      <trkpt lat="43.67225" lon="6.85101">
        <ele>684.8</ele>
        <time>2014-05-29T10:43:15.000Z</time>
      </trkpt>
      <trkpt lat="43.67222" lon="6.85102">
        <ele>684.4</ele>
        <time>2014-05-29T10:43:16.000Z</time>
      </trkpt>
      <trkpt lat="43.67219" lon="6.85102">
        <ele>683.6</ele>
        <time>2014-05-29T10:43:17.000Z</time>
      </trkpt>
      <trkpt lat="43.67216" lon="6.85103">
        <ele>683</ele>
        <time>2014-05-29T10:43:18.000Z</time>
      </trkpt>
      <trkpt lat="43.67213" lon="6.85105">
        <ele>681</ele>
        <time>2014-05-29T10:43:19.000Z</time>
      </trkpt>
      <trkpt lat="43.6721" lon="6.85105">
        <ele>680.2</ele>
        <time>2014-05-29T10:43:20.000Z</time>
      </trkpt>
      <trkpt lat="43.67207" lon="6.85105">
        <ele>679.1</ele>
        <time>2014-05-29T10:43:21.000Z</time>
      </trkpt>
      <trkpt lat="43.67204" lon="6.85104">
        <ele>678.9</ele>
        <time>2014-05-29T10:43:22.000Z</time>
      </trkpt>
      <trkpt lat="43.67202" lon="6.85104">
        <ele>679.2</ele>
        <time>2014-05-29T10:43:23.000Z</time>
      </trkpt>
      <trkpt lat="43.67199" lon="6.85103">
        <ele>679.2</ele>
        <time>2014-05-29T10:43:24.000Z</time>
      </trkpt>
      <trkpt lat="43.67196" lon="6.85104">
        <ele>678.8</ele>
        <time>2014-05-29T10:43:25.000Z</time>
      </trkpt>
      <trkpt lat="43.67194" lon="6.85105">
        <ele>679.2</ele>
        <time>2014-05-29T10:43:26.000Z</time>
      </trkpt>
      <trkpt lat="43.67191" lon="6.85106">
        <ele>679.2</ele>
        <time>2014-05-29T10:43:27.000Z</time>
      </trkpt>
      <trkpt lat="43.67189" lon="6.85108">
        <ele>680.3</ele>
        <time>2014-05-29T10:43:28.000Z</time>
      </trkpt>
      <trkpt lat="43.67186" lon="6.85109">
        <ele>681.1</ele>
        <time>2014-05-29T10:43:29.000Z</time>
      </trkpt>
      <trkpt lat="43.67184" lon="6.8511">
        <ele>681.7</ele>
        <time>2014-05-29T10:43:29.803Z</time>
      </trkpt>
      <trkpt lat="43.67175" lon="6.85113">
        <ele>681.5</ele>
        <time>2014-05-29T10:43:33.036Z</time>
      </trkpt>
      <trkpt lat="43.67172" lon="6.85114">
        <ele>681.4</ele>
        <time>2014-05-29T10:43:34.036Z</time>
      </trkpt>
      <trkpt lat="43.67169" lon="6.85115">
        <ele>681.4</ele>
        <time>2014-05-29T10:43:35.036Z</time>
      </trkpt>
      <trkpt lat="43.67166" lon="6.85116">
        <ele>681.3</ele>
        <time>2014-05-29T10:43:36.036Z</time>
      </trkpt>
      <trkpt lat="43.67163" lon="6.85117">
        <ele>681.3</ele>
        <time>2014-05-29T10:43:37.036Z</time>
      </trkpt>
      <trkpt lat="43.6716" lon="6.85118">
        <ele>681.2</ele>
        <time>2014-05-29T10:43:38.036Z</time>
      </trkpt>
      <trkpt lat="43.67157" lon="6.85119">
        <ele>681.2</ele>
        <time>2014-05-29T10:43:39.036Z</time>
      </trkpt>
      <trkpt lat="43.67157" lon="6.85114">
        <ele>685.5</ele>
        <time>2014-05-29T10:43:41.000Z</time>
      </trkpt>
      <trkpt lat="43.67154" lon="6.85111">
        <ele>685.8</ele>
        <time>2014-05-29T10:43:42.000Z</time>
      </trkpt>
      <trkpt lat="43.6715" lon="6.85111">
        <ele>685.2</ele>
        <time>2014-05-29T10:43:44.000Z</time>
      </trkpt>
      <trkpt lat="43.67148" lon="6.85109">
        <ele>685.7</ele>
        <time>2014-05-29T10:43:45.000Z</time>
      </trkpt>
      <trkpt lat="43.67145" lon="6.85107">
        <ele>684.4</ele>
        <time>2014-05-29T10:43:46.000Z</time>
      </trkpt>
      <trkpt lat="43.67143" lon="6.85105">
        <ele>686.4</ele>
        <time>2014-05-29T10:43:47.000Z</time>
      </trkpt>
      <trkpt lat="43.67141" lon="6.85102">
        <ele>686.3</ele>
        <time>2014-05-29T10:43:48.000Z</time>
      </trkpt>
      <trkpt lat="43.67138" lon="6.85098">
        <ele>685.7</ele>
        <time>2014-05-29T10:43:49.000Z</time>
      </trkpt>
      <trkpt lat="43.67136" lon="6.85095">
        <ele>686.1</ele>
        <time>2014-05-29T10:43:50.000Z</time>
      </trkpt>
      <trkpt lat="43.67134" lon="6.85093">
        <ele>686.2</ele>
        <time>2014-05-29T10:43:51.000Z</time>
      </trkpt>
      <trkpt lat="43.67132" lon="6.8509">
        <ele>685.1</ele>
        <time>2014-05-29T10:43:52.000Z</time>
      </trkpt>
      <trkpt lat="43.67129" lon="6.85088">
        <ele>684.6</ele>
        <time>2014-05-29T10:43:53.000Z</time>
      </trkpt>
      <trkpt lat="43.67126" lon="6.85084">
        <ele>684.6</ele>
        <time>2014-05-29T10:43:54.000Z</time>
      </trkpt>
      <trkpt lat="43.67122" lon="6.8508">
        <ele>683.7</ele>
        <time>2014-05-29T10:43:55.000Z</time>
      </trkpt>
      <trkpt lat="43.67119" lon="6.85076">
        <ele>684.2</ele>
        <time>2014-05-29T10:43:56.000Z</time>
      </trkpt>
      <trkpt lat="43.67115" lon="6.85073">
        <ele>685.2</ele>
        <time>2014-05-29T10:43:57.000Z</time>
      </trkpt>
      <trkpt lat="43.67111" lon="6.8507">
        <ele>685</ele>
        <time>2014-05-29T10:43:58.000Z</time>
      </trkpt>
      <trkpt lat="43.67106" lon="6.85068">
        <ele>685</ele>
        <time>2014-05-29T10:43:59.000Z</time>
      </trkpt>
      <trkpt lat="43.67102" lon="6.85066">
        <ele>684</ele>
        <time>2014-05-29T10:44:00.000Z</time>
      </trkpt>
      <trkpt lat="43.67098" lon="6.85064">
        <ele>682.8</ele>
        <time>2014-05-29T10:44:01.000Z</time>
      </trkpt>
      <trkpt lat="43.67093" lon="6.85062">
        <ele>682.7</ele>
        <time>2014-05-29T10:44:02.000Z</time>
      </trkpt>
      <trkpt lat="43.67088" lon="6.85059">
        <ele>682.7</ele>
        <time>2014-05-29T10:44:03.000Z</time>
      </trkpt>
      <trkpt lat="43.67083" lon="6.85058">
        <ele>682.4</ele>
        <time>2014-05-29T10:44:04.000Z</time>
      </trkpt>
      <trkpt lat="43.67078" lon="6.85057">
        <ele>682.3</ele>
        <time>2014-05-29T10:44:05.000Z</time>
      </trkpt>
      <trkpt lat="43.67073" lon="6.85057">
        <ele>681.9</ele>
        <time>2014-05-29T10:44:06.000Z</time>
      </trkpt>
      <trkpt lat="43.67068" lon="6.85057">
        <ele>681.2</ele>
        <time>2014-05-29T10:44:07.000Z</time>
      </trkpt>
      <trkpt lat="43.67063" lon="6.85056">
        <ele>681.2</ele>
        <time>2014-05-29T10:44:08.000Z</time>
      </trkpt>
      <trkpt lat="43.67059" lon="6.85055">
        <ele>680.5</ele>
        <time>2014-05-29T10:44:09.000Z</time>
      </trkpt>
      <trkpt lat="43.67056" lon="6.85053">
        <ele>680.7</ele>
        <time>2014-05-29T10:44:10.000Z</time>
      </trkpt>
      <trkpt lat="43.67053" lon="6.85055">
        <ele>679.3</ele>
        <time>2014-05-29T10:44:11.000Z</time>
      </trkpt>
      <trkpt lat="43.67049" lon="6.85053">
        <ele>679.7</ele>
        <time>2014-05-29T10:44:13.000Z</time>
      </trkpt>
      <trkpt lat="43.67047" lon="6.85052">
        <ele>679.6</ele>
        <time>2014-05-29T10:44:14.000Z</time>
      </trkpt>
      <trkpt lat="43.67044" lon="6.85051">
        <ele>679.8</ele>
        <time>2014-05-29T10:44:15.000Z</time>
      </trkpt>
      <trkpt lat="43.67042" lon="6.8505">
        <ele>679.5</ele>
        <time>2014-05-29T10:44:16.000Z</time>
      </trkpt>
      <trkpt lat="43.67038" lon="6.8505">
        <ele>679.8</ele>
        <time>2014-05-29T10:44:17.000Z</time>
      </trkpt>
      <trkpt lat="43.67032" lon="6.85049">
        <ele>679.9</ele>
        <time>2014-05-29T10:44:18.000Z</time>
      </trkpt>
      <trkpt lat="43.67028" lon="6.85048">
        <ele>679.5</ele>
        <time>2014-05-29T10:44:19.000Z</time>
      </trkpt>
      <trkpt lat="43.67024" lon="6.85047">
        <ele>678.5</ele>
        <time>2014-05-29T10:44:20.000Z</time>
      </trkpt>
      <trkpt lat="43.67021" lon="6.85046">
        <ele>677.5</ele>
        <time>2014-05-29T10:44:21.000Z</time>
      </trkpt>
      <trkpt lat="43.67016" lon="6.85043">
        <ele>677.5</ele>
        <time>2014-05-29T10:44:22.000Z</time>
      </trkpt>
      <trkpt lat="43.67012" lon="6.85042">
        <ele>677.1</ele>
        <time>2014-05-29T10:44:23.000Z</time>
      </trkpt>
      <trkpt lat="43.67009" lon="6.85042">
        <ele>676.6</ele>
        <time>2014-05-29T10:44:24.000Z</time>
      </trkpt>
      <trkpt lat="43.67006" lon="6.85041">
        <ele>676.8</ele>
        <time>2014-05-29T10:44:25.000Z</time>
      </trkpt>
      <trkpt lat="43.67004" lon="6.8504">
        <ele>677.4</ele>
        <time>2014-05-29T10:44:26.000Z</time>
      </trkpt>
      <trkpt lat="43.67002" lon="6.85038">
        <ele>677.4</ele>
        <time>2014-05-29T10:44:27.000Z</time>
      </trkpt>
      <trkpt lat="43.66999" lon="6.85036">
        <ele>677.4</ele>
        <time>2014-05-29T10:44:28.000Z</time>
      </trkpt>
      <trkpt lat="43.66996" lon="6.85034">
        <ele>677.8</ele>
        <time>2014-05-29T10:44:29.000Z</time>
      </trkpt>
      <trkpt lat="43.66994" lon="6.85033">
        <ele>678.5</ele>
        <time>2014-05-29T10:44:30.000Z</time>
      </trkpt>
      <trkpt lat="43.66989" lon="6.85031">
        <ele>679.1</ele>
        <time>2014-05-29T10:44:31.455Z</time>
      </trkpt>
      <trkpt lat="43.66984" lon="6.85031">
        <ele>679</ele>
        <time>2014-05-29T10:44:33.000Z</time>
      </trkpt>
      <trkpt lat="43.66978" lon="6.8503">
        <ele>671.6</ele>
        <time>2014-05-29T10:44:34.000Z</time>
      </trkpt>
      <trkpt lat="43.66973" lon="6.85032">
        <ele>669.7</ele>
        <time>2014-05-29T10:44:35.000Z</time>
      </trkpt>
      <trkpt lat="43.66968" lon="6.85033">
        <ele>667.8</ele>
        <time>2014-05-29T10:44:36.000Z</time>
      </trkpt>
      <trkpt lat="43.66964" lon="6.85035">
        <ele>668</ele>
        <time>2014-05-29T10:44:37.000Z</time>
      </trkpt>
      <trkpt lat="43.6696" lon="6.85035">
        <ele>667.9</ele>
        <time>2014-05-29T10:44:38.000Z</time>
      </trkpt>
      <trkpt lat="43.66955" lon="6.85036">
        <ele>668.2</ele>
        <time>2014-05-29T10:44:39.000Z</time>
      </trkpt>
      <trkpt lat="43.66951" lon="6.85037">
        <ele>668.2</ele>
        <time>2014-05-29T10:44:40.000Z</time>
      </trkpt>
      <trkpt lat="43.66947" lon="6.8504">
        <ele>667.7</ele>
        <time>2014-05-29T10:44:41.000Z</time>
      </trkpt>
      <trkpt lat="43.66943" lon="6.85041">
        <ele>667.9</ele>
        <time>2014-05-29T10:44:42.000Z</time>
      </trkpt>
      <trkpt lat="43.66938" lon="6.85043">
        <ele>667.6</ele>
        <time>2014-05-29T10:44:43.000Z</time>
      </trkpt>
      <trkpt lat="43.66934" lon="6.85045">
        <ele>667.8</ele>
        <time>2014-05-29T10:44:44.000Z</time>
      </trkpt>
      <trkpt lat="43.66931" lon="6.85046">
        <ele>668.4</ele>
        <time>2014-05-29T10:44:45.000Z</time>
      </trkpt>
      <trkpt lat="43.66928" lon="6.85048">
        <ele>669.2</ele>
        <time>2014-05-29T10:44:46.000Z</time>
      </trkpt>
      <trkpt lat="43.66925" lon="6.85049">
        <ele>669.2</ele>
        <time>2014-05-29T10:44:47.000Z</time>
      </trkpt>
      <trkpt lat="43.66849" lon="6.85018">
        <ele>683.2</ele>
        <time>2014-05-29T10:45:16.713Z</time>
      </trkpt>
      <trkpt lat="43.66842" lon="6.85016">
        <ele>679</ele>
        <time>2014-05-29T10:45:18.000Z</time>
      </trkpt>
      <trkpt lat="43.66839" lon="6.85013">
        <ele>676.8</ele>
        <time>2014-05-29T10:45:19.000Z</time>
      </trkpt>
      <trkpt lat="43.66832" lon="6.8501">
        <ele>674.2</ele>
        <time>2014-05-29T10:45:20.000Z</time>
      </trkpt>
      <trkpt lat="43.66827" lon="6.85006">
        <ele>674.3</ele>
        <time>2014-05-29T10:45:21.000Z</time>
      </trkpt>
      <trkpt lat="43.66823" lon="6.85004">
        <ele>674.1</ele>
        <time>2014-05-29T10:45:22.000Z</time>
      </trkpt>
      <trkpt lat="43.6682" lon="6.85">
        <ele>674.2</ele>
        <time>2014-05-29T10:45:23.000Z</time>
      </trkpt>
      <trkpt lat="43.66817" lon="6.84997">
        <ele>675.1</ele>
        <time>2014-05-29T10:45:24.000Z</time>
      </trkpt>
      <trkpt lat="43.66813" lon="6.84992">
        <ele>675</ele>
        <time>2014-05-29T10:45:25.000Z</time>
      </trkpt>
      <trkpt lat="43.66809" lon="6.84988">
        <ele>675.8</ele>
        <time>2014-05-29T10:45:26.000Z</time>
      </trkpt>
      <trkpt lat="43.66804" lon="6.84985">
        <ele>675.1</ele>
        <time>2014-05-29T10:45:27.000Z</time>
      </trkpt>
      <trkpt lat="43.668" lon="6.84982">
        <ele>673.6</ele>
        <time>2014-05-29T10:45:28.000Z</time>
      </trkpt>
      <trkpt lat="43.66796" lon="6.84979">
        <ele>673.9</ele>
        <time>2014-05-29T10:45:29.000Z</time>
      </trkpt>
      <trkpt lat="43.66791" lon="6.84976">
        <ele>674</ele>
        <time>2014-05-29T10:45:30.000Z</time>
      </trkpt>
      <trkpt lat="43.66786" lon="6.84972">
        <ele>674.3</ele>
        <time>2014-05-29T10:45:31.485Z</time>
      </trkpt>
      <trkpt lat="43.6678" lon="6.84968">
        <ele>673.8</ele>
        <time>2014-05-29T10:45:33.000Z</time>
      </trkpt>
      <trkpt lat="43.66775" lon="6.84965">
        <ele>674.7</ele>
        <time>2014-05-29T10:45:34.000Z</time>
      </trkpt>
      <trkpt lat="43.66772" lon="6.84962">
        <ele>673.8</ele>
        <time>2014-05-29T10:45:35.000Z</time>
      </trkpt>
      <trkpt lat="43.6677" lon="6.8496">
        <ele>673.5</ele>
        <time>2014-05-29T10:45:36.000Z</time>
      </trkpt>
      <trkpt lat="43.66767" lon="6.84957">
        <ele>673.7</ele>
        <time>2014-05-29T10:45:37.000Z</time>
      </trkpt>
      <trkpt lat="43.66764" lon="6.84956">
        <ele>672.8</ele>
        <time>2014-05-29T10:45:38.000Z</time>
      </trkpt>
      <trkpt lat="43.66759" lon="6.84953">
        <ele>672</ele>
        <time>2014-05-29T10:45:39.000Z</time>
      </trkpt>
      <trkpt lat="43.66755" lon="6.8495">
        <ele>672.1</ele>
        <time>2014-05-29T10:45:40.000Z</time>
      </trkpt>
      <trkpt lat="43.66749" lon="6.84948">
        <ele>672.3</ele>
        <time>2014-05-29T10:45:41.000Z</time>
      </trkpt>
      <trkpt lat="43.66745" lon="6.84945">
        <ele>671.8</ele>
        <time>2014-05-29T10:45:42.000Z</time>
      </trkpt>
      <trkpt lat="43.6674" lon="6.84943">
        <ele>672.3</ele>
        <time>2014-05-29T10:45:43.000Z</time>
      </trkpt>
      <trkpt lat="43.66736" lon="6.84941">
        <ele>673.1</ele>
        <time>2014-05-29T10:45:44.000Z</time>
      </trkpt>
      <trkpt lat="43.66732" lon="6.84938">
        <ele>673.8</ele>
        <time>2014-05-29T10:45:45.000Z</time>
      </trkpt>
      <trkpt lat="43.66729" lon="6.84936">
        <ele>672.9</ele>
        <time>2014-05-29T10:45:46.000Z</time>
      </trkpt>
      <trkpt lat="43.66727" lon="6.84934">
        <ele>674.6</ele>
        <time>2014-05-29T10:45:47.000Z</time>
      </trkpt>
      <trkpt lat="43.66723" lon="6.84931">
        <ele>675</ele>
        <time>2014-05-29T10:45:48.000Z</time>
      </trkpt>
      <trkpt lat="43.6672" lon="6.84929">
        <ele>674.6</ele>
        <time>2014-05-29T10:45:49.000Z</time>
      </trkpt>
      <trkpt lat="43.66716" lon="6.84928">
        <ele>674</ele>
        <time>2014-05-29T10:45:50.000Z</time>
      </trkpt>
      <trkpt lat="43.66714" lon="6.84927">
        <ele>674.4</ele>
        <time>2014-05-29T10:45:51.000Z</time>
      </trkpt>
      <trkpt lat="43.66711" lon="6.84925">
        <ele>673.2</ele>
        <time>2014-05-29T10:45:52.000Z</time>
      </trkpt>
      <trkpt lat="43.66708" lon="6.84922">
        <ele>672.9</ele>
        <time>2014-05-29T10:45:53.000Z</time>
      </trkpt>
      <trkpt lat="43.66705" lon="6.8492">
        <ele>673.5</ele>
        <time>2014-05-29T10:45:54.000Z</time>
      </trkpt>
      <trkpt lat="43.66703" lon="6.84917">
        <ele>673.2</ele>
        <time>2014-05-29T10:45:55.000Z</time>
      </trkpt>
      <trkpt lat="43.667" lon="6.84915">
        <ele>673.2</ele>
        <time>2014-05-29T10:45:56.000Z</time>
      </trkpt>
      <trkpt lat="43.66697" lon="6.84913">
        <ele>673.3</ele>
        <time>2014-05-29T10:45:57.000Z</time>
      </trkpt>
      <trkpt lat="43.66694" lon="6.84911">
        <ele>674.3</ele>
        <time>2014-05-29T10:45:58.000Z</time>
      </trkpt>
      <trkpt lat="43.66691" lon="6.8491">
        <ele>674.1</ele>
        <time>2014-05-29T10:45:59.000Z</time>
      </trkpt>
      <trkpt lat="43.66688" lon="6.84908">
        <ele>673.9</ele>
        <time>2014-05-29T10:46:00.000Z</time>
      </trkpt>
      <trkpt lat="43.66685" lon="6.84907">
        <ele>674</ele>
        <time>2014-05-29T10:46:01.000Z</time>
      </trkpt>
      <trkpt lat="43.66682" lon="6.84905">
        <ele>674</ele>
        <time>2014-05-29T10:46:02.000Z</time>
      </trkpt>
      <trkpt lat="43.66679" lon="6.84904">
        <ele>673.8</ele>
        <time>2014-05-29T10:46:03.000Z</time>
      </trkpt>
      <trkpt lat="43.66676" lon="6.84901">
        <ele>673.2</ele>
        <time>2014-05-29T10:46:04.000Z</time>
      </trkpt>
      <trkpt lat="43.66674" lon="6.84899">
        <ele>673.1</ele>
        <time>2014-05-29T10:46:05.000Z</time>
      </trkpt>
      <trkpt lat="43.66672" lon="6.84897">
        <ele>673.2</ele>
        <time>2014-05-29T10:46:06.000Z</time>
      </trkpt>
      <trkpt lat="43.66669" lon="6.84895">
        <ele>673.1</ele>
        <time>2014-05-29T10:46:07.000Z</time>
      </trkpt>
      <trkpt lat="43.66668" lon="6.84892">
        <ele>673.6</ele>
        <time>2014-05-29T10:46:08.000Z</time>
      </trkpt>
      <trkpt lat="43.66665" lon="6.8489">
        <ele>673.2</ele>
        <time>2014-05-29T10:46:09.000Z</time>
      </trkpt>
      <trkpt lat="43.66663" lon="6.84888">
        <ele>673.9</ele>
        <time>2014-05-29T10:46:10.000Z</time>
      </trkpt>
      <trkpt lat="43.6666" lon="6.84886">
        <ele>672.7</ele>
        <time>2014-05-29T10:46:11.000Z</time>
      </trkpt>
      <trkpt lat="43.66657" lon="6.84884">
        <ele>672.3</ele>
        <time>2014-05-29T10:46:12.000Z</time>
      </trkpt>
      <trkpt lat="43.66654" lon="6.84883">
        <ele>671.9</ele>
        <time>2014-05-29T10:46:13.000Z</time>
      </trkpt>
      <trkpt lat="43.66651" lon="6.84881">
        <ele>671.6</ele>
        <time>2014-05-29T10:46:14.000Z</time>
      </trkpt>
      <trkpt lat="43.66648" lon="6.84878">
        <ele>672.4</ele>
        <time>2014-05-29T10:46:15.000Z</time>
      </trkpt>
      <trkpt lat="43.66646" lon="6.84876">
        <ele>671.6</ele>
        <time>2014-05-29T10:46:16.000Z</time>
      </trkpt>
      <trkpt lat="43.66643" lon="6.84873">
        <ele>671.3</ele>
        <time>2014-05-29T10:46:17.000Z</time>
      </trkpt>
      <trkpt lat="43.66641" lon="6.84869">
        <ele>670.8</ele>
        <time>2014-05-29T10:46:18.000Z</time>
      </trkpt>
      <trkpt lat="43.66638" lon="6.84866">
        <ele>669.6</ele>
        <time>2014-05-29T10:46:19.000Z</time>
      </trkpt>
      <trkpt lat="43.66636" lon="6.84862">
        <ele>669.7</ele>
        <time>2014-05-29T10:46:20.000Z</time>
      </trkpt>
      <trkpt lat="43.66634" lon="6.8486">
        <ele>670.2</ele>
        <time>2014-05-29T10:46:21.000Z</time>
      </trkpt>
      <trkpt lat="43.66632" lon="6.84858">
        <ele>670.5</ele>
        <time>2014-05-29T10:46:22.000Z</time>
      </trkpt>
      <trkpt lat="43.66628" lon="6.84855">
        <ele>671.6</ele>
        <time>2014-05-29T10:46:24.000Z</time>
      </trkpt>
      <trkpt lat="43.66626" lon="6.84854">
        <ele>671.9</ele>
        <time>2014-05-29T10:46:25.000Z</time>
      </trkpt>
      <trkpt lat="43.66622" lon="6.84853">
        <ele>672.8</ele>
        <time>2014-05-29T10:46:27.000Z</time>
      </trkpt>
      <trkpt lat="43.6662" lon="6.84853">
        <ele>674.3</ele>
        <time>2014-05-29T10:46:27.998Z</time>
      </trkpt>
      <trkpt lat="43.66616" lon="6.84851">
        <ele>674.5</ele>
        <time>2014-05-29T10:46:30.000Z</time>
      </trkpt>
      <trkpt lat="43.66613" lon="6.84849">
        <ele>674.7</ele>
        <time>2014-05-29T10:46:31.515Z</time>
      </trkpt>
      <trkpt lat="43.66608" lon="6.84849">
        <ele>674.7</ele>
        <time>2014-05-29T10:46:34.000Z</time>
      </trkpt>
      <trkpt lat="43.66606" lon="6.84849">
        <ele>675</ele>
        <time>2014-05-29T10:46:35.000Z</time>
      </trkpt>
      <trkpt lat="43.66602" lon="6.84848">
        <ele>675.3</ele>
        <time>2014-05-29T10:46:37.000Z</time>
      </trkpt>
      <trkpt lat="43.66601" lon="6.84848">
        <ele>675.2</ele>
        <time>2014-05-29T10:46:38.000Z</time>
      </trkpt>
      <trkpt lat="43.66596" lon="6.84848">
        <ele>674.7</ele>
        <time>2014-05-29T10:46:40.000Z</time>
      </trkpt>
      <trkpt lat="43.66595" lon="6.84849">
        <ele>675.4</ele>
        <time>2014-05-29T10:46:41.000Z</time>
      </trkpt>
      <trkpt lat="43.66591" lon="6.8485">
        <ele>675.8</ele>
        <time>2014-05-29T10:46:43.000Z</time>
      </trkpt>
      <trkpt lat="43.66589" lon="6.8485">
        <ele>675.7</ele>
        <time>2014-05-29T10:46:44.000Z</time>
      </trkpt>
      <trkpt lat="43.66585" lon="6.8485">
        <ele>675.9</ele>
        <time>2014-05-29T10:46:46.000Z</time>
      </trkpt>
      <trkpt lat="43.66584" lon="6.8485">
        <ele>675.8</ele>
        <time>2014-05-29T10:46:47.000Z</time>
      </trkpt>
      <trkpt lat="43.66581" lon="6.84849">
        <ele>675.4</ele>
        <time>2014-05-29T10:46:48.000Z</time>
      </trkpt>
      <trkpt lat="43.66579" lon="6.84848">
        <ele>675.3</ele>
        <time>2014-05-29T10:46:49.000Z</time>
      </trkpt>
      <trkpt lat="43.66575" lon="6.84848">
        <ele>675</ele>
        <time>2014-05-29T10:46:50.000Z</time>
      </trkpt>
      <trkpt lat="43.66572" lon="6.84848">
        <ele>674.8</ele>
        <time>2014-05-29T10:46:51.000Z</time>
      </trkpt>
      <trkpt lat="43.66568" lon="6.84848">
        <ele>674.6</ele>
        <time>2014-05-29T10:46:51.999Z</time>
      </trkpt>
      <trkpt lat="43.66564" lon="6.84847">
        <ele>674.4</ele>
        <time>2014-05-29T10:46:53.000Z</time>
      </trkpt>
      <trkpt lat="43.66561" lon="6.84846">
        <ele>675.5</ele>
        <time>2014-05-29T10:46:54.000Z</time>
      </trkpt>
      <trkpt lat="43.66557" lon="6.84845">
        <ele>676.5</ele>
        <time>2014-05-29T10:46:55.000Z</time>
      </trkpt>
      <trkpt lat="43.66553" lon="6.84844">
        <ele>678.1</ele>
        <time>2014-05-29T10:46:55.999Z</time>
      </trkpt>
      <trkpt lat="43.66549" lon="6.84843">
        <ele>678.8</ele>
        <time>2014-05-29T10:46:57.000Z</time>
      </trkpt>
      <trkpt lat="43.66547" lon="6.84842">
        <ele>678.4</ele>
        <time>2014-05-29T10:46:57.998Z</time>
      </trkpt>
      <trkpt lat="43.66544" lon="6.84841">
        <ele>678.3</ele>
        <time>2014-05-29T10:46:59.000Z</time>
      </trkpt>
      <trkpt lat="43.66541" lon="6.84842">
        <ele>678</ele>
        <time>2014-05-29T10:46:59.999Z</time>
      </trkpt>
      <trkpt lat="43.66539" lon="6.84841">
        <ele>678.2</ele>
        <time>2014-05-29T10:47:01.000Z</time>
      </trkpt>
      <trkpt lat="43.66535" lon="6.84841">
        <ele>679.5</ele>
        <time>2014-05-29T10:47:02.999Z</time>
      </trkpt>
      <trkpt lat="43.66532" lon="6.84841">
        <ele>679.9</ele>
        <time>2014-05-29T10:47:04.000Z</time>
      </trkpt>
      <trkpt lat="43.66529" lon="6.84841">
        <ele>679.8</ele>
        <time>2014-05-29T10:47:06.000Z</time>
      </trkpt>
      <trkpt lat="43.66528" lon="6.84841">
        <ele>679.5</ele>
        <time>2014-05-29T10:47:07.000Z</time>
      </trkpt>
      <trkpt lat="43.66523" lon="6.84841">
        <ele>681.3</ele>
        <time>2014-05-29T10:47:22.000Z</time>
      </trkpt>
      <trkpt lat="43.66523" lon="6.84841">
        <ele>681.2</ele>
        <time>2014-05-29T10:47:23.000Z</time>
      </trkpt>
      <trkpt lat="43.66521" lon="6.84836">
        <ele>682.2</ele>
        <time>2014-05-29T10:47:27.000Z</time>
      </trkpt>
      <trkpt lat="43.66519" lon="6.84834">
        <ele>682.5</ele>
        <time>2014-05-29T10:47:28.000Z</time>
      </trkpt>
      <trkpt lat="43.66515" lon="6.84831">
        <ele>681.8</ele>
        <time>2014-05-29T10:47:29.999Z</time>
      </trkpt>
      <trkpt lat="43.66514" lon="6.84829">
        <ele>682.3</ele>
        <time>2014-05-29T10:47:31.000Z</time>
      </trkpt>
      <trkpt lat="43.66512" lon="6.84827">
        <ele>682.4</ele>
        <time>2014-05-29T10:47:32.000Z</time>
      </trkpt>
      <trkpt lat="43.6651" lon="6.84824">
        <ele>683.3</ele>
        <time>2014-05-29T10:47:33.000Z</time>
      </trkpt>
      <trkpt lat="43.66507" lon="6.84821">
        <ele>682.9</ele>
        <time>2014-05-29T10:47:34.000Z</time>
      </trkpt>
      <trkpt lat="43.66505" lon="6.84819">
        <ele>682.5</ele>
        <time>2014-05-29T10:47:34.999Z</time>
      </trkpt>
      <trkpt lat="43.66502" lon="6.84816">
        <ele>682.8</ele>
        <time>2014-05-29T10:47:36.000Z</time>
      </trkpt>
      <trkpt lat="43.665" lon="6.84811">
        <ele>682.6</ele>
        <time>2014-05-29T10:47:37.000Z</time>
      </trkpt>
      <trkpt lat="43.66498" lon="6.84807">
        <ele>682.6</ele>
        <time>2014-05-29T10:47:38.000Z</time>
      </trkpt>
      <trkpt lat="43.66495" lon="6.84804">
        <ele>682.4</ele>
        <time>2014-05-29T10:47:39.000Z</time>
      </trkpt>
      <trkpt lat="43.66493" lon="6.848">
        <ele>682.5</ele>
        <time>2014-05-29T10:47:40.000Z</time>
      </trkpt>
      <trkpt lat="43.66491" lon="6.84797">
        <ele>682.1</ele>
        <time>2014-05-29T10:47:41.000Z</time>
      </trkpt>
      <trkpt lat="43.66489" lon="6.84794">
        <ele>681.9</ele>
        <time>2014-05-29T10:47:42.000Z</time>
      </trkpt>
      <trkpt lat="43.66487" lon="6.8479">
        <ele>682.6</ele>
        <time>2014-05-29T10:47:43.000Z</time>
      </trkpt>
      <trkpt lat="43.66485" lon="6.84787">
        <ele>682.8</ele>
        <time>2014-05-29T10:47:43.999Z</time>
      </trkpt>
      <trkpt lat="43.66483" lon="6.84783">
        <ele>682.5</ele>
        <time>2014-05-29T10:47:45.000Z</time>
      </trkpt>
      <trkpt lat="43.6648" lon="6.84779">
        <ele>681.7</ele>
        <time>2014-05-29T10:47:45.999Z</time>
      </trkpt>
      <trkpt lat="43.66478" lon="6.84775">
        <ele>681.6</ele>
        <time>2014-05-29T10:47:47.000Z</time>
      </trkpt>
      <trkpt lat="43.66476" lon="6.84772">
        <ele>681.4</ele>
        <time>2014-05-29T10:47:48.000Z</time>
      </trkpt>
      <trkpt lat="43.66473" lon="6.84769">
        <ele>681.6</ele>
        <time>2014-05-29T10:47:49.000Z</time>
      </trkpt>
      <trkpt lat="43.6647" lon="6.84767">
        <ele>682</ele>
        <time>2014-05-29T10:47:50.000Z</time>
      </trkpt>
      <trkpt lat="43.66467" lon="6.84763">
        <ele>682</ele>
        <time>2014-05-29T10:47:51.000Z</time>
      </trkpt>
      <trkpt lat="43.66463" lon="6.84761">
        <ele>680.2</ele>
        <time>2014-05-29T10:47:51.998Z</time>
      </trkpt>
      <trkpt lat="43.6646" lon="6.84758">
        <ele>678.9</ele>
        <time>2014-05-29T10:47:53.000Z</time>
      </trkpt>
      <trkpt lat="43.66456" lon="6.84757">
        <ele>678</ele>
        <time>2014-05-29T10:47:54.000Z</time>
      </trkpt>
      <trkpt lat="43.66453" lon="6.84756">
        <ele>679.5</ele>
        <time>2014-05-29T10:47:55.000Z</time>
      </trkpt>
      <trkpt lat="43.6645" lon="6.84754">
        <ele>679.1</ele>
        <time>2014-05-29T10:47:55.999Z</time>
      </trkpt>
      <trkpt lat="43.66446" lon="6.84753">
        <ele>679.5</ele>
        <time>2014-05-29T10:47:57.000Z</time>
      </trkpt>
      <trkpt lat="43.66443" lon="6.84752">
        <ele>679.7</ele>
        <time>2014-05-29T10:47:58.000Z</time>
      </trkpt>
      <trkpt lat="43.6644" lon="6.8475">
        <ele>679.8</ele>
        <time>2014-05-29T10:47:59.000Z</time>
      </trkpt>
      <trkpt lat="43.66437" lon="6.84748">
        <ele>680</ele>
        <time>2014-05-29T10:48:00.000Z</time>
      </trkpt>
      <trkpt lat="43.66434" lon="6.84748">
        <ele>680.4</ele>
        <time>2014-05-29T10:48:01.000Z</time>
      </trkpt>
      <trkpt lat="43.66431" lon="6.84748">
        <ele>680.9</ele>
        <time>2014-05-29T10:48:01.998Z</time>
      </trkpt>
      <trkpt lat="43.66427" lon="6.84747">
        <ele>681.2</ele>
        <time>2014-05-29T10:48:03.000Z</time>
      </trkpt>
      <trkpt lat="43.66425" lon="6.84746">
        <ele>681</ele>
        <time>2014-05-29T10:48:04.000Z</time>
      </trkpt>
      <trkpt lat="43.66422" lon="6.84746">
        <ele>681.4</ele>
        <time>2014-05-29T10:48:05.000Z</time>
      </trkpt>
      <trkpt lat="43.66419" lon="6.84745">
        <ele>681.5</ele>
        <time>2014-05-29T10:48:05.999Z</time>
      </trkpt>
      <trkpt lat="43.66416" lon="6.84744">
        <ele>681.6</ele>
        <time>2014-05-29T10:48:07.000Z</time>
      </trkpt>
      <trkpt lat="43.66413" lon="6.84744">
        <ele>681.7</ele>
        <time>2014-05-29T10:48:08.000Z</time>
      </trkpt>
      <trkpt lat="43.6641" lon="6.84743">
        <ele>681.4</ele>
        <time>2014-05-29T10:48:08.998Z</time>
      </trkpt>
      <trkpt lat="43.66407" lon="6.84743">
        <ele>681.2</ele>
        <time>2014-05-29T10:48:10.000Z</time>
      </trkpt>
      <trkpt lat="43.66404" lon="6.84743">
        <ele>681</ele>
        <time>2014-05-29T10:48:11.000Z</time>
      </trkpt>
      <trkpt lat="43.66401" lon="6.84743">
        <ele>681.4</ele>
        <time>2014-05-29T10:48:12.000Z</time>
      </trkpt>
      <trkpt lat="43.66398" lon="6.84744">
        <ele>681.3</ele>
        <time>2014-05-29T10:48:13.000Z</time>
      </trkpt>
      <trkpt lat="43.66394" lon="6.84745">
        <ele>681.6</ele>
        <time>2014-05-29T10:48:14.000Z</time>
      </trkpt>
      <trkpt lat="43.6639" lon="6.84744">
        <ele>681.4</ele>
        <time>2014-05-29T10:48:14.999Z</time>
      </trkpt>
      <trkpt lat="43.66386" lon="6.84743">
        <ele>681.1</ele>
        <time>2014-05-29T10:48:16.000Z</time>
      </trkpt>
      <trkpt lat="43.66382" lon="6.84743">
        <ele>680.1</ele>
        <time>2014-05-29T10:48:16.999Z</time>
      </trkpt>
      <trkpt lat="43.66378" lon="6.84742">
        <ele>679.3</ele>
        <time>2014-05-29T10:48:18.000Z</time>
      </trkpt>
      <trkpt lat="43.66373" lon="6.8474">
        <ele>679</ele>
        <time>2014-05-29T10:48:19.000Z</time>
      </trkpt>
      <trkpt lat="43.66368" lon="6.84739">
        <ele>679</ele>
        <time>2014-05-29T10:48:20.000Z</time>
      </trkpt>
      <trkpt lat="43.66365" lon="6.84737">
        <ele>678.8</ele>
        <time>2014-05-29T10:48:21.000Z</time>
      </trkpt>
      <trkpt lat="43.66361" lon="6.84735">
        <ele>678.8</ele>
        <time>2014-05-29T10:48:22.000Z</time>
      </trkpt>
      <trkpt lat="43.66359" lon="6.84735">
        <ele>680.8</ele>
        <time>2014-05-29T10:48:22.998Z</time>
      </trkpt>
      <trkpt lat="43.66356" lon="6.84734">
        <ele>682.4</ele>
        <time>2014-05-29T10:48:24.000Z</time>
      </trkpt>
      <trkpt lat="43.66353" lon="6.84732">
        <ele>682.9</ele>
        <time>2014-05-29T10:48:25.000Z</time>
      </trkpt>
      <trkpt lat="43.66349" lon="6.84731">
        <ele>682.7</ele>
        <time>2014-05-29T10:48:26.000Z</time>
      </trkpt>
      <trkpt lat="43.66346" lon="6.8473">
        <ele>682.9</ele>
        <time>2014-05-29T10:48:26.999Z</time>
      </trkpt>
      <trkpt lat="43.66343" lon="6.8473">
        <ele>683.3</ele>
        <time>2014-05-29T10:48:28.000Z</time>
      </trkpt>
      <trkpt lat="43.66341" lon="6.84728">
        <ele>683.5</ele>
        <time>2014-05-29T10:48:29.000Z</time>
      </trkpt>
      <trkpt lat="43.66338" lon="6.84727">
        <ele>684.4</ele>
        <time>2014-05-29T10:48:30.000Z</time>
      </trkpt>
      <trkpt lat="43.66335" lon="6.84726">
        <ele>685.5</ele>
        <time>2014-05-29T10:48:31.482Z</time>
      </trkpt>
      <trkpt lat="43.66331" lon="6.84724">
        <ele>686</ele>
        <time>2014-05-29T10:48:33.000Z</time>
      </trkpt>
      <trkpt lat="43.66327" lon="6.84723">
        <ele>687.4</ele>
        <time>2014-05-29T10:48:35.000Z</time>
      </trkpt>
      <trkpt lat="43.66325" lon="6.84722">
        <ele>686.9</ele>
        <time>2014-05-29T10:48:35.999Z</time>
      </trkpt>
      <trkpt lat="43.66321" lon="6.8472">
        <ele>687.4</ele>
        <time>2014-05-29T10:48:38.000Z</time>
      </trkpt>
      <trkpt lat="43.66319" lon="6.84719">
        <ele>687.4</ele>
        <time>2014-05-29T10:48:39.000Z</time>
      </trkpt>
      <trkpt lat="43.66315" lon="6.84716">
        <ele>687.7</ele>
        <time>2014-05-29T10:48:40.998Z</time>
      </trkpt>
      <trkpt lat="43.66313" lon="6.84714">
        <ele>687.6</ele>
        <time>2014-05-29T10:48:42.000Z</time>
      </trkpt>
      <trkpt lat="43.6631" lon="6.84713">
        <ele>687.4</ele>
        <time>2014-05-29T10:48:43.000Z</time>
      </trkpt>
      <trkpt lat="43.66308" lon="6.84712">
        <ele>687.9</ele>
        <time>2014-05-29T10:48:44.000Z</time>
      </trkpt>
      <trkpt lat="43.66305" lon="6.8471">
        <ele>687.9</ele>
        <time>2014-05-29T10:48:45.000Z</time>
      </trkpt>
      <trkpt lat="43.66303" lon="6.84709">
        <ele>688.2</ele>
        <time>2014-05-29T10:48:46.000Z</time>
      </trkpt>
      <trkpt lat="43.66301" lon="6.84707">
        <ele>688.1</ele>
        <time>2014-05-29T10:48:47.000Z</time>
      </trkpt>
      <trkpt lat="43.66298" lon="6.84705">
        <ele>688</ele>
        <time>2014-05-29T10:48:48.000Z</time>
      </trkpt>
      <trkpt lat="43.66295" lon="6.84704">
        <ele>687.9</ele>
        <time>2014-05-29T10:48:49.000Z</time>
      </trkpt>
      <trkpt lat="43.66293" lon="6.84704">
        <ele>687.7</ele>
        <time>2014-05-29T10:48:50.000Z</time>
      </trkpt>
      <trkpt lat="43.6629" lon="6.84702">
        <ele>688.1</ele>
        <time>2014-05-29T10:48:51.000Z</time>
      </trkpt>
      <trkpt lat="43.66287" lon="6.84702">
        <ele>688.5</ele>
        <time>2014-05-29T10:48:52.000Z</time>
      </trkpt>
      <trkpt lat="43.66284" lon="6.84703">
        <ele>688.6</ele>
        <time>2014-05-29T10:48:53.000Z</time>
      </trkpt>
      <trkpt lat="43.66282" lon="6.84703">
        <ele>688.8</ele>
        <time>2014-05-29T10:48:53.998Z</time>
      </trkpt>
      <trkpt lat="43.6628" lon="6.84704">
        <ele>688.9</ele>
        <time>2014-05-29T10:48:55.000Z</time>
      </trkpt>
      <trkpt lat="43.66277" lon="6.84704">
        <ele>688.7</ele>
        <time>2014-05-29T10:48:56.000Z</time>
      </trkpt>
      <trkpt lat="43.66272" lon="6.84704">
        <ele>688.1</ele>
        <time>2014-05-29T10:48:58.000Z</time>
      </trkpt>
      <trkpt lat="43.6627" lon="6.84703">
        <ele>687.5</ele>
        <time>2014-05-29T10:48:59.000Z</time>
      </trkpt>
      <trkpt lat="43.66266" lon="6.84702">
        <ele>687.6</ele>
        <time>2014-05-29T10:49:01.000Z</time>
      </trkpt>
      <trkpt lat="43.66264" lon="6.84702">
        <ele>687.4</ele>
        <time>2014-05-29T10:49:01.999Z</time>
      </trkpt>
      <trkpt lat="43.66261" lon="6.84702">
        <ele>687.9</ele>
        <time>2014-05-29T10:49:05.000Z</time>
      </trkpt>
      <trkpt lat="43.6626" lon="6.84701">
        <ele>688.3</ele>
        <time>2014-05-29T10:49:06.000Z</time>
      </trkpt>
      <trkpt lat="43.66256" lon="6.84701">
        <ele>687.1</ele>
        <time>2014-05-29T10:49:12.000Z</time>
      </trkpt>
      <trkpt lat="43.66255" lon="6.847">
        <ele>687.3</ele>
        <time>2014-05-29T10:49:13.000Z</time>
      </trkpt>
      <trkpt lat="43.66254" lon="6.84699">
        <ele>687.3</ele>
        <time>2014-05-29T10:49:14.000Z</time>
      </trkpt>
      <trkpt lat="43.66251" lon="6.84697">
        <ele>685.8</ele>
        <time>2014-05-29T10:49:14.998Z</time>
      </trkpt>
      <trkpt lat="43.66248" lon="6.84696">
        <ele>684.6</ele>
        <time>2014-05-29T10:49:16.000Z</time>
      </trkpt>
      <trkpt lat="43.66245" lon="6.84694">
        <ele>684.3</ele>
        <time>2014-05-29T10:49:17.000Z</time>
      </trkpt>
      <trkpt lat="43.66242" lon="6.84693">
        <ele>684.1</ele>
        <time>2014-05-29T10:49:18.000Z</time>
      </trkpt>
      <trkpt lat="43.6624" lon="6.84693">
        <ele>684.1</ele>
        <time>2014-05-29T10:49:19.000Z</time>
      </trkpt>
      <trkpt lat="43.66235" lon="6.84691">
        <ele>684.2</ele>
        <time>2014-05-29T10:49:31.000Z</time>
      </trkpt>
      <trkpt lat="43.66233" lon="6.84689">
        <ele>684</ele>
        <time>2014-05-29T10:49:32.000Z</time>
      </trkpt>
      <trkpt lat="43.66229" lon="6.84687">
        <ele>683.2</ele>
        <time>2014-05-29T10:49:33.000Z</time>
      </trkpt>
      <trkpt lat="43.66225" lon="6.84685">
        <ele>683.2</ele>
        <time>2014-05-29T10:49:34.000Z</time>
      </trkpt>
      <trkpt lat="43.66223" lon="6.84684">
        <ele>683.4</ele>
        <time>2014-05-29T10:49:34.999Z</time>
      </trkpt>
      <trkpt lat="43.66219" lon="6.84682">
        <ele>683.3</ele>
        <time>2014-05-29T10:49:36.000Z</time>
      </trkpt>
      <trkpt lat="43.66216" lon="6.84681">
        <ele>683.4</ele>
        <time>2014-05-29T10:49:37.000Z</time>
      </trkpt>
      <trkpt lat="43.66213" lon="6.84679">
        <ele>683.4</ele>
        <time>2014-05-29T10:49:38.000Z</time>
      </trkpt>
      <trkpt lat="43.6621" lon="6.84679">
        <ele>683.4</ele>
        <time>2014-05-29T10:49:38.998Z</time>
      </trkpt>
      <trkpt lat="43.66206" lon="6.84679">
        <ele>683.2</ele>
        <time>2014-05-29T10:49:40.000Z</time>
      </trkpt>
      <trkpt lat="43.66203" lon="6.84679">
        <ele>683.1</ele>
        <time>2014-05-29T10:49:41.000Z</time>
      </trkpt>
      <trkpt lat="43.66199" lon="6.84678">
        <ele>682.9</ele>
        <time>2014-05-29T10:49:42.000Z</time>
      </trkpt>
      <trkpt lat="43.66195" lon="6.84677">
        <ele>679.7</ele>
        <time>2014-05-29T10:49:43.000Z</time>
      </trkpt>
      <trkpt lat="43.66191" lon="6.84675">
        <ele>679</ele>
        <time>2014-05-29T10:49:44.000Z</time>
      </trkpt>
      <trkpt lat="43.66188" lon="6.84675">
        <ele>678.5</ele>
        <time>2014-05-29T10:49:45.000Z</time>
      </trkpt>
      <trkpt lat="43.66184" lon="6.84673">
        <ele>678.4</ele>
        <time>2014-05-29T10:49:47.000Z</time>
      </trkpt>
      <trkpt lat="43.66184" lon="6.84639">
        <ele>671</ele>
        <time>2014-05-29T10:50:20.000Z</time>
      </trkpt>
      <trkpt lat="43.66186" lon="6.84644">
        <ele>674.2</ele>
        <time>2014-05-29T10:50:32.000Z</time>
      </trkpt>
      <trkpt lat="43.66187" lon="6.84647">
        <ele>674</ele>
        <time>2014-05-29T10:50:33.000Z</time>
      </trkpt>
      <trkpt lat="43.66187" lon="6.84653">
        <ele>675.7</ele>
        <time>2014-05-29T10:50:35.000Z</time>
      </trkpt>
      <trkpt lat="43.66186" lon="6.84657">
        <ele>675.1</ele>
        <time>2014-05-29T10:50:36.000Z</time>
      </trkpt>
      <trkpt lat="43.66186" lon="6.8466">
        <ele>674.9</ele>
        <time>2014-05-29T10:50:37.000Z</time>
      </trkpt>
      <trkpt lat="43.66186" lon="6.84664">
        <ele>676.8</ele>
        <time>2014-05-29T10:50:38.000Z</time>
      </trkpt>
      <trkpt lat="43.66186" lon="6.84668">
        <ele>679.1</ele>
        <time>2014-05-29T10:50:40.000Z</time>
      </trkpt>
      <trkpt lat="43.66186" lon="6.8467">
        <ele>678.5</ele>
        <time>2014-05-29T10:50:41.000Z</time>
      </trkpt>
      <trkpt lat="43.66186" lon="6.84674">
        <ele>679</ele>
        <time>2014-05-29T10:50:50.000Z</time>
      </trkpt>
      <trkpt lat="43.66186" lon="6.84676">
        <ele>679.5</ele>
        <time>2014-05-29T10:50:51.000Z</time>
      </trkpt>
      <trkpt lat="43.66182" lon="6.84678">
        <ele>681.5</ele>
        <time>2014-05-29T10:50:54.000Z</time>
      </trkpt>
      <trkpt lat="43.6618" lon="6.84676">
        <ele>680.9</ele>
        <time>2014-05-29T10:50:55.000Z</time>
      </trkpt>
      <trkpt lat="43.66178" lon="6.84675">
        <ele>680.6</ele>
        <time>2014-05-29T10:50:56.000Z</time>
      </trkpt>
      <trkpt lat="43.66176" lon="6.84672">
        <ele>680.9</ele>
        <time>2014-05-29T10:50:57.000Z</time>
      </trkpt>
      <trkpt lat="43.66173" lon="6.84668">
        <ele>682.9</ele>
        <time>2014-05-29T10:50:59.000Z</time>
      </trkpt>
      <trkpt lat="43.66171" lon="6.84666">
        <ele>683.4</ele>
        <time>2014-05-29T10:51:00.000Z</time>
      </trkpt>
      <trkpt lat="43.66168" lon="6.84663">
        <ele>683.7</ele>
        <time>2014-05-29T10:51:02.000Z</time>
      </trkpt>
      <trkpt lat="43.66166" lon="6.84662">
        <ele>683.1</ele>
        <time>2014-05-29T10:51:03.000Z</time>
      </trkpt>
      <trkpt lat="43.66163" lon="6.84661">
        <ele>683.1</ele>
        <time>2014-05-29T10:51:04.000Z</time>
      </trkpt>
      <trkpt lat="43.6616" lon="6.84659">
        <ele>683</ele>
        <time>2014-05-29T10:51:05.000Z</time>
      </trkpt>
      <trkpt lat="43.66158" lon="6.84658">
        <ele>683.2</ele>
        <time>2014-05-29T10:51:06.000Z</time>
      </trkpt>
      <trkpt lat="43.66154" lon="6.84659">
        <ele>683.6</ele>
        <time>2014-05-29T10:51:07.000Z</time>
      </trkpt>
      <trkpt lat="43.6615" lon="6.8466">
        <ele>683.9</ele>
        <time>2014-05-29T10:51:08.000Z</time>
      </trkpt>
      <trkpt lat="43.66147" lon="6.8466">
        <ele>684</ele>
        <time>2014-05-29T10:51:09.000Z</time>
      </trkpt>
      <trkpt lat="43.66143" lon="6.84661">
        <ele>684.2</ele>
        <time>2014-05-29T10:51:10.000Z</time>
      </trkpt>
      <trkpt lat="43.6614" lon="6.84661">
        <ele>684</ele>
        <time>2014-05-29T10:51:11.000Z</time>
      </trkpt>
      <trkpt lat="43.66136" lon="6.84663">
        <ele>684.3</ele>
        <time>2014-05-29T10:51:11.998Z</time>
      </trkpt>
      <trkpt lat="43.66133" lon="6.84664">
        <ele>684.1</ele>
        <time>2014-05-29T10:51:13.000Z</time>
      </trkpt>
      <trkpt lat="43.66129" lon="6.84665">
        <ele>684.2</ele>
        <time>2014-05-29T10:51:14.000Z</time>
      </trkpt>
      <trkpt lat="43.66125" lon="6.84665">
        <ele>684.1</ele>
        <time>2014-05-29T10:51:15.000Z</time>
      </trkpt>
      <trkpt lat="43.66122" lon="6.84665">
        <ele>683.9</ele>
        <time>2014-05-29T10:51:16.000Z</time>
      </trkpt>
      <trkpt lat="43.66118" lon="6.84665">
        <ele>683.7</ele>
        <time>2014-05-29T10:51:17.000Z</time>
      </trkpt>
      <trkpt lat="43.66115" lon="6.84665">
        <ele>684.5</ele>
        <time>2014-05-29T10:51:18.000Z</time>
      </trkpt>
      <trkpt lat="43.66111" lon="6.84664">
        <ele>684.3</ele>
        <time>2014-05-29T10:51:19.000Z</time>
      </trkpt>
      <trkpt lat="43.66108" lon="6.84664">
        <ele>683.9</ele>
        <time>2014-05-29T10:51:20.000Z</time>
      </trkpt>
      <trkpt lat="43.66106" lon="6.84665">
        <ele>684.5</ele>
        <time>2014-05-29T10:51:21.000Z</time>
      </trkpt>
      <trkpt lat="43.66103" lon="6.84666">
        <ele>684.8</ele>
        <time>2014-05-29T10:51:21.998Z</time>
      </trkpt>
      <trkpt lat="43.661" lon="6.84665">
        <ele>684.8</ele>
        <time>2014-05-29T10:51:23.000Z</time>
      </trkpt>
      <trkpt lat="43.66097" lon="6.84666">
        <ele>684.6</ele>
        <time>2014-05-29T10:51:24.000Z</time>
      </trkpt>
      <trkpt lat="43.66094" lon="6.84662">
        <ele>684.7</ele>
        <time>2014-05-29T10:51:25.000Z</time>
      </trkpt>
      <trkpt lat="43.66091" lon="6.84661">
        <ele>684.8</ele>
        <time>2014-05-29T10:51:26.000Z</time>
      </trkpt>
      <trkpt lat="43.66088" lon="6.84657">
        <ele>684.8</ele>
        <time>2014-05-29T10:51:27.000Z</time>
      </trkpt>
      <trkpt lat="43.66085" lon="6.84655">
        <ele>684.8</ele>
        <time>2014-05-29T10:51:28.000Z</time>
      </trkpt>
      <trkpt lat="43.66083" lon="6.84653">
        <ele>686.9</ele>
        <time>2014-05-29T10:51:29.000Z</time>
      </trkpt>
      <trkpt lat="43.6608" lon="6.84652">
        <ele>688.4</ele>
        <time>2014-05-29T10:51:30.000Z</time>
      </trkpt>
      <trkpt lat="43.66075" lon="6.8465">
        <ele>689.3</ele>
        <time>2014-05-29T10:51:31.459Z</time>
      </trkpt>
      <trkpt lat="43.66074" lon="6.84649">
        <ele>689.6</ele>
        <time>2014-05-29T10:51:31.999Z</time>
      </trkpt>
      <trkpt lat="43.66067" lon="6.84644">
        <ele>689.1</ele>
        <time>2014-05-29T10:51:34.000Z</time>
      </trkpt>
      <trkpt lat="43.66064" lon="6.84642">
        <ele>689.1</ele>
        <time>2014-05-29T10:51:35.000Z</time>
      </trkpt>
      <trkpt lat="43.66061" lon="6.84639">
        <ele>689</ele>
        <time>2014-05-29T10:51:36.000Z</time>
      </trkpt>
      <trkpt lat="43.66059" lon="6.84637">
        <ele>689</ele>
        <time>2014-05-29T10:51:37.000Z</time>
      </trkpt>
      <trkpt lat="43.66056" lon="6.84635">
        <ele>689</ele>
        <time>2014-05-29T10:51:38.000Z</time>
      </trkpt>
      <trkpt lat="43.66053" lon="6.84634">
        <ele>689.3</ele>
        <time>2014-05-29T10:51:39.000Z</time>
      </trkpt>
      <trkpt lat="43.66051" lon="6.84632">
        <ele>688.6</ele>
        <time>2014-05-29T10:51:40.000Z</time>
      </trkpt>
      <trkpt lat="43.66048" lon="6.8463">
        <ele>688.6</ele>
        <time>2014-05-29T10:51:40.998Z</time>
      </trkpt>
      <trkpt lat="43.66044" lon="6.8463">
        <ele>689.1</ele>
        <time>2014-05-29T10:51:41.999Z</time>
      </trkpt>
      <trkpt lat="43.66041" lon="6.84629">
        <ele>689.5</ele>
        <time>2014-05-29T10:51:43.000Z</time>
      </trkpt>
      <trkpt lat="43.66037" lon="6.84628">
        <ele>688.7</ele>
        <time>2014-05-29T10:51:44.000Z</time>
      </trkpt>
      <trkpt lat="43.66033" lon="6.84628">
        <ele>688.7</ele>
        <time>2014-05-29T10:51:45.000Z</time>
      </trkpt>
      <trkpt lat="43.66031" lon="6.84627">
        <ele>689</ele>
        <time>2014-05-29T10:51:46.000Z</time>
      </trkpt>
      <trkpt lat="43.66026" lon="6.84626">
        <ele>689.1</ele>
        <time>2014-05-29T10:51:48.000Z</time>
      </trkpt>
      <trkpt lat="43.66025" lon="6.84625">
        <ele>689.3</ele>
        <time>2014-05-29T10:51:48.999Z</time>
      </trkpt>
      <trkpt lat="43.66021" lon="6.84623">
        <ele>687.7</ele>
        <time>2014-05-29T10:51:54.000Z</time>
      </trkpt>
      <trkpt lat="43.6602" lon="6.84623">
        <ele>688.1</ele>
        <time>2014-05-29T10:51:54.999Z</time>
      </trkpt>
      <trkpt lat="43.66024" lon="6.84625">
        <ele>689.3</ele>
        <time>2014-05-29T10:51:56.000Z</time>
      </trkpt>
      <trkpt lat="43.66024" lon="6.84625">
        <ele>689.1</ele>
        <time>2014-05-29T10:51:57.000Z</time>
      </trkpt>
      <trkpt lat="43.66028" lon="6.84626">
        <ele>689.4</ele>
        <time>2014-05-29T10:52:02.000Z</time>
      </trkpt>
      <trkpt lat="43.66029" lon="6.84626">
        <ele>689.4</ele>
        <time>2014-05-29T10:52:03.000Z</time>
      </trkpt>
      <trkpt lat="43.66035" lon="6.84627">
        <ele>689.8</ele>
        <time>2014-05-29T10:52:04.000Z</time>
      </trkpt>
      <trkpt lat="43.66038" lon="6.84626">
        <ele>690.5</ele>
        <time>2014-05-29T10:52:06.000Z</time>
      </trkpt>
      <trkpt lat="43.66039" lon="6.84628">
        <ele>694.7</ele>
        <time>2014-05-29T10:52:07.000Z</time>
      </trkpt>
      <trkpt lat="43.66042" lon="6.84629">
        <ele>693.2</ele>
        <time>2014-05-29T10:52:08.998Z</time>
      </trkpt>
      <trkpt lat="43.66044" lon="6.8463">
        <ele>692.5</ele>
        <time>2014-05-29T10:52:10.000Z</time>
      </trkpt>
      <trkpt lat="43.66048" lon="6.84631">
        <ele>692.2</ele>
        <time>2014-05-29T10:52:12.000Z</time>
      </trkpt>
      <trkpt lat="43.66052" lon="6.84634">
        <ele>692.5</ele>
        <time>2014-05-29T10:52:13.000Z</time>
      </trkpt>
      <trkpt lat="43.66055" lon="6.84637">
        <ele>692.5</ele>
        <time>2014-05-29T10:52:13.998Z</time>
      </trkpt>
      <trkpt lat="43.66057" lon="6.84639">
        <ele>691.8</ele>
        <time>2014-05-29T10:52:15.000Z</time>
      </trkpt>
      <trkpt lat="43.6606" lon="6.8464">
        <ele>691.4</ele>
        <time>2014-05-29T10:52:16.000Z</time>
      </trkpt>
      <trkpt lat="43.66064" lon="6.84642">
        <ele>690.7</ele>
        <time>2014-05-29T10:52:17.000Z</time>
      </trkpt>
      <trkpt lat="43.66068" lon="6.84643">
        <ele>690.5</ele>
        <time>2014-05-29T10:52:18.000Z</time>
      </trkpt>
      <trkpt lat="43.66072" lon="6.84645">
        <ele>690.7</ele>
        <time>2014-05-29T10:52:19.000Z</time>
      </trkpt>
      <trkpt lat="43.66074" lon="6.84648">
        <ele>690.2</ele>
        <time>2014-05-29T10:52:20.000Z</time>
      </trkpt>
      <trkpt lat="43.66076" lon="6.8465">
        <ele>689.6</ele>
        <time>2014-05-29T10:52:21.000Z</time>
      </trkpt>
      <trkpt lat="43.66078" lon="6.84653">
        <ele>689.8</ele>
        <time>2014-05-29T10:52:22.000Z</time>
      </trkpt>
      <trkpt lat="43.66081" lon="6.84655">
        <ele>690</ele>
        <time>2014-05-29T10:52:23.000Z</time>
      </trkpt>
      <trkpt lat="43.66084" lon="6.84657">
        <ele>690</ele>
        <time>2014-05-29T10:52:23.999Z</time>
      </trkpt>
      <trkpt lat="43.66085" lon="6.84659">
        <ele>689.3</ele>
        <time>2014-05-29T10:52:25.000Z</time>
      </trkpt>
      <trkpt lat="43.66083" lon="6.84663">
        <ele>689.6</ele>
        <time>2014-05-29T10:52:30.000Z</time>
      </trkpt>
      <trkpt lat="43.66082" lon="6.84663">
        <ele>689.8</ele>
        <time>2014-05-29T10:52:31.000Z</time>
      </trkpt>
      <trkpt lat="43.66079" lon="6.84664">
        <ele>689.2</ele>
        <time>2014-05-29T10:52:33.000Z</time>
      </trkpt>
      <trkpt lat="43.66077" lon="6.84664">
        <ele>688.9</ele>
        <time>2014-05-29T10:52:34.000Z</time>
      </trkpt>
      <trkpt lat="43.66073" lon="6.84663">
        <ele>687.8</ele>
        <time>2014-05-29T10:52:36.000Z</time>
      </trkpt>
      <trkpt lat="43.6607" lon="6.84663">
        <ele>686.3</ele>
        <time>2014-05-29T10:52:37.000Z</time>
      </trkpt>
      <trkpt lat="43.66067" lon="6.84662">
        <ele>685.7</ele>
        <time>2014-05-29T10:52:38.000Z</time>
      </trkpt>
      <trkpt lat="43.66064" lon="6.84663">
        <ele>685</ele>
        <time>2014-05-29T10:52:38.997Z</time>
      </trkpt>
      <trkpt lat="43.66062" lon="6.84662">
        <ele>684.7</ele>
        <time>2014-05-29T10:52:40.000Z</time>
      </trkpt>
      <trkpt lat="43.66059" lon="6.84662">
        <ele>684.3</ele>
        <time>2014-05-29T10:52:41.000Z</time>
      </trkpt>
      <trkpt lat="43.66056" lon="6.84661">
        <ele>684.4</ele>
        <time>2014-05-29T10:52:42.000Z</time>
      </trkpt>
      <trkpt lat="43.66054" lon="6.84661">
        <ele>685.4</ele>
        <time>2014-05-29T10:52:43.000Z</time>
      </trkpt>
      <trkpt lat="43.66051" lon="6.8466">
        <ele>685.4</ele>
        <time>2014-05-29T10:52:44.000Z</time>
      </trkpt>
      <trkpt lat="43.66049" lon="6.8466">
        <ele>684.3</ele>
        <time>2014-05-29T10:52:44.998Z</time>
      </trkpt>
      <trkpt lat="43.66046" lon="6.84658">
        <ele>683.4</ele>
        <time>2014-05-29T10:52:46.000Z</time>
      </trkpt>
      <trkpt lat="43.66043" lon="6.84657">
        <ele>682.8</ele>
        <time>2014-05-29T10:52:47.000Z</time>
      </trkpt>
      <trkpt lat="43.66041" lon="6.84658">
        <ele>683.8</ele>
        <time>2014-05-29T10:52:47.998Z</time>
      </trkpt>
      <trkpt lat="43.66038" lon="6.84658">
        <ele>684</ele>
        <time>2014-05-29T10:52:49.000Z</time>
      </trkpt>
      <trkpt lat="43.66036" lon="6.8466">
        <ele>686.2</ele>
        <time>2014-05-29T10:52:50.000Z</time>
      </trkpt>
      <trkpt lat="43.66034" lon="6.84661">
        <ele>687.4</ele>
        <time>2014-05-29T10:52:51.000Z</time>
      </trkpt>
      <trkpt lat="43.66031" lon="6.84662">
        <ele>686.3</ele>
        <time>2014-05-29T10:52:51.998Z</time>
      </trkpt>
      <trkpt lat="43.66029" lon="6.84663">
        <ele>686.5</ele>
        <time>2014-05-29T10:52:53.000Z</time>
      </trkpt>
      <trkpt lat="43.66026" lon="6.84665">
        <ele>686.6</ele>
        <time>2014-05-29T10:52:54.000Z</time>
      </trkpt>
      <trkpt lat="43.66023" lon="6.84667">
        <ele>686.5</ele>
        <time>2014-05-29T10:52:55.000Z</time>
      </trkpt>
      <trkpt lat="43.6602" lon="6.84669">
        <ele>686.8</ele>
        <time>2014-05-29T10:52:56.000Z</time>
      </trkpt>
      <trkpt lat="43.66017" lon="6.84673">
        <ele>687.1</ele>
        <time>2014-05-29T10:52:57.000Z</time>
      </trkpt>
      <trkpt lat="43.66013" lon="6.84678">
        <ele>687.3</ele>
        <time>2014-05-29T10:52:58.000Z</time>
      </trkpt>
      <trkpt lat="43.66006" lon="6.84677">
        <ele>690.8</ele>
        <time>2014-05-29T10:52:58.998Z</time>
      </trkpt>
      <trkpt lat="43.66002" lon="6.84678">
        <ele>691.9</ele>
        <time>2014-05-29T10:53:00.000Z</time>
      </trkpt>
      <trkpt lat="43.65999" lon="6.84679">
        <ele>692.4</ele>
        <time>2014-05-29T10:53:01.000Z</time>
      </trkpt>
      <trkpt lat="43.65995" lon="6.84678">
        <ele>692.9</ele>
        <time>2014-05-29T10:53:02.000Z</time>
      </trkpt>
      <trkpt lat="43.65992" lon="6.84676">
        <ele>691.2</ele>
        <time>2014-05-29T10:53:03.000Z</time>
      </trkpt>
      <trkpt lat="43.6599" lon="6.84676">
        <ele>690.4</ele>
        <time>2014-05-29T10:53:04.000Z</time>
      </trkpt>
      <trkpt lat="43.65987" lon="6.84673">
        <ele>691.2</ele>
        <time>2014-05-29T10:53:05.000Z</time>
      </trkpt>
      <trkpt lat="43.65983" lon="6.84672">
        <ele>691.1</ele>
        <time>2014-05-29T10:53:07.000Z</time>
      </trkpt>
      <trkpt lat="43.65981" lon="6.84674">
        <ele>690.8</ele>
        <time>2014-05-29T10:53:08.000Z</time>
      </trkpt>
      <trkpt lat="43.65978" lon="6.84676">
        <ele>690.6</ele>
        <time>2014-05-29T10:53:09.000Z</time>
      </trkpt>
      <trkpt lat="43.65974" lon="6.84681">
        <ele>690.2</ele>
        <time>2014-05-29T10:53:10.000Z</time>
      </trkpt>
      <trkpt lat="43.65969" lon="6.84682">
        <ele>693.1</ele>
        <time>2014-05-29T10:53:11.000Z</time>
      </trkpt>
      <trkpt lat="43.65968" lon="6.84688">
        <ele>693</ele>
        <time>2014-05-29T10:53:12.000Z</time>
      </trkpt>
      <trkpt lat="43.65966" lon="6.84692">
        <ele>691.9</ele>
        <time>2014-05-29T10:53:13.000Z</time>
      </trkpt>
      <trkpt lat="43.65963" lon="6.84694">
        <ele>689.4</ele>
        <time>2014-05-29T10:53:14.000Z</time>
      </trkpt>
      <trkpt lat="43.65959" lon="6.84698">
        <ele>689.9</ele>
        <time>2014-05-29T10:53:15.000Z</time>
      </trkpt>
      <trkpt lat="43.65955" lon="6.84699">
        <ele>690.2</ele>
        <time>2014-05-29T10:53:16.000Z</time>
      </trkpt>
      <trkpt lat="43.65951" lon="6.84702">
        <ele>690.6</ele>
        <time>2014-05-29T10:53:17.000Z</time>
      </trkpt>
      <trkpt lat="43.65948" lon="6.84707">
        <ele>690.1</ele>
        <time>2014-05-29T10:53:18.000Z</time>
      </trkpt>
      <trkpt lat="43.65945" lon="6.8471">
        <ele>690.4</ele>
        <time>2014-05-29T10:53:18.999Z</time>
      </trkpt>
      <trkpt lat="43.65942" lon="6.84715">
        <ele>690.8</ele>
        <time>2014-05-29T10:53:20.000Z</time>
      </trkpt>
      <trkpt lat="43.65937" lon="6.8472">
        <ele>690.6</ele>
        <time>2014-05-29T10:53:21.000Z</time>
      </trkpt>
      <trkpt lat="43.65934" lon="6.84721">
        <ele>691</ele>
        <time>2014-05-29T10:53:21.999Z</time>
      </trkpt>
      <trkpt lat="43.65928" lon="6.84724">
        <ele>690.9</ele>
        <time>2014-05-29T10:53:23.000Z</time>
      </trkpt>
      <trkpt lat="43.65925" lon="6.84726">
        <ele>690.6</ele>
        <time>2014-05-29T10:53:24.000Z</time>
      </trkpt>
      <trkpt lat="43.6592" lon="6.84723">
        <ele>687.6</ele>
        <time>2014-05-29T10:53:25.000Z</time>
      </trkpt>
      <trkpt lat="43.65914" lon="6.84721">
        <ele>686.7</ele>
        <time>2014-05-29T10:53:26.000Z</time>
      </trkpt>
      <trkpt lat="43.65912" lon="6.8472">
        <ele>686.6</ele>
        <time>2014-05-29T10:53:27.000Z</time>
      </trkpt>
      <trkpt lat="43.65908" lon="6.84719">
        <ele>686</ele>
        <time>2014-05-29T10:53:28.000Z</time>
      </trkpt>
      <trkpt lat="43.65905" lon="6.84718">
        <ele>685.4</ele>
        <time>2014-05-29T10:53:29.000Z</time>
      </trkpt>
      <trkpt lat="43.65902" lon="6.84718">
        <ele>685.1</ele>
        <time>2014-05-29T10:53:30.000Z</time>
      </trkpt>
      <trkpt lat="43.65896" lon="6.84719">
        <ele>684.7</ele>
        <time>2014-05-29T10:53:31.000Z</time>
      </trkpt>
      <trkpt lat="43.65893" lon="6.84721">
        <ele>683.8</ele>
        <time>2014-05-29T10:53:32.000Z</time>
      </trkpt>
      <trkpt lat="43.65889" lon="6.8472">
        <ele>684.2</ele>
        <time>2014-05-29T10:53:33.000Z</time>
      </trkpt>
      <trkpt lat="43.65886" lon="6.84718">
        <ele>684.7</ele>
        <time>2014-05-29T10:53:34.000Z</time>
      </trkpt>
      <trkpt lat="43.65882" lon="6.84719">
        <ele>685.6</ele>
        <time>2014-05-29T10:53:35.000Z</time>
      </trkpt>
      <trkpt lat="43.6588" lon="6.84721">
        <ele>687</ele>
        <time>2014-05-29T10:53:36.000Z</time>
      </trkpt>
      <trkpt lat="43.65879" lon="6.84724">
        <ele>687.8</ele>
        <time>2014-05-29T10:53:37.000Z</time>
      </trkpt>
      <trkpt lat="43.65877" lon="6.84728">
        <ele>688</ele>
        <time>2014-05-29T10:53:38.000Z</time>
      </trkpt>
      <trkpt lat="43.65875" lon="6.84729">
        <ele>688.1</ele>
        <time>2014-05-29T10:53:39.000Z</time>
      </trkpt>
      <trkpt lat="43.65872" lon="6.8473">
        <ele>688.2</ele>
        <time>2014-05-29T10:53:40.000Z</time>
      </trkpt>
      <trkpt lat="43.65866" lon="6.84728">
        <ele>688.5</ele>
        <time>2014-05-29T10:53:41.000Z</time>
      </trkpt>
      <trkpt lat="43.65861" lon="6.84728">
        <ele>688.9</ele>
        <time>2014-05-29T10:53:42.000Z</time>
      </trkpt>
      <trkpt lat="43.65858" lon="6.84728">
        <ele>689.4</ele>
        <time>2014-05-29T10:53:43.000Z</time>
      </trkpt>
      <trkpt lat="43.65853" lon="6.84728">
        <ele>689.1</ele>
        <time>2014-05-29T10:53:44.000Z</time>
      </trkpt>
      <trkpt lat="43.65848" lon="6.84727">
        <ele>685.4</ele>
        <time>2014-05-29T10:53:45.000Z</time>
      </trkpt>
      <trkpt lat="43.65843" lon="6.84726">
        <ele>682.8</ele>
        <time>2014-05-29T10:53:46.000Z</time>
      </trkpt>
      <trkpt lat="43.6584" lon="6.84724">
        <ele>683</ele>
        <time>2014-05-29T10:53:47.000Z</time>
      </trkpt>
      <trkpt lat="43.65837" lon="6.84723">
        <ele>683.7</ele>
        <time>2014-05-29T10:53:48.000Z</time>
      </trkpt>
      <trkpt lat="43.65833" lon="6.8472">
        <ele>683.2</ele>
        <time>2014-05-29T10:53:49.000Z</time>
      </trkpt>
      <trkpt lat="43.65829" lon="6.84719">
        <ele>682.8</ele>
        <time>2014-05-29T10:53:50.000Z</time>
      </trkpt>
      <trkpt lat="43.65825" lon="6.84718">
        <ele>682.6</ele>
        <time>2014-05-29T10:53:51.000Z</time>
      </trkpt>
      <trkpt lat="43.6582" lon="6.84718">
        <ele>681.9</ele>
        <time>2014-05-29T10:53:52.000Z</time>
      </trkpt>
      <trkpt lat="43.65817" lon="6.84718">
        <ele>681.1</ele>
        <time>2014-05-29T10:53:53.000Z</time>
      </trkpt>
      <trkpt lat="43.65815" lon="6.84717">
        <ele>680.7</ele>
        <time>2014-05-29T10:53:53.999Z</time>
      </trkpt>
      <trkpt lat="43.65812" lon="6.84716">
        <ele>680.9</ele>
        <time>2014-05-29T10:53:55.000Z</time>
      </trkpt>
      <trkpt lat="43.65809" lon="6.84714">
        <ele>680.8</ele>
        <time>2014-05-29T10:53:56.000Z</time>
      </trkpt>
      <trkpt lat="43.65806" lon="6.84711">
        <ele>680.9</ele>
        <time>2014-05-29T10:53:57.000Z</time>
      </trkpt>
      <trkpt lat="43.65799" lon="6.84708">
        <ele>677.3</ele>
        <time>2014-05-29T10:53:58.000Z</time>
      </trkpt>
      <trkpt lat="43.65795" lon="6.84706">
        <ele>677.2</ele>
        <time>2014-05-29T10:53:59.000Z</time>
      </trkpt>
      <trkpt lat="43.6579" lon="6.84704">
        <ele>676.8</ele>
        <time>2014-05-29T10:54:00.000Z</time>
      </trkpt>
      <trkpt lat="43.65787" lon="6.84702">
        <ele>676.3</ele>
        <time>2014-05-29T10:54:01.000Z</time>
      </trkpt>
      <trkpt lat="43.65783" lon="6.847">
        <ele>675.9</ele>
        <time>2014-05-29T10:54:02.000Z</time>
      </trkpt>
      <trkpt lat="43.6578" lon="6.847">
        <ele>675.7</ele>
        <time>2014-05-29T10:54:03.000Z</time>
      </trkpt>
      <trkpt lat="43.65777" lon="6.84698">
        <ele>675.7</ele>
        <time>2014-05-29T10:54:04.000Z</time>
      </trkpt>
      <trkpt lat="43.65773" lon="6.84698">
        <ele>676.5</ele>
        <time>2014-05-29T10:54:06.000Z</time>
      </trkpt>
      <trkpt lat="43.6577" lon="6.84697">
        <ele>676.2</ele>
        <time>2014-05-29T10:54:07.000Z</time>
      </trkpt>
      <trkpt lat="43.65768" lon="6.84693">
        <ele>675.7</ele>
        <time>2014-05-29T10:54:08.000Z</time>
      </trkpt>
      <trkpt lat="43.65768" lon="6.84689">
        <ele>675.5</ele>
        <time>2014-05-29T10:54:09.000Z</time>
      </trkpt>
      <trkpt lat="43.65763" lon="6.84685">
        <ele>669.2</ele>
        <time>2014-05-29T10:54:10.000Z</time>
      </trkpt>
      <trkpt lat="43.6576" lon="6.84683">
        <ele>668.4</ele>
        <time>2014-05-29T10:54:11.000Z</time>
      </trkpt>
      <trkpt lat="43.65756" lon="6.84683">
        <ele>667.9</ele>
        <time>2014-05-29T10:54:12.000Z</time>
      </trkpt>
      <trkpt lat="43.65753" lon="6.84684">
        <ele>668</ele>
        <time>2014-05-29T10:54:13.000Z</time>
      </trkpt>
      <trkpt lat="43.65751" lon="6.84684">
        <ele>669</ele>
        <time>2014-05-29T10:54:14.000Z</time>
      </trkpt>
      <trkpt lat="43.65748" lon="6.84683">
        <ele>668.9</ele>
        <time>2014-05-29T10:54:14.999Z</time>
      </trkpt>
      <trkpt lat="43.65745" lon="6.84682">
        <ele>669.2</ele>
        <time>2014-05-29T10:54:16.000Z</time>
      </trkpt>
      <trkpt lat="43.65743" lon="6.8468">
        <ele>669.9</ele>
        <time>2014-05-29T10:54:17.000Z</time>
      </trkpt>
      <trkpt lat="43.65741" lon="6.84676">
        <ele>669.9</ele>
        <time>2014-05-29T10:54:18.000Z</time>
      </trkpt>
      <trkpt lat="43.65741" lon="6.84671">
        <ele>670.5</ele>
        <time>2014-05-29T10:54:19.000Z</time>
      </trkpt>
      <trkpt lat="43.65739" lon="6.84668">
        <ele>670.7</ele>
        <time>2014-05-29T10:54:20.000Z</time>
      </trkpt>
      <trkpt lat="43.65737" lon="6.84663">
        <ele>674.1</ele>
        <time>2014-05-29T10:54:21.999Z</time>
      </trkpt>
      <trkpt lat="43.65735" lon="6.84662">
        <ele>674.3</ele>
        <time>2014-05-29T10:54:23.000Z</time>
      </trkpt>
      <trkpt lat="43.65732" lon="6.84663">
        <ele>674.4</ele>
        <time>2014-05-29T10:54:24.000Z</time>
      </trkpt>
      <trkpt lat="43.6573" lon="6.84661">
        <ele>674</ele>
        <time>2014-05-29T10:54:25.000Z</time>
      </trkpt>
      <trkpt lat="43.65729" lon="6.84659">
        <ele>675.2</ele>
        <time>2014-05-29T10:54:26.000Z</time>
      </trkpt>
      <trkpt lat="43.65725" lon="6.84656">
        <ele>675</ele>
        <time>2014-05-29T10:54:27.000Z</time>
      </trkpt>
      <trkpt lat="43.65722" lon="6.84651">
        <ele>675.1</ele>
        <time>2014-05-29T10:54:28.000Z</time>
      </trkpt>
      <trkpt lat="43.65721" lon="6.84642">
        <ele>675.7</ele>
        <time>2014-05-29T10:54:29.000Z</time>
      </trkpt>
      <trkpt lat="43.65719" lon="6.84645">
        <ele>677.4</ele>
        <time>2014-05-29T10:54:31.000Z</time>
      </trkpt>
      <trkpt lat="43.65714" lon="6.84644">
        <ele>677.1</ele>
        <time>2014-05-29T10:54:31.999Z</time>
      </trkpt>
      <trkpt lat="43.6571" lon="6.84644">
        <ele>677.2</ele>
        <time>2014-05-29T10:54:33.000Z</time>
      </trkpt>
      <trkpt lat="43.65706" lon="6.84643">
        <ele>675</ele>
        <time>2014-05-29T10:54:34.000Z</time>
      </trkpt>
      <trkpt lat="43.65702" lon="6.84642">
        <ele>673.6</ele>
        <time>2014-05-29T10:54:35.000Z</time>
      </trkpt>
      <trkpt lat="43.65697" lon="6.84642">
        <ele>672.9</ele>
        <time>2014-05-29T10:54:36.000Z</time>
      </trkpt>
      <trkpt lat="43.65693" lon="6.84642">
        <ele>672.8</ele>
        <time>2014-05-29T10:54:37.000Z</time>
      </trkpt>
      <trkpt lat="43.65689" lon="6.84643">
        <ele>671.4</ele>
        <time>2014-05-29T10:54:38.000Z</time>
      </trkpt>
      <trkpt lat="43.65687" lon="6.84643">
        <ele>669.9</ele>
        <time>2014-05-29T10:54:39.000Z</time>
      </trkpt>
      <trkpt lat="43.65683" lon="6.84644">
        <ele>669.5</ele>
        <time>2014-05-29T10:54:40.000Z</time>
      </trkpt>
      <trkpt lat="43.6568" lon="6.84642">
        <ele>670</ele>
        <time>2014-05-29T10:54:41.000Z</time>
      </trkpt>
      <trkpt lat="43.65677" lon="6.8464">
        <ele>670.5</ele>
        <time>2014-05-29T10:54:42.000Z</time>
      </trkpt>
      <trkpt lat="43.65674" lon="6.84638">
        <ele>670</ele>
        <time>2014-05-29T10:54:43.000Z</time>
      </trkpt>
      <trkpt lat="43.65671" lon="6.84635">
        <ele>669.3</ele>
        <time>2014-05-29T10:54:44.000Z</time>
      </trkpt>
      <trkpt lat="43.65669" lon="6.84633">
        <ele>669.2</ele>
        <time>2014-05-29T10:54:45.000Z</time>
      </trkpt>
      <trkpt lat="43.65667" lon="6.8463">
        <ele>668.5</ele>
        <time>2014-05-29T10:54:46.000Z</time>
      </trkpt>
      <trkpt lat="43.65665" lon="6.84627">
        <ele>668.4</ele>
        <time>2014-05-29T10:54:47.000Z</time>
      </trkpt>
      <trkpt lat="43.65664" lon="6.84623">
        <ele>668.6</ele>
        <time>2014-05-29T10:54:48.000Z</time>
      </trkpt>
      <trkpt lat="43.65613" lon="6.84512">
        <ele>660.7</ele>
        <time>2014-05-29T10:55:17.863Z</time>
      </trkpt>
      <trkpt lat="43.65612" lon="6.84507">
        <ele>660.2</ele>
        <time>2014-05-29T10:55:19.000Z</time>
      </trkpt>
      <trkpt lat="43.65612" lon="6.84502">
        <ele>660.7</ele>
        <time>2014-05-29T10:55:20.000Z</time>
      </trkpt>
      <trkpt lat="43.65612" lon="6.84498">
        <ele>660.2</ele>
        <time>2014-05-29T10:55:21.000Z</time>
      </trkpt>
      <trkpt lat="43.65617" lon="6.84493">
        <ele>661.3</ele>
        <time>2014-05-29T10:55:22.000Z</time>
      </trkpt>
      <trkpt lat="43.65617" lon="6.84488">
        <ele>661.6</ele>
        <time>2014-05-29T10:55:23.000Z</time>
      </trkpt>
      <trkpt lat="43.65617" lon="6.84481">
        <ele>659</ele>
        <time>2014-05-29T10:55:24.000Z</time>
      </trkpt>
      <trkpt lat="43.65618" lon="6.84476">
        <ele>657.4</ele>
        <time>2014-05-29T10:55:25.000Z</time>
      </trkpt>
      <trkpt lat="43.6562" lon="6.8447">
        <ele>658.8</ele>
        <time>2014-05-29T10:55:26.000Z</time>
      </trkpt>
      <trkpt lat="43.65622" lon="6.84464">
        <ele>659.2</ele>
        <time>2014-05-29T10:55:27.000Z</time>
      </trkpt>
      <trkpt lat="43.65625" lon="6.84461">
        <ele>661.8</ele>
        <time>2014-05-29T10:55:28.000Z</time>
      </trkpt>
      <trkpt lat="43.65629" lon="6.84458">
        <ele>663.4</ele>
        <time>2014-05-29T10:55:29.000Z</time>
      </trkpt>
      <trkpt lat="43.65632" lon="6.84454">
        <ele>662.4</ele>
        <time>2014-05-29T10:55:30.000Z</time>
      </trkpt>
      <trkpt lat="43.65631" lon="6.84455">
        <ele>662.3</ele>
        <time>2014-05-29T10:55:29.801Z</time>
      </trkpt>
      <trkpt lat="43.65637" lon="6.84446">
        <ele>662.8</ele>
        <time>2014-05-29T10:55:32.045Z</time>
      </trkpt>
      <trkpt lat="43.6564" lon="6.84442">
        <ele>663</ele>
        <time>2014-05-29T10:55:33.045Z</time>
      </trkpt>
      <trkpt lat="43.65642" lon="6.84438">
        <ele>663.2</ele>
        <time>2014-05-29T10:55:34.045Z</time>
      </trkpt>
      <trkpt lat="43.65645" lon="6.84434">
        <ele>663.4</ele>
        <time>2014-05-29T10:55:35.045Z</time>
      </trkpt>
      <trkpt lat="43.65648" lon="6.84431">
        <ele>663.6</ele>
        <time>2014-05-29T10:55:36.045Z</time>
      </trkpt>
      <trkpt lat="43.6565" lon="6.84427">
        <ele>663.8</ele>
        <time>2014-05-29T10:55:37.045Z</time>
      </trkpt>
      <trkpt lat="43.65653" lon="6.84423">
        <ele>664.1</ele>
        <time>2014-05-29T10:55:38.045Z</time>
      </trkpt>
      <trkpt lat="43.65656" lon="6.84419">
        <ele>664.3</ele>
        <time>2014-05-29T10:55:39.045Z</time>
      </trkpt>
      <trkpt lat="43.65614" lon="6.84409">
        <ele>661.7</ele>
        <time>2014-05-29T10:55:41.000Z</time>
      </trkpt>
      <trkpt lat="43.65605" lon="6.84404">
        <ele>660.4</ele>
        <time>2014-05-29T10:55:42.000Z</time>
      </trkpt>
      <trkpt lat="43.65598" lon="6.84403">
        <ele>659.7</ele>
        <time>2014-05-29T10:55:43.000Z</time>
      </trkpt>
      <trkpt lat="43.65591" lon="6.844">
        <ele>660.3</ele>
        <time>2014-05-29T10:55:44.000Z</time>
      </trkpt>
      <trkpt lat="43.65585" lon="6.844">
        <ele>658.2</ele>
        <time>2014-05-29T10:55:45.000Z</time>
      </trkpt>
      <trkpt lat="43.65579" lon="6.84403">
        <ele>656.9</ele>
        <time>2014-05-29T10:55:46.000Z</time>
      </trkpt>
      <trkpt lat="43.65572" lon="6.84404">
        <ele>657.5</ele>
        <time>2014-05-29T10:55:47.000Z</time>
      </trkpt>
      <trkpt lat="43.65568" lon="6.84403">
        <ele>656.6</ele>
        <time>2014-05-29T10:55:48.000Z</time>
      </trkpt>
      <trkpt lat="43.65561" lon="6.84401">
        <ele>654.3</ele>
        <time>2014-05-29T10:55:49.000Z</time>
      </trkpt>
      <trkpt lat="43.65556" lon="6.84399">
        <ele>653.9</ele>
        <time>2014-05-29T10:55:50.000Z</time>
      </trkpt>
      <trkpt lat="43.65552" lon="6.84396">
        <ele>652.6</ele>
        <time>2014-05-29T10:55:51.000Z</time>
      </trkpt>
      <trkpt lat="43.65547" lon="6.84394">
        <ele>652.9</ele>
        <time>2014-05-29T10:55:52.000Z</time>
      </trkpt>
      <trkpt lat="43.65544" lon="6.8439">
        <ele>651.9</ele>
        <time>2014-05-29T10:55:53.000Z</time>
      </trkpt>
      <trkpt lat="43.65541" lon="6.84385">
        <ele>651.7</ele>
        <time>2014-05-29T10:55:54.000Z</time>
      </trkpt>
      <trkpt lat="43.65538" lon="6.84385">
        <ele>651.2</ele>
        <time>2014-05-29T10:55:55.000Z</time>
      </trkpt>
      <trkpt lat="43.65534" lon="6.84384">
        <ele>650.9</ele>
        <time>2014-05-29T10:55:56.000Z</time>
      </trkpt>
      <trkpt lat="43.6553" lon="6.84384">
        <ele>650.7</ele>
        <time>2014-05-29T10:55:57.000Z</time>
      </trkpt>
      <trkpt lat="43.65523" lon="6.84385">
        <ele>650.5</ele>
        <time>2014-05-29T10:55:58.000Z</time>
      </trkpt>
      <trkpt lat="43.65517" lon="6.84384">
        <ele>649.8</ele>
        <time>2014-05-29T10:55:59.000Z</time>
      </trkpt>
      <trkpt lat="43.65511" lon="6.84383">
        <ele>650.2</ele>
        <time>2014-05-29T10:56:00.000Z</time>
      </trkpt>
      <trkpt lat="43.65504" lon="6.84383">
        <ele>649.9</ele>
        <time>2014-05-29T10:56:01.000Z</time>
      </trkpt>
      <trkpt lat="43.65498" lon="6.84383">
        <ele>650.2</ele>
        <time>2014-05-29T10:56:02.000Z</time>
      </trkpt>
      <trkpt lat="43.65494" lon="6.84387">
        <ele>650.3</ele>
        <time>2014-05-29T10:56:03.000Z</time>
      </trkpt>
      <trkpt lat="43.65489" lon="6.84387">
        <ele>650.4</ele>
        <time>2014-05-29T10:56:04.000Z</time>
      </trkpt>
      <trkpt lat="43.65484" lon="6.84386">
        <ele>651.3</ele>
        <time>2014-05-29T10:56:05.000Z</time>
      </trkpt>
      <trkpt lat="43.65479" lon="6.84387">
        <ele>651.5</ele>
        <time>2014-05-29T10:56:06.000Z</time>
      </trkpt>
      <trkpt lat="43.65472" lon="6.84386">
        <ele>648.7</ele>
        <time>2014-05-29T10:56:07.000Z</time>
      </trkpt>
      <trkpt lat="43.65468" lon="6.84385">
        <ele>648.5</ele>
        <time>2014-05-29T10:56:07.999Z</time>
      </trkpt>
      <trkpt lat="43.65463" lon="6.84385">
        <ele>648.4</ele>
        <time>2014-05-29T10:56:09.000Z</time>
      </trkpt>
      <trkpt lat="43.65458" lon="6.84385">
        <ele>648.3</ele>
        <time>2014-05-29T10:56:10.000Z</time>
      </trkpt>
      <trkpt lat="43.65452" lon="6.84386">
        <ele>647.8</ele>
        <time>2014-05-29T10:56:11.000Z</time>
      </trkpt>
      <trkpt lat="43.65447" lon="6.84386">
        <ele>647.5</ele>
        <time>2014-05-29T10:56:12.000Z</time>
      </trkpt>
      <trkpt lat="43.65442" lon="6.84387">
        <ele>647.1</ele>
        <time>2014-05-29T10:56:12.999Z</time>
      </trkpt>
      <trkpt lat="43.65437" lon="6.84388">
        <ele>647.1</ele>
        <time>2014-05-29T10:56:14.000Z</time>
      </trkpt>
      <trkpt lat="43.65433" lon="6.84391">
        <ele>647.8</ele>
        <time>2014-05-29T10:56:15.000Z</time>
      </trkpt>
      <trkpt lat="43.6543" lon="6.84395">
        <ele>648.7</ele>
        <time>2014-05-29T10:56:16.000Z</time>
      </trkpt>
      <trkpt lat="43.65425" lon="6.84396">
        <ele>648.6</ele>
        <time>2014-05-29T10:56:17.000Z</time>
      </trkpt>
      <trkpt lat="43.6542" lon="6.84396">
        <ele>648.7</ele>
        <time>2014-05-29T10:56:18.000Z</time>
      </trkpt>
      <trkpt lat="43.65414" lon="6.84393">
        <ele>647.5</ele>
        <time>2014-05-29T10:56:19.000Z</time>
      </trkpt>
      <trkpt lat="43.65409" lon="6.84392">
        <ele>647.7</ele>
        <time>2014-05-29T10:56:20.000Z</time>
      </trkpt>
      <trkpt lat="43.65405" lon="6.84391">
        <ele>648.3</ele>
        <time>2014-05-29T10:56:21.000Z</time>
      </trkpt>
      <trkpt lat="43.654" lon="6.8439">
        <ele>649.5</ele>
        <time>2014-05-29T10:56:22.000Z</time>
      </trkpt>
      <trkpt lat="43.65395" lon="6.84387">
        <ele>649.6</ele>
        <time>2014-05-29T10:56:22.999Z</time>
      </trkpt>
      <trkpt lat="43.6539" lon="6.84386">
        <ele>649.7</ele>
        <time>2014-05-29T10:56:24.000Z</time>
      </trkpt>
      <trkpt lat="43.65386" lon="6.84385">
        <ele>650</ele>
        <time>2014-05-29T10:56:25.000Z</time>
      </trkpt>
      <trkpt lat="43.65383" lon="6.84385">
        <ele>650.3</ele>
        <time>2014-05-29T10:56:26.000Z</time>
      </trkpt>
      <trkpt lat="43.6538" lon="6.84385">
        <ele>650.5</ele>
        <time>2014-05-29T10:56:27.000Z</time>
      </trkpt>
      <trkpt lat="43.65377" lon="6.84384">
        <ele>650.4</ele>
        <time>2014-05-29T10:56:28.000Z</time>
      </trkpt>
      <trkpt lat="43.65372" lon="6.84382">
        <ele>651.6</ele>
        <time>2014-05-29T10:56:28.998Z</time>
      </trkpt>
      <trkpt lat="43.65368" lon="6.84383">
        <ele>651.3</ele>
        <time>2014-05-29T10:56:30.000Z</time>
      </trkpt>
      <trkpt lat="43.65363" lon="6.84384">
        <ele>651.8</ele>
        <time>2014-05-29T10:56:31.455Z</time>
      </trkpt>
      <trkpt lat="43.65368" lon="6.84384">
        <ele>651.5</ele>
        <time>2014-05-29T10:56:36.000Z</time>
      </trkpt>
      <trkpt lat="43.65369" lon="6.84385">
        <ele>650.8</ele>
        <time>2014-05-29T10:56:37.000Z</time>
      </trkpt>
      <trkpt lat="43.65366" lon="6.84386">
        <ele>650.4</ele>
        <time>2014-05-29T10:56:59.000Z</time>
      </trkpt>
      <trkpt lat="43.65364" lon="6.84385">
        <ele>650.3</ele>
        <time>2014-05-29T10:57:00.000Z</time>
      </trkpt>
      <trkpt lat="43.6536" lon="6.84386">
        <ele>649.7</ele>
        <time>2014-05-29T10:57:01.000Z</time>
      </trkpt>
      <trkpt lat="43.65357" lon="6.84387">
        <ele>650.5</ele>
        <time>2014-05-29T10:57:02.000Z</time>
      </trkpt>
      <trkpt lat="43.65355" lon="6.84387">
        <ele>651.3</ele>
        <time>2014-05-29T10:57:03.000Z</time>
      </trkpt>
      <trkpt lat="43.65353" lon="6.84389">
        <ele>651.5</ele>
        <time>2014-05-29T10:57:04.000Z</time>
      </trkpt>
      <trkpt lat="43.6535" lon="6.8439">
        <ele>652.4</ele>
        <time>2014-05-29T10:57:05.000Z</time>
      </trkpt>
      <trkpt lat="43.65348" lon="6.84391">
        <ele>652.8</ele>
        <time>2014-05-29T10:57:06.000Z</time>
      </trkpt>
      <trkpt lat="43.65346" lon="6.84392">
        <ele>653.4</ele>
        <time>2014-05-29T10:57:07.000Z</time>
      </trkpt>
      <trkpt lat="43.65344" lon="6.84393">
        <ele>653.2</ele>
        <time>2014-05-29T10:57:08.000Z</time>
      </trkpt>
      <trkpt lat="43.65342" lon="6.84394">
        <ele>653.3</ele>
        <time>2014-05-29T10:57:09.000Z</time>
      </trkpt>
      <trkpt lat="43.65339" lon="6.84397">
        <ele>653.8</ele>
        <time>2014-05-29T10:57:10.000Z</time>
      </trkpt>
      <trkpt lat="43.65336" lon="6.844">
        <ele>654.3</ele>
        <time>2014-05-29T10:57:12.000Z</time>
      </trkpt>
      <trkpt lat="43.65334" lon="6.84401">
        <ele>654.7</ele>
        <time>2014-05-29T10:57:13.000Z</time>
      </trkpt>
      <trkpt lat="43.65332" lon="6.84402">
        <ele>655</ele>
        <time>2014-05-29T10:57:14.000Z</time>
      </trkpt>
      <trkpt lat="43.6533" lon="6.84402">
        <ele>654.7</ele>
        <time>2014-05-29T10:57:15.000Z</time>
      </trkpt>
      <trkpt lat="43.65327" lon="6.84403">
        <ele>654.7</ele>
        <time>2014-05-29T10:57:16.000Z</time>
      </trkpt>
      <trkpt lat="43.65325" lon="6.84403">
        <ele>655</ele>
        <time>2014-05-29T10:57:17.000Z</time>
      </trkpt>
      <trkpt lat="43.65321" lon="6.84406">
        <ele>655.8</ele>
        <time>2014-05-29T10:57:19.000Z</time>
      </trkpt>
      <trkpt lat="43.65319" lon="6.84406">
        <ele>655.7</ele>
        <time>2014-05-29T10:57:20.000Z</time>
      </trkpt>
      <trkpt lat="43.65315" lon="6.84409">
        <ele>655.5</ele>
        <time>2014-05-29T10:57:22.000Z</time>
      </trkpt>
      <trkpt lat="43.65313" lon="6.84409">
        <ele>655.3</ele>
        <time>2014-05-29T10:57:23.000Z</time>
      </trkpt>
      <trkpt lat="43.65311" lon="6.84411">
        <ele>657.5</ele>
        <time>2014-05-29T10:57:24.000Z</time>
      </trkpt>
      <trkpt lat="43.65308" lon="6.84412">
        <ele>657</ele>
        <time>2014-05-29T10:57:25.000Z</time>
      </trkpt>
      <trkpt lat="43.65305" lon="6.84412">
        <ele>657</ele>
        <time>2014-05-29T10:57:26.000Z</time>
      </trkpt>
      <trkpt lat="43.65303" lon="6.84413">
        <ele>657.4</ele>
        <time>2014-05-29T10:57:27.000Z</time>
      </trkpt>
      <trkpt lat="43.653" lon="6.84414">
        <ele>657.3</ele>
        <time>2014-05-29T10:57:28.000Z</time>
      </trkpt>
      <trkpt lat="43.65298" lon="6.84414">
        <ele>657.4</ele>
        <time>2014-05-29T10:57:29.000Z</time>
      </trkpt>
      <trkpt lat="43.65295" lon="6.84415">
        <ele>657.6</ele>
        <time>2014-05-29T10:57:30.000Z</time>
      </trkpt>
      <trkpt lat="43.65292" lon="6.84416">
        <ele>657.4</ele>
        <time>2014-05-29T10:57:31.476Z</time>
      </trkpt>
      <trkpt lat="43.65291" lon="6.84416">
        <ele>657.4</ele>
        <time>2014-05-29T10:57:32.000Z</time>
      </trkpt>
      <trkpt lat="43.65284" lon="6.84418">
        <ele>656.5</ele>
        <time>2014-05-29T10:57:34.000Z</time>
      </trkpt>
      <trkpt lat="43.65283" lon="6.84421">
        <ele>656</ele>
        <time>2014-05-29T10:57:36.000Z</time>
      </trkpt>
      <trkpt lat="43.6528" lon="6.84422">
        <ele>656.3</ele>
        <time>2014-05-29T10:57:37.000Z</time>
      </trkpt>
      <trkpt lat="43.65277" lon="6.84422">
        <ele>656.9</ele>
        <time>2014-05-29T10:57:38.000Z</time>
      </trkpt>
      <trkpt lat="43.65274" lon="6.84423">
        <ele>656.4</ele>
        <time>2014-05-29T10:57:39.000Z</time>
      </trkpt>
      <trkpt lat="43.65271" lon="6.84424">
        <ele>656.5</ele>
        <time>2014-05-29T10:57:40.000Z</time>
      </trkpt>
      <trkpt lat="43.65267" lon="6.84426">
        <ele>655.4</ele>
        <time>2014-05-29T10:57:40.997Z</time>
      </trkpt>
      <trkpt lat="43.65261" lon="6.84426">
        <ele>654.1</ele>
        <time>2014-05-29T10:57:42.000Z</time>
      </trkpt>
      <trkpt lat="43.65256" lon="6.84426">
        <ele>653.9</ele>
        <time>2014-05-29T10:57:43.000Z</time>
      </trkpt>
      <trkpt lat="43.65252" lon="6.84427">
        <ele>653.7</ele>
        <time>2014-05-29T10:57:44.000Z</time>
      </trkpt>
      <trkpt lat="43.65246" lon="6.84427">
        <ele>652.9</ele>
        <time>2014-05-29T10:57:45.000Z</time>
      </trkpt>
      <trkpt lat="43.65241" lon="6.8443">
        <ele>652.7</ele>
        <time>2014-05-29T10:57:45.998Z</time>
      </trkpt>
      <trkpt lat="43.65236" lon="6.84431">
        <ele>653</ele>
        <time>2014-05-29T10:57:47.000Z</time>
      </trkpt>
      <trkpt lat="43.65233" lon="6.84433">
        <ele>653</ele>
        <time>2014-05-29T10:57:48.000Z</time>
      </trkpt>
      <trkpt lat="43.65227" lon="6.84435">
        <ele>653.7</ele>
        <time>2014-05-29T10:57:49.000Z</time>
      </trkpt>
      <trkpt lat="43.65223" lon="6.84438">
        <ele>653.4</ele>
        <time>2014-05-29T10:57:50.000Z</time>
      </trkpt>
      <trkpt lat="43.65217" lon="6.8444">
        <ele>652.4</ele>
        <time>2014-05-29T10:57:51.000Z</time>
      </trkpt>
      <trkpt lat="43.65213" lon="6.84441">
        <ele>651.8</ele>
        <time>2014-05-29T10:57:52.000Z</time>
      </trkpt>
      <trkpt lat="43.65207" lon="6.84441">
        <ele>653.3</ele>
        <time>2014-05-29T10:57:53.000Z</time>
      </trkpt>
      <trkpt lat="43.65202" lon="6.84443">
        <ele>653.8</ele>
        <time>2014-05-29T10:57:54.000Z</time>
      </trkpt>
      <trkpt lat="43.65197" lon="6.84444">
        <ele>654.5</ele>
        <time>2014-05-29T10:57:54.998Z</time>
      </trkpt>
      <trkpt lat="43.65193" lon="6.84446">
        <ele>654.3</ele>
        <time>2014-05-29T10:57:56.000Z</time>
      </trkpt>
      <trkpt lat="43.65189" lon="6.84447">
        <ele>654.1</ele>
        <time>2014-05-29T10:57:57.000Z</time>
      </trkpt>
      <trkpt lat="43.65185" lon="6.84448">
        <ele>654.7</ele>
        <time>2014-05-29T10:57:57.999Z</time>
      </trkpt>
      <trkpt lat="43.65181" lon="6.84449">
        <ele>654.9</ele>
        <time>2014-05-29T10:57:59.000Z</time>
      </trkpt>
      <trkpt lat="43.65177" lon="6.8445">
        <ele>654.7</ele>
        <time>2014-05-29T10:58:00.000Z</time>
      </trkpt>
      <trkpt lat="43.65172" lon="6.84451">
        <ele>654.7</ele>
        <time>2014-05-29T10:58:01.000Z</time>
      </trkpt>
      <trkpt lat="43.65168" lon="6.84452">
        <ele>652.5</ele>
        <time>2014-05-29T10:58:02.000Z</time>
      </trkpt>
      <trkpt lat="43.65164" lon="6.84452">
        <ele>653</ele>
        <time>2014-05-29T10:58:03.000Z</time>
      </trkpt>
      <trkpt lat="43.65159" lon="6.84451">
        <ele>653.7</ele>
        <time>2014-05-29T10:58:04.000Z</time>
      </trkpt>
      <trkpt lat="43.65155" lon="6.8445">
        <ele>654</ele>
        <time>2014-05-29T10:58:05.000Z</time>
      </trkpt>
      <trkpt lat="43.6515" lon="6.84449">
        <ele>653.9</ele>
        <time>2014-05-29T10:58:06.000Z</time>
      </trkpt>
      <trkpt lat="43.65146" lon="6.84448">
        <ele>654</ele>
        <time>2014-05-29T10:58:06.999Z</time>
      </trkpt>
      <trkpt lat="43.65143" lon="6.84447">
        <ele>654</ele>
        <time>2014-05-29T10:58:08.000Z</time>
      </trkpt>
      <trkpt lat="43.65139" lon="6.84447">
        <ele>653.8</ele>
        <time>2014-05-29T10:58:09.000Z</time>
      </trkpt>
      <trkpt lat="43.65136" lon="6.84451">
        <ele>654.3</ele>
        <time>2014-05-29T10:58:10.000Z</time>
      </trkpt>
      <trkpt lat="43.65132" lon="6.84452">
        <ele>654.3</ele>
        <time>2014-05-29T10:58:11.000Z</time>
      </trkpt>
      <trkpt lat="43.65129" lon="6.84453">
        <ele>654.2</ele>
        <time>2014-05-29T10:58:12.000Z</time>
      </trkpt>
      <trkpt lat="43.65125" lon="6.84454">
        <ele>654.1</ele>
        <time>2014-05-29T10:58:13.000Z</time>
      </trkpt>
      <trkpt lat="43.65122" lon="6.84454">
        <ele>654.2</ele>
        <time>2014-05-29T10:58:14.000Z</time>
      </trkpt>
      <trkpt lat="43.65117" lon="6.84456">
        <ele>655.2</ele>
        <time>2014-05-29T10:58:14.998Z</time>
      </trkpt>
      <trkpt lat="43.65114" lon="6.84456">
        <ele>655.1</ele>
        <time>2014-05-29T10:58:16.000Z</time>
      </trkpt>
      <trkpt lat="43.6511" lon="6.84457">
        <ele>654.7</ele>
        <time>2014-05-29T10:58:17.000Z</time>
      </trkpt>
      <trkpt lat="43.65104" lon="6.84455">
        <ele>656</ele>
        <time>2014-05-29T10:58:18.000Z</time>
      </trkpt>
      <trkpt lat="43.651" lon="6.84455">
        <ele>656.2</ele>
        <time>2014-05-29T10:58:19.000Z</time>
      </trkpt>
      <trkpt lat="43.65096" lon="6.84454">
        <ele>656.3</ele>
        <time>2014-05-29T10:58:20.000Z</time>
      </trkpt>
      <trkpt lat="43.65092" lon="6.84454">
        <ele>656.7</ele>
        <time>2014-05-29T10:58:21.000Z</time>
      </trkpt>
      <trkpt lat="43.65088" lon="6.84454">
        <ele>657</ele>
        <time>2014-05-29T10:58:21.996Z</time>
      </trkpt>
      <trkpt lat="43.65084" lon="6.84454">
        <ele>657</ele>
        <time>2014-05-29T10:58:23.000Z</time>
      </trkpt>
      <trkpt lat="43.6508" lon="6.84454">
        <ele>656.7</ele>
        <time>2014-05-29T10:58:23.999Z</time>
      </trkpt>
      <trkpt lat="43.65076" lon="6.84455">
        <ele>656.6</ele>
        <time>2014-05-29T10:58:25.000Z</time>
      </trkpt>
      <trkpt lat="43.65072" lon="6.84456">
        <ele>656.5</ele>
        <time>2014-05-29T10:58:26.000Z</time>
      </trkpt>
      <trkpt lat="43.65068" lon="6.84455">
        <ele>656.6</ele>
        <time>2014-05-29T10:58:27.000Z</time>
      </trkpt>
      <trkpt lat="43.65065" lon="6.84456">
        <ele>657.3</ele>
        <time>2014-05-29T10:58:28.000Z</time>
      </trkpt>
      <trkpt lat="43.65062" lon="6.84456">
        <ele>657.5</ele>
        <time>2014-05-29T10:58:29.000Z</time>
      </trkpt>
      <trkpt lat="43.6506" lon="6.84456">
        <ele>656.7</ele>
        <time>2014-05-29T10:58:29.998Z</time>
      </trkpt>
      <trkpt lat="43.65053" lon="6.84455">
        <ele>656.6</ele>
        <time>2014-05-29T10:58:31.480Z</time>
      </trkpt>
      <trkpt lat="43.65051" lon="6.84455">
        <ele>656.6</ele>
        <time>2014-05-29T10:58:32.000Z</time>
      </trkpt>
      <trkpt lat="43.65047" lon="6.84457">
        <ele>656.1</ele>
        <time>2014-05-29T10:58:33.000Z</time>
      </trkpt>
      <trkpt lat="43.65042" lon="6.84454">
        <ele>655.7</ele>
        <time>2014-05-29T10:58:34.000Z</time>
      </trkpt>
      <trkpt lat="43.65031" lon="6.84449">
        <ele>654.9</ele>
        <time>2014-05-29T10:58:35.000Z</time>
      </trkpt>
      <trkpt lat="43.65029" lon="6.84448">
        <ele>657</ele>
        <time>2014-05-29T10:58:36.000Z</time>
      </trkpt>
      <trkpt lat="43.65024" lon="6.84448">
        <ele>657.8</ele>
        <time>2014-05-29T10:58:37.000Z</time>
      </trkpt>
      <trkpt lat="43.65022" lon="6.84448">
        <ele>658.7</ele>
        <time>2014-05-29T10:58:38.000Z</time>
      </trkpt>
      <trkpt lat="43.65019" lon="6.84447">
        <ele>661.6</ele>
        <time>2014-05-29T10:58:39.000Z</time>
      </trkpt>
      <trkpt lat="43.65016" lon="6.84447">
        <ele>662.5</ele>
        <time>2014-05-29T10:58:40.000Z</time>
      </trkpt>
      <trkpt lat="43.65013" lon="6.84446">
        <ele>662.8</ele>
        <time>2014-05-29T10:58:41.000Z</time>
      </trkpt>
      <trkpt lat="43.65011" lon="6.84446">
        <ele>662.5</ele>
        <time>2014-05-29T10:58:42.000Z</time>
      </trkpt>
      <trkpt lat="43.65008" lon="6.84444">
        <ele>662.1</ele>
        <time>2014-05-29T10:58:43.000Z</time>
      </trkpt>
      <trkpt lat="43.65006" lon="6.84441">
        <ele>663</ele>
        <time>2014-05-29T10:58:44.000Z</time>
      </trkpt>
      <trkpt lat="43.65003" lon="6.84438">
        <ele>662.4</ele>
        <time>2014-05-29T10:58:45.000Z</time>
      </trkpt>
      <trkpt lat="43.64998" lon="6.84435">
        <ele>661.7</ele>
        <time>2014-05-29T10:58:46.000Z</time>
      </trkpt>
      <trkpt lat="43.64993" lon="6.84433">
        <ele>661.6</ele>
        <time>2014-05-29T10:58:47.000Z</time>
      </trkpt>
      <trkpt lat="43.64989" lon="6.84432">
        <ele>661.3</ele>
        <time>2014-05-29T10:58:48.000Z</time>
      </trkpt>
      <trkpt lat="43.64981" lon="6.84432">
        <ele>659.3</ele>
        <time>2014-05-29T10:58:49.000Z</time>
      </trkpt>
      <trkpt lat="43.64974" lon="6.84432">
        <ele>658.3</ele>
        <time>2014-05-29T10:58:50.000Z</time>
      </trkpt>
      <trkpt lat="43.64967" lon="6.84431">
        <ele>657.2</ele>
        <time>2014-05-29T10:58:51.000Z</time>
      </trkpt>
      <trkpt lat="43.64961" lon="6.84435">
        <ele>656.6</ele>
        <time>2014-05-29T10:58:52.000Z</time>
      </trkpt>
      <trkpt lat="43.64954" lon="6.84436">
        <ele>654.4</ele>
        <time>2014-05-29T10:58:53.000Z</time>
      </trkpt>
      <trkpt lat="43.64948" lon="6.84438">
        <ele>653.8</ele>
        <time>2014-05-29T10:58:54.000Z</time>
      </trkpt>
      <trkpt lat="43.64942" lon="6.84438">
        <ele>653.3</ele>
        <time>2014-05-29T10:58:55.000Z</time>
      </trkpt>
      <trkpt lat="43.64938" lon="6.84438">
        <ele>653.2</ele>
        <time>2014-05-29T10:58:56.000Z</time>
      </trkpt>
      <trkpt lat="43.64932" lon="6.84442">
        <ele>652.7</ele>
        <time>2014-05-29T10:58:57.000Z</time>
      </trkpt>
      <trkpt lat="43.64927" lon="6.84442">
        <ele>653.1</ele>
        <time>2014-05-29T10:58:58.000Z</time>
      </trkpt>
      <trkpt lat="43.64921" lon="6.84444">
        <ele>652.6</ele>
        <time>2014-05-29T10:58:59.000Z</time>
      </trkpt>
      <trkpt lat="43.64917" lon="6.84444">
        <ele>652.4</ele>
        <time>2014-05-29T10:59:00.000Z</time>
      </trkpt>
      <trkpt lat="43.64913" lon="6.84443">
        <ele>654</ele>
        <time>2014-05-29T10:59:01.000Z</time>
      </trkpt>
      <trkpt lat="43.64909" lon="6.84443">
        <ele>654.5</ele>
        <time>2014-05-29T10:59:02.000Z</time>
      </trkpt>
      <trkpt lat="43.64906" lon="6.84443">
        <ele>655.6</ele>
        <time>2014-05-29T10:59:02.998Z</time>
      </trkpt>
      <trkpt lat="43.64902" lon="6.84443">
        <ele>656.7</ele>
        <time>2014-05-29T10:59:04.000Z</time>
      </trkpt>
      <trkpt lat="43.64897" lon="6.84442">
        <ele>654.7</ele>
        <time>2014-05-29T10:59:05.000Z</time>
      </trkpt>
      <trkpt lat="43.64892" lon="6.84442">
        <ele>654</ele>
        <time>2014-05-29T10:59:05.999Z</time>
      </trkpt>
      <trkpt lat="43.64889" lon="6.84443">
        <ele>653.7</ele>
        <time>2014-05-29T10:59:07.000Z</time>
      </trkpt>
      <trkpt lat="43.64885" lon="6.84443">
        <ele>653.3</ele>
        <time>2014-05-29T10:59:08.000Z</time>
      </trkpt>
      <trkpt lat="43.64882" lon="6.84443">
        <ele>653.2</ele>
        <time>2014-05-29T10:59:09.000Z</time>
      </trkpt>
      <trkpt lat="43.6488" lon="6.84446">
        <ele>653.7</ele>
        <time>2014-05-29T10:59:10.000Z</time>
      </trkpt>
      <trkpt lat="43.6488" lon="6.84451">
        <ele>653.8</ele>
        <time>2014-05-29T10:59:10.998Z</time>
      </trkpt>
      <trkpt lat="43.64878" lon="6.84454">
        <ele>653.8</ele>
        <time>2014-05-29T10:59:12.000Z</time>
      </trkpt>
      <trkpt lat="43.64878" lon="6.84459">
        <ele>654</ele>
        <time>2014-05-29T10:59:13.000Z</time>
      </trkpt>
      <trkpt lat="43.64877" lon="6.8446">
        <ele>653.6</ele>
        <time>2014-05-29T10:59:13.998Z</time>
      </trkpt>
      <trkpt lat="43.64875" lon="6.84464">
        <ele>653.6</ele>
        <time>2014-05-29T10:59:15.000Z</time>
      </trkpt>
      <trkpt lat="43.64879" lon="6.84469">
        <ele>655.1</ele>
        <time>2014-05-29T10:59:16.000Z</time>
      </trkpt>
      <trkpt lat="43.64881" lon="6.84473">
        <ele>655.5</ele>
        <time>2014-05-29T10:59:17.000Z</time>
      </trkpt>
      <trkpt lat="43.64881" lon="6.84475">
        <ele>656.9</ele>
        <time>2014-05-29T10:59:18.000Z</time>
      </trkpt>
      <trkpt lat="43.6488" lon="6.84481">
        <ele>658.6</ele>
        <time>2014-05-29T10:59:20.000Z</time>
      </trkpt>
      <trkpt lat="43.64878" lon="6.84481">
        <ele>657</ele>
        <time>2014-05-29T10:59:21.000Z</time>
      </trkpt>
      <trkpt lat="43.64877" lon="6.84483">
        <ele>656.3</ele>
        <time>2014-05-29T10:59:22.000Z</time>
      </trkpt>
      <trkpt lat="43.64878" lon="6.84487">
        <ele>656.3</ele>
        <time>2014-05-29T10:59:23.000Z</time>
      </trkpt>
      <trkpt lat="43.64878" lon="6.84491">
        <ele>656.5</ele>
        <time>2014-05-29T10:59:24.000Z</time>
      </trkpt>
      <trkpt lat="43.64879" lon="6.84496">
        <ele>656.2</ele>
        <time>2014-05-29T10:59:25.000Z</time>
      </trkpt>
      <trkpt lat="43.64881" lon="6.84499">
        <ele>656.1</ele>
        <time>2014-05-29T10:59:26.000Z</time>
      </trkpt>
      <trkpt lat="43.64882" lon="6.84502">
        <ele>656.5</ele>
        <time>2014-05-29T10:59:27.000Z</time>
      </trkpt>
      <trkpt lat="43.64884" lon="6.84505">
        <ele>655.9</ele>
        <time>2014-05-29T10:59:28.000Z</time>
      </trkpt>
      <trkpt lat="43.64885" lon="6.84508">
        <ele>656.4</ele>
        <time>2014-05-29T10:59:29.000Z</time>
      </trkpt>
      <trkpt lat="43.64886" lon="6.84511">
        <ele>656.5</ele>
        <time>2014-05-29T10:59:30.000Z</time>
      </trkpt>
      <trkpt lat="43.64887" lon="6.84516">
        <ele>655.7</ele>
        <time>2014-05-29T10:59:31.000Z</time>
      </trkpt>
      <trkpt lat="43.64888" lon="6.84519">
        <ele>655.8</ele>
        <time>2014-05-29T10:59:32.000Z</time>
      </trkpt>
      <trkpt lat="43.64889" lon="6.84522">
        <ele>655.7</ele>
        <time>2014-05-29T10:59:33.000Z</time>
      </trkpt>
      <trkpt lat="43.6489" lon="6.84524">
        <ele>655.8</ele>
        <time>2014-05-29T10:59:34.000Z</time>
      </trkpt>
      <trkpt lat="43.64891" lon="6.84527">
        <ele>655.3</ele>
        <time>2014-05-29T10:59:35.000Z</time>
      </trkpt>
      <trkpt lat="43.64892" lon="6.84532">
        <ele>655.9</ele>
        <time>2014-05-29T10:59:37.000Z</time>
      </trkpt>
      <trkpt lat="43.64893" lon="6.84536">
        <ele>656.7</ele>
        <time>2014-05-29T10:59:38.000Z</time>
      </trkpt>
      <trkpt lat="43.64894" lon="6.84539">
        <ele>657.9</ele>
        <time>2014-05-29T10:59:39.000Z</time>
      </trkpt>
      <trkpt lat="43.64896" lon="6.84541">
        <ele>658.9</ele>
        <time>2014-05-29T10:59:40.000Z</time>
      </trkpt>
      <trkpt lat="43.64897" lon="6.84547">
        <ele>661.3</ele>
        <time>2014-05-29T10:59:42.000Z</time>
      </trkpt>
      <trkpt lat="43.64898" lon="6.84549">
        <ele>661.6</ele>
        <time>2014-05-29T10:59:43.000Z</time>
      </trkpt>
      <trkpt lat="43.64899" lon="6.84552">
        <ele>662.3</ele>
        <time>2014-05-29T10:59:44.000Z</time>
      </trkpt>
      <trkpt lat="43.64901" lon="6.84555">
        <ele>663.1</ele>
        <time>2014-05-29T10:59:45.000Z</time>
      </trkpt>
      <trkpt lat="43.64902" lon="6.8456">
        <ele>663.3</ele>
        <time>2014-05-29T10:59:47.000Z</time>
      </trkpt>
      <trkpt lat="43.64904" lon="6.84563">
        <ele>663</ele>
        <time>2014-05-29T10:59:48.000Z</time>
      </trkpt>
      <trkpt lat="43.64934" lon="6.84661">
        <ele>652.2</ele>
        <time>2014-05-29T11:00:20.000Z</time>
      </trkpt>
      <trkpt lat="43.64937" lon="6.84665">
        <ele>651.9</ele>
        <time>2014-05-29T11:00:21.000Z</time>
      </trkpt>
      <trkpt lat="43.64938" lon="6.84669">
        <ele>651.4</ele>
        <time>2014-05-29T11:00:22.000Z</time>
      </trkpt>
      <trkpt lat="43.64938" lon="6.84672">
        <ele>653.8</ele>
        <time>2014-05-29T11:00:23.000Z</time>
      </trkpt>
      <trkpt lat="43.64938" lon="6.84677">
        <ele>654.7</ele>
        <time>2014-05-29T11:00:24.000Z</time>
      </trkpt>
      <trkpt lat="43.6494" lon="6.84681">
        <ele>654.4</ele>
        <time>2014-05-29T11:00:25.000Z</time>
      </trkpt>
      <trkpt lat="43.64941" lon="6.84685">
        <ele>654.7</ele>
        <time>2014-05-29T11:00:26.000Z</time>
      </trkpt>
      <trkpt lat="43.64942" lon="6.84689">
        <ele>655.6</ele>
        <time>2014-05-29T11:00:27.000Z</time>
      </trkpt>
      <trkpt lat="43.64945" lon="6.84693">
        <ele>654.6</ele>
        <time>2014-05-29T11:00:28.000Z</time>
      </trkpt>
      <trkpt lat="43.64946" lon="6.84697">
        <ele>656.4</ele>
        <time>2014-05-29T11:00:29.000Z</time>
      </trkpt>
      <trkpt lat="43.64947" lon="6.847">
        <ele>656.5</ele>
        <time>2014-05-29T11:00:30.000Z</time>
      </trkpt>
      <trkpt lat="43.64948" lon="6.84704">
        <ele>656.5</ele>
        <time>2014-05-29T11:00:31.411Z</time>
      </trkpt>
      <trkpt lat="43.64949" lon="6.84707">
        <ele>656.6</ele>
        <time>2014-05-29T11:00:32.000Z</time>
      </trkpt>
      <trkpt lat="43.6495" lon="6.84712">
        <ele>656.8</ele>
        <time>2014-05-29T11:00:33.000Z</time>
      </trkpt>
      <trkpt lat="43.64951" lon="6.84717">
        <ele>656.7</ele>
        <time>2014-05-29T11:00:34.000Z</time>
      </trkpt>
      <trkpt lat="43.64954" lon="6.84722">
        <ele>658</ele>
        <time>2014-05-29T11:00:36.000Z</time>
      </trkpt>
      <trkpt lat="43.64955" lon="6.84725">
        <ele>659.4</ele>
        <time>2014-05-29T11:00:37.000Z</time>
      </trkpt>
      <trkpt lat="43.64957" lon="6.8473">
        <ele>659.2</ele>
        <time>2014-05-29T11:00:38.000Z</time>
      </trkpt>
      <trkpt lat="43.64959" lon="6.84733">
        <ele>659.7</ele>
        <time>2014-05-29T11:00:39.000Z</time>
      </trkpt>
      <trkpt lat="43.64961" lon="6.84737">
        <ele>660.4</ele>
        <time>2014-05-29T11:00:40.000Z</time>
      </trkpt>
      <trkpt lat="43.64963" lon="6.84741">
        <ele>660.3</ele>
        <time>2014-05-29T11:00:41.000Z</time>
      </trkpt>
      <trkpt lat="43.64964" lon="6.84745">
        <ele>660.8</ele>
        <time>2014-05-29T11:00:42.000Z</time>
      </trkpt>
      <trkpt lat="43.64965" lon="6.84749">
        <ele>661.8</ele>
        <time>2014-05-29T11:00:43.000Z</time>
      </trkpt>
      <trkpt lat="43.64967" lon="6.84753">
        <ele>662.2</ele>
        <time>2014-05-29T11:00:44.000Z</time>
      </trkpt>
      <trkpt lat="43.64968" lon="6.84755">
        <ele>662.8</ele>
        <time>2014-05-29T11:00:45.000Z</time>
      </trkpt>
      <trkpt lat="43.6497" lon="6.84758">
        <ele>662.7</ele>
        <time>2014-05-29T11:00:46.000Z</time>
      </trkpt>
      <trkpt lat="43.64972" lon="6.84763">
        <ele>665.5</ele>
        <time>2014-05-29T11:00:47.000Z</time>
      </trkpt>
      <trkpt lat="43.64974" lon="6.84767">
        <ele>666.7</ele>
        <time>2014-05-29T11:00:48.000Z</time>
      </trkpt>
      <trkpt lat="43.64977" lon="6.84772">
        <ele>666</ele>
        <time>2014-05-29T11:00:49.000Z</time>
      </trkpt>
      <trkpt lat="43.64978" lon="6.84777">
        <ele>665.9</ele>
        <time>2014-05-29T11:00:50.000Z</time>
      </trkpt>
      <trkpt lat="43.6498" lon="6.84781">
        <ele>666.7</ele>
        <time>2014-05-29T11:00:51.000Z</time>
      </trkpt>
      <trkpt lat="43.64982" lon="6.84784">
        <ele>667.2</ele>
        <time>2014-05-29T11:00:52.000Z</time>
      </trkpt>
      <trkpt lat="43.64984" lon="6.84789">
        <ele>667</ele>
        <time>2014-05-29T11:00:53.000Z</time>
      </trkpt>
      <trkpt lat="43.64986" lon="6.84794">
        <ele>666.9</ele>
        <time>2014-05-29T11:00:54.000Z</time>
      </trkpt>
      <trkpt lat="43.64988" lon="6.84799">
        <ele>666.4</ele>
        <time>2014-05-29T11:00:55.000Z</time>
      </trkpt>
      <trkpt lat="43.6499" lon="6.84804">
        <ele>665.9</ele>
        <time>2014-05-29T11:00:56.000Z</time>
      </trkpt>
      <trkpt lat="43.64993" lon="6.8481">
        <ele>665.8</ele>
        <time>2014-05-29T11:00:57.000Z</time>
      </trkpt>
      <trkpt lat="43.64996" lon="6.84814">
        <ele>664.7</ele>
        <time>2014-05-29T11:00:58.000Z</time>
      </trkpt>
      <trkpt lat="43.64998" lon="6.84819">
        <ele>664.4</ele>
        <time>2014-05-29T11:00:59.000Z</time>
      </trkpt>
      <trkpt lat="43.65" lon="6.84824">
        <ele>664.9</ele>
        <time>2014-05-29T11:01:00.000Z</time>
      </trkpt>
      <trkpt lat="43.65003" lon="6.84828">
        <ele>665.1</ele>
        <time>2014-05-29T11:01:01.000Z</time>
      </trkpt>
      <trkpt lat="43.65006" lon="6.84833">
        <ele>665.5</ele>
        <time>2014-05-29T11:01:02.000Z</time>
      </trkpt>
      <trkpt lat="43.65008" lon="6.84837">
        <ele>665.7</ele>
        <time>2014-05-29T11:01:03.000Z</time>
      </trkpt>
      <trkpt lat="43.65009" lon="6.84843">
        <ele>663.9</ele>
        <time>2014-05-29T11:01:04.000Z</time>
      </trkpt>
      <trkpt lat="43.65011" lon="6.84848">
        <ele>662.6</ele>
        <time>2014-05-29T11:01:05.000Z</time>
      </trkpt>
      <trkpt lat="43.65014" lon="6.84853">
        <ele>661.9</ele>
        <time>2014-05-29T11:01:06.000Z</time>
      </trkpt>
      <trkpt lat="43.65017" lon="6.84857">
        <ele>661.4</ele>
        <time>2014-05-29T11:01:07.000Z</time>
      </trkpt>
      <trkpt lat="43.65019" lon="6.84862">
        <ele>660.6</ele>
        <time>2014-05-29T11:01:08.000Z</time>
      </trkpt>
      <trkpt lat="43.65022" lon="6.84866">
        <ele>660.1</ele>
        <time>2014-05-29T11:01:09.000Z</time>
      </trkpt>
      <trkpt lat="43.65023" lon="6.8487">
        <ele>660.2</ele>
        <time>2014-05-29T11:01:10.000Z</time>
      </trkpt>
      <trkpt lat="43.65025" lon="6.84875">
        <ele>659.8</ele>
        <time>2014-05-29T11:01:11.000Z</time>
      </trkpt>
      <trkpt lat="43.65027" lon="6.84879">
        <ele>659.4</ele>
        <time>2014-05-29T11:01:12.000Z</time>
      </trkpt>
      <trkpt lat="43.65029" lon="6.84882">
        <ele>658.5</ele>
        <time>2014-05-29T11:01:13.000Z</time>
      </trkpt>
      <trkpt lat="43.65034" lon="6.84889">
        <ele>657.9</ele>
        <time>2014-05-29T11:01:14.000Z</time>
      </trkpt>
      <trkpt lat="43.65035" lon="6.84891">
        <ele>657.8</ele>
        <time>2014-05-29T11:01:15.000Z</time>
      </trkpt>
      <trkpt lat="43.65037" lon="6.84897">
        <ele>657.5</ele>
        <time>2014-05-29T11:01:16.000Z</time>
      </trkpt>
      <trkpt lat="43.65039" lon="6.84902">
        <ele>657.5</ele>
        <time>2014-05-29T11:01:17.000Z</time>
      </trkpt>
      <trkpt lat="43.65041" lon="6.84906">
        <ele>657.3</ele>
        <time>2014-05-29T11:01:18.000Z</time>
      </trkpt>
      <trkpt lat="43.65044" lon="6.8491">
        <ele>656</ele>
        <time>2014-05-29T11:01:19.000Z</time>
      </trkpt>
      <trkpt lat="43.65047" lon="6.84915">
        <ele>653.3</ele>
        <time>2014-05-29T11:01:20.000Z</time>
      </trkpt>
      <trkpt lat="43.65049" lon="6.84918">
        <ele>651.9</ele>
        <time>2014-05-29T11:01:21.000Z</time>
      </trkpt>
      <trkpt lat="43.65052" lon="6.84924">
        <ele>652.4</ele>
        <time>2014-05-29T11:01:22.000Z</time>
      </trkpt>
      <trkpt lat="43.65053" lon="6.84928">
        <ele>651.6</ele>
        <time>2014-05-29T11:01:23.000Z</time>
      </trkpt>
      <trkpt lat="43.65055" lon="6.84931">
        <ele>651.5</ele>
        <time>2014-05-29T11:01:24.000Z</time>
      </trkpt>
      <trkpt lat="43.65058" lon="6.84935">
        <ele>649.3</ele>
        <time>2014-05-29T11:01:25.000Z</time>
      </trkpt>
      <trkpt lat="43.65061" lon="6.84939">
        <ele>649.9</ele>
        <time>2014-05-29T11:01:26.000Z</time>
      </trkpt>
      <trkpt lat="43.65063" lon="6.84944">
        <ele>650.6</ele>
        <time>2014-05-29T11:01:27.000Z</time>
      </trkpt>
      <trkpt lat="43.65066" lon="6.84949">
        <ele>651.4</ele>
        <time>2014-05-29T11:01:28.000Z</time>
      </trkpt>
      <trkpt lat="43.65069" lon="6.84954">
        <ele>651.7</ele>
        <time>2014-05-29T11:01:29.000Z</time>
      </trkpt>
      <trkpt lat="43.65071" lon="6.84959">
        <ele>651.7</ele>
        <time>2014-05-29T11:01:30.000Z</time>
      </trkpt>
      <trkpt lat="43.65075" lon="6.84967">
        <ele>652.5</ele>
        <time>2014-05-29T11:01:31.470Z</time>
      </trkpt>
      <trkpt lat="43.65079" lon="6.84974">
        <ele>652.9</ele>
        <time>2014-05-29T11:01:33.000Z</time>
      </trkpt>
      <trkpt lat="43.65083" lon="6.84977">
        <ele>652.1</ele>
        <time>2014-05-29T11:01:34.000Z</time>
      </trkpt>
      <trkpt lat="43.65085" lon="6.84981">
        <ele>652.4</ele>
        <time>2014-05-29T11:01:35.000Z</time>
      </trkpt>
      <trkpt lat="43.65088" lon="6.84985">
        <ele>652.2</ele>
        <time>2014-05-29T11:01:36.000Z</time>
      </trkpt>
      <trkpt lat="43.6509" lon="6.8499">
        <ele>652.3</ele>
        <time>2014-05-29T11:01:37.000Z</time>
      </trkpt>
      <trkpt lat="43.65093" lon="6.84995">
        <ele>652.2</ele>
        <time>2014-05-29T11:01:38.000Z</time>
      </trkpt>
      <trkpt lat="43.65096" lon="6.84999">
        <ele>652</ele>
        <time>2014-05-29T11:01:39.000Z</time>
      </trkpt>
      <trkpt lat="43.65099" lon="6.85004">
        <ele>652</ele>
        <time>2014-05-29T11:01:40.000Z</time>
      </trkpt>
      <trkpt lat="43.65101" lon="6.85008">
        <ele>651.8</ele>
        <time>2014-05-29T11:01:41.000Z</time>
      </trkpt>
      <trkpt lat="43.65103" lon="6.85013">
        <ele>651.1</ele>
        <time>2014-05-29T11:01:42.000Z</time>
      </trkpt>
      <trkpt lat="43.65106" lon="6.85018">
        <ele>650.8</ele>
        <time>2014-05-29T11:01:43.000Z</time>
      </trkpt>
      <trkpt lat="43.65108" lon="6.85022">
        <ele>649.9</ele>
        <time>2014-05-29T11:01:44.000Z</time>
      </trkpt>
      <trkpt lat="43.65112" lon="6.85027">
        <ele>650.3</ele>
        <time>2014-05-29T11:01:45.000Z</time>
      </trkpt>
      <trkpt lat="43.65115" lon="6.85032">
        <ele>650.5</ele>
        <time>2014-05-29T11:01:46.000Z</time>
      </trkpt>
      <trkpt lat="43.65117" lon="6.85037">
        <ele>650.6</ele>
        <time>2014-05-29T11:01:47.000Z</time>
      </trkpt>
      <trkpt lat="43.6512" lon="6.85042">
        <ele>651.2</ele>
        <time>2014-05-29T11:01:48.000Z</time>
      </trkpt>
      <trkpt lat="43.65122" lon="6.85048">
        <ele>651.6</ele>
        <time>2014-05-29T11:01:49.000Z</time>
      </trkpt>
      <trkpt lat="43.65124" lon="6.85054">
        <ele>651.9</ele>
        <time>2014-05-29T11:01:50.000Z</time>
      </trkpt>
      <trkpt lat="43.65126" lon="6.85059">
        <ele>651.8</ele>
        <time>2014-05-29T11:01:51.000Z</time>
      </trkpt>
      <trkpt lat="43.65128" lon="6.85063">
        <ele>652.1</ele>
        <time>2014-05-29T11:01:52.000Z</time>
      </trkpt>
      <trkpt lat="43.65131" lon="6.85067">
        <ele>652.1</ele>
        <time>2014-05-29T11:01:53.000Z</time>
      </trkpt>
      <trkpt lat="43.65134" lon="6.8507">
        <ele>649.4</ele>
        <time>2014-05-29T11:01:54.000Z</time>
      </trkpt>
      <trkpt lat="43.65137" lon="6.85074">
        <ele>648.3</ele>
        <time>2014-05-29T11:01:55.000Z</time>
      </trkpt>
      <trkpt lat="43.65139" lon="6.85078">
        <ele>648.1</ele>
        <time>2014-05-29T11:01:56.000Z</time>
      </trkpt>
      <trkpt lat="43.65142" lon="6.85083">
        <ele>648.4</ele>
        <time>2014-05-29T11:01:57.000Z</time>
      </trkpt>
      <trkpt lat="43.65144" lon="6.85087">
        <ele>648.6</ele>
        <time>2014-05-29T11:01:58.000Z</time>
      </trkpt>
      <trkpt lat="43.65147" lon="6.8509">
        <ele>649</ele>
        <time>2014-05-29T11:01:59.000Z</time>
      </trkpt>
      <trkpt lat="43.65151" lon="6.85094">
        <ele>649.6</ele>
        <time>2014-05-29T11:02:00.000Z</time>
      </trkpt>
      <trkpt lat="43.65154" lon="6.85098">
        <ele>649.9</ele>
        <time>2014-05-29T11:02:01.000Z</time>
      </trkpt>
      <trkpt lat="43.65157" lon="6.85103">
        <ele>650.2</ele>
        <time>2014-05-29T11:02:02.000Z</time>
      </trkpt>
      <trkpt lat="43.65161" lon="6.85107">
        <ele>650.8</ele>
        <time>2014-05-29T11:02:03.000Z</time>
      </trkpt>
      <trkpt lat="43.65165" lon="6.85111">
        <ele>650.3</ele>
        <time>2014-05-29T11:02:04.000Z</time>
      </trkpt>
      <trkpt lat="43.65168" lon="6.85115">
        <ele>649.7</ele>
        <time>2014-05-29T11:02:05.000Z</time>
      </trkpt>
      <trkpt lat="43.65171" lon="6.85119">
        <ele>650.1</ele>
        <time>2014-05-29T11:02:06.000Z</time>
      </trkpt>
      <trkpt lat="43.65174" lon="6.85123">
        <ele>650</ele>
        <time>2014-05-29T11:02:07.000Z</time>
      </trkpt>
      <trkpt lat="43.65177" lon="6.85127">
        <ele>650.5</ele>
        <time>2014-05-29T11:02:08.000Z</time>
      </trkpt>
      <trkpt lat="43.6518" lon="6.85131">
        <ele>651.1</ele>
        <time>2014-05-29T11:02:09.000Z</time>
      </trkpt>
      <trkpt lat="43.65183" lon="6.85135">
        <ele>651.4</ele>
        <time>2014-05-29T11:02:10.000Z</time>
      </trkpt>
      <trkpt lat="43.65186" lon="6.85138">
        <ele>651.9</ele>
        <time>2014-05-29T11:02:11.000Z</time>
      </trkpt>
      <trkpt lat="43.65189" lon="6.85142">
        <ele>652.4</ele>
        <time>2014-05-29T11:02:12.000Z</time>
      </trkpt>
      <trkpt lat="43.65192" lon="6.85146">
        <ele>652.7</ele>
        <time>2014-05-29T11:02:13.000Z</time>
      </trkpt>
      <trkpt lat="43.65194" lon="6.85151">
        <ele>653.1</ele>
        <time>2014-05-29T11:02:14.000Z</time>
      </trkpt>
      <trkpt lat="43.65196" lon="6.85155">
        <ele>653.2</ele>
        <time>2014-05-29T11:02:15.000Z</time>
      </trkpt>
      <trkpt lat="43.65199" lon="6.85159">
        <ele>653.5</ele>
        <time>2014-05-29T11:02:16.000Z</time>
      </trkpt>
      <trkpt lat="43.65202" lon="6.85163">
        <ele>653.5</ele>
        <time>2014-05-29T11:02:17.000Z</time>
      </trkpt>
      <trkpt lat="43.65204" lon="6.85167">
        <ele>654.6</ele>
        <time>2014-05-29T11:02:18.000Z</time>
      </trkpt>
      <trkpt lat="43.65206" lon="6.85171">
        <ele>655</ele>
        <time>2014-05-29T11:02:19.000Z</time>
      </trkpt>
      <trkpt lat="43.65208" lon="6.85175">
        <ele>655.1</ele>
        <time>2014-05-29T11:02:20.000Z</time>
      </trkpt>
      <trkpt lat="43.6521" lon="6.85179">
        <ele>655.4</ele>
        <time>2014-05-29T11:02:21.000Z</time>
      </trkpt>
      <trkpt lat="43.65208" lon="6.85182">
        <ele>660.2</ele>
        <time>2014-05-29T11:02:22.000Z</time>
      </trkpt>
      <trkpt lat="43.6521" lon="6.85185">
        <ele>660.6</ele>
        <time>2014-05-29T11:02:23.000Z</time>
      </trkpt>
      <trkpt lat="43.65212" lon="6.85188">
        <ele>659.7</ele>
        <time>2014-05-29T11:02:24.000Z</time>
      </trkpt>
      <trkpt lat="43.65214" lon="6.85193">
        <ele>659.4</ele>
        <time>2014-05-29T11:02:25.000Z</time>
      </trkpt>
      <trkpt lat="43.65216" lon="6.85198">
        <ele>659.6</ele>
        <time>2014-05-29T11:02:26.000Z</time>
      </trkpt>
      <trkpt lat="43.65217" lon="6.85203">
        <ele>659.3</ele>
        <time>2014-05-29T11:02:27.000Z</time>
      </trkpt>
      <trkpt lat="43.65219" lon="6.85208">
        <ele>659.5</ele>
        <time>2014-05-29T11:02:28.000Z</time>
      </trkpt>
      <trkpt lat="43.6522" lon="6.85212">
        <ele>659.8</ele>
        <time>2014-05-29T11:02:29.000Z</time>
      </trkpt>
      <trkpt lat="43.65222" lon="6.85217">
        <ele>659.8</ele>
        <time>2014-05-29T11:02:30.000Z</time>
      </trkpt>
      <trkpt lat="43.65224" lon="6.85221">
        <ele>659.9</ele>
        <time>2014-05-29T11:02:31.000Z</time>
      </trkpt>
      <trkpt lat="43.65226" lon="6.85226">
        <ele>660.4</ele>
        <time>2014-05-29T11:02:32.000Z</time>
      </trkpt>
      <trkpt lat="43.65229" lon="6.8523">
        <ele>660.5</ele>
        <time>2014-05-29T11:02:33.000Z</time>
      </trkpt>
      <trkpt lat="43.6523" lon="6.85234">
        <ele>661.4</ele>
        <time>2014-05-29T11:02:34.000Z</time>
      </trkpt>
      <trkpt lat="43.65231" lon="6.85239">
        <ele>661.1</ele>
        <time>2014-05-29T11:02:35.000Z</time>
      </trkpt>
      <trkpt lat="43.65233" lon="6.85243">
        <ele>661.9</ele>
        <time>2014-05-29T11:02:36.000Z</time>
      </trkpt>
      <trkpt lat="43.65236" lon="6.85248">
        <ele>661.8</ele>
        <time>2014-05-29T11:02:37.000Z</time>
      </trkpt>
      <trkpt lat="43.65237" lon="6.85251">
        <ele>661.9</ele>
        <time>2014-05-29T11:02:38.000Z</time>
      </trkpt>
      <trkpt lat="43.65239" lon="6.85256">
        <ele>661.8</ele>
        <time>2014-05-29T11:02:39.000Z</time>
      </trkpt>
      <trkpt lat="43.65241" lon="6.85259">
        <ele>661.8</ele>
        <time>2014-05-29T11:02:40.000Z</time>
      </trkpt>
      <trkpt lat="43.65244" lon="6.85262">
        <ele>661.2</ele>
        <time>2014-05-29T11:02:41.000Z</time>
      </trkpt>
      <trkpt lat="43.65245" lon="6.85266">
        <ele>661.8</ele>
        <time>2014-05-29T11:02:42.000Z</time>
      </trkpt>
      <trkpt lat="43.65247" lon="6.85269">
        <ele>662</ele>
        <time>2014-05-29T11:02:43.000Z</time>
      </trkpt>
      <trkpt lat="43.65249" lon="6.85274">
        <ele>662.6</ele>
        <time>2014-05-29T11:02:44.000Z</time>
      </trkpt>
      <trkpt lat="43.65251" lon="6.85278">
        <ele>663.5</ele>
        <time>2014-05-29T11:02:45.000Z</time>
      </trkpt>
      <trkpt lat="43.65252" lon="6.85281">
        <ele>665.2</ele>
        <time>2014-05-29T11:02:46.000Z</time>
      </trkpt>
      <trkpt lat="43.65254" lon="6.85284">
        <ele>665.3</ele>
        <time>2014-05-29T11:02:47.000Z</time>
      </trkpt>
      <trkpt lat="43.65257" lon="6.8529">
        <ele>664.4</ele>
        <time>2014-05-29T11:02:48.000Z</time>
      </trkpt>
      <trkpt lat="43.65259" lon="6.85294">
        <ele>664.5</ele>
        <time>2014-05-29T11:02:49.000Z</time>
      </trkpt>
      <trkpt lat="43.65262" lon="6.85298">
        <ele>663.6</ele>
        <time>2014-05-29T11:02:50.000Z</time>
      </trkpt>
      <trkpt lat="43.65264" lon="6.85301">
        <ele>662.8</ele>
        <time>2014-05-29T11:02:51.000Z</time>
      </trkpt>
      <trkpt lat="43.65266" lon="6.85303">
        <ele>662.8</ele>
        <time>2014-05-29T11:02:52.000Z</time>
      </trkpt>
      <trkpt lat="43.65268" lon="6.85307">
        <ele>664.2</ele>
        <time>2014-05-29T11:02:53.000Z</time>
      </trkpt>
      <trkpt lat="43.6527" lon="6.85309">
        <ele>665.1</ele>
        <time>2014-05-29T11:02:54.000Z</time>
      </trkpt>
      <trkpt lat="43.65272" lon="6.85313">
        <ele>665.3</ele>
        <time>2014-05-29T11:02:55.000Z</time>
      </trkpt>
      <trkpt lat="43.65275" lon="6.85317">
        <ele>665.8</ele>
        <time>2014-05-29T11:02:56.000Z</time>
      </trkpt>
      <trkpt lat="43.65277" lon="6.8532">
        <ele>665.5</ele>
        <time>2014-05-29T11:02:57.000Z</time>
      </trkpt>
      <trkpt lat="43.65278" lon="6.85323">
        <ele>666.4</ele>
        <time>2014-05-29T11:02:58.000Z</time>
      </trkpt>
      <trkpt lat="43.65282" lon="6.85327">
        <ele>667.1</ele>
        <time>2014-05-29T11:03:00.000Z</time>
      </trkpt>
      <trkpt lat="43.65283" lon="6.85329">
        <ele>667.1</ele>
        <time>2014-05-29T11:03:01.000Z</time>
      </trkpt>
      <trkpt lat="43.65282" lon="6.85334">
        <ele>668.8</ele>
        <time>2014-05-29T11:03:03.000Z</time>
      </trkpt>
      <trkpt lat="43.65283" lon="6.85338">
        <ele>669.5</ele>
        <time>2014-05-29T11:03:04.000Z</time>
      </trkpt>
      <trkpt lat="43.65284" lon="6.85341">
        <ele>669.4</ele>
        <time>2014-05-29T11:03:05.000Z</time>
      </trkpt>
      <trkpt lat="43.65285" lon="6.85346">
        <ele>669.4</ele>
        <time>2014-05-29T11:03:06.000Z</time>
      </trkpt>
      <trkpt lat="43.65286" lon="6.85351">
        <ele>669.3</ele>
        <time>2014-05-29T11:03:07.000Z</time>
      </trkpt>
      <trkpt lat="43.65287" lon="6.85355">
        <ele>669.5</ele>
        <time>2014-05-29T11:03:08.000Z</time>
      </trkpt>
      <trkpt lat="43.65287" lon="6.8536">
        <ele>669.6</ele>
        <time>2014-05-29T11:03:09.000Z</time>
      </trkpt>
      <trkpt lat="43.6529" lon="6.85362">
        <ele>669.7</ele>
        <time>2014-05-29T11:03:10.000Z</time>
      </trkpt>
      <trkpt lat="43.65292" lon="6.85367">
        <ele>671.2</ele>
        <time>2014-05-29T11:03:11.000Z</time>
      </trkpt>
      <trkpt lat="43.65294" lon="6.85372">
        <ele>671.5</ele>
        <time>2014-05-29T11:03:12.000Z</time>
      </trkpt>
      <trkpt lat="43.65295" lon="6.85375">
        <ele>673.1</ele>
        <time>2014-05-29T11:03:13.000Z</time>
      </trkpt>
      <trkpt lat="43.65298" lon="6.8538">
        <ele>672.7</ele>
        <time>2014-05-29T11:03:14.000Z</time>
      </trkpt>
      <trkpt lat="43.653" lon="6.85383">
        <ele>673</ele>
        <time>2014-05-29T11:03:15.000Z</time>
      </trkpt>
      <trkpt lat="43.65301" lon="6.85386">
        <ele>672.4</ele>
        <time>2014-05-29T11:03:16.000Z</time>
      </trkpt>
      <trkpt lat="43.65304" lon="6.85391">
        <ele>672.1</ele>
        <time>2014-05-29T11:03:17.000Z</time>
      </trkpt>
      <trkpt lat="43.65305" lon="6.85396">
        <ele>672.6</ele>
        <time>2014-05-29T11:03:18.000Z</time>
      </trkpt>
      <trkpt lat="43.65306" lon="6.85401">
        <ele>673.3</ele>
        <time>2014-05-29T11:03:19.000Z</time>
      </trkpt>
      <trkpt lat="43.65307" lon="6.85405">
        <ele>673.8</ele>
        <time>2014-05-29T11:03:19.999Z</time>
      </trkpt>
      <trkpt lat="43.6531" lon="6.8541">
        <ele>672.6</ele>
        <time>2014-05-29T11:03:21.000Z</time>
      </trkpt>
      <trkpt lat="43.65311" lon="6.85414">
        <ele>673.3</ele>
        <time>2014-05-29T11:03:22.000Z</time>
      </trkpt>
      <trkpt lat="43.65313" lon="6.85418">
        <ele>672.8</ele>
        <time>2014-05-29T11:03:23.000Z</time>
      </trkpt>
      <trkpt lat="43.65315" lon="6.85422">
        <ele>672.1</ele>
        <time>2014-05-29T11:03:24.000Z</time>
      </trkpt>
      <trkpt lat="43.65317" lon="6.85426">
        <ele>672.4</ele>
        <time>2014-05-29T11:03:25.000Z</time>
      </trkpt>
      <trkpt lat="43.65319" lon="6.85431">
        <ele>671.9</ele>
        <time>2014-05-29T11:03:26.000Z</time>
      </trkpt>
      <trkpt lat="43.65322" lon="6.85435">
        <ele>672.3</ele>
        <time>2014-05-29T11:03:27.000Z</time>
      </trkpt>
      <trkpt lat="43.65324" lon="6.8544">
        <ele>672.7</ele>
        <time>2014-05-29T11:03:28.000Z</time>
      </trkpt>
      <trkpt lat="43.65327" lon="6.85444">
        <ele>672.6</ele>
        <time>2014-05-29T11:03:29.000Z</time>
      </trkpt>
      <trkpt lat="43.65329" lon="6.85447">
        <ele>672.6</ele>
        <time>2014-05-29T11:03:30.000Z</time>
      </trkpt>
      <trkpt lat="43.65334" lon="6.85453">
        <ele>672.5</ele>
        <time>2014-05-29T11:03:31.435Z</time>
      </trkpt>
      <trkpt lat="43.65336" lon="6.85455">
        <ele>672.6</ele>
        <time>2014-05-29T11:03:32.000Z</time>
      </trkpt>
      <trkpt lat="43.65339" lon="6.85461">
        <ele>672.8</ele>
        <time>2014-05-29T11:03:33.000Z</time>
      </trkpt>
      <trkpt lat="43.65339" lon="6.85465">
        <ele>666.3</ele>
        <time>2014-05-29T11:03:35.000Z</time>
      </trkpt>
      <trkpt lat="43.65341" lon="6.85467">
        <ele>668</ele>
        <time>2014-05-29T11:03:36.000Z</time>
      </trkpt>
      <trkpt lat="43.65344" lon="6.85471">
        <ele>669.1</ele>
        <time>2014-05-29T11:03:37.000Z</time>
      </trkpt>
      <trkpt lat="43.65345" lon="6.85475">
        <ele>669.7</ele>
        <time>2014-05-29T11:03:38.000Z</time>
      </trkpt>
      <trkpt lat="43.65347" lon="6.85478">
        <ele>670.3</ele>
        <time>2014-05-29T11:03:39.000Z</time>
      </trkpt>
      <trkpt lat="43.6535" lon="6.85481">
        <ele>670.6</ele>
        <time>2014-05-29T11:03:40.000Z</time>
      </trkpt>
      <trkpt lat="43.65352" lon="6.85485">
        <ele>668.9</ele>
        <time>2014-05-29T11:03:41.000Z</time>
      </trkpt>
      <trkpt lat="43.65353" lon="6.85489">
        <ele>668.1</ele>
        <time>2014-05-29T11:03:42.000Z</time>
      </trkpt>
      <trkpt lat="43.65354" lon="6.85493">
        <ele>666.4</ele>
        <time>2014-05-29T11:03:44.000Z</time>
      </trkpt>
      <trkpt lat="43.65356" lon="6.85496">
        <ele>667.1</ele>
        <time>2014-05-29T11:03:45.000Z</time>
      </trkpt>
      <trkpt lat="43.65359" lon="6.85499">
        <ele>667.9</ele>
        <time>2014-05-29T11:03:46.000Z</time>
      </trkpt>
      <trkpt lat="43.65361" lon="6.85502">
        <ele>668.9</ele>
        <time>2014-05-29T11:03:47.000Z</time>
      </trkpt>
      <trkpt lat="43.65363" lon="6.85506">
        <ele>668.8</ele>
        <time>2014-05-29T11:03:48.000Z</time>
      </trkpt>
      <trkpt lat="43.65365" lon="6.8551">
        <ele>668.9</ele>
        <time>2014-05-29T11:03:49.000Z</time>
      </trkpt>
      <trkpt lat="43.65367" lon="6.85514">
        <ele>666</ele>
        <time>2014-05-29T11:03:51.000Z</time>
      </trkpt>
      <trkpt lat="43.65368" lon="6.85518">
        <ele>664.4</ele>
        <time>2014-05-29T11:03:52.000Z</time>
      </trkpt>
      <trkpt lat="43.65368" lon="6.85521">
        <ele>663.5</ele>
        <time>2014-05-29T11:03:53.000Z</time>
      </trkpt>
      <trkpt lat="43.65372" lon="6.85524">
        <ele>663.5</ele>
        <time>2014-05-29T11:03:54.000Z</time>
      </trkpt>
      <trkpt lat="43.65375" lon="6.85529">
        <ele>662.8</ele>
        <time>2014-05-29T11:03:55.000Z</time>
      </trkpt>
      <trkpt lat="43.65377" lon="6.85532">
        <ele>662.9</ele>
        <time>2014-05-29T11:03:56.000Z</time>
      </trkpt>
      <trkpt lat="43.6538" lon="6.85536">
        <ele>663.7</ele>
        <time>2014-05-29T11:03:57.000Z</time>
      </trkpt>
      <trkpt lat="43.65383" lon="6.8554">
        <ele>664</ele>
        <time>2014-05-29T11:03:58.000Z</time>
      </trkpt>
      <trkpt lat="43.65385" lon="6.85544">
        <ele>664.4</ele>
        <time>2014-05-29T11:03:59.000Z</time>
      </trkpt>
      <trkpt lat="43.65389" lon="6.85548">
        <ele>665</ele>
        <time>2014-05-29T11:04:00.000Z</time>
      </trkpt>
      <trkpt lat="43.6539" lon="6.85552">
        <ele>666</ele>
        <time>2014-05-29T11:04:01.000Z</time>
      </trkpt>
      <trkpt lat="43.65393" lon="6.85554">
        <ele>666</ele>
        <time>2014-05-29T11:04:02.000Z</time>
      </trkpt>
      <trkpt lat="43.65396" lon="6.8556">
        <ele>666.2</ele>
        <time>2014-05-29T11:04:03.000Z</time>
      </trkpt>
      <trkpt lat="43.654" lon="6.85562">
        <ele>665.6</ele>
        <time>2014-05-29T11:04:04.000Z</time>
      </trkpt>
      <trkpt lat="43.65403" lon="6.85567">
        <ele>664.6</ele>
        <time>2014-05-29T11:04:05.000Z</time>
      </trkpt>
      <trkpt lat="43.65406" lon="6.85571">
        <ele>662.1</ele>
        <time>2014-05-29T11:04:06.000Z</time>
      </trkpt>
      <trkpt lat="43.65408" lon="6.85575">
        <ele>661.2</ele>
        <time>2014-05-29T11:04:07.000Z</time>
      </trkpt>
      <trkpt lat="43.65412" lon="6.85581">
        <ele>660.2</ele>
        <time>2014-05-29T11:04:08.000Z</time>
      </trkpt>
      <trkpt lat="43.65415" lon="6.85586">
        <ele>661.3</ele>
        <time>2014-05-29T11:04:09.000Z</time>
      </trkpt>
      <trkpt lat="43.65418" lon="6.8559">
        <ele>661.9</ele>
        <time>2014-05-29T11:04:10.000Z</time>
      </trkpt>
      <trkpt lat="43.6542" lon="6.85595">
        <ele>662.5</ele>
        <time>2014-05-29T11:04:11.000Z</time>
      </trkpt>
      <trkpt lat="43.65423" lon="6.85599">
        <ele>662</ele>
        <time>2014-05-29T11:04:12.000Z</time>
      </trkpt>
      <trkpt lat="43.65425" lon="6.85605">
        <ele>662.4</ele>
        <time>2014-05-29T11:04:13.000Z</time>
      </trkpt>
      <trkpt lat="43.65428" lon="6.8561">
        <ele>662.2</ele>
        <time>2014-05-29T11:04:14.000Z</time>
      </trkpt>
      <trkpt lat="43.6543" lon="6.85614">
        <ele>661.8</ele>
        <time>2014-05-29T11:04:15.000Z</time>
      </trkpt>
      <trkpt lat="43.65433" lon="6.85618">
        <ele>661.9</ele>
        <time>2014-05-29T11:04:17.000Z</time>
      </trkpt>
      <trkpt lat="43.65435" lon="6.85621">
        <ele>662</ele>
        <time>2014-05-29T11:04:18.000Z</time>
      </trkpt>
      <trkpt lat="43.65438" lon="6.85625">
        <ele>662.4</ele>
        <time>2014-05-29T11:04:19.000Z</time>
      </trkpt>
      <trkpt lat="43.6544" lon="6.85629">
        <ele>663.3</ele>
        <time>2014-05-29T11:04:20.000Z</time>
      </trkpt>
      <trkpt lat="43.65443" lon="6.85633">
        <ele>664.1</ele>
        <time>2014-05-29T11:04:21.000Z</time>
      </trkpt>
      <trkpt lat="43.65445" lon="6.85637">
        <ele>664.6</ele>
        <time>2014-05-29T11:04:22.000Z</time>
      </trkpt>
      <trkpt lat="43.65448" lon="6.85643">
        <ele>662.2</ele>
        <time>2014-05-29T11:04:23.000Z</time>
      </trkpt>
      <trkpt lat="43.6545" lon="6.85647">
        <ele>660.7</ele>
        <time>2014-05-29T11:04:24.000Z</time>
      </trkpt>
      <trkpt lat="43.65453" lon="6.85653">
        <ele>660.2</ele>
        <time>2014-05-29T11:04:25.000Z</time>
      </trkpt>
      <trkpt lat="43.65456" lon="6.85658">
        <ele>660</ele>
        <time>2014-05-29T11:04:26.000Z</time>
      </trkpt>
      <trkpt lat="43.65458" lon="6.85661">
        <ele>659.5</ele>
        <time>2014-05-29T11:04:27.000Z</time>
      </trkpt>
      <trkpt lat="43.65461" lon="6.85665">
        <ele>660</ele>
        <time>2014-05-29T11:04:28.000Z</time>
      </trkpt>
      <trkpt lat="43.65463" lon="6.85668">
        <ele>660</ele>
        <time>2014-05-29T11:04:29.000Z</time>
      </trkpt>
      <trkpt lat="43.65465" lon="6.85673">
        <ele>660.2</ele>
        <time>2014-05-29T11:04:30.000Z</time>
      </trkpt>
      <trkpt lat="43.65469" lon="6.85678">
        <ele>660.6</ele>
        <time>2014-05-29T11:04:31.403Z</time>
      </trkpt>
      <trkpt lat="43.6547" lon="6.85681">
        <ele>660.7</ele>
        <time>2014-05-29T11:04:32.000Z</time>
      </trkpt>
      <trkpt lat="43.65472" lon="6.85685">
        <ele>661.1</ele>
        <time>2014-05-29T11:04:33.000Z</time>
      </trkpt>
      <trkpt lat="43.65475" lon="6.85689">
        <ele>660.8</ele>
        <time>2014-05-29T11:04:34.000Z</time>
      </trkpt>
      <trkpt lat="43.65479" lon="6.85691">
        <ele>661.8</ele>
        <time>2014-05-29T11:04:35.000Z</time>
      </trkpt>
      <trkpt lat="43.65482" lon="6.85693">
        <ele>661.7</ele>
        <time>2014-05-29T11:04:36.000Z</time>
      </trkpt>
      <trkpt lat="43.65484" lon="6.85697">
        <ele>662.3</ele>
        <time>2014-05-29T11:04:37.000Z</time>
      </trkpt>
      <trkpt lat="43.65487" lon="6.85701">
        <ele>663.4</ele>
        <time>2014-05-29T11:04:38.000Z</time>
      </trkpt>
      <trkpt lat="43.65489" lon="6.85704">
        <ele>662.9</ele>
        <time>2014-05-29T11:04:39.000Z</time>
      </trkpt>
      <trkpt lat="43.65492" lon="6.85708">
        <ele>663</ele>
        <time>2014-05-29T11:04:40.000Z</time>
      </trkpt>
      <trkpt lat="43.65495" lon="6.85711">
        <ele>662.8</ele>
        <time>2014-05-29T11:04:41.000Z</time>
      </trkpt>
      <trkpt lat="43.65498" lon="6.85714">
        <ele>663</ele>
        <time>2014-05-29T11:04:42.000Z</time>
      </trkpt>
      <trkpt lat="43.65501" lon="6.85717">
        <ele>662.7</ele>
        <time>2014-05-29T11:04:43.000Z</time>
      </trkpt>
      <trkpt lat="43.65504" lon="6.8572">
        <ele>662.9</ele>
        <time>2014-05-29T11:04:44.000Z</time>
      </trkpt>
      <trkpt lat="43.65506" lon="6.85725">
        <ele>663.1</ele>
        <time>2014-05-29T11:04:45.000Z</time>
      </trkpt>
      <trkpt lat="43.65509" lon="6.85729">
        <ele>663.7</ele>
        <time>2014-05-29T11:04:46.000Z</time>
      </trkpt>
      <trkpt lat="43.65511" lon="6.85731">
        <ele>664.1</ele>
        <time>2014-05-29T11:04:47.000Z</time>
      </trkpt>
      <trkpt lat="43.65513" lon="6.85734">
        <ele>663.5</ele>
        <time>2014-05-29T11:04:48.000Z</time>
      </trkpt>
      <trkpt lat="43.656" lon="6.85939">
        <ele>657.1</ele>
        <time>2014-05-29T11:05:20.000Z</time>
      </trkpt>
      <trkpt lat="43.65607" lon="6.85949">
        <ele>652.4</ele>
        <time>2014-05-29T11:05:21.000Z</time>
      </trkpt>
      <trkpt lat="43.6561" lon="6.85966">
        <ele>638.4</ele>
        <time>2014-05-29T11:05:22.000Z</time>
      </trkpt>
      <trkpt lat="43.65613" lon="6.85978">
        <ele>643.4</ele>
        <time>2014-05-29T11:05:23.000Z</time>
      </trkpt>
      <trkpt lat="43.65617" lon="6.8599">
        <ele>642.8</ele>
        <time>2014-05-29T11:05:24.000Z</time>
      </trkpt>
      <trkpt lat="43.65621" lon="6.86001">
        <ele>644</ele>
        <time>2014-05-29T11:05:25.000Z</time>
      </trkpt>
      <trkpt lat="43.65623" lon="6.8601">
        <ele>645.2</ele>
        <time>2014-05-29T11:05:26.000Z</time>
      </trkpt>
      <trkpt lat="43.65624" lon="6.86024">
        <ele>642.8</ele>
        <time>2014-05-29T11:05:27.000Z</time>
      </trkpt>
      <trkpt lat="43.65626" lon="6.86037">
        <ele>639.8</ele>
        <time>2014-05-29T11:05:28.000Z</time>
      </trkpt>
      <trkpt lat="43.65627" lon="6.8605">
        <ele>637.1</ele>
        <time>2014-05-29T11:05:29.000Z</time>
      </trkpt>
      <trkpt lat="43.65629" lon="6.86065">
        <ele>634</ele>
        <time>2014-05-29T11:05:30.000Z</time>
      </trkpt>
      <trkpt lat="43.65632" lon="6.86088">
        <ele>630.6</ele>
        <time>2014-05-29T11:05:31.498Z</time>
      </trkpt>
      <trkpt lat="43.65633" lon="6.86109">
        <ele>631.5</ele>
        <time>2014-05-29T11:05:33.000Z</time>
      </trkpt>
      <trkpt lat="43.65634" lon="6.86121">
        <ele>630.8</ele>
        <time>2014-05-29T11:05:34.000Z</time>
      </trkpt>
      <trkpt lat="43.65632" lon="6.86135">
        <ele>631.4</ele>
        <time>2014-05-29T11:05:35.000Z</time>
      </trkpt>
      <trkpt lat="43.65631" lon="6.86149">
        <ele>631.3</ele>
        <time>2014-05-29T11:05:36.000Z</time>
      </trkpt>
      <trkpt lat="43.65631" lon="6.86158">
        <ele>629</ele>
        <time>2014-05-29T11:05:37.000Z</time>
      </trkpt>
      <trkpt lat="43.65631" lon="6.86168">
        <ele>629.2</ele>
        <time>2014-05-29T11:05:38.000Z</time>
      </trkpt>
      <trkpt lat="43.65625" lon="6.86178">
        <ele>627.7</ele>
        <time>2014-05-29T11:05:39.000Z</time>
      </trkpt>
      <trkpt lat="43.65625" lon="6.86188">
        <ele>627.9</ele>
        <time>2014-05-29T11:05:40.000Z</time>
      </trkpt>
      <trkpt lat="43.65623" lon="6.86201">
        <ele>626.8</ele>
        <time>2014-05-29T11:05:41.000Z</time>
      </trkpt>
      <trkpt lat="43.65615" lon="6.86211">
        <ele>626.7</ele>
        <time>2014-05-29T11:05:42.000Z</time>
      </trkpt>
      <trkpt lat="43.65613" lon="6.86221">
        <ele>626.3</ele>
        <time>2014-05-29T11:05:43.000Z</time>
      </trkpt>
      <trkpt lat="43.65604" lon="6.86236">
        <ele>628.3</ele>
        <time>2014-05-29T11:05:44.000Z</time>
      </trkpt>
      <trkpt lat="43.65599" lon="6.86249">
        <ele>627</ele>
        <time>2014-05-29T11:05:45.000Z</time>
      </trkpt>
      <trkpt lat="43.65598" lon="6.86261">
        <ele>626.3</ele>
        <time>2014-05-29T11:05:46.000Z</time>
      </trkpt>
      <trkpt lat="43.65596" lon="6.86273">
        <ele>625.1</ele>
        <time>2014-05-29T11:05:47.000Z</time>
      </trkpt>
      <trkpt lat="43.65599" lon="6.86282">
        <ele>625.4</ele>
        <time>2014-05-29T11:05:48.000Z</time>
      </trkpt>
      <trkpt lat="43.65599" lon="6.86292">
        <ele>626</ele>
        <time>2014-05-29T11:05:49.000Z</time>
      </trkpt>
      <trkpt lat="43.65601" lon="6.863">
        <ele>626.2</ele>
        <time>2014-05-29T11:05:50.000Z</time>
      </trkpt>
      <trkpt lat="43.65604" lon="6.86308">
        <ele>625.6</ele>
        <time>2014-05-29T11:05:51.000Z</time>
      </trkpt>
      <trkpt lat="43.65605" lon="6.86315">
        <ele>626.4</ele>
        <time>2014-05-29T11:05:52.000Z</time>
      </trkpt>
      <trkpt lat="43.65606" lon="6.86323">
        <ele>626.8</ele>
        <time>2014-05-29T11:05:53.000Z</time>
      </trkpt>
      <trkpt lat="43.65607" lon="6.8633">
        <ele>627.4</ele>
        <time>2014-05-29T11:05:54.000Z</time>
      </trkpt>
      <trkpt lat="43.65615" lon="6.86337">
        <ele>626.9</ele>
        <time>2014-05-29T11:05:55.000Z</time>
      </trkpt>
      <trkpt lat="43.65622" lon="6.86343">
        <ele>627.3</ele>
        <time>2014-05-29T11:05:56.000Z</time>
      </trkpt>
      <trkpt lat="43.65627" lon="6.8635">
        <ele>626.6</ele>
        <time>2014-05-29T11:05:57.000Z</time>
      </trkpt>
      <trkpt lat="43.65633" lon="6.86357">
        <ele>625.2</ele>
        <time>2014-05-29T11:05:58.000Z</time>
      </trkpt>
      <trkpt lat="43.6564" lon="6.86364">
        <ele>623.5</ele>
        <time>2014-05-29T11:05:58.998Z</time>
      </trkpt>
      <trkpt lat="43.65646" lon="6.86371">
        <ele>624.6</ele>
        <time>2014-05-29T11:06:00.000Z</time>
      </trkpt>
      <trkpt lat="43.65652" lon="6.86379">
        <ele>624.4</ele>
        <time>2014-05-29T11:06:01.000Z</time>
      </trkpt>
      <trkpt lat="43.65657" lon="6.86387">
        <ele>624.3</ele>
        <time>2014-05-29T11:06:01.999Z</time>
      </trkpt>
      <trkpt lat="43.65656" lon="6.86397">
        <ele>624.6</ele>
        <time>2014-05-29T11:06:03.000Z</time>
      </trkpt>
      <trkpt lat="43.65656" lon="6.86408">
        <ele>624.2</ele>
        <time>2014-05-29T11:06:04.000Z</time>
      </trkpt>
      <trkpt lat="43.65656" lon="6.8642">
        <ele>624.3</ele>
        <time>2014-05-29T11:06:05.000Z</time>
      </trkpt>
      <trkpt lat="43.65653" lon="6.86431">
        <ele>624.5</ele>
        <time>2014-05-29T11:06:06.000Z</time>
      </trkpt>
      <trkpt lat="43.65654" lon="6.86444">
        <ele>623.9</ele>
        <time>2014-05-29T11:06:07.000Z</time>
      </trkpt>
      <trkpt lat="43.65655" lon="6.86456">
        <ele>622.4</ele>
        <time>2014-05-29T11:06:08.000Z</time>
      </trkpt>
      <trkpt lat="43.65656" lon="6.86469">
        <ele>621.9</ele>
        <time>2014-05-29T11:06:09.000Z</time>
      </trkpt>
      <trkpt lat="43.65654" lon="6.86485">
        <ele>618.4</ele>
        <time>2014-05-29T11:06:10.000Z</time>
      </trkpt>
      <trkpt lat="43.65654" lon="6.86498">
        <ele>617.2</ele>
        <time>2014-05-29T11:06:11.000Z</time>
      </trkpt>
      <trkpt lat="43.65653" lon="6.86511">
        <ele>615.3</ele>
        <time>2014-05-29T11:06:12.000Z</time>
      </trkpt>
      <trkpt lat="43.65653" lon="6.86521">
        <ele>613.8</ele>
        <time>2014-05-29T11:06:13.000Z</time>
      </trkpt>
      <trkpt lat="43.65654" lon="6.86531">
        <ele>612.8</ele>
        <time>2014-05-29T11:06:14.000Z</time>
      </trkpt>
      <trkpt lat="43.65655" lon="6.8654">
        <ele>612.9</ele>
        <time>2014-05-29T11:06:15.000Z</time>
      </trkpt>
      <trkpt lat="43.65657" lon="6.86552">
        <ele>612.9</ele>
        <time>2014-05-29T11:06:16.000Z</time>
      </trkpt>
      <trkpt lat="43.65657" lon="6.86562">
        <ele>611.3</ele>
        <time>2014-05-29T11:06:17.000Z</time>
      </trkpt>
      <trkpt lat="43.65658" lon="6.86572">
        <ele>609.3</ele>
        <time>2014-05-29T11:06:18.000Z</time>
      </trkpt>
      <trkpt lat="43.6566" lon="6.86584">
        <ele>608.8</ele>
        <time>2014-05-29T11:06:19.000Z</time>
      </trkpt>
      <trkpt lat="43.65661" lon="6.86592">
        <ele>608.1</ele>
        <time>2014-05-29T11:06:20.000Z</time>
      </trkpt>
      <trkpt lat="43.65664" lon="6.866">
        <ele>607.7</ele>
        <time>2014-05-29T11:06:21.000Z</time>
      </trkpt>
      <trkpt lat="43.65668" lon="6.86609">
        <ele>606.9</ele>
        <time>2014-05-29T11:06:22.000Z</time>
      </trkpt>
      <trkpt lat="43.65671" lon="6.86622">
        <ele>606.2</ele>
        <time>2014-05-29T11:06:23.000Z</time>
      </trkpt>
      <trkpt lat="43.65676" lon="6.86633">
        <ele>606.4</ele>
        <time>2014-05-29T11:06:24.000Z</time>
      </trkpt>
      <trkpt lat="43.65681" lon="6.86643">
        <ele>606.3</ele>
        <time>2014-05-29T11:06:25.000Z</time>
      </trkpt>
      <trkpt lat="43.65685" lon="6.86652">
        <ele>605.9</ele>
        <time>2014-05-29T11:06:26.000Z</time>
      </trkpt>
      <trkpt lat="43.65691" lon="6.86662">
        <ele>606.5</ele>
        <time>2014-05-29T11:06:27.000Z</time>
      </trkpt>
      <trkpt lat="43.65694" lon="6.8667">
        <ele>605.8</ele>
        <time>2014-05-29T11:06:28.000Z</time>
      </trkpt>
      <trkpt lat="43.65697" lon="6.86678">
        <ele>605.8</ele>
        <time>2014-05-29T11:06:29.000Z</time>
      </trkpt>
      <trkpt lat="43.657" lon="6.86686">
        <ele>606.1</ele>
        <time>2014-05-29T11:06:30.000Z</time>
      </trkpt>
      <trkpt lat="43.65699" lon="6.86684">
        <ele>606.2</ele>
        <time>2014-05-29T11:06:29.795Z</time>
      </trkpt>
      <trkpt lat="43.65706" lon="6.867">
        <ele>604.9</ele>
        <time>2014-05-29T11:06:32.054Z</time>
      </trkpt>
      <trkpt lat="43.65709" lon="6.86708">
        <ele>604.4</ele>
        <time>2014-05-29T11:06:33.054Z</time>
      </trkpt>
      <trkpt lat="43.65712" lon="6.86715">
        <ele>603.8</ele>
        <time>2014-05-29T11:06:34.054Z</time>
      </trkpt>
      <trkpt lat="43.65715" lon="6.86722">
        <ele>603.3</ele>
        <time>2014-05-29T11:06:35.054Z</time>
      </trkpt>
      <trkpt lat="43.65718" lon="6.86729">
        <ele>602.7</ele>
        <time>2014-05-29T11:06:36.054Z</time>
      </trkpt>
      <trkpt lat="43.65721" lon="6.86736">
        <ele>602.2</ele>
        <time>2014-05-29T11:06:37.054Z</time>
      </trkpt>
      <trkpt lat="43.65724" lon="6.86743">
        <ele>601.6</ele>
        <time>2014-05-29T11:06:38.054Z</time>
      </trkpt>
      <trkpt lat="43.65719" lon="6.86743">
        <ele>599.7</ele>
        <time>2014-05-29T11:06:41.000Z</time>
      </trkpt>
      <trkpt lat="43.65723" lon="6.86747">
        <ele>598.5</ele>
        <time>2014-05-29T11:06:42.000Z</time>
      </trkpt>
      <trkpt lat="43.65725" lon="6.8675">
        <ele>599.5</ele>
        <time>2014-05-29T11:06:43.000Z</time>
      </trkpt>
      <trkpt lat="43.65726" lon="6.86752">
        <ele>600.6</ele>
        <time>2014-05-29T11:06:44.000Z</time>
      </trkpt>
      <trkpt lat="43.65728" lon="6.86757">
        <ele>603.2</ele>
        <time>2014-05-29T11:06:46.000Z</time>
      </trkpt>
      <trkpt lat="43.65728" lon="6.86759">
        <ele>603.8</ele>
        <time>2014-05-29T11:06:47.000Z</time>
      </trkpt>
      <trkpt lat="43.6573" lon="6.86762">
        <ele>603.6</ele>
        <time>2014-05-29T11:06:48.000Z</time>
      </trkpt>
      <trkpt lat="43.65731" lon="6.86766">
        <ele>603.8</ele>
        <time>2014-05-29T11:06:49.000Z</time>
      </trkpt>
      <trkpt lat="43.65733" lon="6.8677">
        <ele>605.4</ele>
        <time>2014-05-29T11:06:50.000Z</time>
      </trkpt>
      <trkpt lat="43.65737" lon="6.86773">
        <ele>606.1</ele>
        <time>2014-05-29T11:06:51.000Z</time>
      </trkpt>
      <trkpt lat="43.65739" lon="6.86775">
        <ele>604.5</ele>
        <time>2014-05-29T11:06:52.000Z</time>
      </trkpt>
      <trkpt lat="43.65741" lon="6.86778">
        <ele>604.6</ele>
        <time>2014-05-29T11:06:53.000Z</time>
      </trkpt>
      <trkpt lat="43.65744" lon="6.86782">
        <ele>603.3</ele>
        <time>2014-05-29T11:06:56.000Z</time>
      </trkpt>
      <trkpt lat="43.65746" lon="6.86786">
        <ele>602.2</ele>
        <time>2014-05-29T11:06:57.000Z</time>
      </trkpt>
      <trkpt lat="43.65749" lon="6.86791">
        <ele>601.6</ele>
        <time>2014-05-29T11:06:58.000Z</time>
      </trkpt>
      <trkpt lat="43.65753" lon="6.86796">
        <ele>600.3</ele>
        <time>2014-05-29T11:06:59.000Z</time>
      </trkpt>
      <trkpt lat="43.65753" lon="6.86804">
        <ele>600.1</ele>
        <time>2014-05-29T11:07:00.000Z</time>
      </trkpt>
      <trkpt lat="43.65753" lon="6.86809">
        <ele>600.4</ele>
        <time>2014-05-29T11:07:01.000Z</time>
      </trkpt>
      <trkpt lat="43.65753" lon="6.86818">
        <ele>595.9</ele>
        <time>2014-05-29T11:07:02.000Z</time>
      </trkpt>
      <trkpt lat="43.65752" lon="6.86824">
        <ele>593.9</ele>
        <time>2014-05-29T11:07:03.000Z</time>
      </trkpt>
      <trkpt lat="43.65753" lon="6.86832">
        <ele>593.8</ele>
        <time>2014-05-29T11:07:04.000Z</time>
      </trkpt>
      <trkpt lat="43.65756" lon="6.86843">
        <ele>594.1</ele>
        <time>2014-05-29T11:07:05.000Z</time>
      </trkpt>
      <trkpt lat="43.65756" lon="6.8685">
        <ele>594.1</ele>
        <time>2014-05-29T11:07:06.000Z</time>
      </trkpt>
      <trkpt lat="43.65757" lon="6.86861">
        <ele>595</ele>
        <time>2014-05-29T11:07:07.000Z</time>
      </trkpt>
      <trkpt lat="43.65757" lon="6.8687">
        <ele>594.3</ele>
        <time>2014-05-29T11:07:08.000Z</time>
      </trkpt>
      <trkpt lat="43.65756" lon="6.86879">
        <ele>594.9</ele>
        <time>2014-05-29T11:07:09.000Z</time>
      </trkpt>
      <trkpt lat="43.65754" lon="6.86888">
        <ele>596.4</ele>
        <time>2014-05-29T11:07:10.000Z</time>
      </trkpt>
      <trkpt lat="43.65754" lon="6.86896">
        <ele>596.7</ele>
        <time>2014-05-29T11:07:11.000Z</time>
      </trkpt>
      <trkpt lat="43.65754" lon="6.86906">
        <ele>595.7</ele>
        <time>2014-05-29T11:07:12.000Z</time>
      </trkpt>
      <trkpt lat="43.65753" lon="6.86915">
        <ele>595.4</ele>
        <time>2014-05-29T11:07:13.000Z</time>
      </trkpt>
      <trkpt lat="43.65751" lon="6.86923">
        <ele>595.2</ele>
        <time>2014-05-29T11:07:14.000Z</time>
      </trkpt>
      <trkpt lat="43.65748" lon="6.8693">
        <ele>595.6</ele>
        <time>2014-05-29T11:07:15.000Z</time>
      </trkpt>
      <trkpt lat="43.65749" lon="6.86937">
        <ele>594.7</ele>
        <time>2014-05-29T11:07:16.000Z</time>
      </trkpt>
      <trkpt lat="43.65746" lon="6.86945">
        <ele>595.7</ele>
        <time>2014-05-29T11:07:17.000Z</time>
      </trkpt>
      <trkpt lat="43.65745" lon="6.86953">
        <ele>595.6</ele>
        <time>2014-05-29T11:07:18.000Z</time>
      </trkpt>
      <trkpt lat="43.65745" lon="6.8696">
        <ele>594.8</ele>
        <time>2014-05-29T11:07:19.000Z</time>
      </trkpt>
      <trkpt lat="43.65745" lon="6.86966">
        <ele>594.4</ele>
        <time>2014-05-29T11:07:20.000Z</time>
      </trkpt>
      <trkpt lat="43.65744" lon="6.86974">
        <ele>594.2</ele>
        <time>2014-05-29T11:07:21.000Z</time>
      </trkpt>
      <trkpt lat="43.65743" lon="6.86981">
        <ele>595.8</ele>
        <time>2014-05-29T11:07:22.000Z</time>
      </trkpt>
      <trkpt lat="43.65742" lon="6.86989">
        <ele>597.2</ele>
        <time>2014-05-29T11:07:23.000Z</time>
      </trkpt>
      <trkpt lat="43.65742" lon="6.86997">
        <ele>597.2</ele>
        <time>2014-05-29T11:07:24.000Z</time>
      </trkpt>
      <trkpt lat="43.6574" lon="6.87004">
        <ele>597.7</ele>
        <time>2014-05-29T11:07:25.000Z</time>
      </trkpt>
      <trkpt lat="43.65739" lon="6.8701">
        <ele>596.3</ele>
        <time>2014-05-29T11:07:26.000Z</time>
      </trkpt>
      <trkpt lat="43.65738" lon="6.87016">
        <ele>595.9</ele>
        <time>2014-05-29T11:07:27.000Z</time>
      </trkpt>
      <trkpt lat="43.65738" lon="6.87024">
        <ele>595.4</ele>
        <time>2014-05-29T11:07:28.000Z</time>
      </trkpt>
      <trkpt lat="43.65738" lon="6.87031">
        <ele>596.1</ele>
        <time>2014-05-29T11:07:29.000Z</time>
      </trkpt>
      <trkpt lat="43.65737" lon="6.87037">
        <ele>597.4</ele>
        <time>2014-05-29T11:07:30.000Z</time>
      </trkpt>
      <trkpt lat="43.65737" lon="6.8705">
        <ele>598.6</ele>
        <time>2014-05-29T11:07:32.000Z</time>
      </trkpt>
      <trkpt lat="43.65737" lon="6.87056">
        <ele>599.3</ele>
        <time>2014-05-29T11:07:33.000Z</time>
      </trkpt>
      <trkpt lat="43.65737" lon="6.87062">
        <ele>598.5</ele>
        <time>2014-05-29T11:07:34.000Z</time>
      </trkpt>
      <trkpt lat="43.65736" lon="6.87068">
        <ele>598.8</ele>
        <time>2014-05-29T11:07:35.000Z</time>
      </trkpt>
      <trkpt lat="43.65737" lon="6.87075">
        <ele>599.2</ele>
        <time>2014-05-29T11:07:36.000Z</time>
      </trkpt>
      <trkpt lat="43.65736" lon="6.87081">
        <ele>599</ele>
        <time>2014-05-29T11:07:37.000Z</time>
      </trkpt>
      <trkpt lat="43.65735" lon="6.87089">
        <ele>599.1</ele>
        <time>2014-05-29T11:07:38.000Z</time>
      </trkpt>
      <trkpt lat="43.65735" lon="6.87096">
        <ele>598.5</ele>
        <time>2014-05-29T11:07:39.000Z</time>
      </trkpt>
      <trkpt lat="43.65735" lon="6.87103">
        <ele>597.9</ele>
        <time>2014-05-29T11:07:40.000Z</time>
      </trkpt>
      <trkpt lat="43.65735" lon="6.87109">
        <ele>596.6</ele>
        <time>2014-05-29T11:07:41.000Z</time>
      </trkpt>
      <trkpt lat="43.65735" lon="6.87115">
        <ele>596.6</ele>
        <time>2014-05-29T11:07:42.000Z</time>
      </trkpt>
      <trkpt lat="43.65736" lon="6.87122">
        <ele>596.5</ele>
        <time>2014-05-29T11:07:43.000Z</time>
      </trkpt>
      <trkpt lat="43.65735" lon="6.8713">
        <ele>597</ele>
        <time>2014-05-29T11:07:44.000Z</time>
      </trkpt>
      <trkpt lat="43.65734" lon="6.87137">
        <ele>597.4</ele>
        <time>2014-05-29T11:07:45.000Z</time>
      </trkpt>
      <trkpt lat="43.65735" lon="6.87143">
        <ele>597.9</ele>
        <time>2014-05-29T11:07:46.000Z</time>
      </trkpt>
      <trkpt lat="43.65734" lon="6.87149">
        <ele>597.9</ele>
        <time>2014-05-29T11:07:47.000Z</time>
      </trkpt>
      <trkpt lat="43.65732" lon="6.87154">
        <ele>598.6</ele>
        <time>2014-05-29T11:07:48.000Z</time>
      </trkpt>
      <trkpt lat="43.65729" lon="6.8716">
        <ele>599.4</ele>
        <time>2014-05-29T11:07:49.000Z</time>
      </trkpt>
      <trkpt lat="43.65726" lon="6.87165">
        <ele>599.6</ele>
        <time>2014-05-29T11:07:50.000Z</time>
      </trkpt>
      <trkpt lat="43.65723" lon="6.8717">
        <ele>600.2</ele>
        <time>2014-05-29T11:07:51.000Z</time>
      </trkpt>
      <trkpt lat="43.6572" lon="6.87174">
        <ele>600.5</ele>
        <time>2014-05-29T11:07:52.000Z</time>
      </trkpt>
      <trkpt lat="43.65718" lon="6.87179">
        <ele>600.7</ele>
        <time>2014-05-29T11:07:53.000Z</time>
      </trkpt>
      <trkpt lat="43.65716" lon="6.87183">
        <ele>600.6</ele>
        <time>2014-05-29T11:07:54.000Z</time>
      </trkpt>
      <trkpt lat="43.65713" lon="6.87188">
        <ele>600.5</ele>
        <time>2014-05-29T11:07:55.000Z</time>
      </trkpt>
      <trkpt lat="43.6571" lon="6.87192">
        <ele>600.9</ele>
        <time>2014-05-29T11:07:56.000Z</time>
      </trkpt>
      <trkpt lat="43.65708" lon="6.87196">
        <ele>601.5</ele>
        <time>2014-05-29T11:07:57.000Z</time>
      </trkpt>
      <trkpt lat="43.65705" lon="6.872">
        <ele>601.5</ele>
        <time>2014-05-29T11:07:58.000Z</time>
      </trkpt>
      <trkpt lat="43.65702" lon="6.87204">
        <ele>601.5</ele>
        <time>2014-05-29T11:07:59.000Z</time>
      </trkpt>
      <trkpt lat="43.657" lon="6.87207">
        <ele>601.3</ele>
        <time>2014-05-29T11:08:00.000Z</time>
      </trkpt>
      <trkpt lat="43.65698" lon="6.87212">
        <ele>601.3</ele>
        <time>2014-05-29T11:08:01.000Z</time>
      </trkpt>
      <trkpt lat="43.65696" lon="6.87216">
        <ele>602</ele>
        <time>2014-05-29T11:08:02.000Z</time>
      </trkpt>
      <trkpt lat="43.65694" lon="6.8722">
        <ele>602.2</ele>
        <time>2014-05-29T11:08:03.000Z</time>
      </trkpt>
      <trkpt lat="43.65692" lon="6.87225">
        <ele>602.3</ele>
        <time>2014-05-29T11:08:04.000Z</time>
      </trkpt>
      <trkpt lat="43.6569" lon="6.87229">
        <ele>601.9</ele>
        <time>2014-05-29T11:08:05.000Z</time>
      </trkpt>
      <trkpt lat="43.65688" lon="6.87234">
        <ele>601.3</ele>
        <time>2014-05-29T11:08:06.000Z</time>
      </trkpt>
      <trkpt lat="43.65687" lon="6.87238">
        <ele>601.9</ele>
        <time>2014-05-29T11:08:07.000Z</time>
      </trkpt>
      <trkpt lat="43.65686" lon="6.87244">
        <ele>602.3</ele>
        <time>2014-05-29T11:08:08.000Z</time>
      </trkpt>
      <trkpt lat="43.65685" lon="6.87249">
        <ele>603.2</ele>
        <time>2014-05-29T11:08:09.000Z</time>
      </trkpt>
      <trkpt lat="43.65683" lon="6.87253">
        <ele>603.1</ele>
        <time>2014-05-29T11:08:10.000Z</time>
      </trkpt>
      <trkpt lat="43.65683" lon="6.87258">
        <ele>602.9</ele>
        <time>2014-05-29T11:08:11.000Z</time>
      </trkpt>
      <trkpt lat="43.65682" lon="6.87264">
        <ele>602.7</ele>
        <time>2014-05-29T11:08:12.000Z</time>
      </trkpt>
      <trkpt lat="43.65682" lon="6.8727">
        <ele>602.7</ele>
        <time>2014-05-29T11:08:13.000Z</time>
      </trkpt>
      <trkpt lat="43.65682" lon="6.87276">
        <ele>602.9</ele>
        <time>2014-05-29T11:08:14.000Z</time>
      </trkpt>
      <trkpt lat="43.65681" lon="6.87282">
        <ele>602.7</ele>
        <time>2014-05-29T11:08:15.000Z</time>
      </trkpt>
      <trkpt lat="43.65679" lon="6.87289">
        <ele>600.7</ele>
        <time>2014-05-29T11:08:16.000Z</time>
      </trkpt>
      <trkpt lat="43.65677" lon="6.87295">
        <ele>600</ele>
        <time>2014-05-29T11:08:17.000Z</time>
      </trkpt>
      <trkpt lat="43.65677" lon="6.87302">
        <ele>599.7</ele>
        <time>2014-05-29T11:08:18.000Z</time>
      </trkpt>
      <trkpt lat="43.65674" lon="6.87309">
        <ele>600.1</ele>
        <time>2014-05-29T11:08:19.000Z</time>
      </trkpt>
      <trkpt lat="43.65671" lon="6.87316">
        <ele>599.9</ele>
        <time>2014-05-29T11:08:20.000Z</time>
      </trkpt>
      <trkpt lat="43.65673" lon="6.87324">
        <ele>600.3</ele>
        <time>2014-05-29T11:08:21.000Z</time>
      </trkpt>
      <trkpt lat="43.65673" lon="6.87331">
        <ele>600.2</ele>
        <time>2014-05-29T11:08:22.000Z</time>
      </trkpt>
      <trkpt lat="43.65673" lon="6.87337">
        <ele>599.9</ele>
        <time>2014-05-29T11:08:23.000Z</time>
      </trkpt>
      <trkpt lat="43.65673" lon="6.87343">
        <ele>599.2</ele>
        <time>2014-05-29T11:08:24.000Z</time>
      </trkpt>
      <trkpt lat="43.65673" lon="6.8735">
        <ele>599.4</ele>
        <time>2014-05-29T11:08:25.000Z</time>
      </trkpt>
      <trkpt lat="43.65673" lon="6.87359">
        <ele>599.1</ele>
        <time>2014-05-29T11:08:26.000Z</time>
      </trkpt>
      <trkpt lat="43.65672" lon="6.87366">
        <ele>598.6</ele>
        <time>2014-05-29T11:08:27.000Z</time>
      </trkpt>
      <trkpt lat="43.65673" lon="6.87374">
        <ele>598.6</ele>
        <time>2014-05-29T11:08:28.000Z</time>
      </trkpt>
      <trkpt lat="43.65673" lon="6.87382">
        <ele>597.8</ele>
        <time>2014-05-29T11:08:29.000Z</time>
      </trkpt>
      <trkpt lat="43.65671" lon="6.8739">
        <ele>597.1</ele>
        <time>2014-05-29T11:08:30.000Z</time>
      </trkpt>
      <trkpt lat="43.65671" lon="6.87388">
        <ele>597.1</ele>
        <time>2014-05-29T11:08:29.733Z</time>
      </trkpt>
      <trkpt lat="43.6567" lon="6.87405">
        <ele>597.1</ele>
        <time>2014-05-29T11:08:32.055Z</time>
      </trkpt>
      <trkpt lat="43.6567" lon="6.87412">
        <ele>597.1</ele>
        <time>2014-05-29T11:08:33.055Z</time>
      </trkpt>
      <trkpt lat="43.6567" lon="6.8742">
        <ele>597.1</ele>
        <time>2014-05-29T11:08:34.055Z</time>
      </trkpt>
      <trkpt lat="43.65669" lon="6.87427">
        <ele>597</ele>
        <time>2014-05-29T11:08:35.055Z</time>
      </trkpt>
      <trkpt lat="43.65669" lon="6.87434">
        <ele>597</ele>
        <time>2014-05-29T11:08:36.055Z</time>
      </trkpt>
      <trkpt lat="43.65668" lon="6.87442">
        <ele>597</ele>
        <time>2014-05-29T11:08:37.055Z</time>
      </trkpt>
      <trkpt lat="43.65668" lon="6.87449">
        <ele>597</ele>
        <time>2014-05-29T11:08:38.055Z</time>
      </trkpt>
      <trkpt lat="43.65659" lon="6.87439">
        <ele>602.2</ele>
        <time>2014-05-29T11:08:41.000Z</time>
      </trkpt>
      <trkpt lat="43.65661" lon="6.87444">
        <ele>605.3</ele>
        <time>2014-05-29T11:08:42.000Z</time>
      </trkpt>
      <trkpt lat="43.6566" lon="6.87449">
        <ele>606.2</ele>
        <time>2014-05-29T11:08:43.000Z</time>
      </trkpt>
      <trkpt lat="43.65658" lon="6.87456">
        <ele>605.1</ele>
        <time>2014-05-29T11:08:44.000Z</time>
      </trkpt>
      <trkpt lat="43.65657" lon="6.87461">
        <ele>603.2</ele>
        <time>2014-05-29T11:08:45.000Z</time>
      </trkpt>
      <trkpt lat="43.65657" lon="6.87467">
        <ele>603.8</ele>
        <time>2014-05-29T11:08:45.999Z</time>
      </trkpt>
      <trkpt lat="43.65656" lon="6.87472">
        <ele>603.1</ele>
        <time>2014-05-29T11:08:47.000Z</time>
      </trkpt>
      <trkpt lat="43.65656" lon="6.87478">
        <ele>602.9</ele>
        <time>2014-05-29T11:08:48.000Z</time>
      </trkpt>
      <trkpt lat="43.65656" lon="6.87484">
        <ele>602.6</ele>
        <time>2014-05-29T11:08:49.000Z</time>
      </trkpt>
      <trkpt lat="43.65656" lon="6.8749">
        <ele>601</ele>
        <time>2014-05-29T11:08:50.000Z</time>
      </trkpt>
      <trkpt lat="43.65656" lon="6.87495">
        <ele>599.9</ele>
        <time>2014-05-29T11:08:51.000Z</time>
      </trkpt>
      <trkpt lat="43.65656" lon="6.87498">
        <ele>598.8</ele>
        <time>2014-05-29T11:08:52.000Z</time>
      </trkpt>
      <trkpt lat="43.65656" lon="6.87502">
        <ele>598.8</ele>
        <time>2014-05-29T11:08:53.000Z</time>
      </trkpt>
      <trkpt lat="43.65658" lon="6.87507">
        <ele>598.3</ele>
        <time>2014-05-29T11:08:57.000Z</time>
      </trkpt>
      <trkpt lat="43.6566" lon="6.87508">
        <ele>598.8</ele>
        <time>2014-05-29T11:08:58.000Z</time>
      </trkpt>
      <trkpt lat="43.65662" lon="6.87507">
        <ele>597</ele>
        <time>2014-05-29T11:09:56.000Z</time>
      </trkpt>
    </trkseg>
  </trk>
</gpx>